<?xml version="1.0" encoding="UTF-8" standalone="no" ?>
<gpx xmlns="http://www.topografix.com/GPX/1/1" xmlns:xsi="http://www.w3.org/2001/XMLSchema-instance" xsi:schemaLocation="http://www.topografix.com/GPX/1/1 http://www.topografix.com/GPX/1/1/gpx.xsd" version="1.1" creator="VisuGPX - https://www.visugpx.com">
  <metadata>
    <name>St Pons - le Cougoir</name>
    <desc><![CDATA[Faite le 16 octobre 2022
En cas de groupe + important, changer le sens pour être à midi au sommet]]></desc>
  </metadata>
  <trk>
    <name><![CDATA[Nyons Randonnée]]></name>
    <extensions>
      <line xmlns="http://www.topografix.com/GPX/gpx_style/0/2">
        <color>0000FF</color>
        <width>4</width>
      </line>
    </extensions>
    <trkseg>
      <trkpt lat="44.42162" lon="5.16784">
        <ele>513.2</ele>
        <time>2022-10-16T13:47:54Z</time>
      </trkpt>
      <trkpt lat="44.42163" lon="5.16782">
        <ele>513.4</ele>
        <time>2022-10-16T13:47:53Z</time>
      </trkpt>
      <trkpt lat="44.42164" lon="5.16781">
        <ele>513.6</ele>
        <time>2022-10-16T13:47:52Z</time>
      </trkpt>
      <trkpt lat="44.42164" lon="5.1678">
        <ele>513.7</ele>
        <time>2022-10-16T13:47:51Z</time>
      </trkpt>
      <trkpt lat="44.42164" lon="5.16779">
        <ele>513.8</ele>
        <time>2022-10-16T13:47:50Z</time>
      </trkpt>
      <trkpt lat="44.42165" lon="5.16778">
        <ele>513.9</ele>
        <time>2022-10-16T13:47:49Z</time>
      </trkpt>
      <trkpt lat="44.42165" lon="5.16777">
        <ele>514</ele>
        <time>2022-10-16T13:47:48Z</time>
      </trkpt>
      <trkpt lat="44.42166" lon="5.16776">
        <ele>514</ele>
        <time>2022-10-16T13:47:47Z</time>
      </trkpt>
      <trkpt lat="44.42166" lon="5.16775">
        <ele>514.1</ele>
        <time>2022-10-16T13:47:46Z</time>
      </trkpt>
      <trkpt lat="44.42166" lon="5.16774">
        <ele>514.1</ele>
        <time>2022-10-16T13:47:45Z</time>
      </trkpt>
      <trkpt lat="44.42167" lon="5.16772">
        <ele>514.2</ele>
        <time>2022-10-16T13:47:44Z</time>
      </trkpt>
      <trkpt lat="44.42167" lon="5.16771">
        <ele>514.3</ele>
        <time>2022-10-16T13:47:43Z</time>
      </trkpt>
      <trkpt lat="44.42167" lon="5.1677">
        <ele>514.3</ele>
        <time>2022-10-16T13:47:42Z</time>
      </trkpt>
      <trkpt lat="44.42167" lon="5.16769">
        <ele>514.3</ele>
        <time>2022-10-16T13:47:41Z</time>
      </trkpt>
      <trkpt lat="44.42167" lon="5.16767">
        <ele>514.4</ele>
        <time>2022-10-16T13:47:40Z</time>
      </trkpt>
      <trkpt lat="44.42167" lon="5.16766">
        <ele>514.4</ele>
        <time>2022-10-16T13:47:39Z</time>
      </trkpt>
      <trkpt lat="44.42167" lon="5.16765">
        <ele>514.5</ele>
        <time>2022-10-16T13:47:38Z</time>
      </trkpt>
      <trkpt lat="44.42167" lon="5.16764">
        <ele>514.5</ele>
        <time>2022-10-16T13:47:37Z</time>
      </trkpt>
      <trkpt lat="44.42168" lon="5.16762">
        <ele>514.6</ele>
        <time>2022-10-16T13:47:36Z</time>
      </trkpt>
      <trkpt lat="44.42168" lon="5.16761">
        <ele>514.7</ele>
        <time>2022-10-16T13:47:35Z</time>
      </trkpt>
      <trkpt lat="44.42168" lon="5.1676">
        <ele>514.7</ele>
        <time>2022-10-16T13:47:34Z</time>
      </trkpt>
      <trkpt lat="44.42168" lon="5.16758">
        <ele>514.8</ele>
        <time>2022-10-16T13:47:33Z</time>
      </trkpt>
      <trkpt lat="44.42169" lon="5.16757">
        <ele>514.9</ele>
        <time>2022-10-16T13:47:32Z</time>
      </trkpt>
      <trkpt lat="44.42169" lon="5.16756">
        <ele>514.9</ele>
        <time>2022-10-16T13:47:31Z</time>
      </trkpt>
      <trkpt lat="44.42169" lon="5.16754">
        <ele>515</ele>
        <time>2022-10-16T13:47:30Z</time>
      </trkpt>
      <trkpt lat="44.4217" lon="5.16753">
        <ele>515.1</ele>
        <time>2022-10-16T13:47:29Z</time>
      </trkpt>
      <trkpt lat="44.4217" lon="5.16752">
        <ele>515.2</ele>
        <time>2022-10-16T13:47:28Z</time>
      </trkpt>
      <trkpt lat="44.42171" lon="5.16751">
        <ele>515.3</ele>
        <time>2022-10-16T13:47:27Z</time>
      </trkpt>
      <trkpt lat="44.42171" lon="5.1675">
        <ele>515.3</ele>
        <time>2022-10-16T13:47:26Z</time>
      </trkpt>
      <trkpt lat="44.42172" lon="5.16748">
        <ele>515.3</ele>
        <time>2022-10-16T13:47:25Z</time>
      </trkpt>
      <trkpt lat="44.42173" lon="5.16747">
        <ele>515.4</ele>
        <time>2022-10-16T13:47:24Z</time>
      </trkpt>
      <trkpt lat="44.42173" lon="5.16746">
        <ele>515.4</ele>
        <time>2022-10-16T13:47:23Z</time>
      </trkpt>
      <trkpt lat="44.42174" lon="5.16745">
        <ele>515.4</ele>
        <time>2022-10-16T13:47:22Z</time>
      </trkpt>
      <trkpt lat="44.42175" lon="5.16744">
        <ele>515.5</ele>
        <time>2022-10-16T13:47:21Z</time>
      </trkpt>
      <trkpt lat="44.42175" lon="5.16743">
        <ele>515.5</ele>
        <time>2022-10-16T13:47:20Z</time>
      </trkpt>
      <trkpt lat="44.42176" lon="5.16742">
        <ele>515.6</ele>
        <time>2022-10-16T13:47:19Z</time>
      </trkpt>
      <trkpt lat="44.42176" lon="5.16741">
        <ele>515.6</ele>
        <time>2022-10-16T13:47:18Z</time>
      </trkpt>
      <trkpt lat="44.42177" lon="5.1674">
        <ele>515.7</ele>
        <time>2022-10-16T13:47:17Z</time>
      </trkpt>
      <trkpt lat="44.42177" lon="5.16738">
        <ele>515.6</ele>
        <time>2022-10-16T13:47:16Z</time>
      </trkpt>
      <trkpt lat="44.42178" lon="5.16737">
        <ele>515.7</ele>
        <time>2022-10-16T13:47:15Z</time>
      </trkpt>
      <trkpt lat="44.42179" lon="5.16736">
        <ele>515.8</ele>
        <time>2022-10-16T13:47:14Z</time>
      </trkpt>
      <trkpt lat="44.42179" lon="5.16735">
        <ele>515.8</ele>
        <time>2022-10-16T13:47:13Z</time>
      </trkpt>
      <trkpt lat="44.4218" lon="5.16734">
        <ele>515.9</ele>
        <time>2022-10-16T13:47:12Z</time>
      </trkpt>
      <trkpt lat="44.42181" lon="5.16733">
        <ele>516.1</ele>
        <time>2022-10-16T13:47:11Z</time>
      </trkpt>
      <trkpt lat="44.42181" lon="5.16732">
        <ele>516.1</ele>
        <time>2022-10-16T13:47:10Z</time>
      </trkpt>
      <trkpt lat="44.42182" lon="5.16731">
        <ele>516.2</ele>
        <time>2022-10-16T13:47:09Z</time>
      </trkpt>
      <trkpt lat="44.42183" lon="5.1673">
        <ele>516.3</ele>
        <time>2022-10-16T13:47:08Z</time>
      </trkpt>
      <trkpt lat="44.42183" lon="5.16729">
        <ele>516.3</ele>
        <time>2022-10-16T13:47:07Z</time>
      </trkpt>
      <trkpt lat="44.42184" lon="5.16728">
        <ele>516.4</ele>
        <time>2022-10-16T13:47:06Z</time>
      </trkpt>
      <trkpt lat="44.42185" lon="5.16727">
        <ele>516.6</ele>
        <time>2022-10-16T13:47:05Z</time>
      </trkpt>
      <trkpt lat="44.42185" lon="5.16726">
        <ele>516.6</ele>
        <time>2022-10-16T13:47:04Z</time>
      </trkpt>
      <trkpt lat="44.42186" lon="5.16725">
        <ele>516.7</ele>
        <time>2022-10-16T13:47:03Z</time>
      </trkpt>
      <trkpt lat="44.42186" lon="5.16724">
        <ele>516.8</ele>
        <time>2022-10-16T13:47:02Z</time>
      </trkpt>
      <trkpt lat="44.42187" lon="5.16723">
        <ele>516.9</ele>
        <time>2022-10-16T13:47:01Z</time>
      </trkpt>
      <trkpt lat="44.42188" lon="5.16722">
        <ele>517.1</ele>
        <time>2022-10-16T13:47:00Z</time>
      </trkpt>
      <trkpt lat="44.42188" lon="5.16721">
        <ele>517.1</ele>
        <time>2022-10-16T13:46:59Z</time>
      </trkpt>
      <trkpt lat="44.42189" lon="5.1672">
        <ele>517.3</ele>
        <time>2022-10-16T13:46:58Z</time>
      </trkpt>
      <trkpt lat="44.42189" lon="5.16719">
        <ele>517.3</ele>
        <time>2022-10-16T13:46:57Z</time>
      </trkpt>
      <trkpt lat="44.4219" lon="5.16718">
        <ele>517.5</ele>
        <time>2022-10-16T13:46:56Z</time>
      </trkpt>
      <trkpt lat="44.42191" lon="5.16717">
        <ele>517.8</ele>
        <time>2022-10-16T13:46:55Z</time>
      </trkpt>
      <trkpt lat="44.42191" lon="5.16715">
        <ele>517.9</ele>
        <time>2022-10-16T13:46:54Z</time>
      </trkpt>
      <trkpt lat="44.42192" lon="5.16714">
        <ele>518.1</ele>
        <time>2022-10-16T13:46:53Z</time>
      </trkpt>
      <trkpt lat="44.42192" lon="5.16713">
        <ele>518.2</ele>
        <time>2022-10-16T13:46:52Z</time>
      </trkpt>
      <trkpt lat="44.42193" lon="5.16712">
        <ele>518.4</ele>
        <time>2022-10-16T13:46:51Z</time>
      </trkpt>
      <trkpt lat="44.42193" lon="5.16711">
        <ele>518.5</ele>
        <time>2022-10-16T13:46:50Z</time>
      </trkpt>
      <trkpt lat="44.42194" lon="5.1671">
        <ele>518.8</ele>
        <time>2022-10-16T13:46:49Z</time>
      </trkpt>
      <trkpt lat="44.42194" lon="5.16709">
        <ele>518.8</ele>
        <time>2022-10-16T13:46:48Z</time>
      </trkpt>
      <trkpt lat="44.42195" lon="5.16707">
        <ele>519.1</ele>
        <time>2022-10-16T13:46:47Z</time>
      </trkpt>
      <trkpt lat="44.42196" lon="5.16706">
        <ele>519.3</ele>
        <time>2022-10-16T13:46:46Z</time>
      </trkpt>
      <trkpt lat="44.42196" lon="5.16705">
        <ele>519.4</ele>
        <time>2022-10-16T13:46:45Z</time>
      </trkpt>
      <trkpt lat="44.42197" lon="5.16704">
        <ele>519.5</ele>
        <time>2022-10-16T13:46:44Z</time>
      </trkpt>
      <trkpt lat="44.42197" lon="5.16703">
        <ele>519.6</ele>
        <time>2022-10-16T13:46:43Z</time>
      </trkpt>
      <trkpt lat="44.42198" lon="5.16702">
        <ele>519.7</ele>
        <time>2022-10-16T13:46:42Z</time>
      </trkpt>
      <trkpt lat="44.42198" lon="5.167">
        <ele>519.9</ele>
        <time>2022-10-16T13:46:41Z</time>
      </trkpt>
      <trkpt lat="44.42199" lon="5.16699">
        <ele>520</ele>
        <time>2022-10-16T13:46:40Z</time>
      </trkpt>
      <trkpt lat="44.422" lon="5.16698">
        <ele>520.2</ele>
        <time>2022-10-16T13:46:39Z</time>
      </trkpt>
      <trkpt lat="44.422" lon="5.16697">
        <ele>520.2</ele>
        <time>2022-10-16T13:46:38Z</time>
      </trkpt>
      <trkpt lat="44.42201" lon="5.16695">
        <ele>520.4</ele>
        <time>2022-10-16T13:46:37Z</time>
      </trkpt>
      <trkpt lat="44.42202" lon="5.16694">
        <ele>520.6</ele>
        <time>2022-10-16T13:46:36Z</time>
      </trkpt>
      <trkpt lat="44.42202" lon="5.16693">
        <ele>520.6</ele>
        <time>2022-10-16T13:46:35Z</time>
      </trkpt>
      <trkpt lat="44.42203" lon="5.16692">
        <ele>520.7</ele>
        <time>2022-10-16T13:46:34Z</time>
      </trkpt>
      <trkpt lat="44.42204" lon="5.16691">
        <ele>520.8</ele>
        <time>2022-10-16T13:46:33Z</time>
      </trkpt>
      <trkpt lat="44.42204" lon="5.1669">
        <ele>520.8</ele>
        <time>2022-10-16T13:46:32Z</time>
      </trkpt>
      <trkpt lat="44.42205" lon="5.16689">
        <ele>521</ele>
        <time>2022-10-16T13:46:31Z</time>
      </trkpt>
      <trkpt lat="44.42206" lon="5.16687">
        <ele>521.1</ele>
        <time>2022-10-16T13:46:30Z</time>
      </trkpt>
      <trkpt lat="44.42206" lon="5.16686">
        <ele>521.1</ele>
        <time>2022-10-16T13:46:29Z</time>
      </trkpt>
      <trkpt lat="44.42207" lon="5.16685">
        <ele>521.2</ele>
        <time>2022-10-16T13:46:28Z</time>
      </trkpt>
      <trkpt lat="44.42208" lon="5.16684">
        <ele>521.4</ele>
        <time>2022-10-16T13:46:27Z</time>
      </trkpt>
      <trkpt lat="44.42208" lon="5.16683">
        <ele>521.4</ele>
        <time>2022-10-16T13:46:26Z</time>
      </trkpt>
      <trkpt lat="44.42209" lon="5.16682">
        <ele>521.5</ele>
        <time>2022-10-16T13:46:25Z</time>
      </trkpt>
      <trkpt lat="44.4221" lon="5.16681">
        <ele>521.6</ele>
        <time>2022-10-16T13:46:24Z</time>
      </trkpt>
      <trkpt lat="44.42211" lon="5.16679">
        <ele>521.7</ele>
        <time>2022-10-16T13:46:23Z</time>
      </trkpt>
      <trkpt lat="44.42211" lon="5.16678">
        <ele>521.8</ele>
        <time>2022-10-16T13:46:22Z</time>
      </trkpt>
      <trkpt lat="44.42212" lon="5.16677">
        <ele>521.9</ele>
        <time>2022-10-16T13:46:21Z</time>
      </trkpt>
      <trkpt lat="44.42213" lon="5.16676">
        <ele>522</ele>
        <time>2022-10-16T13:46:20Z</time>
      </trkpt>
      <trkpt lat="44.42213" lon="5.16675">
        <ele>522</ele>
        <time>2022-10-16T13:46:19Z</time>
      </trkpt>
      <trkpt lat="44.42214" lon="5.16673">
        <ele>522.2</ele>
        <time>2022-10-16T13:46:18Z</time>
      </trkpt>
      <trkpt lat="44.42215" lon="5.16672">
        <ele>522.3</ele>
        <time>2022-10-16T13:46:17Z</time>
      </trkpt>
      <trkpt lat="44.42215" lon="5.16671">
        <ele>522.3</ele>
        <time>2022-10-16T13:46:16Z</time>
      </trkpt>
      <trkpt lat="44.42216" lon="5.1667">
        <ele>522.4</ele>
        <time>2022-10-16T13:46:15Z</time>
      </trkpt>
      <trkpt lat="44.42217" lon="5.16669">
        <ele>522.5</ele>
        <time>2022-10-16T13:46:14Z</time>
      </trkpt>
      <trkpt lat="44.42217" lon="5.16668">
        <ele>522.6</ele>
        <time>2022-10-16T13:46:13Z</time>
      </trkpt>
      <trkpt lat="44.42218" lon="5.16667">
        <ele>522.7</ele>
        <time>2022-10-16T13:46:12Z</time>
      </trkpt>
      <trkpt lat="44.42219" lon="5.16666">
        <ele>522.8</ele>
        <time>2022-10-16T13:46:11Z</time>
      </trkpt>
      <trkpt lat="44.4222" lon="5.16665">
        <ele>522.9</ele>
        <time>2022-10-16T13:46:10Z</time>
      </trkpt>
      <trkpt lat="44.4222" lon="5.16664">
        <ele>522.9</ele>
        <time>2022-10-16T13:46:09Z</time>
      </trkpt>
      <trkpt lat="44.42221" lon="5.16663">
        <ele>523</ele>
        <time>2022-10-16T13:46:08Z</time>
      </trkpt>
      <trkpt lat="44.42221" lon="5.16662">
        <ele>523.1</ele>
        <time>2022-10-16T13:46:07Z</time>
      </trkpt>
      <trkpt lat="44.42222" lon="5.16661">
        <ele>523.2</ele>
        <time>2022-10-16T13:46:06Z</time>
      </trkpt>
      <trkpt lat="44.42223" lon="5.1666">
        <ele>523.4</ele>
        <time>2022-10-16T13:46:05Z</time>
      </trkpt>
      <trkpt lat="44.42223" lon="5.16659">
        <ele>523.4</ele>
        <time>2022-10-16T13:46:04Z</time>
      </trkpt>
      <trkpt lat="44.42224" lon="5.16658">
        <ele>523.6</ele>
        <time>2022-10-16T13:46:03Z</time>
      </trkpt>
      <trkpt lat="44.42225" lon="5.16657">
        <ele>523.7</ele>
        <time>2022-10-16T13:46:02Z</time>
      </trkpt>
      <trkpt lat="44.42225" lon="5.16656">
        <ele>523.8</ele>
        <time>2022-10-16T13:46:01Z</time>
      </trkpt>
      <trkpt lat="44.42226" lon="5.16654">
        <ele>524</ele>
        <time>2022-10-16T13:46:00Z</time>
      </trkpt>
      <trkpt lat="44.42227" lon="5.16654">
        <ele>524.1</ele>
        <time>2022-10-16T13:45:59Z</time>
      </trkpt>
      <trkpt lat="44.42227" lon="5.16653">
        <ele>524.2</ele>
        <time>2022-10-16T13:45:58Z</time>
      </trkpt>
      <trkpt lat="44.42228" lon="5.16652">
        <ele>524.4</ele>
        <time>2022-10-16T13:45:57Z</time>
      </trkpt>
      <trkpt lat="44.42229" lon="5.16651">
        <ele>524.5</ele>
        <time>2022-10-16T13:45:56Z</time>
      </trkpt>
      <trkpt lat="44.4223" lon="5.1665">
        <ele>524.7</ele>
        <time>2022-10-16T13:45:55Z</time>
      </trkpt>
      <trkpt lat="44.4223" lon="5.16649">
        <ele>524.8</ele>
        <time>2022-10-16T13:45:54Z</time>
      </trkpt>
      <trkpt lat="44.42231" lon="5.16648">
        <ele>524.9</ele>
        <time>2022-10-16T13:45:53Z</time>
      </trkpt>
      <trkpt lat="44.42232" lon="5.16647">
        <ele>525.1</ele>
        <time>2022-10-16T13:45:52Z</time>
      </trkpt>
      <trkpt lat="44.42233" lon="5.16646">
        <ele>525.3</ele>
        <time>2022-10-16T13:45:51Z</time>
      </trkpt>
      <trkpt lat="44.42233" lon="5.16645">
        <ele>525.3</ele>
        <time>2022-10-16T13:45:50Z</time>
      </trkpt>
      <trkpt lat="44.42234" lon="5.16644">
        <ele>525.5</ele>
        <time>2022-10-16T13:45:49Z</time>
      </trkpt>
      <trkpt lat="44.42235" lon="5.16643">
        <ele>525.7</ele>
        <time>2022-10-16T13:45:48Z</time>
      </trkpt>
      <trkpt lat="44.42236" lon="5.16642">
        <ele>525.9</ele>
        <time>2022-10-16T13:45:47Z</time>
      </trkpt>
      <trkpt lat="44.42237" lon="5.16641">
        <ele>526.1</ele>
        <time>2022-10-16T13:45:46Z</time>
      </trkpt>
      <trkpt lat="44.42237" lon="5.1664">
        <ele>526.1</ele>
        <time>2022-10-16T13:45:45Z</time>
      </trkpt>
      <trkpt lat="44.42238" lon="5.16639">
        <ele>526.3</ele>
        <time>2022-10-16T13:45:44Z</time>
      </trkpt>
      <trkpt lat="44.42239" lon="5.16638">
        <ele>526.3</ele>
        <time>2022-10-16T13:45:43Z</time>
      </trkpt>
      <trkpt lat="44.4224" lon="5.16637">
        <ele>526.3</ele>
        <time>2022-10-16T13:45:42Z</time>
      </trkpt>
      <trkpt lat="44.42241" lon="5.16637">
        <ele>526.5</ele>
        <time>2022-10-16T13:45:41Z</time>
      </trkpt>
      <trkpt lat="44.42241" lon="5.16636">
        <ele>526.4</ele>
        <time>2022-10-16T13:45:40Z</time>
      </trkpt>
      <trkpt lat="44.42242" lon="5.16635">
        <ele>526.4</ele>
        <time>2022-10-16T13:45:39Z</time>
      </trkpt>
      <trkpt lat="44.42243" lon="5.16634">
        <ele>526.5</ele>
        <time>2022-10-16T13:45:38Z</time>
      </trkpt>
      <trkpt lat="44.42244" lon="5.16633">
        <ele>526.5</ele>
        <time>2022-10-16T13:45:37Z</time>
      </trkpt>
      <trkpt lat="44.42245" lon="5.16633">
        <ele>526.7</ele>
        <time>2022-10-16T13:45:36Z</time>
      </trkpt>
      <trkpt lat="44.42245" lon="5.16632">
        <ele>526.6</ele>
        <time>2022-10-16T13:45:35Z</time>
      </trkpt>
      <trkpt lat="44.42246" lon="5.16631">
        <ele>526.7</ele>
        <time>2022-10-16T13:45:34Z</time>
      </trkpt>
      <trkpt lat="44.42247" lon="5.1663">
        <ele>526.8</ele>
        <time>2022-10-16T13:45:33Z</time>
      </trkpt>
      <trkpt lat="44.42248" lon="5.16629">
        <ele>526.9</ele>
        <time>2022-10-16T13:45:32Z</time>
      </trkpt>
      <trkpt lat="44.42248" lon="5.16628">
        <ele>526.8</ele>
        <time>2022-10-16T13:45:31Z</time>
      </trkpt>
      <trkpt lat="44.42249" lon="5.16627">
        <ele>526.9</ele>
        <time>2022-10-16T13:45:30Z</time>
      </trkpt>
      <trkpt lat="44.4225" lon="5.16626">
        <ele>527.1</ele>
        <time>2022-10-16T13:45:29Z</time>
      </trkpt>
      <trkpt lat="44.4225" lon="5.16625">
        <ele>527</ele>
        <time>2022-10-16T13:45:28Z</time>
      </trkpt>
      <trkpt lat="44.42251" lon="5.16624">
        <ele>527.1</ele>
        <time>2022-10-16T13:45:27Z</time>
      </trkpt>
      <trkpt lat="44.42252" lon="5.16623">
        <ele>527.3</ele>
        <time>2022-10-16T13:45:26Z</time>
      </trkpt>
      <trkpt lat="44.42253" lon="5.16622">
        <ele>527.5</ele>
        <time>2022-10-16T13:45:25Z</time>
      </trkpt>
      <trkpt lat="44.42254" lon="5.16622">
        <ele>527.7</ele>
        <time>2022-10-16T13:45:24Z</time>
      </trkpt>
      <trkpt lat="44.42254" lon="5.16621">
        <ele>527.6</ele>
        <time>2022-10-16T13:45:23Z</time>
      </trkpt>
      <trkpt lat="44.42255" lon="5.1662">
        <ele>527.8</ele>
        <time>2022-10-16T13:45:22Z</time>
      </trkpt>
      <trkpt lat="44.42256" lon="5.16619">
        <ele>528</ele>
        <time>2022-10-16T13:45:21Z</time>
      </trkpt>
      <trkpt lat="44.42256" lon="5.16618">
        <ele>527.9</ele>
        <time>2022-10-16T13:45:20Z</time>
      </trkpt>
      <trkpt lat="44.42257" lon="5.16617">
        <ele>528.1</ele>
        <time>2022-10-16T13:45:19Z</time>
      </trkpt>
      <trkpt lat="44.42258" lon="5.16616">
        <ele>528.3</ele>
        <time>2022-10-16T13:45:18Z</time>
      </trkpt>
      <trkpt lat="44.42259" lon="5.16615">
        <ele>528.5</ele>
        <time>2022-10-16T13:45:17Z</time>
      </trkpt>
      <trkpt lat="44.4226" lon="5.16614">
        <ele>528.7</ele>
        <time>2022-10-16T13:45:16Z</time>
      </trkpt>
      <trkpt lat="44.4226" lon="5.16613">
        <ele>528.6</ele>
        <time>2022-10-16T13:45:15Z</time>
      </trkpt>
      <trkpt lat="44.42261" lon="5.16612">
        <ele>528.8</ele>
        <time>2022-10-16T13:45:14Z</time>
      </trkpt>
      <trkpt lat="44.42262" lon="5.16611">
        <ele>529</ele>
        <time>2022-10-16T13:45:13Z</time>
      </trkpt>
      <trkpt lat="44.42263" lon="5.1661">
        <ele>529.2</ele>
        <time>2022-10-16T13:45:12Z</time>
      </trkpt>
      <trkpt lat="44.42264" lon="5.1661">
        <ele>529.4</ele>
        <time>2022-10-16T13:45:11Z</time>
      </trkpt>
      <trkpt lat="44.42264" lon="5.16609">
        <ele>529.3</ele>
        <time>2022-10-16T13:45:10Z</time>
      </trkpt>
      <trkpt lat="44.42265" lon="5.16608">
        <ele>529.5</ele>
        <time>2022-10-16T13:45:09Z</time>
      </trkpt>
      <trkpt lat="44.42266" lon="5.16607">
        <ele>529.6</ele>
        <time>2022-10-16T13:45:08Z</time>
      </trkpt>
      <trkpt lat="44.42267" lon="5.16607">
        <ele>529.9</ele>
        <time>2022-10-16T13:45:07Z</time>
      </trkpt>
      <trkpt lat="44.42268" lon="5.16606">
        <ele>530.1</ele>
        <time>2022-10-16T13:45:06Z</time>
      </trkpt>
      <trkpt lat="44.42269" lon="5.16605">
        <ele>530.3</ele>
        <time>2022-10-16T13:45:05Z</time>
      </trkpt>
      <trkpt lat="44.42269" lon="5.16604">
        <ele>530.2</ele>
        <time>2022-10-16T13:45:04Z</time>
      </trkpt>
      <trkpt lat="44.4227" lon="5.16603">
        <ele>530.4</ele>
        <time>2022-10-16T13:45:03Z</time>
      </trkpt>
      <trkpt lat="44.42271" lon="5.16602">
        <ele>530.6</ele>
        <time>2022-10-16T13:45:02Z</time>
      </trkpt>
      <trkpt lat="44.42271" lon="5.16601">
        <ele>530.6</ele>
        <time>2022-10-16T13:45:01Z</time>
      </trkpt>
      <trkpt lat="44.42272" lon="5.166">
        <ele>530.8</ele>
        <time>2022-10-16T13:45:00Z</time>
      </trkpt>
      <trkpt lat="44.42273" lon="5.16599">
        <ele>531.1</ele>
        <time>2022-10-16T13:44:59Z</time>
      </trkpt>
      <trkpt lat="44.42273" lon="5.16598">
        <ele>531</ele>
        <time>2022-10-16T13:44:58Z</time>
      </trkpt>
      <trkpt lat="44.42274" lon="5.16597">
        <ele>531.3</ele>
        <time>2022-10-16T13:44:57Z</time>
      </trkpt>
      <trkpt lat="44.42275" lon="5.16597">
        <ele>531.6</ele>
        <time>2022-10-16T13:44:56Z</time>
      </trkpt>
      <trkpt lat="44.42276" lon="5.16596">
        <ele>531.9</ele>
        <time>2022-10-16T13:44:55Z</time>
      </trkpt>
      <trkpt lat="44.42276" lon="5.16595">
        <ele>531.8</ele>
        <time>2022-10-16T13:44:54Z</time>
      </trkpt>
      <trkpt lat="44.42277" lon="5.16594">
        <ele>532.1</ele>
        <time>2022-10-16T13:44:53Z</time>
      </trkpt>
      <trkpt lat="44.42278" lon="5.16593">
        <ele>532.4</ele>
        <time>2022-10-16T13:44:52Z</time>
      </trkpt>
      <trkpt lat="44.42279" lon="5.16592">
        <ele>532.6</ele>
        <time>2022-10-16T13:44:51Z</time>
      </trkpt>
      <trkpt lat="44.42279" lon="5.16591">
        <ele>532.6</ele>
        <time>2022-10-16T13:44:50Z</time>
      </trkpt>
      <trkpt lat="44.4228" lon="5.1659">
        <ele>532.8</ele>
        <time>2022-10-16T13:44:48Z</time>
      </trkpt>
      <trkpt lat="44.42281" lon="5.16589">
        <ele>533</ele>
        <time>2022-10-16T13:44:47Z</time>
      </trkpt>
      <trkpt lat="44.42282" lon="5.16588">
        <ele>533.2</ele>
        <time>2022-10-16T13:44:46Z</time>
      </trkpt>
      <trkpt lat="44.42282" lon="5.16587">
        <ele>533.2</ele>
        <time>2022-10-16T13:44:45Z</time>
      </trkpt>
      <trkpt lat="44.42283" lon="5.16586">
        <ele>533.4</ele>
        <time>2022-10-16T13:44:44Z</time>
      </trkpt>
      <trkpt lat="44.42284" lon="5.16585">
        <ele>533.6</ele>
        <time>2022-10-16T13:44:43Z</time>
      </trkpt>
      <trkpt lat="44.42284" lon="5.16584">
        <ele>533.6</ele>
        <time>2022-10-16T13:44:42Z</time>
      </trkpt>
      <trkpt lat="44.42285" lon="5.16583">
        <ele>533.8</ele>
        <time>2022-10-16T13:44:41Z</time>
      </trkpt>
      <trkpt lat="44.42286" lon="5.16582">
        <ele>534</ele>
        <time>2022-10-16T13:44:40Z</time>
      </trkpt>
      <trkpt lat="44.42287" lon="5.16581">
        <ele>534.1</ele>
        <time>2022-10-16T13:44:39Z</time>
      </trkpt>
      <trkpt lat="44.42287" lon="5.1658">
        <ele>534</ele>
        <time>2022-10-16T13:44:38Z</time>
      </trkpt>
      <trkpt lat="44.42288" lon="5.16579">
        <ele>534.2</ele>
        <time>2022-10-16T13:44:37Z</time>
      </trkpt>
      <trkpt lat="44.42289" lon="5.16577">
        <ele>534.3</ele>
        <time>2022-10-16T13:44:36Z</time>
      </trkpt>
      <trkpt lat="44.42289" lon="5.16576">
        <ele>534.2</ele>
        <time>2022-10-16T13:44:35Z</time>
      </trkpt>
      <trkpt lat="44.4229" lon="5.16575">
        <ele>534.4</ele>
        <time>2022-10-16T13:44:34Z</time>
      </trkpt>
      <trkpt lat="44.42291" lon="5.16574">
        <ele>534.6</ele>
        <time>2022-10-16T13:44:33Z</time>
      </trkpt>
      <trkpt lat="44.42291" lon="5.16573">
        <ele>534.6</ele>
        <time>2022-10-16T13:44:32Z</time>
      </trkpt>
      <trkpt lat="44.42292" lon="5.16572">
        <ele>534.8</ele>
        <time>2022-10-16T13:44:31Z</time>
      </trkpt>
      <trkpt lat="44.42292" lon="5.16571">
        <ele>534.7</ele>
        <time>2022-10-16T13:44:30Z</time>
      </trkpt>
      <trkpt lat="44.42293" lon="5.16571">
        <ele>535</ele>
        <time>2022-10-16T13:44:29Z</time>
      </trkpt>
      <trkpt lat="44.42294" lon="5.1657">
        <ele>535.2</ele>
        <time>2022-10-16T13:44:28Z</time>
      </trkpt>
      <trkpt lat="44.42294" lon="5.16569">
        <ele>535.1</ele>
        <time>2022-10-16T13:44:27Z</time>
      </trkpt>
      <trkpt lat="44.42295" lon="5.16568">
        <ele>535.4</ele>
        <time>2022-10-16T13:44:26Z</time>
      </trkpt>
      <trkpt lat="44.42295" lon="5.16567">
        <ele>535.3</ele>
        <time>2022-10-16T13:44:25Z</time>
      </trkpt>
      <trkpt lat="44.42296" lon="5.16566">
        <ele>535.5</ele>
        <time>2022-10-16T13:44:24Z</time>
      </trkpt>
      <trkpt lat="44.42296" lon="5.16565">
        <ele>535.5</ele>
        <time>2022-10-16T13:44:23Z</time>
      </trkpt>
      <trkpt lat="44.42297" lon="5.16564">
        <ele>535.7</ele>
        <time>2022-10-16T13:44:22Z</time>
      </trkpt>
      <trkpt lat="44.42297" lon="5.16563">
        <ele>535.7</ele>
        <time>2022-10-16T13:44:21Z</time>
      </trkpt>
      <trkpt lat="44.42298" lon="5.16562">
        <ele>535.9</ele>
        <time>2022-10-16T13:44:20Z</time>
      </trkpt>
      <trkpt lat="44.42299" lon="5.16561">
        <ele>536.2</ele>
        <time>2022-10-16T13:44:19Z</time>
      </trkpt>
      <trkpt lat="44.423" lon="5.1656">
        <ele>536.4</ele>
        <time>2022-10-16T13:44:18Z</time>
      </trkpt>
      <trkpt lat="44.423" lon="5.16559">
        <ele>536.4</ele>
        <time>2022-10-16T13:44:17Z</time>
      </trkpt>
      <trkpt lat="44.42301" lon="5.16558">
        <ele>536.6</ele>
        <time>2022-10-16T13:44:16Z</time>
      </trkpt>
      <trkpt lat="44.42301" lon="5.16557">
        <ele>536.6</ele>
        <time>2022-10-16T13:44:15Z</time>
      </trkpt>
      <trkpt lat="44.42302" lon="5.16556">
        <ele>536.9</ele>
        <time>2022-10-16T13:44:14Z</time>
      </trkpt>
      <trkpt lat="44.42303" lon="5.16555">
        <ele>537.1</ele>
        <time>2022-10-16T13:44:13Z</time>
      </trkpt>
      <trkpt lat="44.42303" lon="5.16553">
        <ele>537</ele>
        <time>2022-10-16T13:44:12Z</time>
      </trkpt>
      <trkpt lat="44.42304" lon="5.16553">
        <ele>537.3</ele>
        <time>2022-10-16T13:44:11Z</time>
      </trkpt>
      <trkpt lat="44.42304" lon="5.16552">
        <ele>537.2</ele>
        <time>2022-10-16T13:44:10Z</time>
      </trkpt>
      <trkpt lat="44.42305" lon="5.16551">
        <ele>537.5</ele>
        <time>2022-10-16T13:44:09Z</time>
      </trkpt>
      <trkpt lat="44.42305" lon="5.1655">
        <ele>537.4</ele>
        <time>2022-10-16T13:44:08Z</time>
      </trkpt>
      <trkpt lat="44.42306" lon="5.16549">
        <ele>537.6</ele>
        <time>2022-10-16T13:44:07Z</time>
      </trkpt>
      <trkpt lat="44.42306" lon="5.16548">
        <ele>537.6</ele>
        <time>2022-10-16T13:44:06Z</time>
      </trkpt>
      <trkpt lat="44.42307" lon="5.16547">
        <ele>537.7</ele>
        <time>2022-10-16T13:44:05Z</time>
      </trkpt>
      <trkpt lat="44.42307" lon="5.16545">
        <ele>537.6</ele>
        <time>2022-10-16T13:44:04Z</time>
      </trkpt>
      <trkpt lat="44.42308" lon="5.16544">
        <ele>537.8</ele>
        <time>2022-10-16T13:44:03Z</time>
      </trkpt>
      <trkpt lat="44.42308" lon="5.16543">
        <ele>537.7</ele>
        <time>2022-10-16T13:44:02Z</time>
      </trkpt>
      <trkpt lat="44.42308" lon="5.16541">
        <ele>537.6</ele>
        <time>2022-10-16T13:44:01Z</time>
      </trkpt>
      <trkpt lat="44.42309" lon="5.1654">
        <ele>537.8</ele>
        <time>2022-10-16T13:44:00Z</time>
      </trkpt>
      <trkpt lat="44.42309" lon="5.16539">
        <ele>537.8</ele>
        <time>2022-10-16T13:43:59Z</time>
      </trkpt>
      <trkpt lat="44.4231" lon="5.16538">
        <ele>538</ele>
        <time>2022-10-16T13:43:58Z</time>
      </trkpt>
      <trkpt lat="44.4231" lon="5.16536">
        <ele>537.9</ele>
        <time>2022-10-16T13:43:57Z</time>
      </trkpt>
      <trkpt lat="44.42311" lon="5.16535">
        <ele>538.1</ele>
        <time>2022-10-16T13:43:56Z</time>
      </trkpt>
      <trkpt lat="44.42311" lon="5.16534">
        <ele>538.1</ele>
        <time>2022-10-16T13:43:55Z</time>
      </trkpt>
      <trkpt lat="44.42312" lon="5.16533">
        <ele>538.3</ele>
        <time>2022-10-16T13:43:54Z</time>
      </trkpt>
      <trkpt lat="44.42312" lon="5.16532">
        <ele>538.3</ele>
        <time>2022-10-16T13:43:53Z</time>
      </trkpt>
      <trkpt lat="44.42313" lon="5.16531">
        <ele>538.6</ele>
        <time>2022-10-16T13:43:52Z</time>
      </trkpt>
      <trkpt lat="44.42313" lon="5.1653">
        <ele>538.5</ele>
        <time>2022-10-16T13:43:51Z</time>
      </trkpt>
      <trkpt lat="44.42314" lon="5.16528">
        <ele>538.7</ele>
        <time>2022-10-16T13:43:50Z</time>
      </trkpt>
      <trkpt lat="44.42314" lon="5.16527">
        <ele>538.7</ele>
        <time>2022-10-16T13:43:49Z</time>
      </trkpt>
      <trkpt lat="44.42315" lon="5.16526">
        <ele>539</ele>
        <time>2022-10-16T13:43:48Z</time>
      </trkpt>
      <trkpt lat="44.42315" lon="5.16525">
        <ele>538.9</ele>
        <time>2022-10-16T13:43:47Z</time>
      </trkpt>
      <trkpt lat="44.42315" lon="5.16524">
        <ele>538.9</ele>
        <time>2022-10-16T13:43:46Z</time>
      </trkpt>
      <trkpt lat="44.42316" lon="5.16523">
        <ele>539.2</ele>
        <time>2022-10-16T13:43:45Z</time>
      </trkpt>
      <trkpt lat="44.42316" lon="5.16521">
        <ele>539.1</ele>
        <time>2022-10-16T13:43:44Z</time>
      </trkpt>
      <trkpt lat="44.42317" lon="5.1652">
        <ele>539.4</ele>
        <time>2022-10-16T13:43:43Z</time>
      </trkpt>
      <trkpt lat="44.42317" lon="5.16519">
        <ele>539.3</ele>
        <time>2022-10-16T13:43:42Z</time>
      </trkpt>
      <trkpt lat="44.42317" lon="5.16518">
        <ele>539.3</ele>
        <time>2022-10-16T13:43:41Z</time>
      </trkpt>
      <trkpt lat="44.42318" lon="5.16517">
        <ele>539.6</ele>
        <time>2022-10-16T13:43:40Z</time>
      </trkpt>
      <trkpt lat="44.42318" lon="5.16515">
        <ele>539.5</ele>
        <time>2022-10-16T13:43:39Z</time>
      </trkpt>
      <trkpt lat="44.42319" lon="5.16514">
        <ele>539.8</ele>
        <time>2022-10-16T13:43:38Z</time>
      </trkpt>
      <trkpt lat="44.42319" lon="5.16513">
        <ele>539.8</ele>
        <time>2022-10-16T13:43:37Z</time>
      </trkpt>
      <trkpt lat="44.4232" lon="5.16512">
        <ele>540.1</ele>
        <time>2022-10-16T13:43:36Z</time>
      </trkpt>
      <trkpt lat="44.4232" lon="5.16511">
        <ele>540.1</ele>
        <time>2022-10-16T13:43:35Z</time>
      </trkpt>
      <trkpt lat="44.4232" lon="5.16509">
        <ele>540</ele>
        <time>2022-10-16T13:43:34Z</time>
      </trkpt>
      <trkpt lat="44.42321" lon="5.16508">
        <ele>540.4</ele>
        <time>2022-10-16T13:43:33Z</time>
      </trkpt>
      <trkpt lat="44.42321" lon="5.16507">
        <ele>540.3</ele>
        <time>2022-10-16T13:43:32Z</time>
      </trkpt>
      <trkpt lat="44.42321" lon="5.16506">
        <ele>540.3</ele>
        <time>2022-10-16T13:43:31Z</time>
      </trkpt>
      <trkpt lat="44.42322" lon="5.16504">
        <ele>540.6</ele>
        <time>2022-10-16T13:43:30Z</time>
      </trkpt>
      <trkpt lat="44.42322" lon="5.16503">
        <ele>540.6</ele>
        <time>2022-10-16T13:43:29Z</time>
      </trkpt>
      <trkpt lat="44.42323" lon="5.16502">
        <ele>541</ele>
        <time>2022-10-16T13:43:28Z</time>
      </trkpt>
      <trkpt lat="44.42323" lon="5.16501">
        <ele>540.9</ele>
        <time>2022-10-16T13:43:27Z</time>
      </trkpt>
      <trkpt lat="44.42323" lon="5.16499">
        <ele>541</ele>
        <time>2022-10-16T13:43:26Z</time>
      </trkpt>
      <trkpt lat="44.42323" lon="5.16498">
        <ele>541</ele>
        <time>2022-10-16T13:43:25Z</time>
      </trkpt>
      <trkpt lat="44.42324" lon="5.16497">
        <ele>541.4</ele>
        <time>2022-10-16T13:43:24Z</time>
      </trkpt>
      <trkpt lat="44.42324" lon="5.16495">
        <ele>541.5</ele>
        <time>2022-10-16T13:43:23Z</time>
      </trkpt>
      <trkpt lat="44.42324" lon="5.16494">
        <ele>541.6</ele>
        <time>2022-10-16T13:43:22Z</time>
      </trkpt>
      <trkpt lat="44.42325" lon="5.16493">
        <ele>542.1</ele>
        <time>2022-10-16T13:43:21Z</time>
      </trkpt>
      <trkpt lat="44.42325" lon="5.16491">
        <ele>542.2</ele>
        <time>2022-10-16T13:43:20Z</time>
      </trkpt>
      <trkpt lat="44.42325" lon="5.1649">
        <ele>542.2</ele>
        <time>2022-10-16T13:43:19Z</time>
      </trkpt>
      <trkpt lat="44.42326" lon="5.16489">
        <ele>542.7</ele>
        <time>2022-10-16T13:43:18Z</time>
      </trkpt>
      <trkpt lat="44.42326" lon="5.16488">
        <ele>542.7</ele>
        <time>2022-10-16T13:43:17Z</time>
      </trkpt>
      <trkpt lat="44.42326" lon="5.16486">
        <ele>542.8</ele>
        <time>2022-10-16T13:43:16Z</time>
      </trkpt>
      <trkpt lat="44.42327" lon="5.16485">
        <ele>543.3</ele>
        <time>2022-10-16T13:43:15Z</time>
      </trkpt>
      <trkpt lat="44.42327" lon="5.16484">
        <ele>543.4</ele>
        <time>2022-10-16T13:43:14Z</time>
      </trkpt>
      <trkpt lat="44.42327" lon="5.16483">
        <ele>543.4</ele>
        <time>2022-10-16T13:43:13Z</time>
      </trkpt>
      <trkpt lat="44.42328" lon="5.16481">
        <ele>544</ele>
        <time>2022-10-16T13:43:12Z</time>
      </trkpt>
      <trkpt lat="44.42328" lon="5.1648">
        <ele>544.1</ele>
        <time>2022-10-16T13:43:11Z</time>
      </trkpt>
      <trkpt lat="44.42328" lon="5.16479">
        <ele>544.1</ele>
        <time>2022-10-16T13:43:10Z</time>
      </trkpt>
      <trkpt lat="44.42329" lon="5.16478">
        <ele>544.6</ele>
        <time>2022-10-16T13:43:09Z</time>
      </trkpt>
      <trkpt lat="44.42329" lon="5.16476">
        <ele>544.7</ele>
        <time>2022-10-16T13:43:08Z</time>
      </trkpt>
      <trkpt lat="44.42329" lon="5.16475">
        <ele>544.8</ele>
        <time>2022-10-16T13:43:07Z</time>
      </trkpt>
      <trkpt lat="44.42329" lon="5.16474">
        <ele>544.9</ele>
        <time>2022-10-16T13:43:06Z</time>
      </trkpt>
      <trkpt lat="44.4233" lon="5.16472">
        <ele>545.4</ele>
        <time>2022-10-16T13:43:05Z</time>
      </trkpt>
      <trkpt lat="44.4233" lon="5.16471">
        <ele>545.5</ele>
        <time>2022-10-16T13:43:04Z</time>
      </trkpt>
      <trkpt lat="44.42331" lon="5.1647">
        <ele>546</ele>
        <time>2022-10-16T13:43:03Z</time>
      </trkpt>
      <trkpt lat="44.42331" lon="5.16469">
        <ele>546</ele>
        <time>2022-10-16T13:43:02Z</time>
      </trkpt>
      <trkpt lat="44.42332" lon="5.16468">
        <ele>546.5</ele>
        <time>2022-10-16T13:43:01Z</time>
      </trkpt>
      <trkpt lat="44.42332" lon="5.16467">
        <ele>546.6</ele>
        <time>2022-10-16T13:43:00Z</time>
      </trkpt>
      <trkpt lat="44.42333" lon="5.16465">
        <ele>547.1</ele>
        <time>2022-10-16T13:42:59Z</time>
      </trkpt>
      <trkpt lat="44.42333" lon="5.16464">
        <ele>547.1</ele>
        <time>2022-10-16T13:42:58Z</time>
      </trkpt>
      <trkpt lat="44.42334" lon="5.16463">
        <ele>547.5</ele>
        <time>2022-10-16T13:42:57Z</time>
      </trkpt>
      <trkpt lat="44.42334" lon="5.16462">
        <ele>547.6</ele>
        <time>2022-10-16T13:42:56Z</time>
      </trkpt>
      <trkpt lat="44.42334" lon="5.16461">
        <ele>547.6</ele>
        <time>2022-10-16T13:42:55Z</time>
      </trkpt>
      <trkpt lat="44.42335" lon="5.1646">
        <ele>547.9</ele>
        <time>2022-10-16T13:42:54Z</time>
      </trkpt>
      <trkpt lat="44.42335" lon="5.16459">
        <ele>548</ele>
        <time>2022-10-16T13:42:53Z</time>
      </trkpt>
      <trkpt lat="44.42335" lon="5.16458">
        <ele>548</ele>
        <time>2022-10-16T13:42:52Z</time>
      </trkpt>
      <trkpt lat="44.42335" lon="5.16457">
        <ele>548.1</ele>
        <time>2022-10-16T13:42:51Z</time>
      </trkpt>
      <trkpt lat="44.42335" lon="5.16456">
        <ele>548.1</ele>
        <time>2022-10-16T13:42:50Z</time>
      </trkpt>
      <trkpt lat="44.42336" lon="5.16455">
        <ele>548.4</ele>
        <time>2022-10-16T13:42:49Z</time>
      </trkpt>
      <trkpt lat="44.42336" lon="5.16454">
        <ele>548.5</ele>
        <time>2022-10-16T13:42:48Z</time>
      </trkpt>
      <trkpt lat="44.42336" lon="5.16453">
        <ele>548.5</ele>
        <time>2022-10-16T13:42:47Z</time>
      </trkpt>
      <trkpt lat="44.42336" lon="5.16452">
        <ele>548.6</ele>
        <time>2022-10-16T13:42:46Z</time>
      </trkpt>
      <trkpt lat="44.42337" lon="5.1645">
        <ele>549</ele>
        <time>2022-10-16T13:42:45Z</time>
      </trkpt>
      <trkpt lat="44.42337" lon="5.16449">
        <ele>549</ele>
        <time>2022-10-16T13:42:44Z</time>
      </trkpt>
      <trkpt lat="44.42338" lon="5.16448">
        <ele>549.4</ele>
        <time>2022-10-16T13:42:43Z</time>
      </trkpt>
      <trkpt lat="44.42338" lon="5.16447">
        <ele>549.4</ele>
        <time>2022-10-16T13:42:42Z</time>
      </trkpt>
      <trkpt lat="44.42339" lon="5.16446">
        <ele>549.8</ele>
        <time>2022-10-16T13:42:41Z</time>
      </trkpt>
      <trkpt lat="44.42339" lon="5.16445">
        <ele>549.8</ele>
        <time>2022-10-16T13:42:40Z</time>
      </trkpt>
      <trkpt lat="44.4234" lon="5.16444">
        <ele>550.2</ele>
        <time>2022-10-16T13:42:39Z</time>
      </trkpt>
      <trkpt lat="44.4234" lon="5.16443">
        <ele>550.2</ele>
        <time>2022-10-16T13:42:38Z</time>
      </trkpt>
      <trkpt lat="44.42341" lon="5.16442">
        <ele>550.5</ele>
        <time>2022-10-16T13:42:37Z</time>
      </trkpt>
      <trkpt lat="44.42342" lon="5.16441">
        <ele>550.8</ele>
        <time>2022-10-16T13:42:36Z</time>
      </trkpt>
      <trkpt lat="44.42342" lon="5.1644">
        <ele>550.9</ele>
        <time>2022-10-16T13:42:35Z</time>
      </trkpt>
      <trkpt lat="44.42343" lon="5.16439">
        <ele>551.2</ele>
        <time>2022-10-16T13:42:34Z</time>
      </trkpt>
      <trkpt lat="44.42343" lon="5.16438">
        <ele>551.2</ele>
        <time>2022-10-16T13:42:33Z</time>
      </trkpt>
      <trkpt lat="44.42344" lon="5.16437">
        <ele>551.6</ele>
        <time>2022-10-16T13:42:32Z</time>
      </trkpt>
      <trkpt lat="44.42344" lon="5.16436">
        <ele>551.6</ele>
        <time>2022-10-16T13:42:31Z</time>
      </trkpt>
      <trkpt lat="44.42344" lon="5.16435">
        <ele>551.6</ele>
        <time>2022-10-16T13:42:30Z</time>
      </trkpt>
      <trkpt lat="44.42344" lon="5.16434">
        <ele>551.6</ele>
        <time>2022-10-16T13:42:04Z</time>
      </trkpt>
      <trkpt lat="44.42344" lon="5.16433">
        <ele>551.6</ele>
        <time>2022-10-16T13:42:03Z</time>
      </trkpt>
      <trkpt lat="44.42344" lon="5.16432">
        <ele>551.6</ele>
        <time>2022-10-16T13:42:02Z</time>
      </trkpt>
      <trkpt lat="44.42344" lon="5.16431">
        <ele>551.6</ele>
        <time>2022-10-16T13:42:01Z</time>
      </trkpt>
      <trkpt lat="44.42343" lon="5.1643">
        <ele>551.3</ele>
        <time>2022-10-16T13:42:00Z</time>
      </trkpt>
      <trkpt lat="44.42343" lon="5.16429">
        <ele>551.3</ele>
        <time>2022-10-16T13:41:59Z</time>
      </trkpt>
      <trkpt lat="44.42343" lon="5.16428">
        <ele>551.3</ele>
        <time>2022-10-16T13:41:58Z</time>
      </trkpt>
      <trkpt lat="44.42342" lon="5.16426">
        <ele>551</ele>
        <time>2022-10-16T13:41:41Z</time>
      </trkpt>
      <trkpt lat="44.42342" lon="5.16425">
        <ele>551</ele>
        <time>2022-10-16T13:41:40Z</time>
      </trkpt>
      <trkpt lat="44.42342" lon="5.16424">
        <ele>551</ele>
        <time>2022-10-16T13:41:39Z</time>
      </trkpt>
      <trkpt lat="44.42342" lon="5.16423">
        <ele>551</ele>
        <time>2022-10-16T13:41:38Z</time>
      </trkpt>
      <trkpt lat="44.42343" lon="5.16423">
        <ele>551.4</ele>
        <time>2022-10-16T13:41:37Z</time>
      </trkpt>
      <trkpt lat="44.42343" lon="5.16421">
        <ele>551.4</ele>
        <time>2022-10-16T13:41:28Z</time>
      </trkpt>
      <trkpt lat="44.42343" lon="5.1642">
        <ele>551.4</ele>
        <time>2022-10-16T13:41:27Z</time>
      </trkpt>
      <trkpt lat="44.42344" lon="5.16419">
        <ele>551.8</ele>
        <time>2022-10-16T13:41:26Z</time>
      </trkpt>
      <trkpt lat="44.42344" lon="5.16418">
        <ele>551.8</ele>
        <time>2022-10-16T13:41:25Z</time>
      </trkpt>
      <trkpt lat="44.42344" lon="5.16417">
        <ele>551.8</ele>
        <time>2022-10-16T13:41:24Z</time>
      </trkpt>
      <trkpt lat="44.42344" lon="5.16416">
        <ele>551.8</ele>
        <time>2022-10-16T13:41:23Z</time>
      </trkpt>
      <trkpt lat="44.42344" lon="5.16415">
        <ele>551.9</ele>
        <time>2022-10-16T13:41:22Z</time>
      </trkpt>
      <trkpt lat="44.42344" lon="5.16414">
        <ele>551.9</ele>
        <time>2022-10-16T13:41:21Z</time>
      </trkpt>
      <trkpt lat="44.42344" lon="5.16412">
        <ele>551.9</ele>
        <time>2022-10-16T13:41:20Z</time>
      </trkpt>
      <trkpt lat="44.42344" lon="5.16411">
        <ele>551.9</ele>
        <time>2022-10-16T13:41:19Z</time>
      </trkpt>
      <trkpt lat="44.42344" lon="5.1641">
        <ele>551.9</ele>
        <time>2022-10-16T13:41:18Z</time>
      </trkpt>
      <trkpt lat="44.42344" lon="5.16409">
        <ele>551.9</ele>
        <time>2022-10-16T13:41:17Z</time>
      </trkpt>
      <trkpt lat="44.42344" lon="5.16408">
        <ele>552</ele>
        <time>2022-10-16T13:41:16Z</time>
      </trkpt>
      <trkpt lat="44.42344" lon="5.16406">
        <ele>552</ele>
        <time>2022-10-16T13:41:15Z</time>
      </trkpt>
      <trkpt lat="44.42344" lon="5.16405">
        <ele>552</ele>
        <time>2022-10-16T13:41:13Z</time>
      </trkpt>
      <trkpt lat="44.42344" lon="5.16404">
        <ele>552</ele>
        <time>2022-10-16T13:41:12Z</time>
      </trkpt>
      <trkpt lat="44.42344" lon="5.16403">
        <ele>552</ele>
        <time>2022-10-16T13:41:11Z</time>
      </trkpt>
      <trkpt lat="44.42344" lon="5.16402">
        <ele>552</ele>
        <time>2022-10-16T13:41:10Z</time>
      </trkpt>
      <trkpt lat="44.42344" lon="5.164">
        <ele>552.1</ele>
        <time>2022-10-16T13:41:00Z</time>
      </trkpt>
      <trkpt lat="44.42344" lon="5.16399">
        <ele>552.1</ele>
        <time>2022-10-16T13:40:59Z</time>
      </trkpt>
      <trkpt lat="44.42344" lon="5.16398">
        <ele>552.1</ele>
        <time>2022-10-16T13:40:58Z</time>
      </trkpt>
      <trkpt lat="44.42344" lon="5.16396">
        <ele>552.1</ele>
        <time>2022-10-16T13:40:57Z</time>
      </trkpt>
      <trkpt lat="44.42344" lon="5.16394">
        <ele>552.2</ele>
        <time>2022-10-16T13:40:56Z</time>
      </trkpt>
      <trkpt lat="44.42344" lon="5.16393">
        <ele>552.2</ele>
        <time>2022-10-16T13:40:55Z</time>
      </trkpt>
      <trkpt lat="44.42344" lon="5.16391">
        <ele>552.2</ele>
        <time>2022-10-16T13:40:54Z</time>
      </trkpt>
      <trkpt lat="44.42344" lon="5.1639">
        <ele>552.2</ele>
        <time>2022-10-16T13:40:53Z</time>
      </trkpt>
      <trkpt lat="44.42344" lon="5.16388">
        <ele>552.2</ele>
        <time>2022-10-16T13:40:52Z</time>
      </trkpt>
      <trkpt lat="44.42344" lon="5.16387">
        <ele>552.2</ele>
        <time>2022-10-16T13:40:51Z</time>
      </trkpt>
      <trkpt lat="44.42343" lon="5.16386">
        <ele>551.9</ele>
        <time>2022-10-16T13:40:50Z</time>
      </trkpt>
      <trkpt lat="44.42343" lon="5.16384">
        <ele>551.9</ele>
        <time>2022-10-16T13:40:49Z</time>
      </trkpt>
      <trkpt lat="44.42343" lon="5.16382">
        <ele>551.9</ele>
        <time>2022-10-16T13:40:48Z</time>
      </trkpt>
      <trkpt lat="44.42343" lon="5.16381">
        <ele>551.9</ele>
        <time>2022-10-16T13:40:47Z</time>
      </trkpt>
      <trkpt lat="44.42343" lon="5.16379">
        <ele>551.9</ele>
        <time>2022-10-16T13:40:46Z</time>
      </trkpt>
      <trkpt lat="44.42343" lon="5.16378">
        <ele>551.9</ele>
        <time>2022-10-16T13:40:45Z</time>
      </trkpt>
      <trkpt lat="44.42343" lon="5.16376">
        <ele>552</ele>
        <time>2022-10-16T13:40:44Z</time>
      </trkpt>
      <trkpt lat="44.42343" lon="5.16375">
        <ele>552</ele>
        <time>2022-10-16T13:40:43Z</time>
      </trkpt>
      <trkpt lat="44.42343" lon="5.16373">
        <ele>552</ele>
        <time>2022-10-16T13:40:42Z</time>
      </trkpt>
      <trkpt lat="44.42343" lon="5.16372">
        <ele>552</ele>
        <time>2022-10-16T13:40:41Z</time>
      </trkpt>
      <trkpt lat="44.42343" lon="5.1637">
        <ele>552</ele>
        <time>2022-10-16T13:40:40Z</time>
      </trkpt>
      <trkpt lat="44.42343" lon="5.16369">
        <ele>552</ele>
        <time>2022-10-16T13:40:39Z</time>
      </trkpt>
      <trkpt lat="44.42343" lon="5.16367">
        <ele>552.1</ele>
        <time>2022-10-16T13:40:38Z</time>
      </trkpt>
      <trkpt lat="44.42343" lon="5.16366">
        <ele>552.1</ele>
        <time>2022-10-16T13:40:37Z</time>
      </trkpt>
      <trkpt lat="44.42342" lon="5.16364">
        <ele>551.8</ele>
        <time>2022-10-16T13:40:36Z</time>
      </trkpt>
      <trkpt lat="44.42342" lon="5.16363">
        <ele>551.8</ele>
        <time>2022-10-16T13:40:35Z</time>
      </trkpt>
      <trkpt lat="44.42342" lon="5.16362">
        <ele>551.8</ele>
        <time>2022-10-16T13:40:34Z</time>
      </trkpt>
      <trkpt lat="44.42342" lon="5.1636">
        <ele>551.9</ele>
        <time>2022-10-16T13:40:33Z</time>
      </trkpt>
      <trkpt lat="44.42341" lon="5.16358">
        <ele>551.9</ele>
        <time>2022-10-16T13:40:32Z</time>
      </trkpt>
      <trkpt lat="44.42341" lon="5.16357">
        <ele>552</ele>
        <time>2022-10-16T13:40:31Z</time>
      </trkpt>
      <trkpt lat="44.42341" lon="5.16355">
        <ele>552.2</ele>
        <time>2022-10-16T13:40:30Z</time>
      </trkpt>
      <trkpt lat="44.42341" lon="5.16354">
        <ele>552.3</ele>
        <time>2022-10-16T13:40:29Z</time>
      </trkpt>
      <trkpt lat="44.42341" lon="5.16352">
        <ele>552.6</ele>
        <time>2022-10-16T13:40:28Z</time>
      </trkpt>
      <trkpt lat="44.4234" lon="5.16351">
        <ele>552.5</ele>
        <time>2022-10-16T13:40:27Z</time>
      </trkpt>
      <trkpt lat="44.4234" lon="5.16349">
        <ele>552.7</ele>
        <time>2022-10-16T13:40:26Z</time>
      </trkpt>
      <trkpt lat="44.42339" lon="5.16348">
        <ele>552.6</ele>
        <time>2022-10-16T13:40:25Z</time>
      </trkpt>
      <trkpt lat="44.42339" lon="5.16347">
        <ele>552.8</ele>
        <time>2022-10-16T13:40:24Z</time>
      </trkpt>
      <trkpt lat="44.42338" lon="5.16346">
        <ele>552.7</ele>
        <time>2022-10-16T13:40:23Z</time>
      </trkpt>
      <trkpt lat="44.42337" lon="5.16344">
        <ele>552.8</ele>
        <time>2022-10-16T13:40:22Z</time>
      </trkpt>
      <trkpt lat="44.42336" lon="5.16343">
        <ele>552.7</ele>
        <time>2022-10-16T13:40:21Z</time>
      </trkpt>
      <trkpt lat="44.42335" lon="5.16343">
        <ele>552.6</ele>
        <time>2022-10-16T13:40:20Z</time>
      </trkpt>
      <trkpt lat="44.42334" lon="5.16342">
        <ele>552.6</ele>
        <time>2022-10-16T13:40:19Z</time>
      </trkpt>
      <trkpt lat="44.42333" lon="5.16341">
        <ele>552.6</ele>
        <time>2022-10-16T13:40:18Z</time>
      </trkpt>
      <trkpt lat="44.42331" lon="5.16341">
        <ele>552.8</ele>
        <time>2022-10-16T13:40:17Z</time>
      </trkpt>
      <trkpt lat="44.4233" lon="5.16341">
        <ele>552.8</ele>
        <time>2022-10-16T13:40:16Z</time>
      </trkpt>
      <trkpt lat="44.42329" lon="5.16341">
        <ele>552.9</ele>
        <time>2022-10-16T13:40:15Z</time>
      </trkpt>
      <trkpt lat="44.42328" lon="5.16341">
        <ele>553</ele>
        <time>2022-10-16T13:40:14Z</time>
      </trkpt>
      <trkpt lat="44.42327" lon="5.16341">
        <ele>553</ele>
        <time>2022-10-16T13:40:13Z</time>
      </trkpt>
      <trkpt lat="44.42326" lon="5.16341">
        <ele>553.1</ele>
        <time>2022-10-16T13:40:12Z</time>
      </trkpt>
      <trkpt lat="44.42325" lon="5.16341">
        <ele>553.1</ele>
        <time>2022-10-16T13:40:11Z</time>
      </trkpt>
      <trkpt lat="44.42324" lon="5.16341">
        <ele>553.2</ele>
        <time>2022-10-16T13:40:10Z</time>
      </trkpt>
      <trkpt lat="44.42323" lon="5.16342">
        <ele>553.1</ele>
        <time>2022-10-16T13:40:09Z</time>
      </trkpt>
      <trkpt lat="44.42322" lon="5.16342">
        <ele>553.1</ele>
        <time>2022-10-16T13:40:08Z</time>
      </trkpt>
      <trkpt lat="44.42321" lon="5.16342">
        <ele>553.2</ele>
        <time>2022-10-16T13:40:07Z</time>
      </trkpt>
      <trkpt lat="44.4232" lon="5.16342">
        <ele>553.3</ele>
        <time>2022-10-16T13:40:06Z</time>
      </trkpt>
      <trkpt lat="44.42319" lon="5.16343">
        <ele>553.1</ele>
        <time>2022-10-16T13:40:05Z</time>
      </trkpt>
      <trkpt lat="44.42318" lon="5.16343">
        <ele>553.2</ele>
        <time>2022-10-16T13:40:03Z</time>
      </trkpt>
      <trkpt lat="44.42317" lon="5.16344">
        <ele>553</ele>
        <time>2022-10-16T13:40:02Z</time>
      </trkpt>
      <trkpt lat="44.42316" lon="5.16344">
        <ele>553.1</ele>
        <time>2022-10-16T13:40:01Z</time>
      </trkpt>
      <trkpt lat="44.42315" lon="5.16345">
        <ele>552.9</ele>
        <time>2022-10-16T13:39:59Z</time>
      </trkpt>
      <trkpt lat="44.42314" lon="5.16345">
        <ele>553</ele>
        <time>2022-10-16T13:39:58Z</time>
      </trkpt>
      <trkpt lat="44.42313" lon="5.16345">
        <ele>553.1</ele>
        <time>2022-10-16T13:39:57Z</time>
      </trkpt>
      <trkpt lat="44.42313" lon="5.16346">
        <ele>552.9</ele>
        <time>2022-10-16T13:39:56Z</time>
      </trkpt>
      <trkpt lat="44.42312" lon="5.16346">
        <ele>552.9</ele>
        <time>2022-10-16T13:39:55Z</time>
      </trkpt>
      <trkpt lat="44.42311" lon="5.16347">
        <ele>552.8</ele>
        <time>2022-10-16T13:39:54Z</time>
      </trkpt>
      <trkpt lat="44.4231" lon="5.16347">
        <ele>552.8</ele>
        <time>2022-10-16T13:39:53Z</time>
      </trkpt>
      <trkpt lat="44.42309" lon="5.16348">
        <ele>552.6</ele>
        <time>2022-10-16T13:39:52Z</time>
      </trkpt>
      <trkpt lat="44.42309" lon="5.16349">
        <ele>552.4</ele>
        <time>2022-10-16T13:39:51Z</time>
      </trkpt>
      <trkpt lat="44.42308" lon="5.16349">
        <ele>552.5</ele>
        <time>2022-10-16T13:39:50Z</time>
      </trkpt>
      <trkpt lat="44.42307" lon="5.1635">
        <ele>552.3</ele>
        <time>2022-10-16T13:39:49Z</time>
      </trkpt>
      <trkpt lat="44.42306" lon="5.1635">
        <ele>552.4</ele>
        <time>2022-10-16T13:39:48Z</time>
      </trkpt>
      <trkpt lat="44.42305" lon="5.16351">
        <ele>552.2</ele>
        <time>2022-10-16T13:39:47Z</time>
      </trkpt>
      <trkpt lat="44.42304" lon="5.16351">
        <ele>552.2</ele>
        <time>2022-10-16T13:39:46Z</time>
      </trkpt>
      <trkpt lat="44.42303" lon="5.16352">
        <ele>552</ele>
        <time>2022-10-16T13:39:45Z</time>
      </trkpt>
      <trkpt lat="44.42301" lon="5.16352">
        <ele>552</ele>
        <time>2022-10-16T13:39:44Z</time>
      </trkpt>
      <trkpt lat="44.423" lon="5.16353">
        <ele>551.8</ele>
        <time>2022-10-16T13:39:43Z</time>
      </trkpt>
      <trkpt lat="44.42299" lon="5.16353">
        <ele>551.9</ele>
        <time>2022-10-16T13:39:42Z</time>
      </trkpt>
      <trkpt lat="44.42298" lon="5.16353">
        <ele>551.9</ele>
        <time>2022-10-16T13:39:41Z</time>
      </trkpt>
      <trkpt lat="44.42297" lon="5.16353">
        <ele>551.9</ele>
        <time>2022-10-16T13:39:40Z</time>
      </trkpt>
      <trkpt lat="44.42296" lon="5.16353">
        <ele>551.9</ele>
        <time>2022-10-16T13:39:39Z</time>
      </trkpt>
      <trkpt lat="44.42295" lon="5.16353">
        <ele>551.9</ele>
        <time>2022-10-16T13:39:38Z</time>
      </trkpt>
      <trkpt lat="44.42294" lon="5.16352">
        <ele>552.1</ele>
        <time>2022-10-16T13:39:37Z</time>
      </trkpt>
      <trkpt lat="44.42293" lon="5.16352">
        <ele>552.1</ele>
        <time>2022-10-16T13:39:36Z</time>
      </trkpt>
      <trkpt lat="44.42292" lon="5.16352">
        <ele>552.1</ele>
        <time>2022-10-16T13:39:35Z</time>
      </trkpt>
      <trkpt lat="44.42291" lon="5.16352">
        <ele>552.1</ele>
        <time>2022-10-16T13:39:34Z</time>
      </trkpt>
      <trkpt lat="44.4229" lon="5.16351">
        <ele>552.3</ele>
        <time>2022-10-16T13:39:33Z</time>
      </trkpt>
      <trkpt lat="44.42289" lon="5.16351">
        <ele>552.3</ele>
        <time>2022-10-16T13:39:32Z</time>
      </trkpt>
      <trkpt lat="44.42288" lon="5.1635">
        <ele>552.5</ele>
        <time>2022-10-16T13:39:31Z</time>
      </trkpt>
      <trkpt lat="44.42287" lon="5.16349">
        <ele>552.7</ele>
        <time>2022-10-16T13:39:30Z</time>
      </trkpt>
      <trkpt lat="44.42286" lon="5.16349">
        <ele>552.7</ele>
        <time>2022-10-16T13:39:29Z</time>
      </trkpt>
      <trkpt lat="44.42285" lon="5.16348">
        <ele>552.9</ele>
        <time>2022-10-16T13:39:28Z</time>
      </trkpt>
      <trkpt lat="44.42284" lon="5.16347">
        <ele>553</ele>
        <time>2022-10-16T13:39:27Z</time>
      </trkpt>
      <trkpt lat="44.42283" lon="5.16346">
        <ele>553.2</ele>
        <time>2022-10-16T13:39:26Z</time>
      </trkpt>
      <trkpt lat="44.42282" lon="5.16345">
        <ele>553.3</ele>
        <time>2022-10-16T13:39:25Z</time>
      </trkpt>
      <trkpt lat="44.42282" lon="5.16344">
        <ele>553.5</ele>
        <time>2022-10-16T13:39:24Z</time>
      </trkpt>
      <trkpt lat="44.42281" lon="5.16343">
        <ele>553.6</ele>
        <time>2022-10-16T13:39:23Z</time>
      </trkpt>
      <trkpt lat="44.4228" lon="5.16342">
        <ele>553.8</ele>
        <time>2022-10-16T13:39:22Z</time>
      </trkpt>
      <trkpt lat="44.42279" lon="5.16341">
        <ele>553.9</ele>
        <time>2022-10-16T13:39:21Z</time>
      </trkpt>
      <trkpt lat="44.42278" lon="5.1634">
        <ele>554</ele>
        <time>2022-10-16T13:39:20Z</time>
      </trkpt>
      <trkpt lat="44.42278" lon="5.16339">
        <ele>554.2</ele>
        <time>2022-10-16T13:39:19Z</time>
      </trkpt>
      <trkpt lat="44.42277" lon="5.16338">
        <ele>554.3</ele>
        <time>2022-10-16T13:39:18Z</time>
      </trkpt>
      <trkpt lat="44.42276" lon="5.16337">
        <ele>554.4</ele>
        <time>2022-10-16T13:39:17Z</time>
      </trkpt>
      <trkpt lat="44.42276" lon="5.16336">
        <ele>554.5</ele>
        <time>2022-10-16T13:39:16Z</time>
      </trkpt>
      <trkpt lat="44.42275" lon="5.16335">
        <ele>554.7</ele>
        <time>2022-10-16T13:39:15Z</time>
      </trkpt>
      <trkpt lat="44.42274" lon="5.16335">
        <ele>554.6</ele>
        <time>2022-10-16T13:39:14Z</time>
      </trkpt>
      <trkpt lat="44.42274" lon="5.16334">
        <ele>554.8</ele>
        <time>2022-10-16T13:39:13Z</time>
      </trkpt>
      <trkpt lat="44.42273" lon="5.16333">
        <ele>554.9</ele>
        <time>2022-10-16T13:39:12Z</time>
      </trkpt>
      <trkpt lat="44.42272" lon="5.16332">
        <ele>554.9</ele>
        <time>2022-10-16T13:39:11Z</time>
      </trkpt>
      <trkpt lat="44.42271" lon="5.16332">
        <ele>554.9</ele>
        <time>2022-10-16T13:39:10Z</time>
      </trkpt>
      <trkpt lat="44.42269" lon="5.16331">
        <ele>555</ele>
        <time>2022-10-16T13:39:09Z</time>
      </trkpt>
      <trkpt lat="44.42268" lon="5.1633">
        <ele>555.1</ele>
        <time>2022-10-16T13:39:08Z</time>
      </trkpt>
      <trkpt lat="44.42267" lon="5.1633">
        <ele>555</ele>
        <time>2022-10-16T13:39:07Z</time>
      </trkpt>
      <trkpt lat="44.42266" lon="5.16329">
        <ele>555.1</ele>
        <time>2022-10-16T13:39:06Z</time>
      </trkpt>
      <trkpt lat="44.42265" lon="5.16329">
        <ele>555.1</ele>
        <time>2022-10-16T13:39:05Z</time>
      </trkpt>
      <trkpt lat="44.42263" lon="5.16328">
        <ele>555.1</ele>
        <time>2022-10-16T13:39:04Z</time>
      </trkpt>
      <trkpt lat="44.42262" lon="5.16328">
        <ele>555.1</ele>
        <time>2022-10-16T13:39:03Z</time>
      </trkpt>
      <trkpt lat="44.42261" lon="5.16327">
        <ele>555.2</ele>
        <time>2022-10-16T13:39:02Z</time>
      </trkpt>
      <trkpt lat="44.4226" lon="5.16327">
        <ele>555.2</ele>
        <time>2022-10-16T13:39:01Z</time>
      </trkpt>
      <trkpt lat="44.42259" lon="5.16326">
        <ele>555.3</ele>
        <time>2022-10-16T13:39:00Z</time>
      </trkpt>
      <trkpt lat="44.42258" lon="5.16326">
        <ele>555.3</ele>
        <time>2022-10-16T13:38:59Z</time>
      </trkpt>
      <trkpt lat="44.42257" lon="5.16326">
        <ele>555.2</ele>
        <time>2022-10-16T13:38:58Z</time>
      </trkpt>
      <trkpt lat="44.42256" lon="5.16325">
        <ele>555.4</ele>
        <time>2022-10-16T13:38:57Z</time>
      </trkpt>
      <trkpt lat="44.42255" lon="5.16325">
        <ele>555.3</ele>
        <time>2022-10-16T13:38:56Z</time>
      </trkpt>
      <trkpt lat="44.42254" lon="5.16325">
        <ele>555.3</ele>
        <time>2022-10-16T13:38:55Z</time>
      </trkpt>
      <trkpt lat="44.42253" lon="5.16325">
        <ele>555.3</ele>
        <time>2022-10-16T13:38:54Z</time>
      </trkpt>
      <trkpt lat="44.42252" lon="5.16325">
        <ele>555.3</ele>
        <time>2022-10-16T13:38:53Z</time>
      </trkpt>
      <trkpt lat="44.42251" lon="5.16325">
        <ele>555.2</ele>
        <time>2022-10-16T13:38:52Z</time>
      </trkpt>
      <trkpt lat="44.4225" lon="5.16325">
        <ele>555.2</ele>
        <time>2022-10-16T13:38:51Z</time>
      </trkpt>
      <trkpt lat="44.42249" lon="5.16325">
        <ele>555.2</ele>
        <time>2022-10-16T13:38:50Z</time>
      </trkpt>
      <trkpt lat="44.42248" lon="5.16325">
        <ele>555.3</ele>
        <time>2022-10-16T13:38:49Z</time>
      </trkpt>
      <trkpt lat="44.42247" lon="5.16325">
        <ele>555.3</ele>
        <time>2022-10-16T13:38:48Z</time>
      </trkpt>
      <trkpt lat="44.42246" lon="5.16325">
        <ele>555.4</ele>
        <time>2022-10-16T13:38:47Z</time>
      </trkpt>
      <trkpt lat="44.42245" lon="5.16325">
        <ele>555.4</ele>
        <time>2022-10-16T13:38:46Z</time>
      </trkpt>
      <trkpt lat="44.42244" lon="5.16325">
        <ele>555.5</ele>
        <time>2022-10-16T13:38:45Z</time>
      </trkpt>
      <trkpt lat="44.42243" lon="5.16325">
        <ele>555.5</ele>
        <time>2022-10-16T13:38:43Z</time>
      </trkpt>
      <trkpt lat="44.42242" lon="5.16325">
        <ele>555.6</ele>
        <time>2022-10-16T13:38:42Z</time>
      </trkpt>
      <trkpt lat="44.42241" lon="5.16325">
        <ele>555.6</ele>
        <time>2022-10-16T13:38:41Z</time>
      </trkpt>
      <trkpt lat="44.4224" lon="5.16325">
        <ele>555.7</ele>
        <time>2022-10-16T13:38:40Z</time>
      </trkpt>
      <trkpt lat="44.42239" lon="5.16325">
        <ele>555.7</ele>
        <time>2022-10-16T13:38:39Z</time>
      </trkpt>
      <trkpt lat="44.42237" lon="5.16325">
        <ele>555.8</ele>
        <time>2022-10-16T13:38:38Z</time>
      </trkpt>
      <trkpt lat="44.42236" lon="5.16325">
        <ele>555.9</ele>
        <time>2022-10-16T13:38:37Z</time>
      </trkpt>
      <trkpt lat="44.42235" lon="5.16325">
        <ele>555.9</ele>
        <time>2022-10-16T13:38:36Z</time>
      </trkpt>
      <trkpt lat="44.42234" lon="5.16325">
        <ele>555.9</ele>
        <time>2022-10-16T13:38:35Z</time>
      </trkpt>
      <trkpt lat="44.42233" lon="5.16325">
        <ele>556</ele>
        <time>2022-10-16T13:38:34Z</time>
      </trkpt>
      <trkpt lat="44.42232" lon="5.16325">
        <ele>556</ele>
        <time>2022-10-16T13:38:33Z</time>
      </trkpt>
      <trkpt lat="44.42231" lon="5.16325">
        <ele>556.1</ele>
        <time>2022-10-16T13:38:32Z</time>
      </trkpt>
      <trkpt lat="44.4223" lon="5.16324">
        <ele>556.3</ele>
        <time>2022-10-16T13:38:31Z</time>
      </trkpt>
      <trkpt lat="44.42229" lon="5.16324">
        <ele>556.4</ele>
        <time>2022-10-16T13:38:29Z</time>
      </trkpt>
      <trkpt lat="44.42228" lon="5.16324">
        <ele>556.4</ele>
        <time>2022-10-16T13:38:28Z</time>
      </trkpt>
      <trkpt lat="44.42227" lon="5.16324">
        <ele>556.5</ele>
        <time>2022-10-16T13:38:27Z</time>
      </trkpt>
      <trkpt lat="44.42226" lon="5.16324">
        <ele>556.5</ele>
        <time>2022-10-16T13:38:26Z</time>
      </trkpt>
      <trkpt lat="44.42225" lon="5.16323">
        <ele>556.7</ele>
        <time>2022-10-16T13:38:25Z</time>
      </trkpt>
      <trkpt lat="44.42224" lon="5.16323">
        <ele>556.8</ele>
        <time>2022-10-16T13:38:24Z</time>
      </trkpt>
      <trkpt lat="44.42223" lon="5.16323">
        <ele>556.8</ele>
        <time>2022-10-16T13:38:23Z</time>
      </trkpt>
      <trkpt lat="44.42222" lon="5.16323">
        <ele>556.9</ele>
        <time>2022-10-16T13:38:22Z</time>
      </trkpt>
      <trkpt lat="44.42221" lon="5.16322">
        <ele>557</ele>
        <time>2022-10-16T13:38:21Z</time>
      </trkpt>
      <trkpt lat="44.4222" lon="5.16322">
        <ele>557</ele>
        <time>2022-10-16T13:38:20Z</time>
      </trkpt>
      <trkpt lat="44.42219" lon="5.16322">
        <ele>557</ele>
        <time>2022-10-16T13:38:19Z</time>
      </trkpt>
      <trkpt lat="44.42217" lon="5.16321">
        <ele>557.1</ele>
        <time>2022-10-16T13:38:18Z</time>
      </trkpt>
      <trkpt lat="44.42216" lon="5.16321">
        <ele>557.1</ele>
        <time>2022-10-16T13:38:17Z</time>
      </trkpt>
      <trkpt lat="44.42215" lon="5.1632">
        <ele>557.3</ele>
        <time>2022-10-16T13:38:16Z</time>
      </trkpt>
      <trkpt lat="44.42214" lon="5.1632">
        <ele>557.2</ele>
        <time>2022-10-16T13:38:15Z</time>
      </trkpt>
      <trkpt lat="44.42213" lon="5.16319">
        <ele>557.4</ele>
        <time>2022-10-16T13:38:14Z</time>
      </trkpt>
      <trkpt lat="44.42212" lon="5.16319">
        <ele>557.4</ele>
        <time>2022-10-16T13:38:13Z</time>
      </trkpt>
      <trkpt lat="44.4221" lon="5.16318">
        <ele>557.6</ele>
        <time>2022-10-16T13:38:12Z</time>
      </trkpt>
      <trkpt lat="44.42209" lon="5.16318">
        <ele>557.5</ele>
        <time>2022-10-16T13:38:11Z</time>
      </trkpt>
      <trkpt lat="44.42208" lon="5.16317">
        <ele>557.7</ele>
        <time>2022-10-16T13:38:10Z</time>
      </trkpt>
      <trkpt lat="44.42207" lon="5.16316">
        <ele>557.9</ele>
        <time>2022-10-16T13:38:09Z</time>
      </trkpt>
      <trkpt lat="44.42206" lon="5.16316">
        <ele>557.9</ele>
        <time>2022-10-16T13:38:08Z</time>
      </trkpt>
      <trkpt lat="44.42205" lon="5.16315">
        <ele>558.1</ele>
        <time>2022-10-16T13:38:07Z</time>
      </trkpt>
      <trkpt lat="44.42205" lon="5.16314">
        <ele>558.3</ele>
        <time>2022-10-16T13:38:06Z</time>
      </trkpt>
      <trkpt lat="44.42204" lon="5.16314">
        <ele>558.3</ele>
        <time>2022-10-16T13:38:05Z</time>
      </trkpt>
      <trkpt lat="44.42203" lon="5.16313">
        <ele>558.5</ele>
        <time>2022-10-16T13:38:04Z</time>
      </trkpt>
      <trkpt lat="44.42202" lon="5.16312">
        <ele>558.7</ele>
        <time>2022-10-16T13:38:03Z</time>
      </trkpt>
      <trkpt lat="44.42201" lon="5.16312">
        <ele>558.7</ele>
        <time>2022-10-16T13:38:02Z</time>
      </trkpt>
      <trkpt lat="44.422" lon="5.16311">
        <ele>558.9</ele>
        <time>2022-10-16T13:38:01Z</time>
      </trkpt>
      <trkpt lat="44.42199" lon="5.1631">
        <ele>559.1</ele>
        <time>2022-10-16T13:38:00Z</time>
      </trkpt>
      <trkpt lat="44.42198" lon="5.16309">
        <ele>559.3</ele>
        <time>2022-10-16T13:37:59Z</time>
      </trkpt>
      <trkpt lat="44.42197" lon="5.16308">
        <ele>559.5</ele>
        <time>2022-10-16T13:37:58Z</time>
      </trkpt>
      <trkpt lat="44.42196" lon="5.16308">
        <ele>559.5</ele>
        <time>2022-10-16T13:37:57Z</time>
      </trkpt>
      <trkpt lat="44.42195" lon="5.16307">
        <ele>559.7</ele>
        <time>2022-10-16T13:37:56Z</time>
      </trkpt>
      <trkpt lat="44.42194" lon="5.16307">
        <ele>559.7</ele>
        <time>2022-10-16T13:37:55Z</time>
      </trkpt>
      <trkpt lat="44.42193" lon="5.16306">
        <ele>559.9</ele>
        <time>2022-10-16T13:37:54Z</time>
      </trkpt>
      <trkpt lat="44.42192" lon="5.16306">
        <ele>559.9</ele>
        <time>2022-10-16T13:37:53Z</time>
      </trkpt>
      <trkpt lat="44.42191" lon="5.16305">
        <ele>560.1</ele>
        <time>2022-10-16T13:37:52Z</time>
      </trkpt>
      <trkpt lat="44.4219" lon="5.16304">
        <ele>560.3</ele>
        <time>2022-10-16T13:37:51Z</time>
      </trkpt>
      <trkpt lat="44.42189" lon="5.16304">
        <ele>560.3</ele>
        <time>2022-10-16T13:37:50Z</time>
      </trkpt>
      <trkpt lat="44.42188" lon="5.16303">
        <ele>560.4</ele>
        <time>2022-10-16T13:37:49Z</time>
      </trkpt>
      <trkpt lat="44.42187" lon="5.16302">
        <ele>560.6</ele>
        <time>2022-10-16T13:37:48Z</time>
      </trkpt>
      <trkpt lat="44.42186" lon="5.16302">
        <ele>560.6</ele>
        <time>2022-10-16T13:37:47Z</time>
      </trkpt>
      <trkpt lat="44.42185" lon="5.16301">
        <ele>560.8</ele>
        <time>2022-10-16T13:37:46Z</time>
      </trkpt>
      <trkpt lat="44.42183" lon="5.163">
        <ele>560.9</ele>
        <time>2022-10-16T13:37:45Z</time>
      </trkpt>
      <trkpt lat="44.42182" lon="5.163">
        <ele>560.9</ele>
        <time>2022-10-16T13:37:44Z</time>
      </trkpt>
      <trkpt lat="44.42181" lon="5.163">
        <ele>560.9</ele>
        <time>2022-10-16T13:37:43Z</time>
      </trkpt>
      <trkpt lat="44.4218" lon="5.16299">
        <ele>561.1</ele>
        <time>2022-10-16T13:37:42Z</time>
      </trkpt>
      <trkpt lat="44.42179" lon="5.16299">
        <ele>561</ele>
        <time>2022-10-16T13:37:41Z</time>
      </trkpt>
      <trkpt lat="44.42178" lon="5.16298">
        <ele>561.2</ele>
        <time>2022-10-16T13:37:39Z</time>
      </trkpt>
      <trkpt lat="44.42177" lon="5.16297">
        <ele>561.3</ele>
        <time>2022-10-16T13:37:38Z</time>
      </trkpt>
      <trkpt lat="44.42176" lon="5.16297">
        <ele>561.3</ele>
        <time>2022-10-16T13:37:37Z</time>
      </trkpt>
      <trkpt lat="44.42175" lon="5.16296">
        <ele>561.5</ele>
        <time>2022-10-16T13:37:36Z</time>
      </trkpt>
      <trkpt lat="44.42174" lon="5.16296">
        <ele>561.5</ele>
        <time>2022-10-16T13:37:35Z</time>
      </trkpt>
      <trkpt lat="44.42173" lon="5.16295">
        <ele>561.6</ele>
        <time>2022-10-16T13:37:34Z</time>
      </trkpt>
      <trkpt lat="44.42172" lon="5.16295">
        <ele>561.6</ele>
        <time>2022-10-16T13:37:33Z</time>
      </trkpt>
      <trkpt lat="44.42171" lon="5.16294">
        <ele>561.7</ele>
        <time>2022-10-16T13:37:32Z</time>
      </trkpt>
      <trkpt lat="44.4217" lon="5.16294">
        <ele>561.7</ele>
        <time>2022-10-16T13:37:31Z</time>
      </trkpt>
      <trkpt lat="44.42169" lon="5.16293">
        <ele>561.8</ele>
        <time>2022-10-16T13:37:30Z</time>
      </trkpt>
      <trkpt lat="44.42168" lon="5.16293">
        <ele>561.8</ele>
        <time>2022-10-16T13:37:29Z</time>
      </trkpt>
      <trkpt lat="44.42167" lon="5.16293">
        <ele>561.8</ele>
        <time>2022-10-16T13:37:28Z</time>
      </trkpt>
      <trkpt lat="44.42166" lon="5.16292">
        <ele>561.9</ele>
        <time>2022-10-16T13:37:27Z</time>
      </trkpt>
      <trkpt lat="44.42165" lon="5.16292">
        <ele>561.8</ele>
        <time>2022-10-16T13:37:25Z</time>
      </trkpt>
      <trkpt lat="44.42164" lon="5.16291">
        <ele>561.9</ele>
        <time>2022-10-16T13:37:24Z</time>
      </trkpt>
      <trkpt lat="44.42163" lon="5.16291">
        <ele>561.8</ele>
        <time>2022-10-16T13:37:23Z</time>
      </trkpt>
      <trkpt lat="44.42163" lon="5.1629">
        <ele>562</ele>
        <time>2022-10-16T13:37:22Z</time>
      </trkpt>
      <trkpt lat="44.42162" lon="5.1629">
        <ele>561.9</ele>
        <time>2022-10-16T13:37:21Z</time>
      </trkpt>
      <trkpt lat="44.42161" lon="5.16289">
        <ele>562</ele>
        <time>2022-10-16T13:37:20Z</time>
      </trkpt>
      <trkpt lat="44.4216" lon="5.16288">
        <ele>562</ele>
        <time>2022-10-16T13:37:19Z</time>
      </trkpt>
      <trkpt lat="44.42159" lon="5.16287">
        <ele>562.1</ele>
        <time>2022-10-16T13:37:18Z</time>
      </trkpt>
      <trkpt lat="44.42158" lon="5.16286">
        <ele>562.2</ele>
        <time>2022-10-16T13:37:17Z</time>
      </trkpt>
      <trkpt lat="44.42157" lon="5.16285">
        <ele>562.3</ele>
        <time>2022-10-16T13:37:16Z</time>
      </trkpt>
      <trkpt lat="44.42156" lon="5.16285">
        <ele>562.2</ele>
        <time>2022-10-16T13:37:15Z</time>
      </trkpt>
      <trkpt lat="44.42156" lon="5.16284">
        <ele>562.3</ele>
        <time>2022-10-16T13:37:14Z</time>
      </trkpt>
      <trkpt lat="44.42155" lon="5.16283">
        <ele>562.4</ele>
        <time>2022-10-16T13:37:13Z</time>
      </trkpt>
      <trkpt lat="44.42154" lon="5.16282">
        <ele>562.5</ele>
        <time>2022-10-16T13:37:12Z</time>
      </trkpt>
      <trkpt lat="44.42154" lon="5.16281">
        <ele>562.6</ele>
        <time>2022-10-16T13:37:11Z</time>
      </trkpt>
      <trkpt lat="44.42153" lon="5.1628">
        <ele>562.7</ele>
        <time>2022-10-16T13:37:10Z</time>
      </trkpt>
      <trkpt lat="44.42152" lon="5.16279">
        <ele>562.8</ele>
        <time>2022-10-16T13:37:09Z</time>
      </trkpt>
      <trkpt lat="44.42152" lon="5.16278">
        <ele>562.9</ele>
        <time>2022-10-16T13:37:08Z</time>
      </trkpt>
      <trkpt lat="44.42151" lon="5.16277">
        <ele>562.9</ele>
        <time>2022-10-16T13:37:07Z</time>
      </trkpt>
      <trkpt lat="44.42151" lon="5.16276">
        <ele>563</ele>
        <time>2022-10-16T13:37:06Z</time>
      </trkpt>
      <trkpt lat="44.4215" lon="5.16275">
        <ele>563.1</ele>
        <time>2022-10-16T13:37:05Z</time>
      </trkpt>
      <trkpt lat="44.4215" lon="5.16274">
        <ele>563.2</ele>
        <time>2022-10-16T13:37:04Z</time>
      </trkpt>
      <trkpt lat="44.42149" lon="5.16273">
        <ele>563.2</ele>
        <time>2022-10-16T13:37:03Z</time>
      </trkpt>
      <trkpt lat="44.42148" lon="5.16272">
        <ele>563.2</ele>
        <time>2022-10-16T13:37:02Z</time>
      </trkpt>
      <trkpt lat="44.42147" lon="5.16271">
        <ele>563.2</ele>
        <time>2022-10-16T13:37:01Z</time>
      </trkpt>
      <trkpt lat="44.42147" lon="5.16269">
        <ele>563.4</ele>
        <time>2022-10-16T13:37:00Z</time>
      </trkpt>
      <trkpt lat="44.42146" lon="5.16268">
        <ele>563.5</ele>
        <time>2022-10-16T13:36:59Z</time>
      </trkpt>
      <trkpt lat="44.42146" lon="5.16267">
        <ele>563.6</ele>
        <time>2022-10-16T13:36:58Z</time>
      </trkpt>
      <trkpt lat="44.42145" lon="5.16265">
        <ele>563.7</ele>
        <time>2022-10-16T13:36:57Z</time>
      </trkpt>
      <trkpt lat="44.42144" lon="5.16264">
        <ele>563.8</ele>
        <time>2022-10-16T13:36:56Z</time>
      </trkpt>
      <trkpt lat="44.42144" lon="5.16263">
        <ele>563.9</ele>
        <time>2022-10-16T13:36:55Z</time>
      </trkpt>
      <trkpt lat="44.42143" lon="5.16262">
        <ele>563.9</ele>
        <time>2022-10-16T13:36:54Z</time>
      </trkpt>
      <trkpt lat="44.42143" lon="5.1626">
        <ele>564.1</ele>
        <time>2022-10-16T13:36:53Z</time>
      </trkpt>
      <trkpt lat="44.42142" lon="5.16259">
        <ele>564.2</ele>
        <time>2022-10-16T13:36:52Z</time>
      </trkpt>
      <trkpt lat="44.42142" lon="5.16258">
        <ele>564.3</ele>
        <time>2022-10-16T13:36:51Z</time>
      </trkpt>
      <trkpt lat="44.42141" lon="5.16257">
        <ele>564.3</ele>
        <time>2022-10-16T13:36:50Z</time>
      </trkpt>
      <trkpt lat="44.4214" lon="5.16256">
        <ele>564.4</ele>
        <time>2022-10-16T13:36:49Z</time>
      </trkpt>
      <trkpt lat="44.4214" lon="5.16255">
        <ele>564.5</ele>
        <time>2022-10-16T13:36:48Z</time>
      </trkpt>
      <trkpt lat="44.42139" lon="5.16253">
        <ele>564.7</ele>
        <time>2022-10-16T13:36:47Z</time>
      </trkpt>
      <trkpt lat="44.42138" lon="5.16252">
        <ele>564.7</ele>
        <time>2022-10-16T13:36:46Z</time>
      </trkpt>
      <trkpt lat="44.42138" lon="5.16251">
        <ele>564.8</ele>
        <time>2022-10-16T13:36:45Z</time>
      </trkpt>
      <trkpt lat="44.42137" lon="5.16249">
        <ele>564.9</ele>
        <time>2022-10-16T13:36:44Z</time>
      </trkpt>
      <trkpt lat="44.42136" lon="5.16248">
        <ele>564.9</ele>
        <time>2022-10-16T13:36:43Z</time>
      </trkpt>
      <trkpt lat="44.42135" lon="5.16247">
        <ele>565</ele>
        <time>2022-10-16T13:36:42Z</time>
      </trkpt>
      <trkpt lat="44.42135" lon="5.16246">
        <ele>565.2</ele>
        <time>2022-10-16T13:36:41Z</time>
      </trkpt>
      <trkpt lat="44.42134" lon="5.16244">
        <ele>565.4</ele>
        <time>2022-10-16T13:36:40Z</time>
      </trkpt>
      <trkpt lat="44.42133" lon="5.16243">
        <ele>565.4</ele>
        <time>2022-10-16T13:36:39Z</time>
      </trkpt>
      <trkpt lat="44.42133" lon="5.16242">
        <ele>565.6</ele>
        <time>2022-10-16T13:36:38Z</time>
      </trkpt>
      <trkpt lat="44.42132" lon="5.1624">
        <ele>565.8</ele>
        <time>2022-10-16T13:36:37Z</time>
      </trkpt>
      <trkpt lat="44.42131" lon="5.16239">
        <ele>565.8</ele>
        <time>2022-10-16T13:36:36Z</time>
      </trkpt>
      <trkpt lat="44.4213" lon="5.16237">
        <ele>566.1</ele>
        <time>2022-10-16T13:36:35Z</time>
      </trkpt>
      <trkpt lat="44.4213" lon="5.16236">
        <ele>566.2</ele>
        <time>2022-10-16T13:36:34Z</time>
      </trkpt>
      <trkpt lat="44.42129" lon="5.16234">
        <ele>566.5</ele>
        <time>2022-10-16T13:36:33Z</time>
      </trkpt>
      <trkpt lat="44.42128" lon="5.16233">
        <ele>566.5</ele>
        <time>2022-10-16T13:36:32Z</time>
      </trkpt>
      <trkpt lat="44.42128" lon="5.16231">
        <ele>566.9</ele>
        <time>2022-10-16T13:36:31Z</time>
      </trkpt>
      <trkpt lat="44.42127" lon="5.1623">
        <ele>566.9</ele>
        <time>2022-10-16T13:36:30Z</time>
      </trkpt>
      <trkpt lat="44.42126" lon="5.16229">
        <ele>566.9</ele>
        <time>2022-10-16T13:36:29Z</time>
      </trkpt>
      <trkpt lat="44.42126" lon="5.16227">
        <ele>567.3</ele>
        <time>2022-10-16T13:36:28Z</time>
      </trkpt>
      <trkpt lat="44.42125" lon="5.16226">
        <ele>567.3</ele>
        <time>2022-10-16T13:36:27Z</time>
      </trkpt>
      <trkpt lat="44.42124" lon="5.16225">
        <ele>567.4</ele>
        <time>2022-10-16T13:36:26Z</time>
      </trkpt>
      <trkpt lat="44.42123" lon="5.16223">
        <ele>567.6</ele>
        <time>2022-10-16T13:36:25Z</time>
      </trkpt>
      <trkpt lat="44.42123" lon="5.16222">
        <ele>567.7</ele>
        <time>2022-10-16T13:36:24Z</time>
      </trkpt>
      <trkpt lat="44.42122" lon="5.1622">
        <ele>567.9</ele>
        <time>2022-10-16T13:36:23Z</time>
      </trkpt>
      <trkpt lat="44.42121" lon="5.16219">
        <ele>567.8</ele>
        <time>2022-10-16T13:36:22Z</time>
      </trkpt>
      <trkpt lat="44.4212" lon="5.16218">
        <ele>567.8</ele>
        <time>2022-10-16T13:36:21Z</time>
      </trkpt>
      <trkpt lat="44.4212" lon="5.16217">
        <ele>568</ele>
        <time>2022-10-16T13:36:20Z</time>
      </trkpt>
      <trkpt lat="44.42119" lon="5.16215">
        <ele>568.1</ele>
        <time>2022-10-16T13:36:19Z</time>
      </trkpt>
      <trkpt lat="44.42118" lon="5.16214">
        <ele>568.1</ele>
        <time>2022-10-16T13:36:18Z</time>
      </trkpt>
      <trkpt lat="44.42118" lon="5.16213">
        <ele>568.2</ele>
        <time>2022-10-16T13:36:17Z</time>
      </trkpt>
      <trkpt lat="44.42117" lon="5.16212">
        <ele>568.2</ele>
        <time>2022-10-16T13:36:16Z</time>
      </trkpt>
      <trkpt lat="44.42117" lon="5.1621">
        <ele>568.5</ele>
        <time>2022-10-16T13:36:15Z</time>
      </trkpt>
      <trkpt lat="44.42116" lon="5.16209">
        <ele>568.5</ele>
        <time>2022-10-16T13:36:14Z</time>
      </trkpt>
      <trkpt lat="44.42116" lon="5.16208">
        <ele>568.7</ele>
        <time>2022-10-16T13:36:13Z</time>
      </trkpt>
      <trkpt lat="44.42115" lon="5.16206">
        <ele>568.8</ele>
        <time>2022-10-16T13:36:12Z</time>
      </trkpt>
      <trkpt lat="44.42115" lon="5.16205">
        <ele>569</ele>
        <time>2022-10-16T13:36:11Z</time>
      </trkpt>
      <trkpt lat="44.42114" lon="5.16204">
        <ele>569</ele>
        <time>2022-10-16T13:36:10Z</time>
      </trkpt>
      <trkpt lat="44.42114" lon="5.16203">
        <ele>569.1</ele>
        <time>2022-10-16T13:36:09Z</time>
      </trkpt>
      <trkpt lat="44.42113" lon="5.16202">
        <ele>569.1</ele>
        <time>2022-10-16T13:36:08Z</time>
      </trkpt>
      <trkpt lat="44.42113" lon="5.16201">
        <ele>569.3</ele>
        <time>2022-10-16T13:36:07Z</time>
      </trkpt>
      <trkpt lat="44.42112" lon="5.162">
        <ele>569.3</ele>
        <time>2022-10-16T13:36:06Z</time>
      </trkpt>
      <trkpt lat="44.42112" lon="5.16199">
        <ele>569.4</ele>
        <time>2022-10-16T13:36:05Z</time>
      </trkpt>
      <trkpt lat="44.42111" lon="5.16198">
        <ele>569.5</ele>
        <time>2022-10-16T13:36:04Z</time>
      </trkpt>
      <trkpt lat="44.42111" lon="5.16197">
        <ele>569.6</ele>
        <time>2022-10-16T13:36:03Z</time>
      </trkpt>
      <trkpt lat="44.42111" lon="5.16196">
        <ele>569.8</ele>
        <time>2022-10-16T13:36:01Z</time>
      </trkpt>
      <trkpt lat="44.4211" lon="5.16196">
        <ele>569.6</ele>
        <time>2022-10-16T13:36:00Z</time>
      </trkpt>
      <trkpt lat="44.4211" lon="5.16195">
        <ele>569.8</ele>
        <time>2022-10-16T13:35:59Z</time>
      </trkpt>
      <trkpt lat="44.4211" lon="5.16194">
        <ele>569.9</ele>
        <time>2022-10-16T13:35:58Z</time>
      </trkpt>
      <trkpt lat="44.42109" lon="5.16193">
        <ele>569.9</ele>
        <time>2022-10-16T13:35:57Z</time>
      </trkpt>
      <trkpt lat="44.42109" lon="5.16192">
        <ele>570</ele>
        <time>2022-10-16T13:35:56Z</time>
      </trkpt>
      <trkpt lat="44.42108" lon="5.16191">
        <ele>569.9</ele>
        <time>2022-10-16T13:35:55Z</time>
      </trkpt>
      <trkpt lat="44.42108" lon="5.1619">
        <ele>570</ele>
        <time>2022-10-16T13:35:54Z</time>
      </trkpt>
      <trkpt lat="44.42108" lon="5.16189">
        <ele>570.1</ele>
        <time>2022-10-16T13:35:53Z</time>
      </trkpt>
      <trkpt lat="44.42107" lon="5.16188">
        <ele>570.1</ele>
        <time>2022-10-16T13:35:52Z</time>
      </trkpt>
      <trkpt lat="44.42106" lon="5.16187">
        <ele>570.1</ele>
        <time>2022-10-16T13:35:51Z</time>
      </trkpt>
      <trkpt lat="44.42106" lon="5.16186">
        <ele>570.2</ele>
        <time>2022-10-16T13:35:50Z</time>
      </trkpt>
      <trkpt lat="44.42106" lon="5.16185">
        <ele>570.3</ele>
        <time>2022-10-16T13:35:49Z</time>
      </trkpt>
      <trkpt lat="44.42105" lon="5.16184">
        <ele>570.2</ele>
        <time>2022-10-16T13:35:48Z</time>
      </trkpt>
      <trkpt lat="44.42105" lon="5.16183">
        <ele>570.4</ele>
        <time>2022-10-16T13:35:47Z</time>
      </trkpt>
      <trkpt lat="44.42104" lon="5.16182">
        <ele>570.3</ele>
        <time>2022-10-16T13:35:46Z</time>
      </trkpt>
      <trkpt lat="44.42104" lon="5.16181">
        <ele>570.4</ele>
        <time>2022-10-16T13:35:45Z</time>
      </trkpt>
      <trkpt lat="44.42103" lon="5.1618">
        <ele>570.4</ele>
        <time>2022-10-16T13:35:44Z</time>
      </trkpt>
      <trkpt lat="44.42103" lon="5.16179">
        <ele>570.5</ele>
        <time>2022-10-16T13:35:43Z</time>
      </trkpt>
      <trkpt lat="44.42102" lon="5.16178">
        <ele>570.5</ele>
        <time>2022-10-16T13:35:42Z</time>
      </trkpt>
      <trkpt lat="44.42102" lon="5.16177">
        <ele>570.6</ele>
        <time>2022-10-16T13:35:41Z</time>
      </trkpt>
      <trkpt lat="44.42102" lon="5.16175">
        <ele>570.8</ele>
        <time>2022-10-16T13:35:40Z</time>
      </trkpt>
      <trkpt lat="44.42101" lon="5.16174">
        <ele>570.8</ele>
        <time>2022-10-16T13:35:39Z</time>
      </trkpt>
      <trkpt lat="44.42101" lon="5.16173">
        <ele>570.9</ele>
        <time>2022-10-16T13:35:38Z</time>
      </trkpt>
      <trkpt lat="44.42101" lon="5.16171">
        <ele>571.1</ele>
        <time>2022-10-16T13:35:37Z</time>
      </trkpt>
      <trkpt lat="44.421" lon="5.1617">
        <ele>571</ele>
        <time>2022-10-16T13:35:36Z</time>
      </trkpt>
      <trkpt lat="44.421" lon="5.16168">
        <ele>571.3</ele>
        <time>2022-10-16T13:35:35Z</time>
      </trkpt>
      <trkpt lat="44.421" lon="5.16167">
        <ele>571.4</ele>
        <time>2022-10-16T13:35:34Z</time>
      </trkpt>
      <trkpt lat="44.42099" lon="5.16165">
        <ele>571.5</ele>
        <time>2022-10-16T13:35:33Z</time>
      </trkpt>
      <trkpt lat="44.42099" lon="5.16164">
        <ele>571.6</ele>
        <time>2022-10-16T13:35:32Z</time>
      </trkpt>
      <trkpt lat="44.42099" lon="5.16162">
        <ele>571.9</ele>
        <time>2022-10-16T13:35:31Z</time>
      </trkpt>
      <trkpt lat="44.42099" lon="5.1616">
        <ele>572.2</ele>
        <time>2022-10-16T13:35:30Z</time>
      </trkpt>
      <trkpt lat="44.42098" lon="5.16159">
        <ele>572.2</ele>
        <time>2022-10-16T13:35:29Z</time>
      </trkpt>
      <trkpt lat="44.42098" lon="5.16157">
        <ele>572.5</ele>
        <time>2022-10-16T13:35:28Z</time>
      </trkpt>
      <trkpt lat="44.42098" lon="5.16156">
        <ele>572.6</ele>
        <time>2022-10-16T13:35:27Z</time>
      </trkpt>
      <trkpt lat="44.42098" lon="5.16154">
        <ele>572.9</ele>
        <time>2022-10-16T13:35:26Z</time>
      </trkpt>
      <trkpt lat="44.42098" lon="5.16153">
        <ele>573.1</ele>
        <time>2022-10-16T13:35:25Z</time>
      </trkpt>
      <trkpt lat="44.42098" lon="5.16151">
        <ele>573.4</ele>
        <time>2022-10-16T13:35:24Z</time>
      </trkpt>
      <trkpt lat="44.42097" lon="5.1615">
        <ele>573.4</ele>
        <time>2022-10-16T13:35:23Z</time>
      </trkpt>
      <trkpt lat="44.42097" lon="5.16148">
        <ele>573.7</ele>
        <time>2022-10-16T13:35:22Z</time>
      </trkpt>
      <trkpt lat="44.42097" lon="5.16147">
        <ele>573.8</ele>
        <time>2022-10-16T13:35:21Z</time>
      </trkpt>
      <trkpt lat="44.42097" lon="5.16145">
        <ele>574.1</ele>
        <time>2022-10-16T13:35:20Z</time>
      </trkpt>
      <trkpt lat="44.42096" lon="5.16144">
        <ele>574.1</ele>
        <time>2022-10-16T13:35:19Z</time>
      </trkpt>
      <trkpt lat="44.42096" lon="5.16142">
        <ele>574.4</ele>
        <time>2022-10-16T13:35:18Z</time>
      </trkpt>
      <trkpt lat="44.42096" lon="5.16141">
        <ele>574.5</ele>
        <time>2022-10-16T13:35:17Z</time>
      </trkpt>
      <trkpt lat="44.42096" lon="5.16139">
        <ele>574.8</ele>
        <time>2022-10-16T13:35:16Z</time>
      </trkpt>
      <trkpt lat="44.42095" lon="5.16138">
        <ele>574.8</ele>
        <time>2022-10-16T13:35:15Z</time>
      </trkpt>
      <trkpt lat="44.42095" lon="5.16137">
        <ele>575</ele>
        <time>2022-10-16T13:35:14Z</time>
      </trkpt>
      <trkpt lat="44.42094" lon="5.16135">
        <ele>575.1</ele>
        <time>2022-10-16T13:35:13Z</time>
      </trkpt>
      <trkpt lat="44.42093" lon="5.16134">
        <ele>575.1</ele>
        <time>2022-10-16T13:35:12Z</time>
      </trkpt>
      <trkpt lat="44.42093" lon="5.16133">
        <ele>575.2</ele>
        <time>2022-10-16T13:35:11Z</time>
      </trkpt>
      <trkpt lat="44.42092" lon="5.16131">
        <ele>575.4</ele>
        <time>2022-10-16T13:35:10Z</time>
      </trkpt>
      <trkpt lat="44.42091" lon="5.1613">
        <ele>575.4</ele>
        <time>2022-10-16T13:35:09Z</time>
      </trkpt>
      <trkpt lat="44.42091" lon="5.16129">
        <ele>575.5</ele>
        <time>2022-10-16T13:35:08Z</time>
      </trkpt>
      <trkpt lat="44.4209" lon="5.16128">
        <ele>575.5</ele>
        <time>2022-10-16T13:35:07Z</time>
      </trkpt>
      <trkpt lat="44.42089" lon="5.16127">
        <ele>575.5</ele>
        <time>2022-10-16T13:35:06Z</time>
      </trkpt>
      <trkpt lat="44.42088" lon="5.16125">
        <ele>575.7</ele>
        <time>2022-10-16T13:35:05Z</time>
      </trkpt>
      <trkpt lat="44.42087" lon="5.16124">
        <ele>575.7</ele>
        <time>2022-10-16T13:35:04Z</time>
      </trkpt>
      <trkpt lat="44.42087" lon="5.16123">
        <ele>575.8</ele>
        <time>2022-10-16T13:35:03Z</time>
      </trkpt>
      <trkpt lat="44.42086" lon="5.16122">
        <ele>575.8</ele>
        <time>2022-10-16T13:35:02Z</time>
      </trkpt>
      <trkpt lat="44.42085" lon="5.16122">
        <ele>575.7</ele>
        <time>2022-10-16T13:35:01Z</time>
      </trkpt>
      <trkpt lat="44.42084" lon="5.16121">
        <ele>575.7</ele>
        <time>2022-10-16T13:35:00Z</time>
      </trkpt>
      <trkpt lat="44.42083" lon="5.1612">
        <ele>575.7</ele>
        <time>2022-10-16T13:34:59Z</time>
      </trkpt>
      <trkpt lat="44.42082" lon="5.16119">
        <ele>575.7</ele>
        <time>2022-10-16T13:34:58Z</time>
      </trkpt>
      <trkpt lat="44.42081" lon="5.16119">
        <ele>575.6</ele>
        <time>2022-10-16T13:34:57Z</time>
      </trkpt>
      <trkpt lat="44.4208" lon="5.16118">
        <ele>575.6</ele>
        <time>2022-10-16T13:34:56Z</time>
      </trkpt>
      <trkpt lat="44.42079" lon="5.16117">
        <ele>575.6</ele>
        <time>2022-10-16T13:34:55Z</time>
      </trkpt>
      <trkpt lat="44.42078" lon="5.16116">
        <ele>575.6</ele>
        <time>2022-10-16T13:34:54Z</time>
      </trkpt>
      <trkpt lat="44.42077" lon="5.16116">
        <ele>575.5</ele>
        <time>2022-10-16T13:34:53Z</time>
      </trkpt>
      <trkpt lat="44.42076" lon="5.16115">
        <ele>575.5</ele>
        <time>2022-10-16T13:34:52Z</time>
      </trkpt>
      <trkpt lat="44.42075" lon="5.16114">
        <ele>575.4</ele>
        <time>2022-10-16T13:34:51Z</time>
      </trkpt>
      <trkpt lat="44.42074" lon="5.16113">
        <ele>575.4</ele>
        <time>2022-10-16T13:34:50Z</time>
      </trkpt>
      <trkpt lat="44.42074" lon="5.16112">
        <ele>575.5</ele>
        <time>2022-10-16T13:34:49Z</time>
      </trkpt>
      <trkpt lat="44.42073" lon="5.16112">
        <ele>575.4</ele>
        <time>2022-10-16T13:34:48Z</time>
      </trkpt>
      <trkpt lat="44.42072" lon="5.16111">
        <ele>575.4</ele>
        <time>2022-10-16T13:34:47Z</time>
      </trkpt>
      <trkpt lat="44.42071" lon="5.1611">
        <ele>575.4</ele>
        <time>2022-10-16T13:34:46Z</time>
      </trkpt>
      <trkpt lat="44.4207" lon="5.16109">
        <ele>575.4</ele>
        <time>2022-10-16T13:34:44Z</time>
      </trkpt>
      <trkpt lat="44.42069" lon="5.16108">
        <ele>575.4</ele>
        <time>2022-10-16T13:34:43Z</time>
      </trkpt>
      <trkpt lat="44.42068" lon="5.16107">
        <ele>575.4</ele>
        <time>2022-10-16T13:34:42Z</time>
      </trkpt>
      <trkpt lat="44.42067" lon="5.16106">
        <ele>575.4</ele>
        <time>2022-10-16T13:34:41Z</time>
      </trkpt>
      <trkpt lat="44.42066" lon="5.16105">
        <ele>575.4</ele>
        <time>2022-10-16T13:34:40Z</time>
      </trkpt>
      <trkpt lat="44.42066" lon="5.16104">
        <ele>575.5</ele>
        <time>2022-10-16T13:34:39Z</time>
      </trkpt>
      <trkpt lat="44.42065" lon="5.16103">
        <ele>575.5</ele>
        <time>2022-10-16T13:34:38Z</time>
      </trkpt>
      <trkpt lat="44.42064" lon="5.16103">
        <ele>575.4</ele>
        <time>2022-10-16T13:34:37Z</time>
      </trkpt>
      <trkpt lat="44.42063" lon="5.16102">
        <ele>575.4</ele>
        <time>2022-10-16T13:34:36Z</time>
      </trkpt>
      <trkpt lat="44.42062" lon="5.161">
        <ele>575.5</ele>
        <time>2022-10-16T13:34:35Z</time>
      </trkpt>
      <trkpt lat="44.42061" lon="5.16099">
        <ele>575.5</ele>
        <time>2022-10-16T13:34:34Z</time>
      </trkpt>
      <trkpt lat="44.42061" lon="5.16098">
        <ele>575.7</ele>
        <time>2022-10-16T13:34:33Z</time>
      </trkpt>
      <trkpt lat="44.4206" lon="5.16097">
        <ele>575.7</ele>
        <time>2022-10-16T13:34:32Z</time>
      </trkpt>
      <trkpt lat="44.42059" lon="5.16096">
        <ele>575.7</ele>
        <time>2022-10-16T13:34:31Z</time>
      </trkpt>
      <trkpt lat="44.42058" lon="5.16095">
        <ele>575.7</ele>
        <time>2022-10-16T13:34:30Z</time>
      </trkpt>
      <trkpt lat="44.42057" lon="5.16094">
        <ele>575.7</ele>
        <time>2022-10-16T13:34:29Z</time>
      </trkpt>
      <trkpt lat="44.42056" lon="5.16093">
        <ele>575.7</ele>
        <time>2022-10-16T13:34:27Z</time>
      </trkpt>
      <trkpt lat="44.42055" lon="5.16092">
        <ele>575.7</ele>
        <time>2022-10-16T13:34:26Z</time>
      </trkpt>
      <trkpt lat="44.42054" lon="5.16091">
        <ele>575.6</ele>
        <time>2022-10-16T13:34:24Z</time>
      </trkpt>
      <trkpt lat="44.42053" lon="5.1609">
        <ele>575.6</ele>
        <time>2022-10-16T13:34:22Z</time>
      </trkpt>
      <trkpt lat="44.42052" lon="5.16089">
        <ele>575.5</ele>
        <time>2022-10-16T13:34:21Z</time>
      </trkpt>
      <trkpt lat="44.42052" lon="5.16088">
        <ele>575.7</ele>
        <time>2022-10-16T13:34:04Z</time>
      </trkpt>
      <trkpt lat="44.42051" lon="5.16088">
        <ele>575.5</ele>
        <time>2022-10-16T13:34:03Z</time>
      </trkpt>
      <trkpt lat="44.4205" lon="5.16087">
        <ele>575.5</ele>
        <time>2022-10-16T13:34:02Z</time>
      </trkpt>
      <trkpt lat="44.4205" lon="5.16086">
        <ele>575.6</ele>
        <time>2022-10-16T13:34:01Z</time>
      </trkpt>
      <trkpt lat="44.42049" lon="5.16085">
        <ele>575.6</ele>
        <time>2022-10-16T13:34:00Z</time>
      </trkpt>
      <trkpt lat="44.42048" lon="5.16083">
        <ele>575.7</ele>
        <time>2022-10-16T13:33:59Z</time>
      </trkpt>
      <trkpt lat="44.42047" lon="5.16082">
        <ele>575.6</ele>
        <time>2022-10-16T13:33:58Z</time>
      </trkpt>
      <trkpt lat="44.42046" lon="5.16081">
        <ele>575.5</ele>
        <time>2022-10-16T13:33:57Z</time>
      </trkpt>
      <trkpt lat="44.42045" lon="5.1608">
        <ele>575.5</ele>
        <time>2022-10-16T13:33:56Z</time>
      </trkpt>
      <trkpt lat="44.42045" lon="5.16079">
        <ele>575.6</ele>
        <time>2022-10-16T13:33:55Z</time>
      </trkpt>
      <trkpt lat="44.42044" lon="5.16078">
        <ele>575.5</ele>
        <time>2022-10-16T13:33:54Z</time>
      </trkpt>
      <trkpt lat="44.42043" lon="5.16077">
        <ele>575.4</ele>
        <time>2022-10-16T13:33:53Z</time>
      </trkpt>
      <trkpt lat="44.42042" lon="5.16076">
        <ele>575.4</ele>
        <time>2022-10-16T13:33:52Z</time>
      </trkpt>
      <trkpt lat="44.42042" lon="5.16075">
        <ele>575.5</ele>
        <time>2022-10-16T13:33:51Z</time>
      </trkpt>
      <trkpt lat="44.42041" lon="5.16074">
        <ele>575.4</ele>
        <time>2022-10-16T13:33:50Z</time>
      </trkpt>
      <trkpt lat="44.4204" lon="5.16073">
        <ele>575.3</ele>
        <time>2022-10-16T13:33:49Z</time>
      </trkpt>
      <trkpt lat="44.42039" lon="5.16073">
        <ele>575.1</ele>
        <time>2022-10-16T13:33:48Z</time>
      </trkpt>
      <trkpt lat="44.42039" lon="5.16071">
        <ele>575.4</ele>
        <time>2022-10-16T13:33:47Z</time>
      </trkpt>
      <trkpt lat="44.42038" lon="5.1607">
        <ele>575.3</ele>
        <time>2022-10-16T13:33:46Z</time>
      </trkpt>
      <trkpt lat="44.42037" lon="5.16069">
        <ele>575.2</ele>
        <time>2022-10-16T13:33:45Z</time>
      </trkpt>
      <trkpt lat="44.42036" lon="5.16067">
        <ele>575.2</ele>
        <time>2022-10-16T13:33:44Z</time>
      </trkpt>
      <trkpt lat="44.42036" lon="5.16066">
        <ele>575.4</ele>
        <time>2022-10-16T13:33:43Z</time>
      </trkpt>
      <trkpt lat="44.42035" lon="5.16065">
        <ele>575.3</ele>
        <time>2022-10-16T13:33:42Z</time>
      </trkpt>
      <trkpt lat="44.42034" lon="5.16064">
        <ele>575.2</ele>
        <time>2022-10-16T13:33:41Z</time>
      </trkpt>
      <trkpt lat="44.42033" lon="5.16062">
        <ele>575.2</ele>
        <time>2022-10-16T13:33:40Z</time>
      </trkpt>
      <trkpt lat="44.42032" lon="5.16061">
        <ele>575.2</ele>
        <time>2022-10-16T13:33:39Z</time>
      </trkpt>
      <trkpt lat="44.42032" lon="5.1606">
        <ele>575.3</ele>
        <time>2022-10-16T13:33:38Z</time>
      </trkpt>
      <trkpt lat="44.42031" lon="5.16059">
        <ele>575.2</ele>
        <time>2022-10-16T13:33:37Z</time>
      </trkpt>
      <trkpt lat="44.4203" lon="5.16059">
        <ele>575</ele>
        <time>2022-10-16T13:33:36Z</time>
      </trkpt>
      <trkpt lat="44.4203" lon="5.16058">
        <ele>575.1</ele>
        <time>2022-10-16T13:33:35Z</time>
      </trkpt>
      <trkpt lat="44.42029" lon="5.16057">
        <ele>575.1</ele>
        <time>2022-10-16T13:33:34Z</time>
      </trkpt>
      <trkpt lat="44.42028" lon="5.16056">
        <ele>575</ele>
        <time>2022-10-16T13:33:33Z</time>
      </trkpt>
      <trkpt lat="44.42027" lon="5.16055">
        <ele>574.9</ele>
        <time>2022-10-16T13:33:32Z</time>
      </trkpt>
      <trkpt lat="44.42026" lon="5.16054">
        <ele>574.8</ele>
        <time>2022-10-16T13:33:31Z</time>
      </trkpt>
      <trkpt lat="44.42025" lon="5.16053">
        <ele>574.8</ele>
        <time>2022-10-16T13:33:30Z</time>
      </trkpt>
      <trkpt lat="44.42025" lon="5.16052">
        <ele>574.9</ele>
        <time>2022-10-16T13:33:29Z</time>
      </trkpt>
      <trkpt lat="44.42024" lon="5.16051">
        <ele>574.8</ele>
        <time>2022-10-16T13:33:28Z</time>
      </trkpt>
      <trkpt lat="44.42023" lon="5.1605">
        <ele>574.8</ele>
        <time>2022-10-16T13:33:27Z</time>
      </trkpt>
      <trkpt lat="44.42022" lon="5.16049">
        <ele>574.7</ele>
        <time>2022-10-16T13:33:26Z</time>
      </trkpt>
      <trkpt lat="44.42021" lon="5.16048">
        <ele>574.6</ele>
        <time>2022-10-16T13:33:25Z</time>
      </trkpt>
      <trkpt lat="44.4202" lon="5.16048">
        <ele>574.4</ele>
        <time>2022-10-16T13:33:24Z</time>
      </trkpt>
      <trkpt lat="44.42019" lon="5.16047">
        <ele>574.3</ele>
        <time>2022-10-16T13:33:23Z</time>
      </trkpt>
      <trkpt lat="44.42019" lon="5.16046">
        <ele>574.5</ele>
        <time>2022-10-16T13:33:22Z</time>
      </trkpt>
      <trkpt lat="44.42018" lon="5.16045">
        <ele>574.4</ele>
        <time>2022-10-16T13:33:21Z</time>
      </trkpt>
      <trkpt lat="44.42017" lon="5.16044">
        <ele>574.3</ele>
        <time>2022-10-16T13:33:20Z</time>
      </trkpt>
      <trkpt lat="44.42016" lon="5.16043">
        <ele>574.3</ele>
        <time>2022-10-16T13:33:19Z</time>
      </trkpt>
      <trkpt lat="44.42015" lon="5.16042">
        <ele>574.2</ele>
        <time>2022-10-16T13:33:18Z</time>
      </trkpt>
      <trkpt lat="44.42014" lon="5.16041">
        <ele>574.1</ele>
        <time>2022-10-16T13:33:17Z</time>
      </trkpt>
      <trkpt lat="44.42013" lon="5.1604">
        <ele>574</ele>
        <time>2022-10-16T13:33:16Z</time>
      </trkpt>
      <trkpt lat="44.42012" lon="5.16039">
        <ele>574</ele>
        <time>2022-10-16T13:33:15Z</time>
      </trkpt>
      <trkpt lat="44.42012" lon="5.16038">
        <ele>574.1</ele>
        <time>2022-10-16T13:33:14Z</time>
      </trkpt>
      <trkpt lat="44.42011" lon="5.16037">
        <ele>574</ele>
        <time>2022-10-16T13:33:13Z</time>
      </trkpt>
      <trkpt lat="44.4201" lon="5.16036">
        <ele>574</ele>
        <time>2022-10-16T13:33:12Z</time>
      </trkpt>
      <trkpt lat="44.42009" lon="5.16035">
        <ele>573.9</ele>
        <time>2022-10-16T13:33:11Z</time>
      </trkpt>
      <trkpt lat="44.42008" lon="5.16034">
        <ele>573.8</ele>
        <time>2022-10-16T13:33:10Z</time>
      </trkpt>
      <trkpt lat="44.42007" lon="5.16033">
        <ele>573.8</ele>
        <time>2022-10-16T13:33:09Z</time>
      </trkpt>
      <trkpt lat="44.42006" lon="5.16032">
        <ele>573.7</ele>
        <time>2022-10-16T13:33:08Z</time>
      </trkpt>
      <trkpt lat="44.42005" lon="5.16032">
        <ele>573.5</ele>
        <time>2022-10-16T13:33:07Z</time>
      </trkpt>
      <trkpt lat="44.42004" lon="5.16031">
        <ele>573.4</ele>
        <time>2022-10-16T13:33:06Z</time>
      </trkpt>
      <trkpt lat="44.42003" lon="5.1603">
        <ele>573.3</ele>
        <time>2022-10-16T13:33:05Z</time>
      </trkpt>
      <trkpt lat="44.42003" lon="5.16029">
        <ele>573.5</ele>
        <time>2022-10-16T13:33:04Z</time>
      </trkpt>
      <trkpt lat="44.42002" lon="5.16028">
        <ele>573.4</ele>
        <time>2022-10-16T13:33:03Z</time>
      </trkpt>
      <trkpt lat="44.42001" lon="5.16027">
        <ele>573.3</ele>
        <time>2022-10-16T13:33:02Z</time>
      </trkpt>
      <trkpt lat="44.42" lon="5.16026">
        <ele>573.1</ele>
        <time>2022-10-16T13:33:01Z</time>
      </trkpt>
      <trkpt lat="44.41999" lon="5.16025">
        <ele>573</ele>
        <time>2022-10-16T13:33:00Z</time>
      </trkpt>
      <trkpt lat="44.41999" lon="5.16024">
        <ele>573.1</ele>
        <time>2022-10-16T13:32:59Z</time>
      </trkpt>
      <trkpt lat="44.41998" lon="5.16023">
        <ele>573</ele>
        <time>2022-10-16T13:32:58Z</time>
      </trkpt>
      <trkpt lat="44.41997" lon="5.16022">
        <ele>572.9</ele>
        <time>2022-10-16T13:32:57Z</time>
      </trkpt>
      <trkpt lat="44.41997" lon="5.16021">
        <ele>573</ele>
        <time>2022-10-16T13:32:56Z</time>
      </trkpt>
      <trkpt lat="44.41996" lon="5.1602">
        <ele>573</ele>
        <time>2022-10-16T13:32:55Z</time>
      </trkpt>
      <trkpt lat="44.41995" lon="5.16019">
        <ele>572.9</ele>
        <time>2022-10-16T13:32:54Z</time>
      </trkpt>
      <trkpt lat="44.41994" lon="5.16018">
        <ele>572.9</ele>
        <time>2022-10-16T13:32:53Z</time>
      </trkpt>
      <trkpt lat="44.41993" lon="5.16017">
        <ele>572.8</ele>
        <time>2022-10-16T13:32:52Z</time>
      </trkpt>
      <trkpt lat="44.41992" lon="5.16016">
        <ele>572.8</ele>
        <time>2022-10-16T13:32:51Z</time>
      </trkpt>
      <trkpt lat="44.41991" lon="5.16015">
        <ele>572.7</ele>
        <time>2022-10-16T13:32:50Z</time>
      </trkpt>
      <trkpt lat="44.4199" lon="5.16015">
        <ele>572.6</ele>
        <time>2022-10-16T13:32:49Z</time>
      </trkpt>
      <trkpt lat="44.41989" lon="5.16014">
        <ele>572.6</ele>
        <time>2022-10-16T13:32:48Z</time>
      </trkpt>
      <trkpt lat="44.41987" lon="5.16014">
        <ele>572.3</ele>
        <time>2022-10-16T13:32:47Z</time>
      </trkpt>
      <trkpt lat="44.41986" lon="5.16014">
        <ele>572.2</ele>
        <time>2022-10-16T13:32:46Z</time>
      </trkpt>
      <trkpt lat="44.41985" lon="5.16014">
        <ele>572.1</ele>
        <time>2022-10-16T13:32:45Z</time>
      </trkpt>
      <trkpt lat="44.41984" lon="5.16014">
        <ele>572</ele>
        <time>2022-10-16T13:32:44Z</time>
      </trkpt>
      <trkpt lat="44.41983" lon="5.16014">
        <ele>571.8</ele>
        <time>2022-10-16T13:32:43Z</time>
      </trkpt>
      <trkpt lat="44.41982" lon="5.16014">
        <ele>571.7</ele>
        <time>2022-10-16T13:32:42Z</time>
      </trkpt>
      <trkpt lat="44.41981" lon="5.16015">
        <ele>571.4</ele>
        <time>2022-10-16T13:32:41Z</time>
      </trkpt>
      <trkpt lat="44.4198" lon="5.16015">
        <ele>571.3</ele>
        <time>2022-10-16T13:32:40Z</time>
      </trkpt>
      <trkpt lat="44.41979" lon="5.16015">
        <ele>571.2</ele>
        <time>2022-10-16T13:32:39Z</time>
      </trkpt>
      <trkpt lat="44.41978" lon="5.16015">
        <ele>571.1</ele>
        <time>2022-10-16T13:32:38Z</time>
      </trkpt>
      <trkpt lat="44.41977" lon="5.16016">
        <ele>570.8</ele>
        <time>2022-10-16T13:32:36Z</time>
      </trkpt>
      <trkpt lat="44.41976" lon="5.16016">
        <ele>570.6</ele>
        <time>2022-10-16T13:32:35Z</time>
      </trkpt>
      <trkpt lat="44.41975" lon="5.16017">
        <ele>570.3</ele>
        <time>2022-10-16T13:32:34Z</time>
      </trkpt>
      <trkpt lat="44.41974" lon="5.16017">
        <ele>570.2</ele>
        <time>2022-10-16T13:32:33Z</time>
      </trkpt>
      <trkpt lat="44.41973" lon="5.16018">
        <ele>569.9</ele>
        <time>2022-10-16T13:32:32Z</time>
      </trkpt>
      <trkpt lat="44.41972" lon="5.16018">
        <ele>569.7</ele>
        <time>2022-10-16T13:32:31Z</time>
      </trkpt>
      <trkpt lat="44.41971" lon="5.16018">
        <ele>569.7</ele>
        <time>2022-10-16T13:32:30Z</time>
      </trkpt>
      <trkpt lat="44.4197" lon="5.16018">
        <ele>569.6</ele>
        <time>2022-10-16T13:32:29Z</time>
      </trkpt>
      <trkpt lat="44.41969" lon="5.16018">
        <ele>569.5</ele>
        <time>2022-10-16T13:32:28Z</time>
      </trkpt>
      <trkpt lat="44.41968" lon="5.16018">
        <ele>569.5</ele>
        <time>2022-10-16T13:32:27Z</time>
      </trkpt>
      <trkpt lat="44.41966" lon="5.16018">
        <ele>569.3</ele>
        <time>2022-10-16T13:32:26Z</time>
      </trkpt>
      <trkpt lat="44.41965" lon="5.16018">
        <ele>569.2</ele>
        <time>2022-10-16T13:32:25Z</time>
      </trkpt>
      <trkpt lat="44.41964" lon="5.16018">
        <ele>569.2</ele>
        <time>2022-10-16T13:32:24Z</time>
      </trkpt>
      <trkpt lat="44.41963" lon="5.16018">
        <ele>569.1</ele>
        <time>2022-10-16T13:32:23Z</time>
      </trkpt>
      <trkpt lat="44.41962" lon="5.16018">
        <ele>569</ele>
        <time>2022-10-16T13:32:22Z</time>
      </trkpt>
      <trkpt lat="44.41961" lon="5.16018">
        <ele>569</ele>
        <time>2022-10-16T13:32:21Z</time>
      </trkpt>
      <trkpt lat="44.4196" lon="5.16018">
        <ele>568.9</ele>
        <time>2022-10-16T13:32:20Z</time>
      </trkpt>
      <trkpt lat="44.41958" lon="5.16018">
        <ele>568.7</ele>
        <time>2022-10-16T13:32:19Z</time>
      </trkpt>
      <trkpt lat="44.41957" lon="5.16017">
        <ele>568.8</ele>
        <time>2022-10-16T13:32:18Z</time>
      </trkpt>
      <trkpt lat="44.41956" lon="5.16017">
        <ele>568.8</ele>
        <time>2022-10-16T13:32:17Z</time>
      </trkpt>
      <trkpt lat="44.41955" lon="5.16017">
        <ele>568.7</ele>
        <time>2022-10-16T13:32:16Z</time>
      </trkpt>
      <trkpt lat="44.41953" lon="5.16017">
        <ele>568.6</ele>
        <time>2022-10-16T13:32:15Z</time>
      </trkpt>
      <trkpt lat="44.41952" lon="5.16016">
        <ele>568.7</ele>
        <time>2022-10-16T13:32:14Z</time>
      </trkpt>
      <trkpt lat="44.41951" lon="5.16016">
        <ele>568.6</ele>
        <time>2022-10-16T13:32:13Z</time>
      </trkpt>
      <trkpt lat="44.41949" lon="5.16016">
        <ele>568.4</ele>
        <time>2022-10-16T13:32:12Z</time>
      </trkpt>
      <trkpt lat="44.41948" lon="5.16015">
        <ele>568.6</ele>
        <time>2022-10-16T13:32:11Z</time>
      </trkpt>
      <trkpt lat="44.41947" lon="5.16015">
        <ele>568.5</ele>
        <time>2022-10-16T13:32:10Z</time>
      </trkpt>
      <trkpt lat="44.41946" lon="5.16015">
        <ele>568.4</ele>
        <time>2022-10-16T13:32:09Z</time>
      </trkpt>
      <trkpt lat="44.41945" lon="5.16014">
        <ele>568.5</ele>
        <time>2022-10-16T13:32:08Z</time>
      </trkpt>
      <trkpt lat="44.41944" lon="5.16014">
        <ele>568.5</ele>
        <time>2022-10-16T13:32:07Z</time>
      </trkpt>
      <trkpt lat="44.41943" lon="5.16014">
        <ele>568.4</ele>
        <time>2022-10-16T13:32:06Z</time>
      </trkpt>
      <trkpt lat="44.41942" lon="5.16014">
        <ele>568.4</ele>
        <time>2022-10-16T13:32:05Z</time>
      </trkpt>
      <trkpt lat="44.41941" lon="5.16013">
        <ele>568.5</ele>
        <time>2022-10-16T13:32:04Z</time>
      </trkpt>
      <trkpt lat="44.4194" lon="5.16013">
        <ele>568.5</ele>
        <time>2022-10-16T13:32:03Z</time>
      </trkpt>
      <trkpt lat="44.41939" lon="5.16013">
        <ele>568.5</ele>
        <time>2022-10-16T13:32:02Z</time>
      </trkpt>
      <trkpt lat="44.41938" lon="5.16013">
        <ele>568.4</ele>
        <time>2022-10-16T13:32:01Z</time>
      </trkpt>
      <trkpt lat="44.41937" lon="5.16013">
        <ele>568.4</ele>
        <time>2022-10-16T13:32:00Z</time>
      </trkpt>
      <trkpt lat="44.41936" lon="5.16013">
        <ele>568.4</ele>
        <time>2022-10-16T13:31:59Z</time>
      </trkpt>
      <trkpt lat="44.41935" lon="5.16012">
        <ele>568.5</ele>
        <time>2022-10-16T13:31:58Z</time>
      </trkpt>
      <trkpt lat="44.41933" lon="5.16012">
        <ele>568.4</ele>
        <time>2022-10-16T13:31:57Z</time>
      </trkpt>
      <trkpt lat="44.41932" lon="5.16012">
        <ele>568.4</ele>
        <time>2022-10-16T13:31:56Z</time>
      </trkpt>
      <trkpt lat="44.41931" lon="5.16012">
        <ele>568.4</ele>
        <time>2022-10-16T13:31:55Z</time>
      </trkpt>
      <trkpt lat="44.41929" lon="5.16012">
        <ele>568.3</ele>
        <time>2022-10-16T13:31:54Z</time>
      </trkpt>
      <trkpt lat="44.41928" lon="5.16011">
        <ele>568.4</ele>
        <time>2022-10-16T13:31:53Z</time>
      </trkpt>
      <trkpt lat="44.41927" lon="5.16011">
        <ele>568.4</ele>
        <time>2022-10-16T13:31:52Z</time>
      </trkpt>
      <trkpt lat="44.41926" lon="5.16011">
        <ele>568.4</ele>
        <time>2022-10-16T13:31:51Z</time>
      </trkpt>
      <trkpt lat="44.41925" lon="5.1601">
        <ele>568.5</ele>
        <time>2022-10-16T13:31:50Z</time>
      </trkpt>
      <trkpt lat="44.41924" lon="5.1601">
        <ele>568.5</ele>
        <time>2022-10-16T13:31:49Z</time>
      </trkpt>
      <trkpt lat="44.41923" lon="5.1601">
        <ele>568.4</ele>
        <time>2022-10-16T13:31:48Z</time>
      </trkpt>
      <trkpt lat="44.41922" lon="5.16009">
        <ele>568.6</ele>
        <time>2022-10-16T13:31:47Z</time>
      </trkpt>
      <trkpt lat="44.41921" lon="5.16009">
        <ele>568.5</ele>
        <time>2022-10-16T13:31:46Z</time>
      </trkpt>
      <trkpt lat="44.4192" lon="5.16008">
        <ele>568.7</ele>
        <time>2022-10-16T13:31:45Z</time>
      </trkpt>
      <trkpt lat="44.41919" lon="5.16008">
        <ele>568.6</ele>
        <time>2022-10-16T13:31:44Z</time>
      </trkpt>
      <trkpt lat="44.41918" lon="5.16007">
        <ele>568.8</ele>
        <time>2022-10-16T13:31:43Z</time>
      </trkpt>
      <trkpt lat="44.41917" lon="5.16007">
        <ele>568.8</ele>
        <time>2022-10-16T13:31:42Z</time>
      </trkpt>
      <trkpt lat="44.41916" lon="5.16006">
        <ele>568.9</ele>
        <time>2022-10-16T13:31:41Z</time>
      </trkpt>
      <trkpt lat="44.41915" lon="5.16006">
        <ele>568.8</ele>
        <time>2022-10-16T13:31:40Z</time>
      </trkpt>
      <trkpt lat="44.41914" lon="5.16005">
        <ele>568.8</ele>
        <time>2022-10-16T13:31:39Z</time>
      </trkpt>
      <trkpt lat="44.41913" lon="5.16004">
        <ele>568.9</ele>
        <time>2022-10-16T13:31:38Z</time>
      </trkpt>
      <trkpt lat="44.41912" lon="5.16003">
        <ele>569</ele>
        <time>2022-10-16T13:31:37Z</time>
      </trkpt>
      <trkpt lat="44.41911" lon="5.16002">
        <ele>569</ele>
        <time>2022-10-16T13:31:36Z</time>
      </trkpt>
      <trkpt lat="44.4191" lon="5.16001">
        <ele>569.1</ele>
        <time>2022-10-16T13:31:35Z</time>
      </trkpt>
      <trkpt lat="44.41909" lon="5.16">
        <ele>569.2</ele>
        <time>2022-10-16T13:31:34Z</time>
      </trkpt>
      <trkpt lat="44.41908" lon="5.15999">
        <ele>569.1</ele>
        <time>2022-10-16T13:31:33Z</time>
      </trkpt>
      <trkpt lat="44.41907" lon="5.15998">
        <ele>569.1</ele>
        <time>2022-10-16T13:31:32Z</time>
      </trkpt>
      <trkpt lat="44.41906" lon="5.15997">
        <ele>569</ele>
        <time>2022-10-16T13:31:31Z</time>
      </trkpt>
      <trkpt lat="44.41906" lon="5.15996">
        <ele>569.1</ele>
        <time>2022-10-16T13:31:30Z</time>
      </trkpt>
      <trkpt lat="44.41905" lon="5.15995">
        <ele>569.1</ele>
        <time>2022-10-16T13:31:29Z</time>
      </trkpt>
      <trkpt lat="44.41904" lon="5.15995">
        <ele>569</ele>
        <time>2022-10-16T13:31:28Z</time>
      </trkpt>
      <trkpt lat="44.41903" lon="5.15994">
        <ele>569</ele>
        <time>2022-10-16T13:31:27Z</time>
      </trkpt>
      <trkpt lat="44.41902" lon="5.15993">
        <ele>568.9</ele>
        <time>2022-10-16T13:31:26Z</time>
      </trkpt>
      <trkpt lat="44.41901" lon="5.15992">
        <ele>568.9</ele>
        <time>2022-10-16T13:31:25Z</time>
      </trkpt>
      <trkpt lat="44.419" lon="5.15992">
        <ele>568.8</ele>
        <time>2022-10-16T13:31:24Z</time>
      </trkpt>
      <trkpt lat="44.41899" lon="5.15991">
        <ele>568.8</ele>
        <time>2022-10-16T13:31:23Z</time>
      </trkpt>
      <trkpt lat="44.41898" lon="5.1599">
        <ele>568.8</ele>
        <time>2022-10-16T13:31:22Z</time>
      </trkpt>
      <trkpt lat="44.41897" lon="5.1599">
        <ele>568.7</ele>
        <time>2022-10-16T13:31:21Z</time>
      </trkpt>
      <trkpt lat="44.41896" lon="5.15989">
        <ele>568.8</ele>
        <time>2022-10-16T13:31:20Z</time>
      </trkpt>
      <trkpt lat="44.41895" lon="5.15989">
        <ele>568.7</ele>
        <time>2022-10-16T13:31:19Z</time>
      </trkpt>
      <trkpt lat="44.41894" lon="5.15988">
        <ele>568.7</ele>
        <time>2022-10-16T13:31:18Z</time>
      </trkpt>
      <trkpt lat="44.41893" lon="5.15987">
        <ele>568.7</ele>
        <time>2022-10-16T13:31:17Z</time>
      </trkpt>
      <trkpt lat="44.41892" lon="5.15987">
        <ele>568.6</ele>
        <time>2022-10-16T13:31:16Z</time>
      </trkpt>
      <trkpt lat="44.4189" lon="5.15986">
        <ele>568.6</ele>
        <time>2022-10-16T13:31:15Z</time>
      </trkpt>
      <trkpt lat="44.41889" lon="5.15986">
        <ele>568.5</ele>
        <time>2022-10-16T13:31:14Z</time>
      </trkpt>
      <trkpt lat="44.41888" lon="5.15985">
        <ele>568.6</ele>
        <time>2022-10-16T13:31:13Z</time>
      </trkpt>
      <trkpt lat="44.41887" lon="5.15985">
        <ele>568.6</ele>
        <time>2022-10-16T13:31:12Z</time>
      </trkpt>
      <trkpt lat="44.41886" lon="5.15984">
        <ele>568.7</ele>
        <time>2022-10-16T13:31:11Z</time>
      </trkpt>
      <trkpt lat="44.41885" lon="5.15984">
        <ele>568.7</ele>
        <time>2022-10-16T13:31:10Z</time>
      </trkpt>
      <trkpt lat="44.41884" lon="5.15984">
        <ele>568.7</ele>
        <time>2022-10-16T13:31:09Z</time>
      </trkpt>
      <trkpt lat="44.41883" lon="5.15983">
        <ele>568.8</ele>
        <time>2022-10-16T13:31:08Z</time>
      </trkpt>
      <trkpt lat="44.41882" lon="5.15983">
        <ele>568.8</ele>
        <time>2022-10-16T13:31:07Z</time>
      </trkpt>
      <trkpt lat="44.41881" lon="5.15983">
        <ele>568.8</ele>
        <time>2022-10-16T13:31:06Z</time>
      </trkpt>
      <trkpt lat="44.4188" lon="5.15983">
        <ele>568.8</ele>
        <time>2022-10-16T13:31:05Z</time>
      </trkpt>
      <trkpt lat="44.41879" lon="5.15983">
        <ele>568.8</ele>
        <time>2022-10-16T13:31:04Z</time>
      </trkpt>
      <trkpt lat="44.41878" lon="5.15983">
        <ele>568.8</ele>
        <time>2022-10-16T13:31:03Z</time>
      </trkpt>
      <trkpt lat="44.41877" lon="5.15982">
        <ele>568.9</ele>
        <time>2022-10-16T13:31:02Z</time>
      </trkpt>
      <trkpt lat="44.41876" lon="5.15982">
        <ele>568.9</ele>
        <time>2022-10-16T13:31:00Z</time>
      </trkpt>
      <trkpt lat="44.41875" lon="5.15982">
        <ele>568.9</ele>
        <time>2022-10-16T13:30:58Z</time>
      </trkpt>
      <trkpt lat="44.41874" lon="5.15982">
        <ele>568.9</ele>
        <time>2022-10-16T13:30:56Z</time>
      </trkpt>
      <trkpt lat="44.41873" lon="5.15981">
        <ele>569.1</ele>
        <time>2022-10-16T13:30:55Z</time>
      </trkpt>
      <trkpt lat="44.41872" lon="5.15981">
        <ele>569.1</ele>
        <time>2022-10-16T13:30:54Z</time>
      </trkpt>
      <trkpt lat="44.41871" lon="5.15981">
        <ele>569.1</ele>
        <time>2022-10-16T13:30:52Z</time>
      </trkpt>
      <trkpt lat="44.4187" lon="5.1598">
        <ele>569.2</ele>
        <time>2022-10-16T13:30:51Z</time>
      </trkpt>
      <trkpt lat="44.41869" lon="5.1598">
        <ele>569.2</ele>
        <time>2022-10-16T13:30:50Z</time>
      </trkpt>
      <trkpt lat="44.41868" lon="5.1598">
        <ele>569.2</ele>
        <time>2022-10-16T13:30:49Z</time>
      </trkpt>
      <trkpt lat="44.41867" lon="5.1598">
        <ele>569.2</ele>
        <time>2022-10-16T13:30:48Z</time>
      </trkpt>
      <trkpt lat="44.41866" lon="5.15979">
        <ele>569.3</ele>
        <time>2022-10-16T13:30:47Z</time>
      </trkpt>
      <trkpt lat="44.41865" lon="5.15979">
        <ele>569.3</ele>
        <time>2022-10-16T13:30:46Z</time>
      </trkpt>
      <trkpt lat="44.41864" lon="5.15979">
        <ele>569.3</ele>
        <time>2022-10-16T13:30:45Z</time>
      </trkpt>
      <trkpt lat="44.41863" lon="5.15979">
        <ele>569.3</ele>
        <time>2022-10-16T13:30:44Z</time>
      </trkpt>
      <trkpt lat="44.41862" lon="5.15978">
        <ele>569.4</ele>
        <time>2022-10-16T13:30:43Z</time>
      </trkpt>
      <trkpt lat="44.41861" lon="5.15978">
        <ele>569.4</ele>
        <time>2022-10-16T13:30:42Z</time>
      </trkpt>
      <trkpt lat="44.4186" lon="5.15978">
        <ele>569.4</ele>
        <time>2022-10-16T13:30:41Z</time>
      </trkpt>
      <trkpt lat="44.41859" lon="5.15978">
        <ele>569.5</ele>
        <time>2022-10-16T13:30:40Z</time>
      </trkpt>
      <trkpt lat="44.41858" lon="5.15978">
        <ele>569.6</ele>
        <time>2022-10-16T13:30:39Z</time>
      </trkpt>
      <trkpt lat="44.41857" lon="5.15978">
        <ele>569.6</ele>
        <time>2022-10-16T13:30:38Z</time>
      </trkpt>
      <trkpt lat="44.41856" lon="5.15978">
        <ele>569.7</ele>
        <time>2022-10-16T13:30:37Z</time>
      </trkpt>
      <trkpt lat="44.41855" lon="5.15978">
        <ele>569.8</ele>
        <time>2022-10-16T13:30:36Z</time>
      </trkpt>
      <trkpt lat="44.41854" lon="5.15977">
        <ele>570</ele>
        <time>2022-10-16T13:30:35Z</time>
      </trkpt>
      <trkpt lat="44.41853" lon="5.15977">
        <ele>570</ele>
        <time>2022-10-16T13:30:34Z</time>
      </trkpt>
      <trkpt lat="44.41852" lon="5.15977">
        <ele>570.1</ele>
        <time>2022-10-16T13:30:33Z</time>
      </trkpt>
      <trkpt lat="44.41851" lon="5.15977">
        <ele>570.1</ele>
        <time>2022-10-16T13:30:32Z</time>
      </trkpt>
      <trkpt lat="44.4185" lon="5.15976">
        <ele>570.3</ele>
        <time>2022-10-16T13:30:31Z</time>
      </trkpt>
      <trkpt lat="44.41849" lon="5.15976">
        <ele>570.4</ele>
        <time>2022-10-16T13:30:30Z</time>
      </trkpt>
      <trkpt lat="44.41848" lon="5.15976">
        <ele>570.5</ele>
        <time>2022-10-16T13:30:29Z</time>
      </trkpt>
      <trkpt lat="44.41847" lon="5.15976">
        <ele>570.5</ele>
        <time>2022-10-16T13:30:28Z</time>
      </trkpt>
      <trkpt lat="44.41846" lon="5.15976">
        <ele>570.6</ele>
        <time>2022-10-16T13:30:27Z</time>
      </trkpt>
      <trkpt lat="44.41845" lon="5.15976">
        <ele>570.7</ele>
        <time>2022-10-16T13:30:25Z</time>
      </trkpt>
      <trkpt lat="44.41844" lon="5.15975">
        <ele>570.9</ele>
        <time>2022-10-16T13:30:24Z</time>
      </trkpt>
      <trkpt lat="44.41843" lon="5.15975">
        <ele>570.9</ele>
        <time>2022-10-16T13:30:23Z</time>
      </trkpt>
      <trkpt lat="44.41842" lon="5.15975">
        <ele>571</ele>
        <time>2022-10-16T13:30:21Z</time>
      </trkpt>
      <trkpt lat="44.41841" lon="5.15975">
        <ele>571.1</ele>
        <time>2022-10-16T13:30:20Z</time>
      </trkpt>
      <trkpt lat="44.4184" lon="5.15975">
        <ele>571.1</ele>
        <time>2022-10-16T13:30:19Z</time>
      </trkpt>
      <trkpt lat="44.41839" lon="5.15975">
        <ele>571.2</ele>
        <time>2022-10-16T13:30:16Z</time>
      </trkpt>
      <trkpt lat="44.41838" lon="5.15976">
        <ele>571.1</ele>
        <time>2022-10-16T13:30:14Z</time>
      </trkpt>
      <trkpt lat="44.41837" lon="5.15975">
        <ele>571.3</ele>
        <time>2022-10-16T13:30:13Z</time>
      </trkpt>
      <trkpt lat="44.41836" lon="5.15975">
        <ele>571.4</ele>
        <time>2022-10-16T13:30:11Z</time>
      </trkpt>
      <trkpt lat="44.41835" lon="5.15975">
        <ele>571.5</ele>
        <time>2022-10-16T13:30:10Z</time>
      </trkpt>
      <trkpt lat="44.41834" lon="5.15975">
        <ele>571.6</ele>
        <time>2022-10-16T13:30:09Z</time>
      </trkpt>
      <trkpt lat="44.41833" lon="5.15975">
        <ele>571.6</ele>
        <time>2022-10-16T13:30:08Z</time>
      </trkpt>
      <trkpt lat="44.41832" lon="5.15975">
        <ele>571.6</ele>
        <time>2022-10-16T13:30:07Z</time>
      </trkpt>
      <trkpt lat="44.41831" lon="5.15974">
        <ele>571.7</ele>
        <time>2022-10-16T13:30:06Z</time>
      </trkpt>
      <trkpt lat="44.4183" lon="5.15974">
        <ele>571.7</ele>
        <time>2022-10-16T13:30:05Z</time>
      </trkpt>
      <trkpt lat="44.41829" lon="5.15974">
        <ele>571.7</ele>
        <time>2022-10-16T13:30:04Z</time>
      </trkpt>
      <trkpt lat="44.41828" lon="5.15974">
        <ele>571.7</ele>
        <time>2022-10-16T13:30:03Z</time>
      </trkpt>
      <trkpt lat="44.41827" lon="5.15974">
        <ele>571.7</ele>
        <time>2022-10-16T13:30:02Z</time>
      </trkpt>
      <trkpt lat="44.41826" lon="5.15974">
        <ele>571.7</ele>
        <time>2022-10-16T13:30:01Z</time>
      </trkpt>
      <trkpt lat="44.41825" lon="5.15974">
        <ele>571.7</ele>
        <time>2022-10-16T13:29:59Z</time>
      </trkpt>
      <trkpt lat="44.41824" lon="5.15974">
        <ele>571.7</ele>
        <time>2022-10-16T13:29:58Z</time>
      </trkpt>
      <trkpt lat="44.41823" lon="5.15974">
        <ele>571.7</ele>
        <time>2022-10-16T13:29:57Z</time>
      </trkpt>
      <trkpt lat="44.41822" lon="5.15973">
        <ele>571.9</ele>
        <time>2022-10-16T13:29:55Z</time>
      </trkpt>
      <trkpt lat="44.41821" lon="5.15973">
        <ele>571.9</ele>
        <time>2022-10-16T13:29:54Z</time>
      </trkpt>
      <trkpt lat="44.4182" lon="5.15973">
        <ele>571.9</ele>
        <time>2022-10-16T13:29:52Z</time>
      </trkpt>
      <trkpt lat="44.41819" lon="5.15973">
        <ele>571.9</ele>
        <time>2022-10-16T13:29:51Z</time>
      </trkpt>
      <trkpt lat="44.41818" lon="5.15973">
        <ele>571.9</ele>
        <time>2022-10-16T13:29:49Z</time>
      </trkpt>
      <trkpt lat="44.41817" lon="5.15973">
        <ele>571.9</ele>
        <time>2022-10-16T13:29:48Z</time>
      </trkpt>
      <trkpt lat="44.41816" lon="5.15973">
        <ele>571.9</ele>
        <time>2022-10-16T13:29:47Z</time>
      </trkpt>
      <trkpt lat="44.41815" lon="5.15974">
        <ele>571.7</ele>
        <time>2022-10-16T13:29:44Z</time>
      </trkpt>
      <trkpt lat="44.41814" lon="5.15974">
        <ele>571.7</ele>
        <time>2022-10-16T13:29:41Z</time>
      </trkpt>
      <trkpt lat="44.41813" lon="5.15974">
        <ele>571.7</ele>
        <time>2022-10-16T13:29:40Z</time>
      </trkpt>
      <trkpt lat="44.41812" lon="5.15974">
        <ele>571.7</ele>
        <time>2022-10-16T13:29:39Z</time>
      </trkpt>
      <trkpt lat="44.41811" lon="5.15974">
        <ele>571.7</ele>
        <time>2022-10-16T13:29:38Z</time>
      </trkpt>
      <trkpt lat="44.4181" lon="5.15974">
        <ele>571.7</ele>
        <time>2022-10-16T13:29:37Z</time>
      </trkpt>
      <trkpt lat="44.41808" lon="5.15974">
        <ele>571.7</ele>
        <time>2022-10-16T13:29:36Z</time>
      </trkpt>
      <trkpt lat="44.41807" lon="5.15974">
        <ele>571.7</ele>
        <time>2022-10-16T13:29:35Z</time>
      </trkpt>
      <trkpt lat="44.41806" lon="5.15974">
        <ele>571.7</ele>
        <time>2022-10-16T13:29:34Z</time>
      </trkpt>
      <trkpt lat="44.41805" lon="5.15974">
        <ele>571.7</ele>
        <time>2022-10-16T13:29:33Z</time>
      </trkpt>
      <trkpt lat="44.41804" lon="5.15974">
        <ele>571.7</ele>
        <time>2022-10-16T13:29:32Z</time>
      </trkpt>
      <trkpt lat="44.41803" lon="5.15975">
        <ele>571.5</ele>
        <time>2022-10-16T13:29:31Z</time>
      </trkpt>
      <trkpt lat="44.41802" lon="5.15975">
        <ele>571.5</ele>
        <time>2022-10-16T13:29:30Z</time>
      </trkpt>
      <trkpt lat="44.41801" lon="5.15975">
        <ele>571.5</ele>
        <time>2022-10-16T13:29:29Z</time>
      </trkpt>
      <trkpt lat="44.418" lon="5.15974">
        <ele>571.6</ele>
        <time>2022-10-16T13:29:27Z</time>
      </trkpt>
      <trkpt lat="44.41798" lon="5.15972">
        <ele>571.8</ele>
        <time>2022-10-16T13:29:17Z</time>
      </trkpt>
      <trkpt lat="44.41797" lon="5.15972">
        <ele>571.7</ele>
        <time>2022-10-16T13:29:16Z</time>
      </trkpt>
      <trkpt lat="44.41797" lon="5.15971">
        <ele>571.8</ele>
        <time>2022-10-16T13:29:15Z</time>
      </trkpt>
      <trkpt lat="44.41796" lon="5.1597">
        <ele>571.9</ele>
        <time>2022-10-16T13:29:14Z</time>
      </trkpt>
      <trkpt lat="44.41796" lon="5.15969">
        <ele>572</ele>
        <time>2022-10-16T13:29:13Z</time>
      </trkpt>
      <trkpt lat="44.41795" lon="5.15968">
        <ele>572.1</ele>
        <time>2022-10-16T13:29:12Z</time>
      </trkpt>
      <trkpt lat="44.41795" lon="5.15967">
        <ele>572.2</ele>
        <time>2022-10-16T13:29:11Z</time>
      </trkpt>
      <trkpt lat="44.41795" lon="5.15966">
        <ele>572.3</ele>
        <time>2022-10-16T13:29:10Z</time>
      </trkpt>
      <trkpt lat="44.41795" lon="5.15965">
        <ele>572.4</ele>
        <time>2022-10-16T13:29:09Z</time>
      </trkpt>
      <trkpt lat="44.41794" lon="5.15964">
        <ele>572.5</ele>
        <time>2022-10-16T13:29:08Z</time>
      </trkpt>
      <trkpt lat="44.41794" lon="5.15963">
        <ele>572.6</ele>
        <time>2022-10-16T13:29:07Z</time>
      </trkpt>
      <trkpt lat="44.41794" lon="5.15962">
        <ele>572.7</ele>
        <time>2022-10-16T13:29:06Z</time>
      </trkpt>
      <trkpt lat="44.41793" lon="5.15961">
        <ele>572.8</ele>
        <time>2022-10-16T13:29:05Z</time>
      </trkpt>
      <trkpt lat="44.41793" lon="5.1596">
        <ele>572.9</ele>
        <time>2022-10-16T13:29:04Z</time>
      </trkpt>
      <trkpt lat="44.41793" lon="5.15959">
        <ele>573</ele>
        <time>2022-10-16T13:29:03Z</time>
      </trkpt>
      <trkpt lat="44.41792" lon="5.15958">
        <ele>573</ele>
        <time>2022-10-16T13:29:02Z</time>
      </trkpt>
      <trkpt lat="44.41791" lon="5.15958">
        <ele>573</ele>
        <time>2022-10-16T13:29:01Z</time>
      </trkpt>
      <trkpt lat="44.41791" lon="5.15957">
        <ele>573.1</ele>
        <time>2022-10-16T13:29:00Z</time>
      </trkpt>
      <trkpt lat="44.4179" lon="5.15956">
        <ele>573.2</ele>
        <time>2022-10-16T13:28:59Z</time>
      </trkpt>
      <trkpt lat="44.4179" lon="5.15955">
        <ele>573.3</ele>
        <time>2022-10-16T13:28:58Z</time>
      </trkpt>
      <trkpt lat="44.41789" lon="5.15954">
        <ele>573.4</ele>
        <time>2022-10-16T13:28:56Z</time>
      </trkpt>
      <trkpt lat="44.41789" lon="5.15953">
        <ele>573.5</ele>
        <time>2022-10-16T13:28:55Z</time>
      </trkpt>
      <trkpt lat="44.41788" lon="5.15952">
        <ele>573.6</ele>
        <time>2022-10-16T13:28:54Z</time>
      </trkpt>
      <trkpt lat="44.41788" lon="5.15951">
        <ele>573.7</ele>
        <time>2022-10-16T13:28:53Z</time>
      </trkpt>
      <trkpt lat="44.41787" lon="5.1595">
        <ele>573.7</ele>
        <time>2022-10-16T13:28:52Z</time>
      </trkpt>
      <trkpt lat="44.41786" lon="5.15949">
        <ele>573.8</ele>
        <time>2022-10-16T13:28:51Z</time>
      </trkpt>
      <trkpt lat="44.41786" lon="5.15947">
        <ele>574</ele>
        <time>2022-10-16T13:28:50Z</time>
      </trkpt>
      <trkpt lat="44.41785" lon="5.15946">
        <ele>574.1</ele>
        <time>2022-10-16T13:28:49Z</time>
      </trkpt>
      <trkpt lat="44.41785" lon="5.15945">
        <ele>574.2</ele>
        <time>2022-10-16T13:28:48Z</time>
      </trkpt>
      <trkpt lat="44.41784" lon="5.15943">
        <ele>574.4</ele>
        <time>2022-10-16T13:28:47Z</time>
      </trkpt>
      <trkpt lat="44.41783" lon="5.15942">
        <ele>574.4</ele>
        <time>2022-10-16T13:28:46Z</time>
      </trkpt>
      <trkpt lat="44.41783" lon="5.15941">
        <ele>574.5</ele>
        <time>2022-10-16T13:28:45Z</time>
      </trkpt>
      <trkpt lat="44.41782" lon="5.15939">
        <ele>574.6</ele>
        <time>2022-10-16T13:28:44Z</time>
      </trkpt>
      <trkpt lat="44.41781" lon="5.15938">
        <ele>574.6</ele>
        <time>2022-10-16T13:28:43Z</time>
      </trkpt>
      <trkpt lat="44.41781" lon="5.15937">
        <ele>574.7</ele>
        <time>2022-10-16T13:28:42Z</time>
      </trkpt>
      <trkpt lat="44.4178" lon="5.15935">
        <ele>574.8</ele>
        <time>2022-10-16T13:28:41Z</time>
      </trkpt>
      <trkpt lat="44.41779" lon="5.15934">
        <ele>574.8</ele>
        <time>2022-10-16T13:28:40Z</time>
      </trkpt>
      <trkpt lat="44.41779" lon="5.15933">
        <ele>574.9</ele>
        <time>2022-10-16T13:28:39Z</time>
      </trkpt>
      <trkpt lat="44.41778" lon="5.15931">
        <ele>575</ele>
        <time>2022-10-16T13:28:38Z</time>
      </trkpt>
      <trkpt lat="44.41777" lon="5.1593">
        <ele>575</ele>
        <time>2022-10-16T13:28:37Z</time>
      </trkpt>
      <trkpt lat="44.41776" lon="5.15928">
        <ele>575.1</ele>
        <time>2022-10-16T13:28:36Z</time>
      </trkpt>
      <trkpt lat="44.41776" lon="5.15927">
        <ele>575.1</ele>
        <time>2022-10-16T13:28:35Z</time>
      </trkpt>
      <trkpt lat="44.41775" lon="5.15926">
        <ele>575.1</ele>
        <time>2022-10-16T13:28:34Z</time>
      </trkpt>
      <trkpt lat="44.41774" lon="5.15924">
        <ele>575.2</ele>
        <time>2022-10-16T13:28:33Z</time>
      </trkpt>
      <trkpt lat="44.41773" lon="5.15923">
        <ele>575.2</ele>
        <time>2022-10-16T13:28:32Z</time>
      </trkpt>
      <trkpt lat="44.41773" lon="5.15922">
        <ele>575.3</ele>
        <time>2022-10-16T13:28:31Z</time>
      </trkpt>
      <trkpt lat="44.41772" lon="5.1592">
        <ele>575.3</ele>
        <time>2022-10-16T13:28:30Z</time>
      </trkpt>
      <trkpt lat="44.41771" lon="5.15919">
        <ele>575.3</ele>
        <time>2022-10-16T13:28:29Z</time>
      </trkpt>
      <trkpt lat="44.4177" lon="5.15918">
        <ele>575.3</ele>
        <time>2022-10-16T13:28:28Z</time>
      </trkpt>
      <trkpt lat="44.4177" lon="5.15917">
        <ele>575.4</ele>
        <time>2022-10-16T13:28:27Z</time>
      </trkpt>
      <trkpt lat="44.41769" lon="5.15915">
        <ele>575.5</ele>
        <time>2022-10-16T13:28:26Z</time>
      </trkpt>
      <trkpt lat="44.41768" lon="5.15914">
        <ele>575.5</ele>
        <time>2022-10-16T13:28:25Z</time>
      </trkpt>
      <trkpt lat="44.41767" lon="5.15913">
        <ele>575.5</ele>
        <time>2022-10-16T13:28:24Z</time>
      </trkpt>
      <trkpt lat="44.41767" lon="5.15912">
        <ele>575.6</ele>
        <time>2022-10-16T13:28:23Z</time>
      </trkpt>
      <trkpt lat="44.41766" lon="5.15911">
        <ele>575.6</ele>
        <time>2022-10-16T13:28:22Z</time>
      </trkpt>
      <trkpt lat="44.41765" lon="5.1591">
        <ele>575.7</ele>
        <time>2022-10-16T13:28:21Z</time>
      </trkpt>
      <trkpt lat="44.41765" lon="5.15909">
        <ele>575.8</ele>
        <time>2022-10-16T13:28:20Z</time>
      </trkpt>
      <trkpt lat="44.41764" lon="5.15908">
        <ele>575.8</ele>
        <time>2022-10-16T13:28:19Z</time>
      </trkpt>
      <trkpt lat="44.41763" lon="5.15906">
        <ele>575.9</ele>
        <time>2022-10-16T13:28:18Z</time>
      </trkpt>
      <trkpt lat="44.41763" lon="5.15905">
        <ele>576</ele>
        <time>2022-10-16T13:28:17Z</time>
      </trkpt>
      <trkpt lat="44.41762" lon="5.15904">
        <ele>576</ele>
        <time>2022-10-16T13:28:16Z</time>
      </trkpt>
      <trkpt lat="44.41762" lon="5.15903">
        <ele>576.1</ele>
        <time>2022-10-16T13:28:15Z</time>
      </trkpt>
      <trkpt lat="44.41761" lon="5.15901">
        <ele>576.3</ele>
        <time>2022-10-16T13:28:14Z</time>
      </trkpt>
      <trkpt lat="44.41761" lon="5.159">
        <ele>576.4</ele>
        <time>2022-10-16T13:28:13Z</time>
      </trkpt>
      <trkpt lat="44.4176" lon="5.15899">
        <ele>576.4</ele>
        <time>2022-10-16T13:28:12Z</time>
      </trkpt>
      <trkpt lat="44.4176" lon="5.15897">
        <ele>576.6</ele>
        <time>2022-10-16T13:28:11Z</time>
      </trkpt>
      <trkpt lat="44.41759" lon="5.15896">
        <ele>576.6</ele>
        <time>2022-10-16T13:28:10Z</time>
      </trkpt>
      <trkpt lat="44.41759" lon="5.15895">
        <ele>576.7</ele>
        <time>2022-10-16T13:28:09Z</time>
      </trkpt>
      <trkpt lat="44.41758" lon="5.15893">
        <ele>576.9</ele>
        <time>2022-10-16T13:28:08Z</time>
      </trkpt>
      <trkpt lat="44.41758" lon="5.15892">
        <ele>577</ele>
        <time>2022-10-16T13:28:07Z</time>
      </trkpt>
      <trkpt lat="44.41757" lon="5.15891">
        <ele>577</ele>
        <time>2022-10-16T13:28:06Z</time>
      </trkpt>
      <trkpt lat="44.41757" lon="5.1589">
        <ele>577.1</ele>
        <time>2022-10-16T13:28:05Z</time>
      </trkpt>
      <trkpt lat="44.41756" lon="5.15888">
        <ele>577.3</ele>
        <time>2022-10-16T13:28:04Z</time>
      </trkpt>
      <trkpt lat="44.41756" lon="5.15887">
        <ele>577.4</ele>
        <time>2022-10-16T13:28:03Z</time>
      </trkpt>
      <trkpt lat="44.41756" lon="5.15886">
        <ele>577.5</ele>
        <time>2022-10-16T13:28:02Z</time>
      </trkpt>
      <trkpt lat="44.41755" lon="5.15884">
        <ele>577.7</ele>
        <time>2022-10-16T13:28:01Z</time>
      </trkpt>
      <trkpt lat="44.41755" lon="5.15883">
        <ele>577.8</ele>
        <time>2022-10-16T13:28:00Z</time>
      </trkpt>
      <trkpt lat="44.41754" lon="5.15882">
        <ele>577.9</ele>
        <time>2022-10-16T13:27:59Z</time>
      </trkpt>
      <trkpt lat="44.41754" lon="5.1588">
        <ele>578.1</ele>
        <time>2022-10-16T13:27:58Z</time>
      </trkpt>
      <trkpt lat="44.41754" lon="5.15879">
        <ele>578.2</ele>
        <time>2022-10-16T13:27:57Z</time>
      </trkpt>
      <trkpt lat="44.41753" lon="5.15878">
        <ele>578.2</ele>
        <time>2022-10-16T13:27:56Z</time>
      </trkpt>
      <trkpt lat="44.41753" lon="5.15876">
        <ele>578.4</ele>
        <time>2022-10-16T13:27:55Z</time>
      </trkpt>
      <trkpt lat="44.41752" lon="5.15875">
        <ele>578.5</ele>
        <time>2022-10-16T13:27:54Z</time>
      </trkpt>
      <trkpt lat="44.41752" lon="5.15874">
        <ele>578.6</ele>
        <time>2022-10-16T13:27:53Z</time>
      </trkpt>
      <trkpt lat="44.41752" lon="5.15872">
        <ele>578.9</ele>
        <time>2022-10-16T13:27:52Z</time>
      </trkpt>
      <trkpt lat="44.41751" lon="5.15871">
        <ele>578.9</ele>
        <time>2022-10-16T13:27:51Z</time>
      </trkpt>
      <trkpt lat="44.41751" lon="5.1587">
        <ele>579.1</ele>
        <time>2022-10-16T13:27:50Z</time>
      </trkpt>
      <trkpt lat="44.4175" lon="5.15868">
        <ele>579.3</ele>
        <time>2022-10-16T13:27:49Z</time>
      </trkpt>
      <trkpt lat="44.4175" lon="5.15867">
        <ele>579.4</ele>
        <time>2022-10-16T13:27:48Z</time>
      </trkpt>
      <trkpt lat="44.4175" lon="5.15866">
        <ele>579.5</ele>
        <time>2022-10-16T13:27:47Z</time>
      </trkpt>
      <trkpt lat="44.41749" lon="5.15864">
        <ele>579.7</ele>
        <time>2022-10-16T13:27:46Z</time>
      </trkpt>
      <trkpt lat="44.41749" lon="5.15863">
        <ele>579.8</ele>
        <time>2022-10-16T13:27:45Z</time>
      </trkpt>
      <trkpt lat="44.41749" lon="5.15862">
        <ele>579.9</ele>
        <time>2022-10-16T13:27:44Z</time>
      </trkpt>
      <trkpt lat="44.41748" lon="5.1586">
        <ele>580.1</ele>
        <time>2022-10-16T13:27:43Z</time>
      </trkpt>
      <trkpt lat="44.41748" lon="5.15859">
        <ele>580.2</ele>
        <time>2022-10-16T13:27:42Z</time>
      </trkpt>
      <trkpt lat="44.41748" lon="5.15857">
        <ele>580.5</ele>
        <time>2022-10-16T13:27:41Z</time>
      </trkpt>
      <trkpt lat="44.41747" lon="5.15856">
        <ele>580.6</ele>
        <time>2022-10-16T13:27:40Z</time>
      </trkpt>
      <trkpt lat="44.41747" lon="5.15854">
        <ele>580.9</ele>
        <time>2022-10-16T13:27:39Z</time>
      </trkpt>
      <trkpt lat="44.41747" lon="5.15853">
        <ele>581.1</ele>
        <time>2022-10-16T13:27:38Z</time>
      </trkpt>
      <trkpt lat="44.41746" lon="5.15851">
        <ele>581.3</ele>
        <time>2022-10-16T13:27:37Z</time>
      </trkpt>
      <trkpt lat="44.41746" lon="5.1585">
        <ele>581.5</ele>
        <time>2022-10-16T13:27:36Z</time>
      </trkpt>
      <trkpt lat="44.41745" lon="5.15849">
        <ele>581.6</ele>
        <time>2022-10-16T13:27:35Z</time>
      </trkpt>
      <trkpt lat="44.41744" lon="5.15847">
        <ele>581.8</ele>
        <time>2022-10-16T13:27:34Z</time>
      </trkpt>
      <trkpt lat="44.41744" lon="5.15846">
        <ele>582</ele>
        <time>2022-10-16T13:27:33Z</time>
      </trkpt>
      <trkpt lat="44.41743" lon="5.15844">
        <ele>582.2</ele>
        <time>2022-10-16T13:27:32Z</time>
      </trkpt>
      <trkpt lat="44.41743" lon="5.15843">
        <ele>582.4</ele>
        <time>2022-10-16T13:27:31Z</time>
      </trkpt>
      <trkpt lat="44.41743" lon="5.15842">
        <ele>582.5</ele>
        <time>2022-10-16T13:27:30Z</time>
      </trkpt>
      <trkpt lat="44.41742" lon="5.1584">
        <ele>582.8</ele>
        <time>2022-10-16T13:27:29Z</time>
      </trkpt>
      <trkpt lat="44.41742" lon="5.15839">
        <ele>582.9</ele>
        <time>2022-10-16T13:27:28Z</time>
      </trkpt>
      <trkpt lat="44.41742" lon="5.15837">
        <ele>583.2</ele>
        <time>2022-10-16T13:27:27Z</time>
      </trkpt>
      <trkpt lat="44.41742" lon="5.15836">
        <ele>583.3</ele>
        <time>2022-10-16T13:27:26Z</time>
      </trkpt>
      <trkpt lat="44.41742" lon="5.15834">
        <ele>583.6</ele>
        <time>2022-10-16T13:27:25Z</time>
      </trkpt>
      <trkpt lat="44.41742" lon="5.15833">
        <ele>583.8</ele>
        <time>2022-10-16T13:27:24Z</time>
      </trkpt>
      <trkpt lat="44.41742" lon="5.15831">
        <ele>584.1</ele>
        <time>2022-10-16T13:27:23Z</time>
      </trkpt>
      <trkpt lat="44.41742" lon="5.1583">
        <ele>584.3</ele>
        <time>2022-10-16T13:27:22Z</time>
      </trkpt>
      <trkpt lat="44.41742" lon="5.15828">
        <ele>584.6</ele>
        <time>2022-10-16T13:27:21Z</time>
      </trkpt>
      <trkpt lat="44.41743" lon="5.15827">
        <ele>584.8</ele>
        <time>2022-10-16T13:27:20Z</time>
      </trkpt>
      <trkpt lat="44.41743" lon="5.15825">
        <ele>585.1</ele>
        <time>2022-10-16T13:27:19Z</time>
      </trkpt>
      <trkpt lat="44.41743" lon="5.15824">
        <ele>585.3</ele>
        <time>2022-10-16T13:27:18Z</time>
      </trkpt>
      <trkpt lat="44.41744" lon="5.15823">
        <ele>585.4</ele>
        <time>2022-10-16T13:27:17Z</time>
      </trkpt>
      <trkpt lat="44.41744" lon="5.15822">
        <ele>585.6</ele>
        <time>2022-10-16T13:27:16Z</time>
      </trkpt>
      <trkpt lat="44.41745" lon="5.15821">
        <ele>585.8</ele>
        <time>2022-10-16T13:27:15Z</time>
      </trkpt>
      <trkpt lat="44.41746" lon="5.15821">
        <ele>585.8</ele>
        <time>2022-10-16T13:27:14Z</time>
      </trkpt>
      <trkpt lat="44.41747" lon="5.1582">
        <ele>585.9</ele>
        <time>2022-10-16T13:27:13Z</time>
      </trkpt>
      <trkpt lat="44.41748" lon="5.15819">
        <ele>586.1</ele>
        <time>2022-10-16T13:27:12Z</time>
      </trkpt>
      <trkpt lat="44.41749" lon="5.15819">
        <ele>586.1</ele>
        <time>2022-10-16T13:27:11Z</time>
      </trkpt>
      <trkpt lat="44.4175" lon="5.15819">
        <ele>586.1</ele>
        <time>2022-10-16T13:27:10Z</time>
      </trkpt>
      <trkpt lat="44.41751" lon="5.15818">
        <ele>586.2</ele>
        <time>2022-10-16T13:27:09Z</time>
      </trkpt>
      <trkpt lat="44.41752" lon="5.15818">
        <ele>586.1</ele>
        <time>2022-10-16T13:27:08Z</time>
      </trkpt>
      <trkpt lat="44.41753" lon="5.15818">
        <ele>586</ele>
        <time>2022-10-16T13:27:07Z</time>
      </trkpt>
      <trkpt lat="44.41754" lon="5.15818">
        <ele>586</ele>
        <time>2022-10-16T13:27:06Z</time>
      </trkpt>
      <trkpt lat="44.41755" lon="5.15818">
        <ele>585.9</ele>
        <time>2022-10-16T13:27:05Z</time>
      </trkpt>
      <trkpt lat="44.41756" lon="5.15817">
        <ele>586</ele>
        <time>2022-10-16T13:27:04Z</time>
      </trkpt>
      <trkpt lat="44.41757" lon="5.15817">
        <ele>586</ele>
        <time>2022-10-16T13:27:03Z</time>
      </trkpt>
      <trkpt lat="44.41758" lon="5.15816">
        <ele>586</ele>
        <time>2022-10-16T13:27:02Z</time>
      </trkpt>
      <trkpt lat="44.41759" lon="5.15815">
        <ele>586.1</ele>
        <time>2022-10-16T13:27:01Z</time>
      </trkpt>
      <trkpt lat="44.4176" lon="5.15814">
        <ele>586.2</ele>
        <time>2022-10-16T13:27:00Z</time>
      </trkpt>
      <trkpt lat="44.4176" lon="5.15813">
        <ele>586.3</ele>
        <time>2022-10-16T13:26:59Z</time>
      </trkpt>
      <trkpt lat="44.41761" lon="5.15812">
        <ele>586.4</ele>
        <time>2022-10-16T13:26:58Z</time>
      </trkpt>
      <trkpt lat="44.41761" lon="5.15811">
        <ele>586.5</ele>
        <time>2022-10-16T13:26:57Z</time>
      </trkpt>
      <trkpt lat="44.41762" lon="5.15809">
        <ele>586.7</ele>
        <time>2022-10-16T13:26:56Z</time>
      </trkpt>
      <trkpt lat="44.41762" lon="5.15808">
        <ele>586.8</ele>
        <time>2022-10-16T13:26:55Z</time>
      </trkpt>
      <trkpt lat="44.41762" lon="5.15807">
        <ele>587</ele>
        <time>2022-10-16T13:26:54Z</time>
      </trkpt>
      <trkpt lat="44.41762" lon="5.15805">
        <ele>587.2</ele>
        <time>2022-10-16T13:26:53Z</time>
      </trkpt>
      <trkpt lat="44.41762" lon="5.15804">
        <ele>587.4</ele>
        <time>2022-10-16T13:26:52Z</time>
      </trkpt>
      <trkpt lat="44.41762" lon="5.15802">
        <ele>587.7</ele>
        <time>2022-10-16T13:26:51Z</time>
      </trkpt>
      <trkpt lat="44.41762" lon="5.15801">
        <ele>587.9</ele>
        <time>2022-10-16T13:26:50Z</time>
      </trkpt>
      <trkpt lat="44.41762" lon="5.158">
        <ele>588</ele>
        <time>2022-10-16T13:26:49Z</time>
      </trkpt>
      <trkpt lat="44.41761" lon="5.15799">
        <ele>588.2</ele>
        <time>2022-10-16T13:26:48Z</time>
      </trkpt>
      <trkpt lat="44.4176" lon="5.15798">
        <ele>588.5</ele>
        <time>2022-10-16T13:26:47Z</time>
      </trkpt>
      <trkpt lat="44.4176" lon="5.15797">
        <ele>588.6</ele>
        <time>2022-10-16T13:26:46Z</time>
      </trkpt>
      <trkpt lat="44.41759" lon="5.15796">
        <ele>588.8</ele>
        <time>2022-10-16T13:26:45Z</time>
      </trkpt>
      <trkpt lat="44.41758" lon="5.15795">
        <ele>589.1</ele>
        <time>2022-10-16T13:26:44Z</time>
      </trkpt>
      <trkpt lat="44.41757" lon="5.15795">
        <ele>589.1</ele>
        <time>2022-10-16T13:26:43Z</time>
      </trkpt>
      <trkpt lat="44.41756" lon="5.15794">
        <ele>589.3</ele>
        <time>2022-10-16T13:26:42Z</time>
      </trkpt>
      <trkpt lat="44.41755" lon="5.15794">
        <ele>589.4</ele>
        <time>2022-10-16T13:26:41Z</time>
      </trkpt>
      <trkpt lat="44.41754" lon="5.15793">
        <ele>589.6</ele>
        <time>2022-10-16T13:26:40Z</time>
      </trkpt>
      <trkpt lat="44.41753" lon="5.15793">
        <ele>589.6</ele>
        <time>2022-10-16T13:26:39Z</time>
      </trkpt>
      <trkpt lat="44.41753" lon="5.15792">
        <ele>589.8</ele>
        <time>2022-10-16T13:26:38Z</time>
      </trkpt>
      <trkpt lat="44.41752" lon="5.15792">
        <ele>589.8</ele>
        <time>2022-10-16T13:26:37Z</time>
      </trkpt>
      <trkpt lat="44.41751" lon="5.15791">
        <ele>590</ele>
        <time>2022-10-16T13:26:36Z</time>
      </trkpt>
      <trkpt lat="44.4175" lon="5.1579">
        <ele>590.2</ele>
        <time>2022-10-16T13:26:35Z</time>
      </trkpt>
      <trkpt lat="44.41749" lon="5.15789">
        <ele>590.4</ele>
        <time>2022-10-16T13:26:33Z</time>
      </trkpt>
      <trkpt lat="44.41748" lon="5.15788">
        <ele>590.6</ele>
        <time>2022-10-16T13:26:32Z</time>
      </trkpt>
      <trkpt lat="44.41747" lon="5.15787">
        <ele>590.9</ele>
        <time>2022-10-16T13:26:31Z</time>
      </trkpt>
      <trkpt lat="44.41746" lon="5.15786">
        <ele>591.1</ele>
        <time>2022-10-16T13:26:29Z</time>
      </trkpt>
      <trkpt lat="44.41745" lon="5.15785">
        <ele>591.3</ele>
        <time>2022-10-16T13:26:28Z</time>
      </trkpt>
      <trkpt lat="44.41745" lon="5.15784">
        <ele>591.4</ele>
        <time>2022-10-16T13:26:27Z</time>
      </trkpt>
      <trkpt lat="44.41744" lon="5.15783">
        <ele>591.6</ele>
        <time>2022-10-16T13:26:26Z</time>
      </trkpt>
      <trkpt lat="44.41744" lon="5.15781">
        <ele>591.9</ele>
        <time>2022-10-16T13:26:25Z</time>
      </trkpt>
      <trkpt lat="44.41743" lon="5.15781">
        <ele>592</ele>
        <time>2022-10-16T13:26:24Z</time>
      </trkpt>
      <trkpt lat="44.41743" lon="5.1578">
        <ele>592.2</ele>
        <time>2022-10-16T13:26:23Z</time>
      </trkpt>
      <trkpt lat="44.41742" lon="5.15779">
        <ele>592.4</ele>
        <time>2022-10-16T13:26:22Z</time>
      </trkpt>
      <trkpt lat="44.41741" lon="5.15778">
        <ele>592.6</ele>
        <time>2022-10-16T13:26:21Z</time>
      </trkpt>
      <trkpt lat="44.41741" lon="5.15777">
        <ele>592.8</ele>
        <time>2022-10-16T13:26:20Z</time>
      </trkpt>
      <trkpt lat="44.4174" lon="5.15776">
        <ele>593</ele>
        <time>2022-10-16T13:26:19Z</time>
      </trkpt>
      <trkpt lat="44.4174" lon="5.15775">
        <ele>593.1</ele>
        <time>2022-10-16T13:26:18Z</time>
      </trkpt>
      <trkpt lat="44.41739" lon="5.15774">
        <ele>593.3</ele>
        <time>2022-10-16T13:26:17Z</time>
      </trkpt>
      <trkpt lat="44.41739" lon="5.15773">
        <ele>593.5</ele>
        <time>2022-10-16T13:26:16Z</time>
      </trkpt>
      <trkpt lat="44.41738" lon="5.15772">
        <ele>593.7</ele>
        <time>2022-10-16T13:26:15Z</time>
      </trkpt>
      <trkpt lat="44.41738" lon="5.1577">
        <ele>594</ele>
        <time>2022-10-16T13:26:14Z</time>
      </trkpt>
      <trkpt lat="44.41737" lon="5.15769">
        <ele>594.2</ele>
        <time>2022-10-16T13:26:13Z</time>
      </trkpt>
      <trkpt lat="44.41737" lon="5.15768">
        <ele>594.3</ele>
        <time>2022-10-16T13:26:12Z</time>
      </trkpt>
      <trkpt lat="44.41736" lon="5.15767">
        <ele>594.6</ele>
        <time>2022-10-16T13:26:11Z</time>
      </trkpt>
      <trkpt lat="44.41736" lon="5.15766">
        <ele>594.7</ele>
        <time>2022-10-16T13:26:10Z</time>
      </trkpt>
      <trkpt lat="44.41735" lon="5.15764">
        <ele>595.1</ele>
        <time>2022-10-16T13:26:09Z</time>
      </trkpt>
      <trkpt lat="44.41735" lon="5.15763">
        <ele>595.2</ele>
        <time>2022-10-16T13:26:08Z</time>
      </trkpt>
      <trkpt lat="44.41734" lon="5.15762">
        <ele>595.4</ele>
        <time>2022-10-16T13:26:07Z</time>
      </trkpt>
      <trkpt lat="44.41734" lon="5.15761">
        <ele>595.6</ele>
        <time>2022-10-16T13:26:06Z</time>
      </trkpt>
      <trkpt lat="44.41733" lon="5.15759">
        <ele>595.9</ele>
        <time>2022-10-16T13:26:05Z</time>
      </trkpt>
      <trkpt lat="44.41733" lon="5.15758">
        <ele>596.1</ele>
        <time>2022-10-16T13:26:04Z</time>
      </trkpt>
      <trkpt lat="44.41732" lon="5.15757">
        <ele>596.3</ele>
        <time>2022-10-16T13:26:03Z</time>
      </trkpt>
      <trkpt lat="44.41732" lon="5.15756">
        <ele>596.4</ele>
        <time>2022-10-16T13:26:02Z</time>
      </trkpt>
      <trkpt lat="44.41731" lon="5.15755">
        <ele>596.6</ele>
        <time>2022-10-16T13:26:01Z</time>
      </trkpt>
      <trkpt lat="44.41731" lon="5.15754">
        <ele>596.8</ele>
        <time>2022-10-16T13:26:00Z</time>
      </trkpt>
      <trkpt lat="44.4173" lon="5.15753">
        <ele>597</ele>
        <time>2022-10-16T13:25:59Z</time>
      </trkpt>
      <trkpt lat="44.4173" lon="5.15752">
        <ele>597.2</ele>
        <time>2022-10-16T13:25:58Z</time>
      </trkpt>
      <trkpt lat="44.41729" lon="5.15751">
        <ele>597.4</ele>
        <time>2022-10-16T13:25:57Z</time>
      </trkpt>
      <trkpt lat="44.41729" lon="5.1575">
        <ele>597.5</ele>
        <time>2022-10-16T13:25:56Z</time>
      </trkpt>
      <trkpt lat="44.41728" lon="5.15748">
        <ele>597.9</ele>
        <time>2022-10-16T13:25:55Z</time>
      </trkpt>
      <trkpt lat="44.41728" lon="5.15747">
        <ele>598.1</ele>
        <time>2022-10-16T13:25:54Z</time>
      </trkpt>
      <trkpt lat="44.41727" lon="5.15746">
        <ele>598.4</ele>
        <time>2022-10-16T13:25:53Z</time>
      </trkpt>
      <trkpt lat="44.41726" lon="5.15745">
        <ele>598.6</ele>
        <time>2022-10-16T13:25:52Z</time>
      </trkpt>
      <trkpt lat="44.41726" lon="5.15744">
        <ele>598.8</ele>
        <time>2022-10-16T13:25:51Z</time>
      </trkpt>
      <trkpt lat="44.41725" lon="5.15744">
        <ele>598.9</ele>
        <time>2022-10-16T13:25:50Z</time>
      </trkpt>
      <trkpt lat="44.41724" lon="5.15743">
        <ele>599.1</ele>
        <time>2022-10-16T13:25:49Z</time>
      </trkpt>
      <trkpt lat="44.41724" lon="5.15742">
        <ele>599.3</ele>
        <time>2022-10-16T13:25:48Z</time>
      </trkpt>
      <trkpt lat="44.41723" lon="5.15741">
        <ele>599.6</ele>
        <time>2022-10-16T13:25:47Z</time>
      </trkpt>
      <trkpt lat="44.41722" lon="5.1574">
        <ele>599.8</ele>
        <time>2022-10-16T13:25:45Z</time>
      </trkpt>
      <trkpt lat="44.41721" lon="5.15739">
        <ele>600.1</ele>
        <time>2022-10-16T13:25:44Z</time>
      </trkpt>
      <trkpt lat="44.4172" lon="5.15738">
        <ele>600.4</ele>
        <time>2022-10-16T13:25:42Z</time>
      </trkpt>
      <trkpt lat="44.41719" lon="5.15737">
        <ele>600.7</ele>
        <time>2022-10-16T13:25:40Z</time>
      </trkpt>
      <trkpt lat="44.41718" lon="5.15737">
        <ele>600.9</ele>
        <time>2022-10-16T13:25:39Z</time>
      </trkpt>
      <trkpt lat="44.41718" lon="5.15736">
        <ele>601.1</ele>
        <time>2022-10-16T13:25:37Z</time>
      </trkpt>
      <trkpt lat="44.41717" lon="5.15736">
        <ele>601.2</ele>
        <time>2022-10-16T13:25:36Z</time>
      </trkpt>
      <trkpt lat="44.41718" lon="5.15734">
        <ele>601.4</ele>
        <time>2022-10-16T13:25:29Z</time>
      </trkpt>
      <trkpt lat="44.41718" lon="5.15733">
        <ele>601.6</ele>
        <time>2022-10-16T13:25:28Z</time>
      </trkpt>
      <trkpt lat="44.41719" lon="5.15732">
        <ele>601.7</ele>
        <time>2022-10-16T13:25:26Z</time>
      </trkpt>
      <trkpt lat="44.4172" lon="5.15731">
        <ele>601.7</ele>
        <time>2022-10-16T13:25:25Z</time>
      </trkpt>
      <trkpt lat="44.4172" lon="5.1573">
        <ele>601.9</ele>
        <time>2022-10-16T13:25:24Z</time>
      </trkpt>
      <trkpt lat="44.41721" lon="5.15729">
        <ele>601.9</ele>
        <time>2022-10-16T13:25:23Z</time>
      </trkpt>
      <trkpt lat="44.41722" lon="5.15728">
        <ele>602</ele>
        <time>2022-10-16T13:25:22Z</time>
      </trkpt>
      <trkpt lat="44.41722" lon="5.15727">
        <ele>602.2</ele>
        <time>2022-10-16T13:25:21Z</time>
      </trkpt>
      <trkpt lat="44.41723" lon="5.15726">
        <ele>602.3</ele>
        <time>2022-10-16T13:25:20Z</time>
      </trkpt>
      <trkpt lat="44.41724" lon="5.15725">
        <ele>602.4</ele>
        <time>2022-10-16T13:25:19Z</time>
      </trkpt>
      <trkpt lat="44.41725" lon="5.15724">
        <ele>602.5</ele>
        <time>2022-10-16T13:25:18Z</time>
      </trkpt>
      <trkpt lat="44.41725" lon="5.15723">
        <ele>602.7</ele>
        <time>2022-10-16T13:25:17Z</time>
      </trkpt>
      <trkpt lat="44.41726" lon="5.15722">
        <ele>602.8</ele>
        <time>2022-10-16T13:25:16Z</time>
      </trkpt>
      <trkpt lat="44.41727" lon="5.15721">
        <ele>602.8</ele>
        <time>2022-10-16T13:25:15Z</time>
      </trkpt>
      <trkpt lat="44.41727" lon="5.1572">
        <ele>603</ele>
        <time>2022-10-16T13:25:14Z</time>
      </trkpt>
      <trkpt lat="44.41728" lon="5.15719">
        <ele>603</ele>
        <time>2022-10-16T13:25:13Z</time>
      </trkpt>
      <trkpt lat="44.41729" lon="5.15718">
        <ele>603.1</ele>
        <time>2022-10-16T13:25:12Z</time>
      </trkpt>
      <trkpt lat="44.4173" lon="5.15716">
        <ele>603.3</ele>
        <time>2022-10-16T13:25:11Z</time>
      </trkpt>
      <trkpt lat="44.41731" lon="5.15715">
        <ele>603.4</ele>
        <time>2022-10-16T13:25:10Z</time>
      </trkpt>
      <trkpt lat="44.41732" lon="5.15714">
        <ele>603.5</ele>
        <time>2022-10-16T13:25:09Z</time>
      </trkpt>
      <trkpt lat="44.41733" lon="5.15712">
        <ele>603.7</ele>
        <time>2022-10-16T13:25:08Z</time>
      </trkpt>
      <trkpt lat="44.41733" lon="5.1571">
        <ele>604</ele>
        <time>2022-10-16T13:25:07Z</time>
      </trkpt>
      <trkpt lat="44.41734" lon="5.15709">
        <ele>604.1</ele>
        <time>2022-10-16T13:25:06Z</time>
      </trkpt>
      <trkpt lat="44.41734" lon="5.15707">
        <ele>604.3</ele>
        <time>2022-10-16T13:25:05Z</time>
      </trkpt>
      <trkpt lat="44.41734" lon="5.15705">
        <ele>604.6</ele>
        <time>2022-10-16T13:25:04Z</time>
      </trkpt>
      <trkpt lat="44.41734" lon="5.15704">
        <ele>604.8</ele>
        <time>2022-10-16T13:25:03Z</time>
      </trkpt>
      <trkpt lat="44.41734" lon="5.15702">
        <ele>605.1</ele>
        <time>2022-10-16T13:25:02Z</time>
      </trkpt>
      <trkpt lat="44.41733" lon="5.157">
        <ele>605.4</ele>
        <time>2022-10-16T13:25:01Z</time>
      </trkpt>
      <trkpt lat="44.41733" lon="5.15699">
        <ele>605.6</ele>
        <time>2022-10-16T13:25:00Z</time>
      </trkpt>
      <trkpt lat="44.41732" lon="5.15698">
        <ele>605.8</ele>
        <time>2022-10-16T13:24:59Z</time>
      </trkpt>
      <trkpt lat="44.41731" lon="5.15697">
        <ele>606</ele>
        <time>2022-10-16T13:24:57Z</time>
      </trkpt>
      <trkpt lat="44.4173" lon="5.15697">
        <ele>606.1</ele>
        <time>2022-10-16T13:24:56Z</time>
      </trkpt>
      <trkpt lat="44.41729" lon="5.15697">
        <ele>606.1</ele>
        <time>2022-10-16T13:24:55Z</time>
      </trkpt>
      <trkpt lat="44.41728" lon="5.15698">
        <ele>606.1</ele>
        <time>2022-10-16T13:24:54Z</time>
      </trkpt>
      <trkpt lat="44.41727" lon="5.15698">
        <ele>606.1</ele>
        <time>2022-10-16T13:24:53Z</time>
      </trkpt>
      <trkpt lat="44.41726" lon="5.15699">
        <ele>606.1</ele>
        <time>2022-10-16T13:24:52Z</time>
      </trkpt>
      <trkpt lat="44.41725" lon="5.157">
        <ele>606</ele>
        <time>2022-10-16T13:24:51Z</time>
      </trkpt>
      <trkpt lat="44.41724" lon="5.15701">
        <ele>605.9</ele>
        <time>2022-10-16T13:24:50Z</time>
      </trkpt>
      <trkpt lat="44.41723" lon="5.15702">
        <ele>605.9</ele>
        <time>2022-10-16T13:24:49Z</time>
      </trkpt>
      <trkpt lat="44.41722" lon="5.15702">
        <ele>605.9</ele>
        <time>2022-10-16T13:24:48Z</time>
      </trkpt>
      <trkpt lat="44.41721" lon="5.15703">
        <ele>605.9</ele>
        <time>2022-10-16T13:24:46Z</time>
      </trkpt>
      <trkpt lat="44.4172" lon="5.15704">
        <ele>605.9</ele>
        <time>2022-10-16T13:24:45Z</time>
      </trkpt>
      <trkpt lat="44.41719" lon="5.15704">
        <ele>606</ele>
        <time>2022-10-16T13:24:43Z</time>
      </trkpt>
      <trkpt lat="44.41718" lon="5.15705">
        <ele>606</ele>
        <time>2022-10-16T13:24:42Z</time>
      </trkpt>
      <trkpt lat="44.41717" lon="5.15705">
        <ele>606.1</ele>
        <time>2022-10-16T13:24:41Z</time>
      </trkpt>
      <trkpt lat="44.41716" lon="5.15705">
        <ele>606.2</ele>
        <time>2022-10-16T13:24:40Z</time>
      </trkpt>
      <trkpt lat="44.41715" lon="5.15705">
        <ele>606.4</ele>
        <time>2022-10-16T13:24:39Z</time>
      </trkpt>
      <trkpt lat="44.41714" lon="5.15705">
        <ele>606.5</ele>
        <time>2022-10-16T13:24:38Z</time>
      </trkpt>
      <trkpt lat="44.41713" lon="5.15705">
        <ele>606.6</ele>
        <time>2022-10-16T13:24:36Z</time>
      </trkpt>
      <trkpt lat="44.41712" lon="5.15705">
        <ele>606.7</ele>
        <time>2022-10-16T13:24:35Z</time>
      </trkpt>
      <trkpt lat="44.41711" lon="5.15705">
        <ele>606.8</ele>
        <time>2022-10-16T13:24:34Z</time>
      </trkpt>
      <trkpt lat="44.41711" lon="5.15706">
        <ele>606.7</ele>
        <time>2022-10-16T13:24:33Z</time>
      </trkpt>
      <trkpt lat="44.4171" lon="5.15706">
        <ele>606.8</ele>
        <time>2022-10-16T13:24:31Z</time>
      </trkpt>
      <trkpt lat="44.41709" lon="5.15706">
        <ele>607</ele>
        <time>2022-10-16T13:24:30Z</time>
      </trkpt>
      <trkpt lat="44.41708" lon="5.15707">
        <ele>607</ele>
        <time>2022-10-16T13:24:28Z</time>
      </trkpt>
      <trkpt lat="44.41707" lon="5.15707">
        <ele>607.1</ele>
        <time>2022-10-16T13:24:27Z</time>
      </trkpt>
      <trkpt lat="44.41706" lon="5.15707">
        <ele>607.2</ele>
        <time>2022-10-16T13:24:26Z</time>
      </trkpt>
      <trkpt lat="44.41705" lon="5.15707">
        <ele>607.3</ele>
        <time>2022-10-16T13:24:25Z</time>
      </trkpt>
      <trkpt lat="44.41704" lon="5.15707">
        <ele>607.5</ele>
        <time>2022-10-16T13:24:24Z</time>
      </trkpt>
      <trkpt lat="44.41702" lon="5.15707">
        <ele>607.7</ele>
        <time>2022-10-16T13:24:23Z</time>
      </trkpt>
      <trkpt lat="44.41701" lon="5.15707">
        <ele>607.8</ele>
        <time>2022-10-16T13:24:22Z</time>
      </trkpt>
      <trkpt lat="44.417" lon="5.15707">
        <ele>608</ele>
        <time>2022-10-16T13:24:21Z</time>
      </trkpt>
      <trkpt lat="44.41699" lon="5.15707">
        <ele>608.1</ele>
        <time>2022-10-16T13:24:20Z</time>
      </trkpt>
      <trkpt lat="44.41698" lon="5.15708">
        <ele>608.1</ele>
        <time>2022-10-16T13:24:19Z</time>
      </trkpt>
      <trkpt lat="44.41697" lon="5.15708">
        <ele>608.2</ele>
        <time>2022-10-16T13:24:18Z</time>
      </trkpt>
      <trkpt lat="44.41696" lon="5.15709">
        <ele>608.2</ele>
        <time>2022-10-16T13:24:17Z</time>
      </trkpt>
      <trkpt lat="44.41695" lon="5.1571">
        <ele>608.2</ele>
        <time>2022-10-16T13:24:15Z</time>
      </trkpt>
      <trkpt lat="44.41694" lon="5.15711">
        <ele>608.3</ele>
        <time>2022-10-16T13:24:14Z</time>
      </trkpt>
      <trkpt lat="44.41693" lon="5.15711">
        <ele>608.5</ele>
        <time>2022-10-16T13:24:13Z</time>
      </trkpt>
      <trkpt lat="44.41692" lon="5.15711">
        <ele>608.8</ele>
        <time>2022-10-16T13:24:12Z</time>
      </trkpt>
      <trkpt lat="44.4169" lon="5.15712">
        <ele>609.1</ele>
        <time>2022-10-16T13:24:11Z</time>
      </trkpt>
      <trkpt lat="44.41689" lon="5.15712">
        <ele>609.3</ele>
        <time>2022-10-16T13:24:04Z</time>
      </trkpt>
      <trkpt lat="44.41688" lon="5.15712">
        <ele>609.5</ele>
        <time>2022-10-16T13:24:03Z</time>
      </trkpt>
      <trkpt lat="44.41687" lon="5.15713">
        <ele>609.6</ele>
        <time>2022-10-16T13:24:02Z</time>
      </trkpt>
      <trkpt lat="44.41686" lon="5.15713">
        <ele>609.8</ele>
        <time>2022-10-16T13:24:01Z</time>
      </trkpt>
      <trkpt lat="44.41686" lon="5.15714">
        <ele>609.7</ele>
        <time>2022-10-16T13:24:00Z</time>
      </trkpt>
      <trkpt lat="44.41685" lon="5.15714">
        <ele>609.9</ele>
        <time>2022-10-16T13:23:59Z</time>
      </trkpt>
      <trkpt lat="44.41684" lon="5.15714">
        <ele>610.1</ele>
        <time>2022-10-16T13:23:58Z</time>
      </trkpt>
      <trkpt lat="44.41683" lon="5.15715">
        <ele>610.2</ele>
        <time>2022-10-16T13:23:57Z</time>
      </trkpt>
      <trkpt lat="44.41682" lon="5.15715">
        <ele>610.4</ele>
        <time>2022-10-16T13:23:56Z</time>
      </trkpt>
      <trkpt lat="44.41681" lon="5.15715">
        <ele>610.6</ele>
        <time>2022-10-16T13:23:55Z</time>
      </trkpt>
      <trkpt lat="44.4168" lon="5.15716">
        <ele>610.6</ele>
        <time>2022-10-16T13:23:54Z</time>
      </trkpt>
      <trkpt lat="44.41679" lon="5.15716">
        <ele>610.8</ele>
        <time>2022-10-16T13:23:53Z</time>
      </trkpt>
      <trkpt lat="44.41678" lon="5.15717">
        <ele>610.9</ele>
        <time>2022-10-16T13:23:52Z</time>
      </trkpt>
      <trkpt lat="44.41677" lon="5.15717">
        <ele>611.1</ele>
        <time>2022-10-16T13:23:51Z</time>
      </trkpt>
      <trkpt lat="44.41675" lon="5.15718">
        <ele>611.3</ele>
        <time>2022-10-16T13:23:50Z</time>
      </trkpt>
      <trkpt lat="44.41674" lon="5.15719">
        <ele>611.3</ele>
        <time>2022-10-16T13:23:49Z</time>
      </trkpt>
      <trkpt lat="44.41672" lon="5.15719">
        <ele>611.7</ele>
        <time>2022-10-16T13:23:48Z</time>
      </trkpt>
      <trkpt lat="44.41671" lon="5.1572">
        <ele>611.7</ele>
        <time>2022-10-16T13:23:47Z</time>
      </trkpt>
      <trkpt lat="44.4167" lon="5.15721">
        <ele>611.6</ele>
        <time>2022-10-16T13:23:46Z</time>
      </trkpt>
      <trkpt lat="44.41669" lon="5.15721">
        <ele>611.8</ele>
        <time>2022-10-16T13:23:45Z</time>
      </trkpt>
      <trkpt lat="44.41668" lon="5.15722">
        <ele>611.8</ele>
        <time>2022-10-16T13:23:44Z</time>
      </trkpt>
      <trkpt lat="44.41667" lon="5.15723">
        <ele>611.7</ele>
        <time>2022-10-16T13:23:43Z</time>
      </trkpt>
      <trkpt lat="44.41666" lon="5.15723">
        <ele>611.9</ele>
        <time>2022-10-16T13:23:42Z</time>
      </trkpt>
      <trkpt lat="44.41665" lon="5.15724">
        <ele>611.9</ele>
        <time>2022-10-16T13:23:40Z</time>
      </trkpt>
      <trkpt lat="44.41664" lon="5.15724">
        <ele>612.1</ele>
        <time>2022-10-16T13:23:39Z</time>
      </trkpt>
      <trkpt lat="44.41664" lon="5.15725">
        <ele>611.9</ele>
        <time>2022-10-16T13:23:38Z</time>
      </trkpt>
      <trkpt lat="44.41663" lon="5.15725">
        <ele>612.1</ele>
        <time>2022-10-16T13:23:36Z</time>
      </trkpt>
      <trkpt lat="44.41662" lon="5.15726">
        <ele>612.1</ele>
        <time>2022-10-16T13:23:35Z</time>
      </trkpt>
      <trkpt lat="44.41661" lon="5.15726">
        <ele>612.3</ele>
        <time>2022-10-16T13:23:34Z</time>
      </trkpt>
      <trkpt lat="44.4166" lon="5.15726">
        <ele>612.5</ele>
        <time>2022-10-16T13:23:31Z</time>
      </trkpt>
      <trkpt lat="44.41659" lon="5.15726">
        <ele>612.7</ele>
        <time>2022-10-16T13:23:29Z</time>
      </trkpt>
      <trkpt lat="44.41658" lon="5.15726">
        <ele>613</ele>
        <time>2022-10-16T13:23:27Z</time>
      </trkpt>
      <trkpt lat="44.41657" lon="5.15726">
        <ele>613.2</ele>
        <time>2022-10-16T13:23:26Z</time>
      </trkpt>
      <trkpt lat="44.41656" lon="5.15726">
        <ele>613.4</ele>
        <time>2022-10-16T13:23:25Z</time>
      </trkpt>
      <trkpt lat="44.41655" lon="5.15727">
        <ele>613.4</ele>
        <time>2022-10-16T13:23:24Z</time>
      </trkpt>
      <trkpt lat="44.41654" lon="5.15727">
        <ele>613.6</ele>
        <time>2022-10-16T13:23:23Z</time>
      </trkpt>
      <trkpt lat="44.41653" lon="5.15727">
        <ele>613.8</ele>
        <time>2022-10-16T13:23:22Z</time>
      </trkpt>
      <trkpt lat="44.41653" lon="5.15728">
        <ele>613.6</ele>
        <time>2022-10-16T13:23:21Z</time>
      </trkpt>
      <trkpt lat="44.41651" lon="5.15728">
        <ele>614</ele>
        <time>2022-10-16T13:23:20Z</time>
      </trkpt>
      <trkpt lat="44.4165" lon="5.15728">
        <ele>614.3</ele>
        <time>2022-10-16T13:23:19Z</time>
      </trkpt>
      <trkpt lat="44.41649" lon="5.15729">
        <ele>614.3</ele>
        <time>2022-10-16T13:23:18Z</time>
      </trkpt>
      <trkpt lat="44.41648" lon="5.15729">
        <ele>614.5</ele>
        <time>2022-10-16T13:23:17Z</time>
      </trkpt>
      <trkpt lat="44.41647" lon="5.15729">
        <ele>614.7</ele>
        <time>2022-10-16T13:23:16Z</time>
      </trkpt>
      <trkpt lat="44.41645" lon="5.1573">
        <ele>614.9</ele>
        <time>2022-10-16T13:23:15Z</time>
      </trkpt>
      <trkpt lat="44.41644" lon="5.1573">
        <ele>615.2</ele>
        <time>2022-10-16T13:23:14Z</time>
      </trkpt>
      <trkpt lat="44.41643" lon="5.15731">
        <ele>615.2</ele>
        <time>2022-10-16T13:23:13Z</time>
      </trkpt>
      <trkpt lat="44.41642" lon="5.15731">
        <ele>615.4</ele>
        <time>2022-10-16T13:23:12Z</time>
      </trkpt>
      <trkpt lat="44.41641" lon="5.15732">
        <ele>615.4</ele>
        <time>2022-10-16T13:23:11Z</time>
      </trkpt>
      <trkpt lat="44.4164" lon="5.15732">
        <ele>615.6</ele>
        <time>2022-10-16T13:23:10Z</time>
      </trkpt>
      <trkpt lat="44.41639" lon="5.15732">
        <ele>615.9</ele>
        <time>2022-10-16T13:23:09Z</time>
      </trkpt>
      <trkpt lat="44.41638" lon="5.15733">
        <ele>615.7</ele>
        <time>2022-10-16T13:23:08Z</time>
      </trkpt>
      <trkpt lat="44.41637" lon="5.15733">
        <ele>615.8</ele>
        <time>2022-10-16T13:23:07Z</time>
      </trkpt>
      <trkpt lat="44.41637" lon="5.15734">
        <ele>615.6</ele>
        <time>2022-10-16T13:23:06Z</time>
      </trkpt>
      <trkpt lat="44.41636" lon="5.15734">
        <ele>615.7</ele>
        <time>2022-10-16T13:23:05Z</time>
      </trkpt>
      <trkpt lat="44.41635" lon="5.15735">
        <ele>615.6</ele>
        <time>2022-10-16T13:23:03Z</time>
      </trkpt>
      <trkpt lat="44.41635" lon="5.15736">
        <ele>615.4</ele>
        <time>2022-10-16T13:23:02Z</time>
      </trkpt>
      <trkpt lat="44.41634" lon="5.15736">
        <ele>615.5</ele>
        <time>2022-10-16T13:23:01Z</time>
      </trkpt>
      <trkpt lat="44.41635" lon="5.15736">
        <ele>615.4</ele>
        <time>2022-10-16T13:22:48Z</time>
      </trkpt>
      <trkpt lat="44.41636" lon="5.15736">
        <ele>615.3</ele>
        <time>2022-10-16T13:22:47Z</time>
      </trkpt>
      <trkpt lat="44.41637" lon="5.15735">
        <ele>615.4</ele>
        <time>2022-10-16T13:22:46Z</time>
      </trkpt>
      <trkpt lat="44.41639" lon="5.15734">
        <ele>615.4</ele>
        <time>2022-10-16T13:16:20Z</time>
      </trkpt>
      <trkpt lat="44.4164" lon="5.15734">
        <ele>615.2</ele>
        <time>2022-10-16T13:16:19Z</time>
      </trkpt>
      <trkpt lat="44.41641" lon="5.15734">
        <ele>615</ele>
        <time>2022-10-16T13:16:18Z</time>
      </trkpt>
      <trkpt lat="44.41641" lon="5.15733">
        <ele>615.2</ele>
        <time>2022-10-16T13:16:17Z</time>
      </trkpt>
      <trkpt lat="44.41642" lon="5.15733">
        <ele>615</ele>
        <time>2022-10-16T13:16:14Z</time>
      </trkpt>
      <trkpt lat="44.41643" lon="5.15733">
        <ele>614.7</ele>
        <time>2022-10-16T13:16:13Z</time>
      </trkpt>
      <trkpt lat="44.41642" lon="5.15733">
        <ele>615</ele>
        <time>2022-10-16T13:16:12Z</time>
      </trkpt>
      <trkpt lat="44.41642" lon="5.15734">
        <ele>614.7</ele>
        <time>2022-10-16T13:16:11Z</time>
      </trkpt>
      <trkpt lat="44.41641" lon="5.15734">
        <ele>615</ele>
        <time>2022-10-16T13:14:48Z</time>
      </trkpt>
      <trkpt lat="44.4164" lon="5.15734">
        <ele>615.2</ele>
        <time>2022-10-16T13:14:46Z</time>
      </trkpt>
      <trkpt lat="44.41639" lon="5.15734">
        <ele>615.4</ele>
        <time>2022-10-16T13:14:45Z</time>
      </trkpt>
      <trkpt lat="44.41638" lon="5.15734">
        <ele>615.5</ele>
        <time>2022-10-16T13:14:44Z</time>
      </trkpt>
      <trkpt lat="44.41638" lon="5.15733">
        <ele>615.7</ele>
        <time>2022-10-16T13:14:07Z</time>
      </trkpt>
      <trkpt lat="44.41638" lon="5.15732">
        <ele>616</ele>
        <time>2022-10-16T13:14:06Z</time>
      </trkpt>
      <trkpt lat="44.41639" lon="5.15731">
        <ele>616.1</ele>
        <time>2022-10-16T13:14:05Z</time>
      </trkpt>
      <trkpt lat="44.4164" lon="5.1573">
        <ele>616.1</ele>
        <time>2022-10-16T13:13:58Z</time>
      </trkpt>
      <trkpt lat="44.4164" lon="5.15729">
        <ele>616.3</ele>
        <time>2022-10-16T13:13:57Z</time>
      </trkpt>
      <trkpt lat="44.41641" lon="5.15729">
        <ele>616.1</ele>
        <time>2022-10-16T13:13:56Z</time>
      </trkpt>
      <trkpt lat="44.41641" lon="5.15728">
        <ele>616.3</ele>
        <time>2022-10-16T13:13:55Z</time>
      </trkpt>
      <trkpt lat="44.41642" lon="5.15727">
        <ele>616.3</ele>
        <time>2022-10-16T13:13:54Z</time>
      </trkpt>
      <trkpt lat="44.41642" lon="5.15726">
        <ele>616.5</ele>
        <time>2022-10-16T13:13:53Z</time>
      </trkpt>
      <trkpt lat="44.41643" lon="5.15726">
        <ele>616.3</ele>
        <time>2022-10-16T13:13:52Z</time>
      </trkpt>
      <trkpt lat="44.41643" lon="5.15725">
        <ele>616.5</ele>
        <time>2022-10-16T13:13:51Z</time>
      </trkpt>
      <trkpt lat="44.41644" lon="5.15724">
        <ele>616.5</ele>
        <time>2022-10-16T13:13:49Z</time>
      </trkpt>
      <trkpt lat="44.41644" lon="5.15723">
        <ele>616.7</ele>
        <time>2022-10-16T13:13:48Z</time>
      </trkpt>
      <trkpt lat="44.41645" lon="5.15722">
        <ele>616.7</ele>
        <time>2022-10-16T13:13:47Z</time>
      </trkpt>
      <trkpt lat="44.41645" lon="5.15721">
        <ele>616.9</ele>
        <time>2022-10-16T13:13:46Z</time>
      </trkpt>
      <trkpt lat="44.41646" lon="5.1572">
        <ele>616.8</ele>
        <time>2022-10-16T13:13:45Z</time>
      </trkpt>
      <trkpt lat="44.41647" lon="5.15719">
        <ele>616.8</ele>
        <time>2022-10-16T13:13:44Z</time>
      </trkpt>
      <trkpt lat="44.41647" lon="5.15718">
        <ele>616.9</ele>
        <time>2022-10-16T13:13:43Z</time>
      </trkpt>
      <trkpt lat="44.41648" lon="5.15717">
        <ele>616.9</ele>
        <time>2022-10-16T13:13:42Z</time>
      </trkpt>
      <trkpt lat="44.41648" lon="5.15716">
        <ele>617.1</ele>
        <time>2022-10-16T13:13:41Z</time>
      </trkpt>
      <trkpt lat="44.41649" lon="5.15715">
        <ele>617</ele>
        <time>2022-10-16T13:13:40Z</time>
      </trkpt>
      <trkpt lat="44.41649" lon="5.15714">
        <ele>617.2</ele>
        <time>2022-10-16T13:13:39Z</time>
      </trkpt>
      <trkpt lat="44.4165" lon="5.15713">
        <ele>617.2</ele>
        <time>2022-10-16T13:13:38Z</time>
      </trkpt>
      <trkpt lat="44.41651" lon="5.15712">
        <ele>617.2</ele>
        <time>2022-10-16T13:13:37Z</time>
      </trkpt>
      <trkpt lat="44.41651" lon="5.15711">
        <ele>617.4</ele>
        <time>2022-10-16T13:13:36Z</time>
      </trkpt>
      <trkpt lat="44.41651" lon="5.15709">
        <ele>617.7</ele>
        <time>2022-10-16T13:13:35Z</time>
      </trkpt>
      <trkpt lat="44.41652" lon="5.15708">
        <ele>617.7</ele>
        <time>2022-10-16T13:13:34Z</time>
      </trkpt>
      <trkpt lat="44.41652" lon="5.15706">
        <ele>618.1</ele>
        <time>2022-10-16T13:13:33Z</time>
      </trkpt>
      <trkpt lat="44.41652" lon="5.15705">
        <ele>618.2</ele>
        <time>2022-10-16T13:13:32Z</time>
      </trkpt>
      <trkpt lat="44.41653" lon="5.15704">
        <ele>618.2</ele>
        <time>2022-10-16T13:13:31Z</time>
      </trkpt>
      <trkpt lat="44.41653" lon="5.15703">
        <ele>618.4</ele>
        <time>2022-10-16T13:13:30Z</time>
      </trkpt>
      <trkpt lat="44.41654" lon="5.15702">
        <ele>618.4</ele>
        <time>2022-10-16T13:13:29Z</time>
      </trkpt>
      <trkpt lat="44.41655" lon="5.15701">
        <ele>618.5</ele>
        <time>2022-10-16T13:13:28Z</time>
      </trkpt>
      <trkpt lat="44.41655" lon="5.15699">
        <ele>618.8</ele>
        <time>2022-10-16T13:13:27Z</time>
      </trkpt>
      <trkpt lat="44.41655" lon="5.15698">
        <ele>619</ele>
        <time>2022-10-16T13:13:26Z</time>
      </trkpt>
      <trkpt lat="44.41656" lon="5.15697">
        <ele>619.1</ele>
        <time>2022-10-16T13:13:25Z</time>
      </trkpt>
      <trkpt lat="44.41656" lon="5.15695">
        <ele>619.4</ele>
        <time>2022-10-16T13:13:24Z</time>
      </trkpt>
      <trkpt lat="44.41656" lon="5.15694">
        <ele>619.6</ele>
        <time>2022-10-16T13:13:23Z</time>
      </trkpt>
      <trkpt lat="44.41656" lon="5.15693">
        <ele>619.8</ele>
        <time>2022-10-16T13:13:22Z</time>
      </trkpt>
      <trkpt lat="44.41656" lon="5.15692">
        <ele>620.1</ele>
        <time>2022-10-16T13:13:21Z</time>
      </trkpt>
      <trkpt lat="44.41656" lon="5.15691">
        <ele>620.3</ele>
        <time>2022-10-16T13:13:20Z</time>
      </trkpt>
      <trkpt lat="44.41656" lon="5.1569">
        <ele>620.5</ele>
        <time>2022-10-16T13:13:19Z</time>
      </trkpt>
      <trkpt lat="44.41656" lon="5.15689">
        <ele>620.7</ele>
        <time>2022-10-16T13:13:18Z</time>
      </trkpt>
      <trkpt lat="44.41656" lon="5.15688">
        <ele>620.9</ele>
        <time>2022-10-16T13:13:17Z</time>
      </trkpt>
      <trkpt lat="44.41656" lon="5.15687">
        <ele>621.1</ele>
        <time>2022-10-16T13:13:16Z</time>
      </trkpt>
      <trkpt lat="44.41656" lon="5.15686">
        <ele>621.3</ele>
        <time>2022-10-16T13:13:15Z</time>
      </trkpt>
      <trkpt lat="44.41656" lon="5.15685">
        <ele>621.5</ele>
        <time>2022-10-16T13:13:14Z</time>
      </trkpt>
      <trkpt lat="44.41656" lon="5.15684">
        <ele>621.7</ele>
        <time>2022-10-16T13:13:12Z</time>
      </trkpt>
      <trkpt lat="44.41657" lon="5.15683">
        <ele>621.8</ele>
        <time>2022-10-16T13:13:11Z</time>
      </trkpt>
      <trkpt lat="44.41657" lon="5.15682">
        <ele>622.1</ele>
        <time>2022-10-16T13:13:10Z</time>
      </trkpt>
      <trkpt lat="44.41658" lon="5.15681">
        <ele>622.2</ele>
        <time>2022-10-16T13:13:09Z</time>
      </trkpt>
      <trkpt lat="44.41659" lon="5.1568">
        <ele>622.3</ele>
        <time>2022-10-16T13:13:08Z</time>
      </trkpt>
      <trkpt lat="44.4166" lon="5.15679">
        <ele>622.5</ele>
        <time>2022-10-16T13:13:07Z</time>
      </trkpt>
      <trkpt lat="44.4166" lon="5.15678">
        <ele>622.7</ele>
        <time>2022-10-16T13:13:06Z</time>
      </trkpt>
      <trkpt lat="44.41661" lon="5.15677">
        <ele>622.8</ele>
        <time>2022-10-16T13:13:05Z</time>
      </trkpt>
      <trkpt lat="44.41661" lon="5.15676">
        <ele>623.1</ele>
        <time>2022-10-16T13:13:04Z</time>
      </trkpt>
      <trkpt lat="44.41662" lon="5.15675">
        <ele>623.2</ele>
        <time>2022-10-16T13:13:03Z</time>
      </trkpt>
      <trkpt lat="44.41662" lon="5.15674">
        <ele>623.5</ele>
        <time>2022-10-16T13:13:02Z</time>
      </trkpt>
      <trkpt lat="44.41663" lon="5.15672">
        <ele>623.9</ele>
        <time>2022-10-16T13:13:01Z</time>
      </trkpt>
      <trkpt lat="44.41663" lon="5.15671">
        <ele>624.1</ele>
        <time>2022-10-16T13:13:00Z</time>
      </trkpt>
      <trkpt lat="44.41664" lon="5.1567">
        <ele>624.3</ele>
        <time>2022-10-16T13:12:59Z</time>
      </trkpt>
      <trkpt lat="44.41664" lon="5.15668">
        <ele>624.8</ele>
        <time>2022-10-16T13:12:58Z</time>
      </trkpt>
      <trkpt lat="44.41665" lon="5.15667">
        <ele>625</ele>
        <time>2022-10-16T13:12:57Z</time>
      </trkpt>
      <trkpt lat="44.41665" lon="5.15666">
        <ele>625.2</ele>
        <time>2022-10-16T13:12:56Z</time>
      </trkpt>
      <trkpt lat="44.41666" lon="5.15664">
        <ele>625.6</ele>
        <time>2022-10-16T13:12:55Z</time>
      </trkpt>
      <trkpt lat="44.41666" lon="5.15663">
        <ele>625.8</ele>
        <time>2022-10-16T13:12:54Z</time>
      </trkpt>
      <trkpt lat="44.41667" lon="5.15662">
        <ele>625.9</ele>
        <time>2022-10-16T13:12:53Z</time>
      </trkpt>
      <trkpt lat="44.41667" lon="5.15661">
        <ele>626.1</ele>
        <time>2022-10-16T13:12:52Z</time>
      </trkpt>
      <trkpt lat="44.41668" lon="5.15659">
        <ele>626.3</ele>
        <time>2022-10-16T13:12:51Z</time>
      </trkpt>
      <trkpt lat="44.41668" lon="5.15658">
        <ele>626.5</ele>
        <time>2022-10-16T13:12:50Z</time>
      </trkpt>
      <trkpt lat="44.41669" lon="5.15657">
        <ele>626.5</ele>
        <time>2022-10-16T13:12:49Z</time>
      </trkpt>
      <trkpt lat="44.41669" lon="5.15656">
        <ele>626.7</ele>
        <time>2022-10-16T13:12:48Z</time>
      </trkpt>
      <trkpt lat="44.41669" lon="5.15655">
        <ele>626.9</ele>
        <time>2022-10-16T13:12:47Z</time>
      </trkpt>
      <trkpt lat="44.4167" lon="5.15654">
        <ele>626.9</ele>
        <time>2022-10-16T13:12:46Z</time>
      </trkpt>
      <trkpt lat="44.4167" lon="5.15653">
        <ele>627.1</ele>
        <time>2022-10-16T13:12:45Z</time>
      </trkpt>
      <trkpt lat="44.4167" lon="5.15652">
        <ele>627.3</ele>
        <time>2022-10-16T13:12:44Z</time>
      </trkpt>
      <trkpt lat="44.4167" lon="5.1565">
        <ele>627.8</ele>
        <time>2022-10-16T13:12:43Z</time>
      </trkpt>
      <trkpt lat="44.4167" lon="5.15649">
        <ele>628</ele>
        <time>2022-10-16T13:12:42Z</time>
      </trkpt>
      <trkpt lat="44.41671" lon="5.15648">
        <ele>628</ele>
        <time>2022-10-16T13:12:41Z</time>
      </trkpt>
      <trkpt lat="44.41671" lon="5.15646">
        <ele>628.4</ele>
        <time>2022-10-16T13:12:40Z</time>
      </trkpt>
      <trkpt lat="44.41671" lon="5.15645">
        <ele>628.7</ele>
        <time>2022-10-16T13:12:39Z</time>
      </trkpt>
      <trkpt lat="44.41672" lon="5.15644">
        <ele>628.7</ele>
        <time>2022-10-16T13:12:38Z</time>
      </trkpt>
      <trkpt lat="44.41672" lon="5.15643">
        <ele>628.9</ele>
        <time>2022-10-16T13:12:37Z</time>
      </trkpt>
      <trkpt lat="44.41672" lon="5.15642">
        <ele>629.1</ele>
        <time>2022-10-16T13:12:36Z</time>
      </trkpt>
      <trkpt lat="44.41673" lon="5.1564">
        <ele>629.4</ele>
        <time>2022-10-16T13:12:35Z</time>
      </trkpt>
      <trkpt lat="44.41673" lon="5.15639">
        <ele>629.6</ele>
        <time>2022-10-16T13:12:34Z</time>
      </trkpt>
      <trkpt lat="44.41673" lon="5.15638">
        <ele>629.8</ele>
        <time>2022-10-16T13:12:33Z</time>
      </trkpt>
      <trkpt lat="44.41674" lon="5.15637">
        <ele>629.8</ele>
        <time>2022-10-16T13:12:32Z</time>
      </trkpt>
      <trkpt lat="44.41674" lon="5.15636">
        <ele>630</ele>
        <time>2022-10-16T13:12:31Z</time>
      </trkpt>
      <trkpt lat="44.41674" lon="5.15635">
        <ele>630.2</ele>
        <time>2022-10-16T13:12:30Z</time>
      </trkpt>
      <trkpt lat="44.41674" lon="5.15634">
        <ele>630.4</ele>
        <time>2022-10-16T13:12:29Z</time>
      </trkpt>
      <trkpt lat="44.41674" lon="5.15633">
        <ele>630.6</ele>
        <time>2022-10-16T13:12:28Z</time>
      </trkpt>
      <trkpt lat="44.41673" lon="5.15632">
        <ele>631</ele>
        <time>2022-10-16T13:12:27Z</time>
      </trkpt>
      <trkpt lat="44.41673" lon="5.15631">
        <ele>631.2</ele>
        <time>2022-10-16T13:12:26Z</time>
      </trkpt>
      <trkpt lat="44.41673" lon="5.1563">
        <ele>631.4</ele>
        <time>2022-10-16T13:12:25Z</time>
      </trkpt>
      <trkpt lat="44.41673" lon="5.15629">
        <ele>631.6</ele>
        <time>2022-10-16T13:12:24Z</time>
      </trkpt>
      <trkpt lat="44.41673" lon="5.15628">
        <ele>631.8</ele>
        <time>2022-10-16T13:12:23Z</time>
      </trkpt>
      <trkpt lat="44.41673" lon="5.15627">
        <ele>632</ele>
        <time>2022-10-16T13:12:22Z</time>
      </trkpt>
      <trkpt lat="44.41673" lon="5.15626">
        <ele>632.2</ele>
        <time>2022-10-16T13:12:21Z</time>
      </trkpt>
      <trkpt lat="44.41674" lon="5.15625">
        <ele>632.2</ele>
        <time>2022-10-16T13:12:20Z</time>
      </trkpt>
      <trkpt lat="44.41674" lon="5.15624">
        <ele>632.4</ele>
        <time>2022-10-16T13:12:19Z</time>
      </trkpt>
      <trkpt lat="44.41674" lon="5.15623">
        <ele>632.6</ele>
        <time>2022-10-16T13:12:18Z</time>
      </trkpt>
      <trkpt lat="44.41675" lon="5.15622">
        <ele>632.6</ele>
        <time>2022-10-16T13:12:17Z</time>
      </trkpt>
      <trkpt lat="44.41675" lon="5.15621">
        <ele>632.8</ele>
        <time>2022-10-16T13:12:16Z</time>
      </trkpt>
      <trkpt lat="44.41675" lon="5.15619">
        <ele>633.2</ele>
        <time>2022-10-16T13:12:15Z</time>
      </trkpt>
      <trkpt lat="44.41676" lon="5.15618">
        <ele>633.2</ele>
        <time>2022-10-16T13:12:14Z</time>
      </trkpt>
      <trkpt lat="44.41676" lon="5.15617">
        <ele>633.5</ele>
        <time>2022-10-16T13:12:13Z</time>
      </trkpt>
      <trkpt lat="44.41676" lon="5.15616">
        <ele>633.7</ele>
        <time>2022-10-16T13:12:12Z</time>
      </trkpt>
      <trkpt lat="44.41677" lon="5.15615">
        <ele>633.7</ele>
        <time>2022-10-16T13:12:11Z</time>
      </trkpt>
      <trkpt lat="44.41677" lon="5.15614">
        <ele>633.9</ele>
        <time>2022-10-16T13:12:10Z</time>
      </trkpt>
      <trkpt lat="44.41677" lon="5.15613">
        <ele>634.1</ele>
        <time>2022-10-16T13:12:09Z</time>
      </trkpt>
      <trkpt lat="44.41678" lon="5.15612">
        <ele>634.2</ele>
        <time>2022-10-16T13:12:08Z</time>
      </trkpt>
      <trkpt lat="44.41678" lon="5.15611">
        <ele>634.4</ele>
        <time>2022-10-16T13:12:07Z</time>
      </trkpt>
      <trkpt lat="44.41679" lon="5.1561">
        <ele>634.4</ele>
        <time>2022-10-16T13:12:06Z</time>
      </trkpt>
      <trkpt lat="44.4168" lon="5.15609">
        <ele>634.5</ele>
        <time>2022-10-16T13:12:05Z</time>
      </trkpt>
      <trkpt lat="44.4168" lon="5.15608">
        <ele>634.7</ele>
        <time>2022-10-16T13:12:04Z</time>
      </trkpt>
      <trkpt lat="44.41681" lon="5.15607">
        <ele>634.8</ele>
        <time>2022-10-16T13:12:02Z</time>
      </trkpt>
      <trkpt lat="44.41682" lon="5.15606">
        <ele>634.8</ele>
        <time>2022-10-16T13:12:01Z</time>
      </trkpt>
      <trkpt lat="44.41683" lon="5.15605">
        <ele>634.9</ele>
        <time>2022-10-16T13:11:59Z</time>
      </trkpt>
      <trkpt lat="44.41684" lon="5.15604">
        <ele>635</ele>
        <time>2022-10-16T13:11:58Z</time>
      </trkpt>
      <trkpt lat="44.41684" lon="5.15603">
        <ele>635.2</ele>
        <time>2022-10-16T13:11:57Z</time>
      </trkpt>
      <trkpt lat="44.41685" lon="5.15602">
        <ele>635.3</ele>
        <time>2022-10-16T13:11:56Z</time>
      </trkpt>
      <trkpt lat="44.41685" lon="5.15601">
        <ele>635.5</ele>
        <time>2022-10-16T13:11:55Z</time>
      </trkpt>
      <trkpt lat="44.41686" lon="5.156">
        <ele>635.7</ele>
        <time>2022-10-16T13:11:54Z</time>
      </trkpt>
      <trkpt lat="44.41687" lon="5.156">
        <ele>635.6</ele>
        <time>2022-10-16T13:11:53Z</time>
      </trkpt>
      <trkpt lat="44.41687" lon="5.15599">
        <ele>635.8</ele>
        <time>2022-10-16T13:11:52Z</time>
      </trkpt>
      <trkpt lat="44.41688" lon="5.15598">
        <ele>635.9</ele>
        <time>2022-10-16T13:11:51Z</time>
      </trkpt>
      <trkpt lat="44.41688" lon="5.15597">
        <ele>636.1</ele>
        <time>2022-10-16T13:11:50Z</time>
      </trkpt>
      <trkpt lat="44.41689" lon="5.15596">
        <ele>636.3</ele>
        <time>2022-10-16T13:11:49Z</time>
      </trkpt>
      <trkpt lat="44.4169" lon="5.15595">
        <ele>636.4</ele>
        <time>2022-10-16T13:11:48Z</time>
      </trkpt>
      <trkpt lat="44.4169" lon="5.15594">
        <ele>636.7</ele>
        <time>2022-10-16T13:11:47Z</time>
      </trkpt>
      <trkpt lat="44.41691" lon="5.15593">
        <ele>636.8</ele>
        <time>2022-10-16T13:11:46Z</time>
      </trkpt>
      <trkpt lat="44.41692" lon="5.15592">
        <ele>637</ele>
        <time>2022-10-16T13:11:45Z</time>
      </trkpt>
      <trkpt lat="44.41692" lon="5.15591">
        <ele>637.2</ele>
        <time>2022-10-16T13:11:44Z</time>
      </trkpt>
      <trkpt lat="44.41693" lon="5.1559">
        <ele>637.4</ele>
        <time>2022-10-16T13:11:43Z</time>
      </trkpt>
      <trkpt lat="44.41694" lon="5.15589">
        <ele>637.6</ele>
        <time>2022-10-16T13:11:42Z</time>
      </trkpt>
      <trkpt lat="44.41694" lon="5.15588">
        <ele>637.8</ele>
        <time>2022-10-16T13:11:41Z</time>
      </trkpt>
      <trkpt lat="44.41695" lon="5.15587">
        <ele>638.1</ele>
        <time>2022-10-16T13:11:40Z</time>
      </trkpt>
      <trkpt lat="44.41695" lon="5.15586">
        <ele>638.3</ele>
        <time>2022-10-16T13:11:39Z</time>
      </trkpt>
      <trkpt lat="44.41696" lon="5.15584">
        <ele>638.8</ele>
        <time>2022-10-16T13:11:38Z</time>
      </trkpt>
      <trkpt lat="44.41696" lon="5.15583">
        <ele>639</ele>
        <time>2022-10-16T13:11:37Z</time>
      </trkpt>
      <trkpt lat="44.41696" lon="5.15582">
        <ele>639.2</ele>
        <time>2022-10-16T13:11:36Z</time>
      </trkpt>
      <trkpt lat="44.41696" lon="5.15581">
        <ele>639.4</ele>
        <time>2022-10-16T13:11:35Z</time>
      </trkpt>
      <trkpt lat="44.41696" lon="5.1558">
        <ele>639.6</ele>
        <time>2022-10-16T13:11:34Z</time>
      </trkpt>
      <trkpt lat="44.41696" lon="5.15578">
        <ele>639.9</ele>
        <time>2022-10-16T13:11:33Z</time>
      </trkpt>
      <trkpt lat="44.41696" lon="5.15577">
        <ele>640.1</ele>
        <time>2022-10-16T13:11:32Z</time>
      </trkpt>
      <trkpt lat="44.41696" lon="5.15576">
        <ele>640.3</ele>
        <time>2022-10-16T13:11:31Z</time>
      </trkpt>
      <trkpt lat="44.41696" lon="5.15575">
        <ele>640.5</ele>
        <time>2022-10-16T13:11:30Z</time>
      </trkpt>
      <trkpt lat="44.41696" lon="5.15574">
        <ele>640.6</ele>
        <time>2022-10-16T13:11:29Z</time>
      </trkpt>
      <trkpt lat="44.41696" lon="5.15573">
        <ele>640.8</ele>
        <time>2022-10-16T13:11:28Z</time>
      </trkpt>
      <trkpt lat="44.41696" lon="5.15572">
        <ele>641</ele>
        <time>2022-10-16T13:11:27Z</time>
      </trkpt>
      <trkpt lat="44.41696" lon="5.15571">
        <ele>641.2</ele>
        <time>2022-10-16T13:11:26Z</time>
      </trkpt>
      <trkpt lat="44.41696" lon="5.15569">
        <ele>641.6</ele>
        <time>2022-10-16T13:11:25Z</time>
      </trkpt>
      <trkpt lat="44.41696" lon="5.15568">
        <ele>641.7</ele>
        <time>2022-10-16T13:11:24Z</time>
      </trkpt>
      <trkpt lat="44.41697" lon="5.15567">
        <ele>641.9</ele>
        <time>2022-10-16T13:11:23Z</time>
      </trkpt>
      <trkpt lat="44.41697" lon="5.15565">
        <ele>642.3</ele>
        <time>2022-10-16T13:11:22Z</time>
      </trkpt>
      <trkpt lat="44.41697" lon="5.15564">
        <ele>642.5</ele>
        <time>2022-10-16T13:11:21Z</time>
      </trkpt>
      <trkpt lat="44.41697" lon="5.15563">
        <ele>642.6</ele>
        <time>2022-10-16T13:11:20Z</time>
      </trkpt>
      <trkpt lat="44.41697" lon="5.15561">
        <ele>643</ele>
        <time>2022-10-16T13:11:19Z</time>
      </trkpt>
      <trkpt lat="44.41697" lon="5.1556">
        <ele>643.2</ele>
        <time>2022-10-16T13:11:18Z</time>
      </trkpt>
      <trkpt lat="44.41697" lon="5.15558">
        <ele>643.6</ele>
        <time>2022-10-16T13:11:17Z</time>
      </trkpt>
      <trkpt lat="44.41698" lon="5.15557">
        <ele>643.7</ele>
        <time>2022-10-16T13:11:16Z</time>
      </trkpt>
      <trkpt lat="44.41698" lon="5.15555">
        <ele>644.1</ele>
        <time>2022-10-16T13:11:15Z</time>
      </trkpt>
      <trkpt lat="44.41698" lon="5.15554">
        <ele>644.3</ele>
        <time>2022-10-16T13:11:14Z</time>
      </trkpt>
      <trkpt lat="44.41698" lon="5.15553">
        <ele>644.5</ele>
        <time>2022-10-16T13:11:13Z</time>
      </trkpt>
      <trkpt lat="44.41698" lon="5.15551">
        <ele>644.8</ele>
        <time>2022-10-16T13:11:12Z</time>
      </trkpt>
      <trkpt lat="44.41699" lon="5.1555">
        <ele>645</ele>
        <time>2022-10-16T13:11:11Z</time>
      </trkpt>
      <trkpt lat="44.41699" lon="5.15549">
        <ele>645.2</ele>
        <time>2022-10-16T13:11:10Z</time>
      </trkpt>
      <trkpt lat="44.41699" lon="5.15547">
        <ele>645.5</ele>
        <time>2022-10-16T13:11:09Z</time>
      </trkpt>
      <trkpt lat="44.41699" lon="5.15546">
        <ele>645.7</ele>
        <time>2022-10-16T13:11:08Z</time>
      </trkpt>
      <trkpt lat="44.41699" lon="5.15545">
        <ele>645.9</ele>
        <time>2022-10-16T13:11:07Z</time>
      </trkpt>
      <trkpt lat="44.41699" lon="5.15544">
        <ele>646.1</ele>
        <time>2022-10-16T13:11:06Z</time>
      </trkpt>
      <trkpt lat="44.41699" lon="5.15542">
        <ele>646.4</ele>
        <time>2022-10-16T13:11:05Z</time>
      </trkpt>
      <trkpt lat="44.417" lon="5.15541">
        <ele>646.6</ele>
        <time>2022-10-16T13:11:04Z</time>
      </trkpt>
      <trkpt lat="44.417" lon="5.1554">
        <ele>646.8</ele>
        <time>2022-10-16T13:11:03Z</time>
      </trkpt>
      <trkpt lat="44.417" lon="5.15538">
        <ele>647.2</ele>
        <time>2022-10-16T13:11:02Z</time>
      </trkpt>
      <trkpt lat="44.41701" lon="5.15537">
        <ele>647.3</ele>
        <time>2022-10-16T13:11:01Z</time>
      </trkpt>
      <trkpt lat="44.41701" lon="5.15536">
        <ele>647.5</ele>
        <time>2022-10-16T13:11:00Z</time>
      </trkpt>
      <trkpt lat="44.41701" lon="5.15534">
        <ele>647.9</ele>
        <time>2022-10-16T13:10:59Z</time>
      </trkpt>
      <trkpt lat="44.41702" lon="5.15533">
        <ele>648.1</ele>
        <time>2022-10-16T13:10:58Z</time>
      </trkpt>
      <trkpt lat="44.41702" lon="5.15532">
        <ele>648.2</ele>
        <time>2022-10-16T13:10:57Z</time>
      </trkpt>
      <trkpt lat="44.41702" lon="5.15531">
        <ele>648.4</ele>
        <time>2022-10-16T13:10:56Z</time>
      </trkpt>
      <trkpt lat="44.41703" lon="5.15529">
        <ele>648.8</ele>
        <time>2022-10-16T13:10:55Z</time>
      </trkpt>
      <trkpt lat="44.41703" lon="5.15528">
        <ele>649</ele>
        <time>2022-10-16T13:10:54Z</time>
      </trkpt>
      <trkpt lat="44.41703" lon="5.15527">
        <ele>649.1</ele>
        <time>2022-10-16T13:10:53Z</time>
      </trkpt>
      <trkpt lat="44.41703" lon="5.15526">
        <ele>649.3</ele>
        <time>2022-10-16T13:10:52Z</time>
      </trkpt>
      <trkpt lat="44.41704" lon="5.15524">
        <ele>649.7</ele>
        <time>2022-10-16T13:10:51Z</time>
      </trkpt>
      <trkpt lat="44.41704" lon="5.15523">
        <ele>649.9</ele>
        <time>2022-10-16T13:10:50Z</time>
      </trkpt>
      <trkpt lat="44.41704" lon="5.15522">
        <ele>650</ele>
        <time>2022-10-16T13:10:49Z</time>
      </trkpt>
      <trkpt lat="44.41705" lon="5.15521">
        <ele>650.2</ele>
        <time>2022-10-16T13:10:48Z</time>
      </trkpt>
      <trkpt lat="44.41705" lon="5.15519">
        <ele>650.6</ele>
        <time>2022-10-16T13:10:47Z</time>
      </trkpt>
      <trkpt lat="44.41705" lon="5.15518">
        <ele>650.8</ele>
        <time>2022-10-16T13:10:46Z</time>
      </trkpt>
      <trkpt lat="44.41706" lon="5.15517">
        <ele>650.9</ele>
        <time>2022-10-16T13:10:45Z</time>
      </trkpt>
      <trkpt lat="44.41706" lon="5.15516">
        <ele>651.1</ele>
        <time>2022-10-16T13:10:44Z</time>
      </trkpt>
      <trkpt lat="44.41706" lon="5.15515">
        <ele>651.3</ele>
        <time>2022-10-16T13:10:43Z</time>
      </trkpt>
      <trkpt lat="44.41707" lon="5.15514">
        <ele>651.5</ele>
        <time>2022-10-16T13:10:42Z</time>
      </trkpt>
      <trkpt lat="44.41707" lon="5.15513">
        <ele>651.7</ele>
        <time>2022-10-16T13:10:41Z</time>
      </trkpt>
      <trkpt lat="44.41708" lon="5.15512">
        <ele>651.8</ele>
        <time>2022-10-16T13:10:40Z</time>
      </trkpt>
      <trkpt lat="44.41708" lon="5.15511">
        <ele>652</ele>
        <time>2022-10-16T13:10:39Z</time>
      </trkpt>
      <trkpt lat="44.41709" lon="5.1551">
        <ele>652.2</ele>
        <time>2022-10-16T13:10:38Z</time>
      </trkpt>
      <trkpt lat="44.4171" lon="5.15509">
        <ele>652.4</ele>
        <time>2022-10-16T13:10:37Z</time>
      </trkpt>
      <trkpt lat="44.4171" lon="5.15508">
        <ele>652.6</ele>
        <time>2022-10-16T13:10:36Z</time>
      </trkpt>
      <trkpt lat="44.41711" lon="5.15507">
        <ele>652.7</ele>
        <time>2022-10-16T13:10:35Z</time>
      </trkpt>
      <trkpt lat="44.41711" lon="5.15506">
        <ele>652.9</ele>
        <time>2022-10-16T13:10:34Z</time>
      </trkpt>
      <trkpt lat="44.41712" lon="5.15505">
        <ele>653.1</ele>
        <time>2022-10-16T13:10:33Z</time>
      </trkpt>
      <trkpt lat="44.41712" lon="5.15504">
        <ele>653.3</ele>
        <time>2022-10-16T13:10:32Z</time>
      </trkpt>
      <trkpt lat="44.41713" lon="5.15503">
        <ele>653.5</ele>
        <time>2022-10-16T13:10:31Z</time>
      </trkpt>
      <trkpt lat="44.41713" lon="5.15502">
        <ele>653.6</ele>
        <time>2022-10-16T13:10:30Z</time>
      </trkpt>
      <trkpt lat="44.41714" lon="5.155">
        <ele>654</ele>
        <time>2022-10-16T13:10:29Z</time>
      </trkpt>
      <trkpt lat="44.41714" lon="5.15499">
        <ele>654.2</ele>
        <time>2022-10-16T13:10:28Z</time>
      </trkpt>
      <trkpt lat="44.41715" lon="5.15498">
        <ele>654.4</ele>
        <time>2022-10-16T13:10:27Z</time>
      </trkpt>
      <trkpt lat="44.41715" lon="5.15497">
        <ele>654.6</ele>
        <time>2022-10-16T13:10:26Z</time>
      </trkpt>
      <trkpt lat="44.41716" lon="5.15495">
        <ele>654.9</ele>
        <time>2022-10-16T13:10:25Z</time>
      </trkpt>
      <trkpt lat="44.41716" lon="5.15494">
        <ele>655.1</ele>
        <time>2022-10-16T13:10:24Z</time>
      </trkpt>
      <trkpt lat="44.41716" lon="5.15493">
        <ele>655.3</ele>
        <time>2022-10-16T13:10:23Z</time>
      </trkpt>
      <trkpt lat="44.41717" lon="5.15492">
        <ele>655.5</ele>
        <time>2022-10-16T13:10:22Z</time>
      </trkpt>
      <trkpt lat="44.41717" lon="5.1549">
        <ele>655.9</ele>
        <time>2022-10-16T13:10:21Z</time>
      </trkpt>
      <trkpt lat="44.41717" lon="5.15489">
        <ele>656.1</ele>
        <time>2022-10-16T13:10:20Z</time>
      </trkpt>
      <trkpt lat="44.41717" lon="5.15488">
        <ele>656.2</ele>
        <time>2022-10-16T13:10:19Z</time>
      </trkpt>
      <trkpt lat="44.41718" lon="5.15487">
        <ele>656.4</ele>
        <time>2022-10-16T13:10:18Z</time>
      </trkpt>
      <trkpt lat="44.41718" lon="5.15485">
        <ele>656.8</ele>
        <time>2022-10-16T13:10:17Z</time>
      </trkpt>
      <trkpt lat="44.41718" lon="5.15484">
        <ele>657</ele>
        <time>2022-10-16T13:10:16Z</time>
      </trkpt>
      <trkpt lat="44.41719" lon="5.15483">
        <ele>657.1</ele>
        <time>2022-10-16T13:10:15Z</time>
      </trkpt>
      <trkpt lat="44.41719" lon="5.15482">
        <ele>657.3</ele>
        <time>2022-10-16T13:10:14Z</time>
      </trkpt>
      <trkpt lat="44.41719" lon="5.15481">
        <ele>657.5</ele>
        <time>2022-10-16T13:10:13Z</time>
      </trkpt>
      <trkpt lat="44.4172" lon="5.1548">
        <ele>657.7</ele>
        <time>2022-10-16T13:10:12Z</time>
      </trkpt>
      <trkpt lat="44.4172" lon="5.15479">
        <ele>657.8</ele>
        <time>2022-10-16T13:10:11Z</time>
      </trkpt>
      <trkpt lat="44.41721" lon="5.15478">
        <ele>658</ele>
        <time>2022-10-16T13:10:10Z</time>
      </trkpt>
      <trkpt lat="44.41722" lon="5.15477">
        <ele>658.1</ele>
        <time>2022-10-16T13:10:09Z</time>
      </trkpt>
      <trkpt lat="44.41722" lon="5.15476">
        <ele>658.3</ele>
        <time>2022-10-16T13:10:07Z</time>
      </trkpt>
      <trkpt lat="44.41723" lon="5.15475">
        <ele>658.5</ele>
        <time>2022-10-16T13:10:06Z</time>
      </trkpt>
      <trkpt lat="44.41723" lon="5.15474">
        <ele>658.7</ele>
        <time>2022-10-16T13:10:05Z</time>
      </trkpt>
      <trkpt lat="44.41724" lon="5.15473">
        <ele>658.9</ele>
        <time>2022-10-16T13:10:04Z</time>
      </trkpt>
      <trkpt lat="44.41724" lon="5.15472">
        <ele>659</ele>
        <time>2022-10-16T13:10:03Z</time>
      </trkpt>
      <trkpt lat="44.41725" lon="5.15471">
        <ele>659.3</ele>
        <time>2022-10-16T13:10:02Z</time>
      </trkpt>
      <trkpt lat="44.41725" lon="5.1547">
        <ele>659.5</ele>
        <time>2022-10-16T13:10:01Z</time>
      </trkpt>
      <trkpt lat="44.41726" lon="5.15469">
        <ele>659.7</ele>
        <time>2022-10-16T13:10:00Z</time>
      </trkpt>
      <trkpt lat="44.41726" lon="5.15468">
        <ele>660</ele>
        <time>2022-10-16T13:09:59Z</time>
      </trkpt>
      <trkpt lat="44.41726" lon="5.15467">
        <ele>660.2</ele>
        <time>2022-10-16T13:09:58Z</time>
      </trkpt>
      <trkpt lat="44.41727" lon="5.15466">
        <ele>660.4</ele>
        <time>2022-10-16T13:09:57Z</time>
      </trkpt>
      <trkpt lat="44.41727" lon="5.15465">
        <ele>660.6</ele>
        <time>2022-10-16T13:09:56Z</time>
      </trkpt>
      <trkpt lat="44.41727" lon="5.15463">
        <ele>661.1</ele>
        <time>2022-10-16T13:09:55Z</time>
      </trkpt>
      <trkpt lat="44.41727" lon="5.15462">
        <ele>661.3</ele>
        <time>2022-10-16T13:09:54Z</time>
      </trkpt>
      <trkpt lat="44.41728" lon="5.15461">
        <ele>661.6</ele>
        <time>2022-10-16T13:09:53Z</time>
      </trkpt>
      <trkpt lat="44.41728" lon="5.1546">
        <ele>661.8</ele>
        <time>2022-10-16T13:09:52Z</time>
      </trkpt>
      <trkpt lat="44.41728" lon="5.15459">
        <ele>662.1</ele>
        <time>2022-10-16T13:09:51Z</time>
      </trkpt>
      <trkpt lat="44.41728" lon="5.15458">
        <ele>662.3</ele>
        <time>2022-10-16T13:09:50Z</time>
      </trkpt>
      <trkpt lat="44.41728" lon="5.15456">
        <ele>662.7</ele>
        <time>2022-10-16T13:09:49Z</time>
      </trkpt>
      <trkpt lat="44.41728" lon="5.15455">
        <ele>663</ele>
        <time>2022-10-16T13:09:48Z</time>
      </trkpt>
      <trkpt lat="44.41729" lon="5.15454">
        <ele>663.3</ele>
        <time>2022-10-16T13:09:47Z</time>
      </trkpt>
      <trkpt lat="44.41729" lon="5.15453">
        <ele>663.5</ele>
        <time>2022-10-16T13:09:46Z</time>
      </trkpt>
      <trkpt lat="44.41729" lon="5.15452">
        <ele>663.7</ele>
        <time>2022-10-16T13:09:45Z</time>
      </trkpt>
      <trkpt lat="44.4173" lon="5.15451">
        <ele>664</ele>
        <time>2022-10-16T13:09:44Z</time>
      </trkpt>
      <trkpt lat="44.4173" lon="5.1545">
        <ele>664.2</ele>
        <time>2022-10-16T13:09:43Z</time>
      </trkpt>
      <trkpt lat="44.41731" lon="5.1545">
        <ele>664.3</ele>
        <time>2022-10-16T13:09:42Z</time>
      </trkpt>
      <trkpt lat="44.41732" lon="5.15449">
        <ele>664.6</ele>
        <time>2022-10-16T13:09:40Z</time>
      </trkpt>
      <trkpt lat="44.41733" lon="5.15448">
        <ele>664.9</ele>
        <time>2022-10-16T13:09:38Z</time>
      </trkpt>
      <trkpt lat="44.41734" lon="5.15447">
        <ele>665.2</ele>
        <time>2022-10-16T13:09:37Z</time>
      </trkpt>
      <trkpt lat="44.41735" lon="5.15447">
        <ele>665.3</ele>
        <time>2022-10-16T13:09:36Z</time>
      </trkpt>
      <trkpt lat="44.41735" lon="5.15446">
        <ele>665.5</ele>
        <time>2022-10-16T13:09:35Z</time>
      </trkpt>
      <trkpt lat="44.41736" lon="5.15445">
        <ele>665.9</ele>
        <time>2022-10-16T13:09:34Z</time>
      </trkpt>
      <trkpt lat="44.41736" lon="5.15444">
        <ele>666.1</ele>
        <time>2022-10-16T13:09:33Z</time>
      </trkpt>
      <trkpt lat="44.41737" lon="5.15443">
        <ele>666.5</ele>
        <time>2022-10-16T13:09:32Z</time>
      </trkpt>
      <trkpt lat="44.41737" lon="5.15442">
        <ele>666.7</ele>
        <time>2022-10-16T13:09:31Z</time>
      </trkpt>
      <trkpt lat="44.41738" lon="5.15442">
        <ele>666.8</ele>
        <time>2022-10-16T13:09:30Z</time>
      </trkpt>
      <trkpt lat="44.41738" lon="5.15441">
        <ele>667.1</ele>
        <time>2022-10-16T13:09:29Z</time>
      </trkpt>
      <trkpt lat="44.41739" lon="5.1544">
        <ele>667.4</ele>
        <time>2022-10-16T13:09:28Z</time>
      </trkpt>
      <trkpt lat="44.4174" lon="5.15439">
        <ele>667.8</ele>
        <time>2022-10-16T13:09:27Z</time>
      </trkpt>
      <trkpt lat="44.4174" lon="5.15438">
        <ele>668.1</ele>
        <time>2022-10-16T13:09:26Z</time>
      </trkpt>
      <trkpt lat="44.41741" lon="5.15438">
        <ele>668.1</ele>
        <time>2022-10-16T13:09:25Z</time>
      </trkpt>
      <trkpt lat="44.41742" lon="5.15437">
        <ele>668.5</ele>
        <time>2022-10-16T13:09:24Z</time>
      </trkpt>
      <trkpt lat="44.41743" lon="5.15436">
        <ele>668.9</ele>
        <time>2022-10-16T13:09:23Z</time>
      </trkpt>
      <trkpt lat="44.41744" lon="5.15435">
        <ele>669.2</ele>
        <time>2022-10-16T13:09:22Z</time>
      </trkpt>
      <trkpt lat="44.41745" lon="5.15435">
        <ele>669.3</ele>
        <time>2022-10-16T13:09:21Z</time>
      </trkpt>
      <trkpt lat="44.41745" lon="5.15434">
        <ele>669.6</ele>
        <time>2022-10-16T13:09:20Z</time>
      </trkpt>
      <trkpt lat="44.41746" lon="5.15433">
        <ele>669.9</ele>
        <time>2022-10-16T13:09:19Z</time>
      </trkpt>
      <trkpt lat="44.41747" lon="5.15433">
        <ele>670</ele>
        <time>2022-10-16T13:09:18Z</time>
      </trkpt>
      <trkpt lat="44.41747" lon="5.15432">
        <ele>670.3</ele>
        <time>2022-10-16T13:09:17Z</time>
      </trkpt>
      <trkpt lat="44.41748" lon="5.15432">
        <ele>670.4</ele>
        <time>2022-10-16T13:09:16Z</time>
      </trkpt>
      <trkpt lat="44.41748" lon="5.15431">
        <ele>670.7</ele>
        <time>2022-10-16T13:09:15Z</time>
      </trkpt>
      <trkpt lat="44.41749" lon="5.1543">
        <ele>671.1</ele>
        <time>2022-10-16T13:09:14Z</time>
      </trkpt>
      <trkpt lat="44.4175" lon="5.1543">
        <ele>671.2</ele>
        <time>2022-10-16T13:09:13Z</time>
      </trkpt>
      <trkpt lat="44.4175" lon="5.15429">
        <ele>671.4</ele>
        <time>2022-10-16T13:09:12Z</time>
      </trkpt>
      <trkpt lat="44.41751" lon="5.15429">
        <ele>671.7</ele>
        <time>2022-10-16T13:09:11Z</time>
      </trkpt>
      <trkpt lat="44.41751" lon="5.15428">
        <ele>671.9</ele>
        <time>2022-10-16T13:09:10Z</time>
      </trkpt>
      <trkpt lat="44.41752" lon="5.15428">
        <ele>672.2</ele>
        <time>2022-10-16T13:09:08Z</time>
      </trkpt>
      <trkpt lat="44.41753" lon="5.15427">
        <ele>672.7</ele>
        <time>2022-10-16T13:09:07Z</time>
      </trkpt>
      <trkpt lat="44.41754" lon="5.15427">
        <ele>672.9</ele>
        <time>2022-10-16T13:09:06Z</time>
      </trkpt>
      <trkpt lat="44.41755" lon="5.15427">
        <ele>673.1</ele>
        <time>2022-10-16T13:09:05Z</time>
      </trkpt>
      <trkpt lat="44.41756" lon="5.15427">
        <ele>673.3</ele>
        <time>2022-10-16T13:09:04Z</time>
      </trkpt>
      <trkpt lat="44.41757" lon="5.15427">
        <ele>673.5</ele>
        <time>2022-10-16T13:09:03Z</time>
      </trkpt>
      <trkpt lat="44.41758" lon="5.15426">
        <ele>674</ele>
        <time>2022-10-16T13:09:02Z</time>
      </trkpt>
      <trkpt lat="44.41759" lon="5.15426">
        <ele>674.3</ele>
        <time>2022-10-16T13:09:01Z</time>
      </trkpt>
      <trkpt lat="44.4176" lon="5.15426">
        <ele>674.5</ele>
        <time>2022-10-16T13:09:00Z</time>
      </trkpt>
      <trkpt lat="44.4176" lon="5.15425">
        <ele>674.8</ele>
        <time>2022-10-16T13:08:59Z</time>
      </trkpt>
      <trkpt lat="44.41761" lon="5.15425">
        <ele>675</ele>
        <time>2022-10-16T13:08:58Z</time>
      </trkpt>
      <trkpt lat="44.41762" lon="5.15425">
        <ele>675.2</ele>
        <time>2022-10-16T13:08:57Z</time>
      </trkpt>
      <trkpt lat="44.41763" lon="5.15425">
        <ele>675.5</ele>
        <time>2022-10-16T13:08:56Z</time>
      </trkpt>
      <trkpt lat="44.41764" lon="5.15424">
        <ele>676</ele>
        <time>2022-10-16T13:08:55Z</time>
      </trkpt>
      <trkpt lat="44.41765" lon="5.15424">
        <ele>676.2</ele>
        <time>2022-10-16T13:08:54Z</time>
      </trkpt>
      <trkpt lat="44.41766" lon="5.15424">
        <ele>676.5</ele>
        <time>2022-10-16T13:08:53Z</time>
      </trkpt>
      <trkpt lat="44.41767" lon="5.15424">
        <ele>676.7</ele>
        <time>2022-10-16T13:08:52Z</time>
      </trkpt>
      <trkpt lat="44.41768" lon="5.15424">
        <ele>676.9</ele>
        <time>2022-10-16T13:08:51Z</time>
      </trkpt>
      <trkpt lat="44.41769" lon="5.15424">
        <ele>677.1</ele>
        <time>2022-10-16T13:08:50Z</time>
      </trkpt>
      <trkpt lat="44.4177" lon="5.15423">
        <ele>677.7</ele>
        <time>2022-10-16T13:08:49Z</time>
      </trkpt>
      <trkpt lat="44.41771" lon="5.15423">
        <ele>678</ele>
        <time>2022-10-16T13:08:47Z</time>
      </trkpt>
      <trkpt lat="44.41772" lon="5.15423">
        <ele>678.2</ele>
        <time>2022-10-16T13:08:46Z</time>
      </trkpt>
      <trkpt lat="44.41773" lon="5.15423">
        <ele>678.4</ele>
        <time>2022-10-16T13:08:45Z</time>
      </trkpt>
      <trkpt lat="44.41774" lon="5.15423">
        <ele>678.6</ele>
        <time>2022-10-16T13:08:44Z</time>
      </trkpt>
      <trkpt lat="44.41775" lon="5.15423">
        <ele>678.9</ele>
        <time>2022-10-16T13:08:43Z</time>
      </trkpt>
      <trkpt lat="44.41776" lon="5.15422">
        <ele>679.5</ele>
        <time>2022-10-16T13:08:41Z</time>
      </trkpt>
      <trkpt lat="44.41777" lon="5.15422">
        <ele>679.7</ele>
        <time>2022-10-16T13:08:40Z</time>
      </trkpt>
      <trkpt lat="44.41777" lon="5.15421">
        <ele>680.1</ele>
        <time>2022-10-16T13:08:39Z</time>
      </trkpt>
      <trkpt lat="44.41778" lon="5.15421">
        <ele>680.3</ele>
        <time>2022-10-16T13:08:38Z</time>
      </trkpt>
      <trkpt lat="44.41779" lon="5.1542">
        <ele>681</ele>
        <time>2022-10-16T13:08:36Z</time>
      </trkpt>
      <trkpt lat="44.4178" lon="5.1542">
        <ele>681.2</ele>
        <time>2022-10-16T13:08:34Z</time>
      </trkpt>
      <trkpt lat="44.41781" lon="5.1542">
        <ele>681.5</ele>
        <time>2022-10-16T13:08:33Z</time>
      </trkpt>
      <trkpt lat="44.41782" lon="5.15419">
        <ele>682.2</ele>
        <time>2022-10-16T13:08:32Z</time>
      </trkpt>
      <trkpt lat="44.41783" lon="5.15419">
        <ele>682.4</ele>
        <time>2022-10-16T13:08:31Z</time>
      </trkpt>
      <trkpt lat="44.41784" lon="5.15419">
        <ele>682.7</ele>
        <time>2022-10-16T13:08:30Z</time>
      </trkpt>
      <trkpt lat="44.41785" lon="5.15418">
        <ele>683.3</ele>
        <time>2022-10-16T13:08:28Z</time>
      </trkpt>
      <trkpt lat="44.41786" lon="5.15418">
        <ele>683.6</ele>
        <time>2022-10-16T13:08:27Z</time>
      </trkpt>
      <trkpt lat="44.41787" lon="5.15418">
        <ele>683.8</ele>
        <time>2022-10-16T13:08:26Z</time>
      </trkpt>
      <trkpt lat="44.41788" lon="5.15418">
        <ele>684.1</ele>
        <time>2022-10-16T13:08:24Z</time>
      </trkpt>
      <trkpt lat="44.41789" lon="5.15417">
        <ele>684.7</ele>
        <time>2022-10-16T13:08:23Z</time>
      </trkpt>
      <trkpt lat="44.4179" lon="5.15417">
        <ele>685</ele>
        <time>2022-10-16T13:08:22Z</time>
      </trkpt>
      <trkpt lat="44.4179" lon="5.15416">
        <ele>685.3</ele>
        <time>2022-10-16T13:08:21Z</time>
      </trkpt>
      <trkpt lat="44.41791" lon="5.15416">
        <ele>685.6</ele>
        <time>2022-10-16T13:08:20Z</time>
      </trkpt>
      <trkpt lat="44.41792" lon="5.15416">
        <ele>685.8</ele>
        <time>2022-10-16T13:08:18Z</time>
      </trkpt>
      <trkpt lat="44.41793" lon="5.15416">
        <ele>686.1</ele>
        <time>2022-10-16T13:08:17Z</time>
      </trkpt>
      <trkpt lat="44.41794" lon="5.15416">
        <ele>686.3</ele>
        <time>2022-10-16T13:08:16Z</time>
      </trkpt>
      <trkpt lat="44.41795" lon="5.15415">
        <ele>686.9</ele>
        <time>2022-10-16T13:08:15Z</time>
      </trkpt>
      <trkpt lat="44.41796" lon="5.15415">
        <ele>687.1</ele>
        <time>2022-10-16T13:08:14Z</time>
      </trkpt>
      <trkpt lat="44.41797" lon="5.15415">
        <ele>687.4</ele>
        <time>2022-10-16T13:08:13Z</time>
      </trkpt>
      <trkpt lat="44.41798" lon="5.15414">
        <ele>687.9</ele>
        <time>2022-10-16T13:08:12Z</time>
      </trkpt>
      <trkpt lat="44.41799" lon="5.15414">
        <ele>688.2</ele>
        <time>2022-10-16T13:08:11Z</time>
      </trkpt>
      <trkpt lat="44.418" lon="5.15413">
        <ele>688.7</ele>
        <time>2022-10-16T13:08:10Z</time>
      </trkpt>
      <trkpt lat="44.41802" lon="5.15413">
        <ele>689.2</ele>
        <time>2022-10-16T13:08:09Z</time>
      </trkpt>
      <trkpt lat="44.41803" lon="5.15412">
        <ele>689.7</ele>
        <time>2022-10-16T13:08:08Z</time>
      </trkpt>
      <trkpt lat="44.41804" lon="5.15412">
        <ele>690</ele>
        <time>2022-10-16T13:08:07Z</time>
      </trkpt>
      <trkpt lat="44.41805" lon="5.15411">
        <ele>690.5</ele>
        <time>2022-10-16T13:08:06Z</time>
      </trkpt>
      <trkpt lat="44.41806" lon="5.15411">
        <ele>690.7</ele>
        <time>2022-10-16T13:08:05Z</time>
      </trkpt>
      <trkpt lat="44.41807" lon="5.15411">
        <ele>690.9</ele>
        <time>2022-10-16T13:08:03Z</time>
      </trkpt>
      <trkpt lat="44.41808" lon="5.15411">
        <ele>691.1</ele>
        <time>2022-10-16T13:08:02Z</time>
      </trkpt>
      <trkpt lat="44.41809" lon="5.1541">
        <ele>691.5</ele>
        <time>2022-10-16T13:08:01Z</time>
      </trkpt>
      <trkpt lat="44.4181" lon="5.1541">
        <ele>691.7</ele>
        <time>2022-10-16T13:08:00Z</time>
      </trkpt>
      <trkpt lat="44.41811" lon="5.1541">
        <ele>691.9</ele>
        <time>2022-10-16T13:07:59Z</time>
      </trkpt>
      <trkpt lat="44.41812" lon="5.1541">
        <ele>692</ele>
        <time>2022-10-16T13:07:58Z</time>
      </trkpt>
      <trkpt lat="44.41812" lon="5.15409">
        <ele>692.3</ele>
        <time>2022-10-16T13:07:57Z</time>
      </trkpt>
      <trkpt lat="44.41813" lon="5.15409">
        <ele>692.5</ele>
        <time>2022-10-16T13:07:56Z</time>
      </trkpt>
      <trkpt lat="44.41814" lon="5.15408">
        <ele>692.9</ele>
        <time>2022-10-16T13:07:55Z</time>
      </trkpt>
      <trkpt lat="44.41815" lon="5.15408">
        <ele>693.1</ele>
        <time>2022-10-16T13:07:54Z</time>
      </trkpt>
      <trkpt lat="44.41815" lon="5.15407">
        <ele>693.4</ele>
        <time>2022-10-16T13:07:53Z</time>
      </trkpt>
      <trkpt lat="44.41816" lon="5.15406">
        <ele>693.8</ele>
        <time>2022-10-16T13:07:52Z</time>
      </trkpt>
      <trkpt lat="44.41817" lon="5.15405">
        <ele>694.2</ele>
        <time>2022-10-16T13:07:51Z</time>
      </trkpt>
      <trkpt lat="44.41818" lon="5.15404">
        <ele>694.7</ele>
        <time>2022-10-16T13:07:50Z</time>
      </trkpt>
      <trkpt lat="44.41819" lon="5.15403">
        <ele>695.1</ele>
        <time>2022-10-16T13:07:49Z</time>
      </trkpt>
      <trkpt lat="44.41819" lon="5.15402">
        <ele>695.4</ele>
        <time>2022-10-16T13:07:48Z</time>
      </trkpt>
      <trkpt lat="44.4182" lon="5.15401">
        <ele>695.8</ele>
        <time>2022-10-16T13:07:46Z</time>
      </trkpt>
      <trkpt lat="44.4182" lon="5.154">
        <ele>696.1</ele>
        <time>2022-10-16T13:07:45Z</time>
      </trkpt>
      <trkpt lat="44.41821" lon="5.154">
        <ele>696.2</ele>
        <time>2022-10-16T13:07:44Z</time>
      </trkpt>
      <trkpt lat="44.41821" lon="5.15399">
        <ele>696.5</ele>
        <time>2022-10-16T13:07:43Z</time>
      </trkpt>
      <trkpt lat="44.41822" lon="5.15399">
        <ele>696.7</ele>
        <time>2022-10-16T13:07:42Z</time>
      </trkpt>
      <trkpt lat="44.41823" lon="5.15398">
        <ele>697.1</ele>
        <time>2022-10-16T13:07:40Z</time>
      </trkpt>
      <trkpt lat="44.41824" lon="5.15397">
        <ele>697.5</ele>
        <time>2022-10-16T13:07:39Z</time>
      </trkpt>
      <trkpt lat="44.41824" lon="5.15396">
        <ele>697.8</ele>
        <time>2022-10-16T13:07:38Z</time>
      </trkpt>
      <trkpt lat="44.41825" lon="5.15396">
        <ele>697.9</ele>
        <time>2022-10-16T13:07:37Z</time>
      </trkpt>
      <trkpt lat="44.41825" lon="5.15395">
        <ele>698.2</ele>
        <time>2022-10-16T13:07:36Z</time>
      </trkpt>
      <trkpt lat="44.41826" lon="5.15395">
        <ele>698.3</ele>
        <time>2022-10-16T13:07:35Z</time>
      </trkpt>
      <trkpt lat="44.41827" lon="5.15394">
        <ele>698.8</ele>
        <time>2022-10-16T13:07:33Z</time>
      </trkpt>
      <trkpt lat="44.41828" lon="5.15393">
        <ele>699.2</ele>
        <time>2022-10-16T13:07:32Z</time>
      </trkpt>
      <trkpt lat="44.41829" lon="5.15393">
        <ele>699.3</ele>
        <time>2022-10-16T13:07:31Z</time>
      </trkpt>
      <trkpt lat="44.4183" lon="5.15392">
        <ele>699.7</ele>
        <time>2022-10-16T13:07:30Z</time>
      </trkpt>
      <trkpt lat="44.41831" lon="5.15391">
        <ele>700.1</ele>
        <time>2022-10-16T13:07:29Z</time>
      </trkpt>
      <trkpt lat="44.41832" lon="5.15391">
        <ele>700.3</ele>
        <time>2022-10-16T13:07:28Z</time>
      </trkpt>
      <trkpt lat="44.41833" lon="5.1539">
        <ele>700.7</ele>
        <time>2022-10-16T13:07:26Z</time>
      </trkpt>
      <trkpt lat="44.41834" lon="5.15389">
        <ele>701.1</ele>
        <time>2022-10-16T13:07:25Z</time>
      </trkpt>
      <trkpt lat="44.41835" lon="5.15388">
        <ele>701.5</ele>
        <time>2022-10-16T13:07:24Z</time>
      </trkpt>
      <trkpt lat="44.41836" lon="5.15388">
        <ele>701.6</ele>
        <time>2022-10-16T13:07:23Z</time>
      </trkpt>
      <trkpt lat="44.41836" lon="5.15387">
        <ele>701.8</ele>
        <time>2022-10-16T13:07:22Z</time>
      </trkpt>
      <trkpt lat="44.41837" lon="5.15386">
        <ele>702.2</ele>
        <time>2022-10-16T13:07:20Z</time>
      </trkpt>
      <trkpt lat="44.41838" lon="5.15385">
        <ele>702.6</ele>
        <time>2022-10-16T13:07:19Z</time>
      </trkpt>
      <trkpt lat="44.41839" lon="5.15384">
        <ele>702.9</ele>
        <time>2022-10-16T13:07:18Z</time>
      </trkpt>
      <trkpt lat="44.41839" lon="5.15383">
        <ele>703.1</ele>
        <time>2022-10-16T13:07:17Z</time>
      </trkpt>
      <trkpt lat="44.4184" lon="5.15382">
        <ele>703.5</ele>
        <time>2022-10-16T13:07:16Z</time>
      </trkpt>
      <trkpt lat="44.41841" lon="5.15381">
        <ele>703.9</ele>
        <time>2022-10-16T13:07:15Z</time>
      </trkpt>
      <trkpt lat="44.41842" lon="5.1538">
        <ele>704.3</ele>
        <time>2022-10-16T13:07:14Z</time>
      </trkpt>
      <trkpt lat="44.41842" lon="5.15379">
        <ele>704.5</ele>
        <time>2022-10-16T13:07:13Z</time>
      </trkpt>
      <trkpt lat="44.41843" lon="5.15378">
        <ele>704.8</ele>
        <time>2022-10-16T13:07:12Z</time>
      </trkpt>
      <trkpt lat="44.41844" lon="5.15378">
        <ele>705</ele>
        <time>2022-10-16T13:07:11Z</time>
      </trkpt>
      <trkpt lat="44.41845" lon="5.15377">
        <ele>705.4</ele>
        <time>2022-10-16T13:07:10Z</time>
      </trkpt>
      <trkpt lat="44.41846" lon="5.15377">
        <ele>705.6</ele>
        <time>2022-10-16T13:07:09Z</time>
      </trkpt>
      <trkpt lat="44.41847" lon="5.15376">
        <ele>706</ele>
        <time>2022-10-16T13:07:08Z</time>
      </trkpt>
      <trkpt lat="44.41848" lon="5.15376">
        <ele>706.2</ele>
        <time>2022-10-16T13:07:07Z</time>
      </trkpt>
      <trkpt lat="44.41849" lon="5.15376">
        <ele>706.4</ele>
        <time>2022-10-16T13:07:06Z</time>
      </trkpt>
      <trkpt lat="44.4185" lon="5.15375">
        <ele>706.8</ele>
        <time>2022-10-16T13:07:04Z</time>
      </trkpt>
      <trkpt lat="44.41851" lon="5.15375">
        <ele>707</ele>
        <time>2022-10-16T13:07:03Z</time>
      </trkpt>
      <trkpt lat="44.41852" lon="5.15375">
        <ele>707.2</ele>
        <time>2022-10-16T13:07:02Z</time>
      </trkpt>
      <trkpt lat="44.41853" lon="5.15374">
        <ele>707.6</ele>
        <time>2022-10-16T13:07:01Z</time>
      </trkpt>
      <trkpt lat="44.41854" lon="5.15374">
        <ele>707.8</ele>
        <time>2022-10-16T13:07:00Z</time>
      </trkpt>
      <trkpt lat="44.41855" lon="5.15374">
        <ele>708</ele>
        <time>2022-10-16T13:06:59Z</time>
      </trkpt>
      <trkpt lat="44.41856" lon="5.15373">
        <ele>708.4</ele>
        <time>2022-10-16T13:06:58Z</time>
      </trkpt>
      <trkpt lat="44.41857" lon="5.15372">
        <ele>708.8</ele>
        <time>2022-10-16T13:06:57Z</time>
      </trkpt>
      <trkpt lat="44.41858" lon="5.15371">
        <ele>709.2</ele>
        <time>2022-10-16T13:06:56Z</time>
      </trkpt>
      <trkpt lat="44.41859" lon="5.1537">
        <ele>709.6</ele>
        <time>2022-10-16T13:06:55Z</time>
      </trkpt>
      <trkpt lat="44.4186" lon="5.15369">
        <ele>710.1</ele>
        <time>2022-10-16T13:06:54Z</time>
      </trkpt>
      <trkpt lat="44.41861" lon="5.15368">
        <ele>710.5</ele>
        <time>2022-10-16T13:06:53Z</time>
      </trkpt>
      <trkpt lat="44.41862" lon="5.15367">
        <ele>710.9</ele>
        <time>2022-10-16T13:06:52Z</time>
      </trkpt>
      <trkpt lat="44.41863" lon="5.15366">
        <ele>711.4</ele>
        <time>2022-10-16T13:06:50Z</time>
      </trkpt>
      <trkpt lat="44.41863" lon="5.15365">
        <ele>711.6</ele>
        <time>2022-10-16T13:06:49Z</time>
      </trkpt>
      <trkpt lat="44.41864" lon="5.15364">
        <ele>712.1</ele>
        <time>2022-10-16T13:06:48Z</time>
      </trkpt>
      <trkpt lat="44.41864" lon="5.15363">
        <ele>712.3</ele>
        <time>2022-10-16T13:06:47Z</time>
      </trkpt>
      <trkpt lat="44.41865" lon="5.15362">
        <ele>712.8</ele>
        <time>2022-10-16T13:06:45Z</time>
      </trkpt>
      <trkpt lat="44.41866" lon="5.15361">
        <ele>713.3</ele>
        <time>2022-10-16T13:06:43Z</time>
      </trkpt>
      <trkpt lat="44.41867" lon="5.15361">
        <ele>713.5</ele>
        <time>2022-10-16T13:06:40Z</time>
      </trkpt>
      <trkpt lat="44.41868" lon="5.15361">
        <ele>713.8</ele>
        <time>2022-10-16T13:06:38Z</time>
      </trkpt>
      <trkpt lat="44.41869" lon="5.15361">
        <ele>714</ele>
        <time>2022-10-16T13:06:37Z</time>
      </trkpt>
      <trkpt lat="44.4187" lon="5.15362">
        <ele>714</ele>
        <time>2022-10-16T13:06:36Z</time>
      </trkpt>
      <trkpt lat="44.41871" lon="5.15362">
        <ele>714.3</ele>
        <time>2022-10-16T13:06:34Z</time>
      </trkpt>
      <trkpt lat="44.41872" lon="5.15362">
        <ele>714.5</ele>
        <time>2022-10-16T13:06:33Z</time>
      </trkpt>
      <trkpt lat="44.41873" lon="5.15363">
        <ele>714.6</ele>
        <time>2022-10-16T13:06:31Z</time>
      </trkpt>
      <trkpt lat="44.41874" lon="5.15363">
        <ele>714.8</ele>
        <time>2022-10-16T13:06:30Z</time>
      </trkpt>
      <trkpt lat="44.41875" lon="5.15363">
        <ele>715.1</ele>
        <time>2022-10-16T13:06:29Z</time>
      </trkpt>
      <trkpt lat="44.41876" lon="5.15364">
        <ele>715.1</ele>
        <time>2022-10-16T13:06:28Z</time>
      </trkpt>
      <trkpt lat="44.41877" lon="5.15364">
        <ele>715.3</ele>
        <time>2022-10-16T13:06:27Z</time>
      </trkpt>
      <trkpt lat="44.41878" lon="5.15364">
        <ele>715.6</ele>
        <time>2022-10-16T13:06:26Z</time>
      </trkpt>
      <trkpt lat="44.41879" lon="5.15364">
        <ele>715.8</ele>
        <time>2022-10-16T13:06:25Z</time>
      </trkpt>
      <trkpt lat="44.4188" lon="5.15363">
        <ele>716.3</ele>
        <time>2022-10-16T13:06:24Z</time>
      </trkpt>
      <trkpt lat="44.41881" lon="5.15363">
        <ele>716.6</ele>
        <time>2022-10-16T13:06:23Z</time>
      </trkpt>
      <trkpt lat="44.41882" lon="5.15363">
        <ele>716.8</ele>
        <time>2022-10-16T13:06:22Z</time>
      </trkpt>
      <trkpt lat="44.41883" lon="5.15363">
        <ele>717.1</ele>
        <time>2022-10-16T13:06:21Z</time>
      </trkpt>
      <trkpt lat="44.41884" lon="5.15362">
        <ele>717.5</ele>
        <time>2022-10-16T13:06:20Z</time>
      </trkpt>
      <trkpt lat="44.41885" lon="5.15362">
        <ele>717.8</ele>
        <time>2022-10-16T13:06:19Z</time>
      </trkpt>
      <trkpt lat="44.41886" lon="5.15362">
        <ele>718.1</ele>
        <time>2022-10-16T13:06:17Z</time>
      </trkpt>
      <trkpt lat="44.41887" lon="5.15361">
        <ele>718.5</ele>
        <time>2022-10-16T13:06:15Z</time>
      </trkpt>
      <trkpt lat="44.41888" lon="5.1536">
        <ele>719</ele>
        <time>2022-10-16T13:06:14Z</time>
      </trkpt>
      <trkpt lat="44.41889" lon="5.15359">
        <ele>719.4</ele>
        <time>2022-10-16T13:06:12Z</time>
      </trkpt>
      <trkpt lat="44.4189" lon="5.15358">
        <ele>719.8</ele>
        <time>2022-10-16T13:06:10Z</time>
      </trkpt>
      <trkpt lat="44.41891" lon="5.15357">
        <ele>720.1</ele>
        <time>2022-10-16T13:06:08Z</time>
      </trkpt>
      <trkpt lat="44.41892" lon="5.15356">
        <ele>720.5</ele>
        <time>2022-10-16T13:06:07Z</time>
      </trkpt>
      <trkpt lat="44.41893" lon="5.15355">
        <ele>720.8</ele>
        <time>2022-10-16T13:06:05Z</time>
      </trkpt>
      <trkpt lat="44.41893" lon="5.15354">
        <ele>721</ele>
        <time>2022-10-16T13:06:04Z</time>
      </trkpt>
      <trkpt lat="44.41894" lon="5.15353">
        <ele>721.3</ele>
        <time>2022-10-16T13:06:03Z</time>
      </trkpt>
      <trkpt lat="44.41895" lon="5.15352">
        <ele>721.7</ele>
        <time>2022-10-16T13:06:02Z</time>
      </trkpt>
      <trkpt lat="44.41896" lon="5.15351">
        <ele>722</ele>
        <time>2022-10-16T13:06:01Z</time>
      </trkpt>
      <trkpt lat="44.41896" lon="5.1535">
        <ele>722.2</ele>
        <time>2022-10-16T13:06:00Z</time>
      </trkpt>
      <trkpt lat="44.41897" lon="5.1535">
        <ele>722.3</ele>
        <time>2022-10-16T13:05:59Z</time>
      </trkpt>
      <trkpt lat="44.41897" lon="5.15349">
        <ele>722.5</ele>
        <time>2022-10-16T13:05:56Z</time>
      </trkpt>
      <trkpt lat="44.41898" lon="5.15349">
        <ele>722.7</ele>
        <time>2022-10-16T13:05:55Z</time>
      </trkpt>
      <trkpt lat="44.41898" lon="5.15348">
        <ele>722.8</ele>
        <time>2022-10-16T13:05:54Z</time>
      </trkpt>
      <trkpt lat="44.41899" lon="5.15347">
        <ele>723.2</ele>
        <time>2022-10-16T13:05:53Z</time>
      </trkpt>
      <trkpt lat="44.419" lon="5.15347">
        <ele>723.3</ele>
        <time>2022-10-16T13:05:52Z</time>
      </trkpt>
      <trkpt lat="44.41901" lon="5.15347">
        <ele>723.5</ele>
        <time>2022-10-16T13:05:51Z</time>
      </trkpt>
      <trkpt lat="44.41901" lon="5.15346">
        <ele>723.7</ele>
        <time>2022-10-16T13:05:50Z</time>
      </trkpt>
      <trkpt lat="44.41902" lon="5.15346">
        <ele>723.8</ele>
        <time>2022-10-16T13:05:49Z</time>
      </trkpt>
      <trkpt lat="44.41903" lon="5.15346">
        <ele>724</ele>
        <time>2022-10-16T13:05:48Z</time>
      </trkpt>
      <trkpt lat="44.41904" lon="5.15346">
        <ele>724.1</ele>
        <time>2022-10-16T13:05:47Z</time>
      </trkpt>
      <trkpt lat="44.41905" lon="5.15346">
        <ele>724.3</ele>
        <time>2022-10-16T13:05:46Z</time>
      </trkpt>
      <trkpt lat="44.41906" lon="5.15346">
        <ele>724.5</ele>
        <time>2022-10-16T13:05:45Z</time>
      </trkpt>
      <trkpt lat="44.41907" lon="5.15345">
        <ele>724.8</ele>
        <time>2022-10-16T13:05:44Z</time>
      </trkpt>
      <trkpt lat="44.41908" lon="5.15345">
        <ele>724.9</ele>
        <time>2022-10-16T13:05:43Z</time>
      </trkpt>
      <trkpt lat="44.41909" lon="5.15345">
        <ele>725.1</ele>
        <time>2022-10-16T13:05:42Z</time>
      </trkpt>
      <trkpt lat="44.4191" lon="5.15345">
        <ele>725.3</ele>
        <time>2022-10-16T13:05:41Z</time>
      </trkpt>
      <trkpt lat="44.41911" lon="5.15344">
        <ele>725.6</ele>
        <time>2022-10-16T13:05:40Z</time>
      </trkpt>
      <trkpt lat="44.41912" lon="5.15344">
        <ele>725.7</ele>
        <time>2022-10-16T13:05:39Z</time>
      </trkpt>
      <trkpt lat="44.41913" lon="5.15344">
        <ele>725.9</ele>
        <time>2022-10-16T13:05:38Z</time>
      </trkpt>
      <trkpt lat="44.41914" lon="5.15344">
        <ele>726</ele>
        <time>2022-10-16T13:05:37Z</time>
      </trkpt>
      <trkpt lat="44.41915" lon="5.15344">
        <ele>726.2</ele>
        <time>2022-10-16T13:05:36Z</time>
      </trkpt>
      <trkpt lat="44.41917" lon="5.15344">
        <ele>726.5</ele>
        <time>2022-10-16T13:05:35Z</time>
      </trkpt>
      <trkpt lat="44.41918" lon="5.15344">
        <ele>726.7</ele>
        <time>2022-10-16T13:05:34Z</time>
      </trkpt>
      <trkpt lat="44.41919" lon="5.15343">
        <ele>727</ele>
        <time>2022-10-16T13:05:33Z</time>
      </trkpt>
      <trkpt lat="44.4192" lon="5.15343">
        <ele>727.1</ele>
        <time>2022-10-16T13:05:32Z</time>
      </trkpt>
      <trkpt lat="44.41921" lon="5.15343">
        <ele>727.3</ele>
        <time>2022-10-16T13:05:31Z</time>
      </trkpt>
      <trkpt lat="44.41922" lon="5.15343">
        <ele>727.4</ele>
        <time>2022-10-16T13:05:30Z</time>
      </trkpt>
      <trkpt lat="44.41923" lon="5.15343">
        <ele>727.6</ele>
        <time>2022-10-16T13:05:29Z</time>
      </trkpt>
      <trkpt lat="44.41924" lon="5.15343">
        <ele>727.8</ele>
        <time>2022-10-16T13:05:28Z</time>
      </trkpt>
      <trkpt lat="44.41925" lon="5.15343">
        <ele>727.9</ele>
        <time>2022-10-16T13:05:27Z</time>
      </trkpt>
      <trkpt lat="44.41926" lon="5.15342">
        <ele>728.2</ele>
        <time>2022-10-16T13:05:26Z</time>
      </trkpt>
      <trkpt lat="44.41927" lon="5.15342">
        <ele>728.4</ele>
        <time>2022-10-16T13:05:25Z</time>
      </trkpt>
      <trkpt lat="44.41928" lon="5.15342">
        <ele>728.5</ele>
        <time>2022-10-16T13:05:24Z</time>
      </trkpt>
      <trkpt lat="44.41929" lon="5.15342">
        <ele>728.7</ele>
        <time>2022-10-16T13:05:23Z</time>
      </trkpt>
      <trkpt lat="44.4193" lon="5.15342">
        <ele>728.8</ele>
        <time>2022-10-16T13:05:22Z</time>
      </trkpt>
      <trkpt lat="44.4193" lon="5.15341">
        <ele>728.9</ele>
        <time>2022-10-16T13:05:21Z</time>
      </trkpt>
      <trkpt lat="44.41931" lon="5.15341">
        <ele>729.1</ele>
        <time>2022-10-16T13:05:20Z</time>
      </trkpt>
      <trkpt lat="44.41932" lon="5.15341">
        <ele>729.3</ele>
        <time>2022-10-16T13:05:19Z</time>
      </trkpt>
      <trkpt lat="44.41933" lon="5.1534">
        <ele>729.5</ele>
        <time>2022-10-16T13:05:18Z</time>
      </trkpt>
      <trkpt lat="44.41933" lon="5.15339">
        <ele>729.7</ele>
        <time>2022-10-16T13:05:17Z</time>
      </trkpt>
      <trkpt lat="44.41934" lon="5.15338">
        <ele>729.9</ele>
        <time>2022-10-16T13:05:16Z</time>
      </trkpt>
      <trkpt lat="44.41935" lon="5.15337">
        <ele>730.2</ele>
        <time>2022-10-16T13:05:15Z</time>
      </trkpt>
      <trkpt lat="44.41936" lon="5.15336">
        <ele>730.5</ele>
        <time>2022-10-16T13:05:14Z</time>
      </trkpt>
      <trkpt lat="44.41938" lon="5.15335">
        <ele>730.9</ele>
        <time>2022-10-16T13:05:05Z</time>
      </trkpt>
      <trkpt lat="44.41939" lon="5.15336">
        <ele>730.9</ele>
        <time>2022-10-16T13:05:04Z</time>
      </trkpt>
      <trkpt lat="44.4194" lon="5.15336">
        <ele>731.1</ele>
        <time>2022-10-16T13:05:03Z</time>
      </trkpt>
      <trkpt lat="44.41941" lon="5.15337">
        <ele>731.1</ele>
        <time>2022-10-16T13:05:02Z</time>
      </trkpt>
      <trkpt lat="44.41942" lon="5.15337">
        <ele>731.2</ele>
        <time>2022-10-16T13:05:01Z</time>
      </trkpt>
      <trkpt lat="44.41943" lon="5.15337">
        <ele>731.4</ele>
        <time>2022-10-16T13:05:00Z</time>
      </trkpt>
      <trkpt lat="44.41945" lon="5.15337">
        <ele>731.7</ele>
        <time>2022-10-16T13:04:59Z</time>
      </trkpt>
      <trkpt lat="44.41946" lon="5.15337">
        <ele>731.9</ele>
        <time>2022-10-16T13:04:58Z</time>
      </trkpt>
      <trkpt lat="44.41947" lon="5.15337">
        <ele>732.2</ele>
        <time>2022-10-16T13:04:57Z</time>
      </trkpt>
      <trkpt lat="44.41949" lon="5.15338">
        <ele>732.5</ele>
        <time>2022-10-16T13:04:56Z</time>
      </trkpt>
      <trkpt lat="44.4195" lon="5.15338">
        <ele>732.7</ele>
        <time>2022-10-16T13:04:55Z</time>
      </trkpt>
      <trkpt lat="44.41951" lon="5.15338">
        <ele>732.9</ele>
        <time>2022-10-16T13:04:54Z</time>
      </trkpt>
      <trkpt lat="44.41952" lon="5.15339">
        <ele>733</ele>
        <time>2022-10-16T13:04:53Z</time>
      </trkpt>
      <trkpt lat="44.41953" lon="5.15339">
        <ele>733.2</ele>
        <time>2022-10-16T13:04:52Z</time>
      </trkpt>
      <trkpt lat="44.41953" lon="5.1534">
        <ele>733.1</ele>
        <time>2022-10-16T13:04:51Z</time>
      </trkpt>
      <trkpt lat="44.41955" lon="5.1534">
        <ele>733.6</ele>
        <time>2022-10-16T13:04:50Z</time>
      </trkpt>
      <trkpt lat="44.41956" lon="5.15341">
        <ele>733.7</ele>
        <time>2022-10-16T13:04:49Z</time>
      </trkpt>
      <trkpt lat="44.41957" lon="5.15341">
        <ele>733.9</ele>
        <time>2022-10-16T13:04:48Z</time>
      </trkpt>
      <trkpt lat="44.41958" lon="5.15341">
        <ele>734.1</ele>
        <time>2022-10-16T13:04:47Z</time>
      </trkpt>
      <trkpt lat="44.41959" lon="5.15341">
        <ele>734.3</ele>
        <time>2022-10-16T13:04:46Z</time>
      </trkpt>
      <trkpt lat="44.4196" lon="5.15342">
        <ele>734.4</ele>
        <time>2022-10-16T13:04:45Z</time>
      </trkpt>
      <trkpt lat="44.41961" lon="5.15342">
        <ele>734.6</ele>
        <time>2022-10-16T13:04:44Z</time>
      </trkpt>
      <trkpt lat="44.41962" lon="5.15342">
        <ele>734.9</ele>
        <time>2022-10-16T13:04:43Z</time>
      </trkpt>
      <trkpt lat="44.41963" lon="5.15342">
        <ele>735.1</ele>
        <time>2022-10-16T13:04:42Z</time>
      </trkpt>
      <trkpt lat="44.41964" lon="5.15342">
        <ele>735.3</ele>
        <time>2022-10-16T13:04:41Z</time>
      </trkpt>
      <trkpt lat="44.41965" lon="5.15342">
        <ele>735.5</ele>
        <time>2022-10-16T13:04:40Z</time>
      </trkpt>
      <trkpt lat="44.41966" lon="5.15342">
        <ele>735.7</ele>
        <time>2022-10-16T13:04:39Z</time>
      </trkpt>
      <trkpt lat="44.41967" lon="5.15342">
        <ele>735.9</ele>
        <time>2022-10-16T13:04:38Z</time>
      </trkpt>
      <trkpt lat="44.41968" lon="5.15342">
        <ele>736.2</ele>
        <time>2022-10-16T13:04:37Z</time>
      </trkpt>
      <trkpt lat="44.41969" lon="5.15341">
        <ele>736.5</ele>
        <time>2022-10-16T13:04:36Z</time>
      </trkpt>
      <trkpt lat="44.4197" lon="5.1534">
        <ele>736.8</ele>
        <time>2022-10-16T13:04:35Z</time>
      </trkpt>
      <trkpt lat="44.4197" lon="5.15339">
        <ele>736.9</ele>
        <time>2022-10-16T13:04:34Z</time>
      </trkpt>
      <trkpt lat="44.41971" lon="5.15338">
        <ele>737.2</ele>
        <time>2022-10-16T13:04:33Z</time>
      </trkpt>
      <trkpt lat="44.41972" lon="5.15337">
        <ele>737.6</ele>
        <time>2022-10-16T13:04:32Z</time>
      </trkpt>
      <trkpt lat="44.41973" lon="5.15337">
        <ele>737.8</ele>
        <time>2022-10-16T13:04:31Z</time>
      </trkpt>
      <trkpt lat="44.41974" lon="5.15336">
        <ele>738.1</ele>
        <time>2022-10-16T13:04:30Z</time>
      </trkpt>
      <trkpt lat="44.41974" lon="5.15335">
        <ele>738.2</ele>
        <time>2022-10-16T13:04:29Z</time>
      </trkpt>
      <trkpt lat="44.41976" lon="5.15335">
        <ele>738.6</ele>
        <time>2022-10-16T13:04:28Z</time>
      </trkpt>
      <trkpt lat="44.41977" lon="5.15334">
        <ele>739</ele>
        <time>2022-10-16T13:04:27Z</time>
      </trkpt>
      <trkpt lat="44.41978" lon="5.15333">
        <ele>739.3</ele>
        <time>2022-10-16T13:04:26Z</time>
      </trkpt>
      <trkpt lat="44.41979" lon="5.15333">
        <ele>739.5</ele>
        <time>2022-10-16T13:04:25Z</time>
      </trkpt>
      <trkpt lat="44.4198" lon="5.15332">
        <ele>739.8</ele>
        <time>2022-10-16T13:04:24Z</time>
      </trkpt>
      <trkpt lat="44.41981" lon="5.15331">
        <ele>740.2</ele>
        <time>2022-10-16T13:04:23Z</time>
      </trkpt>
      <trkpt lat="44.41982" lon="5.1533">
        <ele>740.5</ele>
        <time>2022-10-16T13:04:22Z</time>
      </trkpt>
      <trkpt lat="44.41983" lon="5.15329">
        <ele>740.9</ele>
        <time>2022-10-16T13:04:21Z</time>
      </trkpt>
      <trkpt lat="44.41983" lon="5.15328">
        <ele>741</ele>
        <time>2022-10-16T13:04:20Z</time>
      </trkpt>
      <trkpt lat="44.41984" lon="5.15327">
        <ele>741.3</ele>
        <time>2022-10-16T13:04:19Z</time>
      </trkpt>
      <trkpt lat="44.41985" lon="5.15326">
        <ele>741.7</ele>
        <time>2022-10-16T13:04:18Z</time>
      </trkpt>
      <trkpt lat="44.41985" lon="5.15325">
        <ele>741.8</ele>
        <time>2022-10-16T13:04:17Z</time>
      </trkpt>
      <trkpt lat="44.41986" lon="5.15324">
        <ele>742.2</ele>
        <time>2022-10-16T13:04:16Z</time>
      </trkpt>
      <trkpt lat="44.41986" lon="5.15323">
        <ele>742.3</ele>
        <time>2022-10-16T13:04:15Z</time>
      </trkpt>
      <trkpt lat="44.41987" lon="5.15321">
        <ele>742.8</ele>
        <time>2022-10-16T13:04:08Z</time>
      </trkpt>
      <trkpt lat="44.41988" lon="5.15321">
        <ele>743</ele>
        <time>2022-10-16T13:04:07Z</time>
      </trkpt>
      <trkpt lat="44.41989" lon="5.1532">
        <ele>743.4</ele>
        <time>2022-10-16T13:04:06Z</time>
      </trkpt>
      <trkpt lat="44.4199" lon="5.1532">
        <ele>743.6</ele>
        <time>2022-10-16T13:04:05Z</time>
      </trkpt>
      <trkpt lat="44.41991" lon="5.1532">
        <ele>743.8</ele>
        <time>2022-10-16T13:04:04Z</time>
      </trkpt>
      <trkpt lat="44.41993" lon="5.15319">
        <ele>744.4</ele>
        <time>2022-10-16T13:04:03Z</time>
      </trkpt>
      <trkpt lat="44.41994" lon="5.15319">
        <ele>744.7</ele>
        <time>2022-10-16T13:04:02Z</time>
      </trkpt>
      <trkpt lat="44.41995" lon="5.15319">
        <ele>744.9</ele>
        <time>2022-10-16T13:04:01Z</time>
      </trkpt>
      <trkpt lat="44.41996" lon="5.15318">
        <ele>745.3</ele>
        <time>2022-10-16T13:04:00Z</time>
      </trkpt>
      <trkpt lat="44.41997" lon="5.15318">
        <ele>745.5</ele>
        <time>2022-10-16T13:03:59Z</time>
      </trkpt>
      <trkpt lat="44.41998" lon="5.15317">
        <ele>745.9</ele>
        <time>2022-10-16T13:03:58Z</time>
      </trkpt>
      <trkpt lat="44.41999" lon="5.15316">
        <ele>746.3</ele>
        <time>2022-10-16T13:03:57Z</time>
      </trkpt>
      <trkpt lat="44.42" lon="5.15316">
        <ele>746.5</ele>
        <time>2022-10-16T13:03:56Z</time>
      </trkpt>
      <trkpt lat="44.42" lon="5.15315">
        <ele>746.6</ele>
        <time>2022-10-16T13:03:55Z</time>
      </trkpt>
      <trkpt lat="44.42001" lon="5.15315">
        <ele>746.9</ele>
        <time>2022-10-16T13:03:54Z</time>
      </trkpt>
      <trkpt lat="44.42001" lon="5.15314">
        <ele>747</ele>
        <time>2022-10-16T13:03:53Z</time>
      </trkpt>
      <trkpt lat="44.42002" lon="5.15314">
        <ele>747.2</ele>
        <time>2022-10-16T13:03:52Z</time>
      </trkpt>
      <trkpt lat="44.42003" lon="5.15313">
        <ele>747.6</ele>
        <time>2022-10-16T13:03:50Z</time>
      </trkpt>
      <trkpt lat="44.42004" lon="5.15313">
        <ele>747.8</ele>
        <time>2022-10-16T13:03:49Z</time>
      </trkpt>
      <trkpt lat="44.42004" lon="5.15312">
        <ele>747.9</ele>
        <time>2022-10-16T13:03:48Z</time>
      </trkpt>
      <trkpt lat="44.42005" lon="5.15311">
        <ele>748.3</ele>
        <time>2022-10-16T13:03:47Z</time>
      </trkpt>
      <trkpt lat="44.42006" lon="5.15311">
        <ele>748.5</ele>
        <time>2022-10-16T13:03:46Z</time>
      </trkpt>
      <trkpt lat="44.42006" lon="5.1531">
        <ele>748.7</ele>
        <time>2022-10-16T13:03:45Z</time>
      </trkpt>
      <trkpt lat="44.42007" lon="5.1531">
        <ele>748.9</ele>
        <time>2022-10-16T13:03:44Z</time>
      </trkpt>
      <trkpt lat="44.42008" lon="5.15309">
        <ele>749.2</ele>
        <time>2022-10-16T13:03:43Z</time>
      </trkpt>
      <trkpt lat="44.42009" lon="5.15309">
        <ele>749.4</ele>
        <time>2022-10-16T13:03:42Z</time>
      </trkpt>
      <trkpt lat="44.4201" lon="5.15308">
        <ele>749.8</ele>
        <time>2022-10-16T13:03:40Z</time>
      </trkpt>
      <trkpt lat="44.42011" lon="5.15307">
        <ele>750.2</ele>
        <time>2022-10-16T13:03:39Z</time>
      </trkpt>
      <trkpt lat="44.42012" lon="5.15307">
        <ele>750.4</ele>
        <time>2022-10-16T13:03:38Z</time>
      </trkpt>
      <trkpt lat="44.42013" lon="5.15306">
        <ele>750.7</ele>
        <time>2022-10-16T13:03:37Z</time>
      </trkpt>
      <trkpt lat="44.42014" lon="5.15305">
        <ele>751.1</ele>
        <time>2022-10-16T13:03:36Z</time>
      </trkpt>
      <trkpt lat="44.42015" lon="5.15304">
        <ele>751.5</ele>
        <time>2022-10-16T13:03:35Z</time>
      </trkpt>
      <trkpt lat="44.42015" lon="5.15302">
        <ele>751.9</ele>
        <time>2022-10-16T13:03:34Z</time>
      </trkpt>
      <trkpt lat="44.42016" lon="5.15301">
        <ele>752.3</ele>
        <time>2022-10-16T13:03:33Z</time>
      </trkpt>
      <trkpt lat="44.42017" lon="5.153">
        <ele>752.7</ele>
        <time>2022-10-16T13:03:32Z</time>
      </trkpt>
      <trkpt lat="44.42018" lon="5.15299">
        <ele>753.1</ele>
        <time>2022-10-16T13:03:31Z</time>
      </trkpt>
      <trkpt lat="44.42018" lon="5.15297">
        <ele>753.4</ele>
        <time>2022-10-16T13:03:30Z</time>
      </trkpt>
      <trkpt lat="44.42019" lon="5.15296">
        <ele>753.8</ele>
        <time>2022-10-16T13:03:29Z</time>
      </trkpt>
      <trkpt lat="44.4202" lon="5.15294">
        <ele>754.4</ele>
        <time>2022-10-16T13:03:28Z</time>
      </trkpt>
      <trkpt lat="44.4202" lon="5.15292">
        <ele>754.8</ele>
        <time>2022-10-16T13:03:27Z</time>
      </trkpt>
      <trkpt lat="44.42021" lon="5.15291">
        <ele>755.2</ele>
        <time>2022-10-16T13:03:26Z</time>
      </trkpt>
      <trkpt lat="44.42021" lon="5.15289">
        <ele>755.5</ele>
        <time>2022-10-16T13:03:25Z</time>
      </trkpt>
      <trkpt lat="44.42022" lon="5.15288">
        <ele>755.9</ele>
        <time>2022-10-16T13:03:24Z</time>
      </trkpt>
      <trkpt lat="44.42022" lon="5.15287">
        <ele>756.1</ele>
        <time>2022-10-16T13:03:23Z</time>
      </trkpt>
      <trkpt lat="44.42023" lon="5.15286">
        <ele>756.5</ele>
        <time>2022-10-16T13:03:22Z</time>
      </trkpt>
      <trkpt lat="44.42023" lon="5.15285">
        <ele>756.7</ele>
        <time>2022-10-16T13:03:21Z</time>
      </trkpt>
      <trkpt lat="44.42024" lon="5.15284">
        <ele>757.1</ele>
        <time>2022-10-16T13:03:20Z</time>
      </trkpt>
      <trkpt lat="44.42024" lon="5.15283">
        <ele>757.2</ele>
        <time>2022-10-16T13:03:19Z</time>
      </trkpt>
      <trkpt lat="44.42025" lon="5.15283">
        <ele>757.5</ele>
        <time>2022-10-16T13:03:18Z</time>
      </trkpt>
      <trkpt lat="44.42025" lon="5.15282">
        <ele>757.6</ele>
        <time>2022-10-16T13:03:17Z</time>
      </trkpt>
      <trkpt lat="44.42026" lon="5.15281">
        <ele>758</ele>
        <time>2022-10-16T13:03:16Z</time>
      </trkpt>
      <trkpt lat="44.42027" lon="5.1528">
        <ele>758.4</ele>
        <time>2022-10-16T13:03:15Z</time>
      </trkpt>
      <trkpt lat="44.42028" lon="5.1528">
        <ele>758.6</ele>
        <time>2022-10-16T13:03:14Z</time>
      </trkpt>
      <trkpt lat="44.42028" lon="5.15279">
        <ele>758.8</ele>
        <time>2022-10-16T13:03:13Z</time>
      </trkpt>
      <trkpt lat="44.42029" lon="5.15278">
        <ele>759.2</ele>
        <time>2022-10-16T13:03:12Z</time>
      </trkpt>
      <trkpt lat="44.4203" lon="5.15278">
        <ele>759.4</ele>
        <time>2022-10-16T13:03:11Z</time>
      </trkpt>
      <trkpt lat="44.42031" lon="5.15277">
        <ele>759.8</ele>
        <time>2022-10-16T13:03:10Z</time>
      </trkpt>
      <trkpt lat="44.42032" lon="5.15276">
        <ele>760.2</ele>
        <time>2022-10-16T13:03:09Z</time>
      </trkpt>
      <trkpt lat="44.42033" lon="5.15276">
        <ele>760.4</ele>
        <time>2022-10-16T13:03:08Z</time>
      </trkpt>
      <trkpt lat="44.42034" lon="5.15275">
        <ele>760.7</ele>
        <time>2022-10-16T13:03:06Z</time>
      </trkpt>
      <trkpt lat="44.42035" lon="5.15274">
        <ele>761.1</ele>
        <time>2022-10-16T13:03:05Z</time>
      </trkpt>
      <trkpt lat="44.42036" lon="5.15274">
        <ele>761.3</ele>
        <time>2022-10-16T13:03:04Z</time>
      </trkpt>
      <trkpt lat="44.42037" lon="5.15273">
        <ele>761.7</ele>
        <time>2022-10-16T13:03:03Z</time>
      </trkpt>
      <trkpt lat="44.42038" lon="5.15272">
        <ele>762</ele>
        <time>2022-10-16T13:03:01Z</time>
      </trkpt>
      <trkpt lat="44.42039" lon="5.15271">
        <ele>762.4</ele>
        <time>2022-10-16T13:03:00Z</time>
      </trkpt>
      <trkpt lat="44.4204" lon="5.1527">
        <ele>762.8</ele>
        <time>2022-10-16T13:02:58Z</time>
      </trkpt>
      <trkpt lat="44.42041" lon="5.15269">
        <ele>763.1</ele>
        <time>2022-10-16T13:02:57Z</time>
      </trkpt>
      <trkpt lat="44.42042" lon="5.15269">
        <ele>763.3</ele>
        <time>2022-10-16T13:02:56Z</time>
      </trkpt>
      <trkpt lat="44.42042" lon="5.15268">
        <ele>763.5</ele>
        <time>2022-10-16T13:02:55Z</time>
      </trkpt>
      <trkpt lat="44.42043" lon="5.15267">
        <ele>763.8</ele>
        <time>2022-10-16T13:02:54Z</time>
      </trkpt>
      <trkpt lat="44.42044" lon="5.15267">
        <ele>764.1</ele>
        <time>2022-10-16T13:02:53Z</time>
      </trkpt>
      <trkpt lat="44.42045" lon="5.15266">
        <ele>764.4</ele>
        <time>2022-10-16T13:02:52Z</time>
      </trkpt>
      <trkpt lat="44.42045" lon="5.15265">
        <ele>764.6</ele>
        <time>2022-10-16T13:02:51Z</time>
      </trkpt>
      <trkpt lat="44.42046" lon="5.15265">
        <ele>764.8</ele>
        <time>2022-10-16T13:02:50Z</time>
      </trkpt>
      <trkpt lat="44.42047" lon="5.15264">
        <ele>765.1</ele>
        <time>2022-10-16T13:02:49Z</time>
      </trkpt>
      <trkpt lat="44.42048" lon="5.15264">
        <ele>765.4</ele>
        <time>2022-10-16T13:02:48Z</time>
      </trkpt>
      <trkpt lat="44.42049" lon="5.15263">
        <ele>765.7</ele>
        <time>2022-10-16T13:02:46Z</time>
      </trkpt>
      <trkpt lat="44.4205" lon="5.15262">
        <ele>766.1</ele>
        <time>2022-10-16T13:02:45Z</time>
      </trkpt>
      <trkpt lat="44.42051" lon="5.15261">
        <ele>766.4</ele>
        <time>2022-10-16T13:02:44Z</time>
      </trkpt>
      <trkpt lat="44.42052" lon="5.1526">
        <ele>766.8</ele>
        <time>2022-10-16T13:02:42Z</time>
      </trkpt>
      <trkpt lat="44.42053" lon="5.15259">
        <ele>767.2</ele>
        <time>2022-10-16T13:02:41Z</time>
      </trkpt>
      <trkpt lat="44.42054" lon="5.15258">
        <ele>767.5</ele>
        <time>2022-10-16T13:02:40Z</time>
      </trkpt>
      <trkpt lat="44.42054" lon="5.15257">
        <ele>767.7</ele>
        <time>2022-10-16T13:02:39Z</time>
      </trkpt>
      <trkpt lat="44.42055" lon="5.15256">
        <ele>768</ele>
        <time>2022-10-16T13:02:38Z</time>
      </trkpt>
      <trkpt lat="44.42055" lon="5.15255">
        <ele>768.2</ele>
        <time>2022-10-16T13:02:37Z</time>
      </trkpt>
      <trkpt lat="44.42056" lon="5.15254">
        <ele>768.5</ele>
        <time>2022-10-16T13:02:36Z</time>
      </trkpt>
      <trkpt lat="44.42056" lon="5.15253">
        <ele>768.7</ele>
        <time>2022-10-16T13:02:35Z</time>
      </trkpt>
      <trkpt lat="44.42057" lon="5.15252">
        <ele>769</ele>
        <time>2022-10-16T13:02:34Z</time>
      </trkpt>
      <trkpt lat="44.42058" lon="5.15252">
        <ele>769.2</ele>
        <time>2022-10-16T13:02:33Z</time>
      </trkpt>
      <trkpt lat="44.42058" lon="5.15251">
        <ele>769.4</ele>
        <time>2022-10-16T13:02:32Z</time>
      </trkpt>
      <trkpt lat="44.42059" lon="5.1525">
        <ele>769.7</ele>
        <time>2022-10-16T13:02:31Z</time>
      </trkpt>
      <trkpt lat="44.4206" lon="5.15249">
        <ele>770.1</ele>
        <time>2022-10-16T13:02:30Z</time>
      </trkpt>
      <trkpt lat="44.42061" lon="5.15248">
        <ele>770.5</ele>
        <time>2022-10-16T13:02:29Z</time>
      </trkpt>
      <trkpt lat="44.42062" lon="5.15247">
        <ele>770.9</ele>
        <time>2022-10-16T13:02:28Z</time>
      </trkpt>
      <trkpt lat="44.42063" lon="5.15246">
        <ele>771.3</ele>
        <time>2022-10-16T13:02:27Z</time>
      </trkpt>
      <trkpt lat="44.42064" lon="5.15244">
        <ele>771.9</ele>
        <time>2022-10-16T13:02:26Z</time>
      </trkpt>
      <trkpt lat="44.42065" lon="5.15243">
        <ele>772.3</ele>
        <time>2022-10-16T13:02:25Z</time>
      </trkpt>
      <trkpt lat="44.42065" lon="5.15241">
        <ele>772.7</ele>
        <time>2022-10-16T13:02:24Z</time>
      </trkpt>
      <trkpt lat="44.42066" lon="5.1524">
        <ele>773.1</ele>
        <time>2022-10-16T13:02:23Z</time>
      </trkpt>
      <trkpt lat="44.42066" lon="5.15239">
        <ele>773.2</ele>
        <time>2022-10-16T13:02:22Z</time>
      </trkpt>
      <trkpt lat="44.42067" lon="5.15238">
        <ele>773.6</ele>
        <time>2022-10-16T13:02:21Z</time>
      </trkpt>
      <trkpt lat="44.42067" lon="5.15236">
        <ele>774</ele>
        <time>2022-10-16T13:02:20Z</time>
      </trkpt>
      <trkpt lat="44.42068" lon="5.15235">
        <ele>774.4</ele>
        <time>2022-10-16T13:02:19Z</time>
      </trkpt>
      <trkpt lat="44.42068" lon="5.15234">
        <ele>774.6</ele>
        <time>2022-10-16T13:02:18Z</time>
      </trkpt>
      <trkpt lat="44.42069" lon="5.15233">
        <ele>775</ele>
        <time>2022-10-16T13:02:17Z</time>
      </trkpt>
      <trkpt lat="44.42069" lon="5.15231">
        <ele>775.3</ele>
        <time>2022-10-16T13:02:16Z</time>
      </trkpt>
      <trkpt lat="44.4207" lon="5.1523">
        <ele>775.7</ele>
        <time>2022-10-16T13:02:15Z</time>
      </trkpt>
      <trkpt lat="44.4207" lon="5.15229">
        <ele>775.9</ele>
        <time>2022-10-16T13:02:14Z</time>
      </trkpt>
      <trkpt lat="44.4207" lon="5.15228">
        <ele>776.1</ele>
        <time>2022-10-16T13:02:13Z</time>
      </trkpt>
      <trkpt lat="44.4207" lon="5.15227">
        <ele>776.3</ele>
        <time>2022-10-16T13:02:12Z</time>
      </trkpt>
      <trkpt lat="44.42071" lon="5.15226">
        <ele>776.7</ele>
        <time>2022-10-16T13:02:11Z</time>
      </trkpt>
      <trkpt lat="44.42071" lon="5.15223">
        <ele>777.2</ele>
        <time>2022-10-16T12:59:05Z</time>
      </trkpt>
      <trkpt lat="44.4207" lon="5.15222">
        <ele>777.2</ele>
        <time>2022-10-16T12:59:04Z</time>
      </trkpt>
      <trkpt lat="44.4207" lon="5.15221">
        <ele>777.3</ele>
        <time>2022-10-16T12:59:03Z</time>
      </trkpt>
      <trkpt lat="44.42069" lon="5.1522">
        <ele>777.3</ele>
        <time>2022-10-16T12:59:02Z</time>
      </trkpt>
      <trkpt lat="44.42069" lon="5.15219">
        <ele>777.4</ele>
        <time>2022-10-16T12:59:01Z</time>
      </trkpt>
      <trkpt lat="44.42068" lon="5.15217">
        <ele>777.5</ele>
        <time>2022-10-16T12:59:00Z</time>
      </trkpt>
      <trkpt lat="44.42068" lon="5.15216">
        <ele>777.7</ele>
        <time>2022-10-16T12:58:59Z</time>
      </trkpt>
      <trkpt lat="44.42067" lon="5.15215">
        <ele>777.7</ele>
        <time>2022-10-16T12:58:58Z</time>
      </trkpt>
      <trkpt lat="44.42066" lon="5.15214">
        <ele>777.6</ele>
        <time>2022-10-16T12:58:57Z</time>
      </trkpt>
      <trkpt lat="44.42066" lon="5.15212">
        <ele>778</ele>
        <time>2022-10-16T12:58:56Z</time>
      </trkpt>
      <trkpt lat="44.42065" lon="5.15211">
        <ele>777.9</ele>
        <time>2022-10-16T12:58:55Z</time>
      </trkpt>
      <trkpt lat="44.42065" lon="5.1521">
        <ele>778.1</ele>
        <time>2022-10-16T12:58:54Z</time>
      </trkpt>
      <trkpt lat="44.42064" lon="5.15209">
        <ele>778.1</ele>
        <time>2022-10-16T12:58:53Z</time>
      </trkpt>
      <trkpt lat="44.42064" lon="5.15208">
        <ele>778.2</ele>
        <time>2022-10-16T12:58:52Z</time>
      </trkpt>
      <trkpt lat="44.42063" lon="5.15207">
        <ele>778.2</ele>
        <time>2022-10-16T12:58:51Z</time>
      </trkpt>
      <trkpt lat="44.42063" lon="5.15205">
        <ele>778.5</ele>
        <time>2022-10-16T12:58:50Z</time>
      </trkpt>
      <trkpt lat="44.42063" lon="5.15204">
        <ele>778.7</ele>
        <time>2022-10-16T12:58:49Z</time>
      </trkpt>
      <trkpt lat="44.42063" lon="5.15203">
        <ele>778.9</ele>
        <time>2022-10-16T12:58:48Z</time>
      </trkpt>
      <trkpt lat="44.42063" lon="5.15201">
        <ele>779.2</ele>
        <time>2022-10-16T12:58:47Z</time>
      </trkpt>
      <trkpt lat="44.42063" lon="5.152">
        <ele>779.4</ele>
        <time>2022-10-16T12:58:46Z</time>
      </trkpt>
      <trkpt lat="44.42063" lon="5.15198">
        <ele>779.7</ele>
        <time>2022-10-16T12:58:45Z</time>
      </trkpt>
      <trkpt lat="44.42063" lon="5.15197">
        <ele>779.9</ele>
        <time>2022-10-16T12:58:44Z</time>
      </trkpt>
      <trkpt lat="44.42062" lon="5.15196">
        <ele>779.9</ele>
        <time>2022-10-16T12:58:43Z</time>
      </trkpt>
      <trkpt lat="44.42062" lon="5.15195">
        <ele>780.1</ele>
        <time>2022-10-16T12:58:42Z</time>
      </trkpt>
      <trkpt lat="44.42062" lon="5.15194">
        <ele>780.3</ele>
        <time>2022-10-16T12:58:41Z</time>
      </trkpt>
      <trkpt lat="44.42063" lon="5.15193">
        <ele>780.6</ele>
        <time>2022-10-16T12:58:40Z</time>
      </trkpt>
      <trkpt lat="44.42063" lon="5.15191">
        <ele>781.1</ele>
        <time>2022-10-16T12:58:39Z</time>
      </trkpt>
      <trkpt lat="44.42063" lon="5.1519">
        <ele>781.3</ele>
        <time>2022-10-16T12:58:38Z</time>
      </trkpt>
      <trkpt lat="44.42063" lon="5.15189">
        <ele>781.5</ele>
        <time>2022-10-16T12:58:37Z</time>
      </trkpt>
      <trkpt lat="44.42063" lon="5.15187">
        <ele>781.9</ele>
        <time>2022-10-16T12:58:36Z</time>
      </trkpt>
      <trkpt lat="44.42063" lon="5.15186">
        <ele>782.1</ele>
        <time>2022-10-16T12:58:35Z</time>
      </trkpt>
      <trkpt lat="44.42063" lon="5.15185">
        <ele>782.3</ele>
        <time>2022-10-16T12:58:34Z</time>
      </trkpt>
      <trkpt lat="44.42063" lon="5.15184">
        <ele>782.5</ele>
        <time>2022-10-16T12:58:33Z</time>
      </trkpt>
      <trkpt lat="44.42063" lon="5.15183">
        <ele>782.7</ele>
        <time>2022-10-16T12:58:32Z</time>
      </trkpt>
      <trkpt lat="44.42063" lon="5.15181">
        <ele>783.1</ele>
        <time>2022-10-16T12:58:31Z</time>
      </trkpt>
      <trkpt lat="44.42064" lon="5.15181">
        <ele>783.3</ele>
        <time>2022-10-16T12:58:30Z</time>
      </trkpt>
      <trkpt lat="44.42064" lon="5.1518">
        <ele>783.5</ele>
        <time>2022-10-16T12:58:29Z</time>
      </trkpt>
      <trkpt lat="44.42064" lon="5.15179">
        <ele>783.7</ele>
        <time>2022-10-16T12:58:28Z</time>
      </trkpt>
      <trkpt lat="44.42065" lon="5.15178">
        <ele>784.1</ele>
        <time>2022-10-16T12:58:27Z</time>
      </trkpt>
      <trkpt lat="44.42065" lon="5.15177">
        <ele>784.3</ele>
        <time>2022-10-16T12:58:26Z</time>
      </trkpt>
      <trkpt lat="44.42065" lon="5.15175">
        <ele>784.7</ele>
        <time>2022-10-16T12:58:25Z</time>
      </trkpt>
      <trkpt lat="44.42065" lon="5.15174">
        <ele>784.9</ele>
        <time>2022-10-16T12:58:24Z</time>
      </trkpt>
      <trkpt lat="44.42064" lon="5.15173">
        <ele>784.9</ele>
        <time>2022-10-16T12:58:23Z</time>
      </trkpt>
      <trkpt lat="44.42064" lon="5.15172">
        <ele>785.1</ele>
        <time>2022-10-16T12:58:22Z</time>
      </trkpt>
      <trkpt lat="44.42064" lon="5.1517">
        <ele>785.5</ele>
        <time>2022-10-16T12:58:21Z</time>
      </trkpt>
      <trkpt lat="44.42064" lon="5.15169">
        <ele>785.7</ele>
        <time>2022-10-16T12:58:20Z</time>
      </trkpt>
      <trkpt lat="44.42063" lon="5.15168">
        <ele>785.8</ele>
        <time>2022-10-16T12:58:19Z</time>
      </trkpt>
      <trkpt lat="44.42063" lon="5.15167">
        <ele>786</ele>
        <time>2022-10-16T12:58:18Z</time>
      </trkpt>
      <trkpt lat="44.42063" lon="5.15166">
        <ele>786.2</ele>
        <time>2022-10-16T12:58:17Z</time>
      </trkpt>
      <trkpt lat="44.42063" lon="5.15165">
        <ele>786.3</ele>
        <time>2022-10-16T12:58:16Z</time>
      </trkpt>
      <trkpt lat="44.42062" lon="5.15164">
        <ele>786.4</ele>
        <time>2022-10-16T12:58:15Z</time>
      </trkpt>
      <trkpt lat="44.42062" lon="5.15163">
        <ele>786.5</ele>
        <time>2022-10-16T12:58:14Z</time>
      </trkpt>
      <trkpt lat="44.42062" lon="5.15162">
        <ele>786.7</ele>
        <time>2022-10-16T12:58:13Z</time>
      </trkpt>
      <trkpt lat="44.42062" lon="5.1516">
        <ele>787</ele>
        <time>2022-10-16T12:58:12Z</time>
      </trkpt>
      <trkpt lat="44.42062" lon="5.15159">
        <ele>787.2</ele>
        <time>2022-10-16T12:58:11Z</time>
      </trkpt>
      <trkpt lat="44.42061" lon="5.15158">
        <ele>787.2</ele>
        <time>2022-10-16T12:58:10Z</time>
      </trkpt>
      <trkpt lat="44.42061" lon="5.15156">
        <ele>787.6</ele>
        <time>2022-10-16T12:58:09Z</time>
      </trkpt>
      <trkpt lat="44.4206" lon="5.15155">
        <ele>787.6</ele>
        <time>2022-10-16T12:58:08Z</time>
      </trkpt>
      <trkpt lat="44.4206" lon="5.15154">
        <ele>787.8</ele>
        <time>2022-10-16T12:58:07Z</time>
      </trkpt>
      <trkpt lat="44.4206" lon="5.15153">
        <ele>787.9</ele>
        <time>2022-10-16T12:58:06Z</time>
      </trkpt>
      <trkpt lat="44.42059" lon="5.15151">
        <ele>788.2</ele>
        <time>2022-10-16T12:58:05Z</time>
      </trkpt>
      <trkpt lat="44.42058" lon="5.15151">
        <ele>788.1</ele>
        <time>2022-10-16T12:58:04Z</time>
      </trkpt>
      <trkpt lat="44.42058" lon="5.1515">
        <ele>788.2</ele>
        <time>2022-10-16T12:58:03Z</time>
      </trkpt>
      <trkpt lat="44.42057" lon="5.15149">
        <ele>788.3</ele>
        <time>2022-10-16T12:58:02Z</time>
      </trkpt>
      <trkpt lat="44.42056" lon="5.15148">
        <ele>788.4</ele>
        <time>2022-10-16T12:58:01Z</time>
      </trkpt>
      <trkpt lat="44.42056" lon="5.15147">
        <ele>788.6</ele>
        <time>2022-10-16T12:58:00Z</time>
      </trkpt>
      <trkpt lat="44.42055" lon="5.15146">
        <ele>788.6</ele>
        <time>2022-10-16T12:57:59Z</time>
      </trkpt>
      <trkpt lat="44.42054" lon="5.15145">
        <ele>788.7</ele>
        <time>2022-10-16T12:57:58Z</time>
      </trkpt>
      <trkpt lat="44.42054" lon="5.15144">
        <ele>788.9</ele>
        <time>2022-10-16T12:57:57Z</time>
      </trkpt>
      <trkpt lat="44.42053" lon="5.15143">
        <ele>789</ele>
        <time>2022-10-16T12:57:56Z</time>
      </trkpt>
      <trkpt lat="44.42053" lon="5.15141">
        <ele>789.3</ele>
        <time>2022-10-16T12:57:55Z</time>
      </trkpt>
      <trkpt lat="44.42052" lon="5.1514">
        <ele>789.4</ele>
        <time>2022-10-16T12:57:54Z</time>
      </trkpt>
      <trkpt lat="44.42052" lon="5.15139">
        <ele>789.6</ele>
        <time>2022-10-16T12:57:53Z</time>
      </trkpt>
      <trkpt lat="44.42051" lon="5.15138">
        <ele>789.7</ele>
        <time>2022-10-16T12:57:52Z</time>
      </trkpt>
      <trkpt lat="44.4205" lon="5.15137">
        <ele>789.8</ele>
        <time>2022-10-16T12:57:51Z</time>
      </trkpt>
      <trkpt lat="44.4205" lon="5.15136">
        <ele>790</ele>
        <time>2022-10-16T12:57:50Z</time>
      </trkpt>
      <trkpt lat="44.42049" lon="5.15135">
        <ele>790.1</ele>
        <time>2022-10-16T12:57:49Z</time>
      </trkpt>
      <trkpt lat="44.42049" lon="5.15133">
        <ele>790.5</ele>
        <time>2022-10-16T12:57:48Z</time>
      </trkpt>
      <trkpt lat="44.42048" lon="5.15132">
        <ele>790.6</ele>
        <time>2022-10-16T12:57:47Z</time>
      </trkpt>
      <trkpt lat="44.42048" lon="5.15131">
        <ele>790.8</ele>
        <time>2022-10-16T12:57:46Z</time>
      </trkpt>
      <trkpt lat="44.42048" lon="5.1513">
        <ele>791</ele>
        <time>2022-10-16T12:57:45Z</time>
      </trkpt>
      <trkpt lat="44.42047" lon="5.15128">
        <ele>791.3</ele>
        <time>2022-10-16T12:57:44Z</time>
      </trkpt>
      <trkpt lat="44.42047" lon="5.15127">
        <ele>791.5</ele>
        <time>2022-10-16T12:57:43Z</time>
      </trkpt>
      <trkpt lat="44.42047" lon="5.15126">
        <ele>791.7</ele>
        <time>2022-10-16T12:57:42Z</time>
      </trkpt>
      <trkpt lat="44.42047" lon="5.15125">
        <ele>791.9</ele>
        <time>2022-10-16T12:57:41Z</time>
      </trkpt>
      <trkpt lat="44.42046" lon="5.15124">
        <ele>792</ele>
        <time>2022-10-16T12:57:40Z</time>
      </trkpt>
      <trkpt lat="44.42046" lon="5.15123">
        <ele>792.2</ele>
        <time>2022-10-16T12:57:39Z</time>
      </trkpt>
      <trkpt lat="44.42045" lon="5.15122">
        <ele>792.4</ele>
        <time>2022-10-16T12:57:38Z</time>
      </trkpt>
      <trkpt lat="44.42045" lon="5.1512">
        <ele>792.8</ele>
        <time>2022-10-16T12:57:37Z</time>
      </trkpt>
      <trkpt lat="44.42045" lon="5.15119">
        <ele>793</ele>
        <time>2022-10-16T12:57:36Z</time>
      </trkpt>
      <trkpt lat="44.42044" lon="5.15118">
        <ele>793.1</ele>
        <time>2022-10-16T12:57:35Z</time>
      </trkpt>
      <trkpt lat="44.42044" lon="5.15117">
        <ele>793.3</ele>
        <time>2022-10-16T12:57:34Z</time>
      </trkpt>
      <trkpt lat="44.42043" lon="5.15116">
        <ele>793.5</ele>
        <time>2022-10-16T12:57:33Z</time>
      </trkpt>
      <trkpt lat="44.42042" lon="5.15115">
        <ele>793.7</ele>
        <time>2022-10-16T12:57:32Z</time>
      </trkpt>
      <trkpt lat="44.42042" lon="5.15114">
        <ele>793.9</ele>
        <time>2022-10-16T12:57:31Z</time>
      </trkpt>
      <trkpt lat="44.42041" lon="5.15113">
        <ele>794.1</ele>
        <time>2022-10-16T12:57:30Z</time>
      </trkpt>
      <trkpt lat="44.42041" lon="5.15112">
        <ele>794.3</ele>
        <time>2022-10-16T12:57:29Z</time>
      </trkpt>
      <trkpt lat="44.4204" lon="5.1511">
        <ele>794.7</ele>
        <time>2022-10-16T12:57:28Z</time>
      </trkpt>
      <trkpt lat="44.42039" lon="5.15109">
        <ele>794.9</ele>
        <time>2022-10-16T12:57:27Z</time>
      </trkpt>
      <trkpt lat="44.42039" lon="5.15108">
        <ele>795.1</ele>
        <time>2022-10-16T12:57:26Z</time>
      </trkpt>
      <trkpt lat="44.42038" lon="5.15107">
        <ele>795.3</ele>
        <time>2022-10-16T12:57:25Z</time>
      </trkpt>
      <trkpt lat="44.42037" lon="5.15105">
        <ele>795.7</ele>
        <time>2022-10-16T12:57:24Z</time>
      </trkpt>
      <trkpt lat="44.42037" lon="5.15104">
        <ele>796</ele>
        <time>2022-10-16T12:57:23Z</time>
      </trkpt>
      <trkpt lat="44.42036" lon="5.15103">
        <ele>796.1</ele>
        <time>2022-10-16T12:57:22Z</time>
      </trkpt>
      <trkpt lat="44.42035" lon="5.15102">
        <ele>796.3</ele>
        <time>2022-10-16T12:57:21Z</time>
      </trkpt>
      <trkpt lat="44.42034" lon="5.15101">
        <ele>796.5</ele>
        <time>2022-10-16T12:57:20Z</time>
      </trkpt>
      <trkpt lat="44.42033" lon="5.151">
        <ele>796.7</ele>
        <time>2022-10-16T12:57:19Z</time>
      </trkpt>
      <trkpt lat="44.42033" lon="5.15099">
        <ele>796.9</ele>
        <time>2022-10-16T12:57:18Z</time>
      </trkpt>
      <trkpt lat="44.42032" lon="5.15098">
        <ele>797.1</ele>
        <time>2022-10-16T12:57:17Z</time>
      </trkpt>
      <trkpt lat="44.42031" lon="5.15097">
        <ele>797.2</ele>
        <time>2022-10-16T12:57:16Z</time>
      </trkpt>
      <trkpt lat="44.4203" lon="5.15096">
        <ele>797.4</ele>
        <time>2022-10-16T12:57:15Z</time>
      </trkpt>
      <trkpt lat="44.4203" lon="5.15095">
        <ele>797.6</ele>
        <time>2022-10-16T12:57:14Z</time>
      </trkpt>
      <trkpt lat="44.42029" lon="5.15094">
        <ele>797.8</ele>
        <time>2022-10-16T12:57:13Z</time>
      </trkpt>
      <trkpt lat="44.42028" lon="5.15093">
        <ele>797.9</ele>
        <time>2022-10-16T12:57:12Z</time>
      </trkpt>
      <trkpt lat="44.42028" lon="5.15092">
        <ele>798.1</ele>
        <time>2022-10-16T12:57:11Z</time>
      </trkpt>
      <trkpt lat="44.42027" lon="5.15091">
        <ele>798.3</ele>
        <time>2022-10-16T12:57:10Z</time>
      </trkpt>
      <trkpt lat="44.42027" lon="5.1509">
        <ele>798.5</ele>
        <time>2022-10-16T12:57:09Z</time>
      </trkpt>
      <trkpt lat="44.42026" lon="5.15089">
        <ele>798.6</ele>
        <time>2022-10-16T12:57:08Z</time>
      </trkpt>
      <trkpt lat="44.42025" lon="5.15088">
        <ele>798.8</ele>
        <time>2022-10-16T12:57:07Z</time>
      </trkpt>
      <trkpt lat="44.42025" lon="5.15087">
        <ele>799</ele>
        <time>2022-10-16T12:57:06Z</time>
      </trkpt>
      <trkpt lat="44.42024" lon="5.15086">
        <ele>799.2</ele>
        <time>2022-10-16T12:57:05Z</time>
      </trkpt>
      <trkpt lat="44.42023" lon="5.15085">
        <ele>799.3</ele>
        <time>2022-10-16T12:57:04Z</time>
      </trkpt>
      <trkpt lat="44.42022" lon="5.15084">
        <ele>799.4</ele>
        <time>2022-10-16T12:57:03Z</time>
      </trkpt>
      <trkpt lat="44.42021" lon="5.15084">
        <ele>799.4</ele>
        <time>2022-10-16T12:57:02Z</time>
      </trkpt>
      <trkpt lat="44.4202" lon="5.15083">
        <ele>799.5</ele>
        <time>2022-10-16T12:57:01Z</time>
      </trkpt>
      <trkpt lat="44.42019" lon="5.15082">
        <ele>799.8</ele>
        <time>2022-10-16T12:57:00Z</time>
      </trkpt>
      <trkpt lat="44.42018" lon="5.15081">
        <ele>800</ele>
        <time>2022-10-16T12:56:59Z</time>
      </trkpt>
      <trkpt lat="44.42018" lon="5.1508">
        <ele>800.3</ele>
        <time>2022-10-16T12:56:58Z</time>
      </trkpt>
      <trkpt lat="44.42017" lon="5.15079">
        <ele>800.6</ele>
        <time>2022-10-16T12:56:57Z</time>
      </trkpt>
      <trkpt lat="44.42016" lon="5.15079">
        <ele>800.5</ele>
        <time>2022-10-16T12:56:56Z</time>
      </trkpt>
      <trkpt lat="44.42015" lon="5.15078">
        <ele>800.7</ele>
        <time>2022-10-16T12:56:55Z</time>
      </trkpt>
      <trkpt lat="44.42015" lon="5.15077">
        <ele>801</ele>
        <time>2022-10-16T12:56:54Z</time>
      </trkpt>
      <trkpt lat="44.42014" lon="5.15076">
        <ele>801.3</ele>
        <time>2022-10-16T12:56:53Z</time>
      </trkpt>
      <trkpt lat="44.42013" lon="5.15075">
        <ele>801.5</ele>
        <time>2022-10-16T12:56:52Z</time>
      </trkpt>
      <trkpt lat="44.42012" lon="5.15074">
        <ele>801.7</ele>
        <time>2022-10-16T12:56:51Z</time>
      </trkpt>
      <trkpt lat="44.42012" lon="5.15073">
        <ele>802</ele>
        <time>2022-10-16T12:56:50Z</time>
      </trkpt>
      <trkpt lat="44.42011" lon="5.15072">
        <ele>802.2</ele>
        <time>2022-10-16T12:56:49Z</time>
      </trkpt>
      <trkpt lat="44.42011" lon="5.15071">
        <ele>802.5</ele>
        <time>2022-10-16T12:56:48Z</time>
      </trkpt>
      <trkpt lat="44.4201" lon="5.1507">
        <ele>802.7</ele>
        <time>2022-10-16T12:56:47Z</time>
      </trkpt>
      <trkpt lat="44.42009" lon="5.15069">
        <ele>802.9</ele>
        <time>2022-10-16T12:56:46Z</time>
      </trkpt>
      <trkpt lat="44.42009" lon="5.15068">
        <ele>803.2</ele>
        <time>2022-10-16T12:56:45Z</time>
      </trkpt>
      <trkpt lat="44.42008" lon="5.15067">
        <ele>803.4</ele>
        <time>2022-10-16T12:56:44Z</time>
      </trkpt>
      <trkpt lat="44.42007" lon="5.15066">
        <ele>803.7</ele>
        <time>2022-10-16T12:56:43Z</time>
      </trkpt>
      <trkpt lat="44.42006" lon="5.15065">
        <ele>803.9</ele>
        <time>2022-10-16T12:56:42Z</time>
      </trkpt>
      <trkpt lat="44.42006" lon="5.15064">
        <ele>804.2</ele>
        <time>2022-10-16T12:56:41Z</time>
      </trkpt>
      <trkpt lat="44.42005" lon="5.15063">
        <ele>804.3</ele>
        <time>2022-10-16T12:56:40Z</time>
      </trkpt>
      <trkpt lat="44.42004" lon="5.15063">
        <ele>804.2</ele>
        <time>2022-10-16T12:56:39Z</time>
      </trkpt>
      <trkpt lat="44.42003" lon="5.15062">
        <ele>804.4</ele>
        <time>2022-10-16T12:56:38Z</time>
      </trkpt>
      <trkpt lat="44.42003" lon="5.15061">
        <ele>804.7</ele>
        <time>2022-10-16T12:56:37Z</time>
      </trkpt>
      <trkpt lat="44.42002" lon="5.15061">
        <ele>804.6</ele>
        <time>2022-10-16T12:56:36Z</time>
      </trkpt>
      <trkpt lat="44.42001" lon="5.1506">
        <ele>804.8</ele>
        <time>2022-10-16T12:56:34Z</time>
      </trkpt>
      <trkpt lat="44.42" lon="5.15059">
        <ele>805</ele>
        <time>2022-10-16T12:56:33Z</time>
      </trkpt>
      <trkpt lat="44.41999" lon="5.15058">
        <ele>805.3</ele>
        <time>2022-10-16T12:56:32Z</time>
      </trkpt>
      <trkpt lat="44.41998" lon="5.15058">
        <ele>805.2</ele>
        <time>2022-10-16T12:56:31Z</time>
      </trkpt>
      <trkpt lat="44.41997" lon="5.15057">
        <ele>805.5</ele>
        <time>2022-10-16T12:56:30Z</time>
      </trkpt>
      <trkpt lat="44.41997" lon="5.15056">
        <ele>805.8</ele>
        <time>2022-10-16T12:56:29Z</time>
      </trkpt>
      <trkpt lat="44.41996" lon="5.15055">
        <ele>806.1</ele>
        <time>2022-10-16T12:56:28Z</time>
      </trkpt>
      <trkpt lat="44.41995" lon="5.15055">
        <ele>806</ele>
        <time>2022-10-16T12:56:27Z</time>
      </trkpt>
      <trkpt lat="44.41995" lon="5.15054">
        <ele>806.4</ele>
        <time>2022-10-16T12:56:26Z</time>
      </trkpt>
      <trkpt lat="44.41994" lon="5.15053">
        <ele>806.7</ele>
        <time>2022-10-16T12:56:25Z</time>
      </trkpt>
      <trkpt lat="44.41994" lon="5.15052">
        <ele>807</ele>
        <time>2022-10-16T12:56:24Z</time>
      </trkpt>
      <trkpt lat="44.41993" lon="5.15051">
        <ele>807.3</ele>
        <time>2022-10-16T12:56:23Z</time>
      </trkpt>
      <trkpt lat="44.41993" lon="5.15049">
        <ele>808</ele>
        <time>2022-10-16T12:56:22Z</time>
      </trkpt>
      <trkpt lat="44.41993" lon="5.15048">
        <ele>808.4</ele>
        <time>2022-10-16T12:56:21Z</time>
      </trkpt>
      <trkpt lat="44.41992" lon="5.15047">
        <ele>808.7</ele>
        <time>2022-10-16T12:56:20Z</time>
      </trkpt>
      <trkpt lat="44.41992" lon="5.15046">
        <ele>809.1</ele>
        <time>2022-10-16T12:56:19Z</time>
      </trkpt>
      <trkpt lat="44.41991" lon="5.15045">
        <ele>809.4</ele>
        <time>2022-10-16T12:56:18Z</time>
      </trkpt>
      <trkpt lat="44.4199" lon="5.15045">
        <ele>809.3</ele>
        <time>2022-10-16T12:56:17Z</time>
      </trkpt>
      <trkpt lat="44.4199" lon="5.15044">
        <ele>809.7</ele>
        <time>2022-10-16T12:56:16Z</time>
      </trkpt>
      <trkpt lat="44.41989" lon="5.15043">
        <ele>809.9</ele>
        <time>2022-10-16T12:56:15Z</time>
      </trkpt>
      <trkpt lat="44.41988" lon="5.15042">
        <ele>810.2</ele>
        <time>2022-10-16T12:56:14Z</time>
      </trkpt>
      <trkpt lat="44.41988" lon="5.15041">
        <ele>810.6</ele>
        <time>2022-10-16T12:56:13Z</time>
      </trkpt>
      <trkpt lat="44.41987" lon="5.15041">
        <ele>810.5</ele>
        <time>2022-10-16T12:56:12Z</time>
      </trkpt>
      <trkpt lat="44.41986" lon="5.1504">
        <ele>810.8</ele>
        <time>2022-10-16T12:56:11Z</time>
      </trkpt>
      <trkpt lat="44.41986" lon="5.15039">
        <ele>811.2</ele>
        <time>2022-10-16T12:56:10Z</time>
      </trkpt>
      <trkpt lat="44.41985" lon="5.15038">
        <ele>811.4</ele>
        <time>2022-10-16T12:56:09Z</time>
      </trkpt>
      <trkpt lat="44.41985" lon="5.15037">
        <ele>811.8</ele>
        <time>2022-10-16T12:56:08Z</time>
      </trkpt>
      <trkpt lat="44.41984" lon="5.15036">
        <ele>812.1</ele>
        <time>2022-10-16T12:56:07Z</time>
      </trkpt>
      <trkpt lat="44.41983" lon="5.15035">
        <ele>812.3</ele>
        <time>2022-10-16T12:56:05Z</time>
      </trkpt>
      <trkpt lat="44.41982" lon="5.15034">
        <ele>812.6</ele>
        <time>2022-10-16T12:56:04Z</time>
      </trkpt>
      <trkpt lat="44.41982" lon="5.15033">
        <ele>812.9</ele>
        <time>2022-10-16T12:56:03Z</time>
      </trkpt>
      <trkpt lat="44.41981" lon="5.15032">
        <ele>813.2</ele>
        <time>2022-10-16T12:56:02Z</time>
      </trkpt>
      <trkpt lat="44.41981" lon="5.15031">
        <ele>813.6</ele>
        <time>2022-10-16T12:56:01Z</time>
      </trkpt>
      <trkpt lat="44.4198" lon="5.1503">
        <ele>813.8</ele>
        <time>2022-10-16T12:56:00Z</time>
      </trkpt>
      <trkpt lat="44.4198" lon="5.15029">
        <ele>814.2</ele>
        <time>2022-10-16T12:55:59Z</time>
      </trkpt>
      <trkpt lat="44.41979" lon="5.15028">
        <ele>814.4</ele>
        <time>2022-10-16T12:55:58Z</time>
      </trkpt>
      <trkpt lat="44.41978" lon="5.15027">
        <ele>814.7</ele>
        <time>2022-10-16T12:55:57Z</time>
      </trkpt>
      <trkpt lat="44.41978" lon="5.15026">
        <ele>815.1</ele>
        <time>2022-10-16T12:55:56Z</time>
      </trkpt>
      <trkpt lat="44.41977" lon="5.15025">
        <ele>815.4</ele>
        <time>2022-10-16T12:55:55Z</time>
      </trkpt>
      <trkpt lat="44.41977" lon="5.15024">
        <ele>815.8</ele>
        <time>2022-10-16T12:55:54Z</time>
      </trkpt>
      <trkpt lat="44.41976" lon="5.15023">
        <ele>816</ele>
        <time>2022-10-16T12:55:53Z</time>
      </trkpt>
      <trkpt lat="44.41975" lon="5.15022">
        <ele>816.3</ele>
        <time>2022-10-16T12:55:52Z</time>
      </trkpt>
      <trkpt lat="44.41975" lon="5.15021">
        <ele>816.7</ele>
        <time>2022-10-16T12:55:51Z</time>
      </trkpt>
      <trkpt lat="44.41974" lon="5.1502">
        <ele>817</ele>
        <time>2022-10-16T12:55:50Z</time>
      </trkpt>
      <trkpt lat="44.41973" lon="5.15019">
        <ele>817.2</ele>
        <time>2022-10-16T12:55:49Z</time>
      </trkpt>
      <trkpt lat="44.41973" lon="5.15018">
        <ele>817.6</ele>
        <time>2022-10-16T12:55:48Z</time>
      </trkpt>
      <trkpt lat="44.41972" lon="5.15017">
        <ele>817.9</ele>
        <time>2022-10-16T12:55:47Z</time>
      </trkpt>
      <trkpt lat="44.41971" lon="5.15016">
        <ele>818.2</ele>
        <time>2022-10-16T12:55:45Z</time>
      </trkpt>
      <trkpt lat="44.4197" lon="5.15015">
        <ele>818.6</ele>
        <time>2022-10-16T12:55:44Z</time>
      </trkpt>
      <trkpt lat="44.41969" lon="5.15014">
        <ele>819</ele>
        <time>2022-10-16T12:55:43Z</time>
      </trkpt>
      <trkpt lat="44.41968" lon="5.15014">
        <ele>819</ele>
        <time>2022-10-16T12:55:42Z</time>
      </trkpt>
      <trkpt lat="44.41967" lon="5.15013">
        <ele>819.3</ele>
        <time>2022-10-16T12:55:41Z</time>
      </trkpt>
      <trkpt lat="44.41966" lon="5.15012">
        <ele>819.6</ele>
        <time>2022-10-16T12:55:40Z</time>
      </trkpt>
      <trkpt lat="44.41965" lon="5.15012">
        <ele>819.6</ele>
        <time>2022-10-16T12:55:39Z</time>
      </trkpt>
      <trkpt lat="44.41964" lon="5.15011">
        <ele>820</ele>
        <time>2022-10-16T12:55:38Z</time>
      </trkpt>
      <trkpt lat="44.41963" lon="5.15011">
        <ele>820</ele>
        <time>2022-10-16T12:55:37Z</time>
      </trkpt>
      <trkpt lat="44.41962" lon="5.1501">
        <ele>820.3</ele>
        <time>2022-10-16T12:55:36Z</time>
      </trkpt>
      <trkpt lat="44.41961" lon="5.1501">
        <ele>820.3</ele>
        <time>2022-10-16T12:55:35Z</time>
      </trkpt>
      <trkpt lat="44.4196" lon="5.15009">
        <ele>820.6</ele>
        <time>2022-10-16T12:55:34Z</time>
      </trkpt>
      <trkpt lat="44.41959" lon="5.15009">
        <ele>820.6</ele>
        <time>2022-10-16T12:55:33Z</time>
      </trkpt>
      <trkpt lat="44.41958" lon="5.15009">
        <ele>820.6</ele>
        <time>2022-10-16T12:55:32Z</time>
      </trkpt>
      <trkpt lat="44.41957" lon="5.15008">
        <ele>820.9</ele>
        <time>2022-10-16T12:55:31Z</time>
      </trkpt>
      <trkpt lat="44.41956" lon="5.15007">
        <ele>821.2</ele>
        <time>2022-10-16T12:55:30Z</time>
      </trkpt>
      <trkpt lat="44.41955" lon="5.15007">
        <ele>821.2</ele>
        <time>2022-10-16T12:55:29Z</time>
      </trkpt>
      <trkpt lat="44.41954" lon="5.15006">
        <ele>821.5</ele>
        <time>2022-10-16T12:55:28Z</time>
      </trkpt>
      <trkpt lat="44.41953" lon="5.15005">
        <ele>821.8</ele>
        <time>2022-10-16T12:55:26Z</time>
      </trkpt>
      <trkpt lat="44.41952" lon="5.15004">
        <ele>822</ele>
        <time>2022-10-16T12:55:25Z</time>
      </trkpt>
      <trkpt lat="44.41951" lon="5.15003">
        <ele>822.3</ele>
        <time>2022-10-16T12:55:24Z</time>
      </trkpt>
      <trkpt lat="44.4195" lon="5.15003">
        <ele>822.3</ele>
        <time>2022-10-16T12:55:23Z</time>
      </trkpt>
      <trkpt lat="44.41949" lon="5.15002">
        <ele>822.6</ele>
        <time>2022-10-16T12:55:22Z</time>
      </trkpt>
      <trkpt lat="44.41948" lon="5.15001">
        <ele>822.8</ele>
        <time>2022-10-16T12:55:21Z</time>
      </trkpt>
      <trkpt lat="44.41947" lon="5.15001">
        <ele>822.8</ele>
        <time>2022-10-16T12:55:20Z</time>
      </trkpt>
      <trkpt lat="44.41946" lon="5.15">
        <ele>823.1</ele>
        <time>2022-10-16T12:55:19Z</time>
      </trkpt>
      <trkpt lat="44.41945" lon="5.14999">
        <ele>823.4</ele>
        <time>2022-10-16T12:55:18Z</time>
      </trkpt>
      <trkpt lat="44.41945" lon="5.14998">
        <ele>823.7</ele>
        <time>2022-10-16T12:55:17Z</time>
      </trkpt>
      <trkpt lat="44.41944" lon="5.14997">
        <ele>824.1</ele>
        <time>2022-10-16T12:55:16Z</time>
      </trkpt>
      <trkpt lat="44.41943" lon="5.14996">
        <ele>824.5</ele>
        <time>2022-10-16T12:55:15Z</time>
      </trkpt>
      <trkpt lat="44.41943" lon="5.14995">
        <ele>824.8</ele>
        <time>2022-10-16T12:55:14Z</time>
      </trkpt>
      <trkpt lat="44.41942" lon="5.14994">
        <ele>825.2</ele>
        <time>2022-10-16T12:55:13Z</time>
      </trkpt>
      <trkpt lat="44.41942" lon="5.14993">
        <ele>825.5</ele>
        <time>2022-10-16T12:55:12Z</time>
      </trkpt>
      <trkpt lat="44.41942" lon="5.14992">
        <ele>825.9</ele>
        <time>2022-10-16T12:55:11Z</time>
      </trkpt>
      <trkpt lat="44.41941" lon="5.1499">
        <ele>826.6</ele>
        <time>2022-10-16T12:55:10Z</time>
      </trkpt>
      <trkpt lat="44.41941" lon="5.14989">
        <ele>826.9</ele>
        <time>2022-10-16T12:55:09Z</time>
      </trkpt>
      <trkpt lat="44.4194" lon="5.14988">
        <ele>827.3</ele>
        <time>2022-10-16T12:55:08Z</time>
      </trkpt>
      <trkpt lat="44.4194" lon="5.14987">
        <ele>827.6</ele>
        <time>2022-10-16T12:55:07Z</time>
      </trkpt>
      <trkpt lat="44.41939" lon="5.14986">
        <ele>827.9</ele>
        <time>2022-10-16T12:55:06Z</time>
      </trkpt>
      <trkpt lat="44.41939" lon="5.14985">
        <ele>828.3</ele>
        <time>2022-10-16T12:55:05Z</time>
      </trkpt>
      <trkpt lat="44.41938" lon="5.14984">
        <ele>828.6</ele>
        <time>2022-10-16T12:55:04Z</time>
      </trkpt>
      <trkpt lat="44.41937" lon="5.14983">
        <ele>828.9</ele>
        <time>2022-10-16T12:55:03Z</time>
      </trkpt>
      <trkpt lat="44.41937" lon="5.14982">
        <ele>829.2</ele>
        <time>2022-10-16T12:55:02Z</time>
      </trkpt>
      <trkpt lat="44.41936" lon="5.14981">
        <ele>829.5</ele>
        <time>2022-10-16T12:55:01Z</time>
      </trkpt>
      <trkpt lat="44.41936" lon="5.1498">
        <ele>829.8</ele>
        <time>2022-10-16T12:55:00Z</time>
      </trkpt>
      <trkpt lat="44.41935" lon="5.14979">
        <ele>830.1</ele>
        <time>2022-10-16T12:54:59Z</time>
      </trkpt>
      <trkpt lat="44.41934" lon="5.14978">
        <ele>830.4</ele>
        <time>2022-10-16T12:54:58Z</time>
      </trkpt>
      <trkpt lat="44.41934" lon="5.14977">
        <ele>830.7</ele>
        <time>2022-10-16T12:54:57Z</time>
      </trkpt>
      <trkpt lat="44.41933" lon="5.14976">
        <ele>831</ele>
        <time>2022-10-16T12:54:56Z</time>
      </trkpt>
      <trkpt lat="44.41933" lon="5.14975">
        <ele>831.3</ele>
        <time>2022-10-16T12:54:55Z</time>
      </trkpt>
      <trkpt lat="44.41933" lon="5.14974">
        <ele>831.6</ele>
        <time>2022-10-16T12:54:54Z</time>
      </trkpt>
      <trkpt lat="44.41932" lon="5.14973">
        <ele>831.9</ele>
        <time>2022-10-16T12:54:53Z</time>
      </trkpt>
      <trkpt lat="44.41932" lon="5.14972">
        <ele>832.2</ele>
        <time>2022-10-16T12:54:52Z</time>
      </trkpt>
      <trkpt lat="44.41931" lon="5.14971">
        <ele>832.5</ele>
        <time>2022-10-16T12:54:51Z</time>
      </trkpt>
      <trkpt lat="44.41931" lon="5.1497">
        <ele>832.8</ele>
        <time>2022-10-16T12:54:50Z</time>
      </trkpt>
      <trkpt lat="44.4193" lon="5.14969">
        <ele>833.1</ele>
        <time>2022-10-16T12:54:49Z</time>
      </trkpt>
      <trkpt lat="44.4193" lon="5.14968">
        <ele>833.4</ele>
        <time>2022-10-16T12:54:48Z</time>
      </trkpt>
      <trkpt lat="44.41929" lon="5.14968">
        <ele>833.3</ele>
        <time>2022-10-16T12:54:47Z</time>
      </trkpt>
      <trkpt lat="44.41929" lon="5.14967">
        <ele>833.6</ele>
        <time>2022-10-16T12:54:46Z</time>
      </trkpt>
      <trkpt lat="44.41929" lon="5.14966">
        <ele>834</ele>
        <time>2022-10-16T12:54:45Z</time>
      </trkpt>
      <trkpt lat="44.41929" lon="5.14965">
        <ele>834.3</ele>
        <time>2022-10-16T12:54:44Z</time>
      </trkpt>
      <trkpt lat="44.41928" lon="5.14964">
        <ele>834.5</ele>
        <time>2022-10-16T12:54:43Z</time>
      </trkpt>
      <trkpt lat="44.41928" lon="5.14963">
        <ele>834.9</ele>
        <time>2022-10-16T12:54:42Z</time>
      </trkpt>
      <trkpt lat="44.41928" lon="5.14962">
        <ele>835.2</ele>
        <time>2022-10-16T12:54:41Z</time>
      </trkpt>
      <trkpt lat="44.41928" lon="5.14961">
        <ele>835.5</ele>
        <time>2022-10-16T12:54:40Z</time>
      </trkpt>
      <trkpt lat="44.41928" lon="5.1496">
        <ele>835.9</ele>
        <time>2022-10-16T12:54:39Z</time>
      </trkpt>
      <trkpt lat="44.41928" lon="5.14959">
        <ele>836.2</ele>
        <time>2022-10-16T12:54:38Z</time>
      </trkpt>
      <trkpt lat="44.41928" lon="5.14957">
        <ele>836.9</ele>
        <time>2022-10-16T12:54:36Z</time>
      </trkpt>
      <trkpt lat="44.41928" lon="5.14956">
        <ele>837.2</ele>
        <time>2022-10-16T12:54:35Z</time>
      </trkpt>
      <trkpt lat="44.41928" lon="5.14955">
        <ele>837.5</ele>
        <time>2022-10-16T12:54:34Z</time>
      </trkpt>
      <trkpt lat="44.41927" lon="5.14954">
        <ele>837.7</ele>
        <time>2022-10-16T12:54:32Z</time>
      </trkpt>
      <trkpt lat="44.41926" lon="5.14953">
        <ele>837.9</ele>
        <time>2022-10-16T12:54:31Z</time>
      </trkpt>
      <trkpt lat="44.41926" lon="5.14952">
        <ele>838.2</ele>
        <time>2022-10-16T12:54:30Z</time>
      </trkpt>
      <trkpt lat="44.41925" lon="5.14952">
        <ele>838.1</ele>
        <time>2022-10-16T12:54:29Z</time>
      </trkpt>
      <trkpt lat="44.41925" lon="5.14951">
        <ele>838.4</ele>
        <time>2022-10-16T12:54:28Z</time>
      </trkpt>
      <trkpt lat="44.41924" lon="5.1495">
        <ele>838.6</ele>
        <time>2022-10-16T12:54:27Z</time>
      </trkpt>
      <trkpt lat="44.41923" lon="5.1495">
        <ele>838.4</ele>
        <time>2022-10-16T12:54:26Z</time>
      </trkpt>
      <trkpt lat="44.41923" lon="5.14949">
        <ele>838.7</ele>
        <time>2022-10-16T12:54:25Z</time>
      </trkpt>
      <trkpt lat="44.41922" lon="5.14948">
        <ele>838.9</ele>
        <time>2022-10-16T12:54:24Z</time>
      </trkpt>
      <trkpt lat="44.41921" lon="5.14948">
        <ele>838.7</ele>
        <time>2022-10-16T12:54:23Z</time>
      </trkpt>
      <trkpt lat="44.4192" lon="5.14947">
        <ele>838.8</ele>
        <time>2022-10-16T12:54:22Z</time>
      </trkpt>
      <trkpt lat="44.4192" lon="5.14946">
        <ele>839.1</ele>
        <time>2022-10-16T12:54:21Z</time>
      </trkpt>
      <trkpt lat="44.41919" lon="5.14946">
        <ele>839</ele>
        <time>2022-10-16T12:54:20Z</time>
      </trkpt>
      <trkpt lat="44.41918" lon="5.14945">
        <ele>839.1</ele>
        <time>2022-10-16T12:54:19Z</time>
      </trkpt>
      <trkpt lat="44.41918" lon="5.14944">
        <ele>839.4</ele>
        <time>2022-10-16T12:54:18Z</time>
      </trkpt>
      <trkpt lat="44.41917" lon="5.14943">
        <ele>839.6</ele>
        <time>2022-10-16T12:54:17Z</time>
      </trkpt>
      <trkpt lat="44.41917" lon="5.14942">
        <ele>840</ele>
        <time>2022-10-16T12:54:16Z</time>
      </trkpt>
      <trkpt lat="44.41916" lon="5.14941">
        <ele>840.3</ele>
        <time>2022-10-16T12:54:15Z</time>
      </trkpt>
      <trkpt lat="44.41916" lon="5.1494">
        <ele>840.7</ele>
        <time>2022-10-16T12:54:14Z</time>
      </trkpt>
      <trkpt lat="44.41915" lon="5.14939">
        <ele>841.1</ele>
        <time>2022-10-16T12:54:13Z</time>
      </trkpt>
      <trkpt lat="44.41914" lon="5.14938">
        <ele>841.4</ele>
        <time>2022-10-16T12:54:12Z</time>
      </trkpt>
      <trkpt lat="44.41913" lon="5.14938">
        <ele>841.4</ele>
        <time>2022-10-16T12:54:11Z</time>
      </trkpt>
      <trkpt lat="44.41913" lon="5.14937">
        <ele>841.8</ele>
        <time>2022-10-16T12:54:10Z</time>
      </trkpt>
      <trkpt lat="44.41912" lon="5.14936">
        <ele>842.1</ele>
        <time>2022-10-16T12:54:09Z</time>
      </trkpt>
      <trkpt lat="44.41912" lon="5.14935">
        <ele>842.5</ele>
        <time>2022-10-16T12:54:08Z</time>
      </trkpt>
      <trkpt lat="44.41911" lon="5.14934">
        <ele>842.9</ele>
        <time>2022-10-16T12:54:07Z</time>
      </trkpt>
      <trkpt lat="44.41911" lon="5.14933">
        <ele>843.2</ele>
        <time>2022-10-16T12:54:06Z</time>
      </trkpt>
      <trkpt lat="44.4191" lon="5.14932">
        <ele>843.6</ele>
        <time>2022-10-16T12:54:05Z</time>
      </trkpt>
      <trkpt lat="44.4191" lon="5.14931">
        <ele>844</ele>
        <time>2022-10-16T12:54:04Z</time>
      </trkpt>
      <trkpt lat="44.41909" lon="5.1493">
        <ele>844.3</ele>
        <time>2022-10-16T12:54:03Z</time>
      </trkpt>
      <trkpt lat="44.41908" lon="5.14929">
        <ele>844.6</ele>
        <time>2022-10-16T12:54:01Z</time>
      </trkpt>
      <trkpt lat="44.41908" lon="5.14928">
        <ele>845</ele>
        <time>2022-10-16T12:54:00Z</time>
      </trkpt>
      <trkpt lat="44.41907" lon="5.14927">
        <ele>845.3</ele>
        <time>2022-10-16T12:53:59Z</time>
      </trkpt>
      <trkpt lat="44.41907" lon="5.14926">
        <ele>845.7</ele>
        <time>2022-10-16T12:53:58Z</time>
      </trkpt>
      <trkpt lat="44.41906" lon="5.14925">
        <ele>846</ele>
        <time>2022-10-16T12:53:57Z</time>
      </trkpt>
      <trkpt lat="44.41906" lon="5.14924">
        <ele>846.4</ele>
        <time>2022-10-16T12:53:56Z</time>
      </trkpt>
      <trkpt lat="44.41905" lon="5.14924">
        <ele>846.4</ele>
        <time>2022-10-16T12:53:55Z</time>
      </trkpt>
      <trkpt lat="44.41904" lon="5.14923">
        <ele>846.7</ele>
        <time>2022-10-16T12:53:54Z</time>
      </trkpt>
      <trkpt lat="44.41903" lon="5.14923">
        <ele>846.6</ele>
        <time>2022-10-16T12:53:53Z</time>
      </trkpt>
      <trkpt lat="44.41903" lon="5.14922">
        <ele>847</ele>
        <time>2022-10-16T12:53:52Z</time>
      </trkpt>
      <trkpt lat="44.41902" lon="5.14921">
        <ele>847.3</ele>
        <time>2022-10-16T12:53:51Z</time>
      </trkpt>
      <trkpt lat="44.41901" lon="5.14921">
        <ele>847.2</ele>
        <time>2022-10-16T12:53:50Z</time>
      </trkpt>
      <trkpt lat="44.419" lon="5.1492">
        <ele>847.6</ele>
        <time>2022-10-16T12:53:49Z</time>
      </trkpt>
      <trkpt lat="44.419" lon="5.14919">
        <ele>847.9</ele>
        <time>2022-10-16T12:53:48Z</time>
      </trkpt>
      <trkpt lat="44.41899" lon="5.14919">
        <ele>847.9</ele>
        <time>2022-10-16T12:53:47Z</time>
      </trkpt>
      <trkpt lat="44.41898" lon="5.14918">
        <ele>848.2</ele>
        <time>2022-10-16T12:53:46Z</time>
      </trkpt>
      <trkpt lat="44.41897" lon="5.14917">
        <ele>848.5</ele>
        <time>2022-10-16T12:53:45Z</time>
      </trkpt>
      <trkpt lat="44.41896" lon="5.14916">
        <ele>848.8</ele>
        <time>2022-10-16T12:53:43Z</time>
      </trkpt>
      <trkpt lat="44.41895" lon="5.14915">
        <ele>849.1</ele>
        <time>2022-10-16T12:53:42Z</time>
      </trkpt>
      <trkpt lat="44.41894" lon="5.14914">
        <ele>849.4</ele>
        <time>2022-10-16T12:53:41Z</time>
      </trkpt>
      <trkpt lat="44.41893" lon="5.14914">
        <ele>849.3</ele>
        <time>2022-10-16T12:53:40Z</time>
      </trkpt>
      <trkpt lat="44.41893" lon="5.14913">
        <ele>849.7</ele>
        <time>2022-10-16T12:53:39Z</time>
      </trkpt>
      <trkpt lat="44.41892" lon="5.14912">
        <ele>849.9</ele>
        <time>2022-10-16T12:53:38Z</time>
      </trkpt>
      <trkpt lat="44.41891" lon="5.14911">
        <ele>850.2</ele>
        <time>2022-10-16T12:53:37Z</time>
      </trkpt>
      <trkpt lat="44.41891" lon="5.1491">
        <ele>850.6</ele>
        <time>2022-10-16T12:53:36Z</time>
      </trkpt>
      <trkpt lat="44.4189" lon="5.14909">
        <ele>850.9</ele>
        <time>2022-10-16T12:53:35Z</time>
      </trkpt>
      <trkpt lat="44.41889" lon="5.14908">
        <ele>851.1</ele>
        <time>2022-10-16T12:53:34Z</time>
      </trkpt>
      <trkpt lat="44.41888" lon="5.14907">
        <ele>851.5</ele>
        <time>2022-10-16T12:53:33Z</time>
      </trkpt>
      <trkpt lat="44.41887" lon="5.14906">
        <ele>851.9</ele>
        <time>2022-10-16T12:53:32Z</time>
      </trkpt>
      <trkpt lat="44.41886" lon="5.14905">
        <ele>852.3</ele>
        <time>2022-10-16T12:53:31Z</time>
      </trkpt>
      <trkpt lat="44.41885" lon="5.14904">
        <ele>852.6</ele>
        <time>2022-10-16T12:53:30Z</time>
      </trkpt>
      <trkpt lat="44.41884" lon="5.14903">
        <ele>853</ele>
        <time>2022-10-16T12:53:28Z</time>
      </trkpt>
      <trkpt lat="44.41883" lon="5.14902">
        <ele>853.4</ele>
        <time>2022-10-16T12:53:27Z</time>
      </trkpt>
      <trkpt lat="44.41882" lon="5.14901">
        <ele>853.7</ele>
        <time>2022-10-16T12:53:26Z</time>
      </trkpt>
      <trkpt lat="44.41882" lon="5.149">
        <ele>854.1</ele>
        <time>2022-10-16T12:53:25Z</time>
      </trkpt>
      <trkpt lat="44.41881" lon="5.149">
        <ele>854.1</ele>
        <time>2022-10-16T12:53:24Z</time>
      </trkpt>
      <trkpt lat="44.41881" lon="5.14899">
        <ele>854.5</ele>
        <time>2022-10-16T12:53:23Z</time>
      </trkpt>
      <trkpt lat="44.4188" lon="5.14899">
        <ele>854.5</ele>
        <time>2022-10-16T12:53:22Z</time>
      </trkpt>
      <trkpt lat="44.41879" lon="5.14899">
        <ele>854.5</ele>
        <time>2022-10-16T12:53:21Z</time>
      </trkpt>
      <trkpt lat="44.41879" lon="5.14898">
        <ele>854.8</ele>
        <time>2022-10-16T12:53:20Z</time>
      </trkpt>
      <trkpt lat="44.41878" lon="5.14897">
        <ele>855.2</ele>
        <time>2022-10-16T12:53:19Z</time>
      </trkpt>
      <trkpt lat="44.41877" lon="5.14896">
        <ele>855.5</ele>
        <time>2022-10-16T12:53:17Z</time>
      </trkpt>
      <trkpt lat="44.41876" lon="5.14895">
        <ele>855.9</ele>
        <time>2022-10-16T12:53:16Z</time>
      </trkpt>
      <trkpt lat="44.41875" lon="5.14894">
        <ele>856.3</ele>
        <time>2022-10-16T12:53:15Z</time>
      </trkpt>
      <trkpt lat="44.41874" lon="5.14893">
        <ele>856.6</ele>
        <time>2022-10-16T12:53:14Z</time>
      </trkpt>
      <trkpt lat="44.41873" lon="5.14893">
        <ele>856.6</ele>
        <time>2022-10-16T12:53:13Z</time>
      </trkpt>
      <trkpt lat="44.41873" lon="5.14892">
        <ele>856.9</ele>
        <time>2022-10-16T12:53:12Z</time>
      </trkpt>
      <trkpt lat="44.41872" lon="5.14891">
        <ele>857.3</ele>
        <time>2022-10-16T12:53:11Z</time>
      </trkpt>
      <trkpt lat="44.41871" lon="5.14891">
        <ele>857.3</ele>
        <time>2022-10-16T12:53:10Z</time>
      </trkpt>
      <trkpt lat="44.4187" lon="5.1489">
        <ele>857.6</ele>
        <time>2022-10-16T12:53:09Z</time>
      </trkpt>
      <trkpt lat="44.41869" lon="5.1489">
        <ele>857.6</ele>
        <time>2022-10-16T12:53:08Z</time>
      </trkpt>
      <trkpt lat="44.41868" lon="5.14889">
        <ele>858</ele>
        <time>2022-10-16T12:53:06Z</time>
      </trkpt>
      <trkpt lat="44.41867" lon="5.14888">
        <ele>858.3</ele>
        <time>2022-10-16T12:53:05Z</time>
      </trkpt>
      <trkpt lat="44.41866" lon="5.14887">
        <ele>858.6</ele>
        <time>2022-10-16T12:53:04Z</time>
      </trkpt>
      <trkpt lat="44.41865" lon="5.14886">
        <ele>859</ele>
        <time>2022-10-16T12:53:03Z</time>
      </trkpt>
      <trkpt lat="44.41864" lon="5.14886">
        <ele>858.9</ele>
        <time>2022-10-16T12:53:02Z</time>
      </trkpt>
      <trkpt lat="44.41863" lon="5.14885">
        <ele>859.3</ele>
        <time>2022-10-16T12:53:01Z</time>
      </trkpt>
      <trkpt lat="44.41862" lon="5.14885">
        <ele>859.3</ele>
        <time>2022-10-16T12:53:00Z</time>
      </trkpt>
      <trkpt lat="44.41861" lon="5.14885">
        <ele>859.3</ele>
        <time>2022-10-16T12:52:59Z</time>
      </trkpt>
      <trkpt lat="44.4186" lon="5.14885">
        <ele>859.3</ele>
        <time>2022-10-16T12:52:58Z</time>
      </trkpt>
      <trkpt lat="44.41859" lon="5.14884">
        <ele>859.7</ele>
        <time>2022-10-16T12:52:56Z</time>
      </trkpt>
      <trkpt lat="44.41858" lon="5.14884">
        <ele>859.8</ele>
        <time>2022-10-16T12:52:55Z</time>
      </trkpt>
      <trkpt lat="44.41857" lon="5.14884">
        <ele>859.8</ele>
        <time>2022-10-16T12:52:54Z</time>
      </trkpt>
      <trkpt lat="44.41856" lon="5.14884">
        <ele>859.9</ele>
        <time>2022-10-16T12:52:53Z</time>
      </trkpt>
      <trkpt lat="44.41855" lon="5.14884">
        <ele>859.9</ele>
        <time>2022-10-16T12:52:52Z</time>
      </trkpt>
      <trkpt lat="44.41854" lon="5.14884">
        <ele>860</ele>
        <time>2022-10-16T12:52:51Z</time>
      </trkpt>
      <trkpt lat="44.41853" lon="5.14884">
        <ele>860.1</ele>
        <time>2022-10-16T12:52:49Z</time>
      </trkpt>
      <trkpt lat="44.41852" lon="5.14883">
        <ele>860.4</ele>
        <time>2022-10-16T12:52:48Z</time>
      </trkpt>
      <trkpt lat="44.41852" lon="5.14882">
        <ele>860.7</ele>
        <time>2022-10-16T12:52:47Z</time>
      </trkpt>
      <trkpt lat="44.41852" lon="5.14881">
        <ele>861</ele>
        <time>2022-10-16T12:52:46Z</time>
      </trkpt>
      <trkpt lat="44.41852" lon="5.1488">
        <ele>861.3</ele>
        <time>2022-10-16T12:52:45Z</time>
      </trkpt>
      <trkpt lat="44.41852" lon="5.14879">
        <ele>861.6</ele>
        <time>2022-10-16T12:52:44Z</time>
      </trkpt>
      <trkpt lat="44.41851" lon="5.14878">
        <ele>862</ele>
        <time>2022-10-16T12:52:43Z</time>
      </trkpt>
      <trkpt lat="44.41851" lon="5.14877">
        <ele>862.3</ele>
        <time>2022-10-16T12:52:42Z</time>
      </trkpt>
      <trkpt lat="44.41851" lon="5.14876">
        <ele>862.6</ele>
        <time>2022-10-16T12:52:41Z</time>
      </trkpt>
      <trkpt lat="44.41851" lon="5.14875">
        <ele>862.9</ele>
        <time>2022-10-16T12:52:40Z</time>
      </trkpt>
      <trkpt lat="44.4185" lon="5.14874">
        <ele>863.2</ele>
        <time>2022-10-16T12:52:39Z</time>
      </trkpt>
      <trkpt lat="44.4185" lon="5.14873">
        <ele>863.5</ele>
        <time>2022-10-16T12:52:37Z</time>
      </trkpt>
      <trkpt lat="44.4185" lon="5.14872">
        <ele>863.8</ele>
        <time>2022-10-16T12:52:36Z</time>
      </trkpt>
      <trkpt lat="44.4185" lon="5.14871">
        <ele>864.1</ele>
        <time>2022-10-16T12:52:35Z</time>
      </trkpt>
      <trkpt lat="44.4185" lon="5.1487">
        <ele>864.4</ele>
        <time>2022-10-16T12:52:34Z</time>
      </trkpt>
      <trkpt lat="44.41849" lon="5.14869">
        <ele>864.7</ele>
        <time>2022-10-16T12:52:33Z</time>
      </trkpt>
      <trkpt lat="44.41849" lon="5.14868">
        <ele>865</ele>
        <time>2022-10-16T12:52:31Z</time>
      </trkpt>
      <trkpt lat="44.41849" lon="5.14867">
        <ele>865.3</ele>
        <time>2022-10-16T12:52:30Z</time>
      </trkpt>
      <trkpt lat="44.41848" lon="5.14866">
        <ele>865.6</ele>
        <time>2022-10-16T12:52:29Z</time>
      </trkpt>
      <trkpt lat="44.41848" lon="5.14865">
        <ele>865.9</ele>
        <time>2022-10-16T12:52:28Z</time>
      </trkpt>
      <trkpt lat="44.41848" lon="5.14864">
        <ele>866.2</ele>
        <time>2022-10-16T12:52:27Z</time>
      </trkpt>
      <trkpt lat="44.41847" lon="5.14863">
        <ele>866.5</ele>
        <time>2022-10-16T12:52:26Z</time>
      </trkpt>
      <trkpt lat="44.41847" lon="5.14862">
        <ele>866.7</ele>
        <time>2022-10-16T12:52:25Z</time>
      </trkpt>
      <trkpt lat="44.41846" lon="5.14861">
        <ele>867</ele>
        <time>2022-10-16T12:52:24Z</time>
      </trkpt>
      <trkpt lat="44.41846" lon="5.1486">
        <ele>867.4</ele>
        <time>2022-10-16T12:52:23Z</time>
      </trkpt>
      <trkpt lat="44.41845" lon="5.14859">
        <ele>867.7</ele>
        <time>2022-10-16T12:52:22Z</time>
      </trkpt>
      <trkpt lat="44.41845" lon="5.14858">
        <ele>868</ele>
        <time>2022-10-16T12:52:21Z</time>
      </trkpt>
      <trkpt lat="44.41844" lon="5.14857">
        <ele>868.3</ele>
        <time>2022-10-16T12:52:20Z</time>
      </trkpt>
      <trkpt lat="44.41844" lon="5.14856">
        <ele>868.7</ele>
        <time>2022-10-16T12:52:19Z</time>
      </trkpt>
      <trkpt lat="44.41843" lon="5.14855">
        <ele>869</ele>
        <time>2022-10-16T12:52:18Z</time>
      </trkpt>
      <trkpt lat="44.41843" lon="5.14854">
        <ele>869.3</ele>
        <time>2022-10-16T12:52:17Z</time>
      </trkpt>
      <trkpt lat="44.41842" lon="5.14853">
        <ele>869.6</ele>
        <time>2022-10-16T12:52:16Z</time>
      </trkpt>
      <trkpt lat="44.41841" lon="5.14852">
        <ele>870</ele>
        <time>2022-10-16T12:52:15Z</time>
      </trkpt>
      <trkpt lat="44.41841" lon="5.14851">
        <ele>870.3</ele>
        <time>2022-10-16T12:52:14Z</time>
      </trkpt>
      <trkpt lat="44.4184" lon="5.1485">
        <ele>870.6</ele>
        <time>2022-10-16T12:52:13Z</time>
      </trkpt>
      <trkpt lat="44.4184" lon="5.14849">
        <ele>870.9</ele>
        <time>2022-10-16T12:52:12Z</time>
      </trkpt>
      <trkpt lat="44.41839" lon="5.14848">
        <ele>871.2</ele>
        <time>2022-10-16T12:52:11Z</time>
      </trkpt>
      <trkpt lat="44.41839" lon="5.14846">
        <ele>871.9</ele>
        <time>2022-10-16T12:52:10Z</time>
      </trkpt>
      <trkpt lat="44.41838" lon="5.14845">
        <ele>872.2</ele>
        <time>2022-10-16T12:52:09Z</time>
      </trkpt>
      <trkpt lat="44.41838" lon="5.14844">
        <ele>872.5</ele>
        <time>2022-10-16T12:52:08Z</time>
      </trkpt>
      <trkpt lat="44.41838" lon="5.14843">
        <ele>872.9</ele>
        <time>2022-10-16T12:52:07Z</time>
      </trkpt>
      <trkpt lat="44.41838" lon="5.14842">
        <ele>873.2</ele>
        <time>2022-10-16T12:52:06Z</time>
      </trkpt>
      <trkpt lat="44.41837" lon="5.1484">
        <ele>873.8</ele>
        <time>2022-10-16T12:52:05Z</time>
      </trkpt>
      <trkpt lat="44.41836" lon="5.1484">
        <ele>873.8</ele>
        <time>2022-10-16T12:52:04Z</time>
      </trkpt>
      <trkpt lat="44.41835" lon="5.14839">
        <ele>874.2</ele>
        <time>2022-10-16T12:52:03Z</time>
      </trkpt>
      <trkpt lat="44.41834" lon="5.14838">
        <ele>874.5</ele>
        <time>2022-10-16T12:52:02Z</time>
      </trkpt>
      <trkpt lat="44.41833" lon="5.14837">
        <ele>874.8</ele>
        <time>2022-10-16T12:52:01Z</time>
      </trkpt>
      <trkpt lat="44.41832" lon="5.14836">
        <ele>875</ele>
        <time>2022-10-16T12:52:00Z</time>
      </trkpt>
      <trkpt lat="44.41831" lon="5.14835">
        <ele>875.2</ele>
        <time>2022-10-16T12:51:59Z</time>
      </trkpt>
      <trkpt lat="44.41831" lon="5.14833">
        <ele>875.9</ele>
        <time>2022-10-16T12:51:58Z</time>
      </trkpt>
      <trkpt lat="44.4183" lon="5.14832">
        <ele>876.1</ele>
        <time>2022-10-16T12:51:57Z</time>
      </trkpt>
      <trkpt lat="44.41829" lon="5.14831">
        <ele>876.4</ele>
        <time>2022-10-16T12:51:56Z</time>
      </trkpt>
      <trkpt lat="44.41829" lon="5.1483">
        <ele>876.8</ele>
        <time>2022-10-16T12:51:55Z</time>
      </trkpt>
      <trkpt lat="44.41828" lon="5.14829">
        <ele>877</ele>
        <time>2022-10-16T12:51:54Z</time>
      </trkpt>
      <trkpt lat="44.41827" lon="5.14829">
        <ele>876.9</ele>
        <time>2022-10-16T12:51:53Z</time>
      </trkpt>
      <trkpt lat="44.41826" lon="5.14828">
        <ele>877.2</ele>
        <time>2022-10-16T12:51:52Z</time>
      </trkpt>
      <trkpt lat="44.41826" lon="5.14827">
        <ele>877.6</ele>
        <time>2022-10-16T12:51:51Z</time>
      </trkpt>
      <trkpt lat="44.41825" lon="5.14827">
        <ele>877.5</ele>
        <time>2022-10-16T12:51:50Z</time>
      </trkpt>
      <trkpt lat="44.41824" lon="5.14826">
        <ele>877.8</ele>
        <time>2022-10-16T12:51:49Z</time>
      </trkpt>
      <trkpt lat="44.41823" lon="5.14825">
        <ele>878.1</ele>
        <time>2022-10-16T12:51:48Z</time>
      </trkpt>
      <trkpt lat="44.41822" lon="5.14825">
        <ele>878</ele>
        <time>2022-10-16T12:51:47Z</time>
      </trkpt>
      <trkpt lat="44.41821" lon="5.14824">
        <ele>878.3</ele>
        <time>2022-10-16T12:51:46Z</time>
      </trkpt>
      <trkpt lat="44.4182" lon="5.14823">
        <ele>878.6</ele>
        <time>2022-10-16T12:51:45Z</time>
      </trkpt>
      <trkpt lat="44.41819" lon="5.14822">
        <ele>879</ele>
        <time>2022-10-16T12:51:43Z</time>
      </trkpt>
      <trkpt lat="44.41818" lon="5.14821">
        <ele>879.3</ele>
        <time>2022-10-16T12:51:42Z</time>
      </trkpt>
      <trkpt lat="44.41817" lon="5.1482">
        <ele>879.6</ele>
        <time>2022-10-16T12:51:41Z</time>
      </trkpt>
      <trkpt lat="44.41816" lon="5.1482">
        <ele>879.5</ele>
        <time>2022-10-16T12:51:40Z</time>
      </trkpt>
      <trkpt lat="44.41815" lon="5.14819">
        <ele>879.9</ele>
        <time>2022-10-16T12:51:39Z</time>
      </trkpt>
      <trkpt lat="44.41814" lon="5.14818">
        <ele>880.2</ele>
        <time>2022-10-16T12:51:38Z</time>
      </trkpt>
      <trkpt lat="44.41813" lon="5.14818">
        <ele>880.1</ele>
        <time>2022-10-16T12:51:37Z</time>
      </trkpt>
      <trkpt lat="44.41812" lon="5.14817">
        <ele>880.5</ele>
        <time>2022-10-16T12:51:36Z</time>
      </trkpt>
      <trkpt lat="44.41811" lon="5.14817">
        <ele>880.4</ele>
        <time>2022-10-16T12:51:35Z</time>
      </trkpt>
      <trkpt lat="44.4181" lon="5.14816">
        <ele>880.8</ele>
        <time>2022-10-16T12:51:34Z</time>
      </trkpt>
      <trkpt lat="44.41809" lon="5.14816">
        <ele>880.7</ele>
        <time>2022-10-16T12:51:33Z</time>
      </trkpt>
      <trkpt lat="44.41808" lon="5.14816">
        <ele>880.6</ele>
        <time>2022-10-16T12:51:32Z</time>
      </trkpt>
      <trkpt lat="44.41808" lon="5.14815">
        <ele>881.1</ele>
        <time>2022-10-16T12:51:31Z</time>
      </trkpt>
      <trkpt lat="44.41807" lon="5.14815">
        <ele>881</ele>
        <time>2022-10-16T12:51:29Z</time>
      </trkpt>
      <trkpt lat="44.41806" lon="5.14814">
        <ele>881.4</ele>
        <time>2022-10-16T12:51:28Z</time>
      </trkpt>
      <trkpt lat="44.41805" lon="5.14814">
        <ele>881.3</ele>
        <time>2022-10-16T12:51:26Z</time>
      </trkpt>
      <trkpt lat="44.41804" lon="5.14813">
        <ele>881.6</ele>
        <time>2022-10-16T12:51:25Z</time>
      </trkpt>
      <trkpt lat="44.41803" lon="5.14813">
        <ele>881.6</ele>
        <time>2022-10-16T12:51:24Z</time>
      </trkpt>
      <trkpt lat="44.41803" lon="5.14812">
        <ele>882</ele>
        <time>2022-10-16T12:51:23Z</time>
      </trkpt>
      <trkpt lat="44.41802" lon="5.14812">
        <ele>881.9</ele>
        <time>2022-10-16T12:51:22Z</time>
      </trkpt>
      <trkpt lat="44.41801" lon="5.14811">
        <ele>882.3</ele>
        <time>2022-10-16T12:51:21Z</time>
      </trkpt>
      <trkpt lat="44.418" lon="5.14811">
        <ele>882.2</ele>
        <time>2022-10-16T12:51:20Z</time>
      </trkpt>
      <trkpt lat="44.41799" lon="5.1481">
        <ele>882.5</ele>
        <time>2022-10-16T12:51:19Z</time>
      </trkpt>
      <trkpt lat="44.41797" lon="5.1481">
        <ele>882.4</ele>
        <time>2022-10-16T12:51:18Z</time>
      </trkpt>
      <trkpt lat="44.41794" lon="5.14809">
        <ele>882.6</ele>
        <time>2022-10-16T12:48:53Z</time>
      </trkpt>
      <trkpt lat="44.41793" lon="5.14809">
        <ele>882.5</ele>
        <time>2022-10-16T12:48:52Z</time>
      </trkpt>
      <trkpt lat="44.41792" lon="5.14808">
        <ele>882.9</ele>
        <time>2022-10-16T12:48:51Z</time>
      </trkpt>
      <trkpt lat="44.41791" lon="5.14808">
        <ele>882.8</ele>
        <time>2022-10-16T12:48:49Z</time>
      </trkpt>
      <trkpt lat="44.4179" lon="5.14808">
        <ele>882.7</ele>
        <time>2022-10-16T12:48:48Z</time>
      </trkpt>
      <trkpt lat="44.41789" lon="5.14807">
        <ele>883.1</ele>
        <time>2022-10-16T12:48:46Z</time>
      </trkpt>
      <trkpt lat="44.41788" lon="5.14806">
        <ele>883.5</ele>
        <time>2022-10-16T12:48:44Z</time>
      </trkpt>
      <trkpt lat="44.41787" lon="5.14805">
        <ele>883.9</ele>
        <time>2022-10-16T12:48:43Z</time>
      </trkpt>
      <trkpt lat="44.41786" lon="5.14805">
        <ele>883.9</ele>
        <time>2022-10-16T12:48:42Z</time>
      </trkpt>
      <trkpt lat="44.41786" lon="5.14804">
        <ele>884.4</ele>
        <time>2022-10-16T12:48:41Z</time>
      </trkpt>
      <trkpt lat="44.41785" lon="5.14804">
        <ele>884.3</ele>
        <time>2022-10-16T12:48:40Z</time>
      </trkpt>
      <trkpt lat="44.41784" lon="5.14804">
        <ele>884.3</ele>
        <time>2022-10-16T12:48:39Z</time>
      </trkpt>
      <trkpt lat="44.41783" lon="5.14803">
        <ele>884.7</ele>
        <time>2022-10-16T12:48:38Z</time>
      </trkpt>
      <trkpt lat="44.41782" lon="5.14803">
        <ele>884.6</ele>
        <time>2022-10-16T12:48:37Z</time>
      </trkpt>
      <trkpt lat="44.41781" lon="5.14803">
        <ele>884.6</ele>
        <time>2022-10-16T12:48:36Z</time>
      </trkpt>
      <trkpt lat="44.41781" lon="5.14802">
        <ele>885.1</ele>
        <time>2022-10-16T12:48:35Z</time>
      </trkpt>
      <trkpt lat="44.4178" lon="5.14802">
        <ele>885</ele>
        <time>2022-10-16T12:48:34Z</time>
      </trkpt>
      <trkpt lat="44.41779" lon="5.14801">
        <ele>885.5</ele>
        <time>2022-10-16T12:48:33Z</time>
      </trkpt>
      <trkpt lat="44.41778" lon="5.14801">
        <ele>885.5</ele>
        <time>2022-10-16T12:48:32Z</time>
      </trkpt>
      <trkpt lat="44.41778" lon="5.148">
        <ele>886</ele>
        <time>2022-10-16T12:48:31Z</time>
      </trkpt>
      <trkpt lat="44.41777" lon="5.148">
        <ele>885.9</ele>
        <time>2022-10-16T12:48:30Z</time>
      </trkpt>
      <trkpt lat="44.41777" lon="5.14799">
        <ele>886.5</ele>
        <time>2022-10-16T12:48:29Z</time>
      </trkpt>
      <trkpt lat="44.41776" lon="5.14798">
        <ele>886.9</ele>
        <time>2022-10-16T12:48:27Z</time>
      </trkpt>
      <trkpt lat="44.41775" lon="5.14797">
        <ele>887.4</ele>
        <time>2022-10-16T12:48:25Z</time>
      </trkpt>
      <trkpt lat="44.41774" lon="5.14796">
        <ele>887.8</ele>
        <time>2022-10-16T12:48:24Z</time>
      </trkpt>
      <trkpt lat="44.41773" lon="5.14796">
        <ele>887.8</ele>
        <time>2022-10-16T12:48:23Z</time>
      </trkpt>
      <trkpt lat="44.41773" lon="5.14795">
        <ele>888.3</ele>
        <time>2022-10-16T12:48:22Z</time>
      </trkpt>
      <trkpt lat="44.41772" lon="5.14795">
        <ele>888.2</ele>
        <time>2022-10-16T12:48:20Z</time>
      </trkpt>
      <trkpt lat="44.41771" lon="5.14795">
        <ele>888.1</ele>
        <time>2022-10-16T12:48:19Z</time>
      </trkpt>
      <trkpt lat="44.4177" lon="5.14794">
        <ele>888.6</ele>
        <time>2022-10-16T12:48:17Z</time>
      </trkpt>
      <trkpt lat="44.41769" lon="5.14793">
        <ele>889</ele>
        <time>2022-10-16T12:48:15Z</time>
      </trkpt>
      <trkpt lat="44.41768" lon="5.14793">
        <ele>888.9</ele>
        <time>2022-10-16T12:48:14Z</time>
      </trkpt>
      <trkpt lat="44.41768" lon="5.14792">
        <ele>889.4</ele>
        <time>2022-10-16T12:48:13Z</time>
      </trkpt>
      <trkpt lat="44.41767" lon="5.14792">
        <ele>889.4</ele>
        <time>2022-10-16T12:48:12Z</time>
      </trkpt>
      <trkpt lat="44.41766" lon="5.14791">
        <ele>889.8</ele>
        <time>2022-10-16T12:48:10Z</time>
      </trkpt>
      <trkpt lat="44.41765" lon="5.14791">
        <ele>889.7</ele>
        <time>2022-10-16T12:48:09Z</time>
      </trkpt>
      <trkpt lat="44.41764" lon="5.1479">
        <ele>890.1</ele>
        <time>2022-10-16T12:48:08Z</time>
      </trkpt>
      <trkpt lat="44.41763" lon="5.1479">
        <ele>890</ele>
        <time>2022-10-16T12:48:06Z</time>
      </trkpt>
      <trkpt lat="44.41762" lon="5.14789">
        <ele>890.5</ele>
        <time>2022-10-16T12:48:05Z</time>
      </trkpt>
      <trkpt lat="44.41761" lon="5.14789">
        <ele>890.4</ele>
        <time>2022-10-16T12:48:04Z</time>
      </trkpt>
      <trkpt lat="44.41761" lon="5.14788">
        <ele>890.9</ele>
        <time>2022-10-16T12:48:03Z</time>
      </trkpt>
      <trkpt lat="44.4176" lon="5.14788">
        <ele>890.8</ele>
        <time>2022-10-16T12:48:02Z</time>
      </trkpt>
      <trkpt lat="44.41759" lon="5.14788">
        <ele>890.7</ele>
        <time>2022-10-16T12:48:01Z</time>
      </trkpt>
      <trkpt lat="44.41758" lon="5.14787">
        <ele>891.1</ele>
        <time>2022-10-16T12:48:00Z</time>
      </trkpt>
      <trkpt lat="44.41757" lon="5.14787">
        <ele>891</ele>
        <time>2022-10-16T12:47:59Z</time>
      </trkpt>
      <trkpt lat="44.41756" lon="5.14787">
        <ele>890.9</ele>
        <time>2022-10-16T12:47:58Z</time>
      </trkpt>
      <trkpt lat="44.41755" lon="5.14786">
        <ele>891.3</ele>
        <time>2022-10-16T12:47:56Z</time>
      </trkpt>
      <trkpt lat="44.41754" lon="5.14785">
        <ele>891.8</ele>
        <time>2022-10-16T12:47:55Z</time>
      </trkpt>
      <trkpt lat="44.41753" lon="5.14785">
        <ele>891.7</ele>
        <time>2022-10-16T12:47:54Z</time>
      </trkpt>
      <trkpt lat="44.41752" lon="5.14784">
        <ele>892.1</ele>
        <time>2022-10-16T12:47:53Z</time>
      </trkpt>
      <trkpt lat="44.41751" lon="5.14784">
        <ele>892</ele>
        <time>2022-10-16T12:47:52Z</time>
      </trkpt>
      <trkpt lat="44.4175" lon="5.14783">
        <ele>892.4</ele>
        <time>2022-10-16T12:47:50Z</time>
      </trkpt>
      <trkpt lat="44.41749" lon="5.14783">
        <ele>892.3</ele>
        <time>2022-10-16T12:47:49Z</time>
      </trkpt>
      <trkpt lat="44.41749" lon="5.14782">
        <ele>892.8</ele>
        <time>2022-10-16T12:47:48Z</time>
      </trkpt>
      <trkpt lat="44.41748" lon="5.14782">
        <ele>892.8</ele>
        <time>2022-10-16T12:47:47Z</time>
      </trkpt>
      <trkpt lat="44.41748" lon="5.14781">
        <ele>893.3</ele>
        <time>2022-10-16T12:47:46Z</time>
      </trkpt>
      <trkpt lat="44.41747" lon="5.14781">
        <ele>893.3</ele>
        <time>2022-10-16T12:47:45Z</time>
      </trkpt>
      <trkpt lat="44.41746" lon="5.1478">
        <ele>893.7</ele>
        <time>2022-10-16T12:47:43Z</time>
      </trkpt>
      <trkpt lat="44.41745" lon="5.14779">
        <ele>894.2</ele>
        <time>2022-10-16T12:47:42Z</time>
      </trkpt>
      <trkpt lat="44.41744" lon="5.14779">
        <ele>894.2</ele>
        <time>2022-10-16T12:47:41Z</time>
      </trkpt>
      <trkpt lat="44.41743" lon="5.14778">
        <ele>894.6</ele>
        <time>2022-10-16T12:47:39Z</time>
      </trkpt>
      <trkpt lat="44.41742" lon="5.14777">
        <ele>895.1</ele>
        <time>2022-10-16T12:47:38Z</time>
      </trkpt>
      <trkpt lat="44.41741" lon="5.14777">
        <ele>895.1</ele>
        <time>2022-10-16T12:47:37Z</time>
      </trkpt>
      <trkpt lat="44.41741" lon="5.14776">
        <ele>895.6</ele>
        <time>2022-10-16T12:47:36Z</time>
      </trkpt>
      <trkpt lat="44.4174" lon="5.14776">
        <ele>895.6</ele>
        <time>2022-10-16T12:47:35Z</time>
      </trkpt>
      <trkpt lat="44.41739" lon="5.14775">
        <ele>896.1</ele>
        <time>2022-10-16T12:47:34Z</time>
      </trkpt>
      <trkpt lat="44.41739" lon="5.14774">
        <ele>896.6</ele>
        <time>2022-10-16T12:47:33Z</time>
      </trkpt>
      <trkpt lat="44.41738" lon="5.14774">
        <ele>896.5</ele>
        <time>2022-10-16T12:47:32Z</time>
      </trkpt>
      <trkpt lat="44.41738" lon="5.14773">
        <ele>897.1</ele>
        <time>2022-10-16T12:47:31Z</time>
      </trkpt>
      <trkpt lat="44.41737" lon="5.14772">
        <ele>897.6</ele>
        <time>2022-10-16T12:47:29Z</time>
      </trkpt>
      <trkpt lat="44.41736" lon="5.14771">
        <ele>898</ele>
        <time>2022-10-16T12:47:27Z</time>
      </trkpt>
      <trkpt lat="44.41735" lon="5.14771">
        <ele>898</ele>
        <time>2022-10-16T12:47:26Z</time>
      </trkpt>
      <trkpt lat="44.41734" lon="5.1477">
        <ele>898.5</ele>
        <time>2022-10-16T12:47:24Z</time>
      </trkpt>
      <trkpt lat="44.41733" lon="5.14769">
        <ele>898.9</ele>
        <time>2022-10-16T12:47:23Z</time>
      </trkpt>
      <trkpt lat="44.41732" lon="5.14769">
        <ele>898.9</ele>
        <time>2022-10-16T12:47:22Z</time>
      </trkpt>
      <trkpt lat="44.41731" lon="5.14768">
        <ele>899.4</ele>
        <time>2022-10-16T12:47:20Z</time>
      </trkpt>
      <trkpt lat="44.4173" lon="5.14767">
        <ele>899.8</ele>
        <time>2022-10-16T12:47:19Z</time>
      </trkpt>
      <trkpt lat="44.41729" lon="5.14767">
        <ele>899.8</ele>
        <time>2022-10-16T12:47:18Z</time>
      </trkpt>
      <trkpt lat="44.41729" lon="5.14766">
        <ele>900.3</ele>
        <time>2022-10-16T12:47:17Z</time>
      </trkpt>
      <trkpt lat="44.41728" lon="5.14765">
        <ele>900.7</ele>
        <time>2022-10-16T12:47:15Z</time>
      </trkpt>
      <trkpt lat="44.41727" lon="5.14764">
        <ele>901.2</ele>
        <time>2022-10-16T12:47:14Z</time>
      </trkpt>
      <trkpt lat="44.41726" lon="5.14764">
        <ele>901.1</ele>
        <time>2022-10-16T12:47:12Z</time>
      </trkpt>
      <trkpt lat="44.41725" lon="5.14763">
        <ele>901.6</ele>
        <time>2022-10-16T12:47:11Z</time>
      </trkpt>
      <trkpt lat="44.41724" lon="5.14763">
        <ele>901.5</ele>
        <time>2022-10-16T12:47:09Z</time>
      </trkpt>
      <trkpt lat="44.41723" lon="5.14762">
        <ele>902</ele>
        <time>2022-10-16T12:47:07Z</time>
      </trkpt>
      <trkpt lat="44.41722" lon="5.14762">
        <ele>901.9</ele>
        <time>2022-10-16T12:47:06Z</time>
      </trkpt>
      <trkpt lat="44.41722" lon="5.14761">
        <ele>902.4</ele>
        <time>2022-10-16T12:47:05Z</time>
      </trkpt>
      <trkpt lat="44.41721" lon="5.14761">
        <ele>902.4</ele>
        <time>2022-10-16T12:47:04Z</time>
      </trkpt>
      <trkpt lat="44.41721" lon="5.1476">
        <ele>902.9</ele>
        <time>2022-10-16T12:47:03Z</time>
      </trkpt>
      <trkpt lat="44.4172" lon="5.1476">
        <ele>902.9</ele>
        <time>2022-10-16T12:47:02Z</time>
      </trkpt>
      <trkpt lat="44.41719" lon="5.14759">
        <ele>903.3</ele>
        <time>2022-10-16T12:47:00Z</time>
      </trkpt>
      <trkpt lat="44.41718" lon="5.14759">
        <ele>903.3</ele>
        <time>2022-10-16T12:46:59Z</time>
      </trkpt>
      <trkpt lat="44.41717" lon="5.14758">
        <ele>903.8</ele>
        <time>2022-10-16T12:46:57Z</time>
      </trkpt>
      <trkpt lat="44.41716" lon="5.14757">
        <ele>904.2</ele>
        <time>2022-10-16T12:46:56Z</time>
      </trkpt>
      <trkpt lat="44.41715" lon="5.14757">
        <ele>904.2</ele>
        <time>2022-10-16T12:46:55Z</time>
      </trkpt>
      <trkpt lat="44.41715" lon="5.14756">
        <ele>904.7</ele>
        <time>2022-10-16T12:46:54Z</time>
      </trkpt>
      <trkpt lat="44.41714" lon="5.14756">
        <ele>904.7</ele>
        <time>2022-10-16T12:46:53Z</time>
      </trkpt>
      <trkpt lat="44.41713" lon="5.14756">
        <ele>904.6</ele>
        <time>2022-10-16T12:46:52Z</time>
      </trkpt>
      <trkpt lat="44.41712" lon="5.14755">
        <ele>905.1</ele>
        <time>2022-10-16T12:46:50Z</time>
      </trkpt>
      <trkpt lat="44.41711" lon="5.14755">
        <ele>905.1</ele>
        <time>2022-10-16T12:46:49Z</time>
      </trkpt>
      <trkpt lat="44.4171" lon="5.14755">
        <ele>905</ele>
        <time>2022-10-16T12:46:48Z</time>
      </trkpt>
      <trkpt lat="44.41709" lon="5.14754">
        <ele>905.5</ele>
        <time>2022-10-16T12:46:47Z</time>
      </trkpt>
      <trkpt lat="44.41708" lon="5.14754">
        <ele>905.5</ele>
        <time>2022-10-16T12:46:45Z</time>
      </trkpt>
      <trkpt lat="44.41707" lon="5.14754">
        <ele>905.4</ele>
        <time>2022-10-16T12:46:44Z</time>
      </trkpt>
      <trkpt lat="44.41706" lon="5.14753">
        <ele>905.9</ele>
        <time>2022-10-16T12:46:43Z</time>
      </trkpt>
      <trkpt lat="44.41705" lon="5.14753">
        <ele>905.9</ele>
        <time>2022-10-16T12:46:41Z</time>
      </trkpt>
      <trkpt lat="44.41704" lon="5.14752">
        <ele>906.3</ele>
        <time>2022-10-16T12:46:39Z</time>
      </trkpt>
      <trkpt lat="44.41703" lon="5.14751">
        <ele>906.8</ele>
        <time>2022-10-16T12:46:37Z</time>
      </trkpt>
      <trkpt lat="44.41703" lon="5.1475">
        <ele>907.3</ele>
        <time>2022-10-16T12:46:36Z</time>
      </trkpt>
      <trkpt lat="44.41702" lon="5.1475">
        <ele>907.3</ele>
        <time>2022-10-16T12:46:35Z</time>
      </trkpt>
      <trkpt lat="44.41702" lon="5.14749">
        <ele>907.8</ele>
        <time>2022-10-16T12:46:34Z</time>
      </trkpt>
      <trkpt lat="44.41702" lon="5.14748">
        <ele>908.3</ele>
        <time>2022-10-16T12:46:33Z</time>
      </trkpt>
      <trkpt lat="44.41701" lon="5.14748">
        <ele>908.2</ele>
        <time>2022-10-16T12:46:32Z</time>
      </trkpt>
      <trkpt lat="44.41701" lon="5.14747">
        <ele>908.7</ele>
        <time>2022-10-16T12:46:30Z</time>
      </trkpt>
      <trkpt lat="44.41701" lon="5.14746">
        <ele>909.3</ele>
        <time>2022-10-16T12:46:29Z</time>
      </trkpt>
      <trkpt lat="44.417" lon="5.14746">
        <ele>909.2</ele>
        <time>2022-10-16T12:46:28Z</time>
      </trkpt>
      <trkpt lat="44.417" lon="5.14745">
        <ele>909.7</ele>
        <time>2022-10-16T12:46:27Z</time>
      </trkpt>
      <trkpt lat="44.41699" lon="5.14745">
        <ele>909.7</ele>
        <time>2022-10-16T12:46:26Z</time>
      </trkpt>
      <trkpt lat="44.41698" lon="5.14744">
        <ele>910.2</ele>
        <time>2022-10-16T12:46:25Z</time>
      </trkpt>
      <trkpt lat="44.41698" lon="5.14743">
        <ele>910.7</ele>
        <time>2022-10-16T12:46:24Z</time>
      </trkpt>
      <trkpt lat="44.41697" lon="5.14742">
        <ele>911.1</ele>
        <time>2022-10-16T12:46:21Z</time>
      </trkpt>
      <trkpt lat="44.41697" lon="5.14741">
        <ele>911.6</ele>
        <time>2022-10-16T12:46:19Z</time>
      </trkpt>
      <trkpt lat="44.41696" lon="5.14741">
        <ele>911.6</ele>
        <time>2022-10-16T12:46:18Z</time>
      </trkpt>
      <trkpt lat="44.41696" lon="5.1474">
        <ele>912.1</ele>
        <time>2022-10-16T12:46:17Z</time>
      </trkpt>
      <trkpt lat="44.41697" lon="5.1474">
        <ele>912.1</ele>
        <time>2022-10-16T12:46:16Z</time>
      </trkpt>
      <trkpt lat="44.41697" lon="5.14739">
        <ele>912.6</ele>
        <time>2022-10-16T12:46:13Z</time>
      </trkpt>
      <trkpt lat="44.41698" lon="5.14739">
        <ele>912.7</ele>
        <time>2022-10-16T12:46:12Z</time>
      </trkpt>
      <trkpt lat="44.41698" lon="5.14738">
        <ele>913.2</ele>
        <time>2022-10-16T12:46:11Z</time>
      </trkpt>
      <trkpt lat="44.41699" lon="5.14738">
        <ele>913.2</ele>
        <time>2022-10-16T12:46:09Z</time>
      </trkpt>
      <trkpt lat="44.417" lon="5.14738">
        <ele>913.2</ele>
        <time>2022-10-16T12:46:08Z</time>
      </trkpt>
      <trkpt lat="44.41701" lon="5.14738">
        <ele>913.3</ele>
        <time>2022-10-16T12:46:07Z</time>
      </trkpt>
      <trkpt lat="44.41702" lon="5.14737">
        <ele>913.8</ele>
        <time>2022-10-16T12:46:05Z</time>
      </trkpt>
      <trkpt lat="44.41703" lon="5.14737">
        <ele>913.9</ele>
        <time>2022-10-16T12:46:04Z</time>
      </trkpt>
      <trkpt lat="44.41704" lon="5.14737">
        <ele>913.9</ele>
        <time>2022-10-16T12:46:03Z</time>
      </trkpt>
      <trkpt lat="44.41705" lon="5.14736">
        <ele>914.4</ele>
        <time>2022-10-16T12:46:01Z</time>
      </trkpt>
      <trkpt lat="44.41706" lon="5.14736">
        <ele>914.5</ele>
        <time>2022-10-16T12:46:00Z</time>
      </trkpt>
      <trkpt lat="44.41707" lon="5.14735">
        <ele>915</ele>
        <time>2022-10-16T12:45:59Z</time>
      </trkpt>
      <trkpt lat="44.41708" lon="5.14735">
        <ele>915</ele>
        <time>2022-10-16T12:45:58Z</time>
      </trkpt>
      <trkpt lat="44.41709" lon="5.14734">
        <ele>915.6</ele>
        <time>2022-10-16T12:45:57Z</time>
      </trkpt>
      <trkpt lat="44.41709" lon="5.14733">
        <ele>916.1</ele>
        <time>2022-10-16T12:45:56Z</time>
      </trkpt>
      <trkpt lat="44.4171" lon="5.14732">
        <ele>916.6</ele>
        <time>2022-10-16T12:45:55Z</time>
      </trkpt>
      <trkpt lat="44.4171" lon="5.14731">
        <ele>917.1</ele>
        <time>2022-10-16T12:45:53Z</time>
      </trkpt>
      <trkpt lat="44.4171" lon="5.1473">
        <ele>917.6</ele>
        <time>2022-10-16T12:45:52Z</time>
      </trkpt>
      <trkpt lat="44.41709" lon="5.14729">
        <ele>918.1</ele>
        <time>2022-10-16T12:45:51Z</time>
      </trkpt>
      <trkpt lat="44.41709" lon="5.14728">
        <ele>918.6</ele>
        <time>2022-10-16T12:45:49Z</time>
      </trkpt>
      <trkpt lat="44.41708" lon="5.14727">
        <ele>919.1</ele>
        <time>2022-10-16T12:45:48Z</time>
      </trkpt>
      <trkpt lat="44.41707" lon="5.14726">
        <ele>919.5</ele>
        <time>2022-10-16T12:45:46Z</time>
      </trkpt>
      <trkpt lat="44.41706" lon="5.14725">
        <ele>920</ele>
        <time>2022-10-16T12:45:45Z</time>
      </trkpt>
      <trkpt lat="44.41705" lon="5.14725">
        <ele>920</ele>
        <time>2022-10-16T12:45:44Z</time>
      </trkpt>
      <trkpt lat="44.41704" lon="5.14724">
        <ele>920.4</ele>
        <time>2022-10-16T12:45:42Z</time>
      </trkpt>
      <trkpt lat="44.41703" lon="5.14724">
        <ele>920.4</ele>
        <time>2022-10-16T12:45:41Z</time>
      </trkpt>
      <trkpt lat="44.41702" lon="5.14723">
        <ele>920.9</ele>
        <time>2022-10-16T12:45:40Z</time>
      </trkpt>
      <trkpt lat="44.41701" lon="5.14723">
        <ele>920.8</ele>
        <time>2022-10-16T12:45:39Z</time>
      </trkpt>
      <trkpt lat="44.417" lon="5.14722">
        <ele>921.3</ele>
        <time>2022-10-16T12:45:38Z</time>
      </trkpt>
      <trkpt lat="44.41699" lon="5.14722">
        <ele>921.3</ele>
        <time>2022-10-16T12:45:37Z</time>
      </trkpt>
      <trkpt lat="44.41698" lon="5.14721">
        <ele>921.7</ele>
        <time>2022-10-16T12:45:35Z</time>
      </trkpt>
      <trkpt lat="44.41697" lon="5.1472">
        <ele>922.2</ele>
        <time>2022-10-16T12:45:34Z</time>
      </trkpt>
      <trkpt lat="44.41696" lon="5.1472">
        <ele>922.2</ele>
        <time>2022-10-16T12:45:33Z</time>
      </trkpt>
      <trkpt lat="44.41696" lon="5.14719">
        <ele>922.7</ele>
        <time>2022-10-16T12:45:32Z</time>
      </trkpt>
      <trkpt lat="44.41695" lon="5.14718">
        <ele>923.2</ele>
        <time>2022-10-16T12:45:30Z</time>
      </trkpt>
      <trkpt lat="44.41694" lon="5.14717">
        <ele>923.6</ele>
        <time>2022-10-16T12:45:29Z</time>
      </trkpt>
      <trkpt lat="44.41693" lon="5.14716">
        <ele>924.1</ele>
        <time>2022-10-16T12:45:28Z</time>
      </trkpt>
      <trkpt lat="44.41692" lon="5.14716">
        <ele>924.1</ele>
        <time>2022-10-16T12:45:27Z</time>
      </trkpt>
      <trkpt lat="44.41691" lon="5.14715">
        <ele>924.6</ele>
        <time>2022-10-16T12:45:26Z</time>
      </trkpt>
      <trkpt lat="44.4169" lon="5.14715">
        <ele>924.6</ele>
        <time>2022-10-16T12:45:25Z</time>
      </trkpt>
      <trkpt lat="44.41689" lon="5.14715">
        <ele>924.6</ele>
        <time>2022-10-16T12:45:23Z</time>
      </trkpt>
      <trkpt lat="44.41688" lon="5.14715">
        <ele>924.6</ele>
        <time>2022-10-16T12:45:22Z</time>
      </trkpt>
      <trkpt lat="44.41687" lon="5.14714">
        <ele>925.1</ele>
        <time>2022-10-16T12:45:21Z</time>
      </trkpt>
      <trkpt lat="44.41686" lon="5.14714">
        <ele>925.1</ele>
        <time>2022-10-16T12:45:19Z</time>
      </trkpt>
      <trkpt lat="44.41685" lon="5.14713">
        <ele>925.6</ele>
        <time>2022-10-16T12:45:18Z</time>
      </trkpt>
      <trkpt lat="44.41685" lon="5.14712">
        <ele>926.2</ele>
        <time>2022-10-16T12:45:17Z</time>
      </trkpt>
      <trkpt lat="44.41684" lon="5.14712">
        <ele>926.2</ele>
        <time>2022-10-16T12:45:16Z</time>
      </trkpt>
      <trkpt lat="44.41685" lon="5.14711">
        <ele>926.7</ele>
        <time>2022-10-16T12:45:15Z</time>
      </trkpt>
      <trkpt lat="44.41685" lon="5.1471">
        <ele>927.2</ele>
        <time>2022-10-16T12:45:14Z</time>
      </trkpt>
      <trkpt lat="44.41685" lon="5.14709">
        <ele>927.7</ele>
        <time>2022-10-16T12:45:13Z</time>
      </trkpt>
      <trkpt lat="44.41685" lon="5.14708">
        <ele>928.2</ele>
        <time>2022-10-16T12:45:12Z</time>
      </trkpt>
      <trkpt lat="44.41686" lon="5.14708">
        <ele>928.2</ele>
        <time>2022-10-16T12:45:11Z</time>
      </trkpt>
      <trkpt lat="44.41686" lon="5.14707">
        <ele>928.7</ele>
        <time>2022-10-16T12:45:10Z</time>
      </trkpt>
      <trkpt lat="44.41686" lon="5.14706">
        <ele>929.2</ele>
        <time>2022-10-16T12:45:09Z</time>
      </trkpt>
      <trkpt lat="44.41687" lon="5.14706">
        <ele>929.2</ele>
        <time>2022-10-16T12:45:08Z</time>
      </trkpt>
      <trkpt lat="44.41687" lon="5.14705">
        <ele>929.7</ele>
        <time>2022-10-16T12:45:07Z</time>
      </trkpt>
      <trkpt lat="44.41687" lon="5.14704">
        <ele>930.2</ele>
        <time>2022-10-16T12:45:06Z</time>
      </trkpt>
      <trkpt lat="44.41686" lon="5.14703">
        <ele>930.7</ele>
        <time>2022-10-16T12:45:04Z</time>
      </trkpt>
      <trkpt lat="44.41685" lon="5.14702">
        <ele>931.2</ele>
        <time>2022-10-16T12:45:02Z</time>
      </trkpt>
      <trkpt lat="44.41684" lon="5.14702">
        <ele>931.2</ele>
        <time>2022-10-16T12:45:01Z</time>
      </trkpt>
      <trkpt lat="44.41683" lon="5.14702">
        <ele>931.2</ele>
        <time>2022-10-16T12:44:59Z</time>
      </trkpt>
      <trkpt lat="44.41682" lon="5.14702">
        <ele>931.2</ele>
        <time>2022-10-16T12:44:58Z</time>
      </trkpt>
      <trkpt lat="44.41681" lon="5.14702">
        <ele>931.2</ele>
        <time>2022-10-16T12:44:57Z</time>
      </trkpt>
      <trkpt lat="44.4168" lon="5.14702">
        <ele>931.2</ele>
        <time>2022-10-16T12:44:55Z</time>
      </trkpt>
      <trkpt lat="44.41679" lon="5.14702">
        <ele>931.2</ele>
        <time>2022-10-16T12:44:53Z</time>
      </trkpt>
      <trkpt lat="44.41678" lon="5.14702">
        <ele>931.2</ele>
        <time>2022-10-16T12:44:52Z</time>
      </trkpt>
      <trkpt lat="44.41678" lon="5.14701">
        <ele>931.7</ele>
        <time>2022-10-16T12:44:51Z</time>
      </trkpt>
      <trkpt lat="44.41677" lon="5.14701">
        <ele>931.7</ele>
        <time>2022-10-16T12:44:50Z</time>
      </trkpt>
      <trkpt lat="44.41677" lon="5.147">
        <ele>932.2</ele>
        <time>2022-10-16T12:44:49Z</time>
      </trkpt>
      <trkpt lat="44.41677" lon="5.14699">
        <ele>932.7</ele>
        <time>2022-10-16T12:44:47Z</time>
      </trkpt>
      <trkpt lat="44.41677" lon="5.14698">
        <ele>933.2</ele>
        <time>2022-10-16T12:44:46Z</time>
      </trkpt>
      <trkpt lat="44.41677" lon="5.14697">
        <ele>933.7</ele>
        <time>2022-10-16T12:44:45Z</time>
      </trkpt>
      <trkpt lat="44.41678" lon="5.14696">
        <ele>934.2</ele>
        <time>2022-10-16T12:44:43Z</time>
      </trkpt>
      <trkpt lat="44.41679" lon="5.14695">
        <ele>934.7</ele>
        <time>2022-10-16T12:44:39Z</time>
      </trkpt>
      <trkpt lat="44.41679" lon="5.14694">
        <ele>935.3</ele>
        <time>2022-10-16T12:44:38Z</time>
      </trkpt>
      <trkpt lat="44.4168" lon="5.14694">
        <ele>935.3</ele>
        <time>2022-10-16T12:44:37Z</time>
      </trkpt>
      <trkpt lat="44.41681" lon="5.14694">
        <ele>935.3</ele>
        <time>2022-10-16T12:44:36Z</time>
      </trkpt>
      <trkpt lat="44.41682" lon="5.14694">
        <ele>935.3</ele>
        <time>2022-10-16T12:44:35Z</time>
      </trkpt>
      <trkpt lat="44.41683" lon="5.14693">
        <ele>935.9</ele>
        <time>2022-10-16T12:44:33Z</time>
      </trkpt>
      <trkpt lat="44.41683" lon="5.14692">
        <ele>936.6</ele>
        <time>2022-10-16T12:44:32Z</time>
      </trkpt>
      <trkpt lat="44.41684" lon="5.14692">
        <ele>936.6</ele>
        <time>2022-10-16T12:44:31Z</time>
      </trkpt>
      <trkpt lat="44.41684" lon="5.14691">
        <ele>937.3</ele>
        <time>2022-10-16T12:44:30Z</time>
      </trkpt>
      <trkpt lat="44.41684" lon="5.1469">
        <ele>937.9</ele>
        <time>2022-10-16T12:44:28Z</time>
      </trkpt>
      <trkpt lat="44.41684" lon="5.14689">
        <ele>938.6</ele>
        <time>2022-10-16T12:44:27Z</time>
      </trkpt>
      <trkpt lat="44.41683" lon="5.14689">
        <ele>938.6</ele>
        <time>2022-10-16T12:44:26Z</time>
      </trkpt>
      <trkpt lat="44.41683" lon="5.14688">
        <ele>939.2</ele>
        <time>2022-10-16T12:44:25Z</time>
      </trkpt>
      <trkpt lat="44.41682" lon="5.14688">
        <ele>939.2</ele>
        <time>2022-10-16T12:44:23Z</time>
      </trkpt>
      <trkpt lat="44.41681" lon="5.14687">
        <ele>939.8</ele>
        <time>2022-10-16T12:44:21Z</time>
      </trkpt>
      <trkpt lat="44.4168" lon="5.14687">
        <ele>939.8</ele>
        <time>2022-10-16T12:44:20Z</time>
      </trkpt>
      <trkpt lat="44.4168" lon="5.14686">
        <ele>940.5</ele>
        <time>2022-10-16T12:44:18Z</time>
      </trkpt>
      <trkpt lat="44.41679" lon="5.14686">
        <ele>940.4</ele>
        <time>2022-10-16T12:44:17Z</time>
      </trkpt>
      <trkpt lat="44.41679" lon="5.14685">
        <ele>941.1</ele>
        <time>2022-10-16T12:44:16Z</time>
      </trkpt>
      <trkpt lat="44.41678" lon="5.14685">
        <ele>941.1</ele>
        <time>2022-10-16T12:44:14Z</time>
      </trkpt>
      <trkpt lat="44.41677" lon="5.14684">
        <ele>941.7</ele>
        <time>2022-10-16T12:44:12Z</time>
      </trkpt>
      <trkpt lat="44.41676" lon="5.14684">
        <ele>941.6</ele>
        <time>2022-10-16T12:44:11Z</time>
      </trkpt>
      <trkpt lat="44.41676" lon="5.14683">
        <ele>942.3</ele>
        <time>2022-10-16T12:44:10Z</time>
      </trkpt>
      <trkpt lat="44.41675" lon="5.14683">
        <ele>942.3</ele>
        <time>2022-10-16T12:44:09Z</time>
      </trkpt>
      <trkpt lat="44.41674" lon="5.14683">
        <ele>942.2</ele>
        <time>2022-10-16T12:44:08Z</time>
      </trkpt>
      <trkpt lat="44.41674" lon="5.14682">
        <ele>942.9</ele>
        <time>2022-10-16T12:44:07Z</time>
      </trkpt>
      <trkpt lat="44.41673" lon="5.14682">
        <ele>942.8</ele>
        <time>2022-10-16T12:44:06Z</time>
      </trkpt>
      <trkpt lat="44.41672" lon="5.14682">
        <ele>942.8</ele>
        <time>2022-10-16T12:44:04Z</time>
      </trkpt>
      <trkpt lat="44.41671" lon="5.14682">
        <ele>942.8</ele>
        <time>2022-10-16T12:44:03Z</time>
      </trkpt>
      <trkpt lat="44.4167" lon="5.14682">
        <ele>942.7</ele>
        <time>2022-10-16T12:44:02Z</time>
      </trkpt>
      <trkpt lat="44.4167" lon="5.14681">
        <ele>943.3</ele>
        <time>2022-10-16T12:44:00Z</time>
      </trkpt>
      <trkpt lat="44.41669" lon="5.14681">
        <ele>943.3</ele>
        <time>2022-10-16T12:43:59Z</time>
      </trkpt>
      <trkpt lat="44.41669" lon="5.1468">
        <ele>943.9</ele>
        <time>2022-10-16T12:43:57Z</time>
      </trkpt>
      <trkpt lat="44.41669" lon="5.14679">
        <ele>944.5</ele>
        <time>2022-10-16T12:43:56Z</time>
      </trkpt>
      <trkpt lat="44.4167" lon="5.14679">
        <ele>944.6</ele>
        <time>2022-10-16T12:43:55Z</time>
      </trkpt>
      <trkpt lat="44.4167" lon="5.14678">
        <ele>945.2</ele>
        <time>2022-10-16T12:43:53Z</time>
      </trkpt>
      <trkpt lat="44.41671" lon="5.14677">
        <ele>945.9</ele>
        <time>2022-10-16T12:43:52Z</time>
      </trkpt>
      <trkpt lat="44.41671" lon="5.14676">
        <ele>946.5</ele>
        <time>2022-10-16T12:43:51Z</time>
      </trkpt>
      <trkpt lat="44.41672" lon="5.14676">
        <ele>946.5</ele>
        <time>2022-10-16T12:43:50Z</time>
      </trkpt>
      <trkpt lat="44.41672" lon="5.14675">
        <ele>947.2</ele>
        <time>2022-10-16T12:43:47Z</time>
      </trkpt>
      <trkpt lat="44.41673" lon="5.14675">
        <ele>947.2</ele>
        <time>2022-10-16T12:43:46Z</time>
      </trkpt>
      <trkpt lat="44.41673" lon="5.14674">
        <ele>947.8</ele>
        <time>2022-10-16T12:43:44Z</time>
      </trkpt>
      <trkpt lat="44.41674" lon="5.14674">
        <ele>947.9</ele>
        <time>2022-10-16T12:43:43Z</time>
      </trkpt>
      <trkpt lat="44.41674" lon="5.14673">
        <ele>948.5</ele>
        <time>2022-10-16T12:43:42Z</time>
      </trkpt>
      <trkpt lat="44.41675" lon="5.14673">
        <ele>948.6</ele>
        <time>2022-10-16T12:43:40Z</time>
      </trkpt>
      <trkpt lat="44.41675" lon="5.14672">
        <ele>949.2</ele>
        <time>2022-10-16T12:43:39Z</time>
      </trkpt>
      <trkpt lat="44.41676" lon="5.14672">
        <ele>949.3</ele>
        <time>2022-10-16T12:43:38Z</time>
      </trkpt>
      <trkpt lat="44.41676" lon="5.14671">
        <ele>949.9</ele>
        <time>2022-10-16T12:43:37Z</time>
      </trkpt>
      <trkpt lat="44.41676" lon="5.1467">
        <ele>950.6</ele>
        <time>2022-10-16T12:43:36Z</time>
      </trkpt>
      <trkpt lat="44.41676" lon="5.14669">
        <ele>951.2</ele>
        <time>2022-10-16T12:43:35Z</time>
      </trkpt>
      <trkpt lat="44.41675" lon="5.14668">
        <ele>951.8</ele>
        <time>2022-10-16T12:43:33Z</time>
      </trkpt>
      <trkpt lat="44.41674" lon="5.14667">
        <ele>952.3</ele>
        <time>2022-10-16T12:43:31Z</time>
      </trkpt>
      <trkpt lat="44.41673" lon="5.14667">
        <ele>952.2</ele>
        <time>2022-10-16T12:43:30Z</time>
      </trkpt>
      <trkpt lat="44.41672" lon="5.14667">
        <ele>952.2</ele>
        <time>2022-10-16T12:43:29Z</time>
      </trkpt>
      <trkpt lat="44.41672" lon="5.14666">
        <ele>952.8</ele>
        <time>2022-10-16T12:43:28Z</time>
      </trkpt>
      <trkpt lat="44.41671" lon="5.14666">
        <ele>952.7</ele>
        <time>2022-10-16T12:43:26Z</time>
      </trkpt>
      <trkpt lat="44.4167" lon="5.14666">
        <ele>952.6</ele>
        <time>2022-10-16T12:43:25Z</time>
      </trkpt>
      <trkpt lat="44.41669" lon="5.14666">
        <ele>952.6</ele>
        <time>2022-10-16T12:43:23Z</time>
      </trkpt>
      <trkpt lat="44.41668" lon="5.14666">
        <ele>952.5</ele>
        <time>2022-10-16T12:43:22Z</time>
      </trkpt>
      <trkpt lat="44.41667" lon="5.14665">
        <ele>953</ele>
        <time>2022-10-16T12:43:20Z</time>
      </trkpt>
      <trkpt lat="44.41666" lon="5.14665">
        <ele>952.9</ele>
        <time>2022-10-16T12:43:19Z</time>
      </trkpt>
      <trkpt lat="44.41666" lon="5.14664">
        <ele>953.5</ele>
        <time>2022-10-16T12:43:18Z</time>
      </trkpt>
      <trkpt lat="44.41665" lon="5.14664">
        <ele>953.4</ele>
        <time>2022-10-16T12:43:17Z</time>
      </trkpt>
      <trkpt lat="44.41665" lon="5.14663">
        <ele>953.9</ele>
        <time>2022-10-16T12:43:16Z</time>
      </trkpt>
      <trkpt lat="44.41666" lon="5.14662">
        <ele>954.6</ele>
        <time>2022-10-16T12:43:08Z</time>
      </trkpt>
      <trkpt lat="44.41666" lon="5.14661">
        <ele>955.2</ele>
        <time>2022-10-16T12:43:07Z</time>
      </trkpt>
      <trkpt lat="44.41667" lon="5.14661">
        <ele>955.3</ele>
        <time>2022-10-16T12:43:06Z</time>
      </trkpt>
      <trkpt lat="44.41667" lon="5.1466">
        <ele>955.9</ele>
        <time>2022-10-16T12:43:05Z</time>
      </trkpt>
      <trkpt lat="44.41667" lon="5.14659">
        <ele>956.4</ele>
        <time>2022-10-16T12:43:04Z</time>
      </trkpt>
      <trkpt lat="44.41667" lon="5.14658">
        <ele>957</ele>
        <time>2022-10-16T12:43:03Z</time>
      </trkpt>
      <trkpt lat="44.41667" lon="5.14657">
        <ele>957.6</ele>
        <time>2022-10-16T12:43:02Z</time>
      </trkpt>
      <trkpt lat="44.41667" lon="5.14656">
        <ele>958.2</ele>
        <time>2022-10-16T12:43:01Z</time>
      </trkpt>
      <trkpt lat="44.41666" lon="5.14656">
        <ele>958.1</ele>
        <time>2022-10-16T12:42:59Z</time>
      </trkpt>
      <trkpt lat="44.41665" lon="5.14655">
        <ele>958.5</ele>
        <time>2022-10-16T12:42:56Z</time>
      </trkpt>
      <trkpt lat="44.41664" lon="5.14655">
        <ele>958.4</ele>
        <time>2022-10-16T12:42:55Z</time>
      </trkpt>
      <trkpt lat="44.41664" lon="5.14654">
        <ele>959</ele>
        <time>2022-10-16T12:42:53Z</time>
      </trkpt>
      <trkpt lat="44.41663" lon="5.14653">
        <ele>959.4</ele>
        <time>2022-10-16T12:42:52Z</time>
      </trkpt>
      <trkpt lat="44.41662" lon="5.14653">
        <ele>959.3</ele>
        <time>2022-10-16T12:42:51Z</time>
      </trkpt>
      <trkpt lat="44.41662" lon="5.14652">
        <ele>959.9</ele>
        <time>2022-10-16T12:42:50Z</time>
      </trkpt>
      <trkpt lat="44.41661" lon="5.14652">
        <ele>959.7</ele>
        <time>2022-10-16T12:42:48Z</time>
      </trkpt>
      <trkpt lat="44.4166" lon="5.14652">
        <ele>959.6</ele>
        <time>2022-10-16T12:42:47Z</time>
      </trkpt>
      <trkpt lat="44.4166" lon="5.14651">
        <ele>960.2</ele>
        <time>2022-10-16T12:42:46Z</time>
      </trkpt>
      <trkpt lat="44.41659" lon="5.14651">
        <ele>960</ele>
        <time>2022-10-16T12:42:45Z</time>
      </trkpt>
      <trkpt lat="44.41658" lon="5.1465">
        <ele>960.5</ele>
        <time>2022-10-16T12:42:44Z</time>
      </trkpt>
      <trkpt lat="44.41657" lon="5.1465">
        <ele>960.3</ele>
        <time>2022-10-16T12:42:43Z</time>
      </trkpt>
      <trkpt lat="44.41656" lon="5.1465">
        <ele>960.2</ele>
        <time>2022-10-16T12:42:41Z</time>
      </trkpt>
      <trkpt lat="44.41655" lon="5.14649">
        <ele>960.6</ele>
        <time>2022-10-16T12:42:39Z</time>
      </trkpt>
      <trkpt lat="44.41655" lon="5.14648">
        <ele>961.2</ele>
        <time>2022-10-16T12:42:38Z</time>
      </trkpt>
      <trkpt lat="44.41654" lon="5.14648">
        <ele>961.1</ele>
        <time>2022-10-16T12:42:37Z</time>
      </trkpt>
      <trkpt lat="44.41654" lon="5.14647">
        <ele>961.6</ele>
        <time>2022-10-16T12:42:36Z</time>
      </trkpt>
      <trkpt lat="44.41653" lon="5.14647">
        <ele>961.5</ele>
        <time>2022-10-16T12:42:34Z</time>
      </trkpt>
      <trkpt lat="44.41652" lon="5.14647">
        <ele>961.4</ele>
        <time>2022-10-16T12:42:33Z</time>
      </trkpt>
      <trkpt lat="44.41651" lon="5.14646">
        <ele>961.8</ele>
        <time>2022-10-16T12:42:32Z</time>
      </trkpt>
      <trkpt lat="44.4165" lon="5.14646">
        <ele>961.7</ele>
        <time>2022-10-16T12:42:31Z</time>
      </trkpt>
      <trkpt lat="44.41649" lon="5.14646">
        <ele>961.5</ele>
        <time>2022-10-16T12:42:29Z</time>
      </trkpt>
      <trkpt lat="44.41648" lon="5.14645">
        <ele>961.9</ele>
        <time>2022-10-16T12:42:27Z</time>
      </trkpt>
      <trkpt lat="44.41647" lon="5.14644">
        <ele>962.4</ele>
        <time>2022-10-16T12:42:25Z</time>
      </trkpt>
      <trkpt lat="44.41648" lon="5.14643">
        <ele>963</ele>
        <time>2022-10-16T12:42:24Z</time>
      </trkpt>
      <trkpt lat="44.41649" lon="5.14642">
        <ele>963.7</ele>
        <time>2022-10-16T12:42:17Z</time>
      </trkpt>
      <trkpt lat="44.4165" lon="5.14641">
        <ele>964.4</ele>
        <time>2022-10-16T12:42:16Z</time>
      </trkpt>
      <trkpt lat="44.41651" lon="5.1464">
        <ele>965.1</ele>
        <time>2022-10-16T12:42:15Z</time>
      </trkpt>
      <trkpt lat="44.41652" lon="5.14639">
        <ele>965.8</ele>
        <time>2022-10-16T12:42:14Z</time>
      </trkpt>
      <trkpt lat="44.41653" lon="5.14638">
        <ele>966.3</ele>
        <time>2022-10-16T12:42:13Z</time>
      </trkpt>
      <trkpt lat="44.41654" lon="5.14637">
        <ele>966.7</ele>
        <time>2022-10-16T12:42:12Z</time>
      </trkpt>
      <trkpt lat="44.41655" lon="5.14636">
        <ele>967.1</ele>
        <time>2022-10-16T12:42:11Z</time>
      </trkpt>
      <trkpt lat="44.41656" lon="5.14636">
        <ele>967.3</ele>
        <time>2022-10-16T12:42:09Z</time>
      </trkpt>
      <trkpt lat="44.41657" lon="5.14636">
        <ele>967.5</ele>
        <time>2022-10-16T12:42:08Z</time>
      </trkpt>
      <trkpt lat="44.41658" lon="5.14636">
        <ele>967.6</ele>
        <time>2022-10-16T12:42:07Z</time>
      </trkpt>
      <trkpt lat="44.41659" lon="5.14636">
        <ele>967.8</ele>
        <time>2022-10-16T12:42:06Z</time>
      </trkpt>
      <trkpt lat="44.4166" lon="5.14636">
        <ele>968</ele>
        <time>2022-10-16T12:42:05Z</time>
      </trkpt>
      <trkpt lat="44.41661" lon="5.14636">
        <ele>968.2</ele>
        <time>2022-10-16T12:42:04Z</time>
      </trkpt>
      <trkpt lat="44.41662" lon="5.14636">
        <ele>968.3</ele>
        <time>2022-10-16T12:42:03Z</time>
      </trkpt>
      <trkpt lat="44.41663" lon="5.14635">
        <ele>968.9</ele>
        <time>2022-10-16T12:42:02Z</time>
      </trkpt>
      <trkpt lat="44.41664" lon="5.14634">
        <ele>969.4</ele>
        <time>2022-10-16T12:42:01Z</time>
      </trkpt>
      <trkpt lat="44.41665" lon="5.14634">
        <ele>969.6</ele>
        <time>2022-10-16T12:42:00Z</time>
      </trkpt>
      <trkpt lat="44.41666" lon="5.14633">
        <ele>970.2</ele>
        <time>2022-10-16T12:41:58Z</time>
      </trkpt>
      <trkpt lat="44.41667" lon="5.14633">
        <ele>970.4</ele>
        <time>2022-10-16T12:41:57Z</time>
      </trkpt>
      <trkpt lat="44.41668" lon="5.14632">
        <ele>971</ele>
        <time>2022-10-16T12:41:55Z</time>
      </trkpt>
      <trkpt lat="44.41669" lon="5.14632">
        <ele>971.1</ele>
        <time>2022-10-16T12:41:53Z</time>
      </trkpt>
      <trkpt lat="44.4167" lon="5.14632">
        <ele>971.3</ele>
        <time>2022-10-16T12:41:51Z</time>
      </trkpt>
      <trkpt lat="44.41671" lon="5.14632">
        <ele>971.5</ele>
        <time>2022-10-16T12:41:49Z</time>
      </trkpt>
      <trkpt lat="44.41671" lon="5.14633">
        <ele>971.1</ele>
        <time>2022-10-16T12:41:48Z</time>
      </trkpt>
      <trkpt lat="44.41671" lon="5.14634">
        <ele>970.7</ele>
        <time>2022-10-16T12:41:47Z</time>
      </trkpt>
      <trkpt lat="44.41671" lon="5.14635">
        <ele>970.3</ele>
        <time>2022-10-16T12:41:45Z</time>
      </trkpt>
      <trkpt lat="44.41671" lon="5.14636">
        <ele>969.8</ele>
        <time>2022-10-16T12:41:44Z</time>
      </trkpt>
      <trkpt lat="44.41672" lon="5.14637">
        <ele>969.6</ele>
        <time>2022-10-16T12:41:43Z</time>
      </trkpt>
      <trkpt lat="44.41672" lon="5.14638">
        <ele>969.1</ele>
        <time>2022-10-16T12:41:41Z</time>
      </trkpt>
      <trkpt lat="44.41673" lon="5.14639">
        <ele>968.8</ele>
        <time>2022-10-16T12:41:39Z</time>
      </trkpt>
      <trkpt lat="44.41674" lon="5.14639">
        <ele>969</ele>
        <time>2022-10-16T12:41:38Z</time>
      </trkpt>
      <trkpt lat="44.41675" lon="5.14639">
        <ele>969.1</ele>
        <time>2022-10-16T12:41:36Z</time>
      </trkpt>
      <trkpt lat="44.41676" lon="5.14639">
        <ele>969.3</ele>
        <time>2022-10-16T12:41:35Z</time>
      </trkpt>
      <trkpt lat="44.41677" lon="5.14639">
        <ele>969.4</ele>
        <time>2022-10-16T12:41:33Z</time>
      </trkpt>
      <trkpt lat="44.41678" lon="5.14638">
        <ele>970</ele>
        <time>2022-10-16T12:41:31Z</time>
      </trkpt>
      <trkpt lat="44.41679" lon="5.14637">
        <ele>970.6</ele>
        <time>2022-10-16T12:41:30Z</time>
      </trkpt>
      <trkpt lat="44.4168" lon="5.14637">
        <ele>970.8</ele>
        <time>2022-10-16T12:41:29Z</time>
      </trkpt>
      <trkpt lat="44.4168" lon="5.14636">
        <ele>971.3</ele>
        <time>2022-10-16T12:41:28Z</time>
      </trkpt>
      <trkpt lat="44.41681" lon="5.14635">
        <ele>971.9</ele>
        <time>2022-10-16T12:41:26Z</time>
      </trkpt>
      <trkpt lat="44.41681" lon="5.14634">
        <ele>972.4</ele>
        <time>2022-10-16T12:41:25Z</time>
      </trkpt>
      <trkpt lat="44.41681" lon="5.14633">
        <ele>972.8</ele>
        <time>2022-10-16T12:41:24Z</time>
      </trkpt>
      <trkpt lat="44.41681" lon="5.14632">
        <ele>973.3</ele>
        <time>2022-10-16T12:41:23Z</time>
      </trkpt>
      <trkpt lat="44.4168" lon="5.14631">
        <ele>973.6</ele>
        <time>2022-10-16T12:41:22Z</time>
      </trkpt>
      <trkpt lat="44.4168" lon="5.1463">
        <ele>974.1</ele>
        <time>2022-10-16T12:41:21Z</time>
      </trkpt>
      <trkpt lat="44.4168" lon="5.14629">
        <ele>974.5</ele>
        <time>2022-10-16T12:41:20Z</time>
      </trkpt>
      <trkpt lat="44.4168" lon="5.14628">
        <ele>975</ele>
        <time>2022-10-16T12:41:19Z</time>
      </trkpt>
      <trkpt lat="44.41679" lon="5.14627">
        <ele>975.2</ele>
        <time>2022-10-16T12:41:17Z</time>
      </trkpt>
      <trkpt lat="44.41679" lon="5.14626">
        <ele>975.7</ele>
        <time>2022-10-16T12:41:15Z</time>
      </trkpt>
      <trkpt lat="44.41679" lon="5.14625">
        <ele>976.2</ele>
        <time>2022-10-16T12:41:13Z</time>
      </trkpt>
      <trkpt lat="44.41679" lon="5.14624">
        <ele>976.6</ele>
        <time>2022-10-16T12:41:12Z</time>
      </trkpt>
      <trkpt lat="44.4168" lon="5.14624">
        <ele>976.8</ele>
        <time>2022-10-16T12:41:11Z</time>
      </trkpt>
      <trkpt lat="44.4168" lon="5.14623">
        <ele>977.3</ele>
        <time>2022-10-16T12:41:10Z</time>
      </trkpt>
      <trkpt lat="44.41681" lon="5.14624">
        <ele>977.1</ele>
        <time>2022-10-16T12:41:08Z</time>
      </trkpt>
      <trkpt lat="44.41682" lon="5.14624">
        <ele>977.3</ele>
        <time>2022-10-16T12:41:07Z</time>
      </trkpt>
      <trkpt lat="44.41683" lon="5.14624">
        <ele>977.5</ele>
        <time>2022-10-16T12:41:06Z</time>
      </trkpt>
      <trkpt lat="44.41684" lon="5.14625">
        <ele>977.2</ele>
        <time>2022-10-16T12:41:05Z</time>
      </trkpt>
      <trkpt lat="44.41685" lon="5.14626">
        <ele>977</ele>
        <time>2022-10-16T12:40:56Z</time>
      </trkpt>
      <trkpt lat="44.41685" lon="5.14625">
        <ele>977.5</ele>
        <time>2022-10-16T12:40:55Z</time>
      </trkpt>
      <trkpt lat="44.41686" lon="5.14625">
        <ele>977.7</ele>
        <time>2022-10-16T12:40:54Z</time>
      </trkpt>
      <trkpt lat="44.41686" lon="5.14624">
        <ele>978.2</ele>
        <time>2022-10-16T12:40:53Z</time>
      </trkpt>
      <trkpt lat="44.41686" lon="5.14623">
        <ele>978.7</ele>
        <time>2022-10-16T12:40:52Z</time>
      </trkpt>
      <trkpt lat="44.41686" lon="5.14622">
        <ele>979.2</ele>
        <time>2022-10-16T12:40:50Z</time>
      </trkpt>
      <trkpt lat="44.41686" lon="5.14621">
        <ele>979.7</ele>
        <time>2022-10-16T12:40:49Z</time>
      </trkpt>
      <trkpt lat="44.41685" lon="5.1462">
        <ele>979.9</ele>
        <time>2022-10-16T12:40:48Z</time>
      </trkpt>
      <trkpt lat="44.41685" lon="5.14619">
        <ele>980.4</ele>
        <time>2022-10-16T12:40:47Z</time>
      </trkpt>
      <trkpt lat="44.41685" lon="5.14618">
        <ele>980.9</ele>
        <time>2022-10-16T12:40:46Z</time>
      </trkpt>
      <trkpt lat="44.41686" lon="5.14618">
        <ele>981.1</ele>
        <time>2022-10-16T12:40:45Z</time>
      </trkpt>
      <trkpt lat="44.41686" lon="5.14617">
        <ele>981.6</ele>
        <time>2022-10-16T12:40:43Z</time>
      </trkpt>
      <trkpt lat="44.41685" lon="5.14616">
        <ele>981.9</ele>
        <time>2022-10-16T12:40:41Z</time>
      </trkpt>
      <trkpt lat="44.41685" lon="5.14615">
        <ele>982.4</ele>
        <time>2022-10-16T12:40:40Z</time>
      </trkpt>
      <trkpt lat="44.41685" lon="5.14614">
        <ele>982.9</ele>
        <time>2022-10-16T12:40:39Z</time>
      </trkpt>
      <trkpt lat="44.41685" lon="5.14613">
        <ele>983.4</ele>
        <time>2022-10-16T12:40:38Z</time>
      </trkpt>
      <trkpt lat="44.41685" lon="5.14612">
        <ele>983.8</ele>
        <time>2022-10-16T12:40:37Z</time>
      </trkpt>
      <trkpt lat="44.41685" lon="5.14611">
        <ele>984.3</ele>
        <time>2022-10-16T12:40:36Z</time>
      </trkpt>
      <trkpt lat="44.41685" lon="5.1461">
        <ele>984.3</ele>
        <time>2022-10-16T12:40:35Z</time>
      </trkpt>
      <trkpt lat="44.41685" lon="5.14609">
        <ele>984.3</ele>
        <time>2022-10-16T12:40:34Z</time>
      </trkpt>
      <trkpt lat="44.41686" lon="5.14609">
        <ele>984.6</ele>
        <time>2022-10-16T12:40:33Z</time>
      </trkpt>
      <trkpt lat="44.41686" lon="5.14608">
        <ele>984.5</ele>
        <time>2022-10-16T12:40:32Z</time>
      </trkpt>
      <trkpt lat="44.41686" lon="5.14607">
        <ele>984.5</ele>
        <time>2022-10-16T12:40:31Z</time>
      </trkpt>
      <trkpt lat="44.41686" lon="5.14605">
        <ele>984.5</ele>
        <time>2022-10-16T12:40:30Z</time>
      </trkpt>
      <trkpt lat="44.41687" lon="5.14604">
        <ele>984.8</ele>
        <time>2022-10-16T12:40:29Z</time>
      </trkpt>
      <trkpt lat="44.41687" lon="5.14603">
        <ele>984.8</ele>
        <time>2022-10-16T12:40:28Z</time>
      </trkpt>
      <trkpt lat="44.41687" lon="5.14602">
        <ele>984.8</ele>
        <time>2022-10-16T12:40:27Z</time>
      </trkpt>
      <trkpt lat="44.41687" lon="5.14601">
        <ele>984.8</ele>
        <time>2022-10-16T12:40:26Z</time>
      </trkpt>
      <trkpt lat="44.41687" lon="5.146">
        <ele>984.8</ele>
        <time>2022-10-16T12:40:24Z</time>
      </trkpt>
      <trkpt lat="44.41687" lon="5.14599">
        <ele>984.8</ele>
        <time>2022-10-16T12:40:23Z</time>
      </trkpt>
      <trkpt lat="44.41687" lon="5.14598">
        <ele>984.8</ele>
        <time>2022-10-16T12:40:22Z</time>
      </trkpt>
      <trkpt lat="44.41687" lon="5.14597">
        <ele>984.8</ele>
        <time>2022-10-16T12:39:41Z</time>
      </trkpt>
      <trkpt lat="44.41686" lon="5.14597">
        <ele>984.5</ele>
        <time>2022-10-16T12:39:40Z</time>
      </trkpt>
      <trkpt lat="44.41685" lon="5.14597">
        <ele>984.1</ele>
        <time>2022-10-16T12:39:39Z</time>
      </trkpt>
      <trkpt lat="44.41684" lon="5.14598">
        <ele>983.8</ele>
        <time>2022-10-16T12:39:38Z</time>
      </trkpt>
      <trkpt lat="44.41684" lon="5.14599">
        <ele>983.8</ele>
        <time>2022-10-16T12:39:37Z</time>
      </trkpt>
      <trkpt lat="44.41683" lon="5.14601">
        <ele>983.5</ele>
        <time>2022-10-16T12:39:36Z</time>
      </trkpt>
      <trkpt lat="44.41682" lon="5.14604">
        <ele>983.2</ele>
        <time>2022-10-16T12:39:35Z</time>
      </trkpt>
      <trkpt lat="44.41681" lon="5.14608">
        <ele>983</ele>
        <time>2022-10-16T12:37:35Z</time>
      </trkpt>
      <trkpt lat="44.41681" lon="5.14609">
        <ele>983.1</ele>
        <time>2022-10-16T12:37:32Z</time>
      </trkpt>
      <trkpt lat="44.41682" lon="5.14608">
        <ele>983.3</ele>
        <time>2022-10-16T12:37:17Z</time>
      </trkpt>
      <trkpt lat="44.41682" lon="5.14607">
        <ele>983.3</ele>
        <time>2022-10-16T12:37:16Z</time>
      </trkpt>
      <trkpt lat="44.41683" lon="5.14606">
        <ele>983.6</ele>
        <time>2022-10-16T12:37:15Z</time>
      </trkpt>
      <trkpt lat="44.41683" lon="5.14605">
        <ele>983.6</ele>
        <time>2022-10-16T12:37:13Z</time>
      </trkpt>
      <trkpt lat="44.41683" lon="5.14604">
        <ele>983.5</ele>
        <time>2022-10-16T12:37:12Z</time>
      </trkpt>
      <trkpt lat="44.41684" lon="5.14603">
        <ele>983.8</ele>
        <time>2022-10-16T12:37:11Z</time>
      </trkpt>
      <trkpt lat="44.41684" lon="5.14602">
        <ele>983.8</ele>
        <time>2022-10-16T12:37:10Z</time>
      </trkpt>
      <trkpt lat="44.41685" lon="5.14602">
        <ele>984.2</ele>
        <time>2022-10-16T12:37:09Z</time>
      </trkpt>
      <trkpt lat="44.41685" lon="5.14601">
        <ele>984.1</ele>
        <time>2022-10-16T12:37:08Z</time>
      </trkpt>
      <trkpt lat="44.41686" lon="5.146">
        <ele>984.5</ele>
        <time>2022-10-16T12:37:07Z</time>
      </trkpt>
      <trkpt lat="44.41687" lon="5.146">
        <ele>984.8</ele>
        <time>2022-10-16T12:37:06Z</time>
      </trkpt>
      <trkpt lat="44.41687" lon="5.14599">
        <ele>984.8</ele>
        <time>2022-10-16T12:37:04Z</time>
      </trkpt>
      <trkpt lat="44.41688" lon="5.14598">
        <ele>985.2</ele>
        <time>2022-10-16T12:37:02Z</time>
      </trkpt>
      <trkpt lat="44.41689" lon="5.14597">
        <ele>985.5</ele>
        <time>2022-10-16T12:37:01Z</time>
      </trkpt>
      <trkpt lat="44.41689" lon="5.14596">
        <ele>985.5</ele>
        <time>2022-10-16T12:37:00Z</time>
      </trkpt>
      <trkpt lat="44.4169" lon="5.14595">
        <ele>985.9</ele>
        <time>2022-10-16T12:35:53Z</time>
      </trkpt>
      <trkpt lat="44.41691" lon="5.14594">
        <ele>986.3</ele>
        <time>2022-10-16T12:35:51Z</time>
      </trkpt>
      <trkpt lat="44.41692" lon="5.14594">
        <ele>986.7</ele>
        <time>2022-10-16T12:35:49Z</time>
      </trkpt>
      <trkpt lat="44.41693" lon="5.14594">
        <ele>987.1</ele>
        <time>2022-10-16T12:35:48Z</time>
      </trkpt>
      <trkpt lat="44.41694" lon="5.14594">
        <ele>987.4</ele>
        <time>2022-10-16T12:35:47Z</time>
      </trkpt>
      <trkpt lat="44.41694" lon="5.14595">
        <ele>987.4</ele>
        <time>2022-10-16T12:35:46Z</time>
      </trkpt>
      <trkpt lat="44.41695" lon="5.14595">
        <ele>987.7</ele>
        <time>2022-10-16T12:35:43Z</time>
      </trkpt>
      <trkpt lat="44.41696" lon="5.14595">
        <ele>987.9</ele>
        <time>2022-10-16T12:35:41Z</time>
      </trkpt>
      <trkpt lat="44.41697" lon="5.14596">
        <ele>988.1</ele>
        <time>2022-10-16T12:35:39Z</time>
      </trkpt>
      <trkpt lat="44.41698" lon="5.14596">
        <ele>988.3</ele>
        <time>2022-10-16T12:35:35Z</time>
      </trkpt>
      <trkpt lat="44.41699" lon="5.14596">
        <ele>988.6</ele>
        <time>2022-10-16T12:35:33Z</time>
      </trkpt>
      <trkpt lat="44.417" lon="5.14595">
        <ele>988.8</ele>
        <time>2022-10-16T12:35:32Z</time>
      </trkpt>
      <trkpt lat="44.41701" lon="5.14595">
        <ele>989.1</ele>
        <time>2022-10-16T12:35:30Z</time>
      </trkpt>
      <trkpt lat="44.41702" lon="5.14594">
        <ele>989.4</ele>
        <time>2022-10-16T12:35:29Z</time>
      </trkpt>
      <trkpt lat="44.41703" lon="5.14594">
        <ele>989.6</ele>
        <time>2022-10-16T12:35:27Z</time>
      </trkpt>
      <trkpt lat="44.41704" lon="5.14595">
        <ele>989.8</ele>
        <time>2022-10-16T12:35:26Z</time>
      </trkpt>
      <trkpt lat="44.41705" lon="5.14595">
        <ele>990</ele>
        <time>2022-10-16T12:35:24Z</time>
      </trkpt>
      <trkpt lat="44.41706" lon="5.14595">
        <ele>990.2</ele>
        <time>2022-10-16T12:35:23Z</time>
      </trkpt>
      <trkpt lat="44.41707" lon="5.14596">
        <ele>990.3</ele>
        <time>2022-10-16T12:35:20Z</time>
      </trkpt>
      <trkpt lat="44.41708" lon="5.14596">
        <ele>990.6</ele>
        <time>2022-10-16T12:35:19Z</time>
      </trkpt>
      <trkpt lat="44.41708" lon="5.14597">
        <ele>990.5</ele>
        <time>2022-10-16T12:35:17Z</time>
      </trkpt>
      <trkpt lat="44.41708" lon="5.14598">
        <ele>990.3</ele>
        <time>2022-10-16T12:35:16Z</time>
      </trkpt>
      <trkpt lat="44.41709" lon="5.14598">
        <ele>990.6</ele>
        <time>2022-10-16T12:35:15Z</time>
      </trkpt>
      <trkpt lat="44.41709" lon="5.14599">
        <ele>990.4</ele>
        <time>2022-10-16T12:35:14Z</time>
      </trkpt>
      <trkpt lat="44.41709" lon="5.146">
        <ele>990.3</ele>
        <time>2022-10-16T12:35:13Z</time>
      </trkpt>
      <trkpt lat="44.41709" lon="5.14601">
        <ele>990.2</ele>
        <time>2022-10-16T12:35:11Z</time>
      </trkpt>
      <trkpt lat="44.4171" lon="5.14602">
        <ele>990.3</ele>
        <time>2022-10-16T12:35:09Z</time>
      </trkpt>
      <trkpt lat="44.41711" lon="5.14602">
        <ele>990.5</ele>
        <time>2022-10-16T12:35:07Z</time>
      </trkpt>
      <trkpt lat="44.41712" lon="5.14602">
        <ele>990.7</ele>
        <time>2022-10-16T12:35:05Z</time>
      </trkpt>
      <trkpt lat="44.41713" lon="5.14602">
        <ele>990.9</ele>
        <time>2022-10-16T12:35:04Z</time>
      </trkpt>
      <trkpt lat="44.41714" lon="5.14602">
        <ele>991.1</ele>
        <time>2022-10-16T12:35:02Z</time>
      </trkpt>
      <trkpt lat="44.41715" lon="5.14602">
        <ele>991.3</ele>
        <time>2022-10-16T12:34:59Z</time>
      </trkpt>
      <trkpt lat="44.41716" lon="5.14602">
        <ele>991.5</ele>
        <time>2022-10-16T12:34:58Z</time>
      </trkpt>
      <trkpt lat="44.41717" lon="5.14602">
        <ele>991.6</ele>
        <time>2022-10-16T12:34:57Z</time>
      </trkpt>
      <trkpt lat="44.41717" lon="5.14603">
        <ele>991.5</ele>
        <time>2022-10-16T12:34:56Z</time>
      </trkpt>
      <trkpt lat="44.41718" lon="5.14603">
        <ele>991.7</ele>
        <time>2022-10-16T12:34:55Z</time>
      </trkpt>
      <trkpt lat="44.41719" lon="5.14603">
        <ele>991.9</ele>
        <time>2022-10-16T12:34:53Z</time>
      </trkpt>
      <trkpt lat="44.4172" lon="5.14603">
        <ele>992</ele>
        <time>2022-10-16T12:34:52Z</time>
      </trkpt>
      <trkpt lat="44.41721" lon="5.14604">
        <ele>992.1</ele>
        <time>2022-10-16T12:34:50Z</time>
      </trkpt>
      <trkpt lat="44.41722" lon="5.14604">
        <ele>992.2</ele>
        <time>2022-10-16T12:34:49Z</time>
      </trkpt>
      <trkpt lat="44.41723" lon="5.14604">
        <ele>992.4</ele>
        <time>2022-10-16T12:34:48Z</time>
      </trkpt>
      <trkpt lat="44.41724" lon="5.14604">
        <ele>992.5</ele>
        <time>2022-10-16T12:34:46Z</time>
      </trkpt>
      <trkpt lat="44.41725" lon="5.14604">
        <ele>992.7</ele>
        <time>2022-10-16T12:34:45Z</time>
      </trkpt>
      <trkpt lat="44.41726" lon="5.14603">
        <ele>993</ele>
        <time>2022-10-16T12:34:43Z</time>
      </trkpt>
      <trkpt lat="44.41727" lon="5.14603">
        <ele>993.2</ele>
        <time>2022-10-16T12:34:42Z</time>
      </trkpt>
      <trkpt lat="44.41728" lon="5.14603">
        <ele>993.3</ele>
        <time>2022-10-16T12:34:40Z</time>
      </trkpt>
      <trkpt lat="44.41729" lon="5.14602">
        <ele>993.7</ele>
        <time>2022-10-16T12:34:39Z</time>
      </trkpt>
      <trkpt lat="44.4173" lon="5.14602">
        <ele>993.8</ele>
        <time>2022-10-16T12:34:37Z</time>
      </trkpt>
      <trkpt lat="44.41731" lon="5.14602">
        <ele>994</ele>
        <time>2022-10-16T12:34:36Z</time>
      </trkpt>
      <trkpt lat="44.41731" lon="5.14601">
        <ele>994.2</ele>
        <time>2022-10-16T12:34:35Z</time>
      </trkpt>
      <trkpt lat="44.41732" lon="5.14601">
        <ele>994.4</ele>
        <time>2022-10-16T12:34:34Z</time>
      </trkpt>
      <trkpt lat="44.41733" lon="5.14601">
        <ele>994.5</ele>
        <time>2022-10-16T12:34:32Z</time>
      </trkpt>
      <trkpt lat="44.41734" lon="5.14601">
        <ele>994.7</ele>
        <time>2022-10-16T12:34:31Z</time>
      </trkpt>
      <trkpt lat="44.41735" lon="5.14601">
        <ele>994.9</ele>
        <time>2022-10-16T12:34:29Z</time>
      </trkpt>
      <trkpt lat="44.41736" lon="5.14601">
        <ele>995</ele>
        <time>2022-10-16T12:34:27Z</time>
      </trkpt>
      <trkpt lat="44.41737" lon="5.14601">
        <ele>995.2</ele>
        <time>2022-10-16T12:34:22Z</time>
      </trkpt>
      <trkpt lat="44.41738" lon="5.14601">
        <ele>995.4</ele>
        <time>2022-10-16T12:34:21Z</time>
      </trkpt>
      <trkpt lat="44.41739" lon="5.14601">
        <ele>995.5</ele>
        <time>2022-10-16T12:34:19Z</time>
      </trkpt>
      <trkpt lat="44.4174" lon="5.14601">
        <ele>995.7</ele>
        <time>2022-10-16T12:34:18Z</time>
      </trkpt>
      <trkpt lat="44.4174" lon="5.146">
        <ele>995.9</ele>
        <time>2022-10-16T12:34:17Z</time>
      </trkpt>
      <trkpt lat="44.41741" lon="5.146">
        <ele>996.1</ele>
        <time>2022-10-16T12:34:16Z</time>
      </trkpt>
      <trkpt lat="44.41742" lon="5.146">
        <ele>996.3</ele>
        <time>2022-10-16T12:34:15Z</time>
      </trkpt>
      <trkpt lat="44.41743" lon="5.146">
        <ele>996.4</ele>
        <time>2022-10-16T12:34:14Z</time>
      </trkpt>
      <trkpt lat="44.41743" lon="5.14599">
        <ele>996.7</ele>
        <time>2022-10-16T12:34:13Z</time>
      </trkpt>
      <trkpt lat="44.41744" lon="5.14599">
        <ele>996.9</ele>
        <time>2022-10-16T12:34:12Z</time>
      </trkpt>
      <trkpt lat="44.41745" lon="5.14599">
        <ele>997.1</ele>
        <time>2022-10-16T12:34:10Z</time>
      </trkpt>
      <trkpt lat="44.41746" lon="5.14599">
        <ele>997.2</ele>
        <time>2022-10-16T12:34:09Z</time>
      </trkpt>
      <trkpt lat="44.41747" lon="5.14598">
        <ele>997.7</ele>
        <time>2022-10-16T12:34:08Z</time>
      </trkpt>
      <trkpt lat="44.41748" lon="5.14598">
        <ele>997.9</ele>
        <time>2022-10-16T12:34:07Z</time>
      </trkpt>
      <trkpt lat="44.41749" lon="5.14598">
        <ele>998.1</ele>
        <time>2022-10-16T12:34:06Z</time>
      </trkpt>
      <trkpt lat="44.41749" lon="5.14597">
        <ele>998.4</ele>
        <time>2022-10-16T12:34:05Z</time>
      </trkpt>
      <trkpt lat="44.4175" lon="5.14597">
        <ele>998.6</ele>
        <time>2022-10-16T12:34:04Z</time>
      </trkpt>
      <trkpt lat="44.41751" lon="5.14596">
        <ele>999</ele>
        <time>2022-10-16T12:34:02Z</time>
      </trkpt>
      <trkpt lat="44.41752" lon="5.14595">
        <ele>999.5</ele>
        <time>2022-10-16T12:34:01Z</time>
      </trkpt>
      <trkpt lat="44.41752" lon="5.14594">
        <ele>999.8</ele>
        <time>2022-10-16T12:33:59Z</time>
      </trkpt>
      <trkpt lat="44.41753" lon="5.14592">
        <ele>1000.7</ele>
        <time>2022-10-16T12:33:51Z</time>
      </trkpt>
      <trkpt lat="44.41753" lon="5.14591">
        <ele>1001</ele>
        <time>2022-10-16T12:33:50Z</time>
      </trkpt>
      <trkpt lat="44.41754" lon="5.14591">
        <ele>1001.2</ele>
        <time>2022-10-16T12:33:49Z</time>
      </trkpt>
      <trkpt lat="44.41755" lon="5.1459">
        <ele>1001.7</ele>
        <time>2022-10-16T12:33:47Z</time>
      </trkpt>
      <trkpt lat="44.41756" lon="5.1459">
        <ele>1001.9</ele>
        <time>2022-10-16T12:33:46Z</time>
      </trkpt>
      <trkpt lat="44.41757" lon="5.1459">
        <ele>1002</ele>
        <time>2022-10-16T12:33:45Z</time>
      </trkpt>
      <trkpt lat="44.41758" lon="5.1459">
        <ele>1002.2</ele>
        <time>2022-10-16T12:33:44Z</time>
      </trkpt>
      <trkpt lat="44.41759" lon="5.14589">
        <ele>1002.8</ele>
        <time>2022-10-16T12:33:43Z</time>
      </trkpt>
      <trkpt lat="44.4176" lon="5.14589">
        <ele>1003</ele>
        <time>2022-10-16T12:33:41Z</time>
      </trkpt>
      <trkpt lat="44.41761" lon="5.14589">
        <ele>1003.1</ele>
        <time>2022-10-16T12:33:40Z</time>
      </trkpt>
      <trkpt lat="44.41762" lon="5.14589">
        <ele>1003.3</ele>
        <time>2022-10-16T12:33:39Z</time>
      </trkpt>
      <trkpt lat="44.41763" lon="5.14589">
        <ele>1003.5</ele>
        <time>2022-10-16T12:33:38Z</time>
      </trkpt>
      <trkpt lat="44.41764" lon="5.14589">
        <ele>1003.7</ele>
        <time>2022-10-16T12:33:37Z</time>
      </trkpt>
      <trkpt lat="44.41764" lon="5.14588">
        <ele>1004.1</ele>
        <time>2022-10-16T12:33:36Z</time>
      </trkpt>
      <trkpt lat="44.41765" lon="5.14588">
        <ele>1004.3</ele>
        <time>2022-10-16T12:33:35Z</time>
      </trkpt>
      <trkpt lat="44.41766" lon="5.14588">
        <ele>1004.5</ele>
        <time>2022-10-16T12:33:34Z</time>
      </trkpt>
      <trkpt lat="44.41766" lon="5.14587">
        <ele>1004.9</ele>
        <time>2022-10-16T12:33:33Z</time>
      </trkpt>
      <trkpt lat="44.41767" lon="5.14587">
        <ele>1005.1</ele>
        <time>2022-10-16T12:33:32Z</time>
      </trkpt>
      <trkpt lat="44.41768" lon="5.14586">
        <ele>1005.7</ele>
        <time>2022-10-16T12:33:31Z</time>
      </trkpt>
      <trkpt lat="44.41769" lon="5.14586">
        <ele>1005.9</ele>
        <time>2022-10-16T12:33:29Z</time>
      </trkpt>
      <trkpt lat="44.4177" lon="5.14585">
        <ele>1006.6</ele>
        <time>2022-10-16T12:33:28Z</time>
      </trkpt>
      <trkpt lat="44.41771" lon="5.14585">
        <ele>1006.8</ele>
        <time>2022-10-16T12:33:27Z</time>
      </trkpt>
      <trkpt lat="44.41771" lon="5.14584">
        <ele>1007.2</ele>
        <time>2022-10-16T12:33:26Z</time>
      </trkpt>
      <trkpt lat="44.41772" lon="5.14584">
        <ele>1007.4</ele>
        <time>2022-10-16T12:33:25Z</time>
      </trkpt>
      <trkpt lat="44.41773" lon="5.14583">
        <ele>1007.9</ele>
        <time>2022-10-16T12:33:24Z</time>
      </trkpt>
      <trkpt lat="44.41774" lon="5.14583">
        <ele>1008.2</ele>
        <time>2022-10-16T12:33:22Z</time>
      </trkpt>
      <trkpt lat="44.41775" lon="5.14583">
        <ele>1008.4</ele>
        <time>2022-10-16T12:33:21Z</time>
      </trkpt>
      <trkpt lat="44.41776" lon="5.14582">
        <ele>1008.5</ele>
        <time>2022-10-16T12:33:19Z</time>
      </trkpt>
      <trkpt lat="44.41777" lon="5.14582">
        <ele>1008.7</ele>
        <time>2022-10-16T12:33:18Z</time>
      </trkpt>
      <trkpt lat="44.41778" lon="5.14582">
        <ele>1008.9</ele>
        <time>2022-10-16T12:33:16Z</time>
      </trkpt>
      <trkpt lat="44.41779" lon="5.14582">
        <ele>1009.1</ele>
        <time>2022-10-16T12:33:15Z</time>
      </trkpt>
      <trkpt lat="44.4178" lon="5.14581">
        <ele>1009.1</ele>
        <time>2022-10-16T12:33:13Z</time>
      </trkpt>
      <trkpt lat="44.41781" lon="5.14581">
        <ele>1009.2</ele>
        <time>2022-10-16T12:33:12Z</time>
      </trkpt>
      <trkpt lat="44.41782" lon="5.14581">
        <ele>1009.4</ele>
        <time>2022-10-16T12:33:11Z</time>
      </trkpt>
      <trkpt lat="44.41783" lon="5.1458">
        <ele>1009.5</ele>
        <time>2022-10-16T12:33:09Z</time>
      </trkpt>
      <trkpt lat="44.41784" lon="5.1458">
        <ele>1009.6</ele>
        <time>2022-10-16T12:33:08Z</time>
      </trkpt>
      <trkpt lat="44.41785" lon="5.14579">
        <ele>1009.8</ele>
        <time>2022-10-16T12:33:06Z</time>
      </trkpt>
      <trkpt lat="44.41786" lon="5.14579">
        <ele>1009.9</ele>
        <time>2022-10-16T12:33:05Z</time>
      </trkpt>
      <trkpt lat="44.41787" lon="5.14578">
        <ele>1010.1</ele>
        <time>2022-10-16T12:33:03Z</time>
      </trkpt>
      <trkpt lat="44.41788" lon="5.14577">
        <ele>1010.2</ele>
        <time>2022-10-16T12:33:02Z</time>
      </trkpt>
      <trkpt lat="44.41789" lon="5.14577">
        <ele>1010.4</ele>
        <time>2022-10-16T12:33:01Z</time>
      </trkpt>
      <trkpt lat="44.4179" lon="5.14577">
        <ele>1010.6</ele>
        <time>2022-10-16T12:33:00Z</time>
      </trkpt>
      <trkpt lat="44.41791" lon="5.14576">
        <ele>1010.8</ele>
        <time>2022-10-16T12:32:58Z</time>
      </trkpt>
      <trkpt lat="44.41792" lon="5.14576">
        <ele>1011</ele>
        <time>2022-10-16T12:32:57Z</time>
      </trkpt>
      <trkpt lat="44.41793" lon="5.14576">
        <ele>1011.1</ele>
        <time>2022-10-16T12:32:56Z</time>
      </trkpt>
      <trkpt lat="44.41794" lon="5.14575">
        <ele>1011.4</ele>
        <time>2022-10-16T12:32:54Z</time>
      </trkpt>
      <trkpt lat="44.41795" lon="5.14575">
        <ele>1011.6</ele>
        <time>2022-10-16T12:32:53Z</time>
      </trkpt>
      <trkpt lat="44.41796" lon="5.14575">
        <ele>1011.7</ele>
        <time>2022-10-16T12:32:51Z</time>
      </trkpt>
      <trkpt lat="44.41797" lon="5.14575">
        <ele>1011.9</ele>
        <time>2022-10-16T12:32:50Z</time>
      </trkpt>
      <trkpt lat="44.41798" lon="5.14574">
        <ele>1012.2</ele>
        <time>2022-10-16T12:32:49Z</time>
      </trkpt>
      <trkpt lat="44.41799" lon="5.14574">
        <ele>1012.4</ele>
        <time>2022-10-16T12:32:47Z</time>
      </trkpt>
      <trkpt lat="44.418" lon="5.14574">
        <ele>1012.6</ele>
        <time>2022-10-16T12:32:46Z</time>
      </trkpt>
      <trkpt lat="44.41801" lon="5.14573">
        <ele>1012.9</ele>
        <time>2022-10-16T12:32:45Z</time>
      </trkpt>
      <trkpt lat="44.41802" lon="5.14573">
        <ele>1013.1</ele>
        <time>2022-10-16T12:32:44Z</time>
      </trkpt>
      <trkpt lat="44.41803" lon="5.14573">
        <ele>1013.3</ele>
        <time>2022-10-16T12:32:43Z</time>
      </trkpt>
      <trkpt lat="44.41803" lon="5.14572">
        <ele>1013.5</ele>
        <time>2022-10-16T12:32:42Z</time>
      </trkpt>
      <trkpt lat="44.41804" lon="5.14572">
        <ele>1013.7</ele>
        <time>2022-10-16T12:32:41Z</time>
      </trkpt>
      <trkpt lat="44.41805" lon="5.14572">
        <ele>1013.9</ele>
        <time>2022-10-16T12:32:40Z</time>
      </trkpt>
      <trkpt lat="44.41806" lon="5.14572">
        <ele>1014.1</ele>
        <time>2022-10-16T12:32:39Z</time>
      </trkpt>
      <trkpt lat="44.41807" lon="5.14572">
        <ele>1014.3</ele>
        <time>2022-10-16T12:32:38Z</time>
      </trkpt>
      <trkpt lat="44.41807" lon="5.14571">
        <ele>1014.5</ele>
        <time>2022-10-16T12:32:37Z</time>
      </trkpt>
      <trkpt lat="44.41808" lon="5.14571">
        <ele>1014.6</ele>
        <time>2022-10-16T12:32:36Z</time>
      </trkpt>
      <trkpt lat="44.41809" lon="5.14571">
        <ele>1014.8</ele>
        <time>2022-10-16T12:32:35Z</time>
      </trkpt>
      <trkpt lat="44.4181" lon="5.14571">
        <ele>1015</ele>
        <time>2022-10-16T12:32:34Z</time>
      </trkpt>
      <trkpt lat="44.4181" lon="5.1457">
        <ele>1015.2</ele>
        <time>2022-10-16T12:32:33Z</time>
      </trkpt>
      <trkpt lat="44.41811" lon="5.1457">
        <ele>1015.4</ele>
        <time>2022-10-16T12:32:32Z</time>
      </trkpt>
      <trkpt lat="44.41812" lon="5.1457">
        <ele>1015.5</ele>
        <time>2022-10-16T12:32:31Z</time>
      </trkpt>
      <trkpt lat="44.41813" lon="5.1457">
        <ele>1015.7</ele>
        <time>2022-10-16T12:32:30Z</time>
      </trkpt>
      <trkpt lat="44.41814" lon="5.1457">
        <ele>1015.9</ele>
        <time>2022-10-16T12:32:29Z</time>
      </trkpt>
      <trkpt lat="44.41814" lon="5.14569">
        <ele>1016.1</ele>
        <time>2022-10-16T12:32:28Z</time>
      </trkpt>
      <trkpt lat="44.41815" lon="5.14569">
        <ele>1016.3</ele>
        <time>2022-10-16T12:32:27Z</time>
      </trkpt>
      <trkpt lat="44.41816" lon="5.14568">
        <ele>1016.8</ele>
        <time>2022-10-16T12:32:26Z</time>
      </trkpt>
      <trkpt lat="44.41817" lon="5.14568">
        <ele>1016.9</ele>
        <time>2022-10-16T12:32:25Z</time>
      </trkpt>
      <trkpt lat="44.41818" lon="5.14568">
        <ele>1017.1</ele>
        <time>2022-10-16T12:32:24Z</time>
      </trkpt>
      <trkpt lat="44.41818" lon="5.14567">
        <ele>1017.4</ele>
        <time>2022-10-16T12:32:23Z</time>
      </trkpt>
      <trkpt lat="44.41819" lon="5.14567">
        <ele>1017.6</ele>
        <time>2022-10-16T12:32:22Z</time>
      </trkpt>
      <trkpt lat="44.4182" lon="5.14567">
        <ele>1017.8</ele>
        <time>2022-10-16T12:32:20Z</time>
      </trkpt>
      <trkpt lat="44.41821" lon="5.14566">
        <ele>1018.3</ele>
        <time>2022-10-16T12:32:19Z</time>
      </trkpt>
      <trkpt lat="44.41822" lon="5.14566">
        <ele>1018.5</ele>
        <time>2022-10-16T12:32:18Z</time>
      </trkpt>
      <trkpt lat="44.41823" lon="5.14566">
        <ele>1018.7</ele>
        <time>2022-10-16T12:32:17Z</time>
      </trkpt>
      <trkpt lat="44.41823" lon="5.14565">
        <ele>1019</ele>
        <time>2022-10-16T12:32:16Z</time>
      </trkpt>
      <trkpt lat="44.41824" lon="5.14565">
        <ele>1019.3</ele>
        <time>2022-10-16T12:32:15Z</time>
      </trkpt>
      <trkpt lat="44.41825" lon="5.14564">
        <ele>1019.8</ele>
        <time>2022-10-16T12:32:14Z</time>
      </trkpt>
      <trkpt lat="44.41826" lon="5.14564">
        <ele>1020</ele>
        <time>2022-10-16T12:32:12Z</time>
      </trkpt>
      <trkpt lat="44.41827" lon="5.14563">
        <ele>1020.6</ele>
        <time>2022-10-16T12:32:11Z</time>
      </trkpt>
      <trkpt lat="44.41828" lon="5.14563">
        <ele>1020.8</ele>
        <time>2022-10-16T12:32:10Z</time>
      </trkpt>
      <trkpt lat="44.41829" lon="5.14562">
        <ele>1021.4</ele>
        <time>2022-10-16T12:32:08Z</time>
      </trkpt>
      <trkpt lat="44.4183" lon="5.14561">
        <ele>1022</ele>
        <time>2022-10-16T12:32:07Z</time>
      </trkpt>
      <trkpt lat="44.41831" lon="5.14561">
        <ele>1022.3</ele>
        <time>2022-10-16T12:32:05Z</time>
      </trkpt>
      <trkpt lat="44.41832" lon="5.14561">
        <ele>1022.5</ele>
        <time>2022-10-16T12:32:04Z</time>
      </trkpt>
      <trkpt lat="44.41833" lon="5.1456">
        <ele>1023.2</ele>
        <time>2022-10-16T12:32:03Z</time>
      </trkpt>
      <trkpt lat="44.41834" lon="5.1456">
        <ele>1023.4</ele>
        <time>2022-10-16T12:32:01Z</time>
      </trkpt>
      <trkpt lat="44.41835" lon="5.1456">
        <ele>1023.6</ele>
        <time>2022-10-16T12:32:00Z</time>
      </trkpt>
      <trkpt lat="44.41836" lon="5.1456">
        <ele>1023.8</ele>
        <time>2022-10-16T12:31:59Z</time>
      </trkpt>
      <trkpt lat="44.41837" lon="5.14559">
        <ele>1024.5</ele>
        <time>2022-10-16T12:31:57Z</time>
      </trkpt>
      <trkpt lat="44.41838" lon="5.14559">
        <ele>1024.7</ele>
        <time>2022-10-16T12:31:56Z</time>
      </trkpt>
      <trkpt lat="44.41839" lon="5.14559">
        <ele>1024.9</ele>
        <time>2022-10-16T12:31:55Z</time>
      </trkpt>
      <trkpt lat="44.4184" lon="5.14558">
        <ele>1025.6</ele>
        <time>2022-10-16T12:31:53Z</time>
      </trkpt>
      <trkpt lat="44.41841" lon="5.14558">
        <ele>1025.8</ele>
        <time>2022-10-16T12:31:52Z</time>
      </trkpt>
      <trkpt lat="44.41842" lon="5.14559">
        <ele>1025.6</ele>
        <time>2022-10-16T12:31:50Z</time>
      </trkpt>
      <trkpt lat="44.41843" lon="5.14559">
        <ele>1025.9</ele>
        <time>2022-10-16T12:31:48Z</time>
      </trkpt>
      <trkpt lat="44.41844" lon="5.1456">
        <ele>1025.6</ele>
        <time>2022-10-16T12:31:47Z</time>
      </trkpt>
      <trkpt lat="44.41845" lon="5.1456">
        <ele>1025.8</ele>
        <time>2022-10-16T12:31:46Z</time>
      </trkpt>
      <trkpt lat="44.41845" lon="5.14559">
        <ele>1026.3</ele>
        <time>2022-10-16T12:31:45Z</time>
      </trkpt>
      <trkpt lat="44.41846" lon="5.14559">
        <ele>1026.5</ele>
        <time>2022-10-16T12:31:44Z</time>
      </trkpt>
      <trkpt lat="44.41847" lon="5.14558">
        <ele>1027.3</ele>
        <time>2022-10-16T12:31:41Z</time>
      </trkpt>
      <trkpt lat="44.41848" lon="5.14558">
        <ele>1027.5</ele>
        <time>2022-10-16T12:31:40Z</time>
      </trkpt>
      <trkpt lat="44.41848" lon="5.14557">
        <ele>1028</ele>
        <time>2022-10-16T12:31:39Z</time>
      </trkpt>
      <trkpt lat="44.41849" lon="5.14557">
        <ele>1028.2</ele>
        <time>2022-10-16T12:31:38Z</time>
      </trkpt>
      <trkpt lat="44.4185" lon="5.14557">
        <ele>1028.5</ele>
        <time>2022-10-16T12:31:37Z</time>
      </trkpt>
      <trkpt lat="44.4185" lon="5.14556">
        <ele>1029</ele>
        <time>2022-10-16T12:31:36Z</time>
      </trkpt>
      <trkpt lat="44.41851" lon="5.14556">
        <ele>1029.2</ele>
        <time>2022-10-16T12:31:34Z</time>
      </trkpt>
      <trkpt lat="44.41852" lon="5.14556">
        <ele>1029.5</ele>
        <time>2022-10-16T12:31:33Z</time>
      </trkpt>
      <trkpt lat="44.41852" lon="5.14555">
        <ele>1029.7</ele>
        <time>2022-10-16T12:31:32Z</time>
      </trkpt>
      <trkpt lat="44.41853" lon="5.14555">
        <ele>1029.9</ele>
        <time>2022-10-16T12:31:30Z</time>
      </trkpt>
      <trkpt lat="44.41854" lon="5.14555">
        <ele>1030.2</ele>
        <time>2022-10-16T12:31:28Z</time>
      </trkpt>
      <trkpt lat="44.41855" lon="5.14555">
        <ele>1030.4</ele>
        <time>2022-10-16T12:31:26Z</time>
      </trkpt>
      <trkpt lat="44.41856" lon="5.14555">
        <ele>1030.7</ele>
        <time>2022-10-16T12:31:24Z</time>
      </trkpt>
      <trkpt lat="44.41857" lon="5.14555">
        <ele>1031</ele>
        <time>2022-10-16T12:31:23Z</time>
      </trkpt>
      <trkpt lat="44.41858" lon="5.14555">
        <ele>1031.2</ele>
        <time>2022-10-16T12:31:22Z</time>
      </trkpt>
      <trkpt lat="44.41859" lon="5.14555">
        <ele>1031.5</ele>
        <time>2022-10-16T12:31:21Z</time>
      </trkpt>
      <trkpt lat="44.4186" lon="5.14555">
        <ele>1031.7</ele>
        <time>2022-10-16T12:31:19Z</time>
      </trkpt>
      <trkpt lat="44.41861" lon="5.14554">
        <ele>1032</ele>
        <time>2022-10-16T12:31:18Z</time>
      </trkpt>
      <trkpt lat="44.41862" lon="5.14554">
        <ele>1032.1</ele>
        <time>2022-10-16T12:31:17Z</time>
      </trkpt>
      <trkpt lat="44.41863" lon="5.14554">
        <ele>1032.3</ele>
        <time>2022-10-16T12:31:16Z</time>
      </trkpt>
      <trkpt lat="44.41864" lon="5.14553">
        <ele>1032.5</ele>
        <time>2022-10-16T12:31:15Z</time>
      </trkpt>
      <trkpt lat="44.41864" lon="5.14552">
        <ele>1032.5</ele>
        <time>2022-10-16T12:31:14Z</time>
      </trkpt>
      <trkpt lat="44.41865" lon="5.14552">
        <ele>1032.6</ele>
        <time>2022-10-16T12:31:13Z</time>
      </trkpt>
      <trkpt lat="44.41865" lon="5.14551">
        <ele>1032.7</ele>
        <time>2022-10-16T12:31:12Z</time>
      </trkpt>
      <trkpt lat="44.41866" lon="5.14551">
        <ele>1032.8</ele>
        <time>2022-10-16T12:31:11Z</time>
      </trkpt>
      <trkpt lat="44.41867" lon="5.14551">
        <ele>1033</ele>
        <time>2022-10-16T12:31:09Z</time>
      </trkpt>
      <trkpt lat="44.41868" lon="5.14551">
        <ele>1033.2</ele>
        <time>2022-10-16T12:31:07Z</time>
      </trkpt>
      <trkpt lat="44.41869" lon="5.14551">
        <ele>1033.4</ele>
        <time>2022-10-16T12:31:06Z</time>
      </trkpt>
      <trkpt lat="44.4187" lon="5.14551">
        <ele>1033.5</ele>
        <time>2022-10-16T12:31:04Z</time>
      </trkpt>
      <trkpt lat="44.41871" lon="5.1455">
        <ele>1033.8</ele>
        <time>2022-10-16T12:31:03Z</time>
      </trkpt>
      <trkpt lat="44.41872" lon="5.1455">
        <ele>1034</ele>
        <time>2022-10-16T12:31:02Z</time>
      </trkpt>
      <trkpt lat="44.41873" lon="5.1455">
        <ele>1034.1</ele>
        <time>2022-10-16T12:31:01Z</time>
      </trkpt>
      <trkpt lat="44.41874" lon="5.14549">
        <ele>1034.4</ele>
        <time>2022-10-16T12:30:59Z</time>
      </trkpt>
      <trkpt lat="44.41875" lon="5.14548">
        <ele>1034.7</ele>
        <time>2022-10-16T12:30:58Z</time>
      </trkpt>
      <trkpt lat="44.41876" lon="5.14548">
        <ele>1034.9</ele>
        <time>2022-10-16T12:30:57Z</time>
      </trkpt>
      <trkpt lat="44.41877" lon="5.14547">
        <ele>1035.2</ele>
        <time>2022-10-16T12:30:55Z</time>
      </trkpt>
      <trkpt lat="44.41878" lon="5.14547">
        <ele>1035.4</ele>
        <time>2022-10-16T12:30:54Z</time>
      </trkpt>
      <trkpt lat="44.41879" lon="5.14546">
        <ele>1035.7</ele>
        <time>2022-10-16T12:30:52Z</time>
      </trkpt>
      <trkpt lat="44.4188" lon="5.14545">
        <ele>1036</ele>
        <time>2022-10-16T12:30:51Z</time>
      </trkpt>
      <trkpt lat="44.41881" lon="5.14545">
        <ele>1036.2</ele>
        <time>2022-10-16T12:30:49Z</time>
      </trkpt>
      <trkpt lat="44.41882" lon="5.14544">
        <ele>1036.6</ele>
        <time>2022-10-16T12:30:48Z</time>
      </trkpt>
      <trkpt lat="44.41883" lon="5.14544">
        <ele>1036.8</ele>
        <time>2022-10-16T12:30:46Z</time>
      </trkpt>
      <trkpt lat="44.41884" lon="5.14543">
        <ele>1037.2</ele>
        <time>2022-10-16T12:30:45Z</time>
      </trkpt>
      <trkpt lat="44.41885" lon="5.14543">
        <ele>1037.4</ele>
        <time>2022-10-16T12:30:44Z</time>
      </trkpt>
      <trkpt lat="44.41885" lon="5.14542">
        <ele>1037.5</ele>
        <time>2022-10-16T12:30:43Z</time>
      </trkpt>
      <trkpt lat="44.41886" lon="5.14542">
        <ele>1037.8</ele>
        <time>2022-10-16T12:30:41Z</time>
      </trkpt>
      <trkpt lat="44.41887" lon="5.14541">
        <ele>1038.2</ele>
        <time>2022-10-16T12:30:39Z</time>
      </trkpt>
      <trkpt lat="44.41888" lon="5.14541">
        <ele>1038.4</ele>
        <time>2022-10-16T12:30:38Z</time>
      </trkpt>
      <trkpt lat="44.41889" lon="5.14541">
        <ele>1038.6</ele>
        <time>2022-10-16T12:30:37Z</time>
      </trkpt>
      <trkpt lat="44.41889" lon="5.1454">
        <ele>1038.8</ele>
        <time>2022-10-16T12:30:36Z</time>
      </trkpt>
      <trkpt lat="44.4189" lon="5.1454">
        <ele>1039</ele>
        <time>2022-10-16T12:30:35Z</time>
      </trkpt>
      <trkpt lat="44.41891" lon="5.1454">
        <ele>1039.2</ele>
        <time>2022-10-16T12:30:33Z</time>
      </trkpt>
      <trkpt lat="44.41892" lon="5.1454">
        <ele>1039.4</ele>
        <time>2022-10-16T12:30:32Z</time>
      </trkpt>
      <trkpt lat="44.41893" lon="5.1454">
        <ele>1039.7</ele>
        <time>2022-10-16T12:30:31Z</time>
      </trkpt>
      <trkpt lat="44.41894" lon="5.14539">
        <ele>1040.1</ele>
        <time>2022-10-16T12:30:29Z</time>
      </trkpt>
      <trkpt lat="44.41895" lon="5.14539">
        <ele>1040.3</ele>
        <time>2022-10-16T12:30:27Z</time>
      </trkpt>
      <trkpt lat="44.41896" lon="5.14539">
        <ele>1040.5</ele>
        <time>2022-10-16T12:30:26Z</time>
      </trkpt>
      <trkpt lat="44.41897" lon="5.14539">
        <ele>1040.7</ele>
        <time>2022-10-16T12:30:25Z</time>
      </trkpt>
      <trkpt lat="44.41898" lon="5.14539">
        <ele>1040.9</ele>
        <time>2022-10-16T12:30:23Z</time>
      </trkpt>
      <trkpt lat="44.41899" lon="5.14538">
        <ele>1041.4</ele>
        <time>2022-10-16T12:30:22Z</time>
      </trkpt>
      <trkpt lat="44.419" lon="5.14538">
        <ele>1041.6</ele>
        <time>2022-10-16T12:30:21Z</time>
      </trkpt>
      <trkpt lat="44.41901" lon="5.14538">
        <ele>1041.8</ele>
        <time>2022-10-16T12:30:20Z</time>
      </trkpt>
      <trkpt lat="44.41902" lon="5.14537">
        <ele>1042.3</ele>
        <time>2022-10-16T12:30:19Z</time>
      </trkpt>
      <trkpt lat="44.41903" lon="5.14537">
        <ele>1042.6</ele>
        <time>2022-10-16T12:30:17Z</time>
      </trkpt>
      <trkpt lat="44.41904" lon="5.14536">
        <ele>1043.1</ele>
        <time>2022-10-16T12:30:15Z</time>
      </trkpt>
      <trkpt lat="44.41905" lon="5.14536">
        <ele>1043.3</ele>
        <time>2022-10-16T12:30:14Z</time>
      </trkpt>
      <trkpt lat="44.41906" lon="5.14535">
        <ele>1043.8</ele>
        <time>2022-10-16T12:30:13Z</time>
      </trkpt>
      <trkpt lat="44.41907" lon="5.14535">
        <ele>1044.1</ele>
        <time>2022-10-16T12:30:12Z</time>
      </trkpt>
      <trkpt lat="44.41907" lon="5.14534">
        <ele>1044.4</ele>
        <time>2022-10-16T12:30:11Z</time>
      </trkpt>
      <trkpt lat="44.41908" lon="5.14533">
        <ele>1044.9</ele>
        <time>2022-10-16T12:30:10Z</time>
      </trkpt>
      <trkpt lat="44.41909" lon="5.14532">
        <ele>1045.5</ele>
        <time>2022-10-16T12:30:08Z</time>
      </trkpt>
      <trkpt lat="44.4191" lon="5.14531">
        <ele>1046.1</ele>
        <time>2022-10-16T12:30:07Z</time>
      </trkpt>
      <trkpt lat="44.41911" lon="5.14531">
        <ele>1046.3</ele>
        <time>2022-10-16T12:30:06Z</time>
      </trkpt>
      <trkpt lat="44.41911" lon="5.1453">
        <ele>1046.6</ele>
        <time>2022-10-16T12:30:05Z</time>
      </trkpt>
      <trkpt lat="44.41912" lon="5.1453">
        <ele>1046.9</ele>
        <time>2022-10-16T12:30:04Z</time>
      </trkpt>
      <trkpt lat="44.41913" lon="5.1453">
        <ele>1047.2</ele>
        <time>2022-10-16T12:30:02Z</time>
      </trkpt>
      <trkpt lat="44.41914" lon="5.1453">
        <ele>1047.5</ele>
        <time>2022-10-16T12:30:01Z</time>
      </trkpt>
      <trkpt lat="44.41915" lon="5.14529">
        <ele>1048.1</ele>
        <time>2022-10-16T12:29:59Z</time>
      </trkpt>
      <trkpt lat="44.41916" lon="5.14529">
        <ele>1048.4</ele>
        <time>2022-10-16T12:29:58Z</time>
      </trkpt>
      <trkpt lat="44.41917" lon="5.14528">
        <ele>1049</ele>
        <time>2022-10-16T12:29:56Z</time>
      </trkpt>
      <trkpt lat="44.41918" lon="5.14527">
        <ele>1049.3</ele>
        <time>2022-10-16T12:29:55Z</time>
      </trkpt>
      <trkpt lat="44.41918" lon="5.14526">
        <ele>1049.4</ele>
        <time>2022-10-16T12:29:54Z</time>
      </trkpt>
      <trkpt lat="44.41919" lon="5.14526">
        <ele>1049.6</ele>
        <time>2022-10-16T12:29:53Z</time>
      </trkpt>
      <trkpt lat="44.4192" lon="5.14525">
        <ele>1049.9</ele>
        <time>2022-10-16T12:29:51Z</time>
      </trkpt>
      <trkpt lat="44.4192" lon="5.14524">
        <ele>1049.9</ele>
        <time>2022-10-16T12:29:50Z</time>
      </trkpt>
      <trkpt lat="44.41921" lon="5.14523">
        <ele>1050.2</ele>
        <time>2022-10-16T12:29:49Z</time>
      </trkpt>
      <trkpt lat="44.41921" lon="5.14522">
        <ele>1050.3</ele>
        <time>2022-10-16T12:29:48Z</time>
      </trkpt>
      <trkpt lat="44.41922" lon="5.14522">
        <ele>1050.5</ele>
        <time>2022-10-16T12:29:47Z</time>
      </trkpt>
      <trkpt lat="44.41923" lon="5.14521">
        <ele>1050.8</ele>
        <time>2022-10-16T12:29:45Z</time>
      </trkpt>
      <trkpt lat="44.41924" lon="5.14521">
        <ele>1051.1</ele>
        <time>2022-10-16T12:29:44Z</time>
      </trkpt>
      <trkpt lat="44.41925" lon="5.1452">
        <ele>1051.4</ele>
        <time>2022-10-16T12:29:42Z</time>
      </trkpt>
      <trkpt lat="44.41926" lon="5.14519">
        <ele>1051.8</ele>
        <time>2022-10-16T12:29:41Z</time>
      </trkpt>
      <trkpt lat="44.41927" lon="5.14519">
        <ele>1052</ele>
        <time>2022-10-16T12:29:40Z</time>
      </trkpt>
      <trkpt lat="44.41928" lon="5.14519">
        <ele>1052.3</ele>
        <time>2022-10-16T12:29:39Z</time>
      </trkpt>
      <trkpt lat="44.41928" lon="5.14518">
        <ele>1052.4</ele>
        <time>2022-10-16T12:29:38Z</time>
      </trkpt>
      <trkpt lat="44.41929" lon="5.14518">
        <ele>1052.6</ele>
        <time>2022-10-16T12:29:36Z</time>
      </trkpt>
      <trkpt lat="44.4193" lon="5.14518">
        <ele>1052.9</ele>
        <time>2022-10-16T12:29:35Z</time>
      </trkpt>
      <trkpt lat="44.41931" lon="5.14517">
        <ele>1053.3</ele>
        <time>2022-10-16T12:29:34Z</time>
      </trkpt>
      <trkpt lat="44.41932" lon="5.14516">
        <ele>1053.7</ele>
        <time>2022-10-16T12:29:31Z</time>
      </trkpt>
      <trkpt lat="44.41933" lon="5.14515">
        <ele>1054.1</ele>
        <time>2022-10-16T12:29:30Z</time>
      </trkpt>
      <trkpt lat="44.41934" lon="5.14515">
        <ele>1054.4</ele>
        <time>2022-10-16T12:29:29Z</time>
      </trkpt>
      <trkpt lat="44.41934" lon="5.14514">
        <ele>1054.5</ele>
        <time>2022-10-16T12:29:28Z</time>
      </trkpt>
      <trkpt lat="44.41935" lon="5.14514">
        <ele>1054.8</ele>
        <time>2022-10-16T12:29:26Z</time>
      </trkpt>
      <trkpt lat="44.41936" lon="5.14513">
        <ele>1055.2</ele>
        <time>2022-10-16T12:29:24Z</time>
      </trkpt>
      <trkpt lat="44.41937" lon="5.14513">
        <ele>1055.5</ele>
        <time>2022-10-16T12:29:23Z</time>
      </trkpt>
      <trkpt lat="44.41938" lon="5.14513">
        <ele>1055.8</ele>
        <time>2022-10-16T12:29:21Z</time>
      </trkpt>
      <trkpt lat="44.41939" lon="5.14513">
        <ele>1056.1</ele>
        <time>2022-10-16T12:29:20Z</time>
      </trkpt>
      <trkpt lat="44.4194" lon="5.14513">
        <ele>1056.4</ele>
        <time>2022-10-16T12:29:18Z</time>
      </trkpt>
      <trkpt lat="44.41941" lon="5.14513">
        <ele>1056.7</ele>
        <time>2022-10-16T12:29:17Z</time>
      </trkpt>
      <trkpt lat="44.41942" lon="5.14513">
        <ele>1056.9</ele>
        <time>2022-10-16T12:29:15Z</time>
      </trkpt>
      <trkpt lat="44.41943" lon="5.14513">
        <ele>1057.2</ele>
        <time>2022-10-16T12:29:14Z</time>
      </trkpt>
      <trkpt lat="44.41944" lon="5.14513">
        <ele>1057.5</ele>
        <time>2022-10-16T12:29:13Z</time>
      </trkpt>
      <trkpt lat="44.41944" lon="5.14514">
        <ele>1057.4</ele>
        <time>2022-10-16T12:29:12Z</time>
      </trkpt>
      <trkpt lat="44.41945" lon="5.14514">
        <ele>1057.6</ele>
        <time>2022-10-16T12:29:11Z</time>
      </trkpt>
      <trkpt lat="44.41946" lon="5.14514">
        <ele>1057.8</ele>
        <time>2022-10-16T12:29:10Z</time>
      </trkpt>
      <trkpt lat="44.41947" lon="5.14514">
        <ele>1058.1</ele>
        <time>2022-10-16T12:29:09Z</time>
      </trkpt>
      <trkpt lat="44.41948" lon="5.14514">
        <ele>1058.3</ele>
        <time>2022-10-16T12:29:08Z</time>
      </trkpt>
      <trkpt lat="44.41949" lon="5.14514">
        <ele>1058.5</ele>
        <time>2022-10-16T12:29:06Z</time>
      </trkpt>
      <trkpt lat="44.4195" lon="5.14514">
        <ele>1058.8</ele>
        <time>2022-10-16T12:29:05Z</time>
      </trkpt>
      <trkpt lat="44.41951" lon="5.14514">
        <ele>1059</ele>
        <time>2022-10-16T12:29:04Z</time>
      </trkpt>
      <trkpt lat="44.41952" lon="5.14513">
        <ele>1059.5</ele>
        <time>2022-10-16T12:29:03Z</time>
      </trkpt>
      <trkpt lat="44.41953" lon="5.14513">
        <ele>1059.7</ele>
        <time>2022-10-16T12:29:01Z</time>
      </trkpt>
      <trkpt lat="44.41954" lon="5.14513">
        <ele>1059.9</ele>
        <time>2022-10-16T12:29:00Z</time>
      </trkpt>
      <trkpt lat="44.41955" lon="5.14512">
        <ele>1060.4</ele>
        <time>2022-10-16T12:28:58Z</time>
      </trkpt>
      <trkpt lat="44.41956" lon="5.14511">
        <ele>1060.9</ele>
        <time>2022-10-16T12:28:56Z</time>
      </trkpt>
      <trkpt lat="44.41957" lon="5.1451">
        <ele>1061.3</ele>
        <time>2022-10-16T12:28:55Z</time>
      </trkpt>
      <trkpt lat="44.41958" lon="5.1451">
        <ele>1061.6</ele>
        <time>2022-10-16T12:28:54Z</time>
      </trkpt>
      <trkpt lat="44.41959" lon="5.1451">
        <ele>1061.8</ele>
        <time>2022-10-16T12:28:53Z</time>
      </trkpt>
      <trkpt lat="44.4196" lon="5.1451">
        <ele>1062.1</ele>
        <time>2022-10-16T12:28:51Z</time>
      </trkpt>
      <trkpt lat="44.41961" lon="5.14509">
        <ele>1062.6</ele>
        <time>2022-10-16T12:28:50Z</time>
      </trkpt>
      <trkpt lat="44.41962" lon="5.14509">
        <ele>1062.8</ele>
        <time>2022-10-16T12:28:49Z</time>
      </trkpt>
      <trkpt lat="44.41963" lon="5.14509">
        <ele>1063.1</ele>
        <time>2022-10-16T12:28:48Z</time>
      </trkpt>
      <trkpt lat="44.41963" lon="5.14508">
        <ele>1063.3</ele>
        <time>2022-10-16T12:28:47Z</time>
      </trkpt>
      <trkpt lat="44.41964" lon="5.14507">
        <ele>1063.8</ele>
        <time>2022-10-16T12:28:46Z</time>
      </trkpt>
      <trkpt lat="44.41965" lon="5.14507">
        <ele>1064.1</ele>
        <time>2022-10-16T12:28:45Z</time>
      </trkpt>
      <trkpt lat="44.41965" lon="5.14506">
        <ele>1064.4</ele>
        <time>2022-10-16T12:28:44Z</time>
      </trkpt>
      <trkpt lat="44.41966" lon="5.14505">
        <ele>1064.9</ele>
        <time>2022-10-16T12:28:43Z</time>
      </trkpt>
      <trkpt lat="44.41967" lon="5.14505">
        <ele>1065.2</ele>
        <time>2022-10-16T12:28:41Z</time>
      </trkpt>
      <trkpt lat="44.41968" lon="5.14504">
        <ele>1065.7</ele>
        <time>2022-10-16T12:28:40Z</time>
      </trkpt>
      <trkpt lat="44.41969" lon="5.14504">
        <ele>1066</ele>
        <time>2022-10-16T12:28:38Z</time>
      </trkpt>
      <trkpt lat="44.4197" lon="5.14504">
        <ele>1066.2</ele>
        <time>2022-10-16T12:28:37Z</time>
      </trkpt>
      <trkpt lat="44.41971" lon="5.14504">
        <ele>1066.5</ele>
        <time>2022-10-16T12:28:36Z</time>
      </trkpt>
      <trkpt lat="44.41972" lon="5.14504">
        <ele>1066.8</ele>
        <time>2022-10-16T12:28:24Z</time>
      </trkpt>
      <trkpt lat="44.41973" lon="5.14503">
        <ele>1067.3</ele>
        <time>2022-10-16T12:28:23Z</time>
      </trkpt>
      <trkpt lat="44.41974" lon="5.14503">
        <ele>1067.4</ele>
        <time>2022-10-16T12:28:21Z</time>
      </trkpt>
      <trkpt lat="44.41975" lon="5.14503">
        <ele>1067.6</ele>
        <time>2022-10-16T12:28:20Z</time>
      </trkpt>
      <trkpt lat="44.41976" lon="5.14503">
        <ele>1067.8</ele>
        <time>2022-10-16T12:28:19Z</time>
      </trkpt>
      <trkpt lat="44.41977" lon="5.14503">
        <ele>1068</ele>
        <time>2022-10-16T12:28:18Z</time>
      </trkpt>
      <trkpt lat="44.41978" lon="5.14502">
        <ele>1068.4</ele>
        <time>2022-10-16T12:28:16Z</time>
      </trkpt>
      <trkpt lat="44.41979" lon="5.14502">
        <ele>1068.6</ele>
        <time>2022-10-16T12:28:15Z</time>
      </trkpt>
      <trkpt lat="44.4198" lon="5.14502">
        <ele>1068.8</ele>
        <time>2022-10-16T12:28:14Z</time>
      </trkpt>
      <trkpt lat="44.41981" lon="5.14502">
        <ele>1069</ele>
        <time>2022-10-16T12:28:12Z</time>
      </trkpt>
      <trkpt lat="44.41982" lon="5.14502">
        <ele>1069.1</ele>
        <time>2022-10-16T12:28:11Z</time>
      </trkpt>
      <trkpt lat="44.41983" lon="5.14502">
        <ele>1069.3</ele>
        <time>2022-10-16T12:28:10Z</time>
      </trkpt>
      <trkpt lat="44.41985" lon="5.14502">
        <ele>1069.7</ele>
        <time>2022-10-16T12:26:43Z</time>
      </trkpt>
      <trkpt lat="44.41986" lon="5.14502">
        <ele>1069.8</ele>
        <time>2022-10-16T12:26:42Z</time>
      </trkpt>
      <trkpt lat="44.41987" lon="5.14501">
        <ele>1070.3</ele>
        <time>2022-10-16T12:26:41Z</time>
      </trkpt>
      <trkpt lat="44.41988" lon="5.14501">
        <ele>1070.5</ele>
        <time>2022-10-16T12:26:40Z</time>
      </trkpt>
      <trkpt lat="44.41989" lon="5.14501">
        <ele>1070.7</ele>
        <time>2022-10-16T12:26:39Z</time>
      </trkpt>
      <trkpt lat="44.41989" lon="5.145">
        <ele>1071</ele>
        <time>2022-10-16T12:26:38Z</time>
      </trkpt>
      <trkpt lat="44.4199" lon="5.145">
        <ele>1071.2</ele>
        <time>2022-10-16T12:26:37Z</time>
      </trkpt>
      <trkpt lat="44.41991" lon="5.145">
        <ele>1071.4</ele>
        <time>2022-10-16T12:26:36Z</time>
      </trkpt>
      <trkpt lat="44.41992" lon="5.14499">
        <ele>1071.5</ele>
        <time>2022-10-16T12:26:35Z</time>
      </trkpt>
      <trkpt lat="44.41993" lon="5.14499">
        <ele>1071.7</ele>
        <time>2022-10-16T12:26:34Z</time>
      </trkpt>
      <trkpt lat="44.41993" lon="5.14498">
        <ele>1071.6</ele>
        <time>2022-10-16T12:26:33Z</time>
      </trkpt>
      <trkpt lat="44.41994" lon="5.14498">
        <ele>1071.8</ele>
        <time>2022-10-16T12:26:32Z</time>
      </trkpt>
      <trkpt lat="44.41995" lon="5.14498">
        <ele>1072</ele>
        <time>2022-10-16T12:26:31Z</time>
      </trkpt>
      <trkpt lat="44.41996" lon="5.14498">
        <ele>1072.2</ele>
        <time>2022-10-16T12:26:29Z</time>
      </trkpt>
      <trkpt lat="44.41997" lon="5.14498">
        <ele>1072.4</ele>
        <time>2022-10-16T12:26:28Z</time>
      </trkpt>
      <trkpt lat="44.41998" lon="5.14498">
        <ele>1072.6</ele>
        <time>2022-10-16T12:26:27Z</time>
      </trkpt>
      <trkpt lat="44.41999" lon="5.14498">
        <ele>1072.7</ele>
        <time>2022-10-16T12:26:25Z</time>
      </trkpt>
      <trkpt lat="44.42" lon="5.14499">
        <ele>1073</ele>
        <time>2022-10-16T12:26:24Z</time>
      </trkpt>
      <trkpt lat="44.42001" lon="5.14499">
        <ele>1073.2</ele>
        <time>2022-10-16T12:26:23Z</time>
      </trkpt>
      <trkpt lat="44.42002" lon="5.14499">
        <ele>1073.4</ele>
        <time>2022-10-16T12:26:22Z</time>
      </trkpt>
      <trkpt lat="44.42003" lon="5.14498">
        <ele>1073.6</ele>
        <time>2022-10-16T12:26:20Z</time>
      </trkpt>
      <trkpt lat="44.42004" lon="5.14498">
        <ele>1073.8</ele>
        <time>2022-10-16T12:26:19Z</time>
      </trkpt>
      <trkpt lat="44.42005" lon="5.14498">
        <ele>1074</ele>
        <time>2022-10-16T12:26:18Z</time>
      </trkpt>
      <trkpt lat="44.42006" lon="5.14497">
        <ele>1074.2</ele>
        <time>2022-10-16T12:26:17Z</time>
      </trkpt>
      <trkpt lat="44.42007" lon="5.14496">
        <ele>1074.4</ele>
        <time>2022-10-16T12:26:16Z</time>
      </trkpt>
      <trkpt lat="44.42008" lon="5.14496">
        <ele>1074.6</ele>
        <time>2022-10-16T12:26:15Z</time>
      </trkpt>
      <trkpt lat="44.42009" lon="5.14496">
        <ele>1074.8</ele>
        <time>2022-10-16T12:26:14Z</time>
      </trkpt>
      <trkpt lat="44.4201" lon="5.14495">
        <ele>1075</ele>
        <time>2022-10-16T12:26:13Z</time>
      </trkpt>
      <trkpt lat="44.42011" lon="5.14495">
        <ele>1075.3</ele>
        <time>2022-10-16T12:26:12Z</time>
      </trkpt>
      <trkpt lat="44.42012" lon="5.14495">
        <ele>1075.5</ele>
        <time>2022-10-16T12:26:10Z</time>
      </trkpt>
      <trkpt lat="44.42013" lon="5.14495">
        <ele>1075.7</ele>
        <time>2022-10-16T12:26:09Z</time>
      </trkpt>
      <trkpt lat="44.42014" lon="5.14495">
        <ele>1075.9</ele>
        <time>2022-10-16T12:26:08Z</time>
      </trkpt>
      <trkpt lat="44.42015" lon="5.14495">
        <ele>1076.2</ele>
        <time>2022-10-16T12:26:07Z</time>
      </trkpt>
      <trkpt lat="44.42016" lon="5.14495">
        <ele>1076.4</ele>
        <time>2022-10-16T12:26:06Z</time>
      </trkpt>
      <trkpt lat="44.42017" lon="5.14495">
        <ele>1076.6</ele>
        <time>2022-10-16T12:26:04Z</time>
      </trkpt>
      <trkpt lat="44.42018" lon="5.14495">
        <ele>1076.8</ele>
        <time>2022-10-16T12:26:03Z</time>
      </trkpt>
      <trkpt lat="44.42019" lon="5.14495">
        <ele>1077</ele>
        <time>2022-10-16T12:26:02Z</time>
      </trkpt>
      <trkpt lat="44.4202" lon="5.14495">
        <ele>1077.3</ele>
        <time>2022-10-16T12:26:01Z</time>
      </trkpt>
      <trkpt lat="44.42021" lon="5.14495">
        <ele>1077.5</ele>
        <time>2022-10-16T12:26:00Z</time>
      </trkpt>
      <trkpt lat="44.42022" lon="5.14496">
        <ele>1077.7</ele>
        <time>2022-10-16T12:25:58Z</time>
      </trkpt>
      <trkpt lat="44.42023" lon="5.14496">
        <ele>1077.9</ele>
        <time>2022-10-16T12:25:57Z</time>
      </trkpt>
      <trkpt lat="44.42024" lon="5.14496">
        <ele>1078.2</ele>
        <time>2022-10-16T12:25:56Z</time>
      </trkpt>
      <trkpt lat="44.42025" lon="5.14497">
        <ele>1078.4</ele>
        <time>2022-10-16T12:25:55Z</time>
      </trkpt>
      <trkpt lat="44.42026" lon="5.14497">
        <ele>1078.6</ele>
        <time>2022-10-16T12:25:54Z</time>
      </trkpt>
      <trkpt lat="44.42027" lon="5.14497">
        <ele>1078.8</ele>
        <time>2022-10-16T12:25:52Z</time>
      </trkpt>
      <trkpt lat="44.42028" lon="5.14497">
        <ele>1079.1</ele>
        <time>2022-10-16T12:25:51Z</time>
      </trkpt>
      <trkpt lat="44.42029" lon="5.14497">
        <ele>1079.3</ele>
        <time>2022-10-16T12:25:50Z</time>
      </trkpt>
      <trkpt lat="44.4203" lon="5.14497">
        <ele>1079.6</ele>
        <time>2022-10-16T12:25:49Z</time>
      </trkpt>
      <trkpt lat="44.42031" lon="5.14498">
        <ele>1079.8</ele>
        <time>2022-10-16T12:25:48Z</time>
      </trkpt>
      <trkpt lat="44.42032" lon="5.14498">
        <ele>1080.1</ele>
        <time>2022-10-16T12:25:47Z</time>
      </trkpt>
      <trkpt lat="44.42033" lon="5.14498">
        <ele>1080.3</ele>
        <time>2022-10-16T12:25:46Z</time>
      </trkpt>
      <trkpt lat="44.42034" lon="5.14498">
        <ele>1080.6</ele>
        <time>2022-10-16T12:25:44Z</time>
      </trkpt>
      <trkpt lat="44.42035" lon="5.14498">
        <ele>1080.8</ele>
        <time>2022-10-16T12:25:43Z</time>
      </trkpt>
      <trkpt lat="44.42036" lon="5.14498">
        <ele>1081.1</ele>
        <time>2022-10-16T12:25:42Z</time>
      </trkpt>
      <trkpt lat="44.42037" lon="5.14498">
        <ele>1081.3</ele>
        <time>2022-10-16T12:25:41Z</time>
      </trkpt>
      <trkpt lat="44.42038" lon="5.14499">
        <ele>1081.6</ele>
        <time>2022-10-16T12:25:39Z</time>
      </trkpt>
      <trkpt lat="44.42039" lon="5.14499">
        <ele>1081.8</ele>
        <time>2022-10-16T12:25:38Z</time>
      </trkpt>
      <trkpt lat="44.4204" lon="5.145">
        <ele>1082.1</ele>
        <time>2022-10-16T12:25:36Z</time>
      </trkpt>
      <trkpt lat="44.42041" lon="5.145">
        <ele>1082.3</ele>
        <time>2022-10-16T12:25:35Z</time>
      </trkpt>
      <trkpt lat="44.42042" lon="5.145">
        <ele>1082.6</ele>
        <time>2022-10-16T12:25:33Z</time>
      </trkpt>
      <trkpt lat="44.42043" lon="5.14501">
        <ele>1082.5</ele>
        <time>2022-10-16T12:25:32Z</time>
      </trkpt>
      <trkpt lat="44.42044" lon="5.14501">
        <ele>1082.8</ele>
        <time>2022-10-16T12:25:31Z</time>
      </trkpt>
      <trkpt lat="44.42045" lon="5.14501">
        <ele>1083</ele>
        <time>2022-10-16T12:25:30Z</time>
      </trkpt>
      <trkpt lat="44.42046" lon="5.14501">
        <ele>1083.3</ele>
        <time>2022-10-16T12:25:28Z</time>
      </trkpt>
      <trkpt lat="44.42047" lon="5.14501">
        <ele>1083.5</ele>
        <time>2022-10-16T12:25:27Z</time>
      </trkpt>
      <trkpt lat="44.42048" lon="5.14501">
        <ele>1083.8</ele>
        <time>2022-10-16T12:25:26Z</time>
      </trkpt>
      <trkpt lat="44.42049" lon="5.14501">
        <ele>1084</ele>
        <time>2022-10-16T12:25:25Z</time>
      </trkpt>
      <trkpt lat="44.4205" lon="5.14502">
        <ele>1084</ele>
        <time>2022-10-16T12:25:24Z</time>
      </trkpt>
      <trkpt lat="44.42051" lon="5.14502">
        <ele>1084.2</ele>
        <time>2022-10-16T12:25:23Z</time>
      </trkpt>
      <trkpt lat="44.42052" lon="5.14502">
        <ele>1084.5</ele>
        <time>2022-10-16T12:25:21Z</time>
      </trkpt>
      <trkpt lat="44.42053" lon="5.14502">
        <ele>1084.7</ele>
        <time>2022-10-16T12:25:20Z</time>
      </trkpt>
      <trkpt lat="44.42054" lon="5.14502">
        <ele>1085</ele>
        <time>2022-10-16T12:25:19Z</time>
      </trkpt>
      <trkpt lat="44.42055" lon="5.14502">
        <ele>1085.2</ele>
        <time>2022-10-16T12:25:18Z</time>
      </trkpt>
      <trkpt lat="44.42056" lon="5.14502">
        <ele>1085.5</ele>
        <time>2022-10-16T12:25:17Z</time>
      </trkpt>
      <trkpt lat="44.42057" lon="5.14502">
        <ele>1085.7</ele>
        <time>2022-10-16T12:25:16Z</time>
      </trkpt>
      <trkpt lat="44.42058" lon="5.14502">
        <ele>1086</ele>
        <time>2022-10-16T12:25:15Z</time>
      </trkpt>
      <trkpt lat="44.42059" lon="5.14502">
        <ele>1086.2</ele>
        <time>2022-10-16T12:25:13Z</time>
      </trkpt>
      <trkpt lat="44.4206" lon="5.14502">
        <ele>1086.5</ele>
        <time>2022-10-16T12:25:12Z</time>
      </trkpt>
      <trkpt lat="44.42061" lon="5.14502">
        <ele>1086.7</ele>
        <time>2022-10-16T12:25:10Z</time>
      </trkpt>
      <trkpt lat="44.42062" lon="5.14503">
        <ele>1086.6</ele>
        <time>2022-10-16T12:25:09Z</time>
      </trkpt>
      <trkpt lat="44.42063" lon="5.14503">
        <ele>1086.9</ele>
        <time>2022-10-16T12:25:08Z</time>
      </trkpt>
      <trkpt lat="44.42064" lon="5.14503">
        <ele>1087.1</ele>
        <time>2022-10-16T12:25:06Z</time>
      </trkpt>
      <trkpt lat="44.42065" lon="5.14503">
        <ele>1087.4</ele>
        <time>2022-10-16T12:25:05Z</time>
      </trkpt>
      <trkpt lat="44.42066" lon="5.14504">
        <ele>1087.3</ele>
        <time>2022-10-16T12:25:04Z</time>
      </trkpt>
      <trkpt lat="44.42067" lon="5.14504">
        <ele>1087.5</ele>
        <time>2022-10-16T12:25:03Z</time>
      </trkpt>
      <trkpt lat="44.42068" lon="5.14504">
        <ele>1087.8</ele>
        <time>2022-10-16T12:25:02Z</time>
      </trkpt>
      <trkpt lat="44.42069" lon="5.14504">
        <ele>1088</ele>
        <time>2022-10-16T12:25:01Z</time>
      </trkpt>
      <trkpt lat="44.42069" lon="5.14503">
        <ele>1088.4</ele>
        <time>2022-10-16T12:25:00Z</time>
      </trkpt>
      <trkpt lat="44.4207" lon="5.14503">
        <ele>1088.6</ele>
        <time>2022-10-16T12:24:59Z</time>
      </trkpt>
      <trkpt lat="44.42071" lon="5.14503">
        <ele>1088.9</ele>
        <time>2022-10-16T12:24:58Z</time>
      </trkpt>
      <trkpt lat="44.42072" lon="5.14503">
        <ele>1089.1</ele>
        <time>2022-10-16T12:24:57Z</time>
      </trkpt>
      <trkpt lat="44.42073" lon="5.14503">
        <ele>1089.4</ele>
        <time>2022-10-16T12:24:56Z</time>
      </trkpt>
      <trkpt lat="44.42074" lon="5.14503">
        <ele>1089.6</ele>
        <time>2022-10-16T12:24:54Z</time>
      </trkpt>
      <trkpt lat="44.42075" lon="5.14503">
        <ele>1089.9</ele>
        <time>2022-10-16T12:24:53Z</time>
      </trkpt>
      <trkpt lat="44.42076" lon="5.14503">
        <ele>1090.1</ele>
        <time>2022-10-16T12:24:52Z</time>
      </trkpt>
      <trkpt lat="44.42077" lon="5.14502">
        <ele>1090.7</ele>
        <time>2022-10-16T12:24:51Z</time>
      </trkpt>
      <trkpt lat="44.42078" lon="5.14502">
        <ele>1090.9</ele>
        <time>2022-10-16T12:24:49Z</time>
      </trkpt>
      <trkpt lat="44.42079" lon="5.14502">
        <ele>1091.2</ele>
        <time>2022-10-16T12:24:48Z</time>
      </trkpt>
      <trkpt lat="44.4208" lon="5.14502">
        <ele>1091.4</ele>
        <time>2022-10-16T12:24:46Z</time>
      </trkpt>
      <trkpt lat="44.42081" lon="5.14502">
        <ele>1091.7</ele>
        <time>2022-10-16T12:24:45Z</time>
      </trkpt>
      <trkpt lat="44.42082" lon="5.14502">
        <ele>1091.9</ele>
        <time>2022-10-16T12:24:43Z</time>
      </trkpt>
      <trkpt lat="44.42083" lon="5.14502">
        <ele>1092.2</ele>
        <time>2022-10-16T12:24:42Z</time>
      </trkpt>
      <trkpt lat="44.42084" lon="5.14502">
        <ele>1092.5</ele>
        <time>2022-10-16T12:24:41Z</time>
      </trkpt>
      <trkpt lat="44.42085" lon="5.14502">
        <ele>1092.8</ele>
        <time>2022-10-16T12:24:40Z</time>
      </trkpt>
      <trkpt lat="44.42086" lon="5.14502">
        <ele>1093.1</ele>
        <time>2022-10-16T12:24:38Z</time>
      </trkpt>
      <trkpt lat="44.42087" lon="5.14502">
        <ele>1093.3</ele>
        <time>2022-10-16T12:24:37Z</time>
      </trkpt>
      <trkpt lat="44.42088" lon="5.14502">
        <ele>1093.6</ele>
        <time>2022-10-16T12:24:36Z</time>
      </trkpt>
      <trkpt lat="44.42089" lon="5.14502">
        <ele>1093.9</ele>
        <time>2022-10-16T12:24:34Z</time>
      </trkpt>
      <trkpt lat="44.4209" lon="5.14502">
        <ele>1094.2</ele>
        <time>2022-10-16T12:24:33Z</time>
      </trkpt>
      <trkpt lat="44.42091" lon="5.14502">
        <ele>1094.5</ele>
        <time>2022-10-16T12:24:32Z</time>
      </trkpt>
      <trkpt lat="44.42092" lon="5.14502">
        <ele>1094.8</ele>
        <time>2022-10-16T12:24:30Z</time>
      </trkpt>
      <trkpt lat="44.42093" lon="5.14502">
        <ele>1095.1</ele>
        <time>2022-10-16T12:24:29Z</time>
      </trkpt>
      <trkpt lat="44.42094" lon="5.14502">
        <ele>1095.4</ele>
        <time>2022-10-16T12:24:28Z</time>
      </trkpt>
      <trkpt lat="44.42094" lon="5.14503">
        <ele>1095</ele>
        <time>2022-10-16T12:24:27Z</time>
      </trkpt>
      <trkpt lat="44.42095" lon="5.14503">
        <ele>1095.3</ele>
        <time>2022-10-16T12:24:26Z</time>
      </trkpt>
      <trkpt lat="44.42096" lon="5.14503">
        <ele>1095.6</ele>
        <time>2022-10-16T12:24:25Z</time>
      </trkpt>
      <trkpt lat="44.42097" lon="5.14503">
        <ele>1095.9</ele>
        <time>2022-10-16T12:24:23Z</time>
      </trkpt>
      <trkpt lat="44.42098" lon="5.14503">
        <ele>1096.2</ele>
        <time>2022-10-16T12:24:22Z</time>
      </trkpt>
      <trkpt lat="44.42099" lon="5.14503">
        <ele>1096.5</ele>
        <time>2022-10-16T12:24:20Z</time>
      </trkpt>
      <trkpt lat="44.421" lon="5.14503">
        <ele>1096.8</ele>
        <time>2022-10-16T12:24:18Z</time>
      </trkpt>
      <trkpt lat="44.42101" lon="5.14503">
        <ele>1097.1</ele>
        <time>2022-10-16T12:24:16Z</time>
      </trkpt>
      <trkpt lat="44.42102" lon="5.14503">
        <ele>1097.4</ele>
        <time>2022-10-16T12:24:15Z</time>
      </trkpt>
      <trkpt lat="44.42103" lon="5.14503">
        <ele>1097.7</ele>
        <time>2022-10-16T12:24:14Z</time>
      </trkpt>
      <trkpt lat="44.42104" lon="5.14503">
        <ele>1098</ele>
        <time>2022-10-16T12:24:13Z</time>
      </trkpt>
      <trkpt lat="44.42104" lon="5.14502">
        <ele>1098.3</ele>
        <time>2022-10-16T12:24:12Z</time>
      </trkpt>
      <trkpt lat="44.42105" lon="5.14502">
        <ele>1098.6</ele>
        <time>2022-10-16T12:24:10Z</time>
      </trkpt>
      <trkpt lat="44.42106" lon="5.14502">
        <ele>1098.9</ele>
        <time>2022-10-16T12:24:08Z</time>
      </trkpt>
      <trkpt lat="44.42107" lon="5.14502">
        <ele>1099.2</ele>
        <time>2022-10-16T12:24:07Z</time>
      </trkpt>
      <trkpt lat="44.42107" lon="5.14501">
        <ele>1099.5</ele>
        <time>2022-10-16T12:24:06Z</time>
      </trkpt>
      <trkpt lat="44.42108" lon="5.14501">
        <ele>1099.8</ele>
        <time>2022-10-16T12:24:04Z</time>
      </trkpt>
      <trkpt lat="44.42109" lon="5.14501">
        <ele>1100.1</ele>
        <time>2022-10-16T12:24:03Z</time>
      </trkpt>
      <trkpt lat="44.4211" lon="5.14501">
        <ele>1100.4</ele>
        <time>2022-10-16T12:24:00Z</time>
      </trkpt>
      <trkpt lat="44.42111" lon="5.14501">
        <ele>1100.6</ele>
        <time>2022-10-16T12:23:58Z</time>
      </trkpt>
      <trkpt lat="44.42112" lon="5.14502">
        <ele>1100.6</ele>
        <time>2022-10-16T12:23:57Z</time>
      </trkpt>
      <trkpt lat="44.42113" lon="5.14502">
        <ele>1101</ele>
        <time>2022-10-16T12:23:55Z</time>
      </trkpt>
      <trkpt lat="44.42114" lon="5.14502">
        <ele>1101.3</ele>
        <time>2022-10-16T12:23:54Z</time>
      </trkpt>
      <trkpt lat="44.42114" lon="5.14503">
        <ele>1101</ele>
        <time>2022-10-16T12:23:52Z</time>
      </trkpt>
      <trkpt lat="44.42115" lon="5.14503">
        <ele>1101.3</ele>
        <time>2022-10-16T12:23:51Z</time>
      </trkpt>
      <trkpt lat="44.42116" lon="5.14503">
        <ele>1101.6</ele>
        <time>2022-10-16T12:23:50Z</time>
      </trkpt>
      <trkpt lat="44.42116" lon="5.14504">
        <ele>1101.3</ele>
        <time>2022-10-16T12:23:49Z</time>
      </trkpt>
      <trkpt lat="44.42117" lon="5.14504">
        <ele>1101.6</ele>
        <time>2022-10-16T12:23:47Z</time>
      </trkpt>
      <trkpt lat="44.42118" lon="5.14503">
        <ele>1102.3</ele>
        <time>2022-10-16T12:23:39Z</time>
      </trkpt>
      <trkpt lat="44.42119" lon="5.14503">
        <ele>1102.6</ele>
        <time>2022-10-16T12:23:38Z</time>
      </trkpt>
      <trkpt lat="44.4212" lon="5.14503">
        <ele>1102.9</ele>
        <time>2022-10-16T12:23:37Z</time>
      </trkpt>
      <trkpt lat="44.42121" lon="5.14503">
        <ele>1103.2</ele>
        <time>2022-10-16T12:23:36Z</time>
      </trkpt>
      <trkpt lat="44.42122" lon="5.14503">
        <ele>1103.6</ele>
        <time>2022-10-16T12:23:35Z</time>
      </trkpt>
      <trkpt lat="44.42123" lon="5.14503">
        <ele>1103.9</ele>
        <time>2022-10-16T12:23:33Z</time>
      </trkpt>
      <trkpt lat="44.42124" lon="5.14502">
        <ele>1104.5</ele>
        <time>2022-10-16T12:23:32Z</time>
      </trkpt>
      <trkpt lat="44.42125" lon="5.14502">
        <ele>1104.9</ele>
        <time>2022-10-16T12:23:31Z</time>
      </trkpt>
      <trkpt lat="44.42126" lon="5.14502">
        <ele>1105.2</ele>
        <time>2022-10-16T12:23:30Z</time>
      </trkpt>
      <trkpt lat="44.42127" lon="5.14502">
        <ele>1105.5</ele>
        <time>2022-10-16T12:23:29Z</time>
      </trkpt>
      <trkpt lat="44.42128" lon="5.14502">
        <ele>1105.8</ele>
        <time>2022-10-16T12:23:28Z</time>
      </trkpt>
      <trkpt lat="44.42129" lon="5.14502">
        <ele>1106.1</ele>
        <time>2022-10-16T12:23:27Z</time>
      </trkpt>
      <trkpt lat="44.4213" lon="5.14502">
        <ele>1106.5</ele>
        <time>2022-10-16T12:23:26Z</time>
      </trkpt>
      <trkpt lat="44.42131" lon="5.14503">
        <ele>1106.5</ele>
        <time>2022-10-16T12:23:24Z</time>
      </trkpt>
      <trkpt lat="44.42132" lon="5.14503">
        <ele>1106.8</ele>
        <time>2022-10-16T12:23:23Z</time>
      </trkpt>
      <trkpt lat="44.42133" lon="5.14503">
        <ele>1107.1</ele>
        <time>2022-10-16T12:23:22Z</time>
      </trkpt>
      <trkpt lat="44.42134" lon="5.14503">
        <ele>1107.4</ele>
        <time>2022-10-16T12:23:21Z</time>
      </trkpt>
      <trkpt lat="44.42135" lon="5.14503">
        <ele>1107.8</ele>
        <time>2022-10-16T12:23:20Z</time>
      </trkpt>
      <trkpt lat="44.42136" lon="5.14503">
        <ele>1108.1</ele>
        <time>2022-10-16T12:23:18Z</time>
      </trkpt>
      <trkpt lat="44.42137" lon="5.14503">
        <ele>1108.4</ele>
        <time>2022-10-16T12:23:17Z</time>
      </trkpt>
      <trkpt lat="44.42138" lon="5.14503">
        <ele>1108.7</ele>
        <time>2022-10-16T12:23:15Z</time>
      </trkpt>
      <trkpt lat="44.42139" lon="5.14502">
        <ele>1109.4</ele>
        <time>2022-10-16T12:23:14Z</time>
      </trkpt>
      <trkpt lat="44.4214" lon="5.14502">
        <ele>1109.5</ele>
        <time>2022-10-16T12:23:12Z</time>
      </trkpt>
      <trkpt lat="44.42141" lon="5.14502">
        <ele>1109.7</ele>
        <time>2022-10-16T12:23:11Z</time>
      </trkpt>
      <trkpt lat="44.42142" lon="5.14502">
        <ele>1109.9</ele>
        <time>2022-10-16T12:23:09Z</time>
      </trkpt>
      <trkpt lat="44.42143" lon="5.14501">
        <ele>1110.4</ele>
        <time>2022-10-16T12:23:08Z</time>
      </trkpt>
      <trkpt lat="44.42144" lon="5.14501">
        <ele>1110.6</ele>
        <time>2022-10-16T12:23:07Z</time>
      </trkpt>
      <trkpt lat="44.42145" lon="5.14501">
        <ele>1110.8</ele>
        <time>2022-10-16T12:23:05Z</time>
      </trkpt>
      <trkpt lat="44.42146" lon="5.14501">
        <ele>1110.9</ele>
        <time>2022-10-16T12:23:04Z</time>
      </trkpt>
      <trkpt lat="44.42147" lon="5.14501">
        <ele>1111.1</ele>
        <time>2022-10-16T12:23:03Z</time>
      </trkpt>
      <trkpt lat="44.42148" lon="5.14501">
        <ele>1111.3</ele>
        <time>2022-10-16T12:23:01Z</time>
      </trkpt>
      <trkpt lat="44.42149" lon="5.145">
        <ele>1111.8</ele>
        <time>2022-10-16T12:23:00Z</time>
      </trkpt>
      <trkpt lat="44.4215" lon="5.145">
        <ele>1112</ele>
        <time>2022-10-16T12:22:59Z</time>
      </trkpt>
      <trkpt lat="44.42151" lon="5.145">
        <ele>1112.2</ele>
        <time>2022-10-16T12:22:58Z</time>
      </trkpt>
      <trkpt lat="44.42152" lon="5.145">
        <ele>1112.4</ele>
        <time>2022-10-16T12:22:57Z</time>
      </trkpt>
      <trkpt lat="44.42153" lon="5.145">
        <ele>1112.5</ele>
        <time>2022-10-16T12:22:56Z</time>
      </trkpt>
      <trkpt lat="44.42154" lon="5.145">
        <ele>1112.7</ele>
        <time>2022-10-16T12:22:54Z</time>
      </trkpt>
      <trkpt lat="44.42155" lon="5.145">
        <ele>1112.9</ele>
        <time>2022-10-16T12:22:53Z</time>
      </trkpt>
      <trkpt lat="44.42156" lon="5.145">
        <ele>1113.1</ele>
        <time>2022-10-16T12:22:52Z</time>
      </trkpt>
      <trkpt lat="44.42157" lon="5.145">
        <ele>1113.3</ele>
        <time>2022-10-16T12:22:51Z</time>
      </trkpt>
      <trkpt lat="44.42158" lon="5.145">
        <ele>1113.4</ele>
        <time>2022-10-16T12:22:50Z</time>
      </trkpt>
      <trkpt lat="44.42159" lon="5.145">
        <ele>1113.6</ele>
        <time>2022-10-16T12:22:49Z</time>
      </trkpt>
      <trkpt lat="44.4216" lon="5.14501">
        <ele>1113.4</ele>
        <time>2022-10-16T12:22:48Z</time>
      </trkpt>
      <trkpt lat="44.42161" lon="5.14501">
        <ele>1113.6</ele>
        <time>2022-10-16T12:22:47Z</time>
      </trkpt>
      <trkpt lat="44.42162" lon="5.14501">
        <ele>1113.8</ele>
        <time>2022-10-16T12:22:45Z</time>
      </trkpt>
      <trkpt lat="44.42164" lon="5.14501">
        <ele>1114.1</ele>
        <time>2022-10-16T12:22:44Z</time>
      </trkpt>
      <trkpt lat="44.42165" lon="5.14502">
        <ele>1113.9</ele>
        <time>2022-10-16T12:22:43Z</time>
      </trkpt>
      <trkpt lat="44.42166" lon="5.14502">
        <ele>1114.1</ele>
        <time>2022-10-16T12:22:42Z</time>
      </trkpt>
      <trkpt lat="44.42167" lon="5.14502">
        <ele>1114.3</ele>
        <time>2022-10-16T12:22:41Z</time>
      </trkpt>
      <trkpt lat="44.42168" lon="5.14503">
        <ele>1114</ele>
        <time>2022-10-16T12:22:40Z</time>
      </trkpt>
      <trkpt lat="44.42169" lon="5.14503">
        <ele>1114.1</ele>
        <time>2022-10-16T12:22:39Z</time>
      </trkpt>
      <trkpt lat="44.4217" lon="5.14503">
        <ele>1114.3</ele>
        <time>2022-10-16T12:22:37Z</time>
      </trkpt>
      <trkpt lat="44.42171" lon="5.14503">
        <ele>1114.4</ele>
        <time>2022-10-16T12:22:36Z</time>
      </trkpt>
      <trkpt lat="44.42172" lon="5.14503">
        <ele>1114.5</ele>
        <time>2022-10-16T12:22:35Z</time>
      </trkpt>
      <trkpt lat="44.42173" lon="5.14503">
        <ele>1114.7</ele>
        <time>2022-10-16T12:22:34Z</time>
      </trkpt>
      <trkpt lat="44.42174" lon="5.14502">
        <ele>1115.2</ele>
        <time>2022-10-16T12:22:32Z</time>
      </trkpt>
      <trkpt lat="44.42175" lon="5.14502">
        <ele>1115.3</ele>
        <time>2022-10-16T12:22:30Z</time>
      </trkpt>
      <trkpt lat="44.42176" lon="5.14501">
        <ele>1115.9</ele>
        <time>2022-10-16T12:22:29Z</time>
      </trkpt>
      <trkpt lat="44.42177" lon="5.145">
        <ele>1116.5</ele>
        <time>2022-10-16T12:22:28Z</time>
      </trkpt>
      <trkpt lat="44.42178" lon="5.14499">
        <ele>1116.6</ele>
        <time>2022-10-16T12:22:27Z</time>
      </trkpt>
      <trkpt lat="44.42178" lon="5.14498">
        <ele>1116.6</ele>
        <time>2022-10-16T12:22:26Z</time>
      </trkpt>
      <trkpt lat="44.42179" lon="5.14498">
        <ele>1116.8</ele>
        <time>2022-10-16T12:22:25Z</time>
      </trkpt>
      <trkpt lat="44.4218" lon="5.14497">
        <ele>1117</ele>
        <time>2022-10-16T12:22:24Z</time>
      </trkpt>
      <trkpt lat="44.42181" lon="5.14497">
        <ele>1117.1</ele>
        <time>2022-10-16T12:22:23Z</time>
      </trkpt>
      <trkpt lat="44.42182" lon="5.14496">
        <ele>1117.3</ele>
        <time>2022-10-16T12:22:22Z</time>
      </trkpt>
      <trkpt lat="44.42183" lon="5.14496">
        <ele>1117.5</ele>
        <time>2022-10-16T12:22:21Z</time>
      </trkpt>
      <trkpt lat="44.42184" lon="5.14495">
        <ele>1117.7</ele>
        <time>2022-10-16T12:22:20Z</time>
      </trkpt>
      <trkpt lat="44.42185" lon="5.14495">
        <ele>1117.9</ele>
        <time>2022-10-16T12:22:19Z</time>
      </trkpt>
      <trkpt lat="44.42186" lon="5.14495">
        <ele>1118.1</ele>
        <time>2022-10-16T12:22:18Z</time>
      </trkpt>
      <trkpt lat="44.42187" lon="5.14494">
        <ele>1118.3</ele>
        <time>2022-10-16T12:22:17Z</time>
      </trkpt>
      <trkpt lat="44.42188" lon="5.14494">
        <ele>1118.5</ele>
        <time>2022-10-16T12:22:15Z</time>
      </trkpt>
      <trkpt lat="44.42189" lon="5.14493">
        <ele>1118.7</ele>
        <time>2022-10-16T12:22:14Z</time>
      </trkpt>
      <trkpt lat="44.4219" lon="5.14493">
        <ele>1118.9</ele>
        <time>2022-10-16T12:22:13Z</time>
      </trkpt>
      <trkpt lat="44.42191" lon="5.14493">
        <ele>1119.1</ele>
        <time>2022-10-16T12:22:12Z</time>
      </trkpt>
      <trkpt lat="44.42192" lon="5.14493">
        <ele>1119.3</ele>
        <time>2022-10-16T12:22:11Z</time>
      </trkpt>
      <trkpt lat="44.42193" lon="5.14493">
        <ele>1119.5</ele>
        <time>2022-10-16T12:22:10Z</time>
      </trkpt>
      <trkpt lat="44.42194" lon="5.14492">
        <ele>1119.8</ele>
        <time>2022-10-16T12:22:08Z</time>
      </trkpt>
      <trkpt lat="44.42195" lon="5.14492">
        <ele>1120</ele>
        <time>2022-10-16T12:22:07Z</time>
      </trkpt>
      <trkpt lat="44.42196" lon="5.14492">
        <ele>1120.4</ele>
        <time>2022-10-16T12:22:06Z</time>
      </trkpt>
      <trkpt lat="44.42197" lon="5.14492">
        <ele>1120.7</ele>
        <time>2022-10-16T12:22:04Z</time>
      </trkpt>
      <trkpt lat="44.42199" lon="5.14492">
        <ele>1121.3</ele>
        <time>2022-10-16T12:21:55Z</time>
      </trkpt>
      <trkpt lat="44.422" lon="5.14491">
        <ele>1121.8</ele>
        <time>2022-10-16T12:21:54Z</time>
      </trkpt>
      <trkpt lat="44.42201" lon="5.14491">
        <ele>1122.1</ele>
        <time>2022-10-16T12:21:52Z</time>
      </trkpt>
      <trkpt lat="44.42202" lon="5.14491">
        <ele>1122.4</ele>
        <time>2022-10-16T12:21:51Z</time>
      </trkpt>
      <trkpt lat="44.42203" lon="5.1449">
        <ele>1122.9</ele>
        <time>2022-10-16T12:21:50Z</time>
      </trkpt>
      <trkpt lat="44.42204" lon="5.1449">
        <ele>1123.2</ele>
        <time>2022-10-16T12:21:49Z</time>
      </trkpt>
      <trkpt lat="44.42205" lon="5.1449">
        <ele>1123.5</ele>
        <time>2022-10-16T12:21:48Z</time>
      </trkpt>
      <trkpt lat="44.42206" lon="5.14489">
        <ele>1123.9</ele>
        <time>2022-10-16T12:21:46Z</time>
      </trkpt>
      <trkpt lat="44.42207" lon="5.14489">
        <ele>1124.3</ele>
        <time>2022-10-16T12:21:45Z</time>
      </trkpt>
      <trkpt lat="44.42208" lon="5.14488">
        <ele>1124.7</ele>
        <time>2022-10-16T12:21:43Z</time>
      </trkpt>
      <trkpt lat="44.42209" lon="5.14488">
        <ele>1125</ele>
        <time>2022-10-16T12:21:42Z</time>
      </trkpt>
      <trkpt lat="44.4221" lon="5.14487">
        <ele>1125.4</ele>
        <time>2022-10-16T12:21:41Z</time>
      </trkpt>
      <trkpt lat="44.42211" lon="5.14487">
        <ele>1125.8</ele>
        <time>2022-10-16T12:21:40Z</time>
      </trkpt>
      <trkpt lat="44.42212" lon="5.14486">
        <ele>1126.2</ele>
        <time>2022-10-16T12:21:39Z</time>
      </trkpt>
      <trkpt lat="44.42213" lon="5.14485">
        <ele>1126.6</ele>
        <time>2022-10-16T12:21:38Z</time>
      </trkpt>
      <trkpt lat="44.42214" lon="5.14485">
        <ele>1127</ele>
        <time>2022-10-16T12:21:37Z</time>
      </trkpt>
      <trkpt lat="44.42215" lon="5.14484">
        <ele>1127.4</ele>
        <time>2022-10-16T12:21:36Z</time>
      </trkpt>
      <trkpt lat="44.42216" lon="5.14483">
        <ele>1127.8</ele>
        <time>2022-10-16T12:21:35Z</time>
      </trkpt>
      <trkpt lat="44.42217" lon="5.14483">
        <ele>1128.1</ele>
        <time>2022-10-16T12:21:34Z</time>
      </trkpt>
      <trkpt lat="44.42217" lon="5.14482">
        <ele>1128.3</ele>
        <time>2022-10-16T12:21:33Z</time>
      </trkpt>
      <trkpt lat="44.42218" lon="5.14482">
        <ele>1128.6</ele>
        <time>2022-10-16T12:21:32Z</time>
      </trkpt>
      <trkpt lat="44.42219" lon="5.14482">
        <ele>1128.9</ele>
        <time>2022-10-16T12:21:31Z</time>
      </trkpt>
      <trkpt lat="44.4222" lon="5.14481">
        <ele>1129.3</ele>
        <time>2022-10-16T12:21:30Z</time>
      </trkpt>
      <trkpt lat="44.42221" lon="5.14481">
        <ele>1129.7</ele>
        <time>2022-10-16T12:21:28Z</time>
      </trkpt>
      <trkpt lat="44.42222" lon="5.14481">
        <ele>1130</ele>
        <time>2022-10-16T12:21:27Z</time>
      </trkpt>
      <trkpt lat="44.42223" lon="5.14481">
        <ele>1130.2</ele>
        <time>2022-10-16T12:21:26Z</time>
      </trkpt>
      <trkpt lat="44.42224" lon="5.14481">
        <ele>1130.5</ele>
        <time>2022-10-16T12:21:24Z</time>
      </trkpt>
      <trkpt lat="44.42225" lon="5.14481">
        <ele>1130.7</ele>
        <time>2022-10-16T12:21:23Z</time>
      </trkpt>
      <trkpt lat="44.42226" lon="5.14481">
        <ele>1131</ele>
        <time>2022-10-16T12:21:22Z</time>
      </trkpt>
      <trkpt lat="44.42226" lon="5.14482">
        <ele>1130.8</ele>
        <time>2022-10-16T12:21:21Z</time>
      </trkpt>
      <trkpt lat="44.42227" lon="5.14482">
        <ele>1131.1</ele>
        <time>2022-10-16T12:21:20Z</time>
      </trkpt>
      <trkpt lat="44.42227" lon="5.14483">
        <ele>1131</ele>
        <time>2022-10-16T12:21:19Z</time>
      </trkpt>
      <trkpt lat="44.42228" lon="5.14483">
        <ele>1131.2</ele>
        <time>2022-10-16T12:21:18Z</time>
      </trkpt>
      <trkpt lat="44.42228" lon="5.14484">
        <ele>1131.1</ele>
        <time>2022-10-16T12:21:17Z</time>
      </trkpt>
      <trkpt lat="44.42229" lon="5.14484">
        <ele>1131.3</ele>
        <time>2022-10-16T12:21:16Z</time>
      </trkpt>
      <trkpt lat="44.42229" lon="5.14485">
        <ele>1131.2</ele>
        <time>2022-10-16T12:21:15Z</time>
      </trkpt>
      <trkpt lat="44.4223" lon="5.14485">
        <ele>1131.5</ele>
        <time>2022-10-16T12:21:14Z</time>
      </trkpt>
      <trkpt lat="44.4223" lon="5.14486">
        <ele>1131.3</ele>
        <time>2022-10-16T12:21:12Z</time>
      </trkpt>
      <trkpt lat="44.4223" lon="5.14487">
        <ele>1131.2</ele>
        <time>2022-10-16T12:21:11Z</time>
      </trkpt>
      <trkpt lat="44.42231" lon="5.14488">
        <ele>1131.3</ele>
        <time>2022-10-16T12:21:09Z</time>
      </trkpt>
      <trkpt lat="44.42232" lon="5.14489">
        <ele>1131.4</ele>
        <time>2022-10-16T12:21:07Z</time>
      </trkpt>
      <trkpt lat="44.42233" lon="5.1449">
        <ele>1131.5</ele>
        <time>2022-10-16T12:21:06Z</time>
      </trkpt>
      <trkpt lat="44.42234" lon="5.1449">
        <ele>1131.8</ele>
        <time>2022-10-16T12:21:04Z</time>
      </trkpt>
      <trkpt lat="44.42235" lon="5.1449">
        <ele>1132</ele>
        <time>2022-10-16T12:21:03Z</time>
      </trkpt>
      <trkpt lat="44.42236" lon="5.1449">
        <ele>1132.2</ele>
        <time>2022-10-16T12:21:02Z</time>
      </trkpt>
      <trkpt lat="44.42237" lon="5.1449">
        <ele>1132.5</ele>
        <time>2022-10-16T12:21:00Z</time>
      </trkpt>
      <trkpt lat="44.42238" lon="5.1449">
        <ele>1132.7</ele>
        <time>2022-10-16T12:20:59Z</time>
      </trkpt>
      <trkpt lat="44.42239" lon="5.1449">
        <ele>1132.9</ele>
        <time>2022-10-16T12:20:58Z</time>
      </trkpt>
      <trkpt lat="44.4224" lon="5.1449">
        <ele>1133.2</ele>
        <time>2022-10-16T12:20:57Z</time>
      </trkpt>
      <trkpt lat="44.4224" lon="5.14489">
        <ele>1133.3</ele>
        <time>2022-10-16T12:20:56Z</time>
      </trkpt>
      <trkpt lat="44.42241" lon="5.14489">
        <ele>1133.5</ele>
        <time>2022-10-16T12:20:55Z</time>
      </trkpt>
      <trkpt lat="44.42242" lon="5.14488">
        <ele>1133.9</ele>
        <time>2022-10-16T12:20:53Z</time>
      </trkpt>
      <trkpt lat="44.42243" lon="5.14487">
        <ele>1134.2</ele>
        <time>2022-10-16T12:20:52Z</time>
      </trkpt>
      <trkpt lat="44.42244" lon="5.14486">
        <ele>1134.6</ele>
        <time>2022-10-16T12:20:51Z</time>
      </trkpt>
      <trkpt lat="44.42245" lon="5.14486">
        <ele>1134.8</ele>
        <time>2022-10-16T12:20:50Z</time>
      </trkpt>
      <trkpt lat="44.42246" lon="5.14485">
        <ele>1135.2</ele>
        <time>2022-10-16T12:20:49Z</time>
      </trkpt>
      <trkpt lat="44.42247" lon="5.14484">
        <ele>1135.6</ele>
        <time>2022-10-16T12:20:47Z</time>
      </trkpt>
      <trkpt lat="44.42248" lon="5.14483">
        <ele>1136</ele>
        <time>2022-10-16T12:20:46Z</time>
      </trkpt>
      <trkpt lat="44.42249" lon="5.14482">
        <ele>1136.4</ele>
        <time>2022-10-16T12:20:45Z</time>
      </trkpt>
      <trkpt lat="44.4225" lon="5.14482">
        <ele>1136.6</ele>
        <time>2022-10-16T12:20:44Z</time>
      </trkpt>
      <trkpt lat="44.42251" lon="5.14482">
        <ele>1136.8</ele>
        <time>2022-10-16T12:20:43Z</time>
      </trkpt>
      <trkpt lat="44.42252" lon="5.14481">
        <ele>1137.1</ele>
        <time>2022-10-16T12:20:41Z</time>
      </trkpt>
      <trkpt lat="44.42253" lon="5.14481">
        <ele>1137.4</ele>
        <time>2022-10-16T12:20:40Z</time>
      </trkpt>
      <trkpt lat="44.42254" lon="5.14481">
        <ele>1137.6</ele>
        <time>2022-10-16T12:20:39Z</time>
      </trkpt>
      <trkpt lat="44.42255" lon="5.14481">
        <ele>1137.8</ele>
        <time>2022-10-16T12:20:37Z</time>
      </trkpt>
      <trkpt lat="44.42256" lon="5.14481">
        <ele>1138</ele>
        <time>2022-10-16T12:20:35Z</time>
      </trkpt>
      <trkpt lat="44.42257" lon="5.14481">
        <ele>1138.2</ele>
        <time>2022-10-16T12:20:34Z</time>
      </trkpt>
      <trkpt lat="44.42258" lon="5.1448">
        <ele>1138.6</ele>
        <time>2022-10-16T12:20:33Z</time>
      </trkpt>
      <trkpt lat="44.42259" lon="5.1448">
        <ele>1138.8</ele>
        <time>2022-10-16T12:20:32Z</time>
      </trkpt>
      <trkpt lat="44.4226" lon="5.1448">
        <ele>1139</ele>
        <time>2022-10-16T12:20:31Z</time>
      </trkpt>
      <trkpt lat="44.42261" lon="5.1448">
        <ele>1139.2</ele>
        <time>2022-10-16T12:20:30Z</time>
      </trkpt>
      <trkpt lat="44.42261" lon="5.14479">
        <ele>1139.4</ele>
        <time>2022-10-16T12:20:29Z</time>
      </trkpt>
      <trkpt lat="44.42262" lon="5.14479">
        <ele>1139.6</ele>
        <time>2022-10-16T12:20:28Z</time>
      </trkpt>
      <trkpt lat="44.42263" lon="5.14479">
        <ele>1139.8</ele>
        <time>2022-10-16T12:20:27Z</time>
      </trkpt>
      <trkpt lat="44.42264" lon="5.14478">
        <ele>1140.3</ele>
        <time>2022-10-16T12:20:26Z</time>
      </trkpt>
      <trkpt lat="44.42265" lon="5.14478">
        <ele>1140.5</ele>
        <time>2022-10-16T12:20:25Z</time>
      </trkpt>
      <trkpt lat="44.42266" lon="5.14478">
        <ele>1140.7</ele>
        <time>2022-10-16T12:20:24Z</time>
      </trkpt>
      <trkpt lat="44.42267" lon="5.14478">
        <ele>1140.9</ele>
        <time>2022-10-16T12:20:22Z</time>
      </trkpt>
      <trkpt lat="44.42268" lon="5.14478">
        <ele>1141.2</ele>
        <time>2022-10-16T12:20:21Z</time>
      </trkpt>
      <trkpt lat="44.42269" lon="5.14478">
        <ele>1141.4</ele>
        <time>2022-10-16T12:20:20Z</time>
      </trkpt>
      <trkpt lat="44.4227" lon="5.14478">
        <ele>1141.6</ele>
        <time>2022-10-16T12:20:19Z</time>
      </trkpt>
      <trkpt lat="44.42271" lon="5.14477">
        <ele>1142.1</ele>
        <time>2022-10-16T12:20:18Z</time>
      </trkpt>
      <trkpt lat="44.42272" lon="5.14477">
        <ele>1142.3</ele>
        <time>2022-10-16T12:20:17Z</time>
      </trkpt>
      <trkpt lat="44.42273" lon="5.14477">
        <ele>1142.5</ele>
        <time>2022-10-16T12:20:16Z</time>
      </trkpt>
      <trkpt lat="44.42274" lon="5.14476">
        <ele>1143</ele>
        <time>2022-10-16T12:20:15Z</time>
      </trkpt>
      <trkpt lat="44.42275" lon="5.14476">
        <ele>1143.3</ele>
        <time>2022-10-16T12:20:14Z</time>
      </trkpt>
      <trkpt lat="44.42276" lon="5.14476">
        <ele>1143.5</ele>
        <time>2022-10-16T12:20:12Z</time>
      </trkpt>
      <trkpt lat="44.42277" lon="5.14476">
        <ele>1143.7</ele>
        <time>2022-10-16T12:20:11Z</time>
      </trkpt>
      <trkpt lat="44.42277" lon="5.14475">
        <ele>1144</ele>
        <time>2022-10-16T12:20:10Z</time>
      </trkpt>
      <trkpt lat="44.42278" lon="5.14475">
        <ele>1144.2</ele>
        <time>2022-10-16T12:20:09Z</time>
      </trkpt>
      <trkpt lat="44.42279" lon="5.14476">
        <ele>1144.2</ele>
        <time>2022-10-16T12:20:07Z</time>
      </trkpt>
      <trkpt lat="44.4228" lon="5.14476">
        <ele>1144.4</ele>
        <time>2022-10-16T12:20:06Z</time>
      </trkpt>
      <trkpt lat="44.42281" lon="5.14476">
        <ele>1144.6</ele>
        <time>2022-10-16T12:20:05Z</time>
      </trkpt>
      <trkpt lat="44.42282" lon="5.14477">
        <ele>1144.5</ele>
        <time>2022-10-16T12:20:03Z</time>
      </trkpt>
      <trkpt lat="44.42283" lon="5.14477">
        <ele>1144.7</ele>
        <time>2022-10-16T12:20:02Z</time>
      </trkpt>
      <trkpt lat="44.42284" lon="5.14477">
        <ele>1144.9</ele>
        <time>2022-10-16T12:20:01Z</time>
      </trkpt>
      <trkpt lat="44.42285" lon="5.14477">
        <ele>1145.1</ele>
        <time>2022-10-16T12:20:00Z</time>
      </trkpt>
      <trkpt lat="44.42286" lon="5.14477">
        <ele>1145.3</ele>
        <time>2022-10-16T12:19:59Z</time>
      </trkpt>
      <trkpt lat="44.42287" lon="5.14477">
        <ele>1145.6</ele>
        <time>2022-10-16T12:19:58Z</time>
      </trkpt>
      <trkpt lat="44.42287" lon="5.14476">
        <ele>1145.9</ele>
        <time>2022-10-16T12:19:57Z</time>
      </trkpt>
      <trkpt lat="44.42288" lon="5.14476">
        <ele>1146.1</ele>
        <time>2022-10-16T12:19:55Z</time>
      </trkpt>
      <trkpt lat="44.42289" lon="5.14476">
        <ele>1146.3</ele>
        <time>2022-10-16T12:19:54Z</time>
      </trkpt>
      <trkpt lat="44.4229" lon="5.14476">
        <ele>1146.5</ele>
        <time>2022-10-16T12:19:53Z</time>
      </trkpt>
      <trkpt lat="44.42291" lon="5.14476">
        <ele>1146.7</ele>
        <time>2022-10-16T12:19:52Z</time>
      </trkpt>
      <trkpt lat="44.42292" lon="5.14476">
        <ele>1146.9</ele>
        <time>2022-10-16T12:19:50Z</time>
      </trkpt>
      <trkpt lat="44.42293" lon="5.14476">
        <ele>1147.1</ele>
        <time>2022-10-16T12:19:49Z</time>
      </trkpt>
      <trkpt lat="44.42294" lon="5.14476">
        <ele>1147.3</ele>
        <time>2022-10-16T12:19:48Z</time>
      </trkpt>
      <trkpt lat="44.42295" lon="5.14476">
        <ele>1147.5</ele>
        <time>2022-10-16T12:19:47Z</time>
      </trkpt>
      <trkpt lat="44.42296" lon="5.14476">
        <ele>1147.8</ele>
        <time>2022-10-16T12:19:46Z</time>
      </trkpt>
      <trkpt lat="44.42297" lon="5.14476">
        <ele>1148</ele>
        <time>2022-10-16T12:19:45Z</time>
      </trkpt>
      <trkpt lat="44.42298" lon="5.14475">
        <ele>1148.5</ele>
        <time>2022-10-16T12:19:44Z</time>
      </trkpt>
      <trkpt lat="44.423" lon="5.14475">
        <ele>1148.9</ele>
        <time>2022-10-16T12:19:43Z</time>
      </trkpt>
      <trkpt lat="44.42301" lon="5.14474">
        <ele>1149.5</ele>
        <time>2022-10-16T12:19:42Z</time>
      </trkpt>
      <trkpt lat="44.42303" lon="5.14474">
        <ele>1149.9</ele>
        <time>2022-10-16T12:19:41Z</time>
      </trkpt>
      <trkpt lat="44.42304" lon="5.14473">
        <ele>1150.4</ele>
        <time>2022-10-16T12:19:40Z</time>
      </trkpt>
      <trkpt lat="44.42305" lon="5.14473">
        <ele>1150.6</ele>
        <time>2022-10-16T12:19:39Z</time>
      </trkpt>
      <trkpt lat="44.42307" lon="5.14472">
        <ele>1151.4</ele>
        <time>2022-10-16T12:19:38Z</time>
      </trkpt>
      <trkpt lat="44.42309" lon="5.14471">
        <ele>1152</ele>
        <time>2022-10-16T12:19:37Z</time>
      </trkpt>
      <trkpt lat="44.42311" lon="5.1447">
        <ele>1152.6</ele>
        <time>2022-10-16T12:19:28Z</time>
      </trkpt>
      <trkpt lat="44.42312" lon="5.14469">
        <ele>1152.9</ele>
        <time>2022-10-16T12:19:27Z</time>
      </trkpt>
      <trkpt lat="44.42313" lon="5.14468">
        <ele>1153.3</ele>
        <time>2022-10-16T12:19:26Z</time>
      </trkpt>
      <trkpt lat="44.42314" lon="5.14468">
        <ele>1153.5</ele>
        <time>2022-10-16T12:19:24Z</time>
      </trkpt>
      <trkpt lat="44.42315" lon="5.14468">
        <ele>1153.8</ele>
        <time>2022-10-16T12:19:23Z</time>
      </trkpt>
      <trkpt lat="44.42316" lon="5.14468">
        <ele>1154.1</ele>
        <time>2022-10-16T12:19:22Z</time>
      </trkpt>
      <trkpt lat="44.42317" lon="5.14468">
        <ele>1154.4</ele>
        <time>2022-10-16T12:19:14Z</time>
      </trkpt>
      <trkpt lat="44.42318" lon="5.14468">
        <ele>1154.7</ele>
        <time>2022-10-16T12:19:13Z</time>
      </trkpt>
      <trkpt lat="44.42319" lon="5.14468">
        <ele>1155</ele>
        <time>2022-10-16T12:19:11Z</time>
      </trkpt>
      <trkpt lat="44.4232" lon="5.14468">
        <ele>1155.2</ele>
        <time>2022-10-16T12:19:10Z</time>
      </trkpt>
      <trkpt lat="44.42322" lon="5.14468">
        <ele>1155.8</ele>
        <time>2022-10-16T12:19:09Z</time>
      </trkpt>
      <trkpt lat="44.42323" lon="5.14468">
        <ele>1156.1</ele>
        <time>2022-10-16T12:19:08Z</time>
      </trkpt>
      <trkpt lat="44.42324" lon="5.14468">
        <ele>1156.4</ele>
        <time>2022-10-16T12:19:07Z</time>
      </trkpt>
      <trkpt lat="44.42325" lon="5.14468">
        <ele>1156.6</ele>
        <time>2022-10-16T12:19:06Z</time>
      </trkpt>
      <trkpt lat="44.42326" lon="5.14468">
        <ele>1156.9</ele>
        <time>2022-10-16T12:19:04Z</time>
      </trkpt>
      <trkpt lat="44.42327" lon="5.14468">
        <ele>1157.2</ele>
        <time>2022-10-16T12:19:03Z</time>
      </trkpt>
      <trkpt lat="44.42327" lon="5.14467">
        <ele>1157.2</ele>
        <time>2022-10-16T12:19:02Z</time>
      </trkpt>
      <trkpt lat="44.42328" lon="5.14467">
        <ele>1157.5</ele>
        <time>2022-10-16T12:19:00Z</time>
      </trkpt>
      <trkpt lat="44.42329" lon="5.14467">
        <ele>1157.8</ele>
        <time>2022-10-16T12:18:59Z</time>
      </trkpt>
      <trkpt lat="44.4233" lon="5.14467">
        <ele>1158.1</ele>
        <time>2022-10-16T12:18:57Z</time>
      </trkpt>
      <trkpt lat="44.42331" lon="5.14467">
        <ele>1158.3</ele>
        <time>2022-10-16T12:18:55Z</time>
      </trkpt>
      <trkpt lat="44.42332" lon="5.14467">
        <ele>1158.6</ele>
        <time>2022-10-16T12:18:54Z</time>
      </trkpt>
      <trkpt lat="44.42333" lon="5.14466">
        <ele>1158.9</ele>
        <time>2022-10-16T12:18:53Z</time>
      </trkpt>
      <trkpt lat="44.42335" lon="5.14466">
        <ele>1159.3</ele>
        <time>2022-10-16T12:18:52Z</time>
      </trkpt>
      <trkpt lat="44.42336" lon="5.14466">
        <ele>1159.5</ele>
        <time>2022-10-16T12:18:51Z</time>
      </trkpt>
      <trkpt lat="44.42337" lon="5.14466">
        <ele>1159.7</ele>
        <time>2022-10-16T12:18:50Z</time>
      </trkpt>
      <trkpt lat="44.42338" lon="5.14466">
        <ele>1159.9</ele>
        <time>2022-10-16T12:18:49Z</time>
      </trkpt>
      <trkpt lat="44.42339" lon="5.14467">
        <ele>1160.1</ele>
        <time>2022-10-16T12:18:47Z</time>
      </trkpt>
      <trkpt lat="44.4234" lon="5.14468">
        <ele>1160.2</ele>
        <time>2022-10-16T12:18:46Z</time>
      </trkpt>
      <trkpt lat="44.42341" lon="5.14469">
        <ele>1160.4</ele>
        <time>2022-10-16T12:18:45Z</time>
      </trkpt>
      <trkpt lat="44.42343" lon="5.14471">
        <ele>1160.8</ele>
        <time>2022-10-16T12:18:39Z</time>
      </trkpt>
      <trkpt lat="44.42345" lon="5.14472">
        <ele>1161.1</ele>
        <time>2022-10-16T12:18:38Z</time>
      </trkpt>
      <trkpt lat="44.42346" lon="5.14472">
        <ele>1161.3</ele>
        <time>2022-10-16T12:18:37Z</time>
      </trkpt>
      <trkpt lat="44.42347" lon="5.14473">
        <ele>1161.2</ele>
        <time>2022-10-16T12:18:36Z</time>
      </trkpt>
      <trkpt lat="44.42348" lon="5.14473">
        <ele>1161.4</ele>
        <time>2022-10-16T12:18:35Z</time>
      </trkpt>
      <trkpt lat="44.42349" lon="5.14473">
        <ele>1161.6</ele>
        <time>2022-10-16T12:18:34Z</time>
      </trkpt>
      <trkpt lat="44.42351" lon="5.14473">
        <ele>1162</ele>
        <time>2022-10-16T12:18:33Z</time>
      </trkpt>
      <trkpt lat="44.42352" lon="5.14473">
        <ele>1162.2</ele>
        <time>2022-10-16T12:18:32Z</time>
      </trkpt>
      <trkpt lat="44.42353" lon="5.14473">
        <ele>1162.3</ele>
        <time>2022-10-16T12:18:31Z</time>
      </trkpt>
      <trkpt lat="44.42354" lon="5.14473">
        <ele>1162.5</ele>
        <time>2022-10-16T12:18:30Z</time>
      </trkpt>
      <trkpt lat="44.42355" lon="5.14472">
        <ele>1162.9</ele>
        <time>2022-10-16T12:18:29Z</time>
      </trkpt>
      <trkpt lat="44.42356" lon="5.14472">
        <ele>1163.1</ele>
        <time>2022-10-16T12:18:28Z</time>
      </trkpt>
      <trkpt lat="44.42357" lon="5.14472">
        <ele>1163.3</ele>
        <time>2022-10-16T12:18:27Z</time>
      </trkpt>
      <trkpt lat="44.42358" lon="5.14471">
        <ele>1163.5</ele>
        <time>2022-10-16T12:18:26Z</time>
      </trkpt>
      <trkpt lat="44.42359" lon="5.14471">
        <ele>1163.7</ele>
        <time>2022-10-16T12:18:25Z</time>
      </trkpt>
      <trkpt lat="44.4236" lon="5.14471">
        <ele>1163.8</ele>
        <time>2022-10-16T12:18:24Z</time>
      </trkpt>
      <trkpt lat="44.42361" lon="5.1447">
        <ele>1164.1</ele>
        <time>2022-10-16T12:18:23Z</time>
      </trkpt>
      <trkpt lat="44.42362" lon="5.1447">
        <ele>1164.1</ele>
        <time>2022-10-16T12:18:22Z</time>
      </trkpt>
      <trkpt lat="44.42363" lon="5.1447">
        <ele>1164.2</ele>
        <time>2022-10-16T12:18:20Z</time>
      </trkpt>
      <trkpt lat="44.42364" lon="5.1447">
        <ele>1164.3</ele>
        <time>2022-10-16T12:18:19Z</time>
      </trkpt>
      <trkpt lat="44.42365" lon="5.1447">
        <ele>1164.4</ele>
        <time>2022-10-16T12:18:18Z</time>
      </trkpt>
      <trkpt lat="44.42366" lon="5.1447">
        <ele>1164.5</ele>
        <time>2022-10-16T12:18:17Z</time>
      </trkpt>
      <trkpt lat="44.42367" lon="5.14469">
        <ele>1164.6</ele>
        <time>2022-10-16T12:18:16Z</time>
      </trkpt>
      <trkpt lat="44.42368" lon="5.14469">
        <ele>1164.7</ele>
        <time>2022-10-16T12:18:15Z</time>
      </trkpt>
      <trkpt lat="44.4237" lon="5.14469">
        <ele>1164.8</ele>
        <time>2022-10-16T12:18:14Z</time>
      </trkpt>
      <trkpt lat="44.42371" lon="5.14468">
        <ele>1165</ele>
        <time>2022-10-16T12:18:13Z</time>
      </trkpt>
      <trkpt lat="44.42372" lon="5.14467">
        <ele>1165.1</ele>
        <time>2022-10-16T12:18:12Z</time>
      </trkpt>
      <trkpt lat="44.42374" lon="5.14466">
        <ele>1165.4</ele>
        <time>2022-10-16T12:18:11Z</time>
      </trkpt>
      <trkpt lat="44.42375" lon="5.14465">
        <ele>1165.5</ele>
        <time>2022-10-16T12:18:10Z</time>
      </trkpt>
      <trkpt lat="44.42376" lon="5.14464">
        <ele>1165.7</ele>
        <time>2022-10-16T12:18:09Z</time>
      </trkpt>
      <trkpt lat="44.42377" lon="5.14464">
        <ele>1165.8</ele>
        <time>2022-10-16T12:18:08Z</time>
      </trkpt>
      <trkpt lat="44.42378" lon="5.14463">
        <ele>1166</ele>
        <time>2022-10-16T12:18:06Z</time>
      </trkpt>
      <trkpt lat="44.42379" lon="5.14463">
        <ele>1166</ele>
        <time>2022-10-16T12:18:05Z</time>
      </trkpt>
      <trkpt lat="44.42379" lon="5.14462">
        <ele>1166.1</ele>
        <time>2022-10-16T12:18:04Z</time>
      </trkpt>
      <trkpt lat="44.4238" lon="5.14462">
        <ele>1166.2</ele>
        <time>2022-10-16T12:18:03Z</time>
      </trkpt>
      <trkpt lat="44.42381" lon="5.14461">
        <ele>1166.4</ele>
        <time>2022-10-16T12:18:02Z</time>
      </trkpt>
      <trkpt lat="44.42382" lon="5.1446">
        <ele>1166.6</ele>
        <time>2022-10-16T12:18:00Z</time>
      </trkpt>
      <trkpt lat="44.42383" lon="5.14459">
        <ele>1166.8</ele>
        <time>2022-10-16T12:17:59Z</time>
      </trkpt>
      <trkpt lat="44.42384" lon="5.14458">
        <ele>1167</ele>
        <time>2022-10-16T12:17:58Z</time>
      </trkpt>
      <trkpt lat="44.42385" lon="5.14458">
        <ele>1167.1</ele>
        <time>2022-10-16T12:17:57Z</time>
      </trkpt>
      <trkpt lat="44.42386" lon="5.14458">
        <ele>1167.2</ele>
        <time>2022-10-16T12:17:56Z</time>
      </trkpt>
      <trkpt lat="44.42386" lon="5.14457">
        <ele>1167.3</ele>
        <time>2022-10-16T12:17:55Z</time>
      </trkpt>
      <trkpt lat="44.42387" lon="5.14456">
        <ele>1167.5</ele>
        <time>2022-10-16T12:17:54Z</time>
      </trkpt>
      <trkpt lat="44.42388" lon="5.14455">
        <ele>1167.8</ele>
        <time>2022-10-16T12:17:52Z</time>
      </trkpt>
      <trkpt lat="44.42389" lon="5.14454">
        <ele>1168</ele>
        <time>2022-10-16T12:17:51Z</time>
      </trkpt>
      <trkpt lat="44.4239" lon="5.14453">
        <ele>1168.3</ele>
        <time>2022-10-16T12:17:49Z</time>
      </trkpt>
      <trkpt lat="44.42391" lon="5.14453">
        <ele>1168.4</ele>
        <time>2022-10-16T12:17:48Z</time>
      </trkpt>
      <trkpt lat="44.42391" lon="5.14452">
        <ele>1168.6</ele>
        <time>2022-10-16T12:17:47Z</time>
      </trkpt>
      <trkpt lat="44.42392" lon="5.14452">
        <ele>1168.7</ele>
        <time>2022-10-16T12:17:46Z</time>
      </trkpt>
      <trkpt lat="44.42393" lon="5.14452">
        <ele>1168.9</ele>
        <time>2022-10-16T12:17:45Z</time>
      </trkpt>
      <trkpt lat="44.42393" lon="5.14451">
        <ele>1169</ele>
        <time>2022-10-16T12:17:44Z</time>
      </trkpt>
      <trkpt lat="44.42394" lon="5.14451">
        <ele>1169.2</ele>
        <time>2022-10-16T12:17:43Z</time>
      </trkpt>
      <trkpt lat="44.42394" lon="5.1445">
        <ele>1169.4</ele>
        <time>2022-10-16T12:17:42Z</time>
      </trkpt>
      <trkpt lat="44.42395" lon="5.1445">
        <ele>1169.5</ele>
        <time>2022-10-16T12:17:41Z</time>
      </trkpt>
      <trkpt lat="44.42396" lon="5.14449">
        <ele>1169.9</ele>
        <time>2022-10-16T12:17:40Z</time>
      </trkpt>
      <trkpt lat="44.42397" lon="5.14448">
        <ele>1170.2</ele>
        <time>2022-10-16T12:17:39Z</time>
      </trkpt>
      <trkpt lat="44.42397" lon="5.14447">
        <ele>1170.4</ele>
        <time>2022-10-16T12:17:38Z</time>
      </trkpt>
      <trkpt lat="44.42398" lon="5.14447">
        <ele>1170.6</ele>
        <time>2022-10-16T12:17:37Z</time>
      </trkpt>
      <trkpt lat="44.42399" lon="5.14446">
        <ele>1170.9</ele>
        <time>2022-10-16T12:17:36Z</time>
      </trkpt>
      <trkpt lat="44.42399" lon="5.14445">
        <ele>1171.1</ele>
        <time>2022-10-16T12:17:35Z</time>
      </trkpt>
      <trkpt lat="44.424" lon="5.14445">
        <ele>1171.3</ele>
        <time>2022-10-16T12:17:33Z</time>
      </trkpt>
      <trkpt lat="44.42401" lon="5.14445">
        <ele>1171.5</ele>
        <time>2022-10-16T12:17:31Z</time>
      </trkpt>
      <trkpt lat="44.42402" lon="5.14445">
        <ele>1171.7</ele>
        <time>2022-10-16T12:17:30Z</time>
      </trkpt>
      <trkpt lat="44.42403" lon="5.14446">
        <ele>1171.8</ele>
        <time>2022-10-16T12:17:28Z</time>
      </trkpt>
      <trkpt lat="44.42404" lon="5.14446">
        <ele>1172</ele>
        <time>2022-10-16T12:17:27Z</time>
      </trkpt>
      <trkpt lat="44.42405" lon="5.14447">
        <ele>1172</ele>
        <time>2022-10-16T12:17:26Z</time>
      </trkpt>
      <trkpt lat="44.42406" lon="5.14447">
        <ele>1172.2</ele>
        <time>2022-10-16T12:17:25Z</time>
      </trkpt>
      <trkpt lat="44.42407" lon="5.14447">
        <ele>1172.4</ele>
        <time>2022-10-16T12:17:24Z</time>
      </trkpt>
      <trkpt lat="44.42408" lon="5.14447">
        <ele>1172.6</ele>
        <time>2022-10-16T12:17:23Z</time>
      </trkpt>
      <trkpt lat="44.42409" lon="5.14446">
        <ele>1173</ele>
        <time>2022-10-16T12:17:22Z</time>
      </trkpt>
      <trkpt lat="44.4241" lon="5.14446">
        <ele>1173.2</ele>
        <time>2022-10-16T12:17:21Z</time>
      </trkpt>
      <trkpt lat="44.42411" lon="5.14445">
        <ele>1173.7</ele>
        <time>2022-10-16T12:17:20Z</time>
      </trkpt>
      <trkpt lat="44.42412" lon="5.14445">
        <ele>1173.9</ele>
        <time>2022-10-16T12:17:19Z</time>
      </trkpt>
      <trkpt lat="44.42413" lon="5.14444">
        <ele>1174.2</ele>
        <time>2022-10-16T12:17:18Z</time>
      </trkpt>
      <trkpt lat="44.42414" lon="5.14443">
        <ele>1174.3</ele>
        <time>2022-10-16T12:17:17Z</time>
      </trkpt>
      <trkpt lat="44.42415" lon="5.14443">
        <ele>1174.5</ele>
        <time>2022-10-16T12:17:16Z</time>
      </trkpt>
      <trkpt lat="44.42416" lon="5.14443">
        <ele>1174.7</ele>
        <time>2022-10-16T12:17:15Z</time>
      </trkpt>
      <trkpt lat="44.42417" lon="5.14443">
        <ele>1175</ele>
        <time>2022-10-16T12:17:13Z</time>
      </trkpt>
      <trkpt lat="44.42418" lon="5.14443">
        <ele>1175.2</ele>
        <time>2022-10-16T12:17:12Z</time>
      </trkpt>
      <trkpt lat="44.42419" lon="5.14443">
        <ele>1175.4</ele>
        <time>2022-10-16T12:17:11Z</time>
      </trkpt>
      <trkpt lat="44.4242" lon="5.14442">
        <ele>1175.6</ele>
        <time>2022-10-16T12:17:09Z</time>
      </trkpt>
      <trkpt lat="44.42421" lon="5.14442">
        <ele>1175.8</ele>
        <time>2022-10-16T12:17:08Z</time>
      </trkpt>
      <trkpt lat="44.42422" lon="5.14442">
        <ele>1176</ele>
        <time>2022-10-16T12:17:06Z</time>
      </trkpt>
      <trkpt lat="44.42422" lon="5.14441">
        <ele>1175.9</ele>
        <time>2022-10-16T12:17:05Z</time>
      </trkpt>
      <trkpt lat="44.42423" lon="5.14441">
        <ele>1176.1</ele>
        <time>2022-10-16T12:17:03Z</time>
      </trkpt>
      <trkpt lat="44.42424" lon="5.1444">
        <ele>1176.3</ele>
        <time>2022-10-16T12:17:02Z</time>
      </trkpt>
      <trkpt lat="44.42425" lon="5.1444">
        <ele>1176.5</ele>
        <time>2022-10-16T12:17:01Z</time>
      </trkpt>
      <trkpt lat="44.42427" lon="5.14439">
        <ele>1176.9</ele>
        <time>2022-10-16T12:17:00Z</time>
      </trkpt>
      <trkpt lat="44.42428" lon="5.14438">
        <ele>1177.1</ele>
        <time>2022-10-16T12:16:59Z</time>
      </trkpt>
      <trkpt lat="44.42429" lon="5.14438">
        <ele>1177.3</ele>
        <time>2022-10-16T12:16:58Z</time>
      </trkpt>
      <trkpt lat="44.4243" lon="5.14438">
        <ele>1177.5</ele>
        <time>2022-10-16T12:16:57Z</time>
      </trkpt>
      <trkpt lat="44.42431" lon="5.14438">
        <ele>1177.8</ele>
        <time>2022-10-16T12:16:56Z</time>
      </trkpt>
      <trkpt lat="44.42432" lon="5.14438">
        <ele>1178</ele>
        <time>2022-10-16T12:16:55Z</time>
      </trkpt>
      <trkpt lat="44.42433" lon="5.14437">
        <ele>1178.1</ele>
        <time>2022-10-16T12:16:54Z</time>
      </trkpt>
      <trkpt lat="44.42434" lon="5.14437">
        <ele>1178.4</ele>
        <time>2022-10-16T12:16:51Z</time>
      </trkpt>
      <trkpt lat="44.42435" lon="5.14437">
        <ele>1178.6</ele>
        <time>2022-10-16T12:16:50Z</time>
      </trkpt>
      <trkpt lat="44.42436" lon="5.14436">
        <ele>1178.8</ele>
        <time>2022-10-16T12:16:49Z</time>
      </trkpt>
      <trkpt lat="44.42436" lon="5.14435">
        <ele>1178.7</ele>
        <time>2022-10-16T12:16:48Z</time>
      </trkpt>
      <trkpt lat="44.42437" lon="5.14434">
        <ele>1178.9</ele>
        <time>2022-10-16T12:16:47Z</time>
      </trkpt>
      <trkpt lat="44.42438" lon="5.14434">
        <ele>1179.1</ele>
        <time>2022-10-16T12:16:46Z</time>
      </trkpt>
      <trkpt lat="44.42439" lon="5.14433">
        <ele>1179.3</ele>
        <time>2022-10-16T12:16:45Z</time>
      </trkpt>
      <trkpt lat="44.4244" lon="5.14433">
        <ele>1179.6</ele>
        <time>2022-10-16T12:16:44Z</time>
      </trkpt>
      <trkpt lat="44.42441" lon="5.14432">
        <ele>1179.8</ele>
        <time>2022-10-16T12:16:42Z</time>
      </trkpt>
      <trkpt lat="44.42442" lon="5.14432">
        <ele>1180</ele>
        <time>2022-10-16T12:16:41Z</time>
      </trkpt>
      <trkpt lat="44.42442" lon="5.14433">
        <ele>1180</ele>
        <time>2022-10-16T12:16:40Z</time>
      </trkpt>
      <trkpt lat="44.42443" lon="5.14433">
        <ele>1180.3</ele>
        <time>2022-10-16T12:16:38Z</time>
      </trkpt>
      <trkpt lat="44.42444" lon="5.14433">
        <ele>1180.5</ele>
        <time>2022-10-16T12:16:37Z</time>
      </trkpt>
      <trkpt lat="44.42445" lon="5.14434">
        <ele>1180.8</ele>
        <time>2022-10-16T12:16:35Z</time>
      </trkpt>
      <trkpt lat="44.42446" lon="5.14434">
        <ele>1181.2</ele>
        <time>2022-10-16T12:16:34Z</time>
      </trkpt>
      <trkpt lat="44.42447" lon="5.14433">
        <ele>1181.6</ele>
        <time>2022-10-16T12:16:32Z</time>
      </trkpt>
      <trkpt lat="44.42448" lon="5.14433">
        <ele>1181.9</ele>
        <time>2022-10-16T12:16:31Z</time>
      </trkpt>
      <trkpt lat="44.42449" lon="5.14433">
        <ele>1182.3</ele>
        <time>2022-10-16T12:16:30Z</time>
      </trkpt>
      <trkpt lat="44.42449" lon="5.14432">
        <ele>1182.3</ele>
        <time>2022-10-16T12:16:29Z</time>
      </trkpt>
      <trkpt lat="44.4245" lon="5.14432">
        <ele>1182.7</ele>
        <time>2022-10-16T12:16:27Z</time>
      </trkpt>
      <trkpt lat="44.42451" lon="5.14432">
        <ele>1183</ele>
        <time>2022-10-16T12:16:26Z</time>
      </trkpt>
      <trkpt lat="44.42452" lon="5.14432">
        <ele>1183.4</ele>
        <time>2022-10-16T12:16:25Z</time>
      </trkpt>
      <trkpt lat="44.42452" lon="5.14433">
        <ele>1183.5</ele>
        <time>2022-10-16T12:16:24Z</time>
      </trkpt>
      <trkpt lat="44.42453" lon="5.14433">
        <ele>1183.8</ele>
        <time>2022-10-16T12:16:22Z</time>
      </trkpt>
      <trkpt lat="44.42454" lon="5.14433">
        <ele>1184.2</ele>
        <time>2022-10-16T12:16:21Z</time>
      </trkpt>
      <trkpt lat="44.42454" lon="5.14434">
        <ele>1184.3</ele>
        <time>2022-10-16T12:16:20Z</time>
      </trkpt>
      <trkpt lat="44.42455" lon="5.14434">
        <ele>1184.7</ele>
        <time>2022-10-16T12:16:19Z</time>
      </trkpt>
      <trkpt lat="44.42456" lon="5.14434">
        <ele>1185</ele>
        <time>2022-10-16T12:16:17Z</time>
      </trkpt>
      <trkpt lat="44.42457" lon="5.14434">
        <ele>1185.4</ele>
        <time>2022-10-16T12:16:15Z</time>
      </trkpt>
      <trkpt lat="44.42458" lon="5.14433">
        <ele>1185.8</ele>
        <time>2022-10-16T12:16:12Z</time>
      </trkpt>
      <trkpt lat="44.42459" lon="5.14433">
        <ele>1186.1</ele>
        <time>2022-10-16T12:16:11Z</time>
      </trkpt>
      <trkpt lat="44.4246" lon="5.14433">
        <ele>1186.5</ele>
        <time>2022-10-16T12:16:10Z</time>
      </trkpt>
      <trkpt lat="44.42461" lon="5.14432">
        <ele>1186.8</ele>
        <time>2022-10-16T12:16:08Z</time>
      </trkpt>
      <trkpt lat="44.42462" lon="5.14431">
        <ele>1187.2</ele>
        <time>2022-10-16T12:16:07Z</time>
      </trkpt>
      <trkpt lat="44.42463" lon="5.14431">
        <ele>1187.5</ele>
        <time>2022-10-16T12:16:06Z</time>
      </trkpt>
      <trkpt lat="44.42464" lon="5.14431">
        <ele>1187.9</ele>
        <time>2022-10-16T12:16:04Z</time>
      </trkpt>
      <trkpt lat="44.42465" lon="5.14431">
        <ele>1188.3</ele>
        <time>2022-10-16T12:16:03Z</time>
      </trkpt>
      <trkpt lat="44.42466" lon="5.14431">
        <ele>1188.7</ele>
        <time>2022-10-16T12:16:01Z</time>
      </trkpt>
      <trkpt lat="44.42467" lon="5.14431">
        <ele>1189.1</ele>
        <time>2022-10-16T12:16:00Z</time>
      </trkpt>
      <trkpt lat="44.42468" lon="5.14431">
        <ele>1189.4</ele>
        <time>2022-10-16T12:15:59Z</time>
      </trkpt>
      <trkpt lat="44.42468" lon="5.14432">
        <ele>1189.5</ele>
        <time>2022-10-16T12:15:58Z</time>
      </trkpt>
      <trkpt lat="44.42469" lon="5.14432">
        <ele>1189.9</ele>
        <time>2022-10-16T12:15:57Z</time>
      </trkpt>
      <trkpt lat="44.4247" lon="5.14432">
        <ele>1190.3</ele>
        <time>2022-10-16T12:15:56Z</time>
      </trkpt>
      <trkpt lat="44.4247" lon="5.14433">
        <ele>1190.3</ele>
        <time>2022-10-16T12:15:55Z</time>
      </trkpt>
      <trkpt lat="44.42471" lon="5.14433">
        <ele>1190.7</ele>
        <time>2022-10-16T12:15:53Z</time>
      </trkpt>
      <trkpt lat="44.42472" lon="5.14433">
        <ele>1191.1</ele>
        <time>2022-10-16T12:15:52Z</time>
      </trkpt>
      <trkpt lat="44.42473" lon="5.14434">
        <ele>1191.5</ele>
        <time>2022-10-16T12:15:50Z</time>
      </trkpt>
      <trkpt lat="44.42474" lon="5.14434">
        <ele>1191.7</ele>
        <time>2022-10-16T12:15:49Z</time>
      </trkpt>
      <trkpt lat="44.42474" lon="5.14435">
        <ele>1191.8</ele>
        <time>2022-10-16T12:15:48Z</time>
      </trkpt>
      <trkpt lat="44.42475" lon="5.14435">
        <ele>1192.1</ele>
        <time>2022-10-16T12:15:46Z</time>
      </trkpt>
      <trkpt lat="44.42476" lon="5.14435">
        <ele>1192.3</ele>
        <time>2022-10-16T12:15:45Z</time>
      </trkpt>
      <trkpt lat="44.42476" lon="5.14436">
        <ele>1192.4</ele>
        <time>2022-10-16T12:15:44Z</time>
      </trkpt>
      <trkpt lat="44.42477" lon="5.14436">
        <ele>1192.7</ele>
        <time>2022-10-16T12:15:42Z</time>
      </trkpt>
      <trkpt lat="44.42478" lon="5.14437">
        <ele>1193</ele>
        <time>2022-10-16T12:15:41Z</time>
      </trkpt>
      <trkpt lat="44.42479" lon="5.14437">
        <ele>1193.3</ele>
        <time>2022-10-16T12:15:39Z</time>
      </trkpt>
      <trkpt lat="44.4248" lon="5.14437">
        <ele>1193.6</ele>
        <time>2022-10-16T12:15:37Z</time>
      </trkpt>
      <trkpt lat="44.42481" lon="5.14437">
        <ele>1193.8</ele>
        <time>2022-10-16T12:15:36Z</time>
      </trkpt>
      <trkpt lat="44.42482" lon="5.14437">
        <ele>1194.1</ele>
        <time>2022-10-16T12:15:34Z</time>
      </trkpt>
      <trkpt lat="44.42483" lon="5.14437">
        <ele>1194.4</ele>
        <time>2022-10-16T12:15:32Z</time>
      </trkpt>
      <trkpt lat="44.42484" lon="5.14437">
        <ele>1194.6</ele>
        <time>2022-10-16T12:15:31Z</time>
      </trkpt>
      <trkpt lat="44.42485" lon="5.14436">
        <ele>1194.8</ele>
        <time>2022-10-16T12:15:29Z</time>
      </trkpt>
      <trkpt lat="44.42486" lon="5.14435">
        <ele>1195</ele>
        <time>2022-10-16T12:15:28Z</time>
      </trkpt>
      <trkpt lat="44.42486" lon="5.14434">
        <ele>1194.8</ele>
        <time>2022-10-16T12:15:27Z</time>
      </trkpt>
      <trkpt lat="44.42487" lon="5.14434">
        <ele>1195.1</ele>
        <time>2022-10-16T12:15:26Z</time>
      </trkpt>
      <trkpt lat="44.42488" lon="5.14433">
        <ele>1195.3</ele>
        <time>2022-10-16T12:15:25Z</time>
      </trkpt>
      <trkpt lat="44.42488" lon="5.14432">
        <ele>1195.1</ele>
        <time>2022-10-16T12:15:24Z</time>
      </trkpt>
      <trkpt lat="44.42489" lon="5.14432">
        <ele>1195.4</ele>
        <time>2022-10-16T12:15:23Z</time>
      </trkpt>
      <trkpt lat="44.4249" lon="5.14431">
        <ele>1195.5</ele>
        <time>2022-10-16T12:15:22Z</time>
      </trkpt>
      <trkpt lat="44.4249" lon="5.1443">
        <ele>1195.4</ele>
        <time>2022-10-16T12:15:21Z</time>
      </trkpt>
      <trkpt lat="44.42491" lon="5.1443">
        <ele>1195.7</ele>
        <time>2022-10-16T12:15:20Z</time>
      </trkpt>
      <trkpt lat="44.42492" lon="5.1443">
        <ele>1195.9</ele>
        <time>2022-10-16T12:15:19Z</time>
      </trkpt>
      <trkpt lat="44.42493" lon="5.14429">
        <ele>1196</ele>
        <time>2022-10-16T12:15:18Z</time>
      </trkpt>
      <trkpt lat="44.42494" lon="5.14429">
        <ele>1196.3</ele>
        <time>2022-10-16T12:15:16Z</time>
      </trkpt>
      <trkpt lat="44.42495" lon="5.14429">
        <ele>1196.5</ele>
        <time>2022-10-16T12:15:15Z</time>
      </trkpt>
      <trkpt lat="44.42496" lon="5.14429">
        <ele>1196.8</ele>
        <time>2022-10-16T12:15:14Z</time>
      </trkpt>
      <trkpt lat="44.42497" lon="5.14429">
        <ele>1197</ele>
        <time>2022-10-16T12:15:13Z</time>
      </trkpt>
      <trkpt lat="44.42498" lon="5.1443">
        <ele>1197.4</ele>
        <time>2022-10-16T12:15:12Z</time>
      </trkpt>
      <trkpt lat="44.42499" lon="5.1443">
        <ele>1197.7</ele>
        <time>2022-10-16T12:15:11Z</time>
      </trkpt>
      <trkpt lat="44.42501" lon="5.14431">
        <ele>1197.7</ele>
        <time>2022-10-16T12:14:59Z</time>
      </trkpt>
      <trkpt lat="44.42501" lon="5.14432">
        <ele>1197.8</ele>
        <time>2022-10-16T12:14:58Z</time>
      </trkpt>
      <trkpt lat="44.42502" lon="5.14433">
        <ele>1197.6</ele>
        <time>2022-10-16T12:14:56Z</time>
      </trkpt>
      <trkpt lat="44.42503" lon="5.14434">
        <ele>1197.4</ele>
        <time>2022-10-16T12:14:55Z</time>
      </trkpt>
      <trkpt lat="44.42503" lon="5.14435">
        <ele>1197.6</ele>
        <time>2022-10-16T12:14:54Z</time>
      </trkpt>
      <trkpt lat="44.42504" lon="5.14435">
        <ele>1197.2</ele>
        <time>2022-10-16T12:14:53Z</time>
      </trkpt>
      <trkpt lat="44.42504" lon="5.14436">
        <ele>1197.3</ele>
        <time>2022-10-16T12:14:51Z</time>
      </trkpt>
      <trkpt lat="44.42504" lon="5.14438">
        <ele>1197.6</ele>
        <time>2022-10-16T12:14:43Z</time>
      </trkpt>
      <trkpt lat="44.42504" lon="5.14439">
        <ele>1197.8</ele>
        <time>2022-10-16T12:14:42Z</time>
      </trkpt>
      <trkpt lat="44.42503" lon="5.1444">
        <ele>1198.3</ele>
        <time>2022-10-16T12:14:41Z</time>
      </trkpt>
      <trkpt lat="44.42503" lon="5.14441">
        <ele>1198.4</ele>
        <time>2022-10-16T12:14:40Z</time>
      </trkpt>
      <trkpt lat="44.42503" lon="5.14442">
        <ele>1198.6</ele>
        <time>2022-10-16T12:14:39Z</time>
      </trkpt>
      <trkpt lat="44.42503" lon="5.14443">
        <ele>1198.7</ele>
        <time>2022-10-16T12:14:38Z</time>
      </trkpt>
      <trkpt lat="44.42503" lon="5.14444">
        <ele>1198.9</ele>
        <time>2022-10-16T12:14:37Z</time>
      </trkpt>
      <trkpt lat="44.42502" lon="5.14446">
        <ele>1199.6</ele>
        <time>2022-10-16T12:14:24Z</time>
      </trkpt>
      <trkpt lat="44.42502" lon="5.14447">
        <ele>1199.7</ele>
        <time>2022-10-16T12:14:23Z</time>
      </trkpt>
      <trkpt lat="44.42502" lon="5.14448">
        <ele>1199.9</ele>
        <time>2022-10-16T12:14:22Z</time>
      </trkpt>
      <trkpt lat="44.42502" lon="5.14449">
        <ele>1200.1</ele>
        <time>2022-10-16T12:14:21Z</time>
      </trkpt>
      <trkpt lat="44.42501" lon="5.1445">
        <ele>1200.6</ele>
        <time>2022-10-16T12:14:20Z</time>
      </trkpt>
      <trkpt lat="44.42501" lon="5.14451">
        <ele>1200.8</ele>
        <time>2022-10-16T12:14:19Z</time>
      </trkpt>
      <trkpt lat="44.42501" lon="5.14452">
        <ele>1201</ele>
        <time>2022-10-16T12:14:17Z</time>
      </trkpt>
      <trkpt lat="44.42501" lon="5.14453">
        <ele>1201.2</ele>
        <time>2022-10-16T12:14:16Z</time>
      </trkpt>
      <trkpt lat="44.42501" lon="5.14454">
        <ele>1201.4</ele>
        <time>2022-10-16T12:14:15Z</time>
      </trkpt>
      <trkpt lat="44.42501" lon="5.14455">
        <ele>1201.6</ele>
        <time>2022-10-16T12:14:14Z</time>
      </trkpt>
      <trkpt lat="44.42501" lon="5.14456">
        <ele>1201.7</ele>
        <time>2022-10-16T12:14:13Z</time>
      </trkpt>
      <trkpt lat="44.425" lon="5.14456">
        <ele>1202.1</ele>
        <time>2022-10-16T12:14:12Z</time>
      </trkpt>
      <trkpt lat="44.425" lon="5.14457">
        <ele>1202.3</ele>
        <time>2022-10-16T12:14:11Z</time>
      </trkpt>
      <trkpt lat="44.425" lon="5.14458">
        <ele>1202.4</ele>
        <time>2022-10-16T12:14:10Z</time>
      </trkpt>
      <trkpt lat="44.42499" lon="5.14459">
        <ele>1202.2</ele>
        <time>2022-10-16T12:14:09Z</time>
      </trkpt>
      <trkpt lat="44.42499" lon="5.1446">
        <ele>1202.4</ele>
        <time>2022-10-16T12:14:08Z</time>
      </trkpt>
      <trkpt lat="44.42499" lon="5.14461">
        <ele>1202.6</ele>
        <time>2022-10-16T12:14:07Z</time>
      </trkpt>
      <trkpt lat="44.42499" lon="5.14462">
        <ele>1202.7</ele>
        <time>2022-10-16T12:14:06Z</time>
      </trkpt>
      <trkpt lat="44.42499" lon="5.14463">
        <ele>1202.9</ele>
        <time>2022-10-16T12:14:05Z</time>
      </trkpt>
      <trkpt lat="44.42498" lon="5.14464">
        <ele>1202.6</ele>
        <time>2022-10-16T12:14:04Z</time>
      </trkpt>
      <trkpt lat="44.42498" lon="5.14465">
        <ele>1202.8</ele>
        <time>2022-10-16T12:14:03Z</time>
      </trkpt>
      <trkpt lat="44.42498" lon="5.14466">
        <ele>1203</ele>
        <time>2022-10-16T12:14:02Z</time>
      </trkpt>
      <trkpt lat="44.42498" lon="5.14467">
        <ele>1203.1</ele>
        <time>2022-10-16T12:14:01Z</time>
      </trkpt>
      <trkpt lat="44.42498" lon="5.14468">
        <ele>1203.3</ele>
        <time>2022-10-16T12:14:00Z</time>
      </trkpt>
      <trkpt lat="44.42498" lon="5.1447">
        <ele>1203.6</ele>
        <time>2022-10-16T12:13:59Z</time>
      </trkpt>
      <trkpt lat="44.42497" lon="5.14471">
        <ele>1203.3</ele>
        <time>2022-10-16T12:13:58Z</time>
      </trkpt>
      <trkpt lat="44.42497" lon="5.14472">
        <ele>1203.5</ele>
        <time>2022-10-16T12:13:57Z</time>
      </trkpt>
      <trkpt lat="44.42497" lon="5.14473">
        <ele>1203.5</ele>
        <time>2022-10-16T12:13:56Z</time>
      </trkpt>
      <trkpt lat="44.42497" lon="5.14474">
        <ele>1203.5</ele>
        <time>2022-10-16T12:13:55Z</time>
      </trkpt>
      <trkpt lat="44.42497" lon="5.14475">
        <ele>1203.5</ele>
        <time>2022-10-16T12:13:54Z</time>
      </trkpt>
      <trkpt lat="44.42497" lon="5.14476">
        <ele>1203.5</ele>
        <time>2022-10-16T12:13:53Z</time>
      </trkpt>
      <trkpt lat="44.42497" lon="5.14477">
        <ele>1203.5</ele>
        <time>2022-10-16T12:13:52Z</time>
      </trkpt>
      <trkpt lat="44.42497" lon="5.14479">
        <ele>1203.5</ele>
        <time>2022-10-16T12:13:51Z</time>
      </trkpt>
      <trkpt lat="44.42497" lon="5.1448">
        <ele>1203.5</ele>
        <time>2022-10-16T12:13:50Z</time>
      </trkpt>
      <trkpt lat="44.42497" lon="5.14481">
        <ele>1203.5</ele>
        <time>2022-10-16T12:13:49Z</time>
      </trkpt>
      <trkpt lat="44.42497" lon="5.14482">
        <ele>1203.5</ele>
        <time>2022-10-16T12:13:48Z</time>
      </trkpt>
      <trkpt lat="44.42497" lon="5.14484">
        <ele>1203.5</ele>
        <time>2022-10-16T12:13:47Z</time>
      </trkpt>
      <trkpt lat="44.42497" lon="5.14485">
        <ele>1203.5</ele>
        <time>2022-10-16T12:13:46Z</time>
      </trkpt>
      <trkpt lat="44.42497" lon="5.14486">
        <ele>1203.5</ele>
        <time>2022-10-16T12:13:45Z</time>
      </trkpt>
      <trkpt lat="44.42498" lon="5.14487">
        <ele>1204.2</ele>
        <time>2022-10-16T12:13:44Z</time>
      </trkpt>
      <trkpt lat="44.42498" lon="5.14489">
        <ele>1204.2</ele>
        <time>2022-10-16T12:13:43Z</time>
      </trkpt>
      <trkpt lat="44.42498" lon="5.1449">
        <ele>1204.2</ele>
        <time>2022-10-16T12:13:42Z</time>
      </trkpt>
      <trkpt lat="44.42498" lon="5.14493">
        <ele>1204.3</ele>
        <time>2022-10-16T12:13:03Z</time>
      </trkpt>
      <trkpt lat="44.42499" lon="5.14494">
        <ele>1205</ele>
        <time>2022-10-16T12:13:02Z</time>
      </trkpt>
      <trkpt lat="44.42499" lon="5.14495">
        <ele>1205.1</ele>
        <time>2022-10-16T12:13:01Z</time>
      </trkpt>
      <trkpt lat="44.42499" lon="5.14496">
        <ele>1205.1</ele>
        <time>2022-10-16T12:13:00Z</time>
      </trkpt>
      <trkpt lat="44.42499" lon="5.14497">
        <ele>1205.1</ele>
        <time>2022-10-16T12:12:59Z</time>
      </trkpt>
      <trkpt lat="44.42499" lon="5.14498">
        <ele>1205.1</ele>
        <time>2022-10-16T12:12:58Z</time>
      </trkpt>
      <trkpt lat="44.42499" lon="5.14499">
        <ele>1205.1</ele>
        <time>2022-10-16T12:12:57Z</time>
      </trkpt>
      <trkpt lat="44.42499" lon="5.145">
        <ele>1205.2</ele>
        <time>2022-10-16T12:12:56Z</time>
      </trkpt>
      <trkpt lat="44.42498" lon="5.14501">
        <ele>1204.2</ele>
        <time>2022-10-16T12:12:55Z</time>
      </trkpt>
      <trkpt lat="44.42498" lon="5.14502">
        <ele>1204</ele>
        <time>2022-10-16T12:12:54Z</time>
      </trkpt>
      <trkpt lat="44.42498" lon="5.14503">
        <ele>1203.8</ele>
        <time>2022-10-16T12:12:53Z</time>
      </trkpt>
      <trkpt lat="44.42498" lon="5.14504">
        <ele>1203.7</ele>
        <time>2022-10-16T12:12:52Z</time>
      </trkpt>
      <trkpt lat="44.42498" lon="5.14505">
        <ele>1203.5</ele>
        <time>2022-10-16T12:12:51Z</time>
      </trkpt>
      <trkpt lat="44.42498" lon="5.14506">
        <ele>1203.3</ele>
        <time>2022-10-16T12:12:50Z</time>
      </trkpt>
      <trkpt lat="44.42498" lon="5.14507">
        <ele>1203.2</ele>
        <time>2022-10-16T12:12:49Z</time>
      </trkpt>
      <trkpt lat="44.42498" lon="5.14508">
        <ele>1203</ele>
        <time>2022-10-16T12:12:48Z</time>
      </trkpt>
      <trkpt lat="44.42498" lon="5.14509">
        <ele>1202.8</ele>
        <time>2022-10-16T12:12:47Z</time>
      </trkpt>
      <trkpt lat="44.42498" lon="5.14512">
        <ele>1202.3</ele>
        <time>2022-10-16T12:12:18Z</time>
      </trkpt>
      <trkpt lat="44.42498" lon="5.14514">
        <ele>1202</ele>
        <time>2022-10-16T12:12:17Z</time>
      </trkpt>
      <trkpt lat="44.42498" lon="5.14515">
        <ele>1201.8</ele>
        <time>2022-10-16T12:12:16Z</time>
      </trkpt>
      <trkpt lat="44.42498" lon="5.14516">
        <ele>1201.6</ele>
        <time>2022-10-16T12:12:15Z</time>
      </trkpt>
      <trkpt lat="44.42499" lon="5.14517">
        <ele>1202.5</ele>
        <time>2022-10-16T12:12:14Z</time>
      </trkpt>
      <trkpt lat="44.42499" lon="5.14518">
        <ele>1202.3</ele>
        <time>2022-10-16T12:12:13Z</time>
      </trkpt>
      <trkpt lat="44.42499" lon="5.14519">
        <ele>1202.2</ele>
        <time>2022-10-16T12:12:12Z</time>
      </trkpt>
      <trkpt lat="44.42499" lon="5.1452">
        <ele>1202</ele>
        <time>2022-10-16T12:12:11Z</time>
      </trkpt>
      <trkpt lat="44.42499" lon="5.14521">
        <ele>1201.9</ele>
        <time>2022-10-16T12:12:10Z</time>
      </trkpt>
      <trkpt lat="44.425" lon="5.14523">
        <ele>1202.7</ele>
        <time>2022-10-16T12:11:35Z</time>
      </trkpt>
      <trkpt lat="44.425" lon="5.14524">
        <ele>1202.5</ele>
        <time>2022-10-16T12:11:34Z</time>
      </trkpt>
      <trkpt lat="44.42501" lon="5.14525">
        <ele>1202.4</ele>
        <time>2022-10-16T12:11:32Z</time>
      </trkpt>
      <trkpt lat="44.42501" lon="5.14526">
        <ele>1202.2</ele>
        <time>2022-10-16T12:11:31Z</time>
      </trkpt>
      <trkpt lat="44.42502" lon="5.14527">
        <ele>1202.1</ele>
        <time>2022-10-16T12:11:30Z</time>
      </trkpt>
      <trkpt lat="44.42502" lon="5.14528">
        <ele>1201.9</ele>
        <time>2022-10-16T12:11:29Z</time>
      </trkpt>
      <trkpt lat="44.42503" lon="5.14528">
        <ele>1201.9</ele>
        <time>2022-10-16T12:11:28Z</time>
      </trkpt>
      <trkpt lat="44.42504" lon="5.14529">
        <ele>1201.6</ele>
        <time>2022-10-16T12:11:27Z</time>
      </trkpt>
      <trkpt lat="44.42504" lon="5.1453">
        <ele>1201.3</ele>
        <time>2022-10-16T12:11:26Z</time>
      </trkpt>
      <trkpt lat="44.42505" lon="5.14531">
        <ele>1201</ele>
        <time>2022-10-16T12:11:25Z</time>
      </trkpt>
      <trkpt lat="44.42505" lon="5.14532">
        <ele>1200.6</ele>
        <time>2022-10-16T12:11:24Z</time>
      </trkpt>
      <trkpt lat="44.42506" lon="5.14532">
        <ele>1200.7</ele>
        <time>2022-10-16T12:11:23Z</time>
      </trkpt>
      <trkpt lat="44.42506" lon="5.14533">
        <ele>1200.4</ele>
        <time>2022-10-16T12:11:22Z</time>
      </trkpt>
      <trkpt lat="44.42507" lon="5.14534">
        <ele>1200.1</ele>
        <time>2022-10-16T12:11:21Z</time>
      </trkpt>
      <trkpt lat="44.42507" lon="5.14535">
        <ele>1199.8</ele>
        <time>2022-10-16T12:11:20Z</time>
      </trkpt>
      <trkpt lat="44.42508" lon="5.14536">
        <ele>1199.6</ele>
        <time>2022-10-16T12:11:19Z</time>
      </trkpt>
      <trkpt lat="44.42508" lon="5.14537">
        <ele>1199.3</ele>
        <time>2022-10-16T12:11:18Z</time>
      </trkpt>
      <trkpt lat="44.42508" lon="5.14539">
        <ele>1198.7</ele>
        <time>2022-10-16T12:11:17Z</time>
      </trkpt>
      <trkpt lat="44.42508" lon="5.1454">
        <ele>1198.4</ele>
        <time>2022-10-16T12:11:16Z</time>
      </trkpt>
      <trkpt lat="44.42509" lon="5.14541">
        <ele>1198.2</ele>
        <time>2022-10-16T12:11:15Z</time>
      </trkpt>
      <trkpt lat="44.42509" lon="5.14542">
        <ele>1197.9</ele>
        <time>2022-10-16T12:11:14Z</time>
      </trkpt>
      <trkpt lat="44.42509" lon="5.14543">
        <ele>1197.6</ele>
        <time>2022-10-16T12:11:09Z</time>
      </trkpt>
      <trkpt lat="44.4251" lon="5.14542">
        <ele>1198</ele>
        <time>2022-10-16T12:08:48Z</time>
      </trkpt>
      <trkpt lat="44.4251" lon="5.1454">
        <ele>1198.6</ele>
        <time>2022-10-16T12:08:47Z</time>
      </trkpt>
      <trkpt lat="44.42509" lon="5.14539">
        <ele>1198.7</ele>
        <time>2022-10-16T12:08:46Z</time>
      </trkpt>
      <trkpt lat="44.42509" lon="5.14538">
        <ele>1199</ele>
        <time>2022-10-16T12:08:45Z</time>
      </trkpt>
      <trkpt lat="44.42509" lon="5.14537">
        <ele>1199.3</ele>
        <time>2022-10-16T12:08:44Z</time>
      </trkpt>
      <trkpt lat="44.42509" lon="5.14536">
        <ele>1199.6</ele>
        <time>2022-10-16T12:08:43Z</time>
      </trkpt>
      <trkpt lat="44.42508" lon="5.14535">
        <ele>1199.8</ele>
        <time>2022-10-16T12:08:42Z</time>
      </trkpt>
      <trkpt lat="44.42508" lon="5.14534">
        <ele>1200.1</ele>
        <time>2022-10-16T12:08:41Z</time>
      </trkpt>
      <trkpt lat="44.42508" lon="5.14533">
        <ele>1200.4</ele>
        <time>2022-10-16T12:08:40Z</time>
      </trkpt>
      <trkpt lat="44.42507" lon="5.14532">
        <ele>1200.7</ele>
        <time>2022-10-16T12:08:39Z</time>
      </trkpt>
      <trkpt lat="44.42507" lon="5.14531">
        <ele>1201</ele>
        <time>2022-10-16T12:08:38Z</time>
      </trkpt>
      <trkpt lat="44.42506" lon="5.1453">
        <ele>1201.3</ele>
        <time>2022-10-16T12:08:37Z</time>
      </trkpt>
      <trkpt lat="44.42506" lon="5.14529">
        <ele>1201.6</ele>
        <time>2022-10-16T12:08:36Z</time>
      </trkpt>
      <trkpt lat="44.42505" lon="5.14529">
        <ele>1201.6</ele>
        <time>2022-10-16T12:08:35Z</time>
      </trkpt>
      <trkpt lat="44.42505" lon="5.14528">
        <ele>1201.9</ele>
        <time>2022-10-16T12:08:34Z</time>
      </trkpt>
      <trkpt lat="44.42504" lon="5.14527">
        <ele>1202.1</ele>
        <time>2022-10-16T12:08:33Z</time>
      </trkpt>
      <trkpt lat="44.42504" lon="5.14526">
        <ele>1202.2</ele>
        <time>2022-10-16T12:08:31Z</time>
      </trkpt>
      <trkpt lat="44.42503" lon="5.14525">
        <ele>1202.3</ele>
        <time>2022-10-16T12:08:30Z</time>
      </trkpt>
      <trkpt lat="44.42503" lon="5.14524">
        <ele>1202.5</ele>
        <time>2022-10-16T12:08:29Z</time>
      </trkpt>
      <trkpt lat="44.42502" lon="5.14524">
        <ele>1202.5</ele>
        <time>2022-10-16T12:08:28Z</time>
      </trkpt>
      <trkpt lat="44.42502" lon="5.14523">
        <ele>1202.6</ele>
        <time>2022-10-16T12:08:27Z</time>
      </trkpt>
      <trkpt lat="44.42501" lon="5.14523">
        <ele>1202.7</ele>
        <time>2022-10-16T12:08:26Z</time>
      </trkpt>
      <trkpt lat="44.42501" lon="5.14522">
        <ele>1202.8</ele>
        <time>2022-10-16T12:08:25Z</time>
      </trkpt>
      <trkpt lat="44.425" lon="5.14522">
        <ele>1202.8</ele>
        <time>2022-10-16T12:08:24Z</time>
      </trkpt>
      <trkpt lat="44.42499" lon="5.14521">
        <ele>1201.9</ele>
        <time>2022-10-16T12:08:22Z</time>
      </trkpt>
      <trkpt lat="44.42498" lon="5.14519">
        <ele>1201.1</ele>
        <time>2022-10-16T12:07:13Z</time>
      </trkpt>
      <trkpt lat="44.42498" lon="5.14518">
        <ele>1201.3</ele>
        <time>2022-10-16T12:07:12Z</time>
      </trkpt>
      <trkpt lat="44.42497" lon="5.14517">
        <ele>1200.4</ele>
        <time>2022-10-16T12:07:11Z</time>
      </trkpt>
      <trkpt lat="44.42497" lon="5.14516">
        <ele>1200.6</ele>
        <time>2022-10-16T12:07:10Z</time>
      </trkpt>
      <trkpt lat="44.42496" lon="5.14515">
        <ele>1199.8</ele>
        <time>2022-10-16T12:07:09Z</time>
      </trkpt>
      <trkpt lat="44.42496" lon="5.14514">
        <ele>1199.9</ele>
        <time>2022-10-16T12:07:08Z</time>
      </trkpt>
      <trkpt lat="44.42496" lon="5.14512">
        <ele>1200.3</ele>
        <time>2022-10-16T12:07:07Z</time>
      </trkpt>
      <trkpt lat="44.42495" lon="5.1451">
        <ele>1199.8</ele>
        <time>2022-10-16T12:06:38Z</time>
      </trkpt>
      <trkpt lat="44.42495" lon="5.14509">
        <ele>1200</ele>
        <time>2022-10-16T12:06:36Z</time>
      </trkpt>
      <trkpt lat="44.42495" lon="5.14508">
        <ele>1200.2</ele>
        <time>2022-10-16T12:06:35Z</time>
      </trkpt>
      <trkpt lat="44.42495" lon="5.14507">
        <ele>1200.4</ele>
        <time>2022-10-16T12:06:34Z</time>
      </trkpt>
      <trkpt lat="44.42496" lon="5.14506">
        <ele>1201.5</ele>
        <time>2022-10-16T12:06:33Z</time>
      </trkpt>
      <trkpt lat="44.42496" lon="5.14505">
        <ele>1201.7</ele>
        <time>2022-10-16T12:06:31Z</time>
      </trkpt>
      <trkpt lat="44.42496" lon="5.14504">
        <ele>1201.9</ele>
        <time>2022-10-16T12:06:30Z</time>
      </trkpt>
      <trkpt lat="44.42497" lon="5.14503">
        <ele>1203</ele>
        <time>2022-10-16T12:06:29Z</time>
      </trkpt>
      <trkpt lat="44.42497" lon="5.14502">
        <ele>1203.2</ele>
        <time>2022-10-16T12:06:27Z</time>
      </trkpt>
      <trkpt lat="44.42498" lon="5.14501">
        <ele>1204.2</ele>
        <time>2022-10-16T12:06:26Z</time>
      </trkpt>
      <trkpt lat="44.42498" lon="5.145">
        <ele>1204.3</ele>
        <time>2022-10-16T12:06:25Z</time>
      </trkpt>
      <trkpt lat="44.42498" lon="5.14499">
        <ele>1204.3</ele>
        <time>2022-10-16T12:06:24Z</time>
      </trkpt>
      <trkpt lat="44.42498" lon="5.14498">
        <ele>1204.3</ele>
        <time>2022-10-16T12:06:23Z</time>
      </trkpt>
      <trkpt lat="44.42498" lon="5.14496">
        <ele>1204.3</ele>
        <time>2022-10-16T12:06:22Z</time>
      </trkpt>
      <trkpt lat="44.42498" lon="5.14495">
        <ele>1204.3</ele>
        <time>2022-10-16T12:06:21Z</time>
      </trkpt>
      <trkpt lat="44.42497" lon="5.14494">
        <ele>1203.5</ele>
        <time>2022-10-16T12:06:20Z</time>
      </trkpt>
      <trkpt lat="44.42497" lon="5.14493">
        <ele>1203.5</ele>
        <time>2022-10-16T12:06:19Z</time>
      </trkpt>
      <trkpt lat="44.42497" lon="5.14492">
        <ele>1203.5</ele>
        <time>2022-10-16T12:06:18Z</time>
      </trkpt>
      <trkpt lat="44.42496" lon="5.14491">
        <ele>1202.8</ele>
        <time>2022-10-16T12:06:17Z</time>
      </trkpt>
      <trkpt lat="44.42496" lon="5.1449">
        <ele>1202.8</ele>
        <time>2022-10-16T12:06:16Z</time>
      </trkpt>
      <trkpt lat="44.42496" lon="5.14489">
        <ele>1202.8</ele>
        <time>2022-10-16T12:06:15Z</time>
      </trkpt>
      <trkpt lat="44.42496" lon="5.14488">
        <ele>1202.8</ele>
        <time>2022-10-16T12:06:14Z</time>
      </trkpt>
      <trkpt lat="44.42496" lon="5.14487">
        <ele>1202.8</ele>
        <time>2022-10-16T12:06:13Z</time>
      </trkpt>
      <trkpt lat="44.42496" lon="5.14486">
        <ele>1202.8</ele>
        <time>2022-10-16T12:06:12Z</time>
      </trkpt>
      <trkpt lat="44.42496" lon="5.14485">
        <ele>1202.8</ele>
        <time>2022-10-16T12:06:11Z</time>
      </trkpt>
      <trkpt lat="44.42496" lon="5.14484">
        <ele>1202.9</ele>
        <time>2022-10-16T12:06:10Z</time>
      </trkpt>
      <trkpt lat="44.42496" lon="5.14483">
        <ele>1202.9</ele>
        <time>2022-10-16T12:06:09Z</time>
      </trkpt>
      <trkpt lat="44.42496" lon="5.14482">
        <ele>1202.9</ele>
        <time>2022-10-16T12:06:08Z</time>
      </trkpt>
      <trkpt lat="44.42497" lon="5.14481">
        <ele>1203.5</ele>
        <time>2022-10-16T12:06:07Z</time>
      </trkpt>
      <trkpt lat="44.42497" lon="5.1448">
        <ele>1203.5</ele>
        <time>2022-10-16T12:06:06Z</time>
      </trkpt>
      <trkpt lat="44.42497" lon="5.14479">
        <ele>1203.5</ele>
        <time>2022-10-16T12:06:05Z</time>
      </trkpt>
      <trkpt lat="44.42497" lon="5.14478">
        <ele>1203.5</ele>
        <time>2022-10-16T12:06:04Z</time>
      </trkpt>
      <trkpt lat="44.42497" lon="5.14477">
        <ele>1203.5</ele>
        <time>2022-10-16T12:06:03Z</time>
      </trkpt>
      <trkpt lat="44.42497" lon="5.14476">
        <ele>1203.5</ele>
        <time>2022-10-16T12:06:02Z</time>
      </trkpt>
      <trkpt lat="44.42497" lon="5.14475">
        <ele>1203.5</ele>
        <time>2022-10-16T12:06:01Z</time>
      </trkpt>
      <trkpt lat="44.42497" lon="5.14473">
        <ele>1203.5</ele>
        <time>2022-10-16T12:06:00Z</time>
      </trkpt>
      <trkpt lat="44.42497" lon="5.14472">
        <ele>1203.5</ele>
        <time>2022-10-16T12:05:59Z</time>
      </trkpt>
      <trkpt lat="44.42498" lon="5.14471">
        <ele>1203.8</ele>
        <time>2022-10-16T12:05:57Z</time>
      </trkpt>
      <trkpt lat="44.42498" lon="5.1447">
        <ele>1203.6</ele>
        <time>2022-10-16T12:05:56Z</time>
      </trkpt>
      <trkpt lat="44.42498" lon="5.14469">
        <ele>1203.5</ele>
        <time>2022-10-16T12:05:55Z</time>
      </trkpt>
      <trkpt lat="44.42498" lon="5.14468">
        <ele>1203.3</ele>
        <time>2022-10-16T12:05:53Z</time>
      </trkpt>
      <trkpt lat="44.42498" lon="5.14467">
        <ele>1203.1</ele>
        <time>2022-10-16T12:05:52Z</time>
      </trkpt>
      <trkpt lat="44.42498" lon="5.14466">
        <ele>1203</ele>
        <time>2022-10-16T12:05:45Z</time>
      </trkpt>
      <trkpt lat="44.42499" lon="5.14465">
        <ele>1203.3</ele>
        <time>2022-10-16T12:05:44Z</time>
      </trkpt>
      <trkpt lat="44.42499" lon="5.14464">
        <ele>1203.1</ele>
        <time>2022-10-16T12:05:43Z</time>
      </trkpt>
      <trkpt lat="44.42499" lon="5.14463">
        <ele>1202.9</ele>
        <time>2022-10-16T12:05:42Z</time>
      </trkpt>
      <trkpt lat="44.42499" lon="5.14462">
        <ele>1202.7</ele>
        <time>2022-10-16T12:05:41Z</time>
      </trkpt>
      <trkpt lat="44.425" lon="5.14462">
        <ele>1203.2</ele>
        <time>2022-10-16T12:05:40Z</time>
      </trkpt>
      <trkpt lat="44.425" lon="5.14461">
        <ele>1203</ele>
        <time>2022-10-16T12:05:39Z</time>
      </trkpt>
      <trkpt lat="44.425" lon="5.1446">
        <ele>1202.8</ele>
        <time>2022-10-16T12:05:38Z</time>
      </trkpt>
      <trkpt lat="44.425" lon="5.14459">
        <ele>1202.6</ele>
        <time>2022-10-16T12:05:37Z</time>
      </trkpt>
      <trkpt lat="44.425" lon="5.14458">
        <ele>1202.4</ele>
        <time>2022-10-16T12:05:36Z</time>
      </trkpt>
      <trkpt lat="44.425" lon="5.14457">
        <ele>1202.3</ele>
        <time>2022-10-16T12:05:33Z</time>
      </trkpt>
      <trkpt lat="44.42501" lon="5.14456">
        <ele>1201.7</ele>
        <time>2022-10-16T12:05:32Z</time>
      </trkpt>
      <trkpt lat="44.42501" lon="5.14455">
        <ele>1201.6</ele>
        <time>2022-10-16T12:05:31Z</time>
      </trkpt>
      <trkpt lat="44.42501" lon="5.14454">
        <ele>1201.4</ele>
        <time>2022-10-16T12:05:30Z</time>
      </trkpt>
      <trkpt lat="44.42501" lon="5.14453">
        <ele>1201.2</ele>
        <time>2022-10-16T12:05:28Z</time>
      </trkpt>
      <trkpt lat="44.42501" lon="5.14452">
        <ele>1201</ele>
        <time>2022-10-16T12:05:26Z</time>
      </trkpt>
      <trkpt lat="44.42502" lon="5.14451">
        <ele>1200.5</ele>
        <time>2022-10-16T12:05:25Z</time>
      </trkpt>
      <trkpt lat="44.42502" lon="5.1445">
        <ele>1200.3</ele>
        <time>2022-10-16T12:05:23Z</time>
      </trkpt>
      <trkpt lat="44.42503" lon="5.14449">
        <ele>1199.8</ele>
        <time>2022-10-16T12:05:22Z</time>
      </trkpt>
      <trkpt lat="44.42503" lon="5.14448">
        <ele>1199.6</ele>
        <time>2022-10-16T12:05:21Z</time>
      </trkpt>
      <trkpt lat="44.42504" lon="5.14448">
        <ele>1199.2</ele>
        <time>2022-10-16T12:05:20Z</time>
      </trkpt>
      <trkpt lat="44.42504" lon="5.14447">
        <ele>1199</ele>
        <time>2022-10-16T12:05:19Z</time>
      </trkpt>
      <trkpt lat="44.42504" lon="5.14446">
        <ele>1198.8</ele>
        <time>2022-10-16T12:05:18Z</time>
      </trkpt>
      <trkpt lat="44.42505" lon="5.14446">
        <ele>1198.5</ele>
        <time>2022-10-16T12:05:17Z</time>
      </trkpt>
      <trkpt lat="44.42505" lon="5.14445">
        <ele>1198.3</ele>
        <time>2022-10-16T12:05:16Z</time>
      </trkpt>
      <trkpt lat="44.42506" lon="5.14444">
        <ele>1197.8</ele>
        <time>2022-10-16T12:05:15Z</time>
      </trkpt>
      <trkpt lat="44.42506" lon="5.14443">
        <ele>1197.6</ele>
        <time>2022-10-16T12:05:14Z</time>
      </trkpt>
      <trkpt lat="44.42506" lon="5.14441">
        <ele>1197.3</ele>
        <time>2022-10-16T12:05:13Z</time>
      </trkpt>
      <trkpt lat="44.42507" lon="5.14438">
        <ele>1196.6</ele>
        <time>2022-10-16T12:04:56Z</time>
      </trkpt>
      <trkpt lat="44.42507" lon="5.14437">
        <ele>1196.4</ele>
        <time>2022-10-16T12:04:55Z</time>
      </trkpt>
      <trkpt lat="44.42507" lon="5.14436">
        <ele>1196.3</ele>
        <time>2022-10-16T12:04:53Z</time>
      </trkpt>
      <trkpt lat="44.42507" lon="5.14435">
        <ele>1196.1</ele>
        <time>2022-10-16T12:04:52Z</time>
      </trkpt>
      <trkpt lat="44.42507" lon="5.14434">
        <ele>1196</ele>
        <time>2022-10-16T12:04:50Z</time>
      </trkpt>
      <trkpt lat="44.42507" lon="5.14433">
        <ele>1195.8</ele>
        <time>2022-10-16T12:04:49Z</time>
      </trkpt>
      <trkpt lat="44.42507" lon="5.14432">
        <ele>1195.7</ele>
        <time>2022-10-16T12:04:48Z</time>
      </trkpt>
      <trkpt lat="44.42507" lon="5.14431">
        <ele>1195.5</ele>
        <time>2022-10-16T12:04:47Z</time>
      </trkpt>
      <trkpt lat="44.42507" lon="5.1443">
        <ele>1195.4</ele>
        <time>2022-10-16T12:04:46Z</time>
      </trkpt>
      <trkpt lat="44.42507" lon="5.14429">
        <ele>1195.3</ele>
        <time>2022-10-16T12:04:45Z</time>
      </trkpt>
      <trkpt lat="44.42506" lon="5.14428">
        <ele>1195.5</ele>
        <time>2022-10-16T12:04:44Z</time>
      </trkpt>
      <trkpt lat="44.42506" lon="5.14427">
        <ele>1195.3</ele>
        <time>2022-10-16T12:04:43Z</time>
      </trkpt>
      <trkpt lat="44.42506" lon="5.14426">
        <ele>1195.2</ele>
        <time>2022-10-16T12:04:41Z</time>
      </trkpt>
      <trkpt lat="44.42506" lon="5.14425">
        <ele>1195</ele>
        <time>2022-10-16T12:04:40Z</time>
      </trkpt>
      <trkpt lat="44.42506" lon="5.14424">
        <ele>1194.9</ele>
        <time>2022-10-16T12:04:39Z</time>
      </trkpt>
      <trkpt lat="44.42506" lon="5.14423">
        <ele>1194.8</ele>
        <time>2022-10-16T12:04:38Z</time>
      </trkpt>
      <trkpt lat="44.42505" lon="5.14422">
        <ele>1195</ele>
        <time>2022-10-16T12:04:37Z</time>
      </trkpt>
      <trkpt lat="44.42505" lon="5.14421">
        <ele>1194.8</ele>
        <time>2022-10-16T12:04:36Z</time>
      </trkpt>
      <trkpt lat="44.42505" lon="5.1442">
        <ele>1194.7</ele>
        <time>2022-10-16T12:04:34Z</time>
      </trkpt>
      <trkpt lat="44.42505" lon="5.14419">
        <ele>1194.5</ele>
        <time>2022-10-16T12:04:33Z</time>
      </trkpt>
      <trkpt lat="44.42505" lon="5.14418">
        <ele>1194.4</ele>
        <time>2022-10-16T12:04:32Z</time>
      </trkpt>
      <trkpt lat="44.42505" lon="5.14417">
        <ele>1194.2</ele>
        <time>2022-10-16T12:04:31Z</time>
      </trkpt>
      <trkpt lat="44.42506" lon="5.14416">
        <ele>1193.8</ele>
        <time>2022-10-16T12:04:30Z</time>
      </trkpt>
      <trkpt lat="44.42506" lon="5.14415">
        <ele>1193.6</ele>
        <time>2022-10-16T12:04:29Z</time>
      </trkpt>
      <trkpt lat="44.42506" lon="5.14414">
        <ele>1193.5</ele>
        <time>2022-10-16T12:04:28Z</time>
      </trkpt>
      <trkpt lat="44.42507" lon="5.14413">
        <ele>1193.1</ele>
        <time>2022-10-16T12:04:27Z</time>
      </trkpt>
      <trkpt lat="44.42507" lon="5.14412">
        <ele>1192.9</ele>
        <time>2022-10-16T12:04:25Z</time>
      </trkpt>
      <trkpt lat="44.42507" lon="5.14411">
        <ele>1192.8</ele>
        <time>2022-10-16T12:04:23Z</time>
      </trkpt>
      <trkpt lat="44.42508" lon="5.1441">
        <ele>1192.4</ele>
        <time>2022-10-16T12:04:22Z</time>
      </trkpt>
      <trkpt lat="44.42508" lon="5.14409">
        <ele>1192.3</ele>
        <time>2022-10-16T12:04:20Z</time>
      </trkpt>
      <trkpt lat="44.42508" lon="5.14408">
        <ele>1192.1</ele>
        <time>2022-10-16T12:04:19Z</time>
      </trkpt>
      <trkpt lat="44.42509" lon="5.14407">
        <ele>1191.7</ele>
        <time>2022-10-16T12:04:18Z</time>
      </trkpt>
      <trkpt lat="44.42509" lon="5.14406">
        <ele>1191.6</ele>
        <time>2022-10-16T12:04:17Z</time>
      </trkpt>
      <trkpt lat="44.42509" lon="5.14405">
        <ele>1191.5</ele>
        <time>2022-10-16T12:04:16Z</time>
      </trkpt>
      <trkpt lat="44.42509" lon="5.14404">
        <ele>1191.4</ele>
        <time>2022-10-16T12:04:15Z</time>
      </trkpt>
      <trkpt lat="44.4251" lon="5.14403">
        <ele>1191</ele>
        <time>2022-10-16T12:04:14Z</time>
      </trkpt>
      <trkpt lat="44.4251" lon="5.14402">
        <ele>1190.9</ele>
        <time>2022-10-16T12:04:13Z</time>
      </trkpt>
      <trkpt lat="44.4251" lon="5.14401">
        <ele>1190.8</ele>
        <time>2022-10-16T12:04:12Z</time>
      </trkpt>
      <trkpt lat="44.4251" lon="5.144">
        <ele>1190.6</ele>
        <time>2022-10-16T12:04:11Z</time>
      </trkpt>
      <trkpt lat="44.42511" lon="5.14399">
        <ele>1190.3</ele>
        <time>2022-10-16T12:04:09Z</time>
      </trkpt>
      <trkpt lat="44.42511" lon="5.14398">
        <ele>1190.2</ele>
        <time>2022-10-16T12:04:08Z</time>
      </trkpt>
      <trkpt lat="44.42512" lon="5.14397">
        <ele>1189.8</ele>
        <time>2022-10-16T12:04:07Z</time>
      </trkpt>
      <trkpt lat="44.42512" lon="5.14396">
        <ele>1189.7</ele>
        <time>2022-10-16T12:04:06Z</time>
      </trkpt>
      <trkpt lat="44.42512" lon="5.14395">
        <ele>1189.6</ele>
        <time>2022-10-16T12:04:05Z</time>
      </trkpt>
      <trkpt lat="44.42513" lon="5.14394">
        <ele>1189.2</ele>
        <time>2022-10-16T12:04:04Z</time>
      </trkpt>
      <trkpt lat="44.42513" lon="5.14393">
        <ele>1189.1</ele>
        <time>2022-10-16T12:04:03Z</time>
      </trkpt>
      <trkpt lat="44.42513" lon="5.14392">
        <ele>1189</ele>
        <time>2022-10-16T12:04:02Z</time>
      </trkpt>
      <trkpt lat="44.42513" lon="5.14391">
        <ele>1188.9</ele>
        <time>2022-10-16T12:04:01Z</time>
      </trkpt>
      <trkpt lat="44.42514" lon="5.1439">
        <ele>1188.6</ele>
        <time>2022-10-16T12:04:00Z</time>
      </trkpt>
      <trkpt lat="44.42514" lon="5.14389">
        <ele>1188.5</ele>
        <time>2022-10-16T12:03:59Z</time>
      </trkpt>
      <trkpt lat="44.42514" lon="5.14388">
        <ele>1188.3</ele>
        <time>2022-10-16T12:03:58Z</time>
      </trkpt>
      <trkpt lat="44.42514" lon="5.14387">
        <ele>1188.2</ele>
        <time>2022-10-16T12:03:57Z</time>
      </trkpt>
      <trkpt lat="44.42515" lon="5.14386">
        <ele>1187.8</ele>
        <time>2022-10-16T12:03:56Z</time>
      </trkpt>
      <trkpt lat="44.42515" lon="5.14385">
        <ele>1187.7</ele>
        <time>2022-10-16T12:03:55Z</time>
      </trkpt>
      <trkpt lat="44.42515" lon="5.14384">
        <ele>1187.5</ele>
        <time>2022-10-16T12:03:54Z</time>
      </trkpt>
      <trkpt lat="44.42515" lon="5.14383">
        <ele>1187.4</ele>
        <time>2022-10-16T12:03:53Z</time>
      </trkpt>
      <trkpt lat="44.42516" lon="5.14382">
        <ele>1187.1</ele>
        <time>2022-10-16T12:03:52Z</time>
      </trkpt>
      <trkpt lat="44.42516" lon="5.14381">
        <ele>1186.9</ele>
        <time>2022-10-16T12:03:51Z</time>
      </trkpt>
      <trkpt lat="44.42516" lon="5.14379">
        <ele>1186.7</ele>
        <time>2022-10-16T12:03:50Z</time>
      </trkpt>
      <trkpt lat="44.42516" lon="5.14378">
        <ele>1186.5</ele>
        <time>2022-10-16T12:03:49Z</time>
      </trkpt>
      <trkpt lat="44.42517" lon="5.14377">
        <ele>1186.2</ele>
        <time>2022-10-16T12:03:48Z</time>
      </trkpt>
      <trkpt lat="44.42517" lon="5.14376">
        <ele>1186.1</ele>
        <time>2022-10-16T12:03:47Z</time>
      </trkpt>
      <trkpt lat="44.42517" lon="5.14375">
        <ele>1185.9</ele>
        <time>2022-10-16T12:03:46Z</time>
      </trkpt>
      <trkpt lat="44.42518" lon="5.14373">
        <ele>1185.5</ele>
        <time>2022-10-16T12:03:45Z</time>
      </trkpt>
      <trkpt lat="44.42518" lon="5.14372">
        <ele>1185.4</ele>
        <time>2022-10-16T12:03:44Z</time>
      </trkpt>
      <trkpt lat="44.42518" lon="5.14371">
        <ele>1185.3</ele>
        <time>2022-10-16T12:03:43Z</time>
      </trkpt>
      <trkpt lat="44.42519" lon="5.1437">
        <ele>1185</ele>
        <time>2022-10-16T12:03:42Z</time>
      </trkpt>
      <trkpt lat="44.42519" lon="5.14369">
        <ele>1184.9</ele>
        <time>2022-10-16T12:03:41Z</time>
      </trkpt>
      <trkpt lat="44.42519" lon="5.14368">
        <ele>1184.8</ele>
        <time>2022-10-16T12:03:40Z</time>
      </trkpt>
      <trkpt lat="44.42519" lon="5.14366">
        <ele>1184.5</ele>
        <time>2022-10-16T12:03:39Z</time>
      </trkpt>
      <trkpt lat="44.42519" lon="5.14365">
        <ele>1184.4</ele>
        <time>2022-10-16T12:03:38Z</time>
      </trkpt>
      <trkpt lat="44.42519" lon="5.14364">
        <ele>1184.3</ele>
        <time>2022-10-16T12:03:37Z</time>
      </trkpt>
      <trkpt lat="44.42519" lon="5.14362">
        <ele>1184.1</ele>
        <time>2022-10-16T12:03:36Z</time>
      </trkpt>
      <trkpt lat="44.42519" lon="5.14361">
        <ele>1183.9</ele>
        <time>2022-10-16T12:03:35Z</time>
      </trkpt>
      <trkpt lat="44.42519" lon="5.1436">
        <ele>1183.8</ele>
        <time>2022-10-16T12:03:34Z</time>
      </trkpt>
      <trkpt lat="44.42519" lon="5.14358">
        <ele>1183.6</ele>
        <time>2022-10-16T12:03:33Z</time>
      </trkpt>
      <trkpt lat="44.42519" lon="5.14357">
        <ele>1183.5</ele>
        <time>2022-10-16T12:03:32Z</time>
      </trkpt>
      <trkpt lat="44.42519" lon="5.14356">
        <ele>1183.3</ele>
        <time>2022-10-16T12:03:31Z</time>
      </trkpt>
      <trkpt lat="44.42519" lon="5.14354">
        <ele>1183.1</ele>
        <time>2022-10-16T12:03:30Z</time>
      </trkpt>
      <trkpt lat="44.42519" lon="5.14353">
        <ele>1183</ele>
        <time>2022-10-16T12:03:29Z</time>
      </trkpt>
      <trkpt lat="44.42519" lon="5.14352">
        <ele>1182.9</ele>
        <time>2022-10-16T12:03:28Z</time>
      </trkpt>
      <trkpt lat="44.42519" lon="5.14351">
        <ele>1182.8</ele>
        <time>2022-10-16T12:03:27Z</time>
      </trkpt>
      <trkpt lat="44.42519" lon="5.14349">
        <ele>1182.5</ele>
        <time>2022-10-16T12:03:26Z</time>
      </trkpt>
      <trkpt lat="44.42519" lon="5.14348">
        <ele>1182.4</ele>
        <time>2022-10-16T12:03:25Z</time>
      </trkpt>
      <trkpt lat="44.42519" lon="5.14347">
        <ele>1182.3</ele>
        <time>2022-10-16T12:03:24Z</time>
      </trkpt>
      <trkpt lat="44.42519" lon="5.14345">
        <ele>1182.1</ele>
        <time>2022-10-16T12:03:23Z</time>
      </trkpt>
      <trkpt lat="44.42519" lon="5.14344">
        <ele>1181.9</ele>
        <time>2022-10-16T12:03:22Z</time>
      </trkpt>
      <trkpt lat="44.42519" lon="5.14343">
        <ele>1181.8</ele>
        <time>2022-10-16T12:03:21Z</time>
      </trkpt>
      <trkpt lat="44.42519" lon="5.14342">
        <ele>1181.7</ele>
        <time>2022-10-16T12:03:20Z</time>
      </trkpt>
      <trkpt lat="44.42519" lon="5.1434">
        <ele>1181.5</ele>
        <time>2022-10-16T12:03:19Z</time>
      </trkpt>
      <trkpt lat="44.42519" lon="5.14339">
        <ele>1181.3</ele>
        <time>2022-10-16T12:03:18Z</time>
      </trkpt>
      <trkpt lat="44.4252" lon="5.14337">
        <ele>1181.1</ele>
        <time>2022-10-16T12:03:17Z</time>
      </trkpt>
      <trkpt lat="44.4252" lon="5.14336">
        <ele>1181</ele>
        <time>2022-10-16T12:03:16Z</time>
      </trkpt>
      <trkpt lat="44.4252" lon="5.14335">
        <ele>1180.9</ele>
        <time>2022-10-16T12:03:15Z</time>
      </trkpt>
      <trkpt lat="44.4252" lon="5.14333">
        <ele>1180.7</ele>
        <time>2022-10-16T12:03:14Z</time>
      </trkpt>
      <trkpt lat="44.4252" lon="5.14332">
        <ele>1180.6</ele>
        <time>2022-10-16T12:03:13Z</time>
      </trkpt>
      <trkpt lat="44.42521" lon="5.14331">
        <ele>1180.6</ele>
        <time>2022-10-16T12:03:12Z</time>
      </trkpt>
      <trkpt lat="44.42521" lon="5.1433">
        <ele>1180.5</ele>
        <time>2022-10-16T12:03:11Z</time>
      </trkpt>
      <trkpt lat="44.42521" lon="5.14328">
        <ele>1180.4</ele>
        <time>2022-10-16T12:03:10Z</time>
      </trkpt>
      <trkpt lat="44.42521" lon="5.14327">
        <ele>1180.3</ele>
        <time>2022-10-16T12:03:09Z</time>
      </trkpt>
      <trkpt lat="44.42521" lon="5.14326">
        <ele>1180.2</ele>
        <time>2022-10-16T12:03:07Z</time>
      </trkpt>
      <trkpt lat="44.42521" lon="5.14325">
        <ele>1180.2</ele>
        <time>2022-10-16T12:03:05Z</time>
      </trkpt>
      <trkpt lat="44.42521" lon="5.14324">
        <ele>1180.1</ele>
        <time>2022-10-16T12:02:24Z</time>
      </trkpt>
      <trkpt lat="44.42521" lon="5.14323">
        <ele>1180</ele>
        <time>2022-10-16T12:02:23Z</time>
      </trkpt>
      <trkpt lat="44.42521" lon="5.14322">
        <ele>1179.9</ele>
        <time>2022-10-16T12:02:22Z</time>
      </trkpt>
      <trkpt lat="44.42521" lon="5.14321">
        <ele>1179.9</ele>
        <time>2022-10-16T12:02:21Z</time>
      </trkpt>
      <trkpt lat="44.42521" lon="5.1432">
        <ele>1179.8</ele>
        <time>2022-10-16T12:02:20Z</time>
      </trkpt>
      <trkpt lat="44.42522" lon="5.14319">
        <ele>1179.8</ele>
        <time>2022-10-16T12:02:19Z</time>
      </trkpt>
      <trkpt lat="44.42522" lon="5.14318">
        <ele>1179.8</ele>
        <time>2022-10-16T12:02:17Z</time>
      </trkpt>
      <trkpt lat="44.42523" lon="5.14317">
        <ele>1179.8</ele>
        <time>2022-10-16T12:02:16Z</time>
      </trkpt>
      <trkpt lat="44.42523" lon="5.14316">
        <ele>1179.8</ele>
        <time>2022-10-16T12:02:15Z</time>
      </trkpt>
      <trkpt lat="44.42524" lon="5.14315">
        <ele>1179.8</ele>
        <time>2022-10-16T12:02:14Z</time>
      </trkpt>
      <trkpt lat="44.42524" lon="5.14314">
        <ele>1179.8</ele>
        <time>2022-10-16T12:02:12Z</time>
      </trkpt>
      <trkpt lat="44.42525" lon="5.14313">
        <ele>1179.9</ele>
        <time>2022-10-16T12:02:11Z</time>
      </trkpt>
      <trkpt lat="44.42525" lon="5.14312">
        <ele>1179.8</ele>
        <time>2022-10-16T12:02:10Z</time>
      </trkpt>
      <trkpt lat="44.42526" lon="5.14311">
        <ele>1179.9</ele>
        <time>2022-10-16T12:02:09Z</time>
      </trkpt>
      <trkpt lat="44.42526" lon="5.1431">
        <ele>1179.9</ele>
        <time>2022-10-16T12:02:08Z</time>
      </trkpt>
      <trkpt lat="44.42526" lon="5.14309">
        <ele>1179.8</ele>
        <time>2022-10-16T12:02:07Z</time>
      </trkpt>
      <trkpt lat="44.42527" lon="5.14308">
        <ele>1180</ele>
        <time>2022-10-16T12:02:06Z</time>
      </trkpt>
      <trkpt lat="44.42527" lon="5.14306">
        <ele>1179.9</ele>
        <time>2022-10-16T12:02:05Z</time>
      </trkpt>
      <trkpt lat="44.42527" lon="5.14305">
        <ele>1179.8</ele>
        <time>2022-10-16T12:02:04Z</time>
      </trkpt>
      <trkpt lat="44.42528" lon="5.14304">
        <ele>1179.7</ele>
        <time>2022-10-16T12:02:03Z</time>
      </trkpt>
      <trkpt lat="44.42528" lon="5.14303">
        <ele>1179.6</ele>
        <time>2022-10-16T12:02:02Z</time>
      </trkpt>
      <trkpt lat="44.42528" lon="5.14302">
        <ele>1179.5</ele>
        <time>2022-10-16T12:02:01Z</time>
      </trkpt>
      <trkpt lat="44.42528" lon="5.14301">
        <ele>1179.3</ele>
        <time>2022-10-16T12:02:00Z</time>
      </trkpt>
      <trkpt lat="44.42529" lon="5.143">
        <ele>1179</ele>
        <time>2022-10-16T12:01:59Z</time>
      </trkpt>
      <trkpt lat="44.42529" lon="5.14299">
        <ele>1178.9</ele>
        <time>2022-10-16T12:01:58Z</time>
      </trkpt>
      <trkpt lat="44.42529" lon="5.14298">
        <ele>1178.8</ele>
        <time>2022-10-16T12:01:57Z</time>
      </trkpt>
      <trkpt lat="44.42529" lon="5.14297">
        <ele>1178.6</ele>
        <time>2022-10-16T12:01:56Z</time>
      </trkpt>
      <trkpt lat="44.42529" lon="5.14296">
        <ele>1178.5</ele>
        <time>2022-10-16T12:01:55Z</time>
      </trkpt>
      <trkpt lat="44.42529" lon="5.14295">
        <ele>1178.4</ele>
        <time>2022-10-16T12:01:54Z</time>
      </trkpt>
      <trkpt lat="44.4253" lon="5.14294">
        <ele>1178.2</ele>
        <time>2022-10-16T12:01:53Z</time>
      </trkpt>
      <trkpt lat="44.4253" lon="5.14293">
        <ele>1178</ele>
        <time>2022-10-16T12:01:52Z</time>
      </trkpt>
      <trkpt lat="44.4253" lon="5.14292">
        <ele>1177.9</ele>
        <time>2022-10-16T12:01:51Z</time>
      </trkpt>
      <trkpt lat="44.4253" lon="5.14291">
        <ele>1177.8</ele>
        <time>2022-10-16T12:01:50Z</time>
      </trkpt>
      <trkpt lat="44.4253" lon="5.1429">
        <ele>1177.7</ele>
        <time>2022-10-16T12:01:49Z</time>
      </trkpt>
      <trkpt lat="44.42531" lon="5.14289">
        <ele>1177.5</ele>
        <time>2022-10-16T12:01:48Z</time>
      </trkpt>
      <trkpt lat="44.42531" lon="5.14288">
        <ele>1177.4</ele>
        <time>2022-10-16T12:01:47Z</time>
      </trkpt>
      <trkpt lat="44.42531" lon="5.14287">
        <ele>1177.3</ele>
        <time>2022-10-16T12:01:46Z</time>
      </trkpt>
      <trkpt lat="44.42531" lon="5.14285">
        <ele>1177.1</ele>
        <time>2022-10-16T12:01:45Z</time>
      </trkpt>
      <trkpt lat="44.42531" lon="5.14284">
        <ele>1176.9</ele>
        <time>2022-10-16T12:01:44Z</time>
      </trkpt>
      <trkpt lat="44.42531" lon="5.14283">
        <ele>1176.8</ele>
        <time>2022-10-16T12:01:43Z</time>
      </trkpt>
      <trkpt lat="44.42531" lon="5.14282">
        <ele>1176.7</ele>
        <time>2022-10-16T12:01:42Z</time>
      </trkpt>
      <trkpt lat="44.42531" lon="5.14281">
        <ele>1176.6</ele>
        <time>2022-10-16T12:01:41Z</time>
      </trkpt>
      <trkpt lat="44.42531" lon="5.14279">
        <ele>1176.4</ele>
        <time>2022-10-16T12:01:40Z</time>
      </trkpt>
      <trkpt lat="44.42532" lon="5.14278">
        <ele>1176.3</ele>
        <time>2022-10-16T12:01:39Z</time>
      </trkpt>
      <trkpt lat="44.42532" lon="5.14277">
        <ele>1176.3</ele>
        <time>2022-10-16T12:01:38Z</time>
      </trkpt>
      <trkpt lat="44.42532" lon="5.14275">
        <ele>1176.2</ele>
        <time>2022-10-16T12:01:37Z</time>
      </trkpt>
      <trkpt lat="44.42532" lon="5.14274">
        <ele>1176.1</ele>
        <time>2022-10-16T12:01:36Z</time>
      </trkpt>
      <trkpt lat="44.42532" lon="5.14273">
        <ele>1176.1</ele>
        <time>2022-10-16T12:01:35Z</time>
      </trkpt>
      <trkpt lat="44.42533" lon="5.14271">
        <ele>1176.1</ele>
        <time>2022-10-16T12:01:34Z</time>
      </trkpt>
      <trkpt lat="44.42533" lon="5.1427">
        <ele>1176.1</ele>
        <time>2022-10-16T12:01:33Z</time>
      </trkpt>
      <trkpt lat="44.42533" lon="5.14268">
        <ele>1176</ele>
        <time>2022-10-16T12:01:32Z</time>
      </trkpt>
      <trkpt lat="44.42533" lon="5.14266">
        <ele>1175.9</ele>
        <time>2022-10-16T12:01:31Z</time>
      </trkpt>
      <trkpt lat="44.42533" lon="5.14265">
        <ele>1175.9</ele>
        <time>2022-10-16T12:01:30Z</time>
      </trkpt>
      <trkpt lat="44.42533" lon="5.14263">
        <ele>1175.8</ele>
        <time>2022-10-16T12:01:29Z</time>
      </trkpt>
      <trkpt lat="44.42533" lon="5.14261">
        <ele>1175.7</ele>
        <time>2022-10-16T12:01:28Z</time>
      </trkpt>
      <trkpt lat="44.42534" lon="5.14259">
        <ele>1175.9</ele>
        <time>2022-10-16T12:01:27Z</time>
      </trkpt>
      <trkpt lat="44.42534" lon="5.14258">
        <ele>1175.8</ele>
        <time>2022-10-16T12:01:26Z</time>
      </trkpt>
      <trkpt lat="44.42535" lon="5.14256">
        <ele>1176</ele>
        <time>2022-10-16T12:01:25Z</time>
      </trkpt>
      <trkpt lat="44.42536" lon="5.14255">
        <ele>1176.2</ele>
        <time>2022-10-16T12:01:24Z</time>
      </trkpt>
      <trkpt lat="44.42537" lon="5.14253">
        <ele>1176.4</ele>
        <time>2022-10-16T12:01:23Z</time>
      </trkpt>
      <trkpt lat="44.42538" lon="5.14252">
        <ele>1176.6</ele>
        <time>2022-10-16T12:01:22Z</time>
      </trkpt>
      <trkpt lat="44.42539" lon="5.14251">
        <ele>1176.8</ele>
        <time>2022-10-16T12:01:21Z</time>
      </trkpt>
      <trkpt lat="44.4254" lon="5.1425">
        <ele>1177.1</ele>
        <time>2022-10-16T12:01:19Z</time>
      </trkpt>
      <trkpt lat="44.42541" lon="5.14249">
        <ele>1177.2</ele>
        <time>2022-10-16T12:01:18Z</time>
      </trkpt>
      <trkpt lat="44.42541" lon="5.14248">
        <ele>1177.1</ele>
        <time>2022-10-16T12:01:16Z</time>
      </trkpt>
      <trkpt lat="44.42542" lon="5.14247">
        <ele>1177.3</ele>
        <time>2022-10-16T12:01:15Z</time>
      </trkpt>
      <trkpt lat="44.42542" lon="5.14246">
        <ele>1177.2</ele>
        <time>2022-10-16T12:01:14Z</time>
      </trkpt>
      <trkpt lat="44.42543" lon="5.14245">
        <ele>1177.4</ele>
        <time>2022-10-16T12:01:13Z</time>
      </trkpt>
      <trkpt lat="44.42543" lon="5.14244">
        <ele>1177.3</ele>
        <time>2022-10-16T12:01:12Z</time>
      </trkpt>
      <trkpt lat="44.42543" lon="5.14243">
        <ele>1177.2</ele>
        <time>2022-10-16T12:01:11Z</time>
      </trkpt>
      <trkpt lat="44.42544" lon="5.14242">
        <ele>1177.4</ele>
        <time>2022-10-16T12:01:10Z</time>
      </trkpt>
      <trkpt lat="44.42544" lon="5.14241">
        <ele>1177.4</ele>
        <time>2022-10-16T12:01:09Z</time>
      </trkpt>
      <trkpt lat="44.42545" lon="5.14241">
        <ele>1177.6</ele>
        <time>2022-10-16T12:01:08Z</time>
      </trkpt>
      <trkpt lat="44.42545" lon="5.1424">
        <ele>1177.6</ele>
        <time>2022-10-16T12:01:07Z</time>
      </trkpt>
      <trkpt lat="44.42546" lon="5.14239">
        <ele>1177.8</ele>
        <time>2022-10-16T12:01:06Z</time>
      </trkpt>
      <trkpt lat="44.42547" lon="5.14238">
        <ele>1178</ele>
        <time>2022-10-16T12:01:05Z</time>
      </trkpt>
      <trkpt lat="44.42547" lon="5.14237">
        <ele>1177.9</ele>
        <time>2022-10-16T12:01:04Z</time>
      </trkpt>
      <trkpt lat="44.42548" lon="5.14236">
        <ele>1178.2</ele>
        <time>2022-10-16T12:01:03Z</time>
      </trkpt>
      <trkpt lat="44.42548" lon="5.14235">
        <ele>1178.1</ele>
        <time>2022-10-16T12:01:02Z</time>
      </trkpt>
      <trkpt lat="44.42549" lon="5.14234">
        <ele>1178.4</ele>
        <time>2022-10-16T12:01:01Z</time>
      </trkpt>
      <trkpt lat="44.4255" lon="5.14232">
        <ele>1178.6</ele>
        <time>2022-10-16T12:01:00Z</time>
      </trkpt>
      <trkpt lat="44.4255" lon="5.14231">
        <ele>1178.5</ele>
        <time>2022-10-16T12:00:59Z</time>
      </trkpt>
      <trkpt lat="44.42551" lon="5.1423">
        <ele>1178.8</ele>
        <time>2022-10-16T12:00:58Z</time>
      </trkpt>
      <trkpt lat="44.42552" lon="5.14228">
        <ele>1179</ele>
        <time>2022-10-16T12:00:57Z</time>
      </trkpt>
      <trkpt lat="44.42552" lon="5.14227">
        <ele>1179</ele>
        <time>2022-10-16T12:00:56Z</time>
      </trkpt>
      <trkpt lat="44.42553" lon="5.14226">
        <ele>1179.3</ele>
        <time>2022-10-16T12:00:55Z</time>
      </trkpt>
      <trkpt lat="44.42554" lon="5.14225">
        <ele>1179.6</ele>
        <time>2022-10-16T12:00:54Z</time>
      </trkpt>
      <trkpt lat="44.42554" lon="5.14224">
        <ele>1179.5</ele>
        <time>2022-10-16T12:00:53Z</time>
      </trkpt>
      <trkpt lat="44.42555" lon="5.14223">
        <ele>1179.8</ele>
        <time>2022-10-16T12:00:52Z</time>
      </trkpt>
      <trkpt lat="44.42556" lon="5.14223">
        <ele>1180.1</ele>
        <time>2022-10-16T12:00:51Z</time>
      </trkpt>
      <trkpt lat="44.42557" lon="5.14222">
        <ele>1180.3</ele>
        <time>2022-10-16T12:00:50Z</time>
      </trkpt>
      <trkpt lat="44.42558" lon="5.14221">
        <ele>1180.4</ele>
        <time>2022-10-16T12:00:47Z</time>
      </trkpt>
      <trkpt lat="44.42559" lon="5.14221">
        <ele>1180.6</ele>
        <time>2022-10-16T12:00:46Z</time>
      </trkpt>
      <trkpt lat="44.42559" lon="5.1422">
        <ele>1180.5</ele>
        <time>2022-10-16T12:00:45Z</time>
      </trkpt>
      <trkpt lat="44.4256" lon="5.1422">
        <ele>1180.7</ele>
        <time>2022-10-16T12:00:43Z</time>
      </trkpt>
      <trkpt lat="44.42561" lon="5.14219">
        <ele>1180.8</ele>
        <time>2022-10-16T12:00:42Z</time>
      </trkpt>
      <trkpt lat="44.42562" lon="5.14219">
        <ele>1181</ele>
        <time>2022-10-16T12:00:41Z</time>
      </trkpt>
      <trkpt lat="44.42563" lon="5.14219">
        <ele>1181.3</ele>
        <time>2022-10-16T12:00:40Z</time>
      </trkpt>
      <trkpt lat="44.42564" lon="5.14219">
        <ele>1181.5</ele>
        <time>2022-10-16T12:00:38Z</time>
      </trkpt>
      <trkpt lat="44.42565" lon="5.14218">
        <ele>1181.6</ele>
        <time>2022-10-16T12:00:35Z</time>
      </trkpt>
      <trkpt lat="44.42566" lon="5.14218">
        <ele>1181.9</ele>
        <time>2022-10-16T12:00:33Z</time>
      </trkpt>
      <trkpt lat="44.42567" lon="5.14218">
        <ele>1182.1</ele>
        <time>2022-10-16T12:00:31Z</time>
      </trkpt>
      <trkpt lat="44.42568" lon="5.14218">
        <ele>1182.4</ele>
        <time>2022-10-16T12:00:29Z</time>
      </trkpt>
      <trkpt lat="44.42569" lon="5.14218">
        <ele>1182.6</ele>
        <time>2022-10-16T12:00:28Z</time>
      </trkpt>
      <trkpt lat="44.4257" lon="5.14218">
        <ele>1182.8</ele>
        <time>2022-10-16T12:00:27Z</time>
      </trkpt>
      <trkpt lat="44.42571" lon="5.14218">
        <ele>1183.1</ele>
        <time>2022-10-16T12:00:26Z</time>
      </trkpt>
      <trkpt lat="44.42572" lon="5.14218">
        <ele>1183.3</ele>
        <time>2022-10-16T12:00:25Z</time>
      </trkpt>
      <trkpt lat="44.42573" lon="5.14218">
        <ele>1183.5</ele>
        <time>2022-10-16T12:00:23Z</time>
      </trkpt>
      <trkpt lat="44.42574" lon="5.14219">
        <ele>1183.8</ele>
        <time>2022-10-16T12:00:22Z</time>
      </trkpt>
      <trkpt lat="44.42575" lon="5.14219">
        <ele>1184.1</ele>
        <time>2022-10-16T12:00:21Z</time>
      </trkpt>
      <trkpt lat="44.42576" lon="5.14219">
        <ele>1184.3</ele>
        <time>2022-10-16T12:00:20Z</time>
      </trkpt>
      <trkpt lat="44.42576" lon="5.1422">
        <ele>1184.3</ele>
        <time>2022-10-16T12:00:19Z</time>
      </trkpt>
      <trkpt lat="44.42577" lon="5.1422">
        <ele>1184.6</ele>
        <time>2022-10-16T12:00:18Z</time>
      </trkpt>
      <trkpt lat="44.42578" lon="5.1422">
        <ele>1184.8</ele>
        <time>2022-10-16T12:00:14Z</time>
      </trkpt>
      <trkpt lat="44.42579" lon="5.14221">
        <ele>1185</ele>
        <time>2022-10-16T12:00:13Z</time>
      </trkpt>
      <trkpt lat="44.42579" lon="5.1422">
        <ele>1185</ele>
        <time>2022-10-16T12:00:11Z</time>
      </trkpt>
      <trkpt lat="44.4258" lon="5.1422">
        <ele>1185.2</ele>
        <time>2022-10-16T12:00:10Z</time>
      </trkpt>
      <trkpt lat="44.42581" lon="5.1422">
        <ele>1185.5</ele>
        <time>2022-10-16T12:00:09Z</time>
      </trkpt>
      <trkpt lat="44.42581" lon="5.14219">
        <ele>1185.5</ele>
        <time>2022-10-16T12:00:08Z</time>
      </trkpt>
      <trkpt lat="44.42582" lon="5.14219">
        <ele>1185.7</ele>
        <time>2022-10-16T12:00:06Z</time>
      </trkpt>
      <trkpt lat="44.42583" lon="5.14218">
        <ele>1185.9</ele>
        <time>2022-10-16T12:00:04Z</time>
      </trkpt>
      <trkpt lat="44.42584" lon="5.14218">
        <ele>1186</ele>
        <time>2022-10-16T12:00:03Z</time>
      </trkpt>
      <trkpt lat="44.42585" lon="5.14217">
        <ele>1186.1</ele>
        <time>2022-10-16T12:00:01Z</time>
      </trkpt>
      <trkpt lat="44.42586" lon="5.14217">
        <ele>1186.1</ele>
        <time>2022-10-16T12:00:00Z</time>
      </trkpt>
      <trkpt lat="44.42586" lon="5.14216">
        <ele>1186.2</ele>
        <time>2022-10-16T11:59:59Z</time>
      </trkpt>
      <trkpt lat="44.42587" lon="5.14216">
        <ele>1186.2</ele>
        <time>2022-10-16T11:59:56Z</time>
      </trkpt>
      <trkpt lat="44.42588" lon="5.14215">
        <ele>1186.3</ele>
        <time>2022-10-16T11:59:54Z</time>
      </trkpt>
      <trkpt lat="44.42589" lon="5.14215">
        <ele>1186.4</ele>
        <time>2022-10-16T11:59:53Z</time>
      </trkpt>
      <trkpt lat="44.42589" lon="5.14214">
        <ele>1186.5</ele>
        <time>2022-10-16T11:59:52Z</time>
      </trkpt>
      <trkpt lat="44.4259" lon="5.14214">
        <ele>1186.6</ele>
        <time>2022-10-16T11:59:51Z</time>
      </trkpt>
      <trkpt lat="44.42591" lon="5.14214">
        <ele>1186.7</ele>
        <time>2022-10-16T11:59:45Z</time>
      </trkpt>
      <trkpt lat="44.42592" lon="5.14213">
        <ele>1186.8</ele>
        <time>2022-10-16T11:59:44Z</time>
      </trkpt>
      <trkpt lat="44.42593" lon="5.14212">
        <ele>1187</ele>
        <time>2022-10-16T11:59:42Z</time>
      </trkpt>
      <trkpt lat="44.42594" lon="5.14211">
        <ele>1187.2</ele>
        <time>2022-10-16T11:59:41Z</time>
      </trkpt>
      <trkpt lat="44.42594" lon="5.1421">
        <ele>1187.4</ele>
        <time>2022-10-16T11:59:40Z</time>
      </trkpt>
      <trkpt lat="44.42595" lon="5.14209">
        <ele>1187.6</ele>
        <time>2022-10-16T11:59:39Z</time>
      </trkpt>
      <trkpt lat="44.42595" lon="5.14208">
        <ele>1187.7</ele>
        <time>2022-10-16T11:59:37Z</time>
      </trkpt>
      <trkpt lat="44.42596" lon="5.14207">
        <ele>1188</ele>
        <time>2022-10-16T11:59:35Z</time>
      </trkpt>
      <trkpt lat="44.42597" lon="5.14206">
        <ele>1188.3</ele>
        <time>2022-10-16T11:59:34Z</time>
      </trkpt>
      <trkpt lat="44.42598" lon="5.14206">
        <ele>1188.5</ele>
        <time>2022-10-16T11:59:33Z</time>
      </trkpt>
      <trkpt lat="44.42599" lon="5.14206">
        <ele>1188.6</ele>
        <time>2022-10-16T11:59:32Z</time>
      </trkpt>
      <trkpt lat="44.42601" lon="5.14206">
        <ele>1189</ele>
        <time>2022-10-16T11:59:22Z</time>
      </trkpt>
      <trkpt lat="44.42602" lon="5.14206">
        <ele>1189.1</ele>
        <time>2022-10-16T11:59:21Z</time>
      </trkpt>
      <trkpt lat="44.42603" lon="5.14206">
        <ele>1189.3</ele>
        <time>2022-10-16T11:59:20Z</time>
      </trkpt>
      <trkpt lat="44.42604" lon="5.14205">
        <ele>1189.7</ele>
        <time>2022-10-16T11:59:18Z</time>
      </trkpt>
      <trkpt lat="44.42605" lon="5.14204">
        <ele>1190.1</ele>
        <time>2022-10-16T11:59:17Z</time>
      </trkpt>
      <trkpt lat="44.42606" lon="5.14204">
        <ele>1190.3</ele>
        <time>2022-10-16T11:59:16Z</time>
      </trkpt>
      <trkpt lat="44.42607" lon="5.14203">
        <ele>1190.7</ele>
        <time>2022-10-16T11:59:14Z</time>
      </trkpt>
      <trkpt lat="44.42608" lon="5.14202">
        <ele>1191.2</ele>
        <time>2022-10-16T11:59:12Z</time>
      </trkpt>
      <trkpt lat="44.42609" lon="5.14202">
        <ele>1191.4</ele>
        <time>2022-10-16T11:59:11Z</time>
      </trkpt>
      <trkpt lat="44.42609" lon="5.14201">
        <ele>1191.6</ele>
        <time>2022-10-16T11:59:10Z</time>
      </trkpt>
      <trkpt lat="44.4261" lon="5.14201">
        <ele>1191.9</ele>
        <time>2022-10-16T11:59:09Z</time>
      </trkpt>
      <trkpt lat="44.4261" lon="5.142">
        <ele>1192.1</ele>
        <time>2022-10-16T11:59:08Z</time>
      </trkpt>
      <trkpt lat="44.42611" lon="5.142">
        <ele>1192.4</ele>
        <time>2022-10-16T11:59:07Z</time>
      </trkpt>
      <trkpt lat="44.42611" lon="5.14199">
        <ele>1192.7</ele>
        <time>2022-10-16T11:59:06Z</time>
      </trkpt>
      <trkpt lat="44.42612" lon="5.14198">
        <ele>1193</ele>
        <time>2022-10-16T11:59:05Z</time>
      </trkpt>
      <trkpt lat="44.42613" lon="5.14198">
        <ele>1193.1</ele>
        <time>2022-10-16T11:59:04Z</time>
      </trkpt>
      <trkpt lat="44.42613" lon="5.14197">
        <ele>1193.4</ele>
        <time>2022-10-16T11:59:03Z</time>
      </trkpt>
      <trkpt lat="44.42614" lon="5.14197">
        <ele>1193.4</ele>
        <time>2022-10-16T11:59:01Z</time>
      </trkpt>
      <trkpt lat="44.42615" lon="5.14196">
        <ele>1193.8</ele>
        <time>2022-10-16T11:58:59Z</time>
      </trkpt>
      <trkpt lat="44.42616" lon="5.14196">
        <ele>1193.8</ele>
        <time>2022-10-16T11:58:57Z</time>
      </trkpt>
      <trkpt lat="44.42617" lon="5.14196">
        <ele>1193.9</ele>
        <time>2022-10-16T11:58:55Z</time>
      </trkpt>
      <trkpt lat="44.42618" lon="5.14196">
        <ele>1194</ele>
        <time>2022-10-16T11:58:54Z</time>
      </trkpt>
      <trkpt lat="44.42618" lon="5.14197">
        <ele>1193.6</ele>
        <time>2022-10-16T11:58:52Z</time>
      </trkpt>
      <trkpt lat="44.42619" lon="5.14197">
        <ele>1193.7</ele>
        <time>2022-10-16T11:58:49Z</time>
      </trkpt>
      <trkpt lat="44.4262" lon="5.14197">
        <ele>1193.7</ele>
        <time>2022-10-16T11:58:48Z</time>
      </trkpt>
      <trkpt lat="44.4262" lon="5.14196">
        <ele>1194.1</ele>
        <time>2022-10-16T11:58:47Z</time>
      </trkpt>
      <trkpt lat="44.4262" lon="5.14195">
        <ele>1194.4</ele>
        <time>2022-10-16T11:58:46Z</time>
      </trkpt>
      <trkpt lat="44.42621" lon="5.14193">
        <ele>1194.9</ele>
        <time>2022-10-16T11:58:25Z</time>
      </trkpt>
      <trkpt lat="44.42622" lon="5.14192">
        <ele>1195.1</ele>
        <time>2022-10-16T11:58:24Z</time>
      </trkpt>
      <trkpt lat="44.42623" lon="5.14191">
        <ele>1195.3</ele>
        <time>2022-10-16T11:58:23Z</time>
      </trkpt>
      <trkpt lat="44.42624" lon="5.1419">
        <ele>1195.6</ele>
        <time>2022-10-16T11:58:21Z</time>
      </trkpt>
      <trkpt lat="44.42625" lon="5.14189">
        <ele>1195.9</ele>
        <time>2022-10-16T11:58:20Z</time>
      </trkpt>
      <trkpt lat="44.42626" lon="5.14189">
        <ele>1196</ele>
        <time>2022-10-16T11:58:19Z</time>
      </trkpt>
      <trkpt lat="44.42626" lon="5.14188">
        <ele>1196.2</ele>
        <time>2022-10-16T11:58:18Z</time>
      </trkpt>
      <trkpt lat="44.42627" lon="5.14187">
        <ele>1196.5</ele>
        <time>2022-10-16T11:58:16Z</time>
      </trkpt>
      <trkpt lat="44.42628" lon="5.14186">
        <ele>1196.9</ele>
        <time>2022-10-16T11:58:14Z</time>
      </trkpt>
      <trkpt lat="44.42629" lon="5.14185">
        <ele>1197.3</ele>
        <time>2022-10-16T11:58:13Z</time>
      </trkpt>
      <trkpt lat="44.4263" lon="5.14184">
        <ele>1197.7</ele>
        <time>2022-10-16T11:58:12Z</time>
      </trkpt>
      <trkpt lat="44.42631" lon="5.14184">
        <ele>1197.9</ele>
        <time>2022-10-16T11:58:11Z</time>
      </trkpt>
      <trkpt lat="44.42631" lon="5.14183">
        <ele>1198.1</ele>
        <time>2022-10-16T11:58:10Z</time>
      </trkpt>
      <trkpt lat="44.42632" lon="5.14182">
        <ele>1198.5</ele>
        <time>2022-10-16T11:58:09Z</time>
      </trkpt>
      <trkpt lat="44.42632" lon="5.14181">
        <ele>1198.8</ele>
        <time>2022-10-16T11:58:08Z</time>
      </trkpt>
      <trkpt lat="44.42632" lon="5.1418">
        <ele>1199</ele>
        <time>2022-10-16T11:58:07Z</time>
      </trkpt>
      <trkpt lat="44.42633" lon="5.14179">
        <ele>1199.5</ele>
        <time>2022-10-16T11:58:06Z</time>
      </trkpt>
      <trkpt lat="44.42634" lon="5.14178">
        <ele>1200</ele>
        <time>2022-10-16T11:58:05Z</time>
      </trkpt>
      <trkpt lat="44.42634" lon="5.14177">
        <ele>1200.3</ele>
        <time>2022-10-16T11:58:04Z</time>
      </trkpt>
      <trkpt lat="44.42635" lon="5.14176">
        <ele>1200.9</ele>
        <time>2022-10-16T11:58:03Z</time>
      </trkpt>
      <trkpt lat="44.42636" lon="5.14175">
        <ele>1201.4</ele>
        <time>2022-10-16T11:58:02Z</time>
      </trkpt>
      <trkpt lat="44.42636" lon="5.14174">
        <ele>1201.7</ele>
        <time>2022-10-16T11:58:01Z</time>
      </trkpt>
      <trkpt lat="44.42637" lon="5.14174">
        <ele>1202</ele>
        <time>2022-10-16T11:58:00Z</time>
      </trkpt>
      <trkpt lat="44.42638" lon="5.14173">
        <ele>1202.7</ele>
        <time>2022-10-16T11:57:59Z</time>
      </trkpt>
      <trkpt lat="44.42638" lon="5.14172">
        <ele>1203</ele>
        <time>2022-10-16T11:57:58Z</time>
      </trkpt>
      <trkpt lat="44.42639" lon="5.14172">
        <ele>1203.3</ele>
        <time>2022-10-16T11:57:57Z</time>
      </trkpt>
      <trkpt lat="44.4264" lon="5.14171">
        <ele>1203.7</ele>
        <time>2022-10-16T11:57:55Z</time>
      </trkpt>
      <trkpt lat="44.42641" lon="5.1417">
        <ele>1204</ele>
        <time>2022-10-16T11:57:52Z</time>
      </trkpt>
      <trkpt lat="44.42642" lon="5.14169">
        <ele>1204.4</ele>
        <time>2022-10-16T11:57:50Z</time>
      </trkpt>
      <trkpt lat="44.42643" lon="5.14168">
        <ele>1204.8</ele>
        <time>2022-10-16T11:57:48Z</time>
      </trkpt>
      <trkpt lat="44.42644" lon="5.14168">
        <ele>1204.9</ele>
        <time>2022-10-16T11:57:47Z</time>
      </trkpt>
      <trkpt lat="44.42645" lon="5.14167">
        <ele>1205.3</ele>
        <time>2022-10-16T11:57:45Z</time>
      </trkpt>
      <trkpt lat="44.42646" lon="5.14167">
        <ele>1205.4</ele>
        <time>2022-10-16T11:57:43Z</time>
      </trkpt>
      <trkpt lat="44.42647" lon="5.14166">
        <ele>1205.6</ele>
        <time>2022-10-16T11:57:42Z</time>
      </trkpt>
      <trkpt lat="44.42648" lon="5.14166">
        <ele>1205.7</ele>
        <time>2022-10-16T11:57:41Z</time>
      </trkpt>
      <trkpt lat="44.42648" lon="5.14165">
        <ele>1205.8</ele>
        <time>2022-10-16T11:57:40Z</time>
      </trkpt>
      <trkpt lat="44.42649" lon="5.14164">
        <ele>1205.9</ele>
        <time>2022-10-16T11:57:38Z</time>
      </trkpt>
      <trkpt lat="44.4265" lon="5.14163">
        <ele>1206.1</ele>
        <time>2022-10-16T11:57:37Z</time>
      </trkpt>
      <trkpt lat="44.4265" lon="5.14162">
        <ele>1206.2</ele>
        <time>2022-10-16T11:57:36Z</time>
      </trkpt>
      <trkpt lat="44.42651" lon="5.14161">
        <ele>1206.4</ele>
        <time>2022-10-16T11:57:34Z</time>
      </trkpt>
      <trkpt lat="44.42652" lon="5.1416">
        <ele>1206.6</ele>
        <time>2022-10-16T11:57:33Z</time>
      </trkpt>
      <trkpt lat="44.42652" lon="5.14159">
        <ele>1206.7</ele>
        <time>2022-10-16T11:57:32Z</time>
      </trkpt>
      <trkpt lat="44.42653" lon="5.14159">
        <ele>1206.9</ele>
        <time>2022-10-16T11:57:31Z</time>
      </trkpt>
      <trkpt lat="44.42653" lon="5.14158">
        <ele>1207</ele>
        <time>2022-10-16T11:57:30Z</time>
      </trkpt>
      <trkpt lat="44.42653" lon="5.14157">
        <ele>1207.1</ele>
        <time>2022-10-16T11:57:29Z</time>
      </trkpt>
      <trkpt lat="44.42654" lon="5.14157">
        <ele>1207.3</ele>
        <time>2022-10-16T11:57:28Z</time>
      </trkpt>
      <trkpt lat="44.42654" lon="5.14156">
        <ele>1207.4</ele>
        <time>2022-10-16T11:57:27Z</time>
      </trkpt>
      <trkpt lat="44.42655" lon="5.14156">
        <ele>1207.6</ele>
        <time>2022-10-16T11:57:26Z</time>
      </trkpt>
      <trkpt lat="44.42655" lon="5.14155">
        <ele>1207.7</ele>
        <time>2022-10-16T11:57:25Z</time>
      </trkpt>
      <trkpt lat="44.42656" lon="5.14155">
        <ele>1207.9</ele>
        <time>2022-10-16T11:57:24Z</time>
      </trkpt>
      <trkpt lat="44.42656" lon="5.14154">
        <ele>1208</ele>
        <time>2022-10-16T11:57:23Z</time>
      </trkpt>
      <trkpt lat="44.42657" lon="5.14154">
        <ele>1208.2</ele>
        <time>2022-10-16T11:57:21Z</time>
      </trkpt>
      <trkpt lat="44.42657" lon="5.14153">
        <ele>1208.4</ele>
        <time>2022-10-16T11:57:20Z</time>
      </trkpt>
      <trkpt lat="44.42658" lon="5.14153">
        <ele>1208.6</ele>
        <time>2022-10-16T11:57:19Z</time>
      </trkpt>
      <trkpt lat="44.42658" lon="5.14152">
        <ele>1208.8</ele>
        <time>2022-10-16T11:57:17Z</time>
      </trkpt>
      <trkpt lat="44.42658" lon="5.14151">
        <ele>1208.9</ele>
        <time>2022-10-16T11:57:16Z</time>
      </trkpt>
      <trkpt lat="44.42659" lon="5.1415">
        <ele>1209.3</ele>
        <time>2022-10-16T11:57:15Z</time>
      </trkpt>
      <trkpt lat="44.42659" lon="5.14149">
        <ele>1209.5</ele>
        <time>2022-10-16T11:57:13Z</time>
      </trkpt>
      <trkpt lat="44.42659" lon="5.14148">
        <ele>1209.7</ele>
        <time>2022-10-16T11:57:12Z</time>
      </trkpt>
      <trkpt lat="44.4266" lon="5.14148">
        <ele>1209.9</ele>
        <time>2022-10-16T11:57:11Z</time>
      </trkpt>
      <trkpt lat="44.4266" lon="5.14147">
        <ele>1210.1</ele>
        <time>2022-10-16T11:57:10Z</time>
      </trkpt>
      <trkpt lat="44.42661" lon="5.14147">
        <ele>1210.4</ele>
        <time>2022-10-16T11:57:08Z</time>
      </trkpt>
      <trkpt lat="44.42662" lon="5.14147">
        <ele>1210.7</ele>
        <time>2022-10-16T11:57:06Z</time>
      </trkpt>
      <trkpt lat="44.42662" lon="5.14148">
        <ele>1210.5</ele>
        <time>2022-10-16T11:56:59Z</time>
      </trkpt>
      <trkpt lat="44.42663" lon="5.14148">
        <ele>1210.7</ele>
        <time>2022-10-16T11:56:58Z</time>
      </trkpt>
      <trkpt lat="44.42664" lon="5.14149">
        <ele>1210.8</ele>
        <time>2022-10-16T11:56:57Z</time>
      </trkpt>
      <trkpt lat="44.42664" lon="5.14148">
        <ele>1211</ele>
        <time>2022-10-16T11:56:56Z</time>
      </trkpt>
      <trkpt lat="44.42665" lon="5.14148">
        <ele>1211.3</ele>
        <time>2022-10-16T11:56:55Z</time>
      </trkpt>
      <trkpt lat="44.42666" lon="5.14147">
        <ele>1211.8</ele>
        <time>2022-10-16T11:56:54Z</time>
      </trkpt>
      <trkpt lat="44.42668" lon="5.14146">
        <ele>1212.2</ele>
        <time>2022-10-16T11:56:53Z</time>
      </trkpt>
      <trkpt lat="44.4267" lon="5.14144">
        <ele>1212.6</ele>
        <time>2022-10-16T11:54:13Z</time>
      </trkpt>
      <trkpt lat="44.4267" lon="5.14143">
        <ele>1212.9</ele>
        <time>2022-10-16T11:54:12Z</time>
      </trkpt>
      <trkpt lat="44.4267" lon="5.14142">
        <ele>1213.2</ele>
        <time>2022-10-16T11:54:11Z</time>
      </trkpt>
      <trkpt lat="44.4267" lon="5.14141">
        <ele>1213.4</ele>
        <time>2022-10-16T11:54:10Z</time>
      </trkpt>
      <trkpt lat="44.42671" lon="5.1414">
        <ele>1213.7</ele>
        <time>2022-10-16T11:54:09Z</time>
      </trkpt>
      <trkpt lat="44.42671" lon="5.14139">
        <ele>1214</ele>
        <time>2022-10-16T11:54:08Z</time>
      </trkpt>
      <trkpt lat="44.42672" lon="5.14138">
        <ele>1213.9</ele>
        <time>2022-10-16T11:54:07Z</time>
      </trkpt>
      <trkpt lat="44.42672" lon="5.14137">
        <ele>1213.9</ele>
        <time>2022-10-16T11:54:06Z</time>
      </trkpt>
      <trkpt lat="44.42673" lon="5.14136">
        <ele>1213.8</ele>
        <time>2022-10-16T11:54:05Z</time>
      </trkpt>
      <trkpt lat="44.42673" lon="5.14135">
        <ele>1213.7</ele>
        <time>2022-10-16T11:54:04Z</time>
      </trkpt>
      <trkpt lat="44.42674" lon="5.14134">
        <ele>1213.7</ele>
        <time>2022-10-16T11:54:03Z</time>
      </trkpt>
      <trkpt lat="44.42675" lon="5.14133">
        <ele>1213.7</ele>
        <time>2022-10-16T11:54:02Z</time>
      </trkpt>
      <trkpt lat="44.42675" lon="5.14132">
        <ele>1213.6</ele>
        <time>2022-10-16T11:54:01Z</time>
      </trkpt>
      <trkpt lat="44.42676" lon="5.14131">
        <ele>1213.6</ele>
        <time>2022-10-16T11:54:00Z</time>
      </trkpt>
      <trkpt lat="44.42676" lon="5.1413">
        <ele>1213.6</ele>
        <time>2022-10-16T11:53:59Z</time>
      </trkpt>
      <trkpt lat="44.42676" lon="5.14129">
        <ele>1213.5</ele>
        <time>2022-10-16T11:53:58Z</time>
      </trkpt>
      <trkpt lat="44.42676" lon="5.14128">
        <ele>1213.5</ele>
        <time>2022-10-16T11:53:57Z</time>
      </trkpt>
      <trkpt lat="44.42677" lon="5.14127">
        <ele>1213.5</ele>
        <time>2022-10-16T11:53:55Z</time>
      </trkpt>
      <trkpt lat="44.42678" lon="5.14126">
        <ele>1213.6</ele>
        <time>2022-10-16T11:53:47Z</time>
      </trkpt>
      <trkpt lat="44.42678" lon="5.14125">
        <ele>1213.5</ele>
        <time>2022-10-16T11:53:46Z</time>
      </trkpt>
      <trkpt lat="44.42678" lon="5.14124">
        <ele>1213.5</ele>
        <time>2022-10-16T11:53:45Z</time>
      </trkpt>
      <trkpt lat="44.42679" lon="5.14124">
        <ele>1213.6</ele>
        <time>2022-10-16T11:53:44Z</time>
      </trkpt>
      <trkpt lat="44.42679" lon="5.14123">
        <ele>1213.6</ele>
        <time>2022-10-16T11:53:43Z</time>
      </trkpt>
      <trkpt lat="44.4268" lon="5.14122">
        <ele>1213.6</ele>
        <time>2022-10-16T11:53:42Z</time>
      </trkpt>
      <trkpt lat="44.4268" lon="5.14121">
        <ele>1213.6</ele>
        <time>2022-10-16T11:53:41Z</time>
      </trkpt>
      <trkpt lat="44.4268" lon="5.1412">
        <ele>1213.6</ele>
        <time>2022-10-16T11:53:40Z</time>
      </trkpt>
      <trkpt lat="44.42681" lon="5.14119">
        <ele>1213.7</ele>
        <time>2022-10-16T11:53:39Z</time>
      </trkpt>
      <trkpt lat="44.42681" lon="5.14118">
        <ele>1213.7</ele>
        <time>2022-10-16T11:53:38Z</time>
      </trkpt>
      <trkpt lat="44.42682" lon="5.14116">
        <ele>1213.8</ele>
        <time>2022-10-16T11:53:37Z</time>
      </trkpt>
      <trkpt lat="44.42682" lon="5.14115">
        <ele>1213.8</ele>
        <time>2022-10-16T11:53:36Z</time>
      </trkpt>
      <trkpt lat="44.42682" lon="5.14113">
        <ele>1213.8</ele>
        <time>2022-10-16T11:53:35Z</time>
      </trkpt>
      <trkpt lat="44.42683" lon="5.14111">
        <ele>1213.9</ele>
        <time>2022-10-16T11:53:34Z</time>
      </trkpt>
      <trkpt lat="44.42683" lon="5.1411">
        <ele>1213.8</ele>
        <time>2022-10-16T11:53:33Z</time>
      </trkpt>
      <trkpt lat="44.42683" lon="5.14108">
        <ele>1213.6</ele>
        <time>2022-10-16T11:53:32Z</time>
      </trkpt>
      <trkpt lat="44.42684" lon="5.14107">
        <ele>1213.7</ele>
        <time>2022-10-16T11:53:31Z</time>
      </trkpt>
      <trkpt lat="44.42684" lon="5.14106">
        <ele>1213.6</ele>
        <time>2022-10-16T11:53:30Z</time>
      </trkpt>
      <trkpt lat="44.42684" lon="5.14104">
        <ele>1213.4</ele>
        <time>2022-10-16T11:53:29Z</time>
      </trkpt>
      <trkpt lat="44.42684" lon="5.14103">
        <ele>1213.3</ele>
        <time>2022-10-16T11:53:28Z</time>
      </trkpt>
      <trkpt lat="44.42685" lon="5.14101">
        <ele>1213.3</ele>
        <time>2022-10-16T11:53:27Z</time>
      </trkpt>
      <trkpt lat="44.42685" lon="5.141">
        <ele>1213.2</ele>
        <time>2022-10-16T11:53:26Z</time>
      </trkpt>
      <trkpt lat="44.42685" lon="5.14099">
        <ele>1213.1</ele>
        <time>2022-10-16T11:53:25Z</time>
      </trkpt>
      <trkpt lat="44.42684" lon="5.14098">
        <ele>1212.8</ele>
        <time>2022-10-16T11:53:24Z</time>
      </trkpt>
      <trkpt lat="44.42684" lon="5.14097">
        <ele>1212.7</ele>
        <time>2022-10-16T11:53:23Z</time>
      </trkpt>
      <trkpt lat="44.42684" lon="5.14096">
        <ele>1212.6</ele>
        <time>2022-10-16T11:53:20Z</time>
      </trkpt>
      <trkpt lat="44.42684" lon="5.14098">
        <ele>1212.8</ele>
        <time>2022-10-16T11:52:32Z</time>
      </trkpt>
      <trkpt lat="44.42683" lon="5.14099">
        <ele>1212.7</ele>
        <time>2022-10-16T11:52:31Z</time>
      </trkpt>
      <trkpt lat="44.42683" lon="5.141">
        <ele>1212.8</ele>
        <time>2022-10-16T11:52:30Z</time>
      </trkpt>
      <trkpt lat="44.42683" lon="5.14101">
        <ele>1212.9</ele>
        <time>2022-10-16T11:52:29Z</time>
      </trkpt>
      <trkpt lat="44.42683" lon="5.14103">
        <ele>1213.1</ele>
        <time>2022-10-16T11:52:28Z</time>
      </trkpt>
      <trkpt lat="44.42683" lon="5.14104">
        <ele>1213.2</ele>
        <time>2022-10-16T11:52:27Z</time>
      </trkpt>
      <trkpt lat="44.42683" lon="5.14105">
        <ele>1213.3</ele>
        <time>2022-10-16T11:52:26Z</time>
      </trkpt>
      <trkpt lat="44.42683" lon="5.14107">
        <ele>1213.5</ele>
        <time>2022-10-16T11:52:25Z</time>
      </trkpt>
      <trkpt lat="44.42683" lon="5.14108">
        <ele>1213.6</ele>
        <time>2022-10-16T11:52:24Z</time>
      </trkpt>
      <trkpt lat="44.42682" lon="5.14109">
        <ele>1213.5</ele>
        <time>2022-10-16T11:52:23Z</time>
      </trkpt>
      <trkpt lat="44.42682" lon="5.1411">
        <ele>1213.6</ele>
        <time>2022-10-16T11:52:22Z</time>
      </trkpt>
      <trkpt lat="44.42681" lon="5.14111">
        <ele>1213.6</ele>
        <time>2022-10-16T11:52:21Z</time>
      </trkpt>
      <trkpt lat="44.42681" lon="5.14112">
        <ele>1213.6</ele>
        <time>2022-10-16T11:52:20Z</time>
      </trkpt>
      <trkpt lat="44.4268" lon="5.14112">
        <ele>1213.4</ele>
        <time>2022-10-16T11:52:19Z</time>
      </trkpt>
      <trkpt lat="44.4268" lon="5.14113">
        <ele>1213.4</ele>
        <time>2022-10-16T11:52:18Z</time>
      </trkpt>
      <trkpt lat="44.42679" lon="5.14114">
        <ele>1213.3</ele>
        <time>2022-10-16T11:52:16Z</time>
      </trkpt>
      <trkpt lat="44.42679" lon="5.14115">
        <ele>1213.3</ele>
        <time>2022-10-16T11:52:14Z</time>
      </trkpt>
      <trkpt lat="44.42679" lon="5.14116">
        <ele>1213.4</ele>
        <time>2022-10-16T11:51:30Z</time>
      </trkpt>
      <trkpt lat="44.4268" lon="5.14117">
        <ele>1213.5</ele>
        <time>2022-10-16T11:50:09Z</time>
      </trkpt>
      <trkpt lat="44.4268" lon="5.14118">
        <ele>1213.5</ele>
        <time>2022-10-16T11:50:08Z</time>
      </trkpt>
      <trkpt lat="44.42679" lon="5.14119">
        <ele>1213.4</ele>
        <time>2022-10-16T11:50:07Z</time>
      </trkpt>
      <trkpt lat="44.42679" lon="5.1412">
        <ele>1213.5</ele>
        <time>2022-10-16T11:50:06Z</time>
      </trkpt>
      <trkpt lat="44.42678" lon="5.14121">
        <ele>1213.4</ele>
        <time>2022-10-16T11:50:05Z</time>
      </trkpt>
      <trkpt lat="44.42678" lon="5.14122">
        <ele>1213.4</ele>
        <time>2022-10-16T11:50:04Z</time>
      </trkpt>
      <trkpt lat="44.42678" lon="5.14123">
        <ele>1213.5</ele>
        <time>2022-10-16T11:50:03Z</time>
      </trkpt>
      <trkpt lat="44.42677" lon="5.14124">
        <ele>1213.4</ele>
        <time>2022-10-16T11:50:02Z</time>
      </trkpt>
      <trkpt lat="44.42677" lon="5.14125">
        <ele>1213.4</ele>
        <time>2022-10-16T11:50:01Z</time>
      </trkpt>
      <trkpt lat="44.42676" lon="5.14126">
        <ele>1213.4</ele>
        <time>2022-10-16T11:50:00Z</time>
      </trkpt>
      <trkpt lat="44.42676" lon="5.14127">
        <ele>1213.4</ele>
        <time>2022-10-16T11:49:59Z</time>
      </trkpt>
      <trkpt lat="44.42676" lon="5.14128">
        <ele>1213.5</ele>
        <time>2022-10-16T11:49:58Z</time>
      </trkpt>
      <trkpt lat="44.42675" lon="5.14129">
        <ele>1213.5</ele>
        <time>2022-10-16T11:49:57Z</time>
      </trkpt>
      <trkpt lat="44.42675" lon="5.1413">
        <ele>1213.5</ele>
        <time>2022-10-16T11:49:56Z</time>
      </trkpt>
      <trkpt lat="44.42674" lon="5.14131">
        <ele>1213.5</ele>
        <time>2022-10-16T11:49:55Z</time>
      </trkpt>
      <trkpt lat="44.42674" lon="5.14132">
        <ele>1213.6</ele>
        <time>2022-10-16T11:49:54Z</time>
      </trkpt>
      <trkpt lat="44.42674" lon="5.14133">
        <ele>1213.6</ele>
        <time>2022-10-16T11:49:53Z</time>
      </trkpt>
      <trkpt lat="44.42673" lon="5.14134">
        <ele>1213.7</ele>
        <time>2022-10-16T11:49:51Z</time>
      </trkpt>
      <trkpt lat="44.42672" lon="5.14135">
        <ele>1213.7</ele>
        <time>2022-10-16T11:49:50Z</time>
      </trkpt>
      <trkpt lat="44.42671" lon="5.14136">
        <ele>1213.8</ele>
        <time>2022-10-16T11:49:49Z</time>
      </trkpt>
      <trkpt lat="44.42671" lon="5.14137">
        <ele>1213.8</ele>
        <time>2022-10-16T11:49:48Z</time>
      </trkpt>
      <trkpt lat="44.4267" lon="5.14138">
        <ele>1213.9</ele>
        <time>2022-10-16T11:49:47Z</time>
      </trkpt>
      <trkpt lat="44.4267" lon="5.1414">
        <ele>1213.7</ele>
        <time>2022-10-16T11:49:46Z</time>
      </trkpt>
      <trkpt lat="44.4267" lon="5.14141">
        <ele>1213.4</ele>
        <time>2022-10-16T11:49:45Z</time>
      </trkpt>
      <trkpt lat="44.4267" lon="5.14142">
        <ele>1213.2</ele>
        <time>2022-10-16T11:49:44Z</time>
      </trkpt>
      <trkpt lat="44.4267" lon="5.14143">
        <ele>1212.9</ele>
        <time>2022-10-16T11:49:43Z</time>
      </trkpt>
      <trkpt lat="44.4267" lon="5.14144">
        <ele>1212.6</ele>
        <time>2022-10-16T11:49:42Z</time>
      </trkpt>
      <trkpt lat="44.42671" lon="5.14144">
        <ele>1212.6</ele>
        <time>2022-10-16T11:49:41Z</time>
      </trkpt>
      <trkpt lat="44.42673" lon="5.14146">
        <ele>1212</ele>
        <time>2022-10-16T11:49:11Z</time>
      </trkpt>
      <trkpt lat="44.42673" lon="5.14145">
        <ele>1212.3</ele>
        <time>2022-10-16T11:49:10Z</time>
      </trkpt>
      <trkpt lat="44.42674" lon="5.14145">
        <ele>1212.3</ele>
        <time>2022-10-16T11:49:07Z</time>
      </trkpt>
      <trkpt lat="44.42727" lon="5.14118">
        <ele>1207</ele>
        <time>2022-10-16T11:44:55Z</time>
      </trkpt>
      <trkpt lat="44.42727" lon="5.14119">
        <ele>1207</ele>
        <time>2022-10-16T11:44:54Z</time>
      </trkpt>
      <trkpt lat="44.42726" lon="5.1412">
        <ele>1207.2</ele>
        <time>2022-10-16T11:44:53Z</time>
      </trkpt>
      <trkpt lat="44.42726" lon="5.14122">
        <ele>1207.1</ele>
        <time>2022-10-16T11:44:52Z</time>
      </trkpt>
      <trkpt lat="44.42727" lon="5.14123">
        <ele>1206.7</ele>
        <time>2022-10-16T11:44:12Z</time>
      </trkpt>
      <trkpt lat="44.42727" lon="5.14124">
        <ele>1206.7</ele>
        <time>2022-10-16T11:43:35Z</time>
      </trkpt>
      <trkpt lat="44.42726" lon="5.14125">
        <ele>1206.9</ele>
        <time>2022-10-16T11:43:33Z</time>
      </trkpt>
      <trkpt lat="44.42724" lon="5.14126">
        <ele>1207.4</ele>
        <time>2022-10-16T11:43:08Z</time>
      </trkpt>
      <trkpt lat="44.42724" lon="5.14125">
        <ele>1207.5</ele>
        <time>2022-10-16T11:43:02Z</time>
      </trkpt>
      <trkpt lat="44.42724" lon="5.14124">
        <ele>1207.6</ele>
        <time>2022-10-16T11:43:00Z</time>
      </trkpt>
      <trkpt lat="44.42725" lon="5.14124">
        <ele>1207.3</ele>
        <time>2022-10-16T11:42:59Z</time>
      </trkpt>
      <trkpt lat="44.42726" lon="5.14124">
        <ele>1207</ele>
        <time>2022-10-16T11:42:58Z</time>
      </trkpt>
      <trkpt lat="44.42729" lon="5.14124">
        <ele>1206.1</ele>
        <time>2022-10-16T11:42:38Z</time>
      </trkpt>
      <trkpt lat="44.42729" lon="5.14123">
        <ele>1206.2</ele>
        <time>2022-10-16T11:41:21Z</time>
      </trkpt>
      <trkpt lat="44.4273" lon="5.14122">
        <ele>1205.9</ele>
        <time>2022-10-16T11:41:08Z</time>
      </trkpt>
      <trkpt lat="44.4273" lon="5.14123">
        <ele>1205.9</ele>
        <time>2022-10-16T11:40:57Z</time>
      </trkpt>
      <trkpt lat="44.42729" lon="5.14123">
        <ele>1206.2</ele>
        <time>2022-10-16T11:40:55Z</time>
      </trkpt>
      <trkpt lat="44.42728" lon="5.14123">
        <ele>1206.5</ele>
        <time>2022-10-16T11:40:54Z</time>
      </trkpt>
      <trkpt lat="44.42728" lon="5.14124">
        <ele>1206.4</ele>
        <time>2022-10-16T11:40:53Z</time>
      </trkpt>
      <trkpt lat="44.42728" lon="5.14125">
        <ele>1206.3</ele>
        <time>2022-10-16T11:40:31Z</time>
      </trkpt>
      <trkpt lat="44.42728" lon="5.14126">
        <ele>1206.3</ele>
        <time>2022-10-16T11:40:29Z</time>
      </trkpt>
      <trkpt lat="44.42727" lon="5.14126">
        <ele>1206.6</ele>
        <time>2022-10-16T11:40:28Z</time>
      </trkpt>
      <trkpt lat="44.42726" lon="5.14125">
        <ele>1206.9</ele>
        <time>2022-10-16T11:40:27Z</time>
      </trkpt>
      <trkpt lat="44.42726" lon="5.14124">
        <ele>1207</ele>
        <time>2022-10-16T11:40:26Z</time>
      </trkpt>
      <trkpt lat="44.42725" lon="5.14124">
        <ele>1207.3</ele>
        <time>2022-10-16T11:40:25Z</time>
      </trkpt>
      <trkpt lat="44.42724" lon="5.14123">
        <ele>1207.6</ele>
        <time>2022-10-16T11:40:24Z</time>
      </trkpt>
      <trkpt lat="44.42723" lon="5.14122">
        <ele>1208</ele>
        <time>2022-10-16T11:40:23Z</time>
      </trkpt>
      <trkpt lat="44.42722" lon="5.14122">
        <ele>1208.3</ele>
        <time>2022-10-16T11:40:21Z</time>
      </trkpt>
      <trkpt lat="44.42721" lon="5.14122">
        <ele>1208.5</ele>
        <time>2022-10-16T11:40:20Z</time>
      </trkpt>
      <trkpt lat="44.42722" lon="5.14123">
        <ele>1208.2</ele>
        <time>2022-10-16T11:40:18Z</time>
      </trkpt>
      <trkpt lat="44.42724" lon="5.14125">
        <ele>1207.5</ele>
        <time>2022-10-16T11:40:12Z</time>
      </trkpt>
      <trkpt lat="44.42725" lon="5.14126">
        <ele>1207.1</ele>
        <time>2022-10-16T11:40:11Z</time>
      </trkpt>
      <trkpt lat="44.42726" lon="5.14127">
        <ele>1206.8</ele>
        <time>2022-10-16T11:40:10Z</time>
      </trkpt>
      <trkpt lat="44.42727" lon="5.14128">
        <ele>1206.4</ele>
        <time>2022-10-16T11:37:25Z</time>
      </trkpt>
      <trkpt lat="44.42726" lon="5.14127">
        <ele>1206.8</ele>
        <time>2022-10-16T11:37:24Z</time>
      </trkpt>
      <trkpt lat="44.42725" lon="5.14125">
        <ele>1207.2</ele>
        <time>2022-10-16T11:37:14Z</time>
      </trkpt>
      <trkpt lat="44.42726" lon="5.14124">
        <ele>1207</ele>
        <time>2022-10-16T11:37:12Z</time>
      </trkpt>
      <trkpt lat="44.42727" lon="5.14124">
        <ele>1206.7</ele>
        <time>2022-10-16T11:37:09Z</time>
      </trkpt>
      <trkpt lat="44.42728" lon="5.14124">
        <ele>1206.4</ele>
        <time>2022-10-16T11:33:56Z</time>
      </trkpt>
      <trkpt lat="44.42727" lon="5.14124">
        <ele>1206.7</ele>
        <time>2022-10-16T11:33:55Z</time>
      </trkpt>
      <trkpt lat="44.42727" lon="5.14123">
        <ele>1206.7</ele>
        <time>2022-10-16T11:33:54Z</time>
      </trkpt>
      <trkpt lat="44.42726" lon="5.14121">
        <ele>1207.2</ele>
        <time>2022-10-16T11:33:43Z</time>
      </trkpt>
      <trkpt lat="44.42726" lon="5.14122">
        <ele>1207.1</ele>
        <time>2022-10-16T11:33:22Z</time>
      </trkpt>
      <trkpt lat="44.42726" lon="5.14123">
        <ele>1207</ele>
        <time>2022-10-16T11:33:20Z</time>
      </trkpt>
      <trkpt lat="44.42726" lon="5.14124">
        <ele>1207</ele>
        <time>2022-10-16T11:33:19Z</time>
      </trkpt>
      <trkpt lat="44.42726" lon="5.14125">
        <ele>1206.9</ele>
        <time>2022-10-16T11:33:17Z</time>
      </trkpt>
      <trkpt lat="44.42726" lon="5.14127">
        <ele>1206.8</ele>
        <time>2022-10-16T11:33:10Z</time>
      </trkpt>
      <trkpt lat="44.42726" lon="5.14128">
        <ele>1206.7</ele>
        <time>2022-10-16T11:33:09Z</time>
      </trkpt>
      <trkpt lat="44.42726" lon="5.1413">
        <ele>1206.6</ele>
        <time>2022-10-16T11:30:44Z</time>
      </trkpt>
      <trkpt lat="44.42727" lon="5.1413">
        <ele>1206.3</ele>
        <time>2022-10-16T11:30:43Z</time>
      </trkpt>
      <trkpt lat="44.42727" lon="5.14131">
        <ele>1206.3</ele>
        <time>2022-10-16T11:30:40Z</time>
      </trkpt>
      <trkpt lat="44.42727" lon="5.1413">
        <ele>1206.3</ele>
        <time>2022-10-16T11:30:23Z</time>
      </trkpt>
      <trkpt lat="44.42726" lon="5.14129">
        <ele>1206.7</ele>
        <time>2022-10-16T11:30:21Z</time>
      </trkpt>
      <trkpt lat="44.42725" lon="5.14128">
        <ele>1207</ele>
        <time>2022-10-16T11:30:08Z</time>
      </trkpt>
      <trkpt lat="44.42726" lon="5.14127">
        <ele>1206.8</ele>
        <time>2022-10-16T11:30:07Z</time>
      </trkpt>
      <trkpt lat="44.42726" lon="5.14128">
        <ele>1206.7</ele>
        <time>2022-10-16T11:30:05Z</time>
      </trkpt>
      <trkpt lat="44.42727" lon="5.14129">
        <ele>1206.4</ele>
        <time>2022-10-16T11:27:14Z</time>
      </trkpt>
      <trkpt lat="44.42726" lon="5.14129">
        <ele>1206.7</ele>
        <time>2022-10-16T11:27:13Z</time>
      </trkpt>
      <trkpt lat="44.42725" lon="5.1413">
        <ele>1206.9</ele>
        <time>2022-10-16T11:27:12Z</time>
      </trkpt>
      <trkpt lat="44.42724" lon="5.14131">
        <ele>1207.1</ele>
        <time>2022-10-16T11:24:54Z</time>
      </trkpt>
      <trkpt lat="44.42725" lon="5.1413">
        <ele>1206.9</ele>
        <time>2022-10-16T11:24:53Z</time>
      </trkpt>
      <trkpt lat="44.42725" lon="5.14129">
        <ele>1206.9</ele>
        <time>2022-10-16T11:24:45Z</time>
      </trkpt>
      <trkpt lat="44.42724" lon="5.14128">
        <ele>1207.3</ele>
        <time>2022-10-16T11:24:44Z</time>
      </trkpt>
      <trkpt lat="44.42724" lon="5.14127">
        <ele>1207.4</ele>
        <time>2022-10-16T11:24:43Z</time>
      </trkpt>
      <trkpt lat="44.42725" lon="5.14127">
        <ele>1207.1</ele>
        <time>2022-10-16T11:24:42Z</time>
      </trkpt>
      <trkpt lat="44.42725" lon="5.14126">
        <ele>1207.1</ele>
        <time>2022-10-16T11:24:41Z</time>
      </trkpt>
      <trkpt lat="44.42725" lon="5.14125">
        <ele>1207.2</ele>
        <time>2022-10-16T11:24:39Z</time>
      </trkpt>
      <trkpt lat="44.42726" lon="5.14125">
        <ele>1206.9</ele>
        <time>2022-10-16T11:24:37Z</time>
      </trkpt>
      <trkpt lat="44.42727" lon="5.14126">
        <ele>1206.6</ele>
        <time>2022-10-16T11:24:29Z</time>
      </trkpt>
      <trkpt lat="44.42726" lon="5.14126">
        <ele>1206.8</ele>
        <time>2022-10-16T11:24:28Z</time>
      </trkpt>
      <trkpt lat="44.42725" lon="5.14126">
        <ele>1207.1</ele>
        <time>2022-10-16T11:24:27Z</time>
      </trkpt>
      <trkpt lat="44.42723" lon="5.14126">
        <ele>1207.7</ele>
        <time>2022-10-16T11:23:47Z</time>
      </trkpt>
      <trkpt lat="44.42723" lon="5.14125">
        <ele>1207.8</ele>
        <time>2022-10-16T11:23:46Z</time>
      </trkpt>
      <trkpt lat="44.42723" lon="5.14126">
        <ele>1207.7</ele>
        <time>2022-10-16T11:23:45Z</time>
      </trkpt>
      <trkpt lat="44.42724" lon="5.14126">
        <ele>1207.4</ele>
        <time>2022-10-16T11:23:43Z</time>
      </trkpt>
      <trkpt lat="44.42724" lon="5.14127">
        <ele>1207.4</ele>
        <time>2022-10-16T11:23:42Z</time>
      </trkpt>
      <trkpt lat="44.42725" lon="5.14127">
        <ele>1207.1</ele>
        <time>2022-10-16T11:23:41Z</time>
      </trkpt>
      <trkpt lat="44.42726" lon="5.14127">
        <ele>1206.8</ele>
        <time>2022-10-16T11:23:40Z</time>
      </trkpt>
      <trkpt lat="44.42727" lon="5.14127">
        <ele>1206.5</ele>
        <time>2022-10-16T11:23:39Z</time>
      </trkpt>
      <trkpt lat="44.4273" lon="5.14126">
        <ele>1205.7</ele>
        <time>2022-10-16T11:22:32Z</time>
      </trkpt>
      <trkpt lat="44.42729" lon="5.14126">
        <ele>1206</ele>
        <time>2022-10-16T11:22:31Z</time>
      </trkpt>
      <trkpt lat="44.42729" lon="5.14127">
        <ele>1205.9</ele>
        <time>2022-10-16T11:22:30Z</time>
      </trkpt>
      <trkpt lat="44.42728" lon="5.14127">
        <ele>1206.2</ele>
        <time>2022-10-16T11:20:06Z</time>
      </trkpt>
      <trkpt lat="44.42729" lon="5.14127">
        <ele>1205.9</ele>
        <time>2022-10-16T11:20:04Z</time>
      </trkpt>
      <trkpt lat="44.42728" lon="5.14127">
        <ele>1206.2</ele>
        <time>2022-10-16T11:20:02Z</time>
      </trkpt>
      <trkpt lat="44.42727" lon="5.14126">
        <ele>1206.6</ele>
        <time>2022-10-16T11:13:47Z</time>
      </trkpt>
      <trkpt lat="44.42728" lon="5.14125">
        <ele>1206.3</ele>
        <time>2022-10-16T11:13:46Z</time>
      </trkpt>
      <trkpt lat="44.42729" lon="5.14125">
        <ele>1206</ele>
        <time>2022-10-16T11:13:45Z</time>
      </trkpt>
      <trkpt lat="44.42731" lon="5.14124">
        <ele>1205.5</ele>
        <time>2022-10-16T10:53:19Z</time>
      </trkpt>
      <trkpt lat="44.42731" lon="5.14123">
        <ele>1205.6</ele>
        <time>2022-10-16T10:53:18Z</time>
      </trkpt>
      <trkpt lat="44.42732" lon="5.14122">
        <ele>1205.3</ele>
        <time>2022-10-16T10:53:16Z</time>
      </trkpt>
      <trkpt lat="44.42732" lon="5.14121">
        <ele>1205.4</ele>
        <time>2022-10-16T10:53:15Z</time>
      </trkpt>
      <trkpt lat="44.42733" lon="5.14121">
        <ele>1205.1</ele>
        <time>2022-10-16T10:53:13Z</time>
      </trkpt>
      <trkpt lat="44.42733" lon="5.14122">
        <ele>1205</ele>
        <time>2022-10-16T10:53:11Z</time>
      </trkpt>
      <trkpt lat="44.42733" lon="5.14125">
        <ele>1204.9</ele>
        <time>2022-10-16T10:52:21Z</time>
      </trkpt>
      <trkpt lat="44.42733" lon="5.14126">
        <ele>1204.9</ele>
        <time>2022-10-16T10:52:20Z</time>
      </trkpt>
      <trkpt lat="44.42734" lon="5.14127">
        <ele>1204.5</ele>
        <time>2022-10-16T10:52:19Z</time>
      </trkpt>
      <trkpt lat="44.42735" lon="5.14129">
        <ele>1204.2</ele>
        <time>2022-10-16T10:48:56Z</time>
      </trkpt>
      <trkpt lat="44.42736" lon="5.14129">
        <ele>1203.9</ele>
        <time>2022-10-16T10:48:54Z</time>
      </trkpt>
      <trkpt lat="44.42737" lon="5.1413">
        <ele>1203.6</ele>
        <time>2022-10-16T10:48:52Z</time>
      </trkpt>
      <trkpt lat="44.42738" lon="5.1413">
        <ele>1203.3</ele>
        <time>2022-10-16T10:48:50Z</time>
      </trkpt>
      <trkpt lat="44.42739" lon="5.14131">
        <ele>1203</ele>
        <time>2022-10-16T10:48:48Z</time>
      </trkpt>
      <trkpt lat="44.4274" lon="5.14131">
        <ele>1202.7</ele>
        <time>2022-10-16T10:48:47Z</time>
      </trkpt>
      <trkpt lat="44.42741" lon="5.14132">
        <ele>1202.4</ele>
        <time>2022-10-16T10:48:45Z</time>
      </trkpt>
      <trkpt lat="44.42742" lon="5.14132">
        <ele>1202.2</ele>
        <time>2022-10-16T10:48:44Z</time>
      </trkpt>
      <trkpt lat="44.42742" lon="5.14133">
        <ele>1202.1</ele>
        <time>2022-10-16T10:48:43Z</time>
      </trkpt>
      <trkpt lat="44.42743" lon="5.14133">
        <ele>1201.9</ele>
        <time>2022-10-16T10:48:42Z</time>
      </trkpt>
      <trkpt lat="44.42743" lon="5.14134">
        <ele>1201.9</ele>
        <time>2022-10-16T10:48:41Z</time>
      </trkpt>
      <trkpt lat="44.42744" lon="5.14134">
        <ele>1201.6</ele>
        <time>2022-10-16T10:48:39Z</time>
      </trkpt>
      <trkpt lat="44.42745" lon="5.14135">
        <ele>1201.3</ele>
        <time>2022-10-16T10:48:37Z</time>
      </trkpt>
      <trkpt lat="44.42746" lon="5.14136">
        <ele>1201</ele>
        <time>2022-10-16T10:48:36Z</time>
      </trkpt>
      <trkpt lat="44.42747" lon="5.14136">
        <ele>1200.8</ele>
        <time>2022-10-16T10:48:35Z</time>
      </trkpt>
      <trkpt lat="44.42749" lon="5.14137">
        <ele>1200.3</ele>
        <time>2022-10-16T10:48:03Z</time>
      </trkpt>
      <trkpt lat="44.4275" lon="5.14138">
        <ele>1200</ele>
        <time>2022-10-16T10:48:01Z</time>
      </trkpt>
      <trkpt lat="44.42751" lon="5.14138">
        <ele>1199.7</ele>
        <time>2022-10-16T10:48:00Z</time>
      </trkpt>
      <trkpt lat="44.42751" lon="5.14139">
        <ele>1199.6</ele>
        <time>2022-10-16T10:47:59Z</time>
      </trkpt>
      <trkpt lat="44.42752" lon="5.14139">
        <ele>1199.3</ele>
        <time>2022-10-16T10:47:58Z</time>
      </trkpt>
      <trkpt lat="44.42753" lon="5.14139">
        <ele>1199</ele>
        <time>2022-10-16T10:47:57Z</time>
      </trkpt>
      <trkpt lat="44.42753" lon="5.1414">
        <ele>1198.7</ele>
        <time>2022-10-16T10:47:56Z</time>
      </trkpt>
      <trkpt lat="44.42754" lon="5.1414">
        <ele>1198.4</ele>
        <time>2022-10-16T10:47:55Z</time>
      </trkpt>
      <trkpt lat="44.42754" lon="5.14141">
        <ele>1198.2</ele>
        <time>2022-10-16T10:47:54Z</time>
      </trkpt>
      <trkpt lat="44.42755" lon="5.14141">
        <ele>1197.8</ele>
        <time>2022-10-16T10:47:53Z</time>
      </trkpt>
      <trkpt lat="44.42756" lon="5.14142">
        <ele>1197.3</ele>
        <time>2022-10-16T10:47:50Z</time>
      </trkpt>
      <trkpt lat="44.42757" lon="5.14143">
        <ele>1196.7</ele>
        <time>2022-10-16T10:47:48Z</time>
      </trkpt>
      <trkpt lat="44.42758" lon="5.14143">
        <ele>1196.4</ele>
        <time>2022-10-16T10:47:47Z</time>
      </trkpt>
      <trkpt lat="44.42758" lon="5.14144">
        <ele>1196.2</ele>
        <time>2022-10-16T10:47:46Z</time>
      </trkpt>
      <trkpt lat="44.42759" lon="5.14144">
        <ele>1195.9</ele>
        <time>2022-10-16T10:47:44Z</time>
      </trkpt>
      <trkpt lat="44.4276" lon="5.14145">
        <ele>1195.4</ele>
        <time>2022-10-16T10:47:42Z</time>
      </trkpt>
      <trkpt lat="44.42761" lon="5.14146">
        <ele>1194.9</ele>
        <time>2022-10-16T10:47:40Z</time>
      </trkpt>
      <trkpt lat="44.42762" lon="5.14147">
        <ele>1194.4</ele>
        <time>2022-10-16T10:47:38Z</time>
      </trkpt>
      <trkpt lat="44.42763" lon="5.14148">
        <ele>1193.9</ele>
        <time>2022-10-16T10:47:37Z</time>
      </trkpt>
      <trkpt lat="44.42764" lon="5.14148">
        <ele>1193.7</ele>
        <time>2022-10-16T10:47:36Z</time>
      </trkpt>
      <trkpt lat="44.42765" lon="5.14149">
        <ele>1193.2</ele>
        <time>2022-10-16T10:47:35Z</time>
      </trkpt>
      <trkpt lat="44.42766" lon="5.1415">
        <ele>1192.8</ele>
        <time>2022-10-16T10:47:34Z</time>
      </trkpt>
      <trkpt lat="44.42767" lon="5.1415">
        <ele>1192.5</ele>
        <time>2022-10-16T10:47:33Z</time>
      </trkpt>
      <trkpt lat="44.42769" lon="5.14151">
        <ele>1191.8</ele>
        <time>2022-10-16T10:47:15Z</time>
      </trkpt>
      <trkpt lat="44.42769" lon="5.14152">
        <ele>1191.7</ele>
        <time>2022-10-16T10:47:14Z</time>
      </trkpt>
      <trkpt lat="44.4277" lon="5.14152">
        <ele>1191.4</ele>
        <time>2022-10-16T10:47:12Z</time>
      </trkpt>
      <trkpt lat="44.4277" lon="5.14153">
        <ele>1191.3</ele>
        <time>2022-10-16T10:47:11Z</time>
      </trkpt>
      <trkpt lat="44.42771" lon="5.14153">
        <ele>1191.1</ele>
        <time>2022-10-16T10:47:10Z</time>
      </trkpt>
      <trkpt lat="44.42771" lon="5.14154">
        <ele>1190.9</ele>
        <time>2022-10-16T10:47:09Z</time>
      </trkpt>
      <trkpt lat="44.42772" lon="5.14154">
        <ele>1190.7</ele>
        <time>2022-10-16T10:47:08Z</time>
      </trkpt>
      <trkpt lat="44.42772" lon="5.14155">
        <ele>1190.5</ele>
        <time>2022-10-16T10:47:07Z</time>
      </trkpt>
      <trkpt lat="44.42773" lon="5.14155">
        <ele>1190.3</ele>
        <time>2022-10-16T10:47:06Z</time>
      </trkpt>
      <trkpt lat="44.42773" lon="5.14156">
        <ele>1190.2</ele>
        <time>2022-10-16T10:47:05Z</time>
      </trkpt>
      <trkpt lat="44.42774" lon="5.14156">
        <ele>1190</ele>
        <time>2022-10-16T10:47:04Z</time>
      </trkpt>
      <trkpt lat="44.42775" lon="5.14157">
        <ele>1189.6</ele>
        <time>2022-10-16T10:47:02Z</time>
      </trkpt>
      <trkpt lat="44.42776" lon="5.14158">
        <ele>1189.3</ele>
        <time>2022-10-16T10:47:00Z</time>
      </trkpt>
      <trkpt lat="44.42777" lon="5.14159">
        <ele>1189</ele>
        <time>2022-10-16T10:46:59Z</time>
      </trkpt>
      <trkpt lat="44.42778" lon="5.14159">
        <ele>1188.8</ele>
        <time>2022-10-16T10:46:58Z</time>
      </trkpt>
      <trkpt lat="44.42778" lon="5.1416">
        <ele>1188.7</ele>
        <time>2022-10-16T10:46:56Z</time>
      </trkpt>
      <trkpt lat="44.42779" lon="5.1416">
        <ele>1188.4</ele>
        <time>2022-10-16T10:46:55Z</time>
      </trkpt>
      <trkpt lat="44.42779" lon="5.14161">
        <ele>1188.3</ele>
        <time>2022-10-16T10:46:54Z</time>
      </trkpt>
      <trkpt lat="44.4278" lon="5.14162">
        <ele>1187.9</ele>
        <time>2022-10-16T10:46:52Z</time>
      </trkpt>
      <trkpt lat="44.42781" lon="5.14163">
        <ele>1187.6</ele>
        <time>2022-10-16T10:46:51Z</time>
      </trkpt>
      <trkpt lat="44.42781" lon="5.14164">
        <ele>1187.5</ele>
        <time>2022-10-16T10:46:50Z</time>
      </trkpt>
      <trkpt lat="44.42782" lon="5.14164">
        <ele>1187.2</ele>
        <time>2022-10-16T10:46:49Z</time>
      </trkpt>
      <trkpt lat="44.42783" lon="5.14165">
        <ele>1186.8</ele>
        <time>2022-10-16T10:46:48Z</time>
      </trkpt>
      <trkpt lat="44.42783" lon="5.14166">
        <ele>1186.7</ele>
        <time>2022-10-16T10:46:47Z</time>
      </trkpt>
      <trkpt lat="44.42784" lon="5.14167">
        <ele>1186.3</ele>
        <time>2022-10-16T10:46:45Z</time>
      </trkpt>
      <trkpt lat="44.42785" lon="5.14168">
        <ele>1185.8</ele>
        <time>2022-10-16T10:46:43Z</time>
      </trkpt>
      <trkpt lat="44.42786" lon="5.14168">
        <ele>1185.6</ele>
        <time>2022-10-16T10:46:42Z</time>
      </trkpt>
      <trkpt lat="44.42787" lon="5.14168">
        <ele>1185.3</ele>
        <time>2022-10-16T10:46:41Z</time>
      </trkpt>
      <trkpt lat="44.42789" lon="5.14168">
        <ele>1184.9</ele>
        <time>2022-10-16T10:46:40Z</time>
      </trkpt>
      <trkpt lat="44.42791" lon="5.14167">
        <ele>1184.6</ele>
        <time>2022-10-16T10:46:39Z</time>
      </trkpt>
      <trkpt lat="44.42794" lon="5.14166">
        <ele>1184</ele>
        <time>2022-10-16T10:45:55Z</time>
      </trkpt>
      <trkpt lat="44.42795" lon="5.14165">
        <ele>1183.8</ele>
        <time>2022-10-16T10:45:54Z</time>
      </trkpt>
      <trkpt lat="44.42796" lon="5.14165">
        <ele>1183.5</ele>
        <time>2022-10-16T10:45:52Z</time>
      </trkpt>
      <trkpt lat="44.42797" lon="5.14164">
        <ele>1183.3</ele>
        <time>2022-10-16T10:45:49Z</time>
      </trkpt>
      <trkpt lat="44.42798" lon="5.14164">
        <ele>1183.1</ele>
        <time>2022-10-16T10:45:48Z</time>
      </trkpt>
      <trkpt lat="44.42799" lon="5.14164">
        <ele>1182.8</ele>
        <time>2022-10-16T10:45:46Z</time>
      </trkpt>
      <trkpt lat="44.428" lon="5.14164">
        <ele>1182.5</ele>
        <time>2022-10-16T10:45:45Z</time>
      </trkpt>
      <trkpt lat="44.428" lon="5.14163">
        <ele>1182.6</ele>
        <time>2022-10-16T10:45:44Z</time>
      </trkpt>
      <trkpt lat="44.42801" lon="5.14163">
        <ele>1182.3</ele>
        <time>2022-10-16T10:45:43Z</time>
      </trkpt>
      <trkpt lat="44.42802" lon="5.14163">
        <ele>1182.1</ele>
        <time>2022-10-16T10:45:41Z</time>
      </trkpt>
      <trkpt lat="44.42803" lon="5.14163">
        <ele>1181.8</ele>
        <time>2022-10-16T10:45:40Z</time>
      </trkpt>
      <trkpt lat="44.42804" lon="5.14162">
        <ele>1181.6</ele>
        <time>2022-10-16T10:45:38Z</time>
      </trkpt>
      <trkpt lat="44.42805" lon="5.14162">
        <ele>1181.3</ele>
        <time>2022-10-16T10:45:37Z</time>
      </trkpt>
      <trkpt lat="44.42806" lon="5.14161">
        <ele>1181.1</ele>
        <time>2022-10-16T10:45:36Z</time>
      </trkpt>
      <trkpt lat="44.42807" lon="5.14161">
        <ele>1180.7</ele>
        <time>2022-10-16T10:45:34Z</time>
      </trkpt>
      <trkpt lat="44.42808" lon="5.1416">
        <ele>1180.5</ele>
        <time>2022-10-16T10:45:33Z</time>
      </trkpt>
      <trkpt lat="44.42809" lon="5.1416">
        <ele>1180.2</ele>
        <time>2022-10-16T10:45:32Z</time>
      </trkpt>
      <trkpt lat="44.4281" lon="5.1416">
        <ele>1179.8</ele>
        <time>2022-10-16T10:45:31Z</time>
      </trkpt>
      <trkpt lat="44.4281" lon="5.14159">
        <ele>1179.9</ele>
        <time>2022-10-16T10:45:30Z</time>
      </trkpt>
      <trkpt lat="44.42811" lon="5.14159">
        <ele>1179.6</ele>
        <time>2022-10-16T10:45:28Z</time>
      </trkpt>
      <trkpt lat="44.42812" lon="5.14158">
        <ele>1179.3</ele>
        <time>2022-10-16T10:45:27Z</time>
      </trkpt>
      <trkpt lat="44.42813" lon="5.14158">
        <ele>1179</ele>
        <time>2022-10-16T10:45:04Z</time>
      </trkpt>
      <trkpt lat="44.42814" lon="5.14157">
        <ele>1178.7</ele>
        <time>2022-10-16T10:45:02Z</time>
      </trkpt>
      <trkpt lat="44.42815" lon="5.14157">
        <ele>1178.4</ele>
        <time>2022-10-16T10:45:00Z</time>
      </trkpt>
      <trkpt lat="44.42815" lon="5.14156">
        <ele>1178.5</ele>
        <time>2022-10-16T10:44:59Z</time>
      </trkpt>
      <trkpt lat="44.42816" lon="5.14156">
        <ele>1178.1</ele>
        <time>2022-10-16T10:44:57Z</time>
      </trkpt>
      <trkpt lat="44.42817" lon="5.14155">
        <ele>1177.9</ele>
        <time>2022-10-16T10:44:56Z</time>
      </trkpt>
      <trkpt lat="44.42818" lon="5.14155">
        <ele>1177.6</ele>
        <time>2022-10-16T10:44:53Z</time>
      </trkpt>
      <trkpt lat="44.42819" lon="5.14155">
        <ele>1177.3</ele>
        <time>2022-10-16T10:44:51Z</time>
      </trkpt>
      <trkpt lat="44.4282" lon="5.14154">
        <ele>1177</ele>
        <time>2022-10-16T10:44:50Z</time>
      </trkpt>
      <trkpt lat="44.42821" lon="5.14154">
        <ele>1176.7</ele>
        <time>2022-10-16T10:44:48Z</time>
      </trkpt>
      <trkpt lat="44.42822" lon="5.14154">
        <ele>1176.4</ele>
        <time>2022-10-16T10:44:47Z</time>
      </trkpt>
      <trkpt lat="44.42823" lon="5.14153">
        <ele>1176.1</ele>
        <time>2022-10-16T10:44:45Z</time>
      </trkpt>
      <trkpt lat="44.42824" lon="5.14152">
        <ele>1175.9</ele>
        <time>2022-10-16T10:44:43Z</time>
      </trkpt>
      <trkpt lat="44.42825" lon="5.14152">
        <ele>1175.6</ele>
        <time>2022-10-16T10:44:42Z</time>
      </trkpt>
      <trkpt lat="44.42826" lon="5.14151">
        <ele>1175.4</ele>
        <time>2022-10-16T10:44:39Z</time>
      </trkpt>
      <trkpt lat="44.42827" lon="5.14151">
        <ele>1175.1</ele>
        <time>2022-10-16T10:44:37Z</time>
      </trkpt>
      <trkpt lat="44.42828" lon="5.1415">
        <ele>1174.8</ele>
        <time>2022-10-16T10:44:36Z</time>
      </trkpt>
      <trkpt lat="44.42829" lon="5.1415">
        <ele>1174.5</ele>
        <time>2022-10-16T10:44:34Z</time>
      </trkpt>
      <trkpt lat="44.4283" lon="5.1415">
        <ele>1174.2</ele>
        <time>2022-10-16T10:44:32Z</time>
      </trkpt>
      <trkpt lat="44.42831" lon="5.1415">
        <ele>1173.9</ele>
        <time>2022-10-16T10:44:31Z</time>
      </trkpt>
      <trkpt lat="44.42831" lon="5.14149">
        <ele>1174</ele>
        <time>2022-10-16T10:44:30Z</time>
      </trkpt>
      <trkpt lat="44.42832" lon="5.14149">
        <ele>1173.7</ele>
        <time>2022-10-16T10:44:28Z</time>
      </trkpt>
      <trkpt lat="44.42833" lon="5.14149">
        <ele>1173.4</ele>
        <time>2022-10-16T10:44:27Z</time>
      </trkpt>
      <trkpt lat="44.42834" lon="5.14149">
        <ele>1173.1</ele>
        <time>2022-10-16T10:44:10Z</time>
      </trkpt>
      <trkpt lat="44.42835" lon="5.14148">
        <ele>1172.9</ele>
        <time>2022-10-16T10:44:09Z</time>
      </trkpt>
      <trkpt lat="44.42836" lon="5.14148">
        <ele>1172.6</ele>
        <time>2022-10-16T10:44:07Z</time>
      </trkpt>
      <trkpt lat="44.42837" lon="5.14148">
        <ele>1172.3</ele>
        <time>2022-10-16T10:44:04Z</time>
      </trkpt>
      <trkpt lat="44.42838" lon="5.14148">
        <ele>1172</ele>
        <time>2022-10-16T10:44:02Z</time>
      </trkpt>
      <trkpt lat="44.42839" lon="5.14147">
        <ele>1171.8</ele>
        <time>2022-10-16T10:44:00Z</time>
      </trkpt>
      <trkpt lat="44.4284" lon="5.14147">
        <ele>1171.5</ele>
        <time>2022-10-16T10:43:59Z</time>
      </trkpt>
      <trkpt lat="44.42841" lon="5.14147">
        <ele>1171.2</ele>
        <time>2022-10-16T10:43:57Z</time>
      </trkpt>
      <trkpt lat="44.42842" lon="5.14147">
        <ele>1170.9</ele>
        <time>2022-10-16T10:43:56Z</time>
      </trkpt>
      <trkpt lat="44.42843" lon="5.14146">
        <ele>1170.7</ele>
        <time>2022-10-16T10:43:54Z</time>
      </trkpt>
      <trkpt lat="44.42844" lon="5.14146">
        <ele>1170.4</ele>
        <time>2022-10-16T10:43:53Z</time>
      </trkpt>
      <trkpt lat="44.42845" lon="5.14146">
        <ele>1170.1</ele>
        <time>2022-10-16T10:43:50Z</time>
      </trkpt>
      <trkpt lat="44.42846" lon="5.14146">
        <ele>1169.8</ele>
        <time>2022-10-16T10:43:47Z</time>
      </trkpt>
      <trkpt lat="44.42847" lon="5.14146">
        <ele>1169.6</ele>
        <time>2022-10-16T10:43:45Z</time>
      </trkpt>
      <trkpt lat="44.42848" lon="5.14146">
        <ele>1169.3</ele>
        <time>2022-10-16T10:43:43Z</time>
      </trkpt>
      <trkpt lat="44.42849" lon="5.14146">
        <ele>1169</ele>
        <time>2022-10-16T10:43:42Z</time>
      </trkpt>
      <trkpt lat="44.4285" lon="5.14146">
        <ele>1168.7</ele>
        <time>2022-10-16T10:43:40Z</time>
      </trkpt>
      <trkpt lat="44.42851" lon="5.14146">
        <ele>1168.4</ele>
        <time>2022-10-16T10:43:38Z</time>
      </trkpt>
      <trkpt lat="44.42852" lon="5.14146">
        <ele>1168.1</ele>
        <time>2022-10-16T10:43:36Z</time>
      </trkpt>
      <trkpt lat="44.42853" lon="5.14146">
        <ele>1167.8</ele>
        <time>2022-10-16T10:43:35Z</time>
      </trkpt>
      <trkpt lat="44.42854" lon="5.14145">
        <ele>1167.6</ele>
        <time>2022-10-16T10:43:34Z</time>
      </trkpt>
      <trkpt lat="44.42855" lon="5.14145">
        <ele>1167.3</ele>
        <time>2022-10-16T10:43:32Z</time>
      </trkpt>
      <trkpt lat="44.42856" lon="5.14144">
        <ele>1167.1</ele>
        <time>2022-10-16T10:43:31Z</time>
      </trkpt>
      <trkpt lat="44.42857" lon="5.14144">
        <ele>1166.8</ele>
        <time>2022-10-16T10:43:29Z</time>
      </trkpt>
      <trkpt lat="44.42858" lon="5.14143">
        <ele>1166.6</ele>
        <time>2022-10-16T10:43:27Z</time>
      </trkpt>
      <trkpt lat="44.42859" lon="5.14143">
        <ele>1166.3</ele>
        <time>2022-10-16T10:43:26Z</time>
      </trkpt>
      <trkpt lat="44.4286" lon="5.14143">
        <ele>1166</ele>
        <time>2022-10-16T10:43:25Z</time>
      </trkpt>
      <trkpt lat="44.4286" lon="5.14142">
        <ele>1166.1</ele>
        <time>2022-10-16T10:43:24Z</time>
      </trkpt>
      <trkpt lat="44.42861" lon="5.14142">
        <ele>1165.8</ele>
        <time>2022-10-16T10:43:23Z</time>
      </trkpt>
      <trkpt lat="44.42862" lon="5.14142">
        <ele>1165.5</ele>
        <time>2022-10-16T10:43:21Z</time>
      </trkpt>
      <trkpt lat="44.42863" lon="5.14142">
        <ele>1165.2</ele>
        <time>2022-10-16T10:43:19Z</time>
      </trkpt>
      <trkpt lat="44.42864" lon="5.14142">
        <ele>1164.9</ele>
        <time>2022-10-16T10:43:16Z</time>
      </trkpt>
      <trkpt lat="44.42865" lon="5.14143">
        <ele>1164.6</ele>
        <time>2022-10-16T10:43:14Z</time>
      </trkpt>
      <trkpt lat="44.42866" lon="5.14143">
        <ele>1164.3</ele>
        <time>2022-10-16T10:43:13Z</time>
      </trkpt>
      <trkpt lat="44.42867" lon="5.14143">
        <ele>1164</ele>
        <time>2022-10-16T10:43:11Z</time>
      </trkpt>
      <trkpt lat="44.42868" lon="5.14144">
        <ele>1163.6</ele>
        <time>2022-10-16T10:43:10Z</time>
      </trkpt>
      <trkpt lat="44.42869" lon="5.14144">
        <ele>1163.4</ele>
        <time>2022-10-16T10:43:08Z</time>
      </trkpt>
      <trkpt lat="44.4287" lon="5.14144">
        <ele>1163.1</ele>
        <time>2022-10-16T10:43:07Z</time>
      </trkpt>
      <trkpt lat="44.42871" lon="5.14144">
        <ele>1162.8</ele>
        <time>2022-10-16T10:43:06Z</time>
      </trkpt>
      <trkpt lat="44.42872" lon="5.14144">
        <ele>1162.5</ele>
        <time>2022-10-16T10:43:05Z</time>
      </trkpt>
      <trkpt lat="44.42873" lon="5.14144">
        <ele>1162.2</ele>
        <time>2022-10-16T10:42:41Z</time>
      </trkpt>
      <trkpt lat="44.42874" lon="5.14144">
        <ele>1161.9</ele>
        <time>2022-10-16T10:42:40Z</time>
      </trkpt>
      <trkpt lat="44.42875" lon="5.14143">
        <ele>1161.7</ele>
        <time>2022-10-16T10:42:39Z</time>
      </trkpt>
      <trkpt lat="44.42876" lon="5.14143">
        <ele>1161.4</ele>
        <time>2022-10-16T10:42:37Z</time>
      </trkpt>
      <trkpt lat="44.42877" lon="5.14144">
        <ele>1161.1</ele>
        <time>2022-10-16T10:42:36Z</time>
      </trkpt>
      <trkpt lat="44.42878" lon="5.14144">
        <ele>1160.8</ele>
        <time>2022-10-16T10:42:35Z</time>
      </trkpt>
      <trkpt lat="44.4288" lon="5.14144">
        <ele>1160.2</ele>
        <time>2022-10-16T10:42:34Z</time>
      </trkpt>
      <trkpt lat="44.42882" lon="5.14145">
        <ele>1159.5</ele>
        <time>2022-10-16T10:42:33Z</time>
      </trkpt>
      <trkpt lat="44.42885" lon="5.14146">
        <ele>1158.6</ele>
        <time>2022-10-16T10:42:14Z</time>
      </trkpt>
      <trkpt lat="44.42886" lon="5.14146">
        <ele>1158.3</ele>
        <time>2022-10-16T10:42:13Z</time>
      </trkpt>
      <trkpt lat="44.42887" lon="5.14147">
        <ele>1158</ele>
        <time>2022-10-16T10:42:12Z</time>
      </trkpt>
      <trkpt lat="44.42889" lon="5.14147">
        <ele>1157.4</ele>
        <time>2022-10-16T10:42:11Z</time>
      </trkpt>
      <trkpt lat="44.4289" lon="5.14147">
        <ele>1157.1</ele>
        <time>2022-10-16T10:42:10Z</time>
      </trkpt>
      <trkpt lat="44.42893" lon="5.14148">
        <ele>1156.1</ele>
        <time>2022-10-16T10:41:55Z</time>
      </trkpt>
      <trkpt lat="44.42894" lon="5.14148">
        <ele>1155.8</ele>
        <time>2022-10-16T10:41:53Z</time>
      </trkpt>
      <trkpt lat="44.42895" lon="5.14148">
        <ele>1155.5</ele>
        <time>2022-10-16T10:41:51Z</time>
      </trkpt>
      <trkpt lat="44.42896" lon="5.14148">
        <ele>1155.2</ele>
        <time>2022-10-16T10:41:50Z</time>
      </trkpt>
      <trkpt lat="44.42897" lon="5.14148">
        <ele>1154.9</ele>
        <time>2022-10-16T10:41:48Z</time>
      </trkpt>
      <trkpt lat="44.42898" lon="5.14148">
        <ele>1154.6</ele>
        <time>2022-10-16T10:41:47Z</time>
      </trkpt>
      <trkpt lat="44.42899" lon="5.14148">
        <ele>1154.3</ele>
        <time>2022-10-16T10:41:45Z</time>
      </trkpt>
      <trkpt lat="44.429" lon="5.14148">
        <ele>1154</ele>
        <time>2022-10-16T10:41:43Z</time>
      </trkpt>
      <trkpt lat="44.42901" lon="5.14148">
        <ele>1153.7</ele>
        <time>2022-10-16T10:41:42Z</time>
      </trkpt>
      <trkpt lat="44.42901" lon="5.14149">
        <ele>1153.6</ele>
        <time>2022-10-16T10:41:41Z</time>
      </trkpt>
      <trkpt lat="44.42902" lon="5.14149">
        <ele>1153.3</ele>
        <time>2022-10-16T10:41:39Z</time>
      </trkpt>
      <trkpt lat="44.42903" lon="5.14149">
        <ele>1153</ele>
        <time>2022-10-16T10:41:37Z</time>
      </trkpt>
      <trkpt lat="44.42904" lon="5.1415">
        <ele>1152.6</ele>
        <time>2022-10-16T10:41:36Z</time>
      </trkpt>
      <trkpt lat="44.42905" lon="5.1415">
        <ele>1152.3</ele>
        <time>2022-10-16T10:41:34Z</time>
      </trkpt>
      <trkpt lat="44.42906" lon="5.1415">
        <ele>1152</ele>
        <time>2022-10-16T10:41:32Z</time>
      </trkpt>
      <trkpt lat="44.42907" lon="5.1415">
        <ele>1151.7</ele>
        <time>2022-10-16T10:41:31Z</time>
      </trkpt>
      <trkpt lat="44.42908" lon="5.1415">
        <ele>1151.4</ele>
        <time>2022-10-16T10:41:30Z</time>
      </trkpt>
      <trkpt lat="44.42908" lon="5.14151">
        <ele>1151.3</ele>
        <time>2022-10-16T10:41:29Z</time>
      </trkpt>
      <trkpt lat="44.42909" lon="5.14151">
        <ele>1151</ele>
        <time>2022-10-16T10:41:27Z</time>
      </trkpt>
      <trkpt lat="44.4291" lon="5.14152">
        <ele>1150.6</ele>
        <time>2022-10-16T10:41:25Z</time>
      </trkpt>
      <trkpt lat="44.42911" lon="5.14152">
        <ele>1150.3</ele>
        <time>2022-10-16T10:41:24Z</time>
      </trkpt>
      <trkpt lat="44.42911" lon="5.14153">
        <ele>1150.2</ele>
        <time>2022-10-16T10:41:22Z</time>
      </trkpt>
      <trkpt lat="44.42912" lon="5.14153">
        <ele>1149.9</ele>
        <time>2022-10-16T10:41:21Z</time>
      </trkpt>
      <trkpt lat="44.42913" lon="5.14154">
        <ele>1149.5</ele>
        <time>2022-10-16T10:41:19Z</time>
      </trkpt>
      <trkpt lat="44.42914" lon="5.14154">
        <ele>1149.2</ele>
        <time>2022-10-16T10:41:17Z</time>
      </trkpt>
      <trkpt lat="44.42915" lon="5.14155">
        <ele>1148.8</ele>
        <time>2022-10-16T10:41:15Z</time>
      </trkpt>
      <trkpt lat="44.42916" lon="5.14155">
        <ele>1148.5</ele>
        <time>2022-10-16T10:41:14Z</time>
      </trkpt>
      <trkpt lat="44.42917" lon="5.14155">
        <ele>1148.2</ele>
        <time>2022-10-16T10:41:13Z</time>
      </trkpt>
      <trkpt lat="44.42917" lon="5.14156">
        <ele>1148.1</ele>
        <time>2022-10-16T10:41:12Z</time>
      </trkpt>
      <trkpt lat="44.42918" lon="5.14156">
        <ele>1147.7</ele>
        <time>2022-10-16T10:41:10Z</time>
      </trkpt>
      <trkpt lat="44.42919" lon="5.14156">
        <ele>1147.4</ele>
        <time>2022-10-16T10:41:09Z</time>
      </trkpt>
      <trkpt lat="44.4292" lon="5.14156">
        <ele>1147.1</ele>
        <time>2022-10-16T10:41:08Z</time>
      </trkpt>
      <trkpt lat="44.42921" lon="5.14156">
        <ele>1146.8</ele>
        <time>2022-10-16T10:41:07Z</time>
      </trkpt>
      <trkpt lat="44.42921" lon="5.14157">
        <ele>1146.7</ele>
        <time>2022-10-16T10:41:06Z</time>
      </trkpt>
      <trkpt lat="44.42922" lon="5.14157">
        <ele>1146.4</ele>
        <time>2022-10-16T10:41:05Z</time>
      </trkpt>
      <trkpt lat="44.42923" lon="5.14157">
        <ele>1146.1</ele>
        <time>2022-10-16T10:41:04Z</time>
      </trkpt>
      <trkpt lat="44.42924" lon="5.14157">
        <ele>1145.8</ele>
        <time>2022-10-16T10:41:03Z</time>
      </trkpt>
      <trkpt lat="44.42925" lon="5.14158">
        <ele>1145.4</ele>
        <time>2022-10-16T10:41:02Z</time>
      </trkpt>
      <trkpt lat="44.42927" lon="5.14158">
        <ele>1144.8</ele>
        <time>2022-10-16T10:41:01Z</time>
      </trkpt>
      <trkpt lat="44.42929" lon="5.1416">
        <ele>1144.1</ele>
        <time>2022-10-16T10:39:36Z</time>
      </trkpt>
      <trkpt lat="44.4293" lon="5.1416">
        <ele>1143.8</ele>
        <time>2022-10-16T10:39:35Z</time>
      </trkpt>
      <trkpt lat="44.4293" lon="5.14161">
        <ele>1143.7</ele>
        <time>2022-10-16T10:39:34Z</time>
      </trkpt>
      <trkpt lat="44.42931" lon="5.14161">
        <ele>1143.4</ele>
        <time>2022-10-16T10:39:33Z</time>
      </trkpt>
      <trkpt lat="44.42932" lon="5.14161">
        <ele>1143.1</ele>
        <time>2022-10-16T10:39:32Z</time>
      </trkpt>
      <trkpt lat="44.42932" lon="5.14162">
        <ele>1143</ele>
        <time>2022-10-16T10:39:30Z</time>
      </trkpt>
      <trkpt lat="44.42933" lon="5.14162">
        <ele>1142.7</ele>
        <time>2022-10-16T10:39:29Z</time>
      </trkpt>
      <trkpt lat="44.42934" lon="5.14162">
        <ele>1142.4</ele>
        <time>2022-10-16T10:39:28Z</time>
      </trkpt>
      <trkpt lat="44.42934" lon="5.14163">
        <ele>1142.3</ele>
        <time>2022-10-16T10:39:27Z</time>
      </trkpt>
      <trkpt lat="44.42935" lon="5.14163">
        <ele>1142</ele>
        <time>2022-10-16T10:39:26Z</time>
      </trkpt>
      <trkpt lat="44.42935" lon="5.14164">
        <ele>1141.9</ele>
        <time>2022-10-16T10:39:25Z</time>
      </trkpt>
      <trkpt lat="44.42936" lon="5.14164">
        <ele>1141.7</ele>
        <time>2022-10-16T10:39:23Z</time>
      </trkpt>
      <trkpt lat="44.42937" lon="5.14164">
        <ele>1141.4</ele>
        <time>2022-10-16T10:39:21Z</time>
      </trkpt>
      <trkpt lat="44.42938" lon="5.14164">
        <ele>1141.1</ele>
        <time>2022-10-16T10:39:20Z</time>
      </trkpt>
      <trkpt lat="44.42939" lon="5.14165">
        <ele>1140.7</ele>
        <time>2022-10-16T10:39:18Z</time>
      </trkpt>
      <trkpt lat="44.4294" lon="5.14165">
        <ele>1140.4</ele>
        <time>2022-10-16T10:39:16Z</time>
      </trkpt>
      <trkpt lat="44.42941" lon="5.14165">
        <ele>1140.1</ele>
        <time>2022-10-16T10:39:14Z</time>
      </trkpt>
      <trkpt lat="44.42942" lon="5.14165">
        <ele>1139.8</ele>
        <time>2022-10-16T10:39:13Z</time>
      </trkpt>
      <trkpt lat="44.42943" lon="5.14165">
        <ele>1139.5</ele>
        <time>2022-10-16T10:39:12Z</time>
      </trkpt>
      <trkpt lat="44.42943" lon="5.14166">
        <ele>1139.5</ele>
        <time>2022-10-16T10:39:11Z</time>
      </trkpt>
      <trkpt lat="44.42944" lon="5.14166">
        <ele>1139.2</ele>
        <time>2022-10-16T10:39:09Z</time>
      </trkpt>
      <trkpt lat="44.42945" lon="5.14166">
        <ele>1138.9</ele>
        <time>2022-10-16T10:39:07Z</time>
      </trkpt>
      <trkpt lat="44.42946" lon="5.14166">
        <ele>1138.5</ele>
        <time>2022-10-16T10:39:06Z</time>
      </trkpt>
      <trkpt lat="44.42947" lon="5.14166">
        <ele>1138.2</ele>
        <time>2022-10-16T10:39:04Z</time>
      </trkpt>
      <trkpt lat="44.42948" lon="5.14166">
        <ele>1137.9</ele>
        <time>2022-10-16T10:39:02Z</time>
      </trkpt>
      <trkpt lat="44.42949" lon="5.14166">
        <ele>1137.6</ele>
        <time>2022-10-16T10:39:00Z</time>
      </trkpt>
      <trkpt lat="44.4295" lon="5.14166">
        <ele>1137.2</ele>
        <time>2022-10-16T10:38:59Z</time>
      </trkpt>
      <trkpt lat="44.42951" lon="5.14166">
        <ele>1136.9</ele>
        <time>2022-10-16T10:38:57Z</time>
      </trkpt>
      <trkpt lat="44.42952" lon="5.14166">
        <ele>1136.6</ele>
        <time>2022-10-16T10:38:56Z</time>
      </trkpt>
      <trkpt lat="44.42953" lon="5.14165">
        <ele>1136.3</ele>
        <time>2022-10-16T10:38:54Z</time>
      </trkpt>
      <trkpt lat="44.42954" lon="5.14165">
        <ele>1136</ele>
        <time>2022-10-16T10:38:52Z</time>
      </trkpt>
      <trkpt lat="44.42955" lon="5.14165">
        <ele>1135.7</ele>
        <time>2022-10-16T10:38:51Z</time>
      </trkpt>
      <trkpt lat="44.42956" lon="5.14165">
        <ele>1135.4</ele>
        <time>2022-10-16T10:38:50Z</time>
      </trkpt>
      <trkpt lat="44.42957" lon="5.14164">
        <ele>1135.1</ele>
        <time>2022-10-16T10:38:36Z</time>
      </trkpt>
      <trkpt lat="44.42958" lon="5.14164">
        <ele>1134.8</ele>
        <time>2022-10-16T10:38:35Z</time>
      </trkpt>
      <trkpt lat="44.42959" lon="5.14164">
        <ele>1134.4</ele>
        <time>2022-10-16T10:38:33Z</time>
      </trkpt>
      <trkpt lat="44.4296" lon="5.14164">
        <ele>1134.1</ele>
        <time>2022-10-16T10:38:31Z</time>
      </trkpt>
      <trkpt lat="44.42961" lon="5.14164">
        <ele>1133.8</ele>
        <time>2022-10-16T10:38:30Z</time>
      </trkpt>
      <trkpt lat="44.42962" lon="5.14164">
        <ele>1133.4</ele>
        <time>2022-10-16T10:38:29Z</time>
      </trkpt>
      <trkpt lat="44.42962" lon="5.14165">
        <ele>1133.4</ele>
        <time>2022-10-16T10:38:28Z</time>
      </trkpt>
      <trkpt lat="44.42963" lon="5.14165">
        <ele>1133.1</ele>
        <time>2022-10-16T10:38:27Z</time>
      </trkpt>
      <trkpt lat="44.42964" lon="5.14165">
        <ele>1132.7</ele>
        <time>2022-10-16T10:38:25Z</time>
      </trkpt>
      <trkpt lat="44.42965" lon="5.14165">
        <ele>1132.4</ele>
        <time>2022-10-16T10:38:23Z</time>
      </trkpt>
      <trkpt lat="44.42966" lon="5.14165">
        <ele>1132.1</ele>
        <time>2022-10-16T10:38:22Z</time>
      </trkpt>
      <trkpt lat="44.42967" lon="5.14165">
        <ele>1131.8</ele>
        <time>2022-10-16T10:38:20Z</time>
      </trkpt>
      <trkpt lat="44.42968" lon="5.14165">
        <ele>1131.4</ele>
        <time>2022-10-16T10:38:19Z</time>
      </trkpt>
      <trkpt lat="44.42969" lon="5.14165">
        <ele>1131.1</ele>
        <time>2022-10-16T10:38:17Z</time>
      </trkpt>
      <trkpt lat="44.4297" lon="5.14165">
        <ele>1130.8</ele>
        <time>2022-10-16T10:38:16Z</time>
      </trkpt>
      <trkpt lat="44.42971" lon="5.14165">
        <ele>1130.5</ele>
        <time>2022-10-16T10:38:15Z</time>
      </trkpt>
      <trkpt lat="44.42972" lon="5.14165">
        <ele>1130.1</ele>
        <time>2022-10-16T10:38:14Z</time>
      </trkpt>
      <trkpt lat="44.42973" lon="5.14165">
        <ele>1129.8</ele>
        <time>2022-10-16T10:38:13Z</time>
      </trkpt>
      <trkpt lat="44.42974" lon="5.14165">
        <ele>1129.4</ele>
        <time>2022-10-16T10:38:12Z</time>
      </trkpt>
      <trkpt lat="44.42976" lon="5.14164">
        <ele>1128.7</ele>
        <time>2022-10-16T10:38:11Z</time>
      </trkpt>
      <trkpt lat="44.42978" lon="5.14164">
        <ele>1127.9</ele>
        <time>2022-10-16T10:38:10Z</time>
      </trkpt>
      <trkpt lat="44.42982" lon="5.14163">
        <ele>1126.4</ele>
        <time>2022-10-16T10:37:10Z</time>
      </trkpt>
      <trkpt lat="44.42983" lon="5.14163">
        <ele>1126</ele>
        <time>2022-10-16T10:37:08Z</time>
      </trkpt>
      <trkpt lat="44.42984" lon="5.14163">
        <ele>1125.7</ele>
        <time>2022-10-16T10:37:07Z</time>
      </trkpt>
      <trkpt lat="44.42985" lon="5.14163">
        <ele>1125.3</ele>
        <time>2022-10-16T10:37:06Z</time>
      </trkpt>
      <trkpt lat="44.42986" lon="5.14163">
        <ele>1124.9</ele>
        <time>2022-10-16T10:37:05Z</time>
      </trkpt>
      <trkpt lat="44.42988" lon="5.14163">
        <ele>1124.2</ele>
        <time>2022-10-16T10:37:04Z</time>
      </trkpt>
      <trkpt lat="44.4299" lon="5.14163">
        <ele>1123.4</ele>
        <time>2022-10-16T10:36:43Z</time>
      </trkpt>
      <trkpt lat="44.42991" lon="5.14163">
        <ele>1123</ele>
        <time>2022-10-16T10:36:41Z</time>
      </trkpt>
      <trkpt lat="44.42992" lon="5.14164">
        <ele>1122.7</ele>
        <time>2022-10-16T10:36:39Z</time>
      </trkpt>
      <trkpt lat="44.42993" lon="5.14164">
        <ele>1122.3</ele>
        <time>2022-10-16T10:36:38Z</time>
      </trkpt>
      <trkpt lat="44.42994" lon="5.14165">
        <ele>1122</ele>
        <time>2022-10-16T10:36:36Z</time>
      </trkpt>
      <trkpt lat="44.42995" lon="5.14166">
        <ele>1121.7</ele>
        <time>2022-10-16T10:36:35Z</time>
      </trkpt>
      <trkpt lat="44.42997" lon="5.14167">
        <ele>1121.1</ele>
        <time>2022-10-16T10:36:29Z</time>
      </trkpt>
      <trkpt lat="44.42998" lon="5.14168">
        <ele>1120.7</ele>
        <time>2022-10-16T10:36:28Z</time>
      </trkpt>
      <trkpt lat="44.42999" lon="5.14168">
        <ele>1120.3</ele>
        <time>2022-10-16T10:36:27Z</time>
      </trkpt>
      <trkpt lat="44.43" lon="5.14169">
        <ele>1119.9</ele>
        <time>2022-10-16T10:36:26Z</time>
      </trkpt>
      <trkpt lat="44.43001" lon="5.14169">
        <ele>1119.5</ele>
        <time>2022-10-16T10:36:25Z</time>
      </trkpt>
      <trkpt lat="44.43003" lon="5.1417">
        <ele>1118.5</ele>
        <time>2022-10-16T10:36:06Z</time>
      </trkpt>
      <trkpt lat="44.43004" lon="5.14171">
        <ele>1118</ele>
        <time>2022-10-16T10:36:04Z</time>
      </trkpt>
      <trkpt lat="44.43005" lon="5.14172">
        <ele>1117.6</ele>
        <time>2022-10-16T10:36:03Z</time>
      </trkpt>
      <trkpt lat="44.43006" lon="5.14173">
        <ele>1117.1</ele>
        <time>2022-10-16T10:36:02Z</time>
      </trkpt>
      <trkpt lat="44.4301" lon="5.14175">
        <ele>1115.3</ele>
        <time>2022-10-16T10:35:55Z</time>
      </trkpt>
      <trkpt lat="44.43013" lon="5.14177">
        <ele>1114.1</ele>
        <time>2022-10-16T10:35:54Z</time>
      </trkpt>
      <trkpt lat="44.43017" lon="5.14179">
        <ele>1112.4</ele>
        <time>2022-10-16T10:35:53Z</time>
      </trkpt>
      <trkpt lat="44.43022" lon="5.14183">
        <ele>1110.5</ele>
        <time>2022-10-16T10:35:16Z</time>
      </trkpt>
      <trkpt lat="44.43023" lon="5.14183">
        <ele>1110.1</ele>
        <time>2022-10-16T10:35:14Z</time>
      </trkpt>
      <trkpt lat="44.43024" lon="5.14184">
        <ele>1109.8</ele>
        <time>2022-10-16T10:35:11Z</time>
      </trkpt>
      <trkpt lat="44.43025" lon="5.14184">
        <ele>1109.4</ele>
        <time>2022-10-16T10:35:10Z</time>
      </trkpt>
      <trkpt lat="44.43025" lon="5.14185">
        <ele>1109.4</ele>
        <time>2022-10-16T10:35:09Z</time>
      </trkpt>
      <trkpt lat="44.43026" lon="5.14185">
        <ele>1109</ele>
        <time>2022-10-16T10:35:07Z</time>
      </trkpt>
      <trkpt lat="44.43027" lon="5.14186">
        <ele>1108.7</ele>
        <time>2022-10-16T10:35:05Z</time>
      </trkpt>
      <trkpt lat="44.43028" lon="5.14187">
        <ele>1108.4</ele>
        <time>2022-10-16T10:35:04Z</time>
      </trkpt>
      <trkpt lat="44.43029" lon="5.14187">
        <ele>1108</ele>
        <time>2022-10-16T10:35:03Z</time>
      </trkpt>
      <trkpt lat="44.43029" lon="5.14188">
        <ele>1108</ele>
        <time>2022-10-16T10:35:02Z</time>
      </trkpt>
      <trkpt lat="44.4303" lon="5.14189">
        <ele>1107.7</ele>
        <time>2022-10-16T10:35:01Z</time>
      </trkpt>
      <trkpt lat="44.43032" lon="5.1419">
        <ele>1107</ele>
        <time>2022-10-16T10:34:39Z</time>
      </trkpt>
      <trkpt lat="44.43033" lon="5.1419">
        <ele>1106.6</ele>
        <time>2022-10-16T10:34:38Z</time>
      </trkpt>
      <trkpt lat="44.43034" lon="5.14191">
        <ele>1106.3</ele>
        <time>2022-10-16T10:34:36Z</time>
      </trkpt>
      <trkpt lat="44.43035" lon="5.14192">
        <ele>1105.9</ele>
        <time>2022-10-16T10:34:35Z</time>
      </trkpt>
      <trkpt lat="44.43037" lon="5.14193">
        <ele>1105.2</ele>
        <time>2022-10-16T10:34:34Z</time>
      </trkpt>
      <trkpt lat="44.43038" lon="5.14193">
        <ele>1104.8</ele>
        <time>2022-10-16T10:34:33Z</time>
      </trkpt>
      <trkpt lat="44.43042" lon="5.14195">
        <ele>1103.4</ele>
        <time>2022-10-16T10:34:32Z</time>
      </trkpt>
      <trkpt lat="44.43045" lon="5.14197">
        <ele>1102.1</ele>
        <time>2022-10-16T10:34:31Z</time>
      </trkpt>
      <trkpt lat="44.43052" lon="5.142">
        <ele>1099.4</ele>
        <time>2022-10-16T10:33:46Z</time>
      </trkpt>
      <trkpt lat="44.43053" lon="5.14201">
        <ele>1099</ele>
        <time>2022-10-16T10:33:45Z</time>
      </trkpt>
      <trkpt lat="44.43055" lon="5.14201">
        <ele>1098.2</ele>
        <time>2022-10-16T10:33:44Z</time>
      </trkpt>
      <trkpt lat="44.43056" lon="5.14201">
        <ele>1097.8</ele>
        <time>2022-10-16T10:33:43Z</time>
      </trkpt>
      <trkpt lat="44.43058" lon="5.14202">
        <ele>1097.1</ele>
        <time>2022-10-16T10:33:32Z</time>
      </trkpt>
      <trkpt lat="44.43059" lon="5.14202">
        <ele>1096.8</ele>
        <time>2022-10-16T10:33:30Z</time>
      </trkpt>
      <trkpt lat="44.4306" lon="5.14202">
        <ele>1096.4</ele>
        <time>2022-10-16T10:33:29Z</time>
      </trkpt>
      <trkpt lat="44.4306" lon="5.14203">
        <ele>1096.4</ele>
        <time>2022-10-16T10:33:28Z</time>
      </trkpt>
      <trkpt lat="44.43061" lon="5.14203">
        <ele>1096.1</ele>
        <time>2022-10-16T10:33:26Z</time>
      </trkpt>
      <trkpt lat="44.43062" lon="5.14203">
        <ele>1095.8</ele>
        <time>2022-10-16T10:33:25Z</time>
      </trkpt>
      <trkpt lat="44.43062" lon="5.14204">
        <ele>1095.8</ele>
        <time>2022-10-16T10:33:24Z</time>
      </trkpt>
      <trkpt lat="44.43063" lon="5.14204">
        <ele>1095.4</ele>
        <time>2022-10-16T10:33:23Z</time>
      </trkpt>
      <trkpt lat="44.43064" lon="5.14204">
        <ele>1095.1</ele>
        <time>2022-10-16T10:33:21Z</time>
      </trkpt>
      <trkpt lat="44.43065" lon="5.14204">
        <ele>1094.7</ele>
        <time>2022-10-16T10:33:19Z</time>
      </trkpt>
      <trkpt lat="44.43066" lon="5.14204">
        <ele>1094.4</ele>
        <time>2022-10-16T10:33:18Z</time>
      </trkpt>
      <trkpt lat="44.43067" lon="5.14204">
        <ele>1094</ele>
        <time>2022-10-16T10:33:17Z</time>
      </trkpt>
      <trkpt lat="44.43068" lon="5.14204">
        <ele>1093.7</ele>
        <time>2022-10-16T10:33:16Z</time>
      </trkpt>
      <trkpt lat="44.43069" lon="5.14203">
        <ele>1093.3</ele>
        <time>2022-10-16T10:33:15Z</time>
      </trkpt>
      <trkpt lat="44.43071" lon="5.14203">
        <ele>1092.6</ele>
        <time>2022-10-16T10:33:14Z</time>
      </trkpt>
      <trkpt lat="44.43073" lon="5.14202">
        <ele>1091.9</ele>
        <time>2022-10-16T10:33:01Z</time>
      </trkpt>
      <trkpt lat="44.43073" lon="5.14203">
        <ele>1091.9</ele>
        <time>2022-10-16T10:33:00Z</time>
      </trkpt>
      <trkpt lat="44.43074" lon="5.14203">
        <ele>1091.6</ele>
        <time>2022-10-16T10:32:59Z</time>
      </trkpt>
      <trkpt lat="44.43074" lon="5.14204">
        <ele>1091.6</ele>
        <time>2022-10-16T10:32:58Z</time>
      </trkpt>
      <trkpt lat="44.43075" lon="5.14204">
        <ele>1091.2</ele>
        <time>2022-10-16T10:32:56Z</time>
      </trkpt>
      <trkpt lat="44.43075" lon="5.14205">
        <ele>1091.3</ele>
        <time>2022-10-16T10:32:55Z</time>
      </trkpt>
      <trkpt lat="44.43076" lon="5.14205">
        <ele>1090.9</ele>
        <time>2022-10-16T10:32:54Z</time>
      </trkpt>
      <trkpt lat="44.43076" lon="5.14206">
        <ele>1090.9</ele>
        <time>2022-10-16T10:32:53Z</time>
      </trkpt>
      <trkpt lat="44.43077" lon="5.14206">
        <ele>1090.6</ele>
        <time>2022-10-16T10:32:52Z</time>
      </trkpt>
      <trkpt lat="44.43077" lon="5.14207">
        <ele>1090.6</ele>
        <time>2022-10-16T10:32:50Z</time>
      </trkpt>
      <trkpt lat="44.43078" lon="5.14208">
        <ele>1090.3</ele>
        <time>2022-10-16T10:32:48Z</time>
      </trkpt>
      <trkpt lat="44.43078" lon="5.14209">
        <ele>1090.3</ele>
        <time>2022-10-16T10:32:47Z</time>
      </trkpt>
      <trkpt lat="44.43079" lon="5.14209">
        <ele>1090</ele>
        <time>2022-10-16T10:32:46Z</time>
      </trkpt>
      <trkpt lat="44.43079" lon="5.1421">
        <ele>1090</ele>
        <time>2022-10-16T10:32:45Z</time>
      </trkpt>
      <trkpt lat="44.4308" lon="5.1421">
        <ele>1089.7</ele>
        <time>2022-10-16T10:32:44Z</time>
      </trkpt>
      <trkpt lat="44.4308" lon="5.14211">
        <ele>1089.7</ele>
        <time>2022-10-16T10:32:43Z</time>
      </trkpt>
      <trkpt lat="44.43081" lon="5.14211">
        <ele>1089.4</ele>
        <time>2022-10-16T10:32:42Z</time>
      </trkpt>
      <trkpt lat="44.43081" lon="5.14212">
        <ele>1089.4</ele>
        <time>2022-10-16T10:32:40Z</time>
      </trkpt>
      <trkpt lat="44.43082" lon="5.14212">
        <ele>1089.1</ele>
        <time>2022-10-16T10:32:39Z</time>
      </trkpt>
      <trkpt lat="44.43082" lon="5.14213">
        <ele>1089.1</ele>
        <time>2022-10-16T10:32:38Z</time>
      </trkpt>
      <trkpt lat="44.43083" lon="5.14213">
        <ele>1088.8</ele>
        <time>2022-10-16T10:32:37Z</time>
      </trkpt>
      <trkpt lat="44.43084" lon="5.14214">
        <ele>1088.5</ele>
        <time>2022-10-16T10:32:36Z</time>
      </trkpt>
      <trkpt lat="44.43085" lon="5.14214">
        <ele>1088.2</ele>
        <time>2022-10-16T10:32:35Z</time>
      </trkpt>
      <trkpt lat="44.43085" lon="5.14215">
        <ele>1088.2</ele>
        <time>2022-10-16T10:32:32Z</time>
      </trkpt>
      <trkpt lat="44.43086" lon="5.14215">
        <ele>1087.9</ele>
        <time>2022-10-16T10:32:31Z</time>
      </trkpt>
      <trkpt lat="44.43086" lon="5.14216">
        <ele>1088</ele>
        <time>2022-10-16T10:32:30Z</time>
      </trkpt>
      <trkpt lat="44.43087" lon="5.14216">
        <ele>1087.7</ele>
        <time>2022-10-16T10:32:28Z</time>
      </trkpt>
      <trkpt lat="44.43088" lon="5.14217">
        <ele>1087.4</ele>
        <time>2022-10-16T10:32:26Z</time>
      </trkpt>
      <trkpt lat="44.43089" lon="5.14217">
        <ele>1087.1</ele>
        <time>2022-10-16T10:32:25Z</time>
      </trkpt>
      <trkpt lat="44.43089" lon="5.14218">
        <ele>1087.2</ele>
        <time>2022-10-16T10:32:24Z</time>
      </trkpt>
      <trkpt lat="44.4309" lon="5.14218">
        <ele>1086.9</ele>
        <time>2022-10-16T10:32:23Z</time>
      </trkpt>
      <trkpt lat="44.43091" lon="5.14219">
        <ele>1086.6</ele>
        <time>2022-10-16T10:32:20Z</time>
      </trkpt>
      <trkpt lat="44.43092" lon="5.1422">
        <ele>1086.4</ele>
        <time>2022-10-16T10:32:19Z</time>
      </trkpt>
      <trkpt lat="44.43093" lon="5.1422">
        <ele>1086.1</ele>
        <time>2022-10-16T10:32:17Z</time>
      </trkpt>
      <trkpt lat="44.43094" lon="5.14221">
        <ele>1085.9</ele>
        <time>2022-10-16T10:32:15Z</time>
      </trkpt>
      <trkpt lat="44.43095" lon="5.14221">
        <ele>1085.6</ele>
        <time>2022-10-16T10:32:14Z</time>
      </trkpt>
      <trkpt lat="44.43095" lon="5.14222">
        <ele>1085.6</ele>
        <time>2022-10-16T10:32:13Z</time>
      </trkpt>
      <trkpt lat="44.43096" lon="5.14222">
        <ele>1085.3</ele>
        <time>2022-10-16T10:32:12Z</time>
      </trkpt>
      <trkpt lat="44.43097" lon="5.14223">
        <ele>1085</ele>
        <time>2022-10-16T10:32:11Z</time>
      </trkpt>
      <trkpt lat="44.43098" lon="5.14224">
        <ele>1084.7</ele>
        <time>2022-10-16T10:32:10Z</time>
      </trkpt>
      <trkpt lat="44.43099" lon="5.14225">
        <ele>1084.4</ele>
        <time>2022-10-16T10:31:37Z</time>
      </trkpt>
      <trkpt lat="44.431" lon="5.14225">
        <ele>1084.2</ele>
        <time>2022-10-16T10:31:35Z</time>
      </trkpt>
      <trkpt lat="44.43101" lon="5.14226">
        <ele>1083.9</ele>
        <time>2022-10-16T10:31:34Z</time>
      </trkpt>
      <trkpt lat="44.43102" lon="5.14226">
        <ele>1083.6</ele>
        <time>2022-10-16T10:31:32Z</time>
      </trkpt>
      <trkpt lat="44.43103" lon="5.14227">
        <ele>1083.3</ele>
        <time>2022-10-16T10:31:29Z</time>
      </trkpt>
      <trkpt lat="44.43104" lon="5.14227">
        <ele>1083</ele>
        <time>2022-10-16T10:31:27Z</time>
      </trkpt>
      <trkpt lat="44.43105" lon="5.14228">
        <ele>1082.7</ele>
        <time>2022-10-16T10:31:26Z</time>
      </trkpt>
      <trkpt lat="44.43106" lon="5.14228">
        <ele>1082.4</ele>
        <time>2022-10-16T10:31:25Z</time>
      </trkpt>
      <trkpt lat="44.43106" lon="5.14229">
        <ele>1082.4</ele>
        <time>2022-10-16T10:31:24Z</time>
      </trkpt>
      <trkpt lat="44.43107" lon="5.14229">
        <ele>1082.1</ele>
        <time>2022-10-16T10:31:22Z</time>
      </trkpt>
      <trkpt lat="44.43108" lon="5.1423">
        <ele>1081.9</ele>
        <time>2022-10-16T10:31:21Z</time>
      </trkpt>
      <trkpt lat="44.43108" lon="5.14231">
        <ele>1081.9</ele>
        <time>2022-10-16T10:31:20Z</time>
      </trkpt>
      <trkpt lat="44.43109" lon="5.14231">
        <ele>1081.6</ele>
        <time>2022-10-16T10:31:19Z</time>
      </trkpt>
      <trkpt lat="44.43109" lon="5.14232">
        <ele>1081.6</ele>
        <time>2022-10-16T10:31:18Z</time>
      </trkpt>
      <trkpt lat="44.4311" lon="5.14232">
        <ele>1081.3</ele>
        <time>2022-10-16T10:31:16Z</time>
      </trkpt>
      <trkpt lat="44.4311" lon="5.14233">
        <ele>1081.3</ele>
        <time>2022-10-16T10:31:15Z</time>
      </trkpt>
      <trkpt lat="44.43111" lon="5.14233">
        <ele>1081</ele>
        <time>2022-10-16T10:31:13Z</time>
      </trkpt>
      <trkpt lat="44.43112" lon="5.14234">
        <ele>1080.8</ele>
        <time>2022-10-16T10:31:11Z</time>
      </trkpt>
      <trkpt lat="44.43113" lon="5.14234">
        <ele>1080.5</ele>
        <time>2022-10-16T10:31:10Z</time>
      </trkpt>
      <trkpt lat="44.43114" lon="5.14235">
        <ele>1080.2</ele>
        <time>2022-10-16T10:31:08Z</time>
      </trkpt>
      <trkpt lat="44.43115" lon="5.14235">
        <ele>1079.9</ele>
        <time>2022-10-16T10:31:07Z</time>
      </trkpt>
      <trkpt lat="44.43115" lon="5.14236">
        <ele>1079.9</ele>
        <time>2022-10-16T10:31:06Z</time>
      </trkpt>
      <trkpt lat="44.43116" lon="5.14236">
        <ele>1079.7</ele>
        <time>2022-10-16T10:31:04Z</time>
      </trkpt>
      <trkpt lat="44.43117" lon="5.14237">
        <ele>1079.4</ele>
        <time>2022-10-16T10:31:03Z</time>
      </trkpt>
      <trkpt lat="44.43118" lon="5.14237">
        <ele>1079.1</ele>
        <time>2022-10-16T10:31:01Z</time>
      </trkpt>
      <trkpt lat="44.43119" lon="5.14238">
        <ele>1078.9</ele>
        <time>2022-10-16T10:31:00Z</time>
      </trkpt>
      <trkpt lat="44.4312" lon="5.14238">
        <ele>1078.6</ele>
        <time>2022-10-16T10:30:58Z</time>
      </trkpt>
      <trkpt lat="44.43121" lon="5.14239">
        <ele>1078.4</ele>
        <time>2022-10-16T10:30:57Z</time>
      </trkpt>
      <trkpt lat="44.43122" lon="5.14239">
        <ele>1078.1</ele>
        <time>2022-10-16T10:30:56Z</time>
      </trkpt>
      <trkpt lat="44.43123" lon="5.1424">
        <ele>1077.8</ele>
        <time>2022-10-16T10:30:54Z</time>
      </trkpt>
      <trkpt lat="44.43124" lon="5.1424">
        <ele>1077.6</ele>
        <time>2022-10-16T10:30:53Z</time>
      </trkpt>
      <trkpt lat="44.43125" lon="5.1424">
        <ele>1077.3</ele>
        <time>2022-10-16T10:30:52Z</time>
      </trkpt>
      <trkpt lat="44.43126" lon="5.14241">
        <ele>1077.1</ele>
        <time>2022-10-16T10:30:50Z</time>
      </trkpt>
      <trkpt lat="44.43127" lon="5.14241">
        <ele>1076.8</ele>
        <time>2022-10-16T10:30:49Z</time>
      </trkpt>
      <trkpt lat="44.43128" lon="5.14241">
        <ele>1076.5</ele>
        <time>2022-10-16T10:30:48Z</time>
      </trkpt>
      <trkpt lat="44.43129" lon="5.14241">
        <ele>1076.3</ele>
        <time>2022-10-16T10:30:46Z</time>
      </trkpt>
      <trkpt lat="44.4313" lon="5.14242">
        <ele>1076</ele>
        <time>2022-10-16T10:30:45Z</time>
      </trkpt>
      <trkpt lat="44.43131" lon="5.14242">
        <ele>1075.8</ele>
        <time>2022-10-16T10:30:44Z</time>
      </trkpt>
      <trkpt lat="44.43132" lon="5.14242">
        <ele>1075.5</ele>
        <time>2022-10-16T10:30:43Z</time>
      </trkpt>
      <trkpt lat="44.43133" lon="5.14242">
        <ele>1075.3</ele>
        <time>2022-10-16T10:30:42Z</time>
      </trkpt>
      <trkpt lat="44.43133" lon="5.14243">
        <ele>1075.3</ele>
        <time>2022-10-16T10:30:41Z</time>
      </trkpt>
      <trkpt lat="44.43134" lon="5.14243">
        <ele>1075</ele>
        <time>2022-10-16T10:30:40Z</time>
      </trkpt>
      <trkpt lat="44.43135" lon="5.14243">
        <ele>1074.8</ele>
        <time>2022-10-16T10:30:39Z</time>
      </trkpt>
      <trkpt lat="44.43136" lon="5.14243">
        <ele>1074.5</ele>
        <time>2022-10-16T10:30:37Z</time>
      </trkpt>
      <trkpt lat="44.43137" lon="5.14244">
        <ele>1074.3</ele>
        <time>2022-10-16T10:30:36Z</time>
      </trkpt>
      <trkpt lat="44.43138" lon="5.14244">
        <ele>1074</ele>
        <time>2022-10-16T10:30:35Z</time>
      </trkpt>
      <trkpt lat="44.43138" lon="5.14245">
        <ele>1074</ele>
        <time>2022-10-16T10:30:34Z</time>
      </trkpt>
      <trkpt lat="44.43139" lon="5.14245">
        <ele>1073.8</ele>
        <time>2022-10-16T10:30:33Z</time>
      </trkpt>
      <trkpt lat="44.4314" lon="5.14246">
        <ele>1073.7</ele>
        <time>2022-10-16T10:30:32Z</time>
      </trkpt>
      <trkpt lat="44.43141" lon="5.14246">
        <ele>1073.5</ele>
        <time>2022-10-16T10:30:31Z</time>
      </trkpt>
      <trkpt lat="44.43141" lon="5.14247">
        <ele>1073.5</ele>
        <time>2022-10-16T10:30:30Z</time>
      </trkpt>
      <trkpt lat="44.43142" lon="5.14247">
        <ele>1073.3</ele>
        <time>2022-10-16T10:30:29Z</time>
      </trkpt>
      <trkpt lat="44.43143" lon="5.14248">
        <ele>1073.2</ele>
        <time>2022-10-16T10:30:28Z</time>
      </trkpt>
      <trkpt lat="44.43144" lon="5.14248">
        <ele>1073</ele>
        <time>2022-10-16T10:30:27Z</time>
      </trkpt>
      <trkpt lat="44.43144" lon="5.14249">
        <ele>1073</ele>
        <time>2022-10-16T10:30:26Z</time>
      </trkpt>
      <trkpt lat="44.43145" lon="5.14249">
        <ele>1072.9</ele>
        <time>2022-10-16T10:30:25Z</time>
      </trkpt>
      <trkpt lat="44.43146" lon="5.14249">
        <ele>1072.7</ele>
        <time>2022-10-16T10:30:24Z</time>
      </trkpt>
      <trkpt lat="44.43147" lon="5.1425">
        <ele>1072.5</ele>
        <time>2022-10-16T10:30:23Z</time>
      </trkpt>
      <trkpt lat="44.43148" lon="5.1425">
        <ele>1072.4</ele>
        <time>2022-10-16T10:30:22Z</time>
      </trkpt>
      <trkpt lat="44.43148" lon="5.14251">
        <ele>1072.4</ele>
        <time>2022-10-16T10:30:21Z</time>
      </trkpt>
      <trkpt lat="44.43149" lon="5.14251">
        <ele>1072.2</ele>
        <time>2022-10-16T10:30:20Z</time>
      </trkpt>
      <trkpt lat="44.4315" lon="5.14252">
        <ele>1072</ele>
        <time>2022-10-16T10:30:19Z</time>
      </trkpt>
      <trkpt lat="44.43151" lon="5.14252">
        <ele>1071.9</ele>
        <time>2022-10-16T10:30:18Z</time>
      </trkpt>
      <trkpt lat="44.43152" lon="5.14253">
        <ele>1071.7</ele>
        <time>2022-10-16T10:30:17Z</time>
      </trkpt>
      <trkpt lat="44.43153" lon="5.14253">
        <ele>1071.5</ele>
        <time>2022-10-16T10:30:16Z</time>
      </trkpt>
      <trkpt lat="44.43153" lon="5.14254">
        <ele>1071.5</ele>
        <time>2022-10-16T10:30:15Z</time>
      </trkpt>
      <trkpt lat="44.43154" lon="5.14254">
        <ele>1071.4</ele>
        <time>2022-10-16T10:30:14Z</time>
      </trkpt>
      <trkpt lat="44.43155" lon="5.14255">
        <ele>1071.2</ele>
        <time>2022-10-16T10:30:13Z</time>
      </trkpt>
      <trkpt lat="44.43156" lon="5.14255">
        <ele>1071</ele>
        <time>2022-10-16T10:30:12Z</time>
      </trkpt>
      <trkpt lat="44.43156" lon="5.14256">
        <ele>1071.1</ele>
        <time>2022-10-16T10:30:11Z</time>
      </trkpt>
      <trkpt lat="44.43157" lon="5.14256">
        <ele>1070.9</ele>
        <time>2022-10-16T10:30:10Z</time>
      </trkpt>
      <trkpt lat="44.43158" lon="5.14257">
        <ele>1070.7</ele>
        <time>2022-10-16T10:30:09Z</time>
      </trkpt>
      <trkpt lat="44.43159" lon="5.14257">
        <ele>1070.6</ele>
        <time>2022-10-16T10:30:08Z</time>
      </trkpt>
      <trkpt lat="44.4316" lon="5.14258">
        <ele>1070.4</ele>
        <time>2022-10-16T10:30:07Z</time>
      </trkpt>
      <trkpt lat="44.43161" lon="5.14258">
        <ele>1070.2</ele>
        <time>2022-10-16T10:30:06Z</time>
      </trkpt>
      <trkpt lat="44.43162" lon="5.14259">
        <ele>1070.1</ele>
        <time>2022-10-16T10:30:05Z</time>
      </trkpt>
      <trkpt lat="44.43163" lon="5.14259">
        <ele>1069.9</ele>
        <time>2022-10-16T10:30:04Z</time>
      </trkpt>
      <trkpt lat="44.43163" lon="5.1426">
        <ele>1070</ele>
        <time>2022-10-16T10:30:03Z</time>
      </trkpt>
      <trkpt lat="44.43164" lon="5.14261">
        <ele>1069.8</ele>
        <time>2022-10-16T10:30:02Z</time>
      </trkpt>
      <trkpt lat="44.43165" lon="5.14261">
        <ele>1069.7</ele>
        <time>2022-10-16T10:30:01Z</time>
      </trkpt>
      <trkpt lat="44.43166" lon="5.14262">
        <ele>1069.5</ele>
        <time>2022-10-16T10:30:00Z</time>
      </trkpt>
      <trkpt lat="44.43166" lon="5.14263">
        <ele>1069.6</ele>
        <time>2022-10-16T10:29:59Z</time>
      </trkpt>
      <trkpt lat="44.43167" lon="5.14264">
        <ele>1069.5</ele>
        <time>2022-10-16T10:29:58Z</time>
      </trkpt>
      <trkpt lat="44.43168" lon="5.14264">
        <ele>1069.5</ele>
        <time>2022-10-16T10:29:57Z</time>
      </trkpt>
      <trkpt lat="44.43169" lon="5.14265">
        <ele>1069.5</ele>
        <time>2022-10-16T10:29:56Z</time>
      </trkpt>
      <trkpt lat="44.4317" lon="5.14266">
        <ele>1069.5</ele>
        <time>2022-10-16T10:29:55Z</time>
      </trkpt>
      <trkpt lat="44.4317" lon="5.14267">
        <ele>1069.5</ele>
        <time>2022-10-16T10:29:54Z</time>
      </trkpt>
      <trkpt lat="44.43171" lon="5.14268">
        <ele>1069.5</ele>
        <time>2022-10-16T10:29:53Z</time>
      </trkpt>
      <trkpt lat="44.43172" lon="5.14269">
        <ele>1069.5</ele>
        <time>2022-10-16T10:29:52Z</time>
      </trkpt>
      <trkpt lat="44.43173" lon="5.1427">
        <ele>1069.5</ele>
        <time>2022-10-16T10:29:51Z</time>
      </trkpt>
      <trkpt lat="44.43173" lon="5.14271">
        <ele>1069.5</ele>
        <time>2022-10-16T10:29:50Z</time>
      </trkpt>
      <trkpt lat="44.43174" lon="5.14272">
        <ele>1069.5</ele>
        <time>2022-10-16T10:29:49Z</time>
      </trkpt>
      <trkpt lat="44.43175" lon="5.14272">
        <ele>1069.5</ele>
        <time>2022-10-16T10:29:48Z</time>
      </trkpt>
      <trkpt lat="44.43176" lon="5.14273">
        <ele>1069.5</ele>
        <time>2022-10-16T10:29:47Z</time>
      </trkpt>
      <trkpt lat="44.43177" lon="5.14273">
        <ele>1069.5</ele>
        <time>2022-10-16T10:29:46Z</time>
      </trkpt>
      <trkpt lat="44.43178" lon="5.14273">
        <ele>1069.4</ele>
        <time>2022-10-16T10:29:44Z</time>
      </trkpt>
      <trkpt lat="44.43179" lon="5.14273">
        <ele>1069.4</ele>
        <time>2022-10-16T10:29:43Z</time>
      </trkpt>
      <trkpt lat="44.4318" lon="5.14274">
        <ele>1069.4</ele>
        <time>2022-10-16T10:29:41Z</time>
      </trkpt>
      <trkpt lat="44.43181" lon="5.14274">
        <ele>1069.3</ele>
        <time>2022-10-16T10:29:40Z</time>
      </trkpt>
      <trkpt lat="44.43181" lon="5.14275">
        <ele>1069.4</ele>
        <time>2022-10-16T10:29:39Z</time>
      </trkpt>
      <trkpt lat="44.43182" lon="5.14275">
        <ele>1069.3</ele>
        <time>2022-10-16T10:29:37Z</time>
      </trkpt>
      <trkpt lat="44.43183" lon="5.14276">
        <ele>1069.3</ele>
        <time>2022-10-16T10:29:36Z</time>
      </trkpt>
      <trkpt lat="44.43184" lon="5.14277">
        <ele>1069.3</ele>
        <time>2022-10-16T10:29:05Z</time>
      </trkpt>
      <trkpt lat="44.43185" lon="5.14277">
        <ele>1069.3</ele>
        <time>2022-10-16T10:29:04Z</time>
      </trkpt>
      <trkpt lat="44.43186" lon="5.14278">
        <ele>1069.3</ele>
        <time>2022-10-16T10:29:03Z</time>
      </trkpt>
      <trkpt lat="44.43187" lon="5.14278">
        <ele>1069.3</ele>
        <time>2022-10-16T10:29:02Z</time>
      </trkpt>
      <trkpt lat="44.43187" lon="5.14279">
        <ele>1069.3</ele>
        <time>2022-10-16T10:29:01Z</time>
      </trkpt>
      <trkpt lat="44.43188" lon="5.14279">
        <ele>1069.3</ele>
        <time>2022-10-16T10:29:00Z</time>
      </trkpt>
      <trkpt lat="44.43189" lon="5.1428">
        <ele>1069.3</ele>
        <time>2022-10-16T10:28:59Z</time>
      </trkpt>
      <trkpt lat="44.4319" lon="5.1428">
        <ele>1069.2</ele>
        <time>2022-10-16T10:28:58Z</time>
      </trkpt>
      <trkpt lat="44.43191" lon="5.14281">
        <ele>1069.2</ele>
        <time>2022-10-16T10:28:57Z</time>
      </trkpt>
      <trkpt lat="44.43192" lon="5.14281">
        <ele>1069.2</ele>
        <time>2022-10-16T10:28:56Z</time>
      </trkpt>
      <trkpt lat="44.43193" lon="5.14281">
        <ele>1069.2</ele>
        <time>2022-10-16T10:28:55Z</time>
      </trkpt>
      <trkpt lat="44.43194" lon="5.14282">
        <ele>1069.2</ele>
        <time>2022-10-16T10:28:54Z</time>
      </trkpt>
      <trkpt lat="44.43195" lon="5.14282">
        <ele>1069.2</ele>
        <time>2022-10-16T10:28:53Z</time>
      </trkpt>
      <trkpt lat="44.43196" lon="5.14282">
        <ele>1069.4</ele>
        <time>2022-10-16T10:28:52Z</time>
      </trkpt>
      <trkpt lat="44.43197" lon="5.14283">
        <ele>1069.6</ele>
        <time>2022-10-16T10:28:51Z</time>
      </trkpt>
      <trkpt lat="44.43198" lon="5.14283">
        <ele>1069.7</ele>
        <time>2022-10-16T10:28:50Z</time>
      </trkpt>
      <trkpt lat="44.432" lon="5.14283">
        <ele>1070</ele>
        <time>2022-10-16T10:28:49Z</time>
      </trkpt>
      <trkpt lat="44.43201" lon="5.14283">
        <ele>1070.1</ele>
        <time>2022-10-16T10:28:48Z</time>
      </trkpt>
      <trkpt lat="44.43202" lon="5.14284">
        <ele>1070.3</ele>
        <time>2022-10-16T10:28:47Z</time>
      </trkpt>
      <trkpt lat="44.43203" lon="5.14284">
        <ele>1070.5</ele>
        <time>2022-10-16T10:28:46Z</time>
      </trkpt>
      <trkpt lat="44.43204" lon="5.14284">
        <ele>1070.6</ele>
        <time>2022-10-16T10:28:44Z</time>
      </trkpt>
      <trkpt lat="44.43205" lon="5.14285">
        <ele>1070.8</ele>
        <time>2022-10-16T10:28:43Z</time>
      </trkpt>
      <trkpt lat="44.43206" lon="5.14285">
        <ele>1070.9</ele>
        <time>2022-10-16T10:28:42Z</time>
      </trkpt>
      <trkpt lat="44.43207" lon="5.14286">
        <ele>1071.1</ele>
        <time>2022-10-16T10:28:41Z</time>
      </trkpt>
      <trkpt lat="44.43208" lon="5.14286">
        <ele>1071.2</ele>
        <time>2022-10-16T10:28:40Z</time>
      </trkpt>
      <trkpt lat="44.43209" lon="5.14287">
        <ele>1071.4</ele>
        <time>2022-10-16T10:28:39Z</time>
      </trkpt>
      <trkpt lat="44.4321" lon="5.14287">
        <ele>1071.6</ele>
        <time>2022-10-16T10:28:38Z</time>
      </trkpt>
      <trkpt lat="44.43211" lon="5.14287">
        <ele>1071.7</ele>
        <time>2022-10-16T10:28:37Z</time>
      </trkpt>
      <trkpt lat="44.43212" lon="5.14288">
        <ele>1071.9</ele>
        <time>2022-10-16T10:28:36Z</time>
      </trkpt>
      <trkpt lat="44.43212" lon="5.14289">
        <ele>1071.9</ele>
        <time>2022-10-16T10:28:35Z</time>
      </trkpt>
      <trkpt lat="44.43213" lon="5.14289">
        <ele>1072.1</ele>
        <time>2022-10-16T10:28:34Z</time>
      </trkpt>
      <trkpt lat="44.43214" lon="5.1429">
        <ele>1072.3</ele>
        <time>2022-10-16T10:28:33Z</time>
      </trkpt>
      <trkpt lat="44.43215" lon="5.14291">
        <ele>1072.4</ele>
        <time>2022-10-16T10:28:32Z</time>
      </trkpt>
      <trkpt lat="44.43216" lon="5.14291">
        <ele>1072.6</ele>
        <time>2022-10-16T10:28:31Z</time>
      </trkpt>
      <trkpt lat="44.43217" lon="5.14292">
        <ele>1072.8</ele>
        <time>2022-10-16T10:28:29Z</time>
      </trkpt>
      <trkpt lat="44.43218" lon="5.14293">
        <ele>1072.9</ele>
        <time>2022-10-16T10:28:28Z</time>
      </trkpt>
      <trkpt lat="44.43219" lon="5.14293">
        <ele>1073.1</ele>
        <time>2022-10-16T10:28:27Z</time>
      </trkpt>
      <trkpt lat="44.4322" lon="5.14294">
        <ele>1073.3</ele>
        <time>2022-10-16T10:28:25Z</time>
      </trkpt>
      <trkpt lat="44.43221" lon="5.14295">
        <ele>1073.4</ele>
        <time>2022-10-16T10:28:24Z</time>
      </trkpt>
      <trkpt lat="44.43222" lon="5.14295">
        <ele>1073.6</ele>
        <time>2022-10-16T10:28:23Z</time>
      </trkpt>
      <trkpt lat="44.43223" lon="5.14296">
        <ele>1073.8</ele>
        <time>2022-10-16T10:28:21Z</time>
      </trkpt>
      <trkpt lat="44.43224" lon="5.14297">
        <ele>1073.9</ele>
        <time>2022-10-16T10:28:20Z</time>
      </trkpt>
      <trkpt lat="44.43225" lon="5.14297">
        <ele>1074.1</ele>
        <time>2022-10-16T10:28:19Z</time>
      </trkpt>
      <trkpt lat="44.43226" lon="5.14298">
        <ele>1074.2</ele>
        <time>2022-10-16T10:28:18Z</time>
      </trkpt>
      <trkpt lat="44.43227" lon="5.14299">
        <ele>1074.4</ele>
        <time>2022-10-16T10:28:17Z</time>
      </trkpt>
      <trkpt lat="44.43228" lon="5.14299">
        <ele>1074.5</ele>
        <time>2022-10-16T10:28:16Z</time>
      </trkpt>
      <trkpt lat="44.43228" lon="5.143">
        <ele>1074.6</ele>
        <time>2022-10-16T10:28:15Z</time>
      </trkpt>
      <trkpt lat="44.43229" lon="5.143">
        <ele>1074.7</ele>
        <time>2022-10-16T10:28:14Z</time>
      </trkpt>
      <trkpt lat="44.4323" lon="5.14301">
        <ele>1074.9</ele>
        <time>2022-10-16T10:28:13Z</time>
      </trkpt>
      <trkpt lat="44.43231" lon="5.14302">
        <ele>1075.1</ele>
        <time>2022-10-16T10:28:12Z</time>
      </trkpt>
      <trkpt lat="44.43232" lon="5.14302">
        <ele>1075.2</ele>
        <time>2022-10-16T10:28:11Z</time>
      </trkpt>
      <trkpt lat="44.43232" lon="5.14303">
        <ele>1075.3</ele>
        <time>2022-10-16T10:28:10Z</time>
      </trkpt>
      <trkpt lat="44.43233" lon="5.14303">
        <ele>1075.4</ele>
        <time>2022-10-16T10:28:09Z</time>
      </trkpt>
      <trkpt lat="44.43234" lon="5.14304">
        <ele>1075.6</ele>
        <time>2022-10-16T10:28:08Z</time>
      </trkpt>
      <trkpt lat="44.43234" lon="5.14305">
        <ele>1075.7</ele>
        <time>2022-10-16T10:28:07Z</time>
      </trkpt>
      <trkpt lat="44.43235" lon="5.14305">
        <ele>1075.8</ele>
        <time>2022-10-16T10:28:06Z</time>
      </trkpt>
      <trkpt lat="44.43236" lon="5.14306">
        <ele>1076</ele>
        <time>2022-10-16T10:28:05Z</time>
      </trkpt>
      <trkpt lat="44.43236" lon="5.14307">
        <ele>1076</ele>
        <time>2022-10-16T10:28:04Z</time>
      </trkpt>
      <trkpt lat="44.43237" lon="5.14307">
        <ele>1076.2</ele>
        <time>2022-10-16T10:28:03Z</time>
      </trkpt>
      <trkpt lat="44.43237" lon="5.14308">
        <ele>1076.2</ele>
        <time>2022-10-16T10:28:02Z</time>
      </trkpt>
      <trkpt lat="44.43238" lon="5.14308">
        <ele>1076.3</ele>
        <time>2022-10-16T10:28:01Z</time>
      </trkpt>
      <trkpt lat="44.43238" lon="5.14309">
        <ele>1076.3</ele>
        <time>2022-10-16T10:28:00Z</time>
      </trkpt>
      <trkpt lat="44.43239" lon="5.1431">
        <ele>1076.5</ele>
        <time>2022-10-16T10:27:58Z</time>
      </trkpt>
      <trkpt lat="44.4324" lon="5.14311">
        <ele>1076.7</ele>
        <time>2022-10-16T10:27:57Z</time>
      </trkpt>
      <trkpt lat="44.43241" lon="5.14312">
        <ele>1076.9</ele>
        <time>2022-10-16T10:27:55Z</time>
      </trkpt>
      <trkpt lat="44.43242" lon="5.14313">
        <ele>1077</ele>
        <time>2022-10-16T10:27:53Z</time>
      </trkpt>
      <trkpt lat="44.43243" lon="5.14314">
        <ele>1077.2</ele>
        <time>2022-10-16T10:27:51Z</time>
      </trkpt>
      <trkpt lat="44.43243" lon="5.14315">
        <ele>1077.2</ele>
        <time>2022-10-16T10:27:50Z</time>
      </trkpt>
      <trkpt lat="44.43244" lon="5.14316">
        <ele>1077.4</ele>
        <time>2022-10-16T10:27:49Z</time>
      </trkpt>
      <trkpt lat="44.43244" lon="5.14318">
        <ele>1077.5</ele>
        <time>2022-10-16T10:27:30Z</time>
      </trkpt>
      <trkpt lat="44.43245" lon="5.14319">
        <ele>1077.7</ele>
        <time>2022-10-16T10:27:29Z</time>
      </trkpt>
      <trkpt lat="44.43245" lon="5.1432">
        <ele>1077.7</ele>
        <time>2022-10-16T10:27:28Z</time>
      </trkpt>
      <trkpt lat="44.43246" lon="5.14321">
        <ele>1077.9</ele>
        <time>2022-10-16T10:27:27Z</time>
      </trkpt>
      <trkpt lat="44.43247" lon="5.14322">
        <ele>1078.1</ele>
        <time>2022-10-16T10:27:25Z</time>
      </trkpt>
      <trkpt lat="44.43248" lon="5.14323">
        <ele>1078.3</ele>
        <time>2022-10-16T10:27:24Z</time>
      </trkpt>
      <trkpt lat="44.43248" lon="5.14324">
        <ele>1078.3</ele>
        <time>2022-10-16T10:27:23Z</time>
      </trkpt>
      <trkpt lat="44.43249" lon="5.14325">
        <ele>1078.5</ele>
        <time>2022-10-16T10:27:22Z</time>
      </trkpt>
      <trkpt lat="44.4325" lon="5.14326">
        <ele>1078.7</ele>
        <time>2022-10-16T10:27:21Z</time>
      </trkpt>
      <trkpt lat="44.43251" lon="5.14327">
        <ele>1078.9</ele>
        <time>2022-10-16T10:27:20Z</time>
      </trkpt>
      <trkpt lat="44.43251" lon="5.14328">
        <ele>1079</ele>
        <time>2022-10-16T10:27:19Z</time>
      </trkpt>
      <trkpt lat="44.43252" lon="5.14329">
        <ele>1079.2</ele>
        <time>2022-10-16T10:27:18Z</time>
      </trkpt>
      <trkpt lat="44.43253" lon="5.1433">
        <ele>1079.4</ele>
        <time>2022-10-16T10:27:17Z</time>
      </trkpt>
      <trkpt lat="44.43253" lon="5.14331">
        <ele>1079.4</ele>
        <time>2022-10-16T10:27:16Z</time>
      </trkpt>
      <trkpt lat="44.43254" lon="5.14332">
        <ele>1079.7</ele>
        <time>2022-10-16T10:27:15Z</time>
      </trkpt>
      <trkpt lat="44.43255" lon="5.14333">
        <ele>1079.9</ele>
        <time>2022-10-16T10:27:14Z</time>
      </trkpt>
      <trkpt lat="44.43255" lon="5.14334">
        <ele>1079.9</ele>
        <time>2022-10-16T10:27:13Z</time>
      </trkpt>
      <trkpt lat="44.43256" lon="5.14335">
        <ele>1080</ele>
        <time>2022-10-16T10:27:12Z</time>
      </trkpt>
      <trkpt lat="44.43257" lon="5.14336">
        <ele>1080.2</ele>
        <time>2022-10-16T10:27:10Z</time>
      </trkpt>
      <trkpt lat="44.43258" lon="5.14337">
        <ele>1080.3</ele>
        <time>2022-10-16T10:27:09Z</time>
      </trkpt>
      <trkpt lat="44.43259" lon="5.14338">
        <ele>1080.5</ele>
        <time>2022-10-16T10:27:08Z</time>
      </trkpt>
      <trkpt lat="44.43259" lon="5.14339">
        <ele>1080.5</ele>
        <time>2022-10-16T10:27:07Z</time>
      </trkpt>
      <trkpt lat="44.4326" lon="5.1434">
        <ele>1080.6</ele>
        <time>2022-10-16T10:27:06Z</time>
      </trkpt>
      <trkpt lat="44.43261" lon="5.14341">
        <ele>1080.8</ele>
        <time>2022-10-16T10:27:04Z</time>
      </trkpt>
      <trkpt lat="44.43262" lon="5.14342">
        <ele>1081</ele>
        <time>2022-10-16T10:27:03Z</time>
      </trkpt>
      <trkpt lat="44.43263" lon="5.14343">
        <ele>1081.2</ele>
        <time>2022-10-16T10:27:02Z</time>
      </trkpt>
      <trkpt lat="44.43264" lon="5.14344">
        <ele>1081.3</ele>
        <time>2022-10-16T10:27:00Z</time>
      </trkpt>
      <trkpt lat="44.43265" lon="5.14345">
        <ele>1081.5</ele>
        <time>2022-10-16T10:26:59Z</time>
      </trkpt>
      <trkpt lat="44.43266" lon="5.14346">
        <ele>1081.7</ele>
        <time>2022-10-16T10:26:58Z</time>
      </trkpt>
      <trkpt lat="44.43266" lon="5.14347">
        <ele>1081.7</ele>
        <time>2022-10-16T10:26:57Z</time>
      </trkpt>
      <trkpt lat="44.43267" lon="5.14348">
        <ele>1081.9</ele>
        <time>2022-10-16T10:26:56Z</time>
      </trkpt>
      <trkpt lat="44.43267" lon="5.14349">
        <ele>1081.8</ele>
        <time>2022-10-16T10:26:55Z</time>
      </trkpt>
      <trkpt lat="44.43268" lon="5.1435">
        <ele>1082</ele>
        <time>2022-10-16T10:26:54Z</time>
      </trkpt>
      <trkpt lat="44.43268" lon="5.14351">
        <ele>1082</ele>
        <time>2022-10-16T10:26:53Z</time>
      </trkpt>
      <trkpt lat="44.43269" lon="5.14352">
        <ele>1082.2</ele>
        <time>2022-10-16T10:26:52Z</time>
      </trkpt>
      <trkpt lat="44.4327" lon="5.14353">
        <ele>1082.4</ele>
        <time>2022-10-16T10:26:51Z</time>
      </trkpt>
      <trkpt lat="44.43271" lon="5.14354">
        <ele>1082.6</ele>
        <time>2022-10-16T10:26:50Z</time>
      </trkpt>
      <trkpt lat="44.43271" lon="5.14355">
        <ele>1082.6</ele>
        <time>2022-10-16T10:26:49Z</time>
      </trkpt>
      <trkpt lat="44.43272" lon="5.14356">
        <ele>1082.8</ele>
        <time>2022-10-16T10:26:48Z</time>
      </trkpt>
      <trkpt lat="44.43273" lon="5.14357">
        <ele>1083</ele>
        <time>2022-10-16T10:26:47Z</time>
      </trkpt>
      <trkpt lat="44.43274" lon="5.14358">
        <ele>1083.2</ele>
        <time>2022-10-16T10:26:46Z</time>
      </trkpt>
      <trkpt lat="44.43274" lon="5.14359">
        <ele>1083.2</ele>
        <time>2022-10-16T10:26:45Z</time>
      </trkpt>
      <trkpt lat="44.43275" lon="5.1436">
        <ele>1083.4</ele>
        <time>2022-10-16T10:26:44Z</time>
      </trkpt>
      <trkpt lat="44.43276" lon="5.1436">
        <ele>1083.6</ele>
        <time>2022-10-16T10:26:43Z</time>
      </trkpt>
      <trkpt lat="44.43276" lon="5.14361">
        <ele>1083.6</ele>
        <time>2022-10-16T10:26:42Z</time>
      </trkpt>
      <trkpt lat="44.43277" lon="5.14362">
        <ele>1083.7</ele>
        <time>2022-10-16T10:26:41Z</time>
      </trkpt>
      <trkpt lat="44.43278" lon="5.14363">
        <ele>1083.8</ele>
        <time>2022-10-16T10:26:40Z</time>
      </trkpt>
      <trkpt lat="44.43279" lon="5.14363">
        <ele>1083.9</ele>
        <time>2022-10-16T10:26:39Z</time>
      </trkpt>
      <trkpt lat="44.4328" lon="5.14364">
        <ele>1083.9</ele>
        <time>2022-10-16T10:26:38Z</time>
      </trkpt>
      <trkpt lat="44.4328" lon="5.14365">
        <ele>1083.8</ele>
        <time>2022-10-16T10:26:37Z</time>
      </trkpt>
      <trkpt lat="44.43281" lon="5.14366">
        <ele>1083.9</ele>
        <time>2022-10-16T10:26:36Z</time>
      </trkpt>
      <trkpt lat="44.43282" lon="5.14367">
        <ele>1083.9</ele>
        <time>2022-10-16T10:26:35Z</time>
      </trkpt>
      <trkpt lat="44.43282" lon="5.14368">
        <ele>1083.8</ele>
        <time>2022-10-16T10:26:34Z</time>
      </trkpt>
      <trkpt lat="44.43283" lon="5.14369">
        <ele>1083.8</ele>
        <time>2022-10-16T10:26:33Z</time>
      </trkpt>
      <trkpt lat="44.43284" lon="5.1437">
        <ele>1083.9</ele>
        <time>2022-10-16T10:26:32Z</time>
      </trkpt>
      <trkpt lat="44.43285" lon="5.14371">
        <ele>1083.9</ele>
        <time>2022-10-16T10:26:31Z</time>
      </trkpt>
      <trkpt lat="44.43285" lon="5.14372">
        <ele>1083.8</ele>
        <time>2022-10-16T10:26:30Z</time>
      </trkpt>
      <trkpt lat="44.43286" lon="5.14373">
        <ele>1083.9</ele>
        <time>2022-10-16T10:26:29Z</time>
      </trkpt>
      <trkpt lat="44.43287" lon="5.14374">
        <ele>1083.9</ele>
        <time>2022-10-16T10:26:28Z</time>
      </trkpt>
      <trkpt lat="44.43287" lon="5.14376">
        <ele>1083.7</ele>
        <time>2022-10-16T10:26:27Z</time>
      </trkpt>
      <trkpt lat="44.43288" lon="5.14377">
        <ele>1083.8</ele>
        <time>2022-10-16T10:26:26Z</time>
      </trkpt>
      <trkpt lat="44.43288" lon="5.14378">
        <ele>1083.7</ele>
        <time>2022-10-16T10:26:25Z</time>
      </trkpt>
      <trkpt lat="44.43289" lon="5.14379">
        <ele>1083.8</ele>
        <time>2022-10-16T10:26:24Z</time>
      </trkpt>
      <trkpt lat="44.43289" lon="5.1438">
        <ele>1083.7</ele>
        <time>2022-10-16T10:26:23Z</time>
      </trkpt>
      <trkpt lat="44.4329" lon="5.14381">
        <ele>1083.8</ele>
        <time>2022-10-16T10:26:22Z</time>
      </trkpt>
      <trkpt lat="44.43291" lon="5.14382">
        <ele>1083.9</ele>
        <time>2022-10-16T10:26:21Z</time>
      </trkpt>
      <trkpt lat="44.43292" lon="5.14383">
        <ele>1084</ele>
        <time>2022-10-16T10:26:20Z</time>
      </trkpt>
      <trkpt lat="44.43292" lon="5.14384">
        <ele>1083.9</ele>
        <time>2022-10-16T10:26:19Z</time>
      </trkpt>
      <trkpt lat="44.43293" lon="5.14385">
        <ele>1084</ele>
        <time>2022-10-16T10:26:18Z</time>
      </trkpt>
      <trkpt lat="44.43294" lon="5.14386">
        <ele>1084.1</ele>
        <time>2022-10-16T10:26:17Z</time>
      </trkpt>
      <trkpt lat="44.43295" lon="5.14387">
        <ele>1084.2</ele>
        <time>2022-10-16T10:26:16Z</time>
      </trkpt>
      <trkpt lat="44.43296" lon="5.14388">
        <ele>1084.3</ele>
        <time>2022-10-16T10:26:15Z</time>
      </trkpt>
      <trkpt lat="44.43297" lon="5.14389">
        <ele>1084.5</ele>
        <time>2022-10-16T10:26:14Z</time>
      </trkpt>
      <trkpt lat="44.43297" lon="5.1439">
        <ele>1084.4</ele>
        <time>2022-10-16T10:26:13Z</time>
      </trkpt>
      <trkpt lat="44.43298" lon="5.14391">
        <ele>1084.5</ele>
        <time>2022-10-16T10:26:12Z</time>
      </trkpt>
      <trkpt lat="44.43299" lon="5.14392">
        <ele>1084.6</ele>
        <time>2022-10-16T10:26:11Z</time>
      </trkpt>
      <trkpt lat="44.433" lon="5.14393">
        <ele>1084.7</ele>
        <time>2022-10-16T10:26:10Z</time>
      </trkpt>
      <trkpt lat="44.43301" lon="5.14394">
        <ele>1084.8</ele>
        <time>2022-10-16T10:26:09Z</time>
      </trkpt>
      <trkpt lat="44.43302" lon="5.14395">
        <ele>1084.9</ele>
        <time>2022-10-16T10:26:08Z</time>
      </trkpt>
      <trkpt lat="44.43303" lon="5.14396">
        <ele>1085</ele>
        <time>2022-10-16T10:26:07Z</time>
      </trkpt>
      <trkpt lat="44.43303" lon="5.14397">
        <ele>1084.9</ele>
        <time>2022-10-16T10:26:06Z</time>
      </trkpt>
      <trkpt lat="44.43304" lon="5.14398">
        <ele>1085</ele>
        <time>2022-10-16T10:26:05Z</time>
      </trkpt>
      <trkpt lat="44.43305" lon="5.14399">
        <ele>1085.2</ele>
        <time>2022-10-16T10:26:04Z</time>
      </trkpt>
      <trkpt lat="44.43306" lon="5.144">
        <ele>1085.3</ele>
        <time>2022-10-16T10:26:03Z</time>
      </trkpt>
      <trkpt lat="44.43306" lon="5.14401">
        <ele>1085.2</ele>
        <time>2022-10-16T10:26:02Z</time>
      </trkpt>
      <trkpt lat="44.43307" lon="5.14402">
        <ele>1085.2</ele>
        <time>2022-10-16T10:26:01Z</time>
      </trkpt>
      <trkpt lat="44.43308" lon="5.14403">
        <ele>1085.3</ele>
        <time>2022-10-16T10:26:00Z</time>
      </trkpt>
      <trkpt lat="44.43309" lon="5.14404">
        <ele>1085.4</ele>
        <time>2022-10-16T10:25:59Z</time>
      </trkpt>
      <trkpt lat="44.4331" lon="5.14405">
        <ele>1085.4</ele>
        <time>2022-10-16T10:25:58Z</time>
      </trkpt>
      <trkpt lat="44.4331" lon="5.14406">
        <ele>1085.3</ele>
        <time>2022-10-16T10:25:57Z</time>
      </trkpt>
      <trkpt lat="44.43311" lon="5.14407">
        <ele>1085.4</ele>
        <time>2022-10-16T10:25:56Z</time>
      </trkpt>
      <trkpt lat="44.43312" lon="5.14408">
        <ele>1085.5</ele>
        <time>2022-10-16T10:25:55Z</time>
      </trkpt>
      <trkpt lat="44.43313" lon="5.14409">
        <ele>1085.6</ele>
        <time>2022-10-16T10:25:54Z</time>
      </trkpt>
      <trkpt lat="44.43313" lon="5.1441">
        <ele>1085.5</ele>
        <time>2022-10-16T10:25:53Z</time>
      </trkpt>
      <trkpt lat="44.43314" lon="5.14411">
        <ele>1085.6</ele>
        <time>2022-10-16T10:25:52Z</time>
      </trkpt>
      <trkpt lat="44.43315" lon="5.14412">
        <ele>1085.6</ele>
        <time>2022-10-16T10:25:51Z</time>
      </trkpt>
      <trkpt lat="44.43316" lon="5.14414">
        <ele>1085.7</ele>
        <time>2022-10-16T10:25:50Z</time>
      </trkpt>
      <trkpt lat="44.43316" lon="5.14415">
        <ele>1085.6</ele>
        <time>2022-10-16T10:25:49Z</time>
      </trkpt>
      <trkpt lat="44.43317" lon="5.14416">
        <ele>1085.7</ele>
        <time>2022-10-16T10:25:48Z</time>
      </trkpt>
      <trkpt lat="44.43318" lon="5.14417">
        <ele>1085.8</ele>
        <time>2022-10-16T10:25:47Z</time>
      </trkpt>
      <trkpt lat="44.43318" lon="5.14418">
        <ele>1085.6</ele>
        <time>2022-10-16T10:25:46Z</time>
      </trkpt>
      <trkpt lat="44.43319" lon="5.14419">
        <ele>1085.7</ele>
        <time>2022-10-16T10:25:45Z</time>
      </trkpt>
      <trkpt lat="44.4332" lon="5.14421">
        <ele>1085.6</ele>
        <time>2022-10-16T10:25:44Z</time>
      </trkpt>
      <trkpt lat="44.4332" lon="5.14422">
        <ele>1085.5</ele>
        <time>2022-10-16T10:25:43Z</time>
      </trkpt>
      <trkpt lat="44.43321" lon="5.14423">
        <ele>1085.6</ele>
        <time>2022-10-16T10:25:42Z</time>
      </trkpt>
      <trkpt lat="44.43322" lon="5.14424">
        <ele>1085.6</ele>
        <time>2022-10-16T10:25:41Z</time>
      </trkpt>
      <trkpt lat="44.43323" lon="5.14425">
        <ele>1085.7</ele>
        <time>2022-10-16T10:25:40Z</time>
      </trkpt>
      <trkpt lat="44.43324" lon="5.14426">
        <ele>1085.8</ele>
        <time>2022-10-16T10:25:39Z</time>
      </trkpt>
      <trkpt lat="44.43324" lon="5.14427">
        <ele>1085.7</ele>
        <time>2022-10-16T10:25:38Z</time>
      </trkpt>
      <trkpt lat="44.43325" lon="5.14428">
        <ele>1085.7</ele>
        <time>2022-10-16T10:25:37Z</time>
      </trkpt>
      <trkpt lat="44.43326" lon="5.14429">
        <ele>1085.8</ele>
        <time>2022-10-16T10:25:36Z</time>
      </trkpt>
      <trkpt lat="44.43327" lon="5.1443">
        <ele>1085.9</ele>
        <time>2022-10-16T10:25:35Z</time>
      </trkpt>
      <trkpt lat="44.43327" lon="5.14431">
        <ele>1085.8</ele>
        <time>2022-10-16T10:25:34Z</time>
      </trkpt>
      <trkpt lat="44.43328" lon="5.14432">
        <ele>1085.9</ele>
        <time>2022-10-16T10:25:33Z</time>
      </trkpt>
      <trkpt lat="44.43329" lon="5.14433">
        <ele>1086</ele>
        <time>2022-10-16T10:25:32Z</time>
      </trkpt>
      <trkpt lat="44.4333" lon="5.14434">
        <ele>1086.1</ele>
        <time>2022-10-16T10:25:31Z</time>
      </trkpt>
      <trkpt lat="44.43331" lon="5.14435">
        <ele>1086.2</ele>
        <time>2022-10-16T10:25:30Z</time>
      </trkpt>
      <trkpt lat="44.43331" lon="5.14436">
        <ele>1086.2</ele>
        <time>2022-10-16T10:25:29Z</time>
      </trkpt>
      <trkpt lat="44.43332" lon="5.14437">
        <ele>1086.3</ele>
        <time>2022-10-16T10:25:28Z</time>
      </trkpt>
      <trkpt lat="44.43333" lon="5.14438">
        <ele>1086.4</ele>
        <time>2022-10-16T10:25:27Z</time>
      </trkpt>
      <trkpt lat="44.43334" lon="5.14439">
        <ele>1086.5</ele>
        <time>2022-10-16T10:25:26Z</time>
      </trkpt>
      <trkpt lat="44.43335" lon="5.1444">
        <ele>1086.5</ele>
        <time>2022-10-16T10:25:25Z</time>
      </trkpt>
      <trkpt lat="44.43335" lon="5.14441">
        <ele>1086.5</ele>
        <time>2022-10-16T10:25:24Z</time>
      </trkpt>
      <trkpt lat="44.43336" lon="5.14442">
        <ele>1086.5</ele>
        <time>2022-10-16T10:25:23Z</time>
      </trkpt>
      <trkpt lat="44.43337" lon="5.14443">
        <ele>1086.6</ele>
        <time>2022-10-16T10:25:22Z</time>
      </trkpt>
      <trkpt lat="44.43338" lon="5.14444">
        <ele>1086.7</ele>
        <time>2022-10-16T10:25:21Z</time>
      </trkpt>
      <trkpt lat="44.43339" lon="5.14445">
        <ele>1086.7</ele>
        <time>2022-10-16T10:25:20Z</time>
      </trkpt>
      <trkpt lat="44.43339" lon="5.14446">
        <ele>1086.6</ele>
        <time>2022-10-16T10:25:19Z</time>
      </trkpt>
      <trkpt lat="44.4334" lon="5.14447">
        <ele>1086.6</ele>
        <time>2022-10-16T10:25:18Z</time>
      </trkpt>
      <trkpt lat="44.43341" lon="5.14448">
        <ele>1086.7</ele>
        <time>2022-10-16T10:25:17Z</time>
      </trkpt>
      <trkpt lat="44.43341" lon="5.14449">
        <ele>1086.5</ele>
        <time>2022-10-16T10:25:16Z</time>
      </trkpt>
      <trkpt lat="44.43342" lon="5.1445">
        <ele>1086.6</ele>
        <time>2022-10-16T10:25:15Z</time>
      </trkpt>
      <trkpt lat="44.43343" lon="5.14451">
        <ele>1086.6</ele>
        <time>2022-10-16T10:25:14Z</time>
      </trkpt>
      <trkpt lat="44.43344" lon="5.14452">
        <ele>1086.7</ele>
        <time>2022-10-16T10:25:13Z</time>
      </trkpt>
      <trkpt lat="44.43344" lon="5.14453">
        <ele>1086.5</ele>
        <time>2022-10-16T10:25:12Z</time>
      </trkpt>
      <trkpt lat="44.43345" lon="5.14454">
        <ele>1086.6</ele>
        <time>2022-10-16T10:25:11Z</time>
      </trkpt>
      <trkpt lat="44.43345" lon="5.14455">
        <ele>1086.5</ele>
        <time>2022-10-16T10:25:10Z</time>
      </trkpt>
      <trkpt lat="44.43346" lon="5.14456">
        <ele>1086.5</ele>
        <time>2022-10-16T10:25:09Z</time>
      </trkpt>
      <trkpt lat="44.43347" lon="5.14458">
        <ele>1086.5</ele>
        <time>2022-10-16T10:25:08Z</time>
      </trkpt>
      <trkpt lat="44.43348" lon="5.14459">
        <ele>1086.6</ele>
        <time>2022-10-16T10:25:07Z</time>
      </trkpt>
      <trkpt lat="44.43348" lon="5.1446">
        <ele>1086.5</ele>
        <time>2022-10-16T10:25:06Z</time>
      </trkpt>
      <trkpt lat="44.43349" lon="5.14461">
        <ele>1086.5</ele>
        <time>2022-10-16T10:25:05Z</time>
      </trkpt>
      <trkpt lat="44.4335" lon="5.14462">
        <ele>1086.6</ele>
        <time>2022-10-16T10:25:04Z</time>
      </trkpt>
      <trkpt lat="44.4335" lon="5.14463">
        <ele>1086.5</ele>
        <time>2022-10-16T10:25:03Z</time>
      </trkpt>
      <trkpt lat="44.43351" lon="5.14464">
        <ele>1086.6</ele>
        <time>2022-10-16T10:25:02Z</time>
      </trkpt>
      <trkpt lat="44.43352" lon="5.14465">
        <ele>1086.7</ele>
        <time>2022-10-16T10:25:01Z</time>
      </trkpt>
      <trkpt lat="44.43353" lon="5.14466">
        <ele>1086.8</ele>
        <time>2022-10-16T10:25:00Z</time>
      </trkpt>
      <trkpt lat="44.43354" lon="5.14466">
        <ele>1087</ele>
        <time>2022-10-16T10:24:59Z</time>
      </trkpt>
      <trkpt lat="44.43354" lon="5.14467">
        <ele>1086.9</ele>
        <time>2022-10-16T10:24:58Z</time>
      </trkpt>
      <trkpt lat="44.43355" lon="5.14468">
        <ele>1087.1</ele>
        <time>2022-10-16T10:24:57Z</time>
      </trkpt>
      <trkpt lat="44.43356" lon="5.14469">
        <ele>1087.2</ele>
        <time>2022-10-16T10:24:56Z</time>
      </trkpt>
      <trkpt lat="44.43357" lon="5.1447">
        <ele>1087.3</ele>
        <time>2022-10-16T10:24:55Z</time>
      </trkpt>
      <trkpt lat="44.43358" lon="5.1447">
        <ele>1087.5</ele>
        <time>2022-10-16T10:24:54Z</time>
      </trkpt>
      <trkpt lat="44.43358" lon="5.14471">
        <ele>1087.4</ele>
        <time>2022-10-16T10:24:53Z</time>
      </trkpt>
      <trkpt lat="44.43359" lon="5.14472">
        <ele>1087.6</ele>
        <time>2022-10-16T10:24:52Z</time>
      </trkpt>
      <trkpt lat="44.4336" lon="5.14473">
        <ele>1087.7</ele>
        <time>2022-10-16T10:24:51Z</time>
      </trkpt>
      <trkpt lat="44.43361" lon="5.14474">
        <ele>1087.8</ele>
        <time>2022-10-16T10:24:50Z</time>
      </trkpt>
      <trkpt lat="44.43361" lon="5.14475">
        <ele>1087.7</ele>
        <time>2022-10-16T10:24:49Z</time>
      </trkpt>
      <trkpt lat="44.43362" lon="5.14476">
        <ele>1087.7</ele>
        <time>2022-10-16T10:24:48Z</time>
      </trkpt>
      <trkpt lat="44.43363" lon="5.14477">
        <ele>1087.6</ele>
        <time>2022-10-16T10:24:47Z</time>
      </trkpt>
      <trkpt lat="44.43364" lon="5.14477">
        <ele>1087.7</ele>
        <time>2022-10-16T10:24:46Z</time>
      </trkpt>
      <trkpt lat="44.43364" lon="5.14478">
        <ele>1087.6</ele>
        <time>2022-10-16T10:24:45Z</time>
      </trkpt>
      <trkpt lat="44.43365" lon="5.14479">
        <ele>1087.6</ele>
        <time>2022-10-16T10:24:44Z</time>
      </trkpt>
      <trkpt lat="44.43366" lon="5.1448">
        <ele>1087.6</ele>
        <time>2022-10-16T10:24:43Z</time>
      </trkpt>
      <trkpt lat="44.43366" lon="5.14481">
        <ele>1087.5</ele>
        <time>2022-10-16T10:24:42Z</time>
      </trkpt>
      <trkpt lat="44.43367" lon="5.14481">
        <ele>1087.6</ele>
        <time>2022-10-16T10:24:41Z</time>
      </trkpt>
      <trkpt lat="44.43368" lon="5.14482">
        <ele>1087.6</ele>
        <time>2022-10-16T10:24:40Z</time>
      </trkpt>
      <trkpt lat="44.43368" lon="5.14483">
        <ele>1087.5</ele>
        <time>2022-10-16T10:24:39Z</time>
      </trkpt>
      <trkpt lat="44.43369" lon="5.14483">
        <ele>1087.6</ele>
        <time>2022-10-16T10:24:38Z</time>
      </trkpt>
      <trkpt lat="44.4337" lon="5.14484">
        <ele>1087.6</ele>
        <time>2022-10-16T10:24:37Z</time>
      </trkpt>
      <trkpt lat="44.4337" lon="5.14485">
        <ele>1087.6</ele>
        <time>2022-10-16T10:24:36Z</time>
      </trkpt>
      <trkpt lat="44.43371" lon="5.14486">
        <ele>1087.6</ele>
        <time>2022-10-16T10:24:35Z</time>
      </trkpt>
      <trkpt lat="44.43372" lon="5.14487">
        <ele>1087.6</ele>
        <time>2022-10-16T10:24:34Z</time>
      </trkpt>
      <trkpt lat="44.43373" lon="5.14488">
        <ele>1087.6</ele>
        <time>2022-10-16T10:24:33Z</time>
      </trkpt>
      <trkpt lat="44.43373" lon="5.14489">
        <ele>1087.6</ele>
        <time>2022-10-16T10:24:32Z</time>
      </trkpt>
      <trkpt lat="44.43374" lon="5.1449">
        <ele>1087.6</ele>
        <time>2022-10-16T10:24:31Z</time>
      </trkpt>
      <trkpt lat="44.43374" lon="5.14491">
        <ele>1087.5</ele>
        <time>2022-10-16T10:24:30Z</time>
      </trkpt>
      <trkpt lat="44.43375" lon="5.14492">
        <ele>1087.6</ele>
        <time>2022-10-16T10:24:29Z</time>
      </trkpt>
      <trkpt lat="44.43376" lon="5.14493">
        <ele>1087.6</ele>
        <time>2022-10-16T10:24:28Z</time>
      </trkpt>
      <trkpt lat="44.43377" lon="5.14493">
        <ele>1087.8</ele>
        <time>2022-10-16T10:24:27Z</time>
      </trkpt>
      <trkpt lat="44.43377" lon="5.14494">
        <ele>1087.7</ele>
        <time>2022-10-16T10:24:26Z</time>
      </trkpt>
      <trkpt lat="44.43378" lon="5.14494">
        <ele>1087.8</ele>
        <time>2022-10-16T10:24:25Z</time>
      </trkpt>
      <trkpt lat="44.43379" lon="5.14495">
        <ele>1087.9</ele>
        <time>2022-10-16T10:24:24Z</time>
      </trkpt>
      <trkpt lat="44.4338" lon="5.14495">
        <ele>1088</ele>
        <time>2022-10-16T10:24:23Z</time>
      </trkpt>
      <trkpt lat="44.43381" lon="5.14496">
        <ele>1088.1</ele>
        <time>2022-10-16T10:24:22Z</time>
      </trkpt>
      <trkpt lat="44.43382" lon="5.14496">
        <ele>1088.2</ele>
        <time>2022-10-16T10:24:21Z</time>
      </trkpt>
      <trkpt lat="44.43383" lon="5.14497">
        <ele>1088.3</ele>
        <time>2022-10-16T10:24:20Z</time>
      </trkpt>
      <trkpt lat="44.43383" lon="5.14498">
        <ele>1088.3</ele>
        <time>2022-10-16T10:24:19Z</time>
      </trkpt>
      <trkpt lat="44.43384" lon="5.14498">
        <ele>1088.4</ele>
        <time>2022-10-16T10:24:18Z</time>
      </trkpt>
      <trkpt lat="44.43385" lon="5.14499">
        <ele>1088.5</ele>
        <time>2022-10-16T10:24:17Z</time>
      </trkpt>
      <trkpt lat="44.43386" lon="5.145">
        <ele>1088.6</ele>
        <time>2022-10-16T10:24:16Z</time>
      </trkpt>
      <trkpt lat="44.43387" lon="5.14501">
        <ele>1088.7</ele>
        <time>2022-10-16T10:24:15Z</time>
      </trkpt>
      <trkpt lat="44.43388" lon="5.14502">
        <ele>1088.7</ele>
        <time>2022-10-16T10:24:14Z</time>
      </trkpt>
      <trkpt lat="44.43389" lon="5.14503">
        <ele>1088.8</ele>
        <time>2022-10-16T10:24:13Z</time>
      </trkpt>
      <trkpt lat="44.4339" lon="5.14503">
        <ele>1088.8</ele>
        <time>2022-10-16T10:24:12Z</time>
      </trkpt>
      <trkpt lat="44.4339" lon="5.14504">
        <ele>1088.8</ele>
        <time>2022-10-16T10:24:11Z</time>
      </trkpt>
      <trkpt lat="44.43391" lon="5.14505">
        <ele>1088.7</ele>
        <time>2022-10-16T10:24:10Z</time>
      </trkpt>
      <trkpt lat="44.43392" lon="5.14506">
        <ele>1088.7</ele>
        <time>2022-10-16T10:24:09Z</time>
      </trkpt>
      <trkpt lat="44.43393" lon="5.14507">
        <ele>1088.7</ele>
        <time>2022-10-16T10:24:08Z</time>
      </trkpt>
      <trkpt lat="44.43393" lon="5.14508">
        <ele>1088.7</ele>
        <time>2022-10-16T10:24:07Z</time>
      </trkpt>
      <trkpt lat="44.43394" lon="5.14508">
        <ele>1088.7</ele>
        <time>2022-10-16T10:24:06Z</time>
      </trkpt>
      <trkpt lat="44.43395" lon="5.14509">
        <ele>1088.7</ele>
        <time>2022-10-16T10:24:05Z</time>
      </trkpt>
      <trkpt lat="44.43396" lon="5.1451">
        <ele>1088.7</ele>
        <time>2022-10-16T10:24:04Z</time>
      </trkpt>
      <trkpt lat="44.43397" lon="5.14511">
        <ele>1088.7</ele>
        <time>2022-10-16T10:24:03Z</time>
      </trkpt>
      <trkpt lat="44.43397" lon="5.14512">
        <ele>1088.7</ele>
        <time>2022-10-16T10:24:02Z</time>
      </trkpt>
      <trkpt lat="44.43398" lon="5.14513">
        <ele>1088.7</ele>
        <time>2022-10-16T10:24:01Z</time>
      </trkpt>
      <trkpt lat="44.43399" lon="5.14514">
        <ele>1088.7</ele>
        <time>2022-10-16T10:24:00Z</time>
      </trkpt>
      <trkpt lat="44.434" lon="5.14514">
        <ele>1088.8</ele>
        <time>2022-10-16T10:23:59Z</time>
      </trkpt>
      <trkpt lat="44.43401" lon="5.14515">
        <ele>1088.8</ele>
        <time>2022-10-16T10:23:58Z</time>
      </trkpt>
      <trkpt lat="44.43402" lon="5.14516">
        <ele>1088.9</ele>
        <time>2022-10-16T10:23:57Z</time>
      </trkpt>
      <trkpt lat="44.43403" lon="5.14516">
        <ele>1088.9</ele>
        <time>2022-10-16T10:23:56Z</time>
      </trkpt>
      <trkpt lat="44.43404" lon="5.14517">
        <ele>1089</ele>
        <time>2022-10-16T10:23:55Z</time>
      </trkpt>
      <trkpt lat="44.43405" lon="5.14517">
        <ele>1089.1</ele>
        <time>2022-10-16T10:23:53Z</time>
      </trkpt>
      <trkpt lat="44.43406" lon="5.14518">
        <ele>1089.1</ele>
        <time>2022-10-16T10:23:52Z</time>
      </trkpt>
      <trkpt lat="44.43407" lon="5.14518">
        <ele>1089.2</ele>
        <time>2022-10-16T10:23:51Z</time>
      </trkpt>
      <trkpt lat="44.43408" lon="5.14519">
        <ele>1089.3</ele>
        <time>2022-10-16T10:23:50Z</time>
      </trkpt>
      <trkpt lat="44.43409" lon="5.1452">
        <ele>1089.3</ele>
        <time>2022-10-16T10:23:49Z</time>
      </trkpt>
      <trkpt lat="44.4341" lon="5.1452">
        <ele>1089.4</ele>
        <time>2022-10-16T10:23:48Z</time>
      </trkpt>
      <trkpt lat="44.4341" lon="5.14521">
        <ele>1089.4</ele>
        <time>2022-10-16T10:23:47Z</time>
      </trkpt>
      <trkpt lat="44.43411" lon="5.14522">
        <ele>1089.5</ele>
        <time>2022-10-16T10:23:46Z</time>
      </trkpt>
      <trkpt lat="44.43412" lon="5.14523">
        <ele>1089.6</ele>
        <time>2022-10-16T10:23:45Z</time>
      </trkpt>
      <trkpt lat="44.43413" lon="5.14524">
        <ele>1089.6</ele>
        <time>2022-10-16T10:23:44Z</time>
      </trkpt>
      <trkpt lat="44.43414" lon="5.14525">
        <ele>1089.7</ele>
        <time>2022-10-16T10:23:43Z</time>
      </trkpt>
      <trkpt lat="44.43414" lon="5.14526">
        <ele>1089.7</ele>
        <time>2022-10-16T10:23:42Z</time>
      </trkpt>
      <trkpt lat="44.43415" lon="5.14527">
        <ele>1089.8</ele>
        <time>2022-10-16T10:23:41Z</time>
      </trkpt>
      <trkpt lat="44.43416" lon="5.14528">
        <ele>1089.9</ele>
        <time>2022-10-16T10:23:40Z</time>
      </trkpt>
      <trkpt lat="44.43417" lon="5.14529">
        <ele>1089.9</ele>
        <time>2022-10-16T10:23:39Z</time>
      </trkpt>
      <trkpt lat="44.43418" lon="5.14529">
        <ele>1089.9</ele>
        <time>2022-10-16T10:23:38Z</time>
      </trkpt>
      <trkpt lat="44.43418" lon="5.1453">
        <ele>1089.9</ele>
        <time>2022-10-16T10:23:37Z</time>
      </trkpt>
      <trkpt lat="44.43419" lon="5.14531">
        <ele>1089.8</ele>
        <time>2022-10-16T10:23:36Z</time>
      </trkpt>
      <trkpt lat="44.4342" lon="5.14532">
        <ele>1089.8</ele>
        <time>2022-10-16T10:23:35Z</time>
      </trkpt>
      <trkpt lat="44.43421" lon="5.14532">
        <ele>1089.7</ele>
        <time>2022-10-16T10:23:34Z</time>
      </trkpt>
      <trkpt lat="44.43422" lon="5.14533">
        <ele>1089.7</ele>
        <time>2022-10-16T10:23:33Z</time>
      </trkpt>
      <trkpt lat="44.43423" lon="5.14534">
        <ele>1089.7</ele>
        <time>2022-10-16T10:23:32Z</time>
      </trkpt>
      <trkpt lat="44.43424" lon="5.14535">
        <ele>1089.6</ele>
        <time>2022-10-16T10:23:31Z</time>
      </trkpt>
      <trkpt lat="44.43425" lon="5.14536">
        <ele>1089.6</ele>
        <time>2022-10-16T10:23:29Z</time>
      </trkpt>
      <trkpt lat="44.43426" lon="5.14537">
        <ele>1089.6</ele>
        <time>2022-10-16T10:23:28Z</time>
      </trkpt>
      <trkpt lat="44.43427" lon="5.14538">
        <ele>1089.5</ele>
        <time>2022-10-16T10:23:27Z</time>
      </trkpt>
      <trkpt lat="44.43428" lon="5.14538">
        <ele>1089.5</ele>
        <time>2022-10-16T10:23:26Z</time>
      </trkpt>
      <trkpt lat="44.43429" lon="5.14539">
        <ele>1089.5</ele>
        <time>2022-10-16T10:23:25Z</time>
      </trkpt>
      <trkpt lat="44.4343" lon="5.14539">
        <ele>1089.5</ele>
        <time>2022-10-16T10:23:24Z</time>
      </trkpt>
      <trkpt lat="44.4343" lon="5.1454">
        <ele>1089.5</ele>
        <time>2022-10-16T10:23:23Z</time>
      </trkpt>
      <trkpt lat="44.43431" lon="5.1454">
        <ele>1089.5</ele>
        <time>2022-10-16T10:23:22Z</time>
      </trkpt>
      <trkpt lat="44.43432" lon="5.14541">
        <ele>1089.5</ele>
        <time>2022-10-16T10:23:21Z</time>
      </trkpt>
      <trkpt lat="44.43433" lon="5.14541">
        <ele>1089.5</ele>
        <time>2022-10-16T10:23:20Z</time>
      </trkpt>
      <trkpt lat="44.43434" lon="5.14542">
        <ele>1089.5</ele>
        <time>2022-10-16T10:23:19Z</time>
      </trkpt>
      <trkpt lat="44.43435" lon="5.14543">
        <ele>1089.5</ele>
        <time>2022-10-16T10:23:18Z</time>
      </trkpt>
      <trkpt lat="44.43436" lon="5.14543">
        <ele>1089.5</ele>
        <time>2022-10-16T10:23:17Z</time>
      </trkpt>
      <trkpt lat="44.43437" lon="5.14544">
        <ele>1089.5</ele>
        <time>2022-10-16T10:23:16Z</time>
      </trkpt>
      <trkpt lat="44.43438" lon="5.14545">
        <ele>1089.6</ele>
        <time>2022-10-16T10:23:15Z</time>
      </trkpt>
      <trkpt lat="44.43439" lon="5.14545">
        <ele>1089.6</ele>
        <time>2022-10-16T10:23:14Z</time>
      </trkpt>
      <trkpt lat="44.4344" lon="5.14546">
        <ele>1089.6</ele>
        <time>2022-10-16T10:23:13Z</time>
      </trkpt>
      <trkpt lat="44.4344" lon="5.14547">
        <ele>1089.6</ele>
        <time>2022-10-16T10:23:12Z</time>
      </trkpt>
      <trkpt lat="44.43441" lon="5.14547">
        <ele>1089.6</ele>
        <time>2022-10-16T10:23:11Z</time>
      </trkpt>
      <trkpt lat="44.43442" lon="5.14548">
        <ele>1089.7</ele>
        <time>2022-10-16T10:23:10Z</time>
      </trkpt>
      <trkpt lat="44.43443" lon="5.14548">
        <ele>1089.7</ele>
        <time>2022-10-16T10:23:09Z</time>
      </trkpt>
      <trkpt lat="44.43444" lon="5.14549">
        <ele>1089.8</ele>
        <time>2022-10-16T10:23:08Z</time>
      </trkpt>
      <trkpt lat="44.43445" lon="5.1455">
        <ele>1089.7</ele>
        <time>2022-10-16T10:23:07Z</time>
      </trkpt>
      <trkpt lat="44.43446" lon="5.1455">
        <ele>1089.6</ele>
        <time>2022-10-16T10:23:06Z</time>
      </trkpt>
      <trkpt lat="44.43447" lon="5.14551">
        <ele>1089.5</ele>
        <time>2022-10-16T10:23:05Z</time>
      </trkpt>
      <trkpt lat="44.43448" lon="5.14552">
        <ele>1089.5</ele>
        <time>2022-10-16T10:23:04Z</time>
      </trkpt>
      <trkpt lat="44.43449" lon="5.14553">
        <ele>1089.4</ele>
        <time>2022-10-16T10:23:02Z</time>
      </trkpt>
      <trkpt lat="44.4345" lon="5.14554">
        <ele>1089.3</ele>
        <time>2022-10-16T10:23:01Z</time>
      </trkpt>
      <trkpt lat="44.43451" lon="5.14554">
        <ele>1089.2</ele>
        <time>2022-10-16T10:23:00Z</time>
      </trkpt>
      <trkpt lat="44.43451" lon="5.14555">
        <ele>1089.3</ele>
        <time>2022-10-16T10:22:59Z</time>
      </trkpt>
      <trkpt lat="44.43452" lon="5.14555">
        <ele>1089.2</ele>
        <time>2022-10-16T10:22:58Z</time>
      </trkpt>
      <trkpt lat="44.43453" lon="5.14555">
        <ele>1089</ele>
        <time>2022-10-16T10:22:57Z</time>
      </trkpt>
      <trkpt lat="44.43454" lon="5.14556">
        <ele>1088.9</ele>
        <time>2022-10-16T10:22:56Z</time>
      </trkpt>
      <trkpt lat="44.43455" lon="5.14556">
        <ele>1088.8</ele>
        <time>2022-10-16T10:22:55Z</time>
      </trkpt>
      <trkpt lat="44.43455" lon="5.14557">
        <ele>1088.6</ele>
        <time>2022-10-16T10:22:54Z</time>
      </trkpt>
      <trkpt lat="44.43456" lon="5.14557">
        <ele>1088.5</ele>
        <time>2022-10-16T10:22:53Z</time>
      </trkpt>
      <trkpt lat="44.43457" lon="5.14558">
        <ele>1088.2</ele>
        <time>2022-10-16T10:22:52Z</time>
      </trkpt>
      <trkpt lat="44.43458" lon="5.14558">
        <ele>1088.1</ele>
        <time>2022-10-16T10:22:51Z</time>
      </trkpt>
      <trkpt lat="44.43459" lon="5.14559">
        <ele>1087.7</ele>
        <time>2022-10-16T10:22:50Z</time>
      </trkpt>
      <trkpt lat="44.4346" lon="5.14559">
        <ele>1087.6</ele>
        <time>2022-10-16T10:22:49Z</time>
      </trkpt>
      <trkpt lat="44.43461" lon="5.14559">
        <ele>1087.5</ele>
        <time>2022-10-16T10:22:48Z</time>
      </trkpt>
      <trkpt lat="44.43462" lon="5.14559">
        <ele>1087.4</ele>
        <time>2022-10-16T10:22:47Z</time>
      </trkpt>
      <trkpt lat="44.43463" lon="5.1456">
        <ele>1087.1</ele>
        <time>2022-10-16T10:22:46Z</time>
      </trkpt>
      <trkpt lat="44.43464" lon="5.1456">
        <ele>1087</ele>
        <time>2022-10-16T10:22:44Z</time>
      </trkpt>
      <trkpt lat="44.43465" lon="5.1456">
        <ele>1086.9</ele>
        <time>2022-10-16T10:22:43Z</time>
      </trkpt>
      <trkpt lat="44.43466" lon="5.14561">
        <ele>1086.5</ele>
        <time>2022-10-16T10:22:42Z</time>
      </trkpt>
      <trkpt lat="44.43467" lon="5.14561">
        <ele>1086.4</ele>
        <time>2022-10-16T10:22:41Z</time>
      </trkpt>
      <trkpt lat="44.43468" lon="5.14561">
        <ele>1086.3</ele>
        <time>2022-10-16T10:22:40Z</time>
      </trkpt>
      <trkpt lat="44.43469" lon="5.14562">
        <ele>1086</ele>
        <time>2022-10-16T10:22:39Z</time>
      </trkpt>
      <trkpt lat="44.4347" lon="5.14562">
        <ele>1085.9</ele>
        <time>2022-10-16T10:22:38Z</time>
      </trkpt>
      <trkpt lat="44.43471" lon="5.14562">
        <ele>1085.8</ele>
        <time>2022-10-16T10:22:37Z</time>
      </trkpt>
      <trkpt lat="44.43472" lon="5.14563">
        <ele>1085.4</ele>
        <time>2022-10-16T10:22:35Z</time>
      </trkpt>
      <trkpt lat="44.43473" lon="5.14564">
        <ele>1085.1</ele>
        <time>2022-10-16T10:22:33Z</time>
      </trkpt>
      <trkpt lat="44.43474" lon="5.14565">
        <ele>1084.7</ele>
        <time>2022-10-16T10:22:32Z</time>
      </trkpt>
      <trkpt lat="44.43476" lon="5.14566">
        <ele>1084.3</ele>
        <time>2022-10-16T10:22:23Z</time>
      </trkpt>
      <trkpt lat="44.43477" lon="5.14567">
        <ele>1083.9</ele>
        <time>2022-10-16T10:22:22Z</time>
      </trkpt>
      <trkpt lat="44.43478" lon="5.14567">
        <ele>1083.8</ele>
        <time>2022-10-16T10:22:21Z</time>
      </trkpt>
      <trkpt lat="44.43479" lon="5.14567">
        <ele>1083.7</ele>
        <time>2022-10-16T10:22:20Z</time>
      </trkpt>
      <trkpt lat="44.4348" lon="5.14567">
        <ele>1083.5</ele>
        <time>2022-10-16T10:22:19Z</time>
      </trkpt>
      <trkpt lat="44.43481" lon="5.14568">
        <ele>1083.2</ele>
        <time>2022-10-16T10:22:18Z</time>
      </trkpt>
      <trkpt lat="44.43482" lon="5.14568">
        <ele>1083.1</ele>
        <time>2022-10-16T10:22:17Z</time>
      </trkpt>
      <trkpt lat="44.43483" lon="5.14568">
        <ele>1082.9</ele>
        <time>2022-10-16T10:22:16Z</time>
      </trkpt>
      <trkpt lat="44.43484" lon="5.14568">
        <ele>1082.8</ele>
        <time>2022-10-16T10:22:15Z</time>
      </trkpt>
      <trkpt lat="44.43484" lon="5.14569">
        <ele>1082.6</ele>
        <time>2022-10-16T10:22:14Z</time>
      </trkpt>
      <trkpt lat="44.43485" lon="5.14569">
        <ele>1082.5</ele>
        <time>2022-10-16T10:22:12Z</time>
      </trkpt>
      <trkpt lat="44.43486" lon="5.1457">
        <ele>1082.2</ele>
        <time>2022-10-16T10:22:09Z</time>
      </trkpt>
      <trkpt lat="44.43487" lon="5.1457">
        <ele>1082</ele>
        <time>2022-10-16T10:22:06Z</time>
      </trkpt>
      <trkpt lat="44.43487" lon="5.14571">
        <ele>1081.8</ele>
        <time>2022-10-16T10:22:05Z</time>
      </trkpt>
      <trkpt lat="44.43488" lon="5.14571">
        <ele>1081.7</ele>
        <time>2022-10-16T10:22:04Z</time>
      </trkpt>
      <trkpt lat="44.43489" lon="5.14571">
        <ele>1081.6</ele>
        <time>2022-10-16T10:22:03Z</time>
      </trkpt>
      <trkpt lat="44.4349" lon="5.14571">
        <ele>1081.5</ele>
        <time>2022-10-16T10:22:02Z</time>
      </trkpt>
      <trkpt lat="44.43491" lon="5.14571">
        <ele>1081.3</ele>
        <time>2022-10-16T10:22:01Z</time>
      </trkpt>
      <trkpt lat="44.43492" lon="5.14572">
        <ele>1081</ele>
        <time>2022-10-16T10:22:00Z</time>
      </trkpt>
      <trkpt lat="44.43493" lon="5.14572">
        <ele>1080.9</ele>
        <time>2022-10-16T10:21:59Z</time>
      </trkpt>
      <trkpt lat="44.43494" lon="5.14572">
        <ele>1080.8</ele>
        <time>2022-10-16T10:21:58Z</time>
      </trkpt>
      <trkpt lat="44.43495" lon="5.14572">
        <ele>1080.7</ele>
        <time>2022-10-16T10:21:57Z</time>
      </trkpt>
      <trkpt lat="44.43496" lon="5.14573">
        <ele>1080.3</ele>
        <time>2022-10-16T10:21:55Z</time>
      </trkpt>
      <trkpt lat="44.43497" lon="5.14573">
        <ele>1080.2</ele>
        <time>2022-10-16T10:21:54Z</time>
      </trkpt>
      <trkpt lat="44.43498" lon="5.14574">
        <ele>1079.9</ele>
        <time>2022-10-16T10:21:53Z</time>
      </trkpt>
      <trkpt lat="44.43499" lon="5.14574">
        <ele>1079.8</ele>
        <time>2022-10-16T10:21:52Z</time>
      </trkpt>
      <trkpt lat="44.435" lon="5.14574">
        <ele>1079.7</ele>
        <time>2022-10-16T10:21:51Z</time>
      </trkpt>
      <trkpt lat="44.43501" lon="5.14574">
        <ele>1079.6</ele>
        <time>2022-10-16T10:21:50Z</time>
      </trkpt>
      <trkpt lat="44.43502" lon="5.14574">
        <ele>1079.5</ele>
        <time>2022-10-16T10:21:49Z</time>
      </trkpt>
      <trkpt lat="44.43503" lon="5.14574">
        <ele>1079.4</ele>
        <time>2022-10-16T10:21:47Z</time>
      </trkpt>
      <trkpt lat="44.43504" lon="5.14573">
        <ele>1079.5</ele>
        <time>2022-10-16T10:21:46Z</time>
      </trkpt>
      <trkpt lat="44.43505" lon="5.14573">
        <ele>1079.4</ele>
        <time>2022-10-16T10:21:45Z</time>
      </trkpt>
      <trkpt lat="44.43506" lon="5.14573">
        <ele>1079.3</ele>
        <time>2022-10-16T10:21:44Z</time>
      </trkpt>
      <trkpt lat="44.43507" lon="5.14573">
        <ele>1079.2</ele>
        <time>2022-10-16T10:21:43Z</time>
      </trkpt>
      <trkpt lat="44.43508" lon="5.14573">
        <ele>1079.1</ele>
        <time>2022-10-16T10:21:42Z</time>
      </trkpt>
      <trkpt lat="44.43509" lon="5.14573">
        <ele>1079.1</ele>
        <time>2022-10-16T10:21:41Z</time>
      </trkpt>
      <trkpt lat="44.4351" lon="5.14573">
        <ele>1079</ele>
        <time>2022-10-16T10:21:40Z</time>
      </trkpt>
      <trkpt lat="44.43511" lon="5.14573">
        <ele>1078.9</ele>
        <time>2022-10-16T10:21:38Z</time>
      </trkpt>
      <trkpt lat="44.43512" lon="5.14573">
        <ele>1078.8</ele>
        <time>2022-10-16T10:21:37Z</time>
      </trkpt>
      <trkpt lat="44.43513" lon="5.14573">
        <ele>1078.7</ele>
        <time>2022-10-16T10:21:36Z</time>
      </trkpt>
      <trkpt lat="44.43514" lon="5.14574">
        <ele>1078.5</ele>
        <time>2022-10-16T10:21:35Z</time>
      </trkpt>
      <trkpt lat="44.43515" lon="5.14574">
        <ele>1078.4</ele>
        <time>2022-10-16T10:21:34Z</time>
      </trkpt>
      <trkpt lat="44.43516" lon="5.14574">
        <ele>1078.3</ele>
        <time>2022-10-16T10:21:33Z</time>
      </trkpt>
      <trkpt lat="44.43517" lon="5.14574">
        <ele>1078.2</ele>
        <time>2022-10-16T10:21:32Z</time>
      </trkpt>
      <trkpt lat="44.43518" lon="5.14574">
        <ele>1078.2</ele>
        <time>2022-10-16T10:21:31Z</time>
      </trkpt>
      <trkpt lat="44.43519" lon="5.14573">
        <ele>1078.2</ele>
        <time>2022-10-16T10:21:30Z</time>
      </trkpt>
      <trkpt lat="44.4352" lon="5.14573">
        <ele>1078.1</ele>
        <time>2022-10-16T10:21:28Z</time>
      </trkpt>
      <trkpt lat="44.43521" lon="5.14573">
        <ele>1078</ele>
        <time>2022-10-16T10:21:27Z</time>
      </trkpt>
      <trkpt lat="44.43522" lon="5.14573">
        <ele>1077.9</ele>
        <time>2022-10-16T10:21:26Z</time>
      </trkpt>
      <trkpt lat="44.43523" lon="5.14573">
        <ele>1077.8</ele>
        <time>2022-10-16T10:21:25Z</time>
      </trkpt>
      <trkpt lat="44.43524" lon="5.14573">
        <ele>1077.7</ele>
        <time>2022-10-16T10:21:24Z</time>
      </trkpt>
      <trkpt lat="44.43525" lon="5.14573">
        <ele>1077.6</ele>
        <time>2022-10-16T10:21:23Z</time>
      </trkpt>
      <trkpt lat="44.43526" lon="5.14573">
        <ele>1077.5</ele>
        <time>2022-10-16T10:21:21Z</time>
      </trkpt>
      <trkpt lat="44.43527" lon="5.14573">
        <ele>1077.4</ele>
        <time>2022-10-16T10:21:19Z</time>
      </trkpt>
      <trkpt lat="44.43528" lon="5.14573">
        <ele>1077.4</ele>
        <time>2022-10-16T10:21:18Z</time>
      </trkpt>
      <trkpt lat="44.43528" lon="5.14574">
        <ele>1077.3</ele>
        <time>2022-10-16T10:21:17Z</time>
      </trkpt>
      <trkpt lat="44.4353" lon="5.14574">
        <ele>1077.2</ele>
        <time>2022-10-16T10:21:10Z</time>
      </trkpt>
      <trkpt lat="44.43531" lon="5.14574">
        <ele>1077.1</ele>
        <time>2022-10-16T10:21:09Z</time>
      </trkpt>
      <trkpt lat="44.43532" lon="5.14574">
        <ele>1077.1</ele>
        <time>2022-10-16T10:21:08Z</time>
      </trkpt>
      <trkpt lat="44.43532" lon="5.14575">
        <ele>1077.1</ele>
        <time>2022-10-16T10:21:07Z</time>
      </trkpt>
      <trkpt lat="44.43533" lon="5.14575">
        <ele>1077</ele>
        <time>2022-10-16T10:21:06Z</time>
      </trkpt>
      <trkpt lat="44.43534" lon="5.14575">
        <ele>1076.9</ele>
        <time>2022-10-16T10:21:05Z</time>
      </trkpt>
      <trkpt lat="44.43535" lon="5.14575">
        <ele>1076.9</ele>
        <time>2022-10-16T10:21:04Z</time>
      </trkpt>
      <trkpt lat="44.43536" lon="5.14575">
        <ele>1076.8</ele>
        <time>2022-10-16T10:21:02Z</time>
      </trkpt>
      <trkpt lat="44.43537" lon="5.14575">
        <ele>1076.8</ele>
        <time>2022-10-16T10:21:01Z</time>
      </trkpt>
      <trkpt lat="44.43538" lon="5.14575">
        <ele>1076.7</ele>
        <time>2022-10-16T10:20:59Z</time>
      </trkpt>
      <trkpt lat="44.43539" lon="5.14575">
        <ele>1076.7</ele>
        <time>2022-10-16T10:20:58Z</time>
      </trkpt>
      <trkpt lat="44.4354" lon="5.14576">
        <ele>1076.6</ele>
        <time>2022-10-16T10:20:56Z</time>
      </trkpt>
      <trkpt lat="44.43541" lon="5.14576">
        <ele>1076.5</ele>
        <time>2022-10-16T10:20:54Z</time>
      </trkpt>
      <trkpt lat="44.43542" lon="5.14577">
        <ele>1076.5</ele>
        <time>2022-10-16T10:20:53Z</time>
      </trkpt>
      <trkpt lat="44.43543" lon="5.14577">
        <ele>1076.4</ele>
        <time>2022-10-16T10:20:52Z</time>
      </trkpt>
      <trkpt lat="44.43544" lon="5.14577">
        <ele>1076.4</ele>
        <time>2022-10-16T10:20:51Z</time>
      </trkpt>
      <trkpt lat="44.43545" lon="5.14577">
        <ele>1076.3</ele>
        <time>2022-10-16T10:20:50Z</time>
      </trkpt>
      <trkpt lat="44.43546" lon="5.14578">
        <ele>1076.3</ele>
        <time>2022-10-16T10:20:48Z</time>
      </trkpt>
      <trkpt lat="44.43547" lon="5.14578">
        <ele>1076.2</ele>
        <time>2022-10-16T10:20:47Z</time>
      </trkpt>
      <trkpt lat="44.43548" lon="5.14578">
        <ele>1076.2</ele>
        <time>2022-10-16T10:20:46Z</time>
      </trkpt>
      <trkpt lat="44.43549" lon="5.14579">
        <ele>1076.2</ele>
        <time>2022-10-16T10:20:45Z</time>
      </trkpt>
      <trkpt lat="44.4355" lon="5.14579">
        <ele>1076.1</ele>
        <time>2022-10-16T10:20:44Z</time>
      </trkpt>
      <trkpt lat="44.43551" lon="5.1458">
        <ele>1076.1</ele>
        <time>2022-10-16T10:20:43Z</time>
      </trkpt>
      <trkpt lat="44.43552" lon="5.1458">
        <ele>1076</ele>
        <time>2022-10-16T10:20:42Z</time>
      </trkpt>
      <trkpt lat="44.43553" lon="5.1458">
        <ele>1076</ele>
        <time>2022-10-16T10:20:41Z</time>
      </trkpt>
      <trkpt lat="44.43554" lon="5.1458">
        <ele>1075.9</ele>
        <time>2022-10-16T10:20:40Z</time>
      </trkpt>
      <trkpt lat="44.43555" lon="5.1458">
        <ele>1075.9</ele>
        <time>2022-10-16T10:20:39Z</time>
      </trkpt>
      <trkpt lat="44.43557" lon="5.14581">
        <ele>1075.9</ele>
        <time>2022-10-16T10:20:37Z</time>
      </trkpt>
      <trkpt lat="44.43558" lon="5.14581">
        <ele>1075.9</ele>
        <time>2022-10-16T10:20:36Z</time>
      </trkpt>
      <trkpt lat="44.43559" lon="5.14581">
        <ele>1075.9</ele>
        <time>2022-10-16T10:20:35Z</time>
      </trkpt>
      <trkpt lat="44.4356" lon="5.14581">
        <ele>1075.9</ele>
        <time>2022-10-16T10:20:34Z</time>
      </trkpt>
      <trkpt lat="44.43561" lon="5.14581">
        <ele>1075.9</ele>
        <time>2022-10-16T10:20:33Z</time>
      </trkpt>
      <trkpt lat="44.43562" lon="5.14581">
        <ele>1075.9</ele>
        <time>2022-10-16T10:20:32Z</time>
      </trkpt>
      <trkpt lat="44.43563" lon="5.14582">
        <ele>1075.9</ele>
        <time>2022-10-16T10:20:31Z</time>
      </trkpt>
      <trkpt lat="44.43564" lon="5.14582">
        <ele>1075.9</ele>
        <time>2022-10-16T10:20:30Z</time>
      </trkpt>
      <trkpt lat="44.43565" lon="5.14583">
        <ele>1076</ele>
        <time>2022-10-16T10:20:29Z</time>
      </trkpt>
      <trkpt lat="44.43566" lon="5.14583">
        <ele>1076</ele>
        <time>2022-10-16T10:20:28Z</time>
      </trkpt>
      <trkpt lat="44.43567" lon="5.14583">
        <ele>1076</ele>
        <time>2022-10-16T10:20:27Z</time>
      </trkpt>
      <trkpt lat="44.43568" lon="5.14583">
        <ele>1076</ele>
        <time>2022-10-16T10:20:26Z</time>
      </trkpt>
      <trkpt lat="44.43569" lon="5.14583">
        <ele>1076</ele>
        <time>2022-10-16T10:20:25Z</time>
      </trkpt>
      <trkpt lat="44.4357" lon="5.14583">
        <ele>1076</ele>
        <time>2022-10-16T10:20:24Z</time>
      </trkpt>
      <trkpt lat="44.43571" lon="5.14583">
        <ele>1076</ele>
        <time>2022-10-16T10:20:23Z</time>
      </trkpt>
      <trkpt lat="44.43572" lon="5.14583">
        <ele>1076</ele>
        <time>2022-10-16T10:20:22Z</time>
      </trkpt>
      <trkpt lat="44.43573" lon="5.14583">
        <ele>1076</ele>
        <time>2022-10-16T10:20:21Z</time>
      </trkpt>
      <trkpt lat="44.43574" lon="5.14583">
        <ele>1076</ele>
        <time>2022-10-16T10:20:20Z</time>
      </trkpt>
      <trkpt lat="44.43575" lon="5.14583">
        <ele>1076</ele>
        <time>2022-10-16T10:20:19Z</time>
      </trkpt>
      <trkpt lat="44.43576" lon="5.14583">
        <ele>1076</ele>
        <time>2022-10-16T10:20:18Z</time>
      </trkpt>
      <trkpt lat="44.43577" lon="5.14584">
        <ele>1075.7</ele>
        <time>2022-10-16T10:20:17Z</time>
      </trkpt>
      <trkpt lat="44.43578" lon="5.14584">
        <ele>1075.7</ele>
        <time>2022-10-16T10:20:16Z</time>
      </trkpt>
      <trkpt lat="44.43579" lon="5.14584">
        <ele>1075.7</ele>
        <time>2022-10-16T10:20:15Z</time>
      </trkpt>
      <trkpt lat="44.4358" lon="5.14584">
        <ele>1075.8</ele>
        <time>2022-10-16T10:20:14Z</time>
      </trkpt>
      <trkpt lat="44.43581" lon="5.14584">
        <ele>1075.8</ele>
        <time>2022-10-16T10:20:13Z</time>
      </trkpt>
      <trkpt lat="44.43583" lon="5.14584">
        <ele>1075.8</ele>
        <time>2022-10-16T10:20:12Z</time>
      </trkpt>
      <trkpt lat="44.43584" lon="5.14585">
        <ele>1075.4</ele>
        <time>2022-10-16T10:20:11Z</time>
      </trkpt>
      <trkpt lat="44.43585" lon="5.14585">
        <ele>1075.3</ele>
        <time>2022-10-16T10:20:10Z</time>
      </trkpt>
      <trkpt lat="44.43586" lon="5.14585">
        <ele>1075.3</ele>
        <time>2022-10-16T10:20:09Z</time>
      </trkpt>
      <trkpt lat="44.43587" lon="5.14585">
        <ele>1075.3</ele>
        <time>2022-10-16T10:20:08Z</time>
      </trkpt>
      <trkpt lat="44.43588" lon="5.14585">
        <ele>1075.2</ele>
        <time>2022-10-16T10:20:07Z</time>
      </trkpt>
      <trkpt lat="44.43589" lon="5.14586">
        <ele>1074.9</ele>
        <time>2022-10-16T10:20:06Z</time>
      </trkpt>
      <trkpt lat="44.4359" lon="5.14586">
        <ele>1074.8</ele>
        <time>2022-10-16T10:20:05Z</time>
      </trkpt>
      <trkpt lat="44.43591" lon="5.14586">
        <ele>1074.8</ele>
        <time>2022-10-16T10:20:04Z</time>
      </trkpt>
      <trkpt lat="44.43592" lon="5.14586">
        <ele>1074.8</ele>
        <time>2022-10-16T10:20:03Z</time>
      </trkpt>
      <trkpt lat="44.43593" lon="5.14587">
        <ele>1074.4</ele>
        <time>2022-10-16T10:20:02Z</time>
      </trkpt>
      <trkpt lat="44.43594" lon="5.14587">
        <ele>1074.3</ele>
        <time>2022-10-16T10:20:01Z</time>
      </trkpt>
      <trkpt lat="44.43595" lon="5.14587">
        <ele>1074.3</ele>
        <time>2022-10-16T10:20:00Z</time>
      </trkpt>
      <trkpt lat="44.43597" lon="5.14587">
        <ele>1074.3</ele>
        <time>2022-10-16T10:19:59Z</time>
      </trkpt>
      <trkpt lat="44.43598" lon="5.14587">
        <ele>1074.2</ele>
        <time>2022-10-16T10:19:58Z</time>
      </trkpt>
      <trkpt lat="44.43599" lon="5.14588">
        <ele>1073.9</ele>
        <time>2022-10-16T10:19:57Z</time>
      </trkpt>
      <trkpt lat="44.436" lon="5.14588">
        <ele>1073.8</ele>
        <time>2022-10-16T10:19:56Z</time>
      </trkpt>
      <trkpt lat="44.43601" lon="5.14588">
        <ele>1073.8</ele>
        <time>2022-10-16T10:19:55Z</time>
      </trkpt>
      <trkpt lat="44.43602" lon="5.14588">
        <ele>1073.8</ele>
        <time>2022-10-16T10:19:54Z</time>
      </trkpt>
      <trkpt lat="44.43603" lon="5.14588">
        <ele>1073.7</ele>
        <time>2022-10-16T10:19:53Z</time>
      </trkpt>
      <trkpt lat="44.43604" lon="5.14588">
        <ele>1073.7</ele>
        <time>2022-10-16T10:19:52Z</time>
      </trkpt>
      <trkpt lat="44.43605" lon="5.14588">
        <ele>1073.7</ele>
        <time>2022-10-16T10:19:51Z</time>
      </trkpt>
      <trkpt lat="44.43606" lon="5.14588">
        <ele>1073.6</ele>
        <time>2022-10-16T10:19:50Z</time>
      </trkpt>
      <trkpt lat="44.43607" lon="5.14588">
        <ele>1073.6</ele>
        <time>2022-10-16T10:19:49Z</time>
      </trkpt>
      <trkpt lat="44.43609" lon="5.14588">
        <ele>1073.6</ele>
        <time>2022-10-16T10:19:48Z</time>
      </trkpt>
      <trkpt lat="44.4361" lon="5.14589">
        <ele>1073.2</ele>
        <time>2022-10-16T10:19:47Z</time>
      </trkpt>
      <trkpt lat="44.43611" lon="5.14589">
        <ele>1073.2</ele>
        <time>2022-10-16T10:19:46Z</time>
      </trkpt>
      <trkpt lat="44.43612" lon="5.14589">
        <ele>1073.1</ele>
        <time>2022-10-16T10:19:45Z</time>
      </trkpt>
      <trkpt lat="44.43613" lon="5.14589">
        <ele>1073.1</ele>
        <time>2022-10-16T10:19:44Z</time>
      </trkpt>
      <trkpt lat="44.43614" lon="5.1459">
        <ele>1072.7</ele>
        <time>2022-10-16T10:19:43Z</time>
      </trkpt>
      <trkpt lat="44.43615" lon="5.1459">
        <ele>1072.7</ele>
        <time>2022-10-16T10:19:42Z</time>
      </trkpt>
      <trkpt lat="44.43616" lon="5.1459">
        <ele>1072.6</ele>
        <time>2022-10-16T10:19:41Z</time>
      </trkpt>
      <trkpt lat="44.43617" lon="5.14591">
        <ele>1072.3</ele>
        <time>2022-10-16T10:19:40Z</time>
      </trkpt>
      <trkpt lat="44.43618" lon="5.14591">
        <ele>1072.2</ele>
        <time>2022-10-16T10:19:39Z</time>
      </trkpt>
      <trkpt lat="44.43619" lon="5.14591">
        <ele>1072.2</ele>
        <time>2022-10-16T10:19:38Z</time>
      </trkpt>
      <trkpt lat="44.4362" lon="5.14592">
        <ele>1071.9</ele>
        <time>2022-10-16T10:19:37Z</time>
      </trkpt>
      <trkpt lat="44.43621" lon="5.14592">
        <ele>1071.8</ele>
        <time>2022-10-16T10:19:36Z</time>
      </trkpt>
      <trkpt lat="44.43622" lon="5.14592">
        <ele>1071.8</ele>
        <time>2022-10-16T10:19:35Z</time>
      </trkpt>
      <trkpt lat="44.43623" lon="5.14592">
        <ele>1071.7</ele>
        <time>2022-10-16T10:19:34Z</time>
      </trkpt>
      <trkpt lat="44.43625" lon="5.14592">
        <ele>1071.7</ele>
        <time>2022-10-16T10:19:33Z</time>
      </trkpt>
      <trkpt lat="44.43626" lon="5.14592">
        <ele>1071.6</ele>
        <time>2022-10-16T10:19:32Z</time>
      </trkpt>
      <trkpt lat="44.43627" lon="5.14592">
        <ele>1071.6</ele>
        <time>2022-10-16T10:19:31Z</time>
      </trkpt>
      <trkpt lat="44.43628" lon="5.14592">
        <ele>1071.5</ele>
        <time>2022-10-16T10:19:30Z</time>
      </trkpt>
      <trkpt lat="44.43629" lon="5.14592">
        <ele>1071.5</ele>
        <time>2022-10-16T10:19:29Z</time>
      </trkpt>
      <trkpt lat="44.4363" lon="5.14592">
        <ele>1071.5</ele>
        <time>2022-10-16T10:19:28Z</time>
      </trkpt>
      <trkpt lat="44.43631" lon="5.14592">
        <ele>1071.4</ele>
        <time>2022-10-16T10:19:27Z</time>
      </trkpt>
      <trkpt lat="44.43632" lon="5.14592">
        <ele>1071.4</ele>
        <time>2022-10-16T10:19:26Z</time>
      </trkpt>
      <trkpt lat="44.43633" lon="5.14592">
        <ele>1071.4</ele>
        <time>2022-10-16T10:19:25Z</time>
      </trkpt>
      <trkpt lat="44.43634" lon="5.14592">
        <ele>1071.3</ele>
        <time>2022-10-16T10:19:24Z</time>
      </trkpt>
      <trkpt lat="44.43635" lon="5.14593">
        <ele>1071</ele>
        <time>2022-10-16T10:19:23Z</time>
      </trkpt>
      <trkpt lat="44.43636" lon="5.14593">
        <ele>1071</ele>
        <time>2022-10-16T10:19:22Z</time>
      </trkpt>
      <trkpt lat="44.43637" lon="5.14593">
        <ele>1071</ele>
        <time>2022-10-16T10:19:21Z</time>
      </trkpt>
      <trkpt lat="44.43638" lon="5.14593">
        <ele>1070.9</ele>
        <time>2022-10-16T10:19:20Z</time>
      </trkpt>
      <trkpt lat="44.4364" lon="5.14593">
        <ele>1070.9</ele>
        <time>2022-10-16T10:19:19Z</time>
      </trkpt>
      <trkpt lat="44.43641" lon="5.14593">
        <ele>1070.9</ele>
        <time>2022-10-16T10:19:18Z</time>
      </trkpt>
      <trkpt lat="44.43642" lon="5.14593">
        <ele>1070.9</ele>
        <time>2022-10-16T10:19:17Z</time>
      </trkpt>
      <trkpt lat="44.43643" lon="5.14593">
        <ele>1070.9</ele>
        <time>2022-10-16T10:19:16Z</time>
      </trkpt>
      <trkpt lat="44.43644" lon="5.14593">
        <ele>1070.9</ele>
        <time>2022-10-16T10:19:15Z</time>
      </trkpt>
      <trkpt lat="44.43645" lon="5.14594">
        <ele>1070.6</ele>
        <time>2022-10-16T10:19:13Z</time>
      </trkpt>
      <trkpt lat="44.43646" lon="5.14594">
        <ele>1070.6</ele>
        <time>2022-10-16T10:19:12Z</time>
      </trkpt>
      <trkpt lat="44.43648" lon="5.14594">
        <ele>1070.6</ele>
        <time>2022-10-16T10:19:11Z</time>
      </trkpt>
      <trkpt lat="44.43649" lon="5.14594">
        <ele>1070.6</ele>
        <time>2022-10-16T10:19:10Z</time>
      </trkpt>
      <trkpt lat="44.4365" lon="5.14594">
        <ele>1070.6</ele>
        <time>2022-10-16T10:19:09Z</time>
      </trkpt>
      <trkpt lat="44.43651" lon="5.14595">
        <ele>1070.4</ele>
        <time>2022-10-16T10:19:08Z</time>
      </trkpt>
      <trkpt lat="44.43652" lon="5.14595">
        <ele>1070.4</ele>
        <time>2022-10-16T10:19:07Z</time>
      </trkpt>
      <trkpt lat="44.43653" lon="5.14595">
        <ele>1070.4</ele>
        <time>2022-10-16T10:19:06Z</time>
      </trkpt>
      <trkpt lat="44.43654" lon="5.14595">
        <ele>1070.4</ele>
        <time>2022-10-16T10:19:05Z</time>
      </trkpt>
      <trkpt lat="44.43655" lon="5.14595">
        <ele>1070.4</ele>
        <time>2022-10-16T10:19:04Z</time>
      </trkpt>
      <trkpt lat="44.43656" lon="5.14595">
        <ele>1070.4</ele>
        <time>2022-10-16T10:19:03Z</time>
      </trkpt>
      <trkpt lat="44.43657" lon="5.14595">
        <ele>1070.4</ele>
        <time>2022-10-16T10:19:02Z</time>
      </trkpt>
      <trkpt lat="44.43658" lon="5.14594">
        <ele>1070.5</ele>
        <time>2022-10-16T10:19:01Z</time>
      </trkpt>
      <trkpt lat="44.43659" lon="5.14594">
        <ele>1070.5</ele>
        <time>2022-10-16T10:19:00Z</time>
      </trkpt>
      <trkpt lat="44.43661" lon="5.14594">
        <ele>1070.5</ele>
        <time>2022-10-16T10:18:59Z</time>
      </trkpt>
      <trkpt lat="44.43662" lon="5.14594">
        <ele>1070.5</ele>
        <time>2022-10-16T10:18:58Z</time>
      </trkpt>
      <trkpt lat="44.43663" lon="5.14594">
        <ele>1070.5</ele>
        <time>2022-10-16T10:18:57Z</time>
      </trkpt>
      <trkpt lat="44.43664" lon="5.14594">
        <ele>1070.5</ele>
        <time>2022-10-16T10:18:56Z</time>
      </trkpt>
      <trkpt lat="44.43665" lon="5.14594">
        <ele>1070.5</ele>
        <time>2022-10-16T10:18:55Z</time>
      </trkpt>
      <trkpt lat="44.43666" lon="5.14595">
        <ele>1070.3</ele>
        <time>2022-10-16T10:18:54Z</time>
      </trkpt>
      <trkpt lat="44.43667" lon="5.14595">
        <ele>1070.3</ele>
        <time>2022-10-16T10:18:53Z</time>
      </trkpt>
      <trkpt lat="44.43668" lon="5.14595">
        <ele>1070.1</ele>
        <time>2022-10-16T10:18:52Z</time>
      </trkpt>
      <trkpt lat="44.43669" lon="5.14595">
        <ele>1070</ele>
        <time>2022-10-16T10:18:51Z</time>
      </trkpt>
      <trkpt lat="44.4367" lon="5.14596">
        <ele>1069.7</ele>
        <time>2022-10-16T10:18:50Z</time>
      </trkpt>
      <trkpt lat="44.43671" lon="5.14596">
        <ele>1069.6</ele>
        <time>2022-10-16T10:18:49Z</time>
      </trkpt>
      <trkpt lat="44.43672" lon="5.14596">
        <ele>1069.5</ele>
        <time>2022-10-16T10:18:48Z</time>
      </trkpt>
      <trkpt lat="44.43673" lon="5.14596">
        <ele>1069.3</ele>
        <time>2022-10-16T10:18:46Z</time>
      </trkpt>
      <trkpt lat="44.43674" lon="5.14597">
        <ele>1069.1</ele>
        <time>2022-10-16T10:18:21Z</time>
      </trkpt>
      <trkpt lat="44.43675" lon="5.14597">
        <ele>1069</ele>
        <time>2022-10-16T10:18:20Z</time>
      </trkpt>
      <trkpt lat="44.43676" lon="5.14597">
        <ele>1068.8</ele>
        <time>2022-10-16T10:18:19Z</time>
      </trkpt>
      <trkpt lat="44.43677" lon="5.14597">
        <ele>1068.7</ele>
        <time>2022-10-16T10:18:18Z</time>
      </trkpt>
      <trkpt lat="44.43677" lon="5.14598">
        <ele>1068.6</ele>
        <time>2022-10-16T10:18:17Z</time>
      </trkpt>
      <trkpt lat="44.43678" lon="5.14598">
        <ele>1068.5</ele>
        <time>2022-10-16T10:18:16Z</time>
      </trkpt>
      <trkpt lat="44.43679" lon="5.14598">
        <ele>1068.4</ele>
        <time>2022-10-16T10:18:15Z</time>
      </trkpt>
      <trkpt lat="44.4368" lon="5.14598">
        <ele>1068.2</ele>
        <time>2022-10-16T10:18:14Z</time>
      </trkpt>
      <trkpt lat="44.43681" lon="5.14598">
        <ele>1068.1</ele>
        <time>2022-10-16T10:18:12Z</time>
      </trkpt>
      <trkpt lat="44.43682" lon="5.14598">
        <ele>1068</ele>
        <time>2022-10-16T10:18:10Z</time>
      </trkpt>
      <trkpt lat="44.43683" lon="5.14598">
        <ele>1067.9</ele>
        <time>2022-10-16T10:18:09Z</time>
      </trkpt>
      <trkpt lat="44.43684" lon="5.14599">
        <ele>1067.7</ele>
        <time>2022-10-16T10:17:57Z</time>
      </trkpt>
      <trkpt lat="44.43685" lon="5.14599">
        <ele>1067.6</ele>
        <time>2022-10-16T10:17:56Z</time>
      </trkpt>
      <trkpt lat="44.43686" lon="5.146">
        <ele>1067.4</ele>
        <time>2022-10-16T10:17:55Z</time>
      </trkpt>
      <trkpt lat="44.43687" lon="5.146">
        <ele>1067.3</ele>
        <time>2022-10-16T10:17:54Z</time>
      </trkpt>
      <trkpt lat="44.43688" lon="5.14601">
        <ele>1067.1</ele>
        <time>2022-10-16T10:17:53Z</time>
      </trkpt>
      <trkpt lat="44.43689" lon="5.14601">
        <ele>1067</ele>
        <time>2022-10-16T10:17:52Z</time>
      </trkpt>
      <trkpt lat="44.43689" lon="5.14602">
        <ele>1066.9</ele>
        <time>2022-10-16T10:17:51Z</time>
      </trkpt>
      <trkpt lat="44.4369" lon="5.14603">
        <ele>1066.8</ele>
        <time>2022-10-16T10:17:50Z</time>
      </trkpt>
      <trkpt lat="44.43691" lon="5.14604">
        <ele>1066.6</ele>
        <time>2022-10-16T10:17:49Z</time>
      </trkpt>
      <trkpt lat="44.43692" lon="5.14605">
        <ele>1066.5</ele>
        <time>2022-10-16T10:17:48Z</time>
      </trkpt>
      <trkpt lat="44.43692" lon="5.14607">
        <ele>1066.4</ele>
        <time>2022-10-16T10:17:47Z</time>
      </trkpt>
      <trkpt lat="44.43693" lon="5.14609">
        <ele>1066.2</ele>
        <time>2022-10-16T10:17:46Z</time>
      </trkpt>
      <trkpt lat="44.43694" lon="5.14613">
        <ele>1065.3</ele>
        <time>2022-10-16T10:17:15Z</time>
      </trkpt>
      <trkpt lat="44.43695" lon="5.14614">
        <ele>1064.6</ele>
        <time>2022-10-16T10:17:13Z</time>
      </trkpt>
      <trkpt lat="44.43695" lon="5.14615">
        <ele>1064.3</ele>
        <time>2022-10-16T10:17:12Z</time>
      </trkpt>
      <trkpt lat="44.43695" lon="5.14616">
        <ele>1063.9</ele>
        <time>2022-10-16T10:17:11Z</time>
      </trkpt>
      <trkpt lat="44.43695" lon="5.14618">
        <ele>1063.2</ele>
        <time>2022-10-16T10:17:10Z</time>
      </trkpt>
      <trkpt lat="44.43695" lon="5.14619">
        <ele>1062.8</ele>
        <time>2022-10-16T10:17:09Z</time>
      </trkpt>
      <trkpt lat="44.43695" lon="5.14622">
        <ele>1061.8</ele>
        <time>2022-10-16T10:17:08Z</time>
      </trkpt>
      <trkpt lat="44.43695" lon="5.14624">
        <ele>1061.1</ele>
        <time>2022-10-16T10:17:07Z</time>
      </trkpt>
      <trkpt lat="44.43695" lon="5.14629">
        <ele>1059.3</ele>
        <time>2022-10-16T10:16:53Z</time>
      </trkpt>
      <trkpt lat="44.43695" lon="5.1463">
        <ele>1058.9</ele>
        <time>2022-10-16T10:16:52Z</time>
      </trkpt>
      <trkpt lat="44.43695" lon="5.14632">
        <ele>1058.2</ele>
        <time>2022-10-16T10:16:51Z</time>
      </trkpt>
      <trkpt lat="44.43696" lon="5.14637">
        <ele>1055.9</ele>
        <time>2022-10-16T10:16:40Z</time>
      </trkpt>
      <trkpt lat="44.43697" lon="5.14639">
        <ele>1054.7</ele>
        <time>2022-10-16T10:16:39Z</time>
      </trkpt>
      <trkpt lat="44.43698" lon="5.14642">
        <ele>1052.7</ele>
        <time>2022-10-16T10:16:38Z</time>
      </trkpt>
      <trkpt lat="44.437" lon="5.14647">
        <ele>1049.4</ele>
        <time>2022-10-16T10:14:26Z</time>
      </trkpt>
      <trkpt lat="44.43701" lon="5.14648">
        <ele>1048.5</ele>
        <time>2022-10-16T10:14:25Z</time>
      </trkpt>
      <trkpt lat="44.43702" lon="5.14648">
        <ele>1048.1</ele>
        <time>2022-10-16T10:14:24Z</time>
      </trkpt>
      <trkpt lat="44.43704" lon="5.14649">
        <ele>1046.8</ele>
        <time>2022-10-16T10:14:23Z</time>
      </trkpt>
      <trkpt lat="44.43705" lon="5.1465">
        <ele>1046</ele>
        <time>2022-10-16T10:14:22Z</time>
      </trkpt>
      <trkpt lat="44.43708" lon="5.14651">
        <ele>1044.4</ele>
        <time>2022-10-16T10:13:57Z</time>
      </trkpt>
      <trkpt lat="44.43708" lon="5.1465">
        <ele>1044.8</ele>
        <time>2022-10-16T10:13:56Z</time>
      </trkpt>
      <trkpt lat="44.43709" lon="5.1465">
        <ele>1044.4</ele>
        <time>2022-10-16T10:13:55Z</time>
      </trkpt>
      <trkpt lat="44.43709" lon="5.14649">
        <ele>1044.9</ele>
        <time>2022-10-16T10:13:54Z</time>
      </trkpt>
      <trkpt lat="44.43709" lon="5.14648">
        <ele>1045.3</ele>
        <time>2022-10-16T10:13:53Z</time>
      </trkpt>
      <trkpt lat="44.4371" lon="5.14647">
        <ele>1045.3</ele>
        <time>2022-10-16T10:13:52Z</time>
      </trkpt>
      <trkpt lat="44.43711" lon="5.14647">
        <ele>1044.9</ele>
        <time>2022-10-16T10:13:51Z</time>
      </trkpt>
      <trkpt lat="44.43711" lon="5.14646">
        <ele>1045.3</ele>
        <time>2022-10-16T10:13:50Z</time>
      </trkpt>
      <trkpt lat="44.43712" lon="5.14645">
        <ele>1045.3</ele>
        <time>2022-10-16T10:13:49Z</time>
      </trkpt>
      <trkpt lat="44.43714" lon="5.14643">
        <ele>1045.3</ele>
        <time>2022-10-16T10:13:36Z</time>
      </trkpt>
      <trkpt lat="44.43715" lon="5.14644">
        <ele>1044.4</ele>
        <time>2022-10-16T10:13:35Z</time>
      </trkpt>
      <trkpt lat="44.43716" lon="5.14644">
        <ele>1044</ele>
        <time>2022-10-16T10:13:34Z</time>
      </trkpt>
      <trkpt lat="44.43717" lon="5.14645">
        <ele>1043.2</ele>
        <time>2022-10-16T10:13:33Z</time>
      </trkpt>
      <trkpt lat="44.43718" lon="5.14646">
        <ele>1042.4</ele>
        <time>2022-10-16T10:13:32Z</time>
      </trkpt>
      <trkpt lat="44.4372" lon="5.1465">
        <ele>1040.2</ele>
        <time>2022-10-16T10:13:11Z</time>
      </trkpt>
      <trkpt lat="44.4372" lon="5.14654">
        <ele>1038.9</ele>
        <time>2022-10-16T10:13:10Z</time>
      </trkpt>
      <trkpt lat="44.43719" lon="5.14659">
        <ele>1037.5</ele>
        <time>2022-10-16T10:13:09Z</time>
      </trkpt>
      <trkpt lat="44.43718" lon="5.14669">
        <ele>1034.1</ele>
        <time>2022-10-16T10:12:11Z</time>
      </trkpt>
      <trkpt lat="44.43718" lon="5.14673">
        <ele>1032.3</ele>
        <time>2022-10-16T10:12:10Z</time>
      </trkpt>
      <trkpt lat="44.43718" lon="5.14677">
        <ele>1030.6</ele>
        <time>2022-10-16T10:12:09Z</time>
      </trkpt>
      <trkpt lat="44.43719" lon="5.14684">
        <ele>1027.5</ele>
        <time>2022-10-16T10:11:02Z</time>
      </trkpt>
      <trkpt lat="44.43718" lon="5.14685">
        <ele>1027.2</ele>
        <time>2022-10-16T10:11:01Z</time>
      </trkpt>
      <trkpt lat="44.43718" lon="5.14686">
        <ele>1026.8</ele>
        <time>2022-10-16T10:11:00Z</time>
      </trkpt>
      <trkpt lat="44.43718" lon="5.14688">
        <ele>1025.9</ele>
        <time>2022-10-16T10:10:54Z</time>
      </trkpt>
      <trkpt lat="44.43717" lon="5.14688">
        <ele>1026</ele>
        <time>2022-10-16T10:10:53Z</time>
      </trkpt>
      <trkpt lat="44.43717" lon="5.14689">
        <ele>1025.6</ele>
        <time>2022-10-16T10:10:52Z</time>
      </trkpt>
      <trkpt lat="44.43716" lon="5.1469">
        <ele>1025.2</ele>
        <time>2022-10-16T10:10:51Z</time>
      </trkpt>
      <trkpt lat="44.43716" lon="5.14691">
        <ele>1024.8</ele>
        <time>2022-10-16T10:10:50Z</time>
      </trkpt>
      <trkpt lat="44.43715" lon="5.14692">
        <ele>1024.4</ele>
        <time>2022-10-16T10:10:48Z</time>
      </trkpt>
      <trkpt lat="44.43714" lon="5.14694">
        <ele>1023.5</ele>
        <time>2022-10-16T10:10:47Z</time>
      </trkpt>
      <trkpt lat="44.43714" lon="5.14695">
        <ele>1023</ele>
        <time>2022-10-16T10:10:46Z</time>
      </trkpt>
      <trkpt lat="44.43714" lon="5.14697">
        <ele>1021.8</ele>
        <time>2022-10-16T10:10:38Z</time>
      </trkpt>
      <trkpt lat="44.43715" lon="5.14697">
        <ele>1021.8</ele>
        <time>2022-10-16T10:10:36Z</time>
      </trkpt>
      <trkpt lat="44.43716" lon="5.14697">
        <ele>1021.8</ele>
        <time>2022-10-16T10:10:34Z</time>
      </trkpt>
      <trkpt lat="44.43717" lon="5.14697">
        <ele>1021.7</ele>
        <time>2022-10-16T10:10:32Z</time>
      </trkpt>
      <trkpt lat="44.43718" lon="5.14696">
        <ele>1022.3</ele>
        <time>2022-10-16T10:10:30Z</time>
      </trkpt>
      <trkpt lat="44.43719" lon="5.14695">
        <ele>1022.8</ele>
        <time>2022-10-16T10:10:29Z</time>
      </trkpt>
      <trkpt lat="44.4372" lon="5.14695">
        <ele>1022.8</ele>
        <time>2022-10-16T10:10:26Z</time>
      </trkpt>
      <trkpt lat="44.43721" lon="5.14694">
        <ele>1023.2</ele>
        <time>2022-10-16T10:10:25Z</time>
      </trkpt>
      <trkpt lat="44.43722" lon="5.14694">
        <ele>1023.2</ele>
        <time>2022-10-16T10:10:24Z</time>
      </trkpt>
      <trkpt lat="44.43722" lon="5.14693">
        <ele>1023.6</ele>
        <time>2022-10-16T10:10:22Z</time>
      </trkpt>
      <trkpt lat="44.43723" lon="5.14692">
        <ele>1023.3</ele>
        <time>2022-10-16T10:10:20Z</time>
      </trkpt>
      <trkpt lat="44.43724" lon="5.14691">
        <ele>1022.9</ele>
        <time>2022-10-16T10:10:18Z</time>
      </trkpt>
      <trkpt lat="44.43725" lon="5.14691">
        <ele>1022.1</ele>
        <time>2022-10-16T10:10:17Z</time>
      </trkpt>
      <trkpt lat="44.43725" lon="5.1469">
        <ele>1022.5</ele>
        <time>2022-10-16T10:10:16Z</time>
      </trkpt>
      <trkpt lat="44.43726" lon="5.1469">
        <ele>1021.7</ele>
        <time>2022-10-16T10:10:15Z</time>
      </trkpt>
      <trkpt lat="44.43727" lon="5.14689">
        <ele>1021.3</ele>
        <time>2022-10-16T10:10:13Z</time>
      </trkpt>
      <trkpt lat="44.43728" lon="5.14688">
        <ele>1020.9</ele>
        <time>2022-10-16T10:10:12Z</time>
      </trkpt>
      <trkpt lat="44.43728" lon="5.14687">
        <ele>1021.3</ele>
        <time>2022-10-16T10:10:11Z</time>
      </trkpt>
      <trkpt lat="44.43729" lon="5.14687">
        <ele>1020.4</ele>
        <time>2022-10-16T10:10:10Z</time>
      </trkpt>
      <trkpt lat="44.4373" lon="5.14686">
        <ele>1020</ele>
        <time>2022-10-16T10:10:08Z</time>
      </trkpt>
      <trkpt lat="44.43731" lon="5.14685">
        <ele>1019.6</ele>
        <time>2022-10-16T10:10:07Z</time>
      </trkpt>
      <trkpt lat="44.43732" lon="5.14685">
        <ele>1018.8</ele>
        <time>2022-10-16T10:10:06Z</time>
      </trkpt>
      <trkpt lat="44.43732" lon="5.14684">
        <ele>1019.1</ele>
        <time>2022-10-16T10:10:05Z</time>
      </trkpt>
      <trkpt lat="44.43733" lon="5.14684">
        <ele>1018.3</ele>
        <time>2022-10-16T10:10:04Z</time>
      </trkpt>
      <trkpt lat="44.43733" lon="5.14683">
        <ele>1018.7</ele>
        <time>2022-10-16T10:10:03Z</time>
      </trkpt>
      <trkpt lat="44.43734" lon="5.14683">
        <ele>1017.9</ele>
        <time>2022-10-16T10:10:02Z</time>
      </trkpt>
      <trkpt lat="44.43735" lon="5.14682">
        <ele>1017.4</ele>
        <time>2022-10-16T10:09:59Z</time>
      </trkpt>
      <trkpt lat="44.43736" lon="5.14682">
        <ele>1016.6</ele>
        <time>2022-10-16T10:09:56Z</time>
      </trkpt>
      <trkpt lat="44.43735" lon="5.14683">
        <ele>1017</ele>
        <time>2022-10-16T10:09:05Z</time>
      </trkpt>
      <trkpt lat="44.43735" lon="5.14684">
        <ele>1016.7</ele>
        <time>2022-10-16T10:09:04Z</time>
      </trkpt>
      <trkpt lat="44.43735" lon="5.14685">
        <ele>1016.3</ele>
        <time>2022-10-16T10:09:03Z</time>
      </trkpt>
      <trkpt lat="44.43735" lon="5.14686">
        <ele>1015.9</ele>
        <time>2022-10-16T10:09:02Z</time>
      </trkpt>
      <trkpt lat="44.43734" lon="5.14687">
        <ele>1016.4</ele>
        <time>2022-10-16T10:09:00Z</time>
      </trkpt>
      <trkpt lat="44.43734" lon="5.14688">
        <ele>1016</ele>
        <time>2022-10-16T10:08:59Z</time>
      </trkpt>
      <trkpt lat="44.43734" lon="5.14689">
        <ele>1015.7</ele>
        <time>2022-10-16T10:08:58Z</time>
      </trkpt>
      <trkpt lat="44.43734" lon="5.1469">
        <ele>1015.3</ele>
        <time>2022-10-16T10:08:56Z</time>
      </trkpt>
      <trkpt lat="44.43733" lon="5.14691">
        <ele>1015.7</ele>
        <time>2022-10-16T10:08:55Z</time>
      </trkpt>
      <trkpt lat="44.43733" lon="5.14692">
        <ele>1015.4</ele>
        <time>2022-10-16T10:08:53Z</time>
      </trkpt>
      <trkpt lat="44.43733" lon="5.14693">
        <ele>1015</ele>
        <time>2022-10-16T10:08:52Z</time>
      </trkpt>
      <trkpt lat="44.43732" lon="5.14694">
        <ele>1015.4</ele>
        <time>2022-10-16T10:08:50Z</time>
      </trkpt>
      <trkpt lat="44.43732" lon="5.14695">
        <ele>1015</ele>
        <time>2022-10-16T10:08:49Z</time>
      </trkpt>
      <trkpt lat="44.43731" lon="5.14695">
        <ele>1015.8</ele>
        <time>2022-10-16T10:08:48Z</time>
      </trkpt>
      <trkpt lat="44.43731" lon="5.14696">
        <ele>1015.3</ele>
        <time>2022-10-16T10:08:47Z</time>
      </trkpt>
      <trkpt lat="44.43731" lon="5.14697">
        <ele>1014.8</ele>
        <time>2022-10-16T10:08:45Z</time>
      </trkpt>
      <trkpt lat="44.4373" lon="5.14698">
        <ele>1015.1</ele>
        <time>2022-10-16T10:08:44Z</time>
      </trkpt>
      <trkpt lat="44.4373" lon="5.14699">
        <ele>1014.6</ele>
        <time>2022-10-16T10:08:43Z</time>
      </trkpt>
      <trkpt lat="44.4373" lon="5.147">
        <ele>1014.1</ele>
        <time>2022-10-16T10:08:41Z</time>
      </trkpt>
      <trkpt lat="44.43729" lon="5.14701">
        <ele>1014.3</ele>
        <time>2022-10-16T10:08:40Z</time>
      </trkpt>
      <trkpt lat="44.43729" lon="5.14702">
        <ele>1013.8</ele>
        <time>2022-10-16T10:08:38Z</time>
      </trkpt>
      <trkpt lat="44.43728" lon="5.14703">
        <ele>1014</ele>
        <time>2022-10-16T10:08:37Z</time>
      </trkpt>
      <trkpt lat="44.43728" lon="5.14704">
        <ele>1013.5</ele>
        <time>2022-10-16T10:08:36Z</time>
      </trkpt>
      <trkpt lat="44.43728" lon="5.14705">
        <ele>1013</ele>
        <time>2022-10-16T10:08:35Z</time>
      </trkpt>
      <trkpt lat="44.43727" lon="5.14706">
        <ele>1013.1</ele>
        <time>2022-10-16T10:08:33Z</time>
      </trkpt>
      <trkpt lat="44.43726" lon="5.14707">
        <ele>1013.3</ele>
        <time>2022-10-16T10:08:31Z</time>
      </trkpt>
      <trkpt lat="44.43726" lon="5.14708">
        <ele>1012.7</ele>
        <time>2022-10-16T10:08:30Z</time>
      </trkpt>
      <trkpt lat="44.43725" lon="5.14709">
        <ele>1012.8</ele>
        <time>2022-10-16T10:08:28Z</time>
      </trkpt>
      <trkpt lat="44.43725" lon="5.14711">
        <ele>1011.7</ele>
        <time>2022-10-16T10:08:27Z</time>
      </trkpt>
      <trkpt lat="44.43724" lon="5.14712">
        <ele>1011.8</ele>
        <time>2022-10-16T10:08:26Z</time>
      </trkpt>
      <trkpt lat="44.43724" lon="5.14715">
        <ele>1010.1</ele>
        <time>2022-10-16T10:08:16Z</time>
      </trkpt>
      <trkpt lat="44.43724" lon="5.14716">
        <ele>1009.6</ele>
        <time>2022-10-16T10:08:14Z</time>
      </trkpt>
      <trkpt lat="44.43724" lon="5.14717">
        <ele>1009</ele>
        <time>2022-10-16T10:08:13Z</time>
      </trkpt>
      <trkpt lat="44.43724" lon="5.14718">
        <ele>1008.5</ele>
        <time>2022-10-16T10:08:11Z</time>
      </trkpt>
      <trkpt lat="44.43724" lon="5.14719">
        <ele>1007.9</ele>
        <time>2022-10-16T10:08:10Z</time>
      </trkpt>
      <trkpt lat="44.43725" lon="5.14719">
        <ele>1007.4</ele>
        <time>2022-10-16T10:08:08Z</time>
      </trkpt>
      <trkpt lat="44.43726" lon="5.14719">
        <ele>1006.8</ele>
        <time>2022-10-16T10:08:06Z</time>
      </trkpt>
      <trkpt lat="44.43727" lon="5.14719">
        <ele>1006.3</ele>
        <time>2022-10-16T10:08:05Z</time>
      </trkpt>
      <trkpt lat="44.43728" lon="5.14718">
        <ele>1006.3</ele>
        <time>2022-10-16T10:08:03Z</time>
      </trkpt>
      <trkpt lat="44.43729" lon="5.14718">
        <ele>1005.7</ele>
        <time>2022-10-16T10:08:01Z</time>
      </trkpt>
      <trkpt lat="44.4373" lon="5.14718">
        <ele>1005.2</ele>
        <time>2022-10-16T10:07:59Z</time>
      </trkpt>
      <trkpt lat="44.4373" lon="5.14719">
        <ele>1004.7</ele>
        <time>2022-10-16T10:07:58Z</time>
      </trkpt>
      <trkpt lat="44.43731" lon="5.14719">
        <ele>1004.1</ele>
        <time>2022-10-16T10:07:57Z</time>
      </trkpt>
      <trkpt lat="44.43731" lon="5.1472">
        <ele>1003.7</ele>
        <time>2022-10-16T10:07:54Z</time>
      </trkpt>
      <trkpt lat="44.4373" lon="5.14721">
        <ele>1003.7</ele>
        <time>2022-10-16T10:07:53Z</time>
      </trkpt>
      <trkpt lat="44.4373" lon="5.14722">
        <ele>1003.2</ele>
        <time>2022-10-16T10:07:52Z</time>
      </trkpt>
      <trkpt lat="44.4373" lon="5.14723">
        <ele>1002.7</ele>
        <time>2022-10-16T10:07:51Z</time>
      </trkpt>
      <trkpt lat="44.43729" lon="5.14724">
        <ele>1002.7</ele>
        <time>2022-10-16T10:07:48Z</time>
      </trkpt>
      <trkpt lat="44.43729" lon="5.14725">
        <ele>1002.2</ele>
        <time>2022-10-16T10:07:46Z</time>
      </trkpt>
      <trkpt lat="44.43729" lon="5.14726">
        <ele>1001.7</ele>
        <time>2022-10-16T10:07:44Z</time>
      </trkpt>
      <trkpt lat="44.43729" lon="5.14727">
        <ele>1001.2</ele>
        <time>2022-10-16T10:03:24Z</time>
      </trkpt>
      <trkpt lat="44.4373" lon="5.14727">
        <ele>1000.7</ele>
        <time>2022-10-16T10:03:23Z</time>
      </trkpt>
      <trkpt lat="44.43731" lon="5.14727">
        <ele>1000.3</ele>
        <time>2022-10-16T10:03:20Z</time>
      </trkpt>
      <trkpt lat="44.43732" lon="5.14727">
        <ele>999.8</ele>
        <time>2022-10-16T10:03:18Z</time>
      </trkpt>
      <trkpt lat="44.43733" lon="5.14726">
        <ele>999.8</ele>
        <time>2022-10-16T10:03:17Z</time>
      </trkpt>
      <trkpt lat="44.43734" lon="5.14726">
        <ele>999.3</ele>
        <time>2022-10-16T10:03:15Z</time>
      </trkpt>
      <trkpt lat="44.43735" lon="5.14726">
        <ele>998.9</ele>
        <time>2022-10-16T10:03:14Z</time>
      </trkpt>
      <trkpt lat="44.43736" lon="5.14727">
        <ele>998</ele>
        <time>2022-10-16T10:03:13Z</time>
      </trkpt>
      <trkpt lat="44.43738" lon="5.14729">
        <ele>996.3</ele>
        <time>2022-10-16T10:02:35Z</time>
      </trkpt>
      <trkpt lat="44.43738" lon="5.14731">
        <ele>995.4</ele>
        <time>2022-10-16T10:02:34Z</time>
      </trkpt>
      <trkpt lat="44.43739" lon="5.14732">
        <ele>994.6</ele>
        <time>2022-10-16T10:02:33Z</time>
      </trkpt>
      <trkpt lat="44.4374" lon="5.14734">
        <ele>993.4</ele>
        <time>2022-10-16T10:02:03Z</time>
      </trkpt>
      <trkpt lat="44.4374" lon="5.14733">
        <ele>993.8</ele>
        <time>2022-10-16T10:02:02Z</time>
      </trkpt>
      <trkpt lat="44.43741" lon="5.14732">
        <ele>993.8</ele>
        <time>2022-10-16T10:02:01Z</time>
      </trkpt>
      <trkpt lat="44.43741" lon="5.14731">
        <ele>994.2</ele>
        <time>2022-10-16T10:02:00Z</time>
      </trkpt>
      <trkpt lat="44.43741" lon="5.1473">
        <ele>994.6</ele>
        <time>2022-10-16T10:01:59Z</time>
      </trkpt>
      <trkpt lat="44.43742" lon="5.14729">
        <ele>994.5</ele>
        <time>2022-10-16T10:01:57Z</time>
      </trkpt>
      <trkpt lat="44.43742" lon="5.14728">
        <ele>994.9</ele>
        <time>2022-10-16T10:01:54Z</time>
      </trkpt>
      <trkpt lat="44.43743" lon="5.14727">
        <ele>994.8</ele>
        <time>2022-10-16T10:01:52Z</time>
      </trkpt>
      <trkpt lat="44.43744" lon="5.14726">
        <ele>994.7</ele>
        <time>2022-10-16T10:01:51Z</time>
      </trkpt>
      <trkpt lat="44.43744" lon="5.14725">
        <ele>995.1</ele>
        <time>2022-10-16T10:01:49Z</time>
      </trkpt>
      <trkpt lat="44.43745" lon="5.14724">
        <ele>994.9</ele>
        <time>2022-10-16T10:01:48Z</time>
      </trkpt>
      <trkpt lat="44.43746" lon="5.14723">
        <ele>994.8</ele>
        <time>2022-10-16T10:01:47Z</time>
      </trkpt>
      <trkpt lat="44.43747" lon="5.14722">
        <ele>994.6</ele>
        <time>2022-10-16T10:01:46Z</time>
      </trkpt>
      <trkpt lat="44.43748" lon="5.14721">
        <ele>994.4</ele>
        <time>2022-10-16T10:01:45Z</time>
      </trkpt>
      <trkpt lat="44.4375" lon="5.14719">
        <ele>993.9</ele>
        <time>2022-10-16T10:01:29Z</time>
      </trkpt>
      <trkpt lat="44.43751" lon="5.14718">
        <ele>993.6</ele>
        <time>2022-10-16T10:01:27Z</time>
      </trkpt>
      <trkpt lat="44.43752" lon="5.14717">
        <ele>993.3</ele>
        <time>2022-10-16T10:01:25Z</time>
      </trkpt>
      <trkpt lat="44.43753" lon="5.14716">
        <ele>992.9</ele>
        <time>2022-10-16T10:01:23Z</time>
      </trkpt>
      <trkpt lat="44.43754" lon="5.14715">
        <ele>992.6</ele>
        <time>2022-10-16T10:01:22Z</time>
      </trkpt>
      <trkpt lat="44.43754" lon="5.14714">
        <ele>992.8</ele>
        <time>2022-10-16T10:01:21Z</time>
      </trkpt>
      <trkpt lat="44.43755" lon="5.14713">
        <ele>992.4</ele>
        <time>2022-10-16T10:01:20Z</time>
      </trkpt>
      <trkpt lat="44.43756" lon="5.14712">
        <ele>992</ele>
        <time>2022-10-16T10:01:19Z</time>
      </trkpt>
      <trkpt lat="44.43757" lon="5.14711">
        <ele>991.6</ele>
        <time>2022-10-16T10:01:18Z</time>
      </trkpt>
      <trkpt lat="44.43758" lon="5.14709">
        <ele>991.4</ele>
        <time>2022-10-16T10:01:17Z</time>
      </trkpt>
      <trkpt lat="44.43759" lon="5.14707">
        <ele>991.1</ele>
        <time>2022-10-16T10:01:16Z</time>
      </trkpt>
      <trkpt lat="44.43761" lon="5.14704">
        <ele>990.4</ele>
        <time>2022-10-16T10:01:15Z</time>
      </trkpt>
      <trkpt lat="44.43763" lon="5.147">
        <ele>989.7</ele>
        <time>2022-10-16T10:00:36Z</time>
      </trkpt>
      <trkpt lat="44.43763" lon="5.14699">
        <ele>989.9</ele>
        <time>2022-10-16T10:00:35Z</time>
      </trkpt>
      <trkpt lat="44.43764" lon="5.14699">
        <ele>989.1</ele>
        <time>2022-10-16T10:00:32Z</time>
      </trkpt>
      <trkpt lat="44.43765" lon="5.14699">
        <ele>988.3</ele>
        <time>2022-10-16T10:00:31Z</time>
      </trkpt>
      <trkpt lat="44.43765" lon="5.147">
        <ele>988.2</ele>
        <time>2022-10-16T10:00:30Z</time>
      </trkpt>
      <trkpt lat="44.43765" lon="5.14702">
        <ele>987.8</ele>
        <time>2022-10-16T10:00:29Z</time>
      </trkpt>
      <trkpt lat="44.43766" lon="5.14704">
        <ele>986.8</ele>
        <time>2022-10-16T10:00:28Z</time>
      </trkpt>
      <trkpt lat="44.43766" lon="5.14708">
        <ele>986.1</ele>
        <time>2022-10-16T09:59:55Z</time>
      </trkpt>
      <trkpt lat="44.43767" lon="5.14708">
        <ele>985.4</ele>
        <time>2022-10-16T09:59:54Z</time>
      </trkpt>
      <trkpt lat="44.43767" lon="5.14709">
        <ele>985.3</ele>
        <time>2022-10-16T09:59:53Z</time>
      </trkpt>
      <trkpt lat="44.43767" lon="5.1471">
        <ele>985.1</ele>
        <time>2022-10-16T09:59:52Z</time>
      </trkpt>
      <trkpt lat="44.43768" lon="5.14711">
        <ele>984.3</ele>
        <time>2022-10-16T09:59:51Z</time>
      </trkpt>
      <trkpt lat="44.43768" lon="5.14713">
        <ele>984</ele>
        <time>2022-10-16T09:59:50Z</time>
      </trkpt>
      <trkpt lat="44.43769" lon="5.14715">
        <ele>983.1</ele>
        <time>2022-10-16T09:59:49Z</time>
      </trkpt>
      <trkpt lat="44.4377" lon="5.14718">
        <ele>982</ele>
        <time>2022-10-16T09:59:48Z</time>
      </trkpt>
      <trkpt lat="44.43771" lon="5.14722">
        <ele>980.9</ele>
        <time>2022-10-16T09:59:47Z</time>
      </trkpt>
      <trkpt lat="44.43774" lon="5.14729">
        <ele>978.3</ele>
        <time>2022-10-16T09:59:23Z</time>
      </trkpt>
      <trkpt lat="44.43776" lon="5.14733">
        <ele>976.7</ele>
        <time>2022-10-16T09:59:22Z</time>
      </trkpt>
      <trkpt lat="44.43777" lon="5.14737">
        <ele>975.8</ele>
        <time>2022-10-16T09:59:21Z</time>
      </trkpt>
      <trkpt lat="44.4378" lon="5.14745">
        <ele>973.5</ele>
        <time>2022-10-16T09:58:31Z</time>
      </trkpt>
      <trkpt lat="44.4378" lon="5.14746">
        <ele>973.4</ele>
        <time>2022-10-16T09:58:30Z</time>
      </trkpt>
      <trkpt lat="44.4378" lon="5.14747">
        <ele>973.3</ele>
        <time>2022-10-16T09:58:28Z</time>
      </trkpt>
      <trkpt lat="44.4378" lon="5.14748">
        <ele>973.2</ele>
        <time>2022-10-16T09:58:27Z</time>
      </trkpt>
      <trkpt lat="44.4378" lon="5.14749">
        <ele>973.1</ele>
        <time>2022-10-16T09:58:26Z</time>
      </trkpt>
      <trkpt lat="44.4378" lon="5.1475">
        <ele>973</ele>
        <time>2022-10-16T09:58:25Z</time>
      </trkpt>
      <trkpt lat="44.4378" lon="5.14753">
        <ele>972.6</ele>
        <time>2022-10-16T09:58:18Z</time>
      </trkpt>
      <trkpt lat="44.4378" lon="5.14754">
        <ele>972.5</ele>
        <time>2022-10-16T09:58:17Z</time>
      </trkpt>
      <trkpt lat="44.4378" lon="5.14755">
        <ele>972.4</ele>
        <time>2022-10-16T09:58:16Z</time>
      </trkpt>
      <trkpt lat="44.43781" lon="5.14756">
        <ele>971.8</ele>
        <time>2022-10-16T09:58:15Z</time>
      </trkpt>
      <trkpt lat="44.43781" lon="5.14757">
        <ele>971.7</ele>
        <time>2022-10-16T09:58:14Z</time>
      </trkpt>
      <trkpt lat="44.43782" lon="5.14758">
        <ele>971.2</ele>
        <time>2022-10-16T09:58:13Z</time>
      </trkpt>
      <trkpt lat="44.43783" lon="5.14759">
        <ele>970.6</ele>
        <time>2022-10-16T09:58:12Z</time>
      </trkpt>
      <trkpt lat="44.43784" lon="5.1476">
        <ele>970.1</ele>
        <time>2022-10-16T09:58:11Z</time>
      </trkpt>
      <trkpt lat="44.43785" lon="5.1476">
        <ele>969.7</ele>
        <time>2022-10-16T09:58:10Z</time>
      </trkpt>
      <trkpt lat="44.43786" lon="5.14761">
        <ele>969.2</ele>
        <time>2022-10-16T09:58:09Z</time>
      </trkpt>
      <trkpt lat="44.43787" lon="5.14762">
        <ele>968.7</ele>
        <time>2022-10-16T09:58:08Z</time>
      </trkpt>
      <trkpt lat="44.43788" lon="5.14762">
        <ele>968.3</ele>
        <time>2022-10-16T09:58:07Z</time>
      </trkpt>
      <trkpt lat="44.43788" lon="5.14763">
        <ele>968.2</ele>
        <time>2022-10-16T09:58:06Z</time>
      </trkpt>
      <trkpt lat="44.43789" lon="5.14764">
        <ele>967.7</ele>
        <time>2022-10-16T09:58:05Z</time>
      </trkpt>
      <trkpt lat="44.4379" lon="5.14764">
        <ele>967.4</ele>
        <time>2022-10-16T09:58:04Z</time>
      </trkpt>
      <trkpt lat="44.43792" lon="5.14766">
        <ele>966.4</ele>
        <time>2022-10-16T09:57:55Z</time>
      </trkpt>
      <trkpt lat="44.43793" lon="5.14766">
        <ele>966.1</ele>
        <time>2022-10-16T09:57:54Z</time>
      </trkpt>
      <trkpt lat="44.43793" lon="5.14767">
        <ele>966</ele>
        <time>2022-10-16T09:57:52Z</time>
      </trkpt>
      <trkpt lat="44.43794" lon="5.14768">
        <ele>965.5</ele>
        <time>2022-10-16T09:57:51Z</time>
      </trkpt>
      <trkpt lat="44.43794" lon="5.14769">
        <ele>965.5</ele>
        <time>2022-10-16T09:57:50Z</time>
      </trkpt>
      <trkpt lat="44.43794" lon="5.1477">
        <ele>965.4</ele>
        <time>2022-10-16T09:57:49Z</time>
      </trkpt>
      <trkpt lat="44.43795" lon="5.1477">
        <ele>965</ele>
        <time>2022-10-16T09:57:48Z</time>
      </trkpt>
      <trkpt lat="44.43795" lon="5.14771">
        <ele>964.9</ele>
        <time>2022-10-16T09:57:47Z</time>
      </trkpt>
      <trkpt lat="44.43795" lon="5.14772">
        <ele>964.9</ele>
        <time>2022-10-16T09:57:46Z</time>
      </trkpt>
      <trkpt lat="44.43795" lon="5.14773">
        <ele>964.8</ele>
        <time>2022-10-16T09:57:45Z</time>
      </trkpt>
      <trkpt lat="44.43796" lon="5.14774">
        <ele>964.4</ele>
        <time>2022-10-16T09:57:44Z</time>
      </trkpt>
      <trkpt lat="44.43796" lon="5.14775">
        <ele>964.3</ele>
        <time>2022-10-16T09:57:43Z</time>
      </trkpt>
      <trkpt lat="44.43796" lon="5.14776">
        <ele>964.2</ele>
        <time>2022-10-16T09:57:42Z</time>
      </trkpt>
      <trkpt lat="44.43796" lon="5.14777">
        <ele>964.2</ele>
        <time>2022-10-16T09:57:41Z</time>
      </trkpt>
      <trkpt lat="44.43797" lon="5.14778">
        <ele>963.8</ele>
        <time>2022-10-16T09:57:40Z</time>
      </trkpt>
      <trkpt lat="44.43797" lon="5.14779">
        <ele>963.7</ele>
        <time>2022-10-16T09:57:39Z</time>
      </trkpt>
      <trkpt lat="44.43797" lon="5.1478">
        <ele>963.6</ele>
        <time>2022-10-16T09:57:38Z</time>
      </trkpt>
      <trkpt lat="44.43797" lon="5.14781">
        <ele>963.5</ele>
        <time>2022-10-16T09:57:37Z</time>
      </trkpt>
      <trkpt lat="44.43798" lon="5.14784">
        <ele>963</ele>
        <time>2022-10-16T09:57:36Z</time>
      </trkpt>
      <trkpt lat="44.43799" lon="5.14786">
        <ele>962.5</ele>
        <time>2022-10-16T09:57:35Z</time>
      </trkpt>
      <trkpt lat="44.438" lon="5.1479">
        <ele>962</ele>
        <time>2022-10-16T09:57:24Z</time>
      </trkpt>
      <trkpt lat="44.43801" lon="5.14791">
        <ele>961.7</ele>
        <time>2022-10-16T09:57:23Z</time>
      </trkpt>
      <trkpt lat="44.43802" lon="5.14792">
        <ele>961.4</ele>
        <time>2022-10-16T09:57:22Z</time>
      </trkpt>
      <trkpt lat="44.43803" lon="5.14793">
        <ele>961.1</ele>
        <time>2022-10-16T09:57:21Z</time>
      </trkpt>
      <trkpt lat="44.43803" lon="5.14794">
        <ele>961</ele>
        <time>2022-10-16T09:57:20Z</time>
      </trkpt>
      <trkpt lat="44.43804" lon="5.14795">
        <ele>960.7</ele>
        <time>2022-10-16T09:57:19Z</time>
      </trkpt>
      <trkpt lat="44.43805" lon="5.14796">
        <ele>960.5</ele>
        <time>2022-10-16T09:57:18Z</time>
      </trkpt>
      <trkpt lat="44.43805" lon="5.14797">
        <ele>960.4</ele>
        <time>2022-10-16T09:57:17Z</time>
      </trkpt>
      <trkpt lat="44.43805" lon="5.14799">
        <ele>960.4</ele>
        <time>2022-10-16T09:57:16Z</time>
      </trkpt>
      <trkpt lat="44.43805" lon="5.148">
        <ele>960.3</ele>
        <time>2022-10-16T09:57:15Z</time>
      </trkpt>
      <trkpt lat="44.43806" lon="5.14801">
        <ele>960</ele>
        <time>2022-10-16T09:57:14Z</time>
      </trkpt>
      <trkpt lat="44.43806" lon="5.14802">
        <ele>960</ele>
        <time>2022-10-16T09:57:13Z</time>
      </trkpt>
      <trkpt lat="44.43806" lon="5.14803">
        <ele>960</ele>
        <time>2022-10-16T09:57:12Z</time>
      </trkpt>
      <trkpt lat="44.43806" lon="5.14804">
        <ele>959.9</ele>
        <time>2022-10-16T09:57:11Z</time>
      </trkpt>
      <trkpt lat="44.43806" lon="5.14805">
        <ele>959.9</ele>
        <time>2022-10-16T09:57:10Z</time>
      </trkpt>
      <trkpt lat="44.43806" lon="5.14806">
        <ele>959.9</ele>
        <time>2022-10-16T09:57:09Z</time>
      </trkpt>
      <trkpt lat="44.43806" lon="5.14808">
        <ele>959.8</ele>
        <time>2022-10-16T09:57:08Z</time>
      </trkpt>
      <trkpt lat="44.43806" lon="5.14809">
        <ele>959.8</ele>
        <time>2022-10-16T09:57:07Z</time>
      </trkpt>
      <trkpt lat="44.43806" lon="5.1481">
        <ele>959.7</ele>
        <time>2022-10-16T09:57:06Z</time>
      </trkpt>
      <trkpt lat="44.43806" lon="5.14811">
        <ele>959.7</ele>
        <time>2022-10-16T09:57:05Z</time>
      </trkpt>
      <trkpt lat="44.43806" lon="5.14812">
        <ele>959.7</ele>
        <time>2022-10-16T09:57:03Z</time>
      </trkpt>
      <trkpt lat="44.43806" lon="5.14813">
        <ele>959.6</ele>
        <time>2022-10-16T09:57:02Z</time>
      </trkpt>
      <trkpt lat="44.43806" lon="5.14814">
        <ele>959.6</ele>
        <time>2022-10-16T09:57:01Z</time>
      </trkpt>
      <trkpt lat="44.43805" lon="5.14815">
        <ele>959.7</ele>
        <time>2022-10-16T09:57:00Z</time>
      </trkpt>
      <trkpt lat="44.43805" lon="5.14816">
        <ele>959.7</ele>
        <time>2022-10-16T09:56:59Z</time>
      </trkpt>
      <trkpt lat="44.43804" lon="5.14817">
        <ele>959.7</ele>
        <time>2022-10-16T09:56:58Z</time>
      </trkpt>
      <trkpt lat="44.43804" lon="5.14818">
        <ele>959.7</ele>
        <time>2022-10-16T09:56:57Z</time>
      </trkpt>
      <trkpt lat="44.43804" lon="5.14819">
        <ele>959.6</ele>
        <time>2022-10-16T09:56:56Z</time>
      </trkpt>
      <trkpt lat="44.43803" lon="5.1482">
        <ele>959.7</ele>
        <time>2022-10-16T09:56:55Z</time>
      </trkpt>
      <trkpt lat="44.43803" lon="5.14821">
        <ele>959.6</ele>
        <time>2022-10-16T09:56:54Z</time>
      </trkpt>
      <trkpt lat="44.43803" lon="5.14822">
        <ele>959.5</ele>
        <time>2022-10-16T09:56:53Z</time>
      </trkpt>
      <trkpt lat="44.43803" lon="5.14824">
        <ele>959.4</ele>
        <time>2022-10-16T09:56:52Z</time>
      </trkpt>
      <trkpt lat="44.43803" lon="5.14825">
        <ele>959.4</ele>
        <time>2022-10-16T09:56:51Z</time>
      </trkpt>
      <trkpt lat="44.43803" lon="5.14827">
        <ele>959.3</ele>
        <time>2022-10-16T09:56:40Z</time>
      </trkpt>
      <trkpt lat="44.43803" lon="5.14828">
        <ele>959.2</ele>
        <time>2022-10-16T09:56:39Z</time>
      </trkpt>
      <trkpt lat="44.43803" lon="5.14829">
        <ele>959.2</ele>
        <time>2022-10-16T09:56:38Z</time>
      </trkpt>
      <trkpt lat="44.43802" lon="5.1483">
        <ele>959.1</ele>
        <time>2022-10-16T09:56:37Z</time>
      </trkpt>
      <trkpt lat="44.43802" lon="5.14831">
        <ele>959</ele>
        <time>2022-10-16T09:56:36Z</time>
      </trkpt>
      <trkpt lat="44.43803" lon="5.14832">
        <ele>959</ele>
        <time>2022-10-16T09:56:35Z</time>
      </trkpt>
      <trkpt lat="44.43803" lon="5.14834">
        <ele>958.8</ele>
        <time>2022-10-16T09:56:34Z</time>
      </trkpt>
      <trkpt lat="44.43803" lon="5.14835">
        <ele>958.6</ele>
        <time>2022-10-16T09:56:33Z</time>
      </trkpt>
      <trkpt lat="44.43803" lon="5.14836">
        <ele>958.4</ele>
        <time>2022-10-16T09:56:32Z</time>
      </trkpt>
      <trkpt lat="44.43803" lon="5.14837">
        <ele>958.2</ele>
        <time>2022-10-16T09:56:30Z</time>
      </trkpt>
      <trkpt lat="44.43803" lon="5.14838">
        <ele>958</ele>
        <time>2022-10-16T09:56:29Z</time>
      </trkpt>
      <trkpt lat="44.43803" lon="5.14839">
        <ele>957.8</ele>
        <time>2022-10-16T09:56:28Z</time>
      </trkpt>
      <trkpt lat="44.43803" lon="5.1484">
        <ele>957.6</ele>
        <time>2022-10-16T09:56:27Z</time>
      </trkpt>
      <trkpt lat="44.43803" lon="5.14841">
        <ele>957.4</ele>
        <time>2022-10-16T09:56:24Z</time>
      </trkpt>
      <trkpt lat="44.43802" lon="5.14841">
        <ele>957.3</ele>
        <time>2022-10-16T09:56:23Z</time>
      </trkpt>
      <trkpt lat="44.43802" lon="5.14842">
        <ele>957.1</ele>
        <time>2022-10-16T09:56:22Z</time>
      </trkpt>
      <trkpt lat="44.43802" lon="5.14843">
        <ele>956.9</ele>
        <time>2022-10-16T09:56:21Z</time>
      </trkpt>
      <trkpt lat="44.43802" lon="5.14844">
        <ele>956.7</ele>
        <time>2022-10-16T09:56:20Z</time>
      </trkpt>
      <trkpt lat="44.43802" lon="5.14845">
        <ele>956.4</ele>
        <time>2022-10-16T09:56:19Z</time>
      </trkpt>
      <trkpt lat="44.43802" lon="5.14846">
        <ele>956.2</ele>
        <time>2022-10-16T09:56:18Z</time>
      </trkpt>
      <trkpt lat="44.43803" lon="5.14847">
        <ele>956.2</ele>
        <time>2022-10-16T09:56:17Z</time>
      </trkpt>
      <trkpt lat="44.43803" lon="5.14848">
        <ele>956</ele>
        <time>2022-10-16T09:56:16Z</time>
      </trkpt>
      <trkpt lat="44.43804" lon="5.14848">
        <ele>956.1</ele>
        <time>2022-10-16T09:56:15Z</time>
      </trkpt>
      <trkpt lat="44.43804" lon="5.14849">
        <ele>955.9</ele>
        <time>2022-10-16T09:56:14Z</time>
      </trkpt>
      <trkpt lat="44.43805" lon="5.1485">
        <ele>955.9</ele>
        <time>2022-10-16T09:56:13Z</time>
      </trkpt>
      <trkpt lat="44.43806" lon="5.14851">
        <ele>955.8</ele>
        <time>2022-10-16T09:56:12Z</time>
      </trkpt>
      <trkpt lat="44.43806" lon="5.14852">
        <ele>955.7</ele>
        <time>2022-10-16T09:56:11Z</time>
      </trkpt>
      <trkpt lat="44.43806" lon="5.14853">
        <ele>955.5</ele>
        <time>2022-10-16T09:56:10Z</time>
      </trkpt>
      <trkpt lat="44.43807" lon="5.14854">
        <ele>955.4</ele>
        <time>2022-10-16T09:56:09Z</time>
      </trkpt>
      <trkpt lat="44.43808" lon="5.14855">
        <ele>955.3</ele>
        <time>2022-10-16T09:56:08Z</time>
      </trkpt>
      <trkpt lat="44.43809" lon="5.14856">
        <ele>955.3</ele>
        <time>2022-10-16T09:56:07Z</time>
      </trkpt>
      <trkpt lat="44.43809" lon="5.14857">
        <ele>955.1</ele>
        <time>2022-10-16T09:56:06Z</time>
      </trkpt>
      <trkpt lat="44.4381" lon="5.14858">
        <ele>955.1</ele>
        <time>2022-10-16T09:56:05Z</time>
      </trkpt>
      <trkpt lat="44.43811" lon="5.14858">
        <ele>955.2</ele>
        <time>2022-10-16T09:56:04Z</time>
      </trkpt>
      <trkpt lat="44.43812" lon="5.14859">
        <ele>955.2</ele>
        <time>2022-10-16T09:56:02Z</time>
      </trkpt>
      <trkpt lat="44.43813" lon="5.1486">
        <ele>955.2</ele>
        <time>2022-10-16T09:56:01Z</time>
      </trkpt>
      <trkpt lat="44.43814" lon="5.1486">
        <ele>955.3</ele>
        <time>2022-10-16T09:56:00Z</time>
      </trkpt>
      <trkpt lat="44.43815" lon="5.1486">
        <ele>955.5</ele>
        <time>2022-10-16T09:55:59Z</time>
      </trkpt>
      <trkpt lat="44.43816" lon="5.1486">
        <ele>955.6</ele>
        <time>2022-10-16T09:55:58Z</time>
      </trkpt>
      <trkpt lat="44.43817" lon="5.1486">
        <ele>955.7</ele>
        <time>2022-10-16T09:55:57Z</time>
      </trkpt>
      <trkpt lat="44.43818" lon="5.14861">
        <ele>955.8</ele>
        <time>2022-10-16T09:55:56Z</time>
      </trkpt>
      <trkpt lat="44.43819" lon="5.1486">
        <ele>956</ele>
        <time>2022-10-16T09:55:55Z</time>
      </trkpt>
      <trkpt lat="44.4382" lon="5.1486">
        <ele>956.1</ele>
        <time>2022-10-16T09:55:54Z</time>
      </trkpt>
      <trkpt lat="44.43821" lon="5.1486">
        <ele>956.3</ele>
        <time>2022-10-16T09:55:53Z</time>
      </trkpt>
      <trkpt lat="44.43821" lon="5.14859">
        <ele>956.3</ele>
        <time>2022-10-16T09:55:52Z</time>
      </trkpt>
      <trkpt lat="44.43822" lon="5.14859">
        <ele>956.4</ele>
        <time>2022-10-16T09:55:51Z</time>
      </trkpt>
      <trkpt lat="44.43823" lon="5.14859">
        <ele>956.6</ele>
        <time>2022-10-16T09:55:50Z</time>
      </trkpt>
      <trkpt lat="44.43824" lon="5.14858">
        <ele>956.7</ele>
        <time>2022-10-16T09:55:49Z</time>
      </trkpt>
      <trkpt lat="44.43825" lon="5.14858">
        <ele>956.8</ele>
        <time>2022-10-16T09:55:48Z</time>
      </trkpt>
      <trkpt lat="44.43826" lon="5.14858">
        <ele>956.9</ele>
        <time>2022-10-16T09:55:46Z</time>
      </trkpt>
      <trkpt lat="44.43827" lon="5.14858">
        <ele>957</ele>
        <time>2022-10-16T09:55:45Z</time>
      </trkpt>
      <trkpt lat="44.43828" lon="5.14858">
        <ele>957.2</ele>
        <time>2022-10-16T09:55:44Z</time>
      </trkpt>
      <trkpt lat="44.43829" lon="5.14857">
        <ele>957.2</ele>
        <time>2022-10-16T09:55:43Z</time>
      </trkpt>
      <trkpt lat="44.4383" lon="5.14857">
        <ele>957.3</ele>
        <time>2022-10-16T09:55:41Z</time>
      </trkpt>
      <trkpt lat="44.43831" lon="5.14857">
        <ele>957.5</ele>
        <time>2022-10-16T09:55:40Z</time>
      </trkpt>
      <trkpt lat="44.43832" lon="5.14858">
        <ele>957.6</ele>
        <time>2022-10-16T09:55:39Z</time>
      </trkpt>
      <trkpt lat="44.43833" lon="5.14858">
        <ele>957.7</ele>
        <time>2022-10-16T09:55:38Z</time>
      </trkpt>
      <trkpt lat="44.43834" lon="5.14858">
        <ele>957.7</ele>
        <time>2022-10-16T09:55:37Z</time>
      </trkpt>
      <trkpt lat="44.43835" lon="5.14859">
        <ele>957.7</ele>
        <time>2022-10-16T09:55:35Z</time>
      </trkpt>
      <trkpt lat="44.43836" lon="5.14859">
        <ele>957.6</ele>
        <time>2022-10-16T09:55:33Z</time>
      </trkpt>
      <trkpt lat="44.43837" lon="5.1486">
        <ele>957.6</ele>
        <time>2022-10-16T09:55:32Z</time>
      </trkpt>
      <trkpt lat="44.43838" lon="5.1486">
        <ele>957.6</ele>
        <time>2022-10-16T09:55:31Z</time>
      </trkpt>
      <trkpt lat="44.43839" lon="5.1486">
        <ele>957.5</ele>
        <time>2022-10-16T09:55:30Z</time>
      </trkpt>
      <trkpt lat="44.43839" lon="5.14861">
        <ele>957.6</ele>
        <time>2022-10-16T09:55:29Z</time>
      </trkpt>
      <trkpt lat="44.4384" lon="5.14861">
        <ele>957.5</ele>
        <time>2022-10-16T09:55:28Z</time>
      </trkpt>
      <trkpt lat="44.43841" lon="5.14862">
        <ele>957.4</ele>
        <time>2022-10-16T09:55:27Z</time>
      </trkpt>
      <trkpt lat="44.43842" lon="5.14862">
        <ele>957.3</ele>
        <time>2022-10-16T09:55:26Z</time>
      </trkpt>
      <trkpt lat="44.43842" lon="5.14863">
        <ele>957.2</ele>
        <time>2022-10-16T09:55:25Z</time>
      </trkpt>
      <trkpt lat="44.43843" lon="5.14863">
        <ele>957.2</ele>
        <time>2022-10-16T09:55:24Z</time>
      </trkpt>
      <trkpt lat="44.43844" lon="5.14864">
        <ele>957</ele>
        <time>2022-10-16T09:55:22Z</time>
      </trkpt>
      <trkpt lat="44.43845" lon="5.14864">
        <ele>957</ele>
        <time>2022-10-16T09:55:13Z</time>
      </trkpt>
      <trkpt lat="44.43846" lon="5.14865">
        <ele>956.9</ele>
        <time>2022-10-16T09:55:12Z</time>
      </trkpt>
      <trkpt lat="44.43847" lon="5.14865">
        <ele>956.9</ele>
        <time>2022-10-16T09:55:11Z</time>
      </trkpt>
      <trkpt lat="44.43848" lon="5.14865">
        <ele>956.8</ele>
        <time>2022-10-16T09:55:10Z</time>
      </trkpt>
      <trkpt lat="44.43849" lon="5.14865">
        <ele>956.8</ele>
        <time>2022-10-16T09:55:09Z</time>
      </trkpt>
      <trkpt lat="44.4385" lon="5.14866">
        <ele>956.8</ele>
        <time>2022-10-16T09:55:08Z</time>
      </trkpt>
      <trkpt lat="44.43851" lon="5.14866">
        <ele>956.7</ele>
        <time>2022-10-16T09:55:07Z</time>
      </trkpt>
      <trkpt lat="44.43851" lon="5.14867">
        <ele>956.7</ele>
        <time>2022-10-16T09:55:06Z</time>
      </trkpt>
      <trkpt lat="44.43852" lon="5.14867">
        <ele>956.7</ele>
        <time>2022-10-16T09:55:05Z</time>
      </trkpt>
      <trkpt lat="44.43853" lon="5.14868">
        <ele>956.7</ele>
        <time>2022-10-16T09:55:04Z</time>
      </trkpt>
      <trkpt lat="44.43853" lon="5.14869">
        <ele>956.8</ele>
        <time>2022-10-16T09:55:03Z</time>
      </trkpt>
      <trkpt lat="44.43854" lon="5.1487">
        <ele>956.8</ele>
        <time>2022-10-16T09:55:02Z</time>
      </trkpt>
      <trkpt lat="44.43855" lon="5.1487">
        <ele>956.8</ele>
        <time>2022-10-16T09:55:01Z</time>
      </trkpt>
      <trkpt lat="44.43856" lon="5.14871">
        <ele>956.9</ele>
        <time>2022-10-16T09:55:00Z</time>
      </trkpt>
      <trkpt lat="44.43857" lon="5.14871">
        <ele>956.9</ele>
        <time>2022-10-16T09:54:59Z</time>
      </trkpt>
      <trkpt lat="44.43858" lon="5.14872">
        <ele>957</ele>
        <time>2022-10-16T09:54:58Z</time>
      </trkpt>
      <trkpt lat="44.43859" lon="5.14872">
        <ele>957.1</ele>
        <time>2022-10-16T09:54:57Z</time>
      </trkpt>
      <trkpt lat="44.43859" lon="5.14873">
        <ele>957.2</ele>
        <time>2022-10-16T09:54:56Z</time>
      </trkpt>
      <trkpt lat="44.4386" lon="5.14873">
        <ele>957.2</ele>
        <time>2022-10-16T09:54:55Z</time>
      </trkpt>
      <trkpt lat="44.43861" lon="5.14874">
        <ele>957.4</ele>
        <time>2022-10-16T09:54:54Z</time>
      </trkpt>
      <trkpt lat="44.43862" lon="5.14875">
        <ele>957.4</ele>
        <time>2022-10-16T09:54:52Z</time>
      </trkpt>
      <trkpt lat="44.43863" lon="5.14876">
        <ele>957.4</ele>
        <time>2022-10-16T09:54:51Z</time>
      </trkpt>
      <trkpt lat="44.43863" lon="5.14877">
        <ele>957.5</ele>
        <time>2022-10-16T09:54:50Z</time>
      </trkpt>
      <trkpt lat="44.43864" lon="5.14878">
        <ele>957.6</ele>
        <time>2022-10-16T09:54:49Z</time>
      </trkpt>
      <trkpt lat="44.43864" lon="5.14879">
        <ele>957.7</ele>
        <time>2022-10-16T09:54:48Z</time>
      </trkpt>
      <trkpt lat="44.43864" lon="5.1488">
        <ele>957.8</ele>
        <time>2022-10-16T09:54:47Z</time>
      </trkpt>
      <trkpt lat="44.43865" lon="5.1488">
        <ele>957.7</ele>
        <time>2022-10-16T09:54:46Z</time>
      </trkpt>
      <trkpt lat="44.43865" lon="5.14881">
        <ele>957.8</ele>
        <time>2022-10-16T09:54:45Z</time>
      </trkpt>
      <trkpt lat="44.43865" lon="5.14882">
        <ele>958</ele>
        <time>2022-10-16T09:54:44Z</time>
      </trkpt>
      <trkpt lat="44.43865" lon="5.14883">
        <ele>958.1</ele>
        <time>2022-10-16T09:54:43Z</time>
      </trkpt>
      <trkpt lat="44.43866" lon="5.14883">
        <ele>958</ele>
        <time>2022-10-16T09:54:42Z</time>
      </trkpt>
      <trkpt lat="44.43866" lon="5.14884">
        <ele>958.2</ele>
        <time>2022-10-16T09:54:41Z</time>
      </trkpt>
      <trkpt lat="44.43866" lon="5.14885">
        <ele>958.3</ele>
        <time>2022-10-16T09:54:39Z</time>
      </trkpt>
      <trkpt lat="44.43867" lon="5.14886">
        <ele>958.4</ele>
        <time>2022-10-16T09:54:38Z</time>
      </trkpt>
      <trkpt lat="44.43867" lon="5.14887">
        <ele>958.5</ele>
        <time>2022-10-16T09:54:37Z</time>
      </trkpt>
      <trkpt lat="44.43867" lon="5.14888">
        <ele>958.7</ele>
        <time>2022-10-16T09:54:35Z</time>
      </trkpt>
      <trkpt lat="44.43867" lon="5.14889">
        <ele>958.8</ele>
        <time>2022-10-16T09:54:34Z</time>
      </trkpt>
      <trkpt lat="44.43867" lon="5.1489">
        <ele>958.6</ele>
        <time>2022-10-16T09:54:33Z</time>
      </trkpt>
      <trkpt lat="44.43867" lon="5.14891">
        <ele>958.4</ele>
        <time>2022-10-16T09:54:32Z</time>
      </trkpt>
      <trkpt lat="44.43867" lon="5.14892">
        <ele>958.3</ele>
        <time>2022-10-16T09:54:30Z</time>
      </trkpt>
      <trkpt lat="44.43867" lon="5.14893">
        <ele>958.1</ele>
        <time>2022-10-16T09:54:29Z</time>
      </trkpt>
      <trkpt lat="44.43867" lon="5.14894">
        <ele>958</ele>
        <time>2022-10-16T09:54:28Z</time>
      </trkpt>
      <trkpt lat="44.43867" lon="5.14895">
        <ele>957.8</ele>
        <time>2022-10-16T09:54:27Z</time>
      </trkpt>
      <trkpt lat="44.43867" lon="5.14896">
        <ele>957.6</ele>
        <time>2022-10-16T09:54:25Z</time>
      </trkpt>
      <trkpt lat="44.43867" lon="5.14897">
        <ele>957.5</ele>
        <time>2022-10-16T09:54:24Z</time>
      </trkpt>
      <trkpt lat="44.43867" lon="5.14898">
        <ele>957.3</ele>
        <time>2022-10-16T09:54:23Z</time>
      </trkpt>
      <trkpt lat="44.43867" lon="5.14899">
        <ele>957.1</ele>
        <time>2022-10-16T09:54:22Z</time>
      </trkpt>
      <trkpt lat="44.43867" lon="5.149">
        <ele>957</ele>
        <time>2022-10-16T09:54:21Z</time>
      </trkpt>
      <trkpt lat="44.43867" lon="5.14901">
        <ele>956.8</ele>
        <time>2022-10-16T09:54:20Z</time>
      </trkpt>
      <trkpt lat="44.43867" lon="5.14902">
        <ele>956.7</ele>
        <time>2022-10-16T09:54:19Z</time>
      </trkpt>
      <trkpt lat="44.43867" lon="5.14903">
        <ele>956.5</ele>
        <time>2022-10-16T09:54:18Z</time>
      </trkpt>
      <trkpt lat="44.43866" lon="5.14904">
        <ele>956.2</ele>
        <time>2022-10-16T09:54:17Z</time>
      </trkpt>
      <trkpt lat="44.43866" lon="5.14905">
        <ele>956.1</ele>
        <time>2022-10-16T09:54:16Z</time>
      </trkpt>
      <trkpt lat="44.43866" lon="5.14906">
        <ele>955.9</ele>
        <time>2022-10-16T09:54:15Z</time>
      </trkpt>
      <trkpt lat="44.43866" lon="5.14907">
        <ele>955.7</ele>
        <time>2022-10-16T09:54:14Z</time>
      </trkpt>
      <trkpt lat="44.43866" lon="5.14909">
        <ele>955.4</ele>
        <time>2022-10-16T09:54:12Z</time>
      </trkpt>
      <trkpt lat="44.43867" lon="5.1491">
        <ele>955.4</ele>
        <time>2022-10-16T09:54:11Z</time>
      </trkpt>
      <trkpt lat="44.43867" lon="5.14911">
        <ele>955.2</ele>
        <time>2022-10-16T09:54:10Z</time>
      </trkpt>
      <trkpt lat="44.43868" lon="5.14912">
        <ele>955.2</ele>
        <time>2022-10-16T09:54:09Z</time>
      </trkpt>
      <trkpt lat="44.43869" lon="5.14912">
        <ele>955.4</ele>
        <time>2022-10-16T09:54:08Z</time>
      </trkpt>
      <trkpt lat="44.4387" lon="5.14913">
        <ele>955.4</ele>
        <time>2022-10-16T09:54:07Z</time>
      </trkpt>
      <trkpt lat="44.43871" lon="5.14913">
        <ele>955.6</ele>
        <time>2022-10-16T09:54:06Z</time>
      </trkpt>
      <trkpt lat="44.43872" lon="5.14913">
        <ele>955.8</ele>
        <time>2022-10-16T09:54:05Z</time>
      </trkpt>
      <trkpt lat="44.43873" lon="5.14914">
        <ele>955.9</ele>
        <time>2022-10-16T09:54:04Z</time>
      </trkpt>
      <trkpt lat="44.43874" lon="5.14914">
        <ele>956</ele>
        <time>2022-10-16T09:54:02Z</time>
      </trkpt>
      <trkpt lat="44.43875" lon="5.14914">
        <ele>956.2</ele>
        <time>2022-10-16T09:54:01Z</time>
      </trkpt>
      <trkpt lat="44.43876" lon="5.14915">
        <ele>956.4</ele>
        <time>2022-10-16T09:54:00Z</time>
      </trkpt>
      <trkpt lat="44.43877" lon="5.14915">
        <ele>956.6</ele>
        <time>2022-10-16T09:53:59Z</time>
      </trkpt>
      <trkpt lat="44.43878" lon="5.14916">
        <ele>956.7</ele>
        <time>2022-10-16T09:53:57Z</time>
      </trkpt>
      <trkpt lat="44.43879" lon="5.14917">
        <ele>956.8</ele>
        <time>2022-10-16T09:53:56Z</time>
      </trkpt>
      <trkpt lat="44.4388" lon="5.14918">
        <ele>956.7</ele>
        <time>2022-10-16T09:53:55Z</time>
      </trkpt>
      <trkpt lat="44.4388" lon="5.14919">
        <ele>956.5</ele>
        <time>2022-10-16T09:53:54Z</time>
      </trkpt>
      <trkpt lat="44.43881" lon="5.14919">
        <ele>956.7</ele>
        <time>2022-10-16T09:53:53Z</time>
      </trkpt>
      <trkpt lat="44.43882" lon="5.1492">
        <ele>956.7</ele>
        <time>2022-10-16T09:53:52Z</time>
      </trkpt>
      <trkpt lat="44.43882" lon="5.14921">
        <ele>956.5</ele>
        <time>2022-10-16T09:53:51Z</time>
      </trkpt>
      <trkpt lat="44.43883" lon="5.14921">
        <ele>956.7</ele>
        <time>2022-10-16T09:53:50Z</time>
      </trkpt>
      <trkpt lat="44.43884" lon="5.14922">
        <ele>956.8</ele>
        <time>2022-10-16T09:53:48Z</time>
      </trkpt>
      <trkpt lat="44.43885" lon="5.14923">
        <ele>956.8</ele>
        <time>2022-10-16T09:53:47Z</time>
      </trkpt>
      <trkpt lat="44.43886" lon="5.14923">
        <ele>957.1</ele>
        <time>2022-10-16T09:53:46Z</time>
      </trkpt>
      <trkpt lat="44.43887" lon="5.14924">
        <ele>957.2</ele>
        <time>2022-10-16T09:53:45Z</time>
      </trkpt>
      <trkpt lat="44.43888" lon="5.14924">
        <ele>957.4</ele>
        <time>2022-10-16T09:53:43Z</time>
      </trkpt>
      <trkpt lat="44.43889" lon="5.14925">
        <ele>957.5</ele>
        <time>2022-10-16T09:53:42Z</time>
      </trkpt>
      <trkpt lat="44.4389" lon="5.14926">
        <ele>957.4</ele>
        <time>2022-10-16T09:53:41Z</time>
      </trkpt>
      <trkpt lat="44.43891" lon="5.14926">
        <ele>957.5</ele>
        <time>2022-10-16T09:53:40Z</time>
      </trkpt>
      <trkpt lat="44.43892" lon="5.14927">
        <ele>957.4</ele>
        <time>2022-10-16T09:53:38Z</time>
      </trkpt>
      <trkpt lat="44.43893" lon="5.14928">
        <ele>957.3</ele>
        <time>2022-10-16T09:53:37Z</time>
      </trkpt>
      <trkpt lat="44.43894" lon="5.14928">
        <ele>957.4</ele>
        <time>2022-10-16T09:53:36Z</time>
      </trkpt>
      <trkpt lat="44.43895" lon="5.14929">
        <ele>957.4</ele>
        <time>2022-10-16T09:53:34Z</time>
      </trkpt>
      <trkpt lat="44.43896" lon="5.14929">
        <ele>957.5</ele>
        <time>2022-10-16T09:53:33Z</time>
      </trkpt>
      <trkpt lat="44.43897" lon="5.1493">
        <ele>957.4</ele>
        <time>2022-10-16T09:53:32Z</time>
      </trkpt>
      <trkpt lat="44.43898" lon="5.1493">
        <ele>957.5</ele>
        <time>2022-10-16T09:53:31Z</time>
      </trkpt>
      <trkpt lat="44.43899" lon="5.14931">
        <ele>957.5</ele>
        <time>2022-10-16T09:53:30Z</time>
      </trkpt>
      <trkpt lat="44.439" lon="5.14931">
        <ele>957.7</ele>
        <time>2022-10-16T09:53:28Z</time>
      </trkpt>
      <trkpt lat="44.43901" lon="5.14932">
        <ele>957.7</ele>
        <time>2022-10-16T09:53:27Z</time>
      </trkpt>
      <trkpt lat="44.43902" lon="5.14932">
        <ele>957.8</ele>
        <time>2022-10-16T09:53:26Z</time>
      </trkpt>
      <trkpt lat="44.43903" lon="5.14932">
        <ele>957.9</ele>
        <time>2022-10-16T09:53:25Z</time>
      </trkpt>
      <trkpt lat="44.43903" lon="5.14931">
        <ele>958</ele>
        <time>2022-10-16T09:53:24Z</time>
      </trkpt>
      <trkpt lat="44.43904" lon="5.14931">
        <ele>958.1</ele>
        <time>2022-10-16T09:53:23Z</time>
      </trkpt>
      <trkpt lat="44.43905" lon="5.14932">
        <ele>958.2</ele>
        <time>2022-10-16T09:53:22Z</time>
      </trkpt>
      <trkpt lat="44.43906" lon="5.14932">
        <ele>958.3</ele>
        <time>2022-10-16T09:53:20Z</time>
      </trkpt>
      <trkpt lat="44.43907" lon="5.14933">
        <ele>958.4</ele>
        <time>2022-10-16T09:53:19Z</time>
      </trkpt>
      <trkpt lat="44.43908" lon="5.14934">
        <ele>958.5</ele>
        <time>2022-10-16T09:53:17Z</time>
      </trkpt>
      <trkpt lat="44.43909" lon="5.14935">
        <ele>958.6</ele>
        <time>2022-10-16T09:53:16Z</time>
      </trkpt>
      <trkpt lat="44.4391" lon="5.14936">
        <ele>958.7</ele>
        <time>2022-10-16T09:53:14Z</time>
      </trkpt>
      <trkpt lat="44.43911" lon="5.14937">
        <ele>958.8</ele>
        <time>2022-10-16T09:53:13Z</time>
      </trkpt>
      <trkpt lat="44.43912" lon="5.14938">
        <ele>959</ele>
        <time>2022-10-16T09:53:12Z</time>
      </trkpt>
      <trkpt lat="44.43912" lon="5.14939">
        <ele>959</ele>
        <time>2022-10-16T09:53:11Z</time>
      </trkpt>
      <trkpt lat="44.43913" lon="5.1494">
        <ele>959.2</ele>
        <time>2022-10-16T09:53:10Z</time>
      </trkpt>
      <trkpt lat="44.43913" lon="5.14941">
        <ele>959.2</ele>
        <time>2022-10-16T09:53:09Z</time>
      </trkpt>
      <trkpt lat="44.43914" lon="5.14942">
        <ele>959.4</ele>
        <time>2022-10-16T09:53:08Z</time>
      </trkpt>
      <trkpt lat="44.43914" lon="5.14943">
        <ele>959.4</ele>
        <time>2022-10-16T09:53:06Z</time>
      </trkpt>
      <trkpt lat="44.43914" lon="5.14944">
        <ele>959.4</ele>
        <time>2022-10-16T09:53:05Z</time>
      </trkpt>
      <trkpt lat="44.43915" lon="5.14945">
        <ele>959.5</ele>
        <time>2022-10-16T09:53:04Z</time>
      </trkpt>
      <trkpt lat="44.43915" lon="5.14946">
        <ele>959.3</ele>
        <time>2022-10-16T09:53:03Z</time>
      </trkpt>
      <trkpt lat="44.43916" lon="5.14946">
        <ele>959.5</ele>
        <time>2022-10-16T09:53:02Z</time>
      </trkpt>
      <trkpt lat="44.43916" lon="5.14947">
        <ele>959.3</ele>
        <time>2022-10-16T09:53:01Z</time>
      </trkpt>
      <trkpt lat="44.43917" lon="5.14948">
        <ele>959.2</ele>
        <time>2022-10-16T09:52:59Z</time>
      </trkpt>
      <trkpt lat="44.43918" lon="5.14949">
        <ele>959.1</ele>
        <time>2022-10-16T09:52:58Z</time>
      </trkpt>
      <trkpt lat="44.43919" lon="5.1495">
        <ele>958.9</ele>
        <time>2022-10-16T09:52:57Z</time>
      </trkpt>
      <trkpt lat="44.4392" lon="5.14951">
        <ele>958.8</ele>
        <time>2022-10-16T09:52:56Z</time>
      </trkpt>
      <trkpt lat="44.43921" lon="5.14951">
        <ele>958.8</ele>
        <time>2022-10-16T09:52:55Z</time>
      </trkpt>
      <trkpt lat="44.43921" lon="5.14952">
        <ele>958.6</ele>
        <time>2022-10-16T09:52:54Z</time>
      </trkpt>
      <trkpt lat="44.43922" lon="5.14953">
        <ele>958.5</ele>
        <time>2022-10-16T09:52:53Z</time>
      </trkpt>
      <trkpt lat="44.43922" lon="5.14954">
        <ele>958.3</ele>
        <time>2022-10-16T09:52:52Z</time>
      </trkpt>
      <trkpt lat="44.43922" lon="5.14955">
        <ele>958.2</ele>
        <time>2022-10-16T09:52:51Z</time>
      </trkpt>
      <trkpt lat="44.43923" lon="5.14956">
        <ele>958.1</ele>
        <time>2022-10-16T09:52:50Z</time>
      </trkpt>
      <trkpt lat="44.43923" lon="5.14957">
        <ele>957.9</ele>
        <time>2022-10-16T09:52:49Z</time>
      </trkpt>
      <trkpt lat="44.43924" lon="5.14958">
        <ele>957.8</ele>
        <time>2022-10-16T09:52:48Z</time>
      </trkpt>
      <trkpt lat="44.43924" lon="5.14959">
        <ele>957.7</ele>
        <time>2022-10-16T09:52:47Z</time>
      </trkpt>
      <trkpt lat="44.43925" lon="5.1496">
        <ele>957.6</ele>
        <time>2022-10-16T09:52:45Z</time>
      </trkpt>
      <trkpt lat="44.43926" lon="5.14961">
        <ele>957.6</ele>
        <time>2022-10-16T09:52:44Z</time>
      </trkpt>
      <trkpt lat="44.43927" lon="5.14962">
        <ele>957.6</ele>
        <time>2022-10-16T09:52:43Z</time>
      </trkpt>
      <trkpt lat="44.43927" lon="5.14963">
        <ele>957.5</ele>
        <time>2022-10-16T09:52:42Z</time>
      </trkpt>
      <trkpt lat="44.43928" lon="5.14963">
        <ele>957.6</ele>
        <time>2022-10-16T09:52:41Z</time>
      </trkpt>
      <trkpt lat="44.43928" lon="5.14964">
        <ele>957.5</ele>
        <time>2022-10-16T09:52:40Z</time>
      </trkpt>
      <trkpt lat="44.43929" lon="5.14966">
        <ele>957.4</ele>
        <time>2022-10-16T09:52:39Z</time>
      </trkpt>
      <trkpt lat="44.43929" lon="5.14967">
        <ele>957.3</ele>
        <time>2022-10-16T09:52:38Z</time>
      </trkpt>
      <trkpt lat="44.43929" lon="5.14968">
        <ele>957.2</ele>
        <time>2022-10-16T09:52:37Z</time>
      </trkpt>
      <trkpt lat="44.43929" lon="5.14969">
        <ele>957.1</ele>
        <time>2022-10-16T09:52:36Z</time>
      </trkpt>
      <trkpt lat="44.43929" lon="5.1497">
        <ele>956.9</ele>
        <time>2022-10-16T09:52:35Z</time>
      </trkpt>
      <trkpt lat="44.4393" lon="5.14971">
        <ele>957</ele>
        <time>2022-10-16T09:52:34Z</time>
      </trkpt>
      <trkpt lat="44.4393" lon="5.14972">
        <ele>956.9</ele>
        <time>2022-10-16T09:52:33Z</time>
      </trkpt>
      <trkpt lat="44.43931" lon="5.14973">
        <ele>956.8</ele>
        <time>2022-10-16T09:52:32Z</time>
      </trkpt>
      <trkpt lat="44.43932" lon="5.14974">
        <ele>956.7</ele>
        <time>2022-10-16T09:52:31Z</time>
      </trkpt>
      <trkpt lat="44.43932" lon="5.14975">
        <ele>956.3</ele>
        <time>2022-10-16T09:52:30Z</time>
      </trkpt>
      <trkpt lat="44.43933" lon="5.14976">
        <ele>956.2</ele>
        <time>2022-10-16T09:52:29Z</time>
      </trkpt>
      <trkpt lat="44.43933" lon="5.14977">
        <ele>955.9</ele>
        <time>2022-10-16T09:52:28Z</time>
      </trkpt>
      <trkpt lat="44.43934" lon="5.14977">
        <ele>956.2</ele>
        <time>2022-10-16T09:52:27Z</time>
      </trkpt>
      <trkpt lat="44.43934" lon="5.14978">
        <ele>955.8</ele>
        <time>2022-10-16T09:52:26Z</time>
      </trkpt>
      <trkpt lat="44.43934" lon="5.14979">
        <ele>955.5</ele>
        <time>2022-10-16T09:52:25Z</time>
      </trkpt>
      <trkpt lat="44.43935" lon="5.1498">
        <ele>955.4</ele>
        <time>2022-10-16T09:52:24Z</time>
      </trkpt>
      <trkpt lat="44.43935" lon="5.14981">
        <ele>955.1</ele>
        <time>2022-10-16T09:52:23Z</time>
      </trkpt>
      <trkpt lat="44.43936" lon="5.14981">
        <ele>955.4</ele>
        <time>2022-10-16T09:52:22Z</time>
      </trkpt>
      <trkpt lat="44.43937" lon="5.14982">
        <ele>955.4</ele>
        <time>2022-10-16T09:52:20Z</time>
      </trkpt>
      <trkpt lat="44.43938" lon="5.14983">
        <ele>955.4</ele>
        <time>2022-10-16T09:52:19Z</time>
      </trkpt>
      <trkpt lat="44.43939" lon="5.14983">
        <ele>955.7</ele>
        <time>2022-10-16T09:52:18Z</time>
      </trkpt>
      <trkpt lat="44.4394" lon="5.14984">
        <ele>955.7</ele>
        <time>2022-10-16T09:52:16Z</time>
      </trkpt>
      <trkpt lat="44.43941" lon="5.14985">
        <ele>955.7</ele>
        <time>2022-10-16T09:52:15Z</time>
      </trkpt>
      <trkpt lat="44.43942" lon="5.14986">
        <ele>955.7</ele>
        <time>2022-10-16T09:52:13Z</time>
      </trkpt>
      <trkpt lat="44.43943" lon="5.14987">
        <ele>955.8</ele>
        <time>2022-10-16T09:52:12Z</time>
      </trkpt>
      <trkpt lat="44.43944" lon="5.14987">
        <ele>956.1</ele>
        <time>2022-10-16T09:52:11Z</time>
      </trkpt>
      <trkpt lat="44.43944" lon="5.14988">
        <ele>955.9</ele>
        <time>2022-10-16T09:52:10Z</time>
      </trkpt>
      <trkpt lat="44.43945" lon="5.14988">
        <ele>956.1</ele>
        <time>2022-10-16T09:52:09Z</time>
      </trkpt>
      <trkpt lat="44.43946" lon="5.14989">
        <ele>955.9</ele>
        <time>2022-10-16T09:52:08Z</time>
      </trkpt>
      <trkpt lat="44.43946" lon="5.1499">
        <ele>955.6</ele>
        <time>2022-10-16T09:52:07Z</time>
      </trkpt>
      <trkpt lat="44.43947" lon="5.1499">
        <ele>955.7</ele>
        <time>2022-10-16T09:52:06Z</time>
      </trkpt>
      <trkpt lat="44.43947" lon="5.14991">
        <ele>955.5</ele>
        <time>2022-10-16T09:52:05Z</time>
      </trkpt>
      <trkpt lat="44.43948" lon="5.14992">
        <ele>955.3</ele>
        <time>2022-10-16T09:52:03Z</time>
      </trkpt>
      <trkpt lat="44.43949" lon="5.14993">
        <ele>955.2</ele>
        <time>2022-10-16T09:52:02Z</time>
      </trkpt>
      <trkpt lat="44.43949" lon="5.14994">
        <ele>955</ele>
        <time>2022-10-16T09:52:01Z</time>
      </trkpt>
      <trkpt lat="44.4395" lon="5.14995">
        <ele>954.8</ele>
        <time>2022-10-16T09:52:00Z</time>
      </trkpt>
      <trkpt lat="44.43951" lon="5.14995">
        <ele>954.9</ele>
        <time>2022-10-16T09:51:59Z</time>
      </trkpt>
      <trkpt lat="44.43951" lon="5.14996">
        <ele>954.7</ele>
        <time>2022-10-16T09:51:58Z</time>
      </trkpt>
      <trkpt lat="44.43952" lon="5.14997">
        <ele>954.7</ele>
        <time>2022-10-16T09:51:57Z</time>
      </trkpt>
      <trkpt lat="44.43952" lon="5.14998">
        <ele>954.5</ele>
        <time>2022-10-16T09:51:55Z</time>
      </trkpt>
      <trkpt lat="44.43953" lon="5.14999">
        <ele>954.4</ele>
        <time>2022-10-16T09:51:54Z</time>
      </trkpt>
      <trkpt lat="44.43953" lon="5.15">
        <ele>954.2</ele>
        <time>2022-10-16T09:51:53Z</time>
      </trkpt>
      <trkpt lat="44.43954" lon="5.15001">
        <ele>953.9</ele>
        <time>2022-10-16T09:51:51Z</time>
      </trkpt>
      <trkpt lat="44.43955" lon="5.15002">
        <ele>953.7</ele>
        <time>2022-10-16T09:51:50Z</time>
      </trkpt>
      <trkpt lat="44.43955" lon="5.15003">
        <ele>953.3</ele>
        <time>2022-10-16T09:51:49Z</time>
      </trkpt>
      <trkpt lat="44.43956" lon="5.15003">
        <ele>953.4</ele>
        <time>2022-10-16T09:51:48Z</time>
      </trkpt>
      <trkpt lat="44.43957" lon="5.15004">
        <ele>953.2</ele>
        <time>2022-10-16T09:51:47Z</time>
      </trkpt>
      <trkpt lat="44.43958" lon="5.15004">
        <ele>953.4</ele>
        <time>2022-10-16T09:51:46Z</time>
      </trkpt>
      <trkpt lat="44.43958" lon="5.15005">
        <ele>953</ele>
        <time>2022-10-16T09:51:45Z</time>
      </trkpt>
      <trkpt lat="44.43959" lon="5.15005">
        <ele>953.1</ele>
        <time>2022-10-16T09:51:43Z</time>
      </trkpt>
      <trkpt lat="44.4396" lon="5.15006">
        <ele>952.9</ele>
        <time>2022-10-16T09:51:41Z</time>
      </trkpt>
      <trkpt lat="44.43961" lon="5.15007">
        <ele>952.8</ele>
        <time>2022-10-16T09:51:40Z</time>
      </trkpt>
      <trkpt lat="44.43961" lon="5.15008">
        <ele>952.4</ele>
        <time>2022-10-16T09:51:38Z</time>
      </trkpt>
      <trkpt lat="44.43962" lon="5.15009">
        <ele>952.2</ele>
        <time>2022-10-16T09:51:37Z</time>
      </trkpt>
      <trkpt lat="44.43962" lon="5.1501">
        <ele>951.9</ele>
        <time>2022-10-16T09:51:36Z</time>
      </trkpt>
      <trkpt lat="44.43963" lon="5.15011">
        <ele>951.7</ele>
        <time>2022-10-16T09:51:35Z</time>
      </trkpt>
      <trkpt lat="44.43964" lon="5.15011">
        <ele>951.9</ele>
        <time>2022-10-16T09:51:34Z</time>
      </trkpt>
      <trkpt lat="44.43964" lon="5.15012">
        <ele>951.6</ele>
        <time>2022-10-16T09:51:33Z</time>
      </trkpt>
      <trkpt lat="44.43965" lon="5.15013">
        <ele>951.5</ele>
        <time>2022-10-16T09:51:32Z</time>
      </trkpt>
      <trkpt lat="44.43966" lon="5.15013">
        <ele>951.7</ele>
        <time>2022-10-16T09:51:31Z</time>
      </trkpt>
      <trkpt lat="44.43966" lon="5.15014">
        <ele>951.4</ele>
        <time>2022-10-16T09:51:30Z</time>
      </trkpt>
      <trkpt lat="44.43967" lon="5.15014">
        <ele>951.6</ele>
        <time>2022-10-16T09:51:29Z</time>
      </trkpt>
      <trkpt lat="44.43968" lon="5.15014">
        <ele>951.9</ele>
        <time>2022-10-16T09:51:28Z</time>
      </trkpt>
      <trkpt lat="44.43968" lon="5.15015">
        <ele>951.6</ele>
        <time>2022-10-16T09:51:27Z</time>
      </trkpt>
      <trkpt lat="44.43969" lon="5.15015">
        <ele>951.8</ele>
        <time>2022-10-16T09:51:26Z</time>
      </trkpt>
      <trkpt lat="44.43969" lon="5.15016">
        <ele>951.5</ele>
        <time>2022-10-16T09:51:25Z</time>
      </trkpt>
      <trkpt lat="44.4397" lon="5.15016">
        <ele>951.8</ele>
        <time>2022-10-16T09:51:24Z</time>
      </trkpt>
      <trkpt lat="44.4397" lon="5.15017">
        <ele>951.5</ele>
        <time>2022-10-16T09:51:23Z</time>
      </trkpt>
      <trkpt lat="44.43971" lon="5.15017">
        <ele>951.8</ele>
        <time>2022-10-16T09:51:22Z</time>
      </trkpt>
      <trkpt lat="44.43971" lon="5.15018">
        <ele>951.5</ele>
        <time>2022-10-16T09:51:21Z</time>
      </trkpt>
      <trkpt lat="44.43972" lon="5.15018">
        <ele>951.8</ele>
        <time>2022-10-16T09:51:20Z</time>
      </trkpt>
      <trkpt lat="44.43972" lon="5.15019">
        <ele>951.5</ele>
        <time>2022-10-16T09:51:19Z</time>
      </trkpt>
      <trkpt lat="44.43973" lon="5.1502">
        <ele>951.3</ele>
        <time>2022-10-16T09:51:17Z</time>
      </trkpt>
      <trkpt lat="44.43973" lon="5.15021">
        <ele>951</ele>
        <time>2022-10-16T09:51:16Z</time>
      </trkpt>
      <trkpt lat="44.43974" lon="5.15022">
        <ele>950.9</ele>
        <time>2022-10-16T09:51:14Z</time>
      </trkpt>
      <trkpt lat="44.43975" lon="5.15023">
        <ele>950.8</ele>
        <time>2022-10-16T09:51:12Z</time>
      </trkpt>
      <trkpt lat="44.43976" lon="5.15024">
        <ele>950.6</ele>
        <time>2022-10-16T09:51:10Z</time>
      </trkpt>
      <trkpt lat="44.43977" lon="5.15025">
        <ele>950.5</ele>
        <time>2022-10-16T09:51:09Z</time>
      </trkpt>
      <trkpt lat="44.43978" lon="5.15025">
        <ele>950.7</ele>
        <time>2022-10-16T09:51:08Z</time>
      </trkpt>
      <trkpt lat="44.43978" lon="5.15026">
        <ele>950.5</ele>
        <time>2022-10-16T09:51:07Z</time>
      </trkpt>
      <trkpt lat="44.43979" lon="5.15026">
        <ele>950.6</ele>
        <time>2022-10-16T09:51:06Z</time>
      </trkpt>
      <trkpt lat="44.43979" lon="5.15027">
        <ele>950.4</ele>
        <time>2022-10-16T09:51:05Z</time>
      </trkpt>
      <trkpt lat="44.4398" lon="5.15028">
        <ele>950.3</ele>
        <time>2022-10-16T09:51:04Z</time>
      </trkpt>
      <trkpt lat="44.4398" lon="5.15029">
        <ele>949.9</ele>
        <time>2022-10-16T09:51:03Z</time>
      </trkpt>
      <trkpt lat="44.43981" lon="5.15029">
        <ele>950</ele>
        <time>2022-10-16T09:51:02Z</time>
      </trkpt>
      <trkpt lat="44.43981" lon="5.1503">
        <ele>949.6</ele>
        <time>2022-10-16T09:51:01Z</time>
      </trkpt>
      <trkpt lat="44.43982" lon="5.1503">
        <ele>949.8</ele>
        <time>2022-10-16T09:51:00Z</time>
      </trkpt>
      <trkpt lat="44.43983" lon="5.15031">
        <ele>949.6</ele>
        <time>2022-10-16T09:50:58Z</time>
      </trkpt>
      <trkpt lat="44.43984" lon="5.15032">
        <ele>949.4</ele>
        <time>2022-10-16T09:50:57Z</time>
      </trkpt>
      <trkpt lat="44.43984" lon="5.15033">
        <ele>949</ele>
        <time>2022-10-16T09:50:56Z</time>
      </trkpt>
      <trkpt lat="44.43985" lon="5.15033">
        <ele>949.2</ele>
        <time>2022-10-16T09:50:55Z</time>
      </trkpt>
      <trkpt lat="44.43986" lon="5.15034">
        <ele>949</ele>
        <time>2022-10-16T09:50:54Z</time>
      </trkpt>
      <trkpt lat="44.43986" lon="5.15035">
        <ele>948.6</ele>
        <time>2022-10-16T09:50:53Z</time>
      </trkpt>
      <trkpt lat="44.43987" lon="5.15035">
        <ele>948.8</ele>
        <time>2022-10-16T09:50:52Z</time>
      </trkpt>
      <trkpt lat="44.43987" lon="5.15036">
        <ele>948.5</ele>
        <time>2022-10-16T09:50:51Z</time>
      </trkpt>
      <trkpt lat="44.43988" lon="5.15036">
        <ele>948.7</ele>
        <time>2022-10-16T09:50:50Z</time>
      </trkpt>
      <trkpt lat="44.43988" lon="5.15037">
        <ele>948.3</ele>
        <time>2022-10-16T09:50:49Z</time>
      </trkpt>
      <trkpt lat="44.43989" lon="5.15037">
        <ele>948.6</ele>
        <time>2022-10-16T09:50:48Z</time>
      </trkpt>
      <trkpt lat="44.4399" lon="5.15038">
        <ele>948.5</ele>
        <time>2022-10-16T09:50:46Z</time>
      </trkpt>
      <trkpt lat="44.43991" lon="5.15038">
        <ele>948.7</ele>
        <time>2022-10-16T09:50:45Z</time>
      </trkpt>
      <trkpt lat="44.43992" lon="5.15038">
        <ele>949</ele>
        <time>2022-10-16T09:50:43Z</time>
      </trkpt>
      <trkpt lat="44.43993" lon="5.15038">
        <ele>949.2</ele>
        <time>2022-10-16T09:50:41Z</time>
      </trkpt>
      <trkpt lat="44.43994" lon="5.15038">
        <ele>949.5</ele>
        <time>2022-10-16T09:50:40Z</time>
      </trkpt>
      <trkpt lat="44.43995" lon="5.15038">
        <ele>949.8</ele>
        <time>2022-10-16T09:50:38Z</time>
      </trkpt>
      <trkpt lat="44.43996" lon="5.15038">
        <ele>950</ele>
        <time>2022-10-16T09:50:37Z</time>
      </trkpt>
      <trkpt lat="44.43996" lon="5.15039">
        <ele>949.7</ele>
        <time>2022-10-16T09:50:36Z</time>
      </trkpt>
      <trkpt lat="44.43997" lon="5.15039">
        <ele>950</ele>
        <time>2022-10-16T09:50:34Z</time>
      </trkpt>
      <trkpt lat="44.43998" lon="5.1504">
        <ele>949.9</ele>
        <time>2022-10-16T09:50:33Z</time>
      </trkpt>
      <trkpt lat="44.43999" lon="5.1504">
        <ele>950.2</ele>
        <time>2022-10-16T09:50:31Z</time>
      </trkpt>
      <trkpt lat="44.44" lon="5.15041">
        <ele>950.2</ele>
        <time>2022-10-16T09:50:30Z</time>
      </trkpt>
      <trkpt lat="44.44001" lon="5.15041">
        <ele>950.1</ele>
        <time>2022-10-16T09:50:29Z</time>
      </trkpt>
      <trkpt lat="44.44002" lon="5.15041">
        <ele>950.1</ele>
        <time>2022-10-16T09:50:28Z</time>
      </trkpt>
      <trkpt lat="44.44003" lon="5.15041">
        <ele>950.1</ele>
        <time>2022-10-16T09:50:27Z</time>
      </trkpt>
      <trkpt lat="44.44003" lon="5.15042">
        <ele>949.8</ele>
        <time>2022-10-16T09:50:26Z</time>
      </trkpt>
      <trkpt lat="44.44004" lon="5.15042">
        <ele>949.8</ele>
        <time>2022-10-16T09:50:25Z</time>
      </trkpt>
      <trkpt lat="44.44004" lon="5.15043">
        <ele>949.5</ele>
        <time>2022-10-16T09:50:24Z</time>
      </trkpt>
      <trkpt lat="44.44005" lon="5.15043">
        <ele>949.5</ele>
        <time>2022-10-16T09:50:22Z</time>
      </trkpt>
      <trkpt lat="44.44006" lon="5.15044">
        <ele>949.3</ele>
        <time>2022-10-16T09:50:20Z</time>
      </trkpt>
      <trkpt lat="44.44007" lon="5.15045">
        <ele>949</ele>
        <time>2022-10-16T09:50:19Z</time>
      </trkpt>
      <trkpt lat="44.44008" lon="5.15045">
        <ele>949</ele>
        <time>2022-10-16T09:50:18Z</time>
      </trkpt>
      <trkpt lat="44.44008" lon="5.15046">
        <ele>948.8</ele>
        <time>2022-10-16T09:50:17Z</time>
      </trkpt>
      <trkpt lat="44.44009" lon="5.15046">
        <ele>948.8</ele>
        <time>2022-10-16T09:50:16Z</time>
      </trkpt>
      <trkpt lat="44.44009" lon="5.15047">
        <ele>948.6</ele>
        <time>2022-10-16T09:50:15Z</time>
      </trkpt>
      <trkpt lat="44.4401" lon="5.15047">
        <ele>948.7</ele>
        <time>2022-10-16T09:50:14Z</time>
      </trkpt>
      <trkpt lat="44.4401" lon="5.15048">
        <ele>948.5</ele>
        <time>2022-10-16T09:50:13Z</time>
      </trkpt>
      <trkpt lat="44.44011" lon="5.15049">
        <ele>948.3</ele>
        <time>2022-10-16T09:50:12Z</time>
      </trkpt>
      <trkpt lat="44.44012" lon="5.15049">
        <ele>948.4</ele>
        <time>2022-10-16T09:50:11Z</time>
      </trkpt>
      <trkpt lat="44.44013" lon="5.1505">
        <ele>948.3</ele>
        <time>2022-10-16T09:50:10Z</time>
      </trkpt>
      <trkpt lat="44.44013" lon="5.15051">
        <ele>948.1</ele>
        <time>2022-10-16T09:50:09Z</time>
      </trkpt>
      <trkpt lat="44.44014" lon="5.15052">
        <ele>948</ele>
        <time>2022-10-16T09:50:08Z</time>
      </trkpt>
      <trkpt lat="44.44015" lon="5.15052">
        <ele>948.1</ele>
        <time>2022-10-16T09:50:07Z</time>
      </trkpt>
      <trkpt lat="44.44015" lon="5.15053">
        <ele>948</ele>
        <time>2022-10-16T09:50:06Z</time>
      </trkpt>
      <trkpt lat="44.44016" lon="5.15054">
        <ele>947.9</ele>
        <time>2022-10-16T09:50:05Z</time>
      </trkpt>
      <trkpt lat="44.44016" lon="5.15055">
        <ele>947.8</ele>
        <time>2022-10-16T09:50:04Z</time>
      </trkpt>
      <trkpt lat="44.44017" lon="5.15056">
        <ele>947.7</ele>
        <time>2022-10-16T09:50:03Z</time>
      </trkpt>
      <trkpt lat="44.44017" lon="5.15057">
        <ele>947.3</ele>
        <time>2022-10-16T09:50:02Z</time>
      </trkpt>
      <trkpt lat="44.44018" lon="5.15057">
        <ele>947.5</ele>
        <time>2022-10-16T09:50:01Z</time>
      </trkpt>
      <trkpt lat="44.44018" lon="5.15058">
        <ele>947.1</ele>
        <time>2022-10-16T09:49:59Z</time>
      </trkpt>
      <trkpt lat="44.44018" lon="5.15059">
        <ele>946.8</ele>
        <time>2022-10-16T09:49:58Z</time>
      </trkpt>
      <trkpt lat="44.44018" lon="5.1506">
        <ele>946.4</ele>
        <time>2022-10-16T09:49:57Z</time>
      </trkpt>
      <trkpt lat="44.44019" lon="5.15061">
        <ele>946.2</ele>
        <time>2022-10-16T09:49:56Z</time>
      </trkpt>
      <trkpt lat="44.44019" lon="5.15062">
        <ele>945.9</ele>
        <time>2022-10-16T09:49:55Z</time>
      </trkpt>
      <trkpt lat="44.44019" lon="5.15063">
        <ele>945.6</ele>
        <time>2022-10-16T09:49:54Z</time>
      </trkpt>
      <trkpt lat="44.44019" lon="5.15065">
        <ele>944.9</ele>
        <time>2022-10-16T09:49:53Z</time>
      </trkpt>
      <trkpt lat="44.4402" lon="5.15066">
        <ele>944.8</ele>
        <time>2022-10-16T09:49:52Z</time>
      </trkpt>
      <trkpt lat="44.4402" lon="5.15067">
        <ele>944.5</ele>
        <time>2022-10-16T09:49:51Z</time>
      </trkpt>
      <trkpt lat="44.4402" lon="5.15068">
        <ele>944.1</ele>
        <time>2022-10-16T09:49:50Z</time>
      </trkpt>
      <trkpt lat="44.44021" lon="5.15069">
        <ele>944.1</ele>
        <time>2022-10-16T09:49:49Z</time>
      </trkpt>
      <trkpt lat="44.44021" lon="5.1507">
        <ele>943.7</ele>
        <time>2022-10-16T09:49:47Z</time>
      </trkpt>
      <trkpt lat="44.44022" lon="5.15071">
        <ele>943.7</ele>
        <time>2022-10-16T09:49:46Z</time>
      </trkpt>
      <trkpt lat="44.44022" lon="5.15072">
        <ele>943.4</ele>
        <time>2022-10-16T09:49:45Z</time>
      </trkpt>
      <trkpt lat="44.44023" lon="5.15072">
        <ele>943.6</ele>
        <time>2022-10-16T09:49:44Z</time>
      </trkpt>
      <trkpt lat="44.44023" lon="5.15073">
        <ele>943.3</ele>
        <time>2022-10-16T09:49:43Z</time>
      </trkpt>
      <trkpt lat="44.44024" lon="5.15074">
        <ele>943.3</ele>
        <time>2022-10-16T09:49:42Z</time>
      </trkpt>
      <trkpt lat="44.44025" lon="5.15074">
        <ele>943.6</ele>
        <time>2022-10-16T09:49:41Z</time>
      </trkpt>
      <trkpt lat="44.44026" lon="5.15074">
        <ele>943.9</ele>
        <time>2022-10-16T09:49:40Z</time>
      </trkpt>
      <trkpt lat="44.44026" lon="5.15075">
        <ele>943.6</ele>
        <time>2022-10-16T09:49:39Z</time>
      </trkpt>
      <trkpt lat="44.44027" lon="5.15075">
        <ele>943.9</ele>
        <time>2022-10-16T09:49:38Z</time>
      </trkpt>
      <trkpt lat="44.44028" lon="5.15075">
        <ele>944.1</ele>
        <time>2022-10-16T09:49:37Z</time>
      </trkpt>
      <trkpt lat="44.44029" lon="5.15076">
        <ele>943.8</ele>
        <time>2022-10-16T09:49:35Z</time>
      </trkpt>
      <trkpt lat="44.4403" lon="5.15077">
        <ele>943.5</ele>
        <time>2022-10-16T09:49:34Z</time>
      </trkpt>
      <trkpt lat="44.44031" lon="5.15077">
        <ele>943.4</ele>
        <time>2022-10-16T09:49:33Z</time>
      </trkpt>
      <trkpt lat="44.44031" lon="5.15078">
        <ele>943.2</ele>
        <time>2022-10-16T09:49:32Z</time>
      </trkpt>
      <trkpt lat="44.44032" lon="5.15078">
        <ele>943.1</ele>
        <time>2022-10-16T09:49:31Z</time>
      </trkpt>
      <trkpt lat="44.44033" lon="5.15079">
        <ele>942.9</ele>
        <time>2022-10-16T09:49:30Z</time>
      </trkpt>
      <trkpt lat="44.44033" lon="5.1508">
        <ele>942.7</ele>
        <time>2022-10-16T09:49:29Z</time>
      </trkpt>
      <trkpt lat="44.44034" lon="5.1508">
        <ele>942.7</ele>
        <time>2022-10-16T09:49:28Z</time>
      </trkpt>
      <trkpt lat="44.44035" lon="5.15081">
        <ele>942.4</ele>
        <time>2022-10-16T09:49:26Z</time>
      </trkpt>
      <trkpt lat="44.44036" lon="5.15082">
        <ele>942.2</ele>
        <time>2022-10-16T09:49:25Z</time>
      </trkpt>
      <trkpt lat="44.44037" lon="5.15082">
        <ele>942.2</ele>
        <time>2022-10-16T09:49:24Z</time>
      </trkpt>
      <trkpt lat="44.44038" lon="5.15083">
        <ele>942.1</ele>
        <time>2022-10-16T09:49:23Z</time>
      </trkpt>
      <trkpt lat="44.44038" lon="5.15084">
        <ele>941.8</ele>
        <time>2022-10-16T09:49:22Z</time>
      </trkpt>
      <trkpt lat="44.44039" lon="5.15084">
        <ele>941.8</ele>
        <time>2022-10-16T09:49:21Z</time>
      </trkpt>
      <trkpt lat="44.4404" lon="5.15085">
        <ele>941.5</ele>
        <time>2022-10-16T09:49:20Z</time>
      </trkpt>
      <trkpt lat="44.44041" lon="5.15085">
        <ele>941.5</ele>
        <time>2022-10-16T09:49:19Z</time>
      </trkpt>
      <trkpt lat="44.44041" lon="5.15086">
        <ele>941.2</ele>
        <time>2022-10-16T09:49:18Z</time>
      </trkpt>
      <trkpt lat="44.44042" lon="5.15086">
        <ele>941.2</ele>
        <time>2022-10-16T09:49:16Z</time>
      </trkpt>
      <trkpt lat="44.44043" lon="5.15087">
        <ele>941</ele>
        <time>2022-10-16T09:49:15Z</time>
      </trkpt>
      <trkpt lat="44.44043" lon="5.15088">
        <ele>940.7</ele>
        <time>2022-10-16T09:49:14Z</time>
      </trkpt>
      <trkpt lat="44.44044" lon="5.15088">
        <ele>940.8</ele>
        <time>2022-10-16T09:49:13Z</time>
      </trkpt>
      <trkpt lat="44.44044" lon="5.15089">
        <ele>940.5</ele>
        <time>2022-10-16T09:49:12Z</time>
      </trkpt>
      <trkpt lat="44.44044" lon="5.1509">
        <ele>940.3</ele>
        <time>2022-10-16T09:49:11Z</time>
      </trkpt>
      <trkpt lat="44.44045" lon="5.15091">
        <ele>940.1</ele>
        <time>2022-10-16T09:49:09Z</time>
      </trkpt>
      <trkpt lat="44.44045" lon="5.15092">
        <ele>939.9</ele>
        <time>2022-10-16T09:49:08Z</time>
      </trkpt>
      <trkpt lat="44.44046" lon="5.15093">
        <ele>939.8</ele>
        <time>2022-10-16T09:49:07Z</time>
      </trkpt>
      <trkpt lat="44.44046" lon="5.15095">
        <ele>939.3</ele>
        <time>2022-10-16T09:49:06Z</time>
      </trkpt>
      <trkpt lat="44.44046" lon="5.15096">
        <ele>939.1</ele>
        <time>2022-10-16T09:49:05Z</time>
      </trkpt>
      <trkpt lat="44.44046" lon="5.15097">
        <ele>938.8</ele>
        <time>2022-10-16T09:49:04Z</time>
      </trkpt>
      <trkpt lat="44.44047" lon="5.15098">
        <ele>938.8</ele>
        <time>2022-10-16T09:49:03Z</time>
      </trkpt>
      <trkpt lat="44.44047" lon="5.15099">
        <ele>938.6</ele>
        <time>2022-10-16T09:49:02Z</time>
      </trkpt>
      <trkpt lat="44.44047" lon="5.151">
        <ele>938.4</ele>
        <time>2022-10-16T09:49:01Z</time>
      </trkpt>
      <trkpt lat="44.44048" lon="5.15101">
        <ele>938.4</ele>
        <time>2022-10-16T09:49:00Z</time>
      </trkpt>
      <trkpt lat="44.44048" lon="5.15102">
        <ele>938.2</ele>
        <time>2022-10-16T09:48:59Z</time>
      </trkpt>
      <trkpt lat="44.44049" lon="5.15103">
        <ele>938.2</ele>
        <time>2022-10-16T09:48:58Z</time>
      </trkpt>
      <trkpt lat="44.44049" lon="5.15104">
        <ele>938</ele>
        <time>2022-10-16T09:48:57Z</time>
      </trkpt>
      <trkpt lat="44.4405" lon="5.15105">
        <ele>938.1</ele>
        <time>2022-10-16T09:48:56Z</time>
      </trkpt>
      <trkpt lat="44.44051" lon="5.15106">
        <ele>938.2</ele>
        <time>2022-10-16T09:48:55Z</time>
      </trkpt>
      <trkpt lat="44.44051" lon="5.15107">
        <ele>938</ele>
        <time>2022-10-16T09:48:54Z</time>
      </trkpt>
      <trkpt lat="44.44052" lon="5.15108">
        <ele>938.2</ele>
        <time>2022-10-16T09:48:53Z</time>
      </trkpt>
      <trkpt lat="44.44052" lon="5.15109">
        <ele>938</ele>
        <time>2022-10-16T09:48:52Z</time>
      </trkpt>
      <trkpt lat="44.44053" lon="5.1511">
        <ele>938.2</ele>
        <time>2022-10-16T09:48:51Z</time>
      </trkpt>
      <trkpt lat="44.44053" lon="5.15111">
        <ele>938.1</ele>
        <time>2022-10-16T09:48:50Z</time>
      </trkpt>
      <trkpt lat="44.44054" lon="5.15112">
        <ele>938</ele>
        <time>2022-10-16T09:48:48Z</time>
      </trkpt>
      <trkpt lat="44.44055" lon="5.15113">
        <ele>938</ele>
        <time>2022-10-16T09:48:47Z</time>
      </trkpt>
      <trkpt lat="44.44056" lon="5.15114">
        <ele>937.7</ele>
        <time>2022-10-16T09:48:45Z</time>
      </trkpt>
      <trkpt lat="44.44057" lon="5.15115">
        <ele>937.3</ele>
        <time>2022-10-16T09:48:44Z</time>
      </trkpt>
      <trkpt lat="44.44058" lon="5.15115">
        <ele>937.3</ele>
        <time>2022-10-16T09:48:43Z</time>
      </trkpt>
      <trkpt lat="44.44058" lon="5.15116">
        <ele>936.9</ele>
        <time>2022-10-16T09:48:42Z</time>
      </trkpt>
      <trkpt lat="44.44059" lon="5.15117">
        <ele>936.4</ele>
        <time>2022-10-16T09:48:40Z</time>
      </trkpt>
      <trkpt lat="44.4406" lon="5.15118">
        <ele>936.1</ele>
        <time>2022-10-16T09:48:39Z</time>
      </trkpt>
      <trkpt lat="44.4406" lon="5.15119">
        <ele>935.7</ele>
        <time>2022-10-16T09:48:38Z</time>
      </trkpt>
      <trkpt lat="44.44061" lon="5.15119">
        <ele>935.7</ele>
        <time>2022-10-16T09:48:37Z</time>
      </trkpt>
      <trkpt lat="44.44061" lon="5.1512">
        <ele>935.3</ele>
        <time>2022-10-16T09:48:36Z</time>
      </trkpt>
      <trkpt lat="44.44062" lon="5.15121">
        <ele>935</ele>
        <time>2022-10-16T09:48:34Z</time>
      </trkpt>
      <trkpt lat="44.44063" lon="5.15122">
        <ele>934.7</ele>
        <time>2022-10-16T09:48:33Z</time>
      </trkpt>
      <trkpt lat="44.44063" lon="5.15123">
        <ele>934.4</ele>
        <time>2022-10-16T09:48:32Z</time>
      </trkpt>
      <trkpt lat="44.44064" lon="5.15124">
        <ele>934.1</ele>
        <time>2022-10-16T09:48:30Z</time>
      </trkpt>
      <trkpt lat="44.44065" lon="5.15125">
        <ele>933.8</ele>
        <time>2022-10-16T09:48:29Z</time>
      </trkpt>
      <trkpt lat="44.44065" lon="5.15126">
        <ele>933.5</ele>
        <time>2022-10-16T09:48:28Z</time>
      </trkpt>
      <trkpt lat="44.44066" lon="5.15126">
        <ele>933.6</ele>
        <time>2022-10-16T09:48:27Z</time>
      </trkpt>
      <trkpt lat="44.44066" lon="5.15127">
        <ele>933.3</ele>
        <time>2022-10-16T09:48:26Z</time>
      </trkpt>
      <trkpt lat="44.44067" lon="5.15128">
        <ele>933.1</ele>
        <time>2022-10-16T09:48:25Z</time>
      </trkpt>
      <trkpt lat="44.44067" lon="5.15129">
        <ele>932.8</ele>
        <time>2022-10-16T09:48:24Z</time>
      </trkpt>
      <trkpt lat="44.44068" lon="5.15129">
        <ele>933</ele>
        <time>2022-10-16T09:48:23Z</time>
      </trkpt>
      <trkpt lat="44.44068" lon="5.1513">
        <ele>932.7</ele>
        <time>2022-10-16T09:48:22Z</time>
      </trkpt>
      <trkpt lat="44.44068" lon="5.15131">
        <ele>932.4</ele>
        <time>2022-10-16T09:48:21Z</time>
      </trkpt>
      <trkpt lat="44.44068" lon="5.15132">
        <ele>932.1</ele>
        <time>2022-10-16T09:48:20Z</time>
      </trkpt>
      <trkpt lat="44.44068" lon="5.15133">
        <ele>931.8</ele>
        <time>2022-10-16T09:48:19Z</time>
      </trkpt>
      <trkpt lat="44.44069" lon="5.15134">
        <ele>931.7</ele>
        <time>2022-10-16T09:48:18Z</time>
      </trkpt>
      <trkpt lat="44.44069" lon="5.15135">
        <ele>931.5</ele>
        <time>2022-10-16T09:48:17Z</time>
      </trkpt>
      <trkpt lat="44.4407" lon="5.15136">
        <ele>931.4</ele>
        <time>2022-10-16T09:48:15Z</time>
      </trkpt>
      <trkpt lat="44.44071" lon="5.15137">
        <ele>931.4</ele>
        <time>2022-10-16T09:48:14Z</time>
      </trkpt>
      <trkpt lat="44.44072" lon="5.15138">
        <ele>931.4</ele>
        <time>2022-10-16T09:48:12Z</time>
      </trkpt>
      <trkpt lat="44.44073" lon="5.15139">
        <ele>931.3</ele>
        <time>2022-10-16T09:48:11Z</time>
      </trkpt>
      <trkpt lat="44.44074" lon="5.15139">
        <ele>931.6</ele>
        <time>2022-10-16T09:48:10Z</time>
      </trkpt>
      <trkpt lat="44.44074" lon="5.1514">
        <ele>931.2</ele>
        <time>2022-10-16T09:48:09Z</time>
      </trkpt>
      <trkpt lat="44.44075" lon="5.15141">
        <ele>931</ele>
        <time>2022-10-16T09:48:07Z</time>
      </trkpt>
      <trkpt lat="44.44076" lon="5.15142">
        <ele>930.9</ele>
        <time>2022-10-16T09:48:06Z</time>
      </trkpt>
      <trkpt lat="44.44076" lon="5.15143">
        <ele>930.5</ele>
        <time>2022-10-16T09:48:05Z</time>
      </trkpt>
      <trkpt lat="44.44077" lon="5.15144">
        <ele>930.4</ele>
        <time>2022-10-16T09:48:04Z</time>
      </trkpt>
      <trkpt lat="44.44077" lon="5.15145">
        <ele>930</ele>
        <time>2022-10-16T09:48:02Z</time>
      </trkpt>
      <trkpt lat="44.44077" lon="5.15146">
        <ele>929.6</ele>
        <time>2022-10-16T09:48:01Z</time>
      </trkpt>
      <trkpt lat="44.44077" lon="5.15147">
        <ele>929.2</ele>
        <time>2022-10-16T09:48:00Z</time>
      </trkpt>
      <trkpt lat="44.44078" lon="5.15148">
        <ele>929.1</ele>
        <time>2022-10-16T09:47:59Z</time>
      </trkpt>
      <trkpt lat="44.44078" lon="5.15149">
        <ele>928.8</ele>
        <time>2022-10-16T09:47:58Z</time>
      </trkpt>
      <trkpt lat="44.44078" lon="5.1515">
        <ele>928.4</ele>
        <time>2022-10-16T09:47:57Z</time>
      </trkpt>
      <trkpt lat="44.44078" lon="5.15151">
        <ele>928</ele>
        <time>2022-10-16T09:47:56Z</time>
      </trkpt>
      <trkpt lat="44.44078" lon="5.15153">
        <ele>927.2</ele>
        <time>2022-10-16T09:47:55Z</time>
      </trkpt>
      <trkpt lat="44.44079" lon="5.15155">
        <ele>926.9</ele>
        <time>2022-10-16T09:47:54Z</time>
      </trkpt>
      <trkpt lat="44.4408" lon="5.15159">
        <ele>925.9</ele>
        <time>2022-10-16T09:40:39Z</time>
      </trkpt>
      <trkpt lat="44.4408" lon="5.1516">
        <ele>925.5</ele>
        <time>2022-10-16T09:40:38Z</time>
      </trkpt>
      <trkpt lat="44.44081" lon="5.15161">
        <ele>925.6</ele>
        <time>2022-10-16T09:40:36Z</time>
      </trkpt>
      <trkpt lat="44.44082" lon="5.15162">
        <ele>925.8</ele>
        <time>2022-10-16T09:40:34Z</time>
      </trkpt>
      <trkpt lat="44.44083" lon="5.15163">
        <ele>926</ele>
        <time>2022-10-16T09:40:32Z</time>
      </trkpt>
      <trkpt lat="44.44084" lon="5.15164">
        <ele>925.9</ele>
        <time>2022-10-16T09:40:30Z</time>
      </trkpt>
      <trkpt lat="44.44085" lon="5.15164">
        <ele>926.1</ele>
        <time>2022-10-16T09:40:28Z</time>
      </trkpt>
      <trkpt lat="44.44086" lon="5.15165">
        <ele>925.9</ele>
        <time>2022-10-16T09:40:26Z</time>
      </trkpt>
      <trkpt lat="44.44087" lon="5.15165">
        <ele>926</ele>
        <time>2022-10-16T09:40:25Z</time>
      </trkpt>
      <trkpt lat="44.44088" lon="5.15165">
        <ele>926.1</ele>
        <time>2022-10-16T09:40:24Z</time>
      </trkpt>
      <trkpt lat="44.44088" lon="5.15166">
        <ele>925.9</ele>
        <time>2022-10-16T09:40:23Z</time>
      </trkpt>
      <trkpt lat="44.44089" lon="5.15166">
        <ele>926</ele>
        <time>2022-10-16T09:40:22Z</time>
      </trkpt>
      <trkpt lat="44.44089" lon="5.15167">
        <ele>925.7</ele>
        <time>2022-10-16T09:40:20Z</time>
      </trkpt>
      <trkpt lat="44.44089" lon="5.15168">
        <ele>925.3</ele>
        <time>2022-10-16T09:40:19Z</time>
      </trkpt>
      <trkpt lat="44.4409" lon="5.15169">
        <ele>925.1</ele>
        <time>2022-10-16T09:40:17Z</time>
      </trkpt>
      <trkpt lat="44.4409" lon="5.1517">
        <ele>924.8</ele>
        <time>2022-10-16T09:40:16Z</time>
      </trkpt>
      <trkpt lat="44.4409" lon="5.15171">
        <ele>924.4</ele>
        <time>2022-10-16T09:40:15Z</time>
      </trkpt>
      <trkpt lat="44.4409" lon="5.15172">
        <ele>924.1</ele>
        <time>2022-10-16T09:40:14Z</time>
      </trkpt>
      <trkpt lat="44.44091" lon="5.15173">
        <ele>923.9</ele>
        <time>2022-10-16T09:40:13Z</time>
      </trkpt>
      <trkpt lat="44.44091" lon="5.15174">
        <ele>923.6</ele>
        <time>2022-10-16T09:40:12Z</time>
      </trkpt>
      <trkpt lat="44.44092" lon="5.15175">
        <ele>923.5</ele>
        <time>2022-10-16T09:40:10Z</time>
      </trkpt>
      <trkpt lat="44.44093" lon="5.15176">
        <ele>923.4</ele>
        <time>2022-10-16T09:40:09Z</time>
      </trkpt>
      <trkpt lat="44.44093" lon="5.15177">
        <ele>923.1</ele>
        <time>2022-10-16T09:40:08Z</time>
      </trkpt>
      <trkpt lat="44.44094" lon="5.15177">
        <ele>923.4</ele>
        <time>2022-10-16T09:40:07Z</time>
      </trkpt>
      <trkpt lat="44.44094" lon="5.15178">
        <ele>923.1</ele>
        <time>2022-10-16T09:40:06Z</time>
      </trkpt>
      <trkpt lat="44.44095" lon="5.15179">
        <ele>923</ele>
        <time>2022-10-16T09:40:05Z</time>
      </trkpt>
      <trkpt lat="44.44096" lon="5.1518">
        <ele>923</ele>
        <time>2022-10-16T09:40:04Z</time>
      </trkpt>
      <trkpt lat="44.44096" lon="5.15181">
        <ele>922.7</ele>
        <time>2022-10-16T09:40:03Z</time>
      </trkpt>
      <trkpt lat="44.44097" lon="5.15181">
        <ele>923.1</ele>
        <time>2022-10-16T09:40:02Z</time>
      </trkpt>
      <trkpt lat="44.44098" lon="5.15182">
        <ele>923.1</ele>
        <time>2022-10-16T09:40:01Z</time>
      </trkpt>
      <trkpt lat="44.44098" lon="5.15183">
        <ele>922.9</ele>
        <time>2022-10-16T09:40:00Z</time>
      </trkpt>
      <trkpt lat="44.44099" lon="5.15184">
        <ele>922.9</ele>
        <time>2022-10-16T09:39:59Z</time>
      </trkpt>
      <trkpt lat="44.441" lon="5.15184">
        <ele>923.3</ele>
        <time>2022-10-16T09:39:58Z</time>
      </trkpt>
      <trkpt lat="44.441" lon="5.15185">
        <ele>923</ele>
        <time>2022-10-16T09:39:57Z</time>
      </trkpt>
      <trkpt lat="44.44101" lon="5.15186">
        <ele>923.2</ele>
        <time>2022-10-16T09:39:56Z</time>
      </trkpt>
      <trkpt lat="44.44102" lon="5.15186">
        <ele>923.5</ele>
        <time>2022-10-16T09:39:54Z</time>
      </trkpt>
      <trkpt lat="44.44103" lon="5.15187">
        <ele>923.7</ele>
        <time>2022-10-16T09:39:53Z</time>
      </trkpt>
      <trkpt lat="44.44104" lon="5.15187">
        <ele>924.1</ele>
        <time>2022-10-16T09:39:52Z</time>
      </trkpt>
      <trkpt lat="44.44104" lon="5.15188">
        <ele>923.9</ele>
        <time>2022-10-16T09:39:51Z</time>
      </trkpt>
      <trkpt lat="44.44105" lon="5.15188">
        <ele>924.3</ele>
        <time>2022-10-16T09:39:50Z</time>
      </trkpt>
      <trkpt lat="44.44105" lon="5.15189">
        <ele>924.1</ele>
        <time>2022-10-16T09:39:48Z</time>
      </trkpt>
      <trkpt lat="44.44105" lon="5.1519">
        <ele>923.9</ele>
        <time>2022-10-16T09:39:47Z</time>
      </trkpt>
      <trkpt lat="44.44106" lon="5.15191">
        <ele>924.2</ele>
        <time>2022-10-16T09:39:46Z</time>
      </trkpt>
      <trkpt lat="44.44106" lon="5.15192">
        <ele>924</ele>
        <time>2022-10-16T09:39:45Z</time>
      </trkpt>
      <trkpt lat="44.44107" lon="5.15193">
        <ele>924.3</ele>
        <time>2022-10-16T09:39:43Z</time>
      </trkpt>
      <trkpt lat="44.44108" lon="5.15194">
        <ele>924.6</ele>
        <time>2022-10-16T09:39:42Z</time>
      </trkpt>
      <trkpt lat="44.44108" lon="5.15195">
        <ele>924.4</ele>
        <time>2022-10-16T09:39:41Z</time>
      </trkpt>
      <trkpt lat="44.44109" lon="5.15196">
        <ele>924.6</ele>
        <time>2022-10-16T09:39:40Z</time>
      </trkpt>
      <trkpt lat="44.44109" lon="5.15197">
        <ele>924.3</ele>
        <time>2022-10-16T09:39:39Z</time>
      </trkpt>
      <trkpt lat="44.4411" lon="5.15197">
        <ele>924.8</ele>
        <time>2022-10-16T09:39:38Z</time>
      </trkpt>
      <trkpt lat="44.4411" lon="5.15198">
        <ele>924.5</ele>
        <time>2022-10-16T09:39:37Z</time>
      </trkpt>
      <trkpt lat="44.4411" lon="5.15199">
        <ele>924.3</ele>
        <time>2022-10-16T09:39:36Z</time>
      </trkpt>
      <trkpt lat="44.4411" lon="5.152">
        <ele>924</ele>
        <time>2022-10-16T09:39:35Z</time>
      </trkpt>
      <trkpt lat="44.44111" lon="5.15201">
        <ele>924.3</ele>
        <time>2022-10-16T09:39:34Z</time>
      </trkpt>
      <trkpt lat="44.44111" lon="5.15202">
        <ele>924</ele>
        <time>2022-10-16T09:39:33Z</time>
      </trkpt>
      <trkpt lat="44.44111" lon="5.15203">
        <ele>923.8</ele>
        <time>2022-10-16T09:39:32Z</time>
      </trkpt>
      <trkpt lat="44.44112" lon="5.15203">
        <ele>924</ele>
        <time>2022-10-16T09:39:31Z</time>
      </trkpt>
      <trkpt lat="44.44112" lon="5.15204">
        <ele>923.7</ele>
        <time>2022-10-16T09:39:30Z</time>
      </trkpt>
      <trkpt lat="44.44113" lon="5.15205">
        <ele>923.6</ele>
        <time>2022-10-16T09:39:29Z</time>
      </trkpt>
      <trkpt lat="44.44113" lon="5.15206">
        <ele>923.4</ele>
        <time>2022-10-16T09:39:28Z</time>
      </trkpt>
      <trkpt lat="44.44113" lon="5.15207">
        <ele>923.1</ele>
        <time>2022-10-16T09:39:27Z</time>
      </trkpt>
      <trkpt lat="44.44114" lon="5.15207">
        <ele>923.3</ele>
        <time>2022-10-16T09:39:26Z</time>
      </trkpt>
      <trkpt lat="44.44115" lon="5.15208">
        <ele>923.3</ele>
        <time>2022-10-16T09:39:24Z</time>
      </trkpt>
      <trkpt lat="44.44116" lon="5.15209">
        <ele>923.2</ele>
        <time>2022-10-16T09:39:23Z</time>
      </trkpt>
      <trkpt lat="44.44116" lon="5.1521">
        <ele>923</ele>
        <time>2022-10-16T09:39:22Z</time>
      </trkpt>
      <trkpt lat="44.44117" lon="5.1521">
        <ele>923.2</ele>
        <time>2022-10-16T09:39:21Z</time>
      </trkpt>
      <trkpt lat="44.44117" lon="5.15211">
        <ele>923.1</ele>
        <time>2022-10-16T09:39:20Z</time>
      </trkpt>
      <trkpt lat="44.44118" lon="5.15211">
        <ele>923.3</ele>
        <time>2022-10-16T09:39:19Z</time>
      </trkpt>
      <trkpt lat="44.44119" lon="5.15211">
        <ele>923.5</ele>
        <time>2022-10-16T09:39:18Z</time>
      </trkpt>
      <trkpt lat="44.44119" lon="5.15212">
        <ele>923.3</ele>
        <time>2022-10-16T09:39:16Z</time>
      </trkpt>
      <trkpt lat="44.4412" lon="5.15212">
        <ele>923.5</ele>
        <time>2022-10-16T09:39:15Z</time>
      </trkpt>
      <trkpt lat="44.4412" lon="5.15213">
        <ele>923.4</ele>
        <time>2022-10-16T09:39:14Z</time>
      </trkpt>
      <trkpt lat="44.4412" lon="5.15214">
        <ele>923.2</ele>
        <time>2022-10-16T09:39:13Z</time>
      </trkpt>
      <trkpt lat="44.44121" lon="5.15214">
        <ele>923.4</ele>
        <time>2022-10-16T09:39:12Z</time>
      </trkpt>
      <trkpt lat="44.44121" lon="5.15215">
        <ele>923.3</ele>
        <time>2022-10-16T09:39:11Z</time>
      </trkpt>
      <trkpt lat="44.44121" lon="5.15216">
        <ele>923.1</ele>
        <time>2022-10-16T09:39:10Z</time>
      </trkpt>
      <trkpt lat="44.44121" lon="5.15217">
        <ele>923</ele>
        <time>2022-10-16T09:39:09Z</time>
      </trkpt>
      <trkpt lat="44.44122" lon="5.15217">
        <ele>923.3</ele>
        <time>2022-10-16T09:39:08Z</time>
      </trkpt>
      <trkpt lat="44.44122" lon="5.15218">
        <ele>923.1</ele>
        <time>2022-10-16T09:39:07Z</time>
      </trkpt>
      <trkpt lat="44.44122" lon="5.15219">
        <ele>923</ele>
        <time>2022-10-16T09:39:06Z</time>
      </trkpt>
      <trkpt lat="44.44123" lon="5.15219">
        <ele>923.3</ele>
        <time>2022-10-16T09:39:05Z</time>
      </trkpt>
      <trkpt lat="44.44123" lon="5.1522">
        <ele>923.1</ele>
        <time>2022-10-16T09:39:04Z</time>
      </trkpt>
      <trkpt lat="44.44123" lon="5.15221">
        <ele>923</ele>
        <time>2022-10-16T09:39:03Z</time>
      </trkpt>
      <trkpt lat="44.44123" lon="5.15222">
        <ele>922.9</ele>
        <time>2022-10-16T09:39:02Z</time>
      </trkpt>
      <trkpt lat="44.44123" lon="5.15223">
        <ele>922.7</ele>
        <time>2022-10-16T09:39:01Z</time>
      </trkpt>
      <trkpt lat="44.44124" lon="5.15223">
        <ele>923</ele>
        <time>2022-10-16T09:39:00Z</time>
      </trkpt>
      <trkpt lat="44.44124" lon="5.15224">
        <ele>922.7</ele>
        <time>2022-10-16T09:38:59Z</time>
      </trkpt>
      <trkpt lat="44.44125" lon="5.15224">
        <ele>923.1</ele>
        <time>2022-10-16T09:38:58Z</time>
      </trkpt>
      <trkpt lat="44.44125" lon="5.15225">
        <ele>922.8</ele>
        <time>2022-10-16T09:38:56Z</time>
      </trkpt>
      <trkpt lat="44.44126" lon="5.15226">
        <ele>923</ele>
        <time>2022-10-16T09:38:54Z</time>
      </trkpt>
      <trkpt lat="44.44127" lon="5.15227">
        <ele>923.1</ele>
        <time>2022-10-16T09:38:52Z</time>
      </trkpt>
      <trkpt lat="44.44128" lon="5.15228">
        <ele>923.3</ele>
        <time>2022-10-16T09:38:50Z</time>
      </trkpt>
      <trkpt lat="44.44128" lon="5.15229">
        <ele>923.1</ele>
        <time>2022-10-16T09:38:49Z</time>
      </trkpt>
      <trkpt lat="44.44129" lon="5.1523">
        <ele>923.3</ele>
        <time>2022-10-16T09:38:47Z</time>
      </trkpt>
      <trkpt lat="44.4413" lon="5.15231">
        <ele>923.5</ele>
        <time>2022-10-16T09:38:46Z</time>
      </trkpt>
      <trkpt lat="44.4413" lon="5.15232">
        <ele>923.3</ele>
        <time>2022-10-16T09:38:44Z</time>
      </trkpt>
      <trkpt lat="44.44131" lon="5.15233">
        <ele>923.5</ele>
        <time>2022-10-16T09:38:43Z</time>
      </trkpt>
      <trkpt lat="44.44131" lon="5.15234">
        <ele>923.3</ele>
        <time>2022-10-16T09:38:42Z</time>
      </trkpt>
      <trkpt lat="44.44131" lon="5.15235">
        <ele>923.1</ele>
        <time>2022-10-16T09:38:41Z</time>
      </trkpt>
      <trkpt lat="44.44132" lon="5.15236">
        <ele>923.4</ele>
        <time>2022-10-16T09:38:40Z</time>
      </trkpt>
      <trkpt lat="44.44132" lon="5.15237">
        <ele>923.2</ele>
        <time>2022-10-16T09:38:39Z</time>
      </trkpt>
      <trkpt lat="44.44133" lon="5.15238">
        <ele>923.5</ele>
        <time>2022-10-16T09:38:38Z</time>
      </trkpt>
      <trkpt lat="44.44133" lon="5.15239">
        <ele>923.4</ele>
        <time>2022-10-16T09:38:37Z</time>
      </trkpt>
      <trkpt lat="44.44134" lon="5.15239">
        <ele>923.9</ele>
        <time>2022-10-16T09:38:36Z</time>
      </trkpt>
      <trkpt lat="44.44134" lon="5.1524">
        <ele>923.7</ele>
        <time>2022-10-16T09:38:35Z</time>
      </trkpt>
      <trkpt lat="44.44135" lon="5.15241">
        <ele>924</ele>
        <time>2022-10-16T09:38:34Z</time>
      </trkpt>
      <trkpt lat="44.44136" lon="5.15241">
        <ele>924.5</ele>
        <time>2022-10-16T09:38:33Z</time>
      </trkpt>
      <trkpt lat="44.44136" lon="5.15242">
        <ele>924.4</ele>
        <time>2022-10-16T09:38:32Z</time>
      </trkpt>
      <trkpt lat="44.44137" lon="5.15242">
        <ele>924.9</ele>
        <time>2022-10-16T09:38:31Z</time>
      </trkpt>
      <trkpt lat="44.44137" lon="5.15243">
        <ele>924.8</ele>
        <time>2022-10-16T09:38:30Z</time>
      </trkpt>
      <trkpt lat="44.44138" lon="5.15244">
        <ele>925.2</ele>
        <time>2022-10-16T09:38:28Z</time>
      </trkpt>
      <trkpt lat="44.44139" lon="5.15245">
        <ele>925.5</ele>
        <time>2022-10-16T09:38:27Z</time>
      </trkpt>
      <trkpt lat="44.4414" lon="5.15246">
        <ele>925.4</ele>
        <time>2022-10-16T09:38:26Z</time>
      </trkpt>
      <trkpt lat="44.4414" lon="5.15247">
        <ele>925.3</ele>
        <time>2022-10-16T09:38:25Z</time>
      </trkpt>
      <trkpt lat="44.44141" lon="5.15247">
        <ele>925.3</ele>
        <time>2022-10-16T09:38:24Z</time>
      </trkpt>
      <trkpt lat="44.44141" lon="5.15248">
        <ele>925.2</ele>
        <time>2022-10-16T09:38:23Z</time>
      </trkpt>
      <trkpt lat="44.44142" lon="5.15248">
        <ele>925.2</ele>
        <time>2022-10-16T09:38:22Z</time>
      </trkpt>
      <trkpt lat="44.44142" lon="5.15249">
        <ele>925.1</ele>
        <time>2022-10-16T09:38:21Z</time>
      </trkpt>
      <trkpt lat="44.44143" lon="5.15249">
        <ele>925.1</ele>
        <time>2022-10-16T09:38:20Z</time>
      </trkpt>
      <trkpt lat="44.44143" lon="5.1525">
        <ele>925</ele>
        <time>2022-10-16T09:38:19Z</time>
      </trkpt>
      <trkpt lat="44.44144" lon="5.15251">
        <ele>924.8</ele>
        <time>2022-10-16T09:38:18Z</time>
      </trkpt>
      <trkpt lat="44.44144" lon="5.15252">
        <ele>924.6</ele>
        <time>2022-10-16T09:38:17Z</time>
      </trkpt>
      <trkpt lat="44.44145" lon="5.15252">
        <ele>924.6</ele>
        <time>2022-10-16T09:38:16Z</time>
      </trkpt>
      <trkpt lat="44.44145" lon="5.15253">
        <ele>924.4</ele>
        <time>2022-10-16T09:38:15Z</time>
      </trkpt>
      <trkpt lat="44.44146" lon="5.15253">
        <ele>924.4</ele>
        <time>2022-10-16T09:38:14Z</time>
      </trkpt>
      <trkpt lat="44.44147" lon="5.15254">
        <ele>924.2</ele>
        <time>2022-10-16T09:38:13Z</time>
      </trkpt>
      <trkpt lat="44.44148" lon="5.15254">
        <ele>924.3</ele>
        <time>2022-10-16T09:38:12Z</time>
      </trkpt>
      <trkpt lat="44.44148" lon="5.15255">
        <ele>924.1</ele>
        <time>2022-10-16T09:38:11Z</time>
      </trkpt>
      <trkpt lat="44.44149" lon="5.15255">
        <ele>924.1</ele>
        <time>2022-10-16T09:38:10Z</time>
      </trkpt>
      <trkpt lat="44.44149" lon="5.15256">
        <ele>924</ele>
        <time>2022-10-16T09:38:09Z</time>
      </trkpt>
      <trkpt lat="44.4415" lon="5.15256">
        <ele>924</ele>
        <time>2022-10-16T09:38:08Z</time>
      </trkpt>
      <trkpt lat="44.4415" lon="5.15257">
        <ele>923.8</ele>
        <time>2022-10-16T09:38:07Z</time>
      </trkpt>
      <trkpt lat="44.4415" lon="5.15258">
        <ele>923.7</ele>
        <time>2022-10-16T09:38:06Z</time>
      </trkpt>
      <trkpt lat="44.4415" lon="5.15259">
        <ele>923.5</ele>
        <time>2022-10-16T09:38:05Z</time>
      </trkpt>
      <trkpt lat="44.44151" lon="5.15259">
        <ele>923.6</ele>
        <time>2022-10-16T09:38:04Z</time>
      </trkpt>
      <trkpt lat="44.44151" lon="5.1526">
        <ele>923.4</ele>
        <time>2022-10-16T09:38:03Z</time>
      </trkpt>
      <trkpt lat="44.44151" lon="5.15261">
        <ele>923.3</ele>
        <time>2022-10-16T09:38:02Z</time>
      </trkpt>
      <trkpt lat="44.44152" lon="5.15261">
        <ele>923.3</ele>
        <time>2022-10-16T09:38:01Z</time>
      </trkpt>
      <trkpt lat="44.44152" lon="5.15262">
        <ele>923.2</ele>
        <time>2022-10-16T09:38:00Z</time>
      </trkpt>
      <trkpt lat="44.44152" lon="5.15263">
        <ele>923</ele>
        <time>2022-10-16T09:37:59Z</time>
      </trkpt>
      <trkpt lat="44.44153" lon="5.15264">
        <ele>923</ele>
        <time>2022-10-16T09:37:57Z</time>
      </trkpt>
      <trkpt lat="44.44154" lon="5.15265">
        <ele>923</ele>
        <time>2022-10-16T09:37:56Z</time>
      </trkpt>
      <trkpt lat="44.44155" lon="5.15265">
        <ele>923.1</ele>
        <time>2022-10-16T09:37:55Z</time>
      </trkpt>
      <trkpt lat="44.44155" lon="5.15266">
        <ele>923</ele>
        <time>2022-10-16T09:37:54Z</time>
      </trkpt>
      <trkpt lat="44.44156" lon="5.15267">
        <ele>923</ele>
        <time>2022-10-16T09:37:53Z</time>
      </trkpt>
      <trkpt lat="44.44157" lon="5.15268">
        <ele>923</ele>
        <time>2022-10-16T09:37:52Z</time>
      </trkpt>
      <trkpt lat="44.44157" lon="5.15269">
        <ele>922.9</ele>
        <time>2022-10-16T09:37:51Z</time>
      </trkpt>
      <trkpt lat="44.44158" lon="5.15269">
        <ele>923</ele>
        <time>2022-10-16T09:37:50Z</time>
      </trkpt>
      <trkpt lat="44.44159" lon="5.1527">
        <ele>923.1</ele>
        <time>2022-10-16T09:37:49Z</time>
      </trkpt>
      <trkpt lat="44.44159" lon="5.15271">
        <ele>923</ele>
        <time>2022-10-16T09:37:48Z</time>
      </trkpt>
      <trkpt lat="44.4416" lon="5.15272">
        <ele>923.1</ele>
        <time>2022-10-16T09:37:47Z</time>
      </trkpt>
      <trkpt lat="44.4416" lon="5.15273">
        <ele>923</ele>
        <time>2022-10-16T09:37:46Z</time>
      </trkpt>
      <trkpt lat="44.44161" lon="5.15274">
        <ele>923.1</ele>
        <time>2022-10-16T09:37:45Z</time>
      </trkpt>
      <trkpt lat="44.44161" lon="5.15275">
        <ele>923</ele>
        <time>2022-10-16T09:37:44Z</time>
      </trkpt>
      <trkpt lat="44.44162" lon="5.15276">
        <ele>923.1</ele>
        <time>2022-10-16T09:37:43Z</time>
      </trkpt>
      <trkpt lat="44.44162" lon="5.15277">
        <ele>923</ele>
        <time>2022-10-16T09:37:41Z</time>
      </trkpt>
      <trkpt lat="44.44163" lon="5.15278">
        <ele>923.2</ele>
        <time>2022-10-16T09:37:40Z</time>
      </trkpt>
      <trkpt lat="44.44164" lon="5.15279">
        <ele>923.2</ele>
        <time>2022-10-16T09:37:39Z</time>
      </trkpt>
      <trkpt lat="44.44164" lon="5.1528">
        <ele>923.1</ele>
        <time>2022-10-16T09:37:37Z</time>
      </trkpt>
      <trkpt lat="44.44165" lon="5.15281">
        <ele>923.1</ele>
        <time>2022-10-16T09:37:35Z</time>
      </trkpt>
      <trkpt lat="44.44166" lon="5.15282">
        <ele>923.2</ele>
        <time>2022-10-16T09:37:33Z</time>
      </trkpt>
      <trkpt lat="44.44167" lon="5.15283">
        <ele>923.2</ele>
        <time>2022-10-16T09:37:32Z</time>
      </trkpt>
      <trkpt lat="44.44167" lon="5.15284">
        <ele>923.1</ele>
        <time>2022-10-16T09:37:31Z</time>
      </trkpt>
      <trkpt lat="44.44167" lon="5.15285">
        <ele>922.9</ele>
        <time>2022-10-16T09:37:30Z</time>
      </trkpt>
      <trkpt lat="44.44168" lon="5.15285">
        <ele>922.9</ele>
        <time>2022-10-16T09:37:29Z</time>
      </trkpt>
      <trkpt lat="44.44168" lon="5.15286">
        <ele>922.8</ele>
        <time>2022-10-16T09:37:28Z</time>
      </trkpt>
      <trkpt lat="44.44169" lon="5.15287">
        <ele>922.6</ele>
        <time>2022-10-16T09:37:27Z</time>
      </trkpt>
      <trkpt lat="44.44169" lon="5.15288">
        <ele>922.5</ele>
        <time>2022-10-16T09:37:26Z</time>
      </trkpt>
      <trkpt lat="44.4417" lon="5.15289">
        <ele>922.3</ele>
        <time>2022-10-16T09:37:25Z</time>
      </trkpt>
      <trkpt lat="44.4417" lon="5.1529">
        <ele>922.2</ele>
        <time>2022-10-16T09:37:24Z</time>
      </trkpt>
      <trkpt lat="44.44171" lon="5.1529">
        <ele>922.2</ele>
        <time>2022-10-16T09:37:23Z</time>
      </trkpt>
      <trkpt lat="44.44171" lon="5.15291">
        <ele>922.1</ele>
        <time>2022-10-16T09:37:22Z</time>
      </trkpt>
      <trkpt lat="44.44172" lon="5.15292">
        <ele>922</ele>
        <time>2022-10-16T09:37:21Z</time>
      </trkpt>
      <trkpt lat="44.44172" lon="5.15293">
        <ele>921.9</ele>
        <time>2022-10-16T09:37:20Z</time>
      </trkpt>
      <trkpt lat="44.44173" lon="5.15294">
        <ele>921.8</ele>
        <time>2022-10-16T09:37:18Z</time>
      </trkpt>
      <trkpt lat="44.44174" lon="5.15295">
        <ele>921.7</ele>
        <time>2022-10-16T09:37:17Z</time>
      </trkpt>
      <trkpt lat="44.44174" lon="5.15296">
        <ele>921.6</ele>
        <time>2022-10-16T09:37:16Z</time>
      </trkpt>
      <trkpt lat="44.44175" lon="5.15296">
        <ele>921.7</ele>
        <time>2022-10-16T09:37:15Z</time>
      </trkpt>
      <trkpt lat="44.44176" lon="5.15297">
        <ele>921.6</ele>
        <time>2022-10-16T09:37:14Z</time>
      </trkpt>
      <trkpt lat="44.44176" lon="5.15298">
        <ele>921.5</ele>
        <time>2022-10-16T09:37:13Z</time>
      </trkpt>
      <trkpt lat="44.44177" lon="5.15298">
        <ele>921.6</ele>
        <time>2022-10-16T09:37:12Z</time>
      </trkpt>
      <trkpt lat="44.44178" lon="5.15299">
        <ele>921.6</ele>
        <time>2022-10-16T09:37:10Z</time>
      </trkpt>
      <trkpt lat="44.44179" lon="5.153">
        <ele>921.6</ele>
        <time>2022-10-16T09:37:09Z</time>
      </trkpt>
      <trkpt lat="44.4418" lon="5.15301">
        <ele>921.6</ele>
        <time>2022-10-16T09:37:08Z</time>
      </trkpt>
      <trkpt lat="44.4418" lon="5.15302">
        <ele>921.6</ele>
        <time>2022-10-16T09:37:07Z</time>
      </trkpt>
      <trkpt lat="44.44181" lon="5.15303">
        <ele>921.6</ele>
        <time>2022-10-16T09:37:05Z</time>
      </trkpt>
      <trkpt lat="44.44181" lon="5.15304">
        <ele>921.6</ele>
        <time>2022-10-16T09:37:04Z</time>
      </trkpt>
      <trkpt lat="44.44182" lon="5.15305">
        <ele>921.7</ele>
        <time>2022-10-16T09:37:03Z</time>
      </trkpt>
      <trkpt lat="44.44182" lon="5.15306">
        <ele>921.6</ele>
        <time>2022-10-16T09:37:02Z</time>
      </trkpt>
      <trkpt lat="44.44183" lon="5.15307">
        <ele>921.6</ele>
        <time>2022-10-16T09:37:00Z</time>
      </trkpt>
      <trkpt lat="44.44184" lon="5.15308">
        <ele>921.6</ele>
        <time>2022-10-16T09:36:59Z</time>
      </trkpt>
      <trkpt lat="44.44184" lon="5.15309">
        <ele>921.4</ele>
        <time>2022-10-16T09:36:58Z</time>
      </trkpt>
      <trkpt lat="44.44185" lon="5.15309">
        <ele>921.6</ele>
        <time>2022-10-16T09:36:57Z</time>
      </trkpt>
      <trkpt lat="44.44185" lon="5.1531">
        <ele>921.4</ele>
        <time>2022-10-16T09:36:56Z</time>
      </trkpt>
      <trkpt lat="44.44186" lon="5.15311">
        <ele>921.5</ele>
        <time>2022-10-16T09:36:55Z</time>
      </trkpt>
      <trkpt lat="44.44186" lon="5.15312">
        <ele>921.3</ele>
        <time>2022-10-16T09:36:54Z</time>
      </trkpt>
      <trkpt lat="44.44187" lon="5.15313">
        <ele>921.4</ele>
        <time>2022-10-16T09:36:53Z</time>
      </trkpt>
      <trkpt lat="44.44188" lon="5.15314">
        <ele>921.4</ele>
        <time>2022-10-16T09:36:51Z</time>
      </trkpt>
      <trkpt lat="44.44189" lon="5.15315">
        <ele>921.5</ele>
        <time>2022-10-16T09:36:50Z</time>
      </trkpt>
      <trkpt lat="44.44189" lon="5.15316">
        <ele>921.4</ele>
        <time>2022-10-16T09:36:49Z</time>
      </trkpt>
      <trkpt lat="44.4419" lon="5.15316">
        <ele>921.5</ele>
        <time>2022-10-16T09:36:48Z</time>
      </trkpt>
      <trkpt lat="44.44191" lon="5.15317">
        <ele>921.6</ele>
        <time>2022-10-16T09:36:47Z</time>
      </trkpt>
      <trkpt lat="44.44191" lon="5.15318">
        <ele>921.5</ele>
        <time>2022-10-16T09:36:46Z</time>
      </trkpt>
      <trkpt lat="44.44192" lon="5.1532">
        <ele>921.5</ele>
        <time>2022-10-16T09:36:45Z</time>
      </trkpt>
      <trkpt lat="44.44193" lon="5.15322">
        <ele>921.5</ele>
        <time>2022-10-16T09:35:58Z</time>
      </trkpt>
      <trkpt lat="44.44193" lon="5.15323">
        <ele>921.5</ele>
        <time>2022-10-16T09:35:57Z</time>
      </trkpt>
      <trkpt lat="44.44193" lon="5.15324">
        <ele>921.4</ele>
        <time>2022-10-16T09:35:56Z</time>
      </trkpt>
      <trkpt lat="44.44194" lon="5.15325">
        <ele>921.5</ele>
        <time>2022-10-16T09:35:55Z</time>
      </trkpt>
      <trkpt lat="44.44194" lon="5.15326">
        <ele>921.4</ele>
        <time>2022-10-16T09:35:54Z</time>
      </trkpt>
      <trkpt lat="44.44194" lon="5.15327">
        <ele>921.4</ele>
        <time>2022-10-16T09:35:53Z</time>
      </trkpt>
      <trkpt lat="44.44194" lon="5.15328">
        <ele>921.3</ele>
        <time>2022-10-16T09:35:52Z</time>
      </trkpt>
      <trkpt lat="44.44194" lon="5.15329">
        <ele>921.2</ele>
        <time>2022-10-16T09:35:50Z</time>
      </trkpt>
      <trkpt lat="44.44195" lon="5.1533">
        <ele>921.2</ele>
        <time>2022-10-16T09:35:49Z</time>
      </trkpt>
      <trkpt lat="44.44195" lon="5.15331">
        <ele>921.1</ele>
        <time>2022-10-16T09:35:48Z</time>
      </trkpt>
      <trkpt lat="44.44195" lon="5.15332">
        <ele>921.1</ele>
        <time>2022-10-16T09:35:47Z</time>
      </trkpt>
      <trkpt lat="44.44196" lon="5.15333">
        <ele>921</ele>
        <time>2022-10-16T09:35:46Z</time>
      </trkpt>
      <trkpt lat="44.44196" lon="5.15334">
        <ele>920.9</ele>
        <time>2022-10-16T09:35:45Z</time>
      </trkpt>
      <trkpt lat="44.44196" lon="5.15336">
        <ele>920.7</ele>
        <time>2022-10-16T09:35:44Z</time>
      </trkpt>
      <trkpt lat="44.44197" lon="5.15337">
        <ele>920.5</ele>
        <time>2022-10-16T09:35:43Z</time>
      </trkpt>
      <trkpt lat="44.44197" lon="5.15338">
        <ele>920.5</ele>
        <time>2022-10-16T09:35:42Z</time>
      </trkpt>
      <trkpt lat="44.44198" lon="5.15338">
        <ele>920.4</ele>
        <time>2022-10-16T09:35:41Z</time>
      </trkpt>
      <trkpt lat="44.44198" lon="5.15339">
        <ele>920.3</ele>
        <time>2022-10-16T09:35:40Z</time>
      </trkpt>
      <trkpt lat="44.44198" lon="5.1534">
        <ele>920.2</ele>
        <time>2022-10-16T09:35:39Z</time>
      </trkpt>
      <trkpt lat="44.44199" lon="5.15341">
        <ele>920.1</ele>
        <time>2022-10-16T09:35:38Z</time>
      </trkpt>
      <trkpt lat="44.44199" lon="5.15342">
        <ele>920.1</ele>
        <time>2022-10-16T09:35:37Z</time>
      </trkpt>
      <trkpt lat="44.442" lon="5.15343">
        <ele>920</ele>
        <time>2022-10-16T09:35:36Z</time>
      </trkpt>
      <trkpt lat="44.44201" lon="5.15343">
        <ele>920</ele>
        <time>2022-10-16T09:35:35Z</time>
      </trkpt>
      <trkpt lat="44.44201" lon="5.15344">
        <ele>919.9</ele>
        <time>2022-10-16T09:35:34Z</time>
      </trkpt>
      <trkpt lat="44.44202" lon="5.15345">
        <ele>919.8</ele>
        <time>2022-10-16T09:35:32Z</time>
      </trkpt>
      <trkpt lat="44.44203" lon="5.15346">
        <ele>919.7</ele>
        <time>2022-10-16T09:35:30Z</time>
      </trkpt>
      <trkpt lat="44.44203" lon="5.15347">
        <ele>919.7</ele>
        <time>2022-10-16T09:35:29Z</time>
      </trkpt>
      <trkpt lat="44.44204" lon="5.15347">
        <ele>919.7</ele>
        <time>2022-10-16T09:35:27Z</time>
      </trkpt>
      <trkpt lat="44.44204" lon="5.15348">
        <ele>919.6</ele>
        <time>2022-10-16T09:35:26Z</time>
      </trkpt>
      <trkpt lat="44.44205" lon="5.15348">
        <ele>919.6</ele>
        <time>2022-10-16T09:35:25Z</time>
      </trkpt>
      <trkpt lat="44.44205" lon="5.15349">
        <ele>919.6</ele>
        <time>2022-10-16T09:35:24Z</time>
      </trkpt>
      <trkpt lat="44.44205" lon="5.1535">
        <ele>919.5</ele>
        <time>2022-10-16T09:35:23Z</time>
      </trkpt>
      <trkpt lat="44.44206" lon="5.15351">
        <ele>919.5</ele>
        <time>2022-10-16T09:35:22Z</time>
      </trkpt>
      <trkpt lat="44.44207" lon="5.15353">
        <ele>919.4</ele>
        <time>2022-10-16T09:35:08Z</time>
      </trkpt>
      <trkpt lat="44.44207" lon="5.15354">
        <ele>919.3</ele>
        <time>2022-10-16T09:35:07Z</time>
      </trkpt>
      <trkpt lat="44.44207" lon="5.15355">
        <ele>919.3</ele>
        <time>2022-10-16T09:35:06Z</time>
      </trkpt>
      <trkpt lat="44.44207" lon="5.15356">
        <ele>919.2</ele>
        <time>2022-10-16T09:35:05Z</time>
      </trkpt>
      <trkpt lat="44.44208" lon="5.15357">
        <ele>919.2</ele>
        <time>2022-10-16T09:35:04Z</time>
      </trkpt>
      <trkpt lat="44.44208" lon="5.15358">
        <ele>919.1</ele>
        <time>2022-10-16T09:35:03Z</time>
      </trkpt>
      <trkpt lat="44.44209" lon="5.15359">
        <ele>919.2</ele>
        <time>2022-10-16T09:35:01Z</time>
      </trkpt>
      <trkpt lat="44.44209" lon="5.1536">
        <ele>919.1</ele>
        <time>2022-10-16T09:35:00Z</time>
      </trkpt>
      <trkpt lat="44.4421" lon="5.15361">
        <ele>919.1</ele>
        <time>2022-10-16T09:34:58Z</time>
      </trkpt>
      <trkpt lat="44.44211" lon="5.15362">
        <ele>919.1</ele>
        <time>2022-10-16T09:34:57Z</time>
      </trkpt>
      <trkpt lat="44.44211" lon="5.15363">
        <ele>918.9</ele>
        <time>2022-10-16T09:34:56Z</time>
      </trkpt>
      <trkpt lat="44.44212" lon="5.15363">
        <ele>919</ele>
        <time>2022-10-16T09:34:55Z</time>
      </trkpt>
      <trkpt lat="44.44213" lon="5.15364">
        <ele>919</ele>
        <time>2022-10-16T09:34:54Z</time>
      </trkpt>
      <trkpt lat="44.44214" lon="5.15365">
        <ele>919</ele>
        <time>2022-10-16T09:34:37Z</time>
      </trkpt>
      <trkpt lat="44.44214" lon="5.15366">
        <ele>918.8</ele>
        <time>2022-10-16T09:34:36Z</time>
      </trkpt>
      <trkpt lat="44.44215" lon="5.15366">
        <ele>918.9</ele>
        <time>2022-10-16T09:34:35Z</time>
      </trkpt>
      <trkpt lat="44.44215" lon="5.15367">
        <ele>918.8</ele>
        <time>2022-10-16T09:34:34Z</time>
      </trkpt>
      <trkpt lat="44.44216" lon="5.15368">
        <ele>918.8</ele>
        <time>2022-10-16T09:34:33Z</time>
      </trkpt>
      <trkpt lat="44.44217" lon="5.15368">
        <ele>918.9</ele>
        <time>2022-10-16T09:34:32Z</time>
      </trkpt>
      <trkpt lat="44.44217" lon="5.15369">
        <ele>918.8</ele>
        <time>2022-10-16T09:34:31Z</time>
      </trkpt>
      <trkpt lat="44.44218" lon="5.15369">
        <ele>919</ele>
        <time>2022-10-16T09:34:30Z</time>
      </trkpt>
      <trkpt lat="44.44218" lon="5.1537">
        <ele>918.9</ele>
        <time>2022-10-16T09:34:29Z</time>
      </trkpt>
      <trkpt lat="44.44219" lon="5.15371">
        <ele>918.9</ele>
        <time>2022-10-16T09:34:28Z</time>
      </trkpt>
      <trkpt lat="44.44219" lon="5.15372">
        <ele>918.8</ele>
        <time>2022-10-16T09:34:27Z</time>
      </trkpt>
      <trkpt lat="44.4422" lon="5.15372">
        <ele>918.9</ele>
        <time>2022-10-16T09:34:26Z</time>
      </trkpt>
      <trkpt lat="44.4422" lon="5.15373">
        <ele>918.8</ele>
        <time>2022-10-16T09:34:25Z</time>
      </trkpt>
      <trkpt lat="44.4422" lon="5.15374">
        <ele>918.8</ele>
        <time>2022-10-16T09:34:24Z</time>
      </trkpt>
      <trkpt lat="44.4422" lon="5.15375">
        <ele>918.7</ele>
        <time>2022-10-16T09:34:23Z</time>
      </trkpt>
      <trkpt lat="44.44221" lon="5.15376">
        <ele>918.7</ele>
        <time>2022-10-16T09:34:22Z</time>
      </trkpt>
      <trkpt lat="44.44221" lon="5.15377">
        <ele>918.7</ele>
        <time>2022-10-16T09:34:21Z</time>
      </trkpt>
      <trkpt lat="44.44222" lon="5.15378">
        <ele>918.7</ele>
        <time>2022-10-16T09:34:20Z</time>
      </trkpt>
      <trkpt lat="44.44222" lon="5.15379">
        <ele>918.7</ele>
        <time>2022-10-16T09:34:19Z</time>
      </trkpt>
      <trkpt lat="44.44222" lon="5.1538">
        <ele>918.6</ele>
        <time>2022-10-16T09:34:18Z</time>
      </trkpt>
      <trkpt lat="44.44222" lon="5.15381">
        <ele>918.5</ele>
        <time>2022-10-16T09:34:17Z</time>
      </trkpt>
      <trkpt lat="44.44223" lon="5.15381">
        <ele>918.5</ele>
        <time>2022-10-16T09:34:16Z</time>
      </trkpt>
      <trkpt lat="44.44223" lon="5.15382">
        <ele>918.4</ele>
        <time>2022-10-16T09:34:15Z</time>
      </trkpt>
      <trkpt lat="44.44223" lon="5.15383">
        <ele>918.4</ele>
        <time>2022-10-16T09:34:14Z</time>
      </trkpt>
      <trkpt lat="44.44224" lon="5.15384">
        <ele>918.3</ele>
        <time>2022-10-16T09:34:13Z</time>
      </trkpt>
      <trkpt lat="44.44224" lon="5.15385">
        <ele>918.2</ele>
        <time>2022-10-16T09:34:12Z</time>
      </trkpt>
      <trkpt lat="44.44224" lon="5.15386">
        <ele>918.1</ele>
        <time>2022-10-16T09:34:11Z</time>
      </trkpt>
      <trkpt lat="44.44225" lon="5.15387">
        <ele>918</ele>
        <time>2022-10-16T09:34:10Z</time>
      </trkpt>
      <trkpt lat="44.44225" lon="5.15388">
        <ele>918</ele>
        <time>2022-10-16T09:34:09Z</time>
      </trkpt>
      <trkpt lat="44.44226" lon="5.15388">
        <ele>917.9</ele>
        <time>2022-10-16T09:34:08Z</time>
      </trkpt>
      <trkpt lat="44.44226" lon="5.15389">
        <ele>917.9</ele>
        <time>2022-10-16T09:34:07Z</time>
      </trkpt>
      <trkpt lat="44.44227" lon="5.15389">
        <ele>917.8</ele>
        <time>2022-10-16T09:34:06Z</time>
      </trkpt>
      <trkpt lat="44.44227" lon="5.1539">
        <ele>917.7</ele>
        <time>2022-10-16T09:34:05Z</time>
      </trkpt>
      <trkpt lat="44.44228" lon="5.1539">
        <ele>917.7</ele>
        <time>2022-10-16T09:34:04Z</time>
      </trkpt>
      <trkpt lat="44.44228" lon="5.15391">
        <ele>917.6</ele>
        <time>2022-10-16T09:34:03Z</time>
      </trkpt>
      <trkpt lat="44.44229" lon="5.15392">
        <ele>917.5</ele>
        <time>2022-10-16T09:34:01Z</time>
      </trkpt>
      <trkpt lat="44.4423" lon="5.15393">
        <ele>917.4</ele>
        <time>2022-10-16T09:33:59Z</time>
      </trkpt>
      <trkpt lat="44.44231" lon="5.15394">
        <ele>917.4</ele>
        <time>2022-10-16T09:33:58Z</time>
      </trkpt>
      <trkpt lat="44.44232" lon="5.15394">
        <ele>917.4</ele>
        <time>2022-10-16T09:33:57Z</time>
      </trkpt>
      <trkpt lat="44.44232" lon="5.15395">
        <ele>917.3</ele>
        <time>2022-10-16T09:33:56Z</time>
      </trkpt>
      <trkpt lat="44.44233" lon="5.15395">
        <ele>917.3</ele>
        <time>2022-10-16T09:33:55Z</time>
      </trkpt>
      <trkpt lat="44.44234" lon="5.15396">
        <ele>917.2</ele>
        <time>2022-10-16T09:33:54Z</time>
      </trkpt>
      <trkpt lat="44.44234" lon="5.15397">
        <ele>917.2</ele>
        <time>2022-10-16T09:33:52Z</time>
      </trkpt>
      <trkpt lat="44.44235" lon="5.15398">
        <ele>917.2</ele>
        <time>2022-10-16T09:33:51Z</time>
      </trkpt>
      <trkpt lat="44.44235" lon="5.15399">
        <ele>917.1</ele>
        <time>2022-10-16T09:33:50Z</time>
      </trkpt>
      <trkpt lat="44.44236" lon="5.154">
        <ele>917.1</ele>
        <time>2022-10-16T09:33:49Z</time>
      </trkpt>
      <trkpt lat="44.44236" lon="5.15401">
        <ele>917.1</ele>
        <time>2022-10-16T09:33:48Z</time>
      </trkpt>
      <trkpt lat="44.44237" lon="5.15402">
        <ele>917.1</ele>
        <time>2022-10-16T09:33:47Z</time>
      </trkpt>
      <trkpt lat="44.44237" lon="5.15403">
        <ele>917</ele>
        <time>2022-10-16T09:33:45Z</time>
      </trkpt>
      <trkpt lat="44.44238" lon="5.15404">
        <ele>917</ele>
        <time>2022-10-16T09:33:44Z</time>
      </trkpt>
      <trkpt lat="44.44238" lon="5.15405">
        <ele>917</ele>
        <time>2022-10-16T09:33:43Z</time>
      </trkpt>
      <trkpt lat="44.44238" lon="5.15407">
        <ele>917</ele>
        <time>2022-10-16T09:33:42Z</time>
      </trkpt>
      <trkpt lat="44.44238" lon="5.15409">
        <ele>916.9</ele>
        <time>2022-10-16T09:33:29Z</time>
      </trkpt>
      <trkpt lat="44.44238" lon="5.1541">
        <ele>916.9</ele>
        <time>2022-10-16T09:33:28Z</time>
      </trkpt>
      <trkpt lat="44.44238" lon="5.15411">
        <ele>916.9</ele>
        <time>2022-10-16T09:33:27Z</time>
      </trkpt>
      <trkpt lat="44.44238" lon="5.15412">
        <ele>916.8</ele>
        <time>2022-10-16T09:33:26Z</time>
      </trkpt>
      <trkpt lat="44.44239" lon="5.15412">
        <ele>916.9</ele>
        <time>2022-10-16T09:33:25Z</time>
      </trkpt>
      <trkpt lat="44.44239" lon="5.15413">
        <ele>916.9</ele>
        <time>2022-10-16T09:33:24Z</time>
      </trkpt>
      <trkpt lat="44.4424" lon="5.15413">
        <ele>917</ele>
        <time>2022-10-16T09:33:23Z</time>
      </trkpt>
      <trkpt lat="44.44241" lon="5.15414">
        <ele>917.1</ele>
        <time>2022-10-16T09:33:22Z</time>
      </trkpt>
      <trkpt lat="44.44241" lon="5.15415">
        <ele>917</ele>
        <time>2022-10-16T09:33:21Z</time>
      </trkpt>
      <trkpt lat="44.44242" lon="5.15415">
        <ele>917.1</ele>
        <time>2022-10-16T09:33:20Z</time>
      </trkpt>
      <trkpt lat="44.44242" lon="5.15416">
        <ele>917.1</ele>
        <time>2022-10-16T09:33:19Z</time>
      </trkpt>
      <trkpt lat="44.44243" lon="5.15417">
        <ele>917.2</ele>
        <time>2022-10-16T09:33:18Z</time>
      </trkpt>
      <trkpt lat="44.44243" lon="5.15418">
        <ele>917.1</ele>
        <time>2022-10-16T09:33:17Z</time>
      </trkpt>
      <trkpt lat="44.44243" lon="5.15419">
        <ele>917</ele>
        <time>2022-10-16T09:33:16Z</time>
      </trkpt>
      <trkpt lat="44.44243" lon="5.1542">
        <ele>916.9</ele>
        <time>2022-10-16T09:33:15Z</time>
      </trkpt>
      <trkpt lat="44.44243" lon="5.15421">
        <ele>916.8</ele>
        <time>2022-10-16T09:33:14Z</time>
      </trkpt>
      <trkpt lat="44.44244" lon="5.15422">
        <ele>916.8</ele>
        <time>2022-10-16T09:33:13Z</time>
      </trkpt>
      <trkpt lat="44.44244" lon="5.15423">
        <ele>916.7</ele>
        <time>2022-10-16T09:33:12Z</time>
      </trkpt>
      <trkpt lat="44.44244" lon="5.15424">
        <ele>916.6</ele>
        <time>2022-10-16T09:33:11Z</time>
      </trkpt>
      <trkpt lat="44.44244" lon="5.15425">
        <ele>916.5</ele>
        <time>2022-10-16T09:33:10Z</time>
      </trkpt>
      <trkpt lat="44.44245" lon="5.15426">
        <ele>916.5</ele>
        <time>2022-10-16T09:33:08Z</time>
      </trkpt>
      <trkpt lat="44.44246" lon="5.15427">
        <ele>916.6</ele>
        <time>2022-10-16T09:33:07Z</time>
      </trkpt>
      <trkpt lat="44.44246" lon="5.15428">
        <ele>916.5</ele>
        <time>2022-10-16T09:33:06Z</time>
      </trkpt>
      <trkpt lat="44.44246" lon="5.15429">
        <ele>916.4</ele>
        <time>2022-10-16T09:33:05Z</time>
      </trkpt>
      <trkpt lat="44.44247" lon="5.1543">
        <ele>916.5</ele>
        <time>2022-10-16T09:33:03Z</time>
      </trkpt>
      <trkpt lat="44.44248" lon="5.15431">
        <ele>916.6</ele>
        <time>2022-10-16T09:33:02Z</time>
      </trkpt>
      <trkpt lat="44.44248" lon="5.15432">
        <ele>916.5</ele>
        <time>2022-10-16T09:33:01Z</time>
      </trkpt>
      <trkpt lat="44.44249" lon="5.15433">
        <ele>916.6</ele>
        <time>2022-10-16T09:32:59Z</time>
      </trkpt>
      <trkpt lat="44.4425" lon="5.15434">
        <ele>916.8</ele>
        <time>2022-10-16T09:32:58Z</time>
      </trkpt>
      <trkpt lat="44.44251" lon="5.15435">
        <ele>916.6</ele>
        <time>2022-10-16T09:32:57Z</time>
      </trkpt>
      <trkpt lat="44.44251" lon="5.15436">
        <ele>916.6</ele>
        <time>2022-10-16T09:32:56Z</time>
      </trkpt>
      <trkpt lat="44.44252" lon="5.15436">
        <ele>916.5</ele>
        <time>2022-10-16T09:32:55Z</time>
      </trkpt>
      <trkpt lat="44.44252" lon="5.15437">
        <ele>916.5</ele>
        <time>2022-10-16T09:32:54Z</time>
      </trkpt>
      <trkpt lat="44.44253" lon="5.15438">
        <ele>916.4</ele>
        <time>2022-10-16T09:32:52Z</time>
      </trkpt>
      <trkpt lat="44.44254" lon="5.15439">
        <ele>916.3</ele>
        <time>2022-10-16T09:32:51Z</time>
      </trkpt>
      <trkpt lat="44.44254" lon="5.1544">
        <ele>916.2</ele>
        <time>2022-10-16T09:32:50Z</time>
      </trkpt>
      <trkpt lat="44.44255" lon="5.15441">
        <ele>916.2</ele>
        <time>2022-10-16T09:32:49Z</time>
      </trkpt>
      <trkpt lat="44.44255" lon="5.15442">
        <ele>916.1</ele>
        <time>2022-10-16T09:32:48Z</time>
      </trkpt>
      <trkpt lat="44.44256" lon="5.15442">
        <ele>916.1</ele>
        <time>2022-10-16T09:32:47Z</time>
      </trkpt>
      <trkpt lat="44.44257" lon="5.15443">
        <ele>916.1</ele>
        <time>2022-10-16T09:32:46Z</time>
      </trkpt>
      <trkpt lat="44.44257" lon="5.15444">
        <ele>916</ele>
        <time>2022-10-16T09:32:45Z</time>
      </trkpt>
      <trkpt lat="44.44258" lon="5.15444">
        <ele>916</ele>
        <time>2022-10-16T09:32:44Z</time>
      </trkpt>
      <trkpt lat="44.44258" lon="5.15445">
        <ele>915.9</ele>
        <time>2022-10-16T09:32:43Z</time>
      </trkpt>
      <trkpt lat="44.44259" lon="5.15446">
        <ele>915.8</ele>
        <time>2022-10-16T09:32:41Z</time>
      </trkpt>
      <trkpt lat="44.4426" lon="5.15447">
        <ele>915.7</ele>
        <time>2022-10-16T09:32:40Z</time>
      </trkpt>
      <trkpt lat="44.44261" lon="5.15448">
        <ele>915.6</ele>
        <time>2022-10-16T09:32:38Z</time>
      </trkpt>
      <trkpt lat="44.44262" lon="5.15449">
        <ele>915.5</ele>
        <time>2022-10-16T09:32:37Z</time>
      </trkpt>
      <trkpt lat="44.44263" lon="5.1545">
        <ele>915.4</ele>
        <time>2022-10-16T09:32:36Z</time>
      </trkpt>
      <trkpt lat="44.44263" lon="5.15451">
        <ele>915.3</ele>
        <time>2022-10-16T09:32:35Z</time>
      </trkpt>
      <trkpt lat="44.44264" lon="5.15452">
        <ele>915.2</ele>
        <time>2022-10-16T09:32:34Z</time>
      </trkpt>
      <trkpt lat="44.44264" lon="5.15453">
        <ele>915.1</ele>
        <time>2022-10-16T09:32:33Z</time>
      </trkpt>
      <trkpt lat="44.44265" lon="5.15454">
        <ele>915</ele>
        <time>2022-10-16T09:32:32Z</time>
      </trkpt>
      <trkpt lat="44.44265" lon="5.15455">
        <ele>914.9</ele>
        <time>2022-10-16T09:32:31Z</time>
      </trkpt>
      <trkpt lat="44.44266" lon="5.15456">
        <ele>914.9</ele>
        <time>2022-10-16T09:32:29Z</time>
      </trkpt>
      <trkpt lat="44.44266" lon="5.15457">
        <ele>914.8</ele>
        <time>2022-10-16T09:32:28Z</time>
      </trkpt>
      <trkpt lat="44.44267" lon="5.15458">
        <ele>914.8</ele>
        <time>2022-10-16T09:32:27Z</time>
      </trkpt>
      <trkpt lat="44.44268" lon="5.15459">
        <ele>914.7</ele>
        <time>2022-10-16T09:32:26Z</time>
      </trkpt>
      <trkpt lat="44.44268" lon="5.1546">
        <ele>914.7</ele>
        <time>2022-10-16T09:32:25Z</time>
      </trkpt>
      <trkpt lat="44.44269" lon="5.15461">
        <ele>914.7</ele>
        <time>2022-10-16T09:32:24Z</time>
      </trkpt>
      <trkpt lat="44.44269" lon="5.15462">
        <ele>914.6</ele>
        <time>2022-10-16T09:32:22Z</time>
      </trkpt>
      <trkpt lat="44.44269" lon="5.15463">
        <ele>914.5</ele>
        <time>2022-10-16T09:32:21Z</time>
      </trkpt>
      <trkpt lat="44.4427" lon="5.15464">
        <ele>914.5</ele>
        <time>2022-10-16T09:32:20Z</time>
      </trkpt>
      <trkpt lat="44.4427" lon="5.15466">
        <ele>914.4</ele>
        <time>2022-10-16T09:32:19Z</time>
      </trkpt>
      <trkpt lat="44.4427" lon="5.15467">
        <ele>914.3</ele>
        <time>2022-10-16T09:32:18Z</time>
      </trkpt>
      <trkpt lat="44.44271" lon="5.15468">
        <ele>914.3</ele>
        <time>2022-10-16T09:32:17Z</time>
      </trkpt>
      <trkpt lat="44.44271" lon="5.15469">
        <ele>914.3</ele>
        <time>2022-10-16T09:32:16Z</time>
      </trkpt>
      <trkpt lat="44.44272" lon="5.1547">
        <ele>914.3</ele>
        <time>2022-10-16T09:32:15Z</time>
      </trkpt>
      <trkpt lat="44.44272" lon="5.15471">
        <ele>914.2</ele>
        <time>2022-10-16T09:32:14Z</time>
      </trkpt>
      <trkpt lat="44.44273" lon="5.15472">
        <ele>914.3</ele>
        <time>2022-10-16T09:32:13Z</time>
      </trkpt>
      <trkpt lat="44.44274" lon="5.15473">
        <ele>914.4</ele>
        <time>2022-10-16T09:32:12Z</time>
      </trkpt>
      <trkpt lat="44.44275" lon="5.15475">
        <ele>914.2</ele>
        <time>2022-10-16T09:32:05Z</time>
      </trkpt>
      <trkpt lat="44.44275" lon="5.15476">
        <ele>914.1</ele>
        <time>2022-10-16T09:32:04Z</time>
      </trkpt>
      <trkpt lat="44.44276" lon="5.15477">
        <ele>914.2</ele>
        <time>2022-10-16T09:32:03Z</time>
      </trkpt>
      <trkpt lat="44.44276" lon="5.15478">
        <ele>914.1</ele>
        <time>2022-10-16T09:32:02Z</time>
      </trkpt>
      <trkpt lat="44.44277" lon="5.15479">
        <ele>914.1</ele>
        <time>2022-10-16T09:32:01Z</time>
      </trkpt>
      <trkpt lat="44.44277" lon="5.1548">
        <ele>914</ele>
        <time>2022-10-16T09:31:59Z</time>
      </trkpt>
      <trkpt lat="44.44278" lon="5.15481">
        <ele>914</ele>
        <time>2022-10-16T09:31:58Z</time>
      </trkpt>
      <trkpt lat="44.44278" lon="5.15482">
        <ele>913.9</ele>
        <time>2022-10-16T09:31:57Z</time>
      </trkpt>
      <trkpt lat="44.44279" lon="5.15483">
        <ele>913.8</ele>
        <time>2022-10-16T09:31:55Z</time>
      </trkpt>
      <trkpt lat="44.44279" lon="5.15484">
        <ele>913.7</ele>
        <time>2022-10-16T09:31:54Z</time>
      </trkpt>
      <trkpt lat="44.4428" lon="5.15485">
        <ele>913.6</ele>
        <time>2022-10-16T09:31:52Z</time>
      </trkpt>
      <trkpt lat="44.44281" lon="5.15486">
        <ele>913.5</ele>
        <time>2022-10-16T09:31:51Z</time>
      </trkpt>
      <trkpt lat="44.44282" lon="5.15486">
        <ele>913.4</ele>
        <time>2022-10-16T09:31:49Z</time>
      </trkpt>
      <trkpt lat="44.44283" lon="5.15487">
        <ele>913.3</ele>
        <time>2022-10-16T09:31:47Z</time>
      </trkpt>
      <trkpt lat="44.44284" lon="5.15488">
        <ele>913.3</ele>
        <time>2022-10-16T09:31:46Z</time>
      </trkpt>
      <trkpt lat="44.44285" lon="5.15488">
        <ele>913.3</ele>
        <time>2022-10-16T09:31:44Z</time>
      </trkpt>
      <trkpt lat="44.44286" lon="5.15489">
        <ele>913.2</ele>
        <time>2022-10-16T09:31:42Z</time>
      </trkpt>
      <trkpt lat="44.44287" lon="5.1549">
        <ele>913.1</ele>
        <time>2022-10-16T09:31:41Z</time>
      </trkpt>
      <trkpt lat="44.44288" lon="5.15491">
        <ele>913.1</ele>
        <time>2022-10-16T09:31:39Z</time>
      </trkpt>
      <trkpt lat="44.44289" lon="5.15492">
        <ele>913.1</ele>
        <time>2022-10-16T09:31:38Z</time>
      </trkpt>
      <trkpt lat="44.44289" lon="5.15493">
        <ele>913.1</ele>
        <time>2022-10-16T09:31:37Z</time>
      </trkpt>
      <trkpt lat="44.4429" lon="5.15494">
        <ele>913.1</ele>
        <time>2022-10-16T09:31:36Z</time>
      </trkpt>
      <trkpt lat="44.4429" lon="5.15495">
        <ele>913</ele>
        <time>2022-10-16T09:31:34Z</time>
      </trkpt>
      <trkpt lat="44.44291" lon="5.15496">
        <ele>913</ele>
        <time>2022-10-16T09:31:33Z</time>
      </trkpt>
      <trkpt lat="44.44291" lon="5.15497">
        <ele>913</ele>
        <time>2022-10-16T09:31:32Z</time>
      </trkpt>
      <trkpt lat="44.44292" lon="5.15497">
        <ele>913.1</ele>
        <time>2022-10-16T09:31:31Z</time>
      </trkpt>
      <trkpt lat="44.44292" lon="5.15498">
        <ele>913.1</ele>
        <time>2022-10-16T09:31:30Z</time>
      </trkpt>
      <trkpt lat="44.44293" lon="5.15499">
        <ele>913.1</ele>
        <time>2022-10-16T09:31:29Z</time>
      </trkpt>
      <trkpt lat="44.44294" lon="5.15499">
        <ele>913.2</ele>
        <time>2022-10-16T09:31:28Z</time>
      </trkpt>
      <trkpt lat="44.44294" lon="5.155">
        <ele>913.2</ele>
        <time>2022-10-16T09:31:27Z</time>
      </trkpt>
      <trkpt lat="44.44295" lon="5.155">
        <ele>913.2</ele>
        <time>2022-10-16T09:31:26Z</time>
      </trkpt>
      <trkpt lat="44.44296" lon="5.15501">
        <ele>913.1</ele>
        <time>2022-10-16T09:31:25Z</time>
      </trkpt>
      <trkpt lat="44.44297" lon="5.15501">
        <ele>913.2</ele>
        <time>2022-10-16T09:31:24Z</time>
      </trkpt>
      <trkpt lat="44.44297" lon="5.15502">
        <ele>913</ele>
        <time>2022-10-16T09:31:23Z</time>
      </trkpt>
      <trkpt lat="44.44298" lon="5.15503">
        <ele>912.9</ele>
        <time>2022-10-16T09:31:22Z</time>
      </trkpt>
      <trkpt lat="44.44298" lon="5.15504">
        <ele>912.7</ele>
        <time>2022-10-16T09:31:21Z</time>
      </trkpt>
      <trkpt lat="44.44299" lon="5.15505">
        <ele>912.6</ele>
        <time>2022-10-16T09:31:20Z</time>
      </trkpt>
      <trkpt lat="44.44299" lon="5.15506">
        <ele>912.5</ele>
        <time>2022-10-16T09:31:19Z</time>
      </trkpt>
      <trkpt lat="44.443" lon="5.15507">
        <ele>912.4</ele>
        <time>2022-10-16T09:31:18Z</time>
      </trkpt>
      <trkpt lat="44.443" lon="5.15508">
        <ele>912.2</ele>
        <time>2022-10-16T09:31:17Z</time>
      </trkpt>
      <trkpt lat="44.44301" lon="5.15509">
        <ele>912.2</ele>
        <time>2022-10-16T09:31:16Z</time>
      </trkpt>
      <trkpt lat="44.44301" lon="5.1551">
        <ele>912</ele>
        <time>2022-10-16T09:31:14Z</time>
      </trkpt>
      <trkpt lat="44.44302" lon="5.15511">
        <ele>912</ele>
        <time>2022-10-16T09:31:13Z</time>
      </trkpt>
      <trkpt lat="44.44302" lon="5.15512">
        <ele>911.8</ele>
        <time>2022-10-16T09:31:12Z</time>
      </trkpt>
      <trkpt lat="44.44303" lon="5.15513">
        <ele>911.8</ele>
        <time>2022-10-16T09:31:10Z</time>
      </trkpt>
      <trkpt lat="44.44303" lon="5.15514">
        <ele>911.6</ele>
        <time>2022-10-16T09:31:09Z</time>
      </trkpt>
      <trkpt lat="44.44304" lon="5.15515">
        <ele>911.6</ele>
        <time>2022-10-16T09:31:08Z</time>
      </trkpt>
      <trkpt lat="44.44304" lon="5.15516">
        <ele>911.5</ele>
        <time>2022-10-16T09:31:07Z</time>
      </trkpt>
      <trkpt lat="44.44304" lon="5.15517">
        <ele>911.3</ele>
        <time>2022-10-16T09:31:06Z</time>
      </trkpt>
      <trkpt lat="44.44305" lon="5.15518">
        <ele>911.3</ele>
        <time>2022-10-16T09:31:04Z</time>
      </trkpt>
      <trkpt lat="44.44306" lon="5.15519">
        <ele>911.2</ele>
        <time>2022-10-16T09:31:03Z</time>
      </trkpt>
      <trkpt lat="44.44307" lon="5.1552">
        <ele>910.9</ele>
        <time>2022-10-16T09:31:01Z</time>
      </trkpt>
      <trkpt lat="44.44308" lon="5.15521">
        <ele>910.5</ele>
        <time>2022-10-16T09:30:59Z</time>
      </trkpt>
      <trkpt lat="44.44309" lon="5.15522">
        <ele>910.2</ele>
        <time>2022-10-16T09:30:58Z</time>
      </trkpt>
      <trkpt lat="44.4431" lon="5.15523">
        <ele>909.9</ele>
        <time>2022-10-16T09:30:56Z</time>
      </trkpt>
      <trkpt lat="44.44311" lon="5.15524">
        <ele>909.7</ele>
        <time>2022-10-16T09:30:54Z</time>
      </trkpt>
      <trkpt lat="44.44312" lon="5.15525">
        <ele>909.4</ele>
        <time>2022-10-16T09:30:53Z</time>
      </trkpt>
      <trkpt lat="44.44313" lon="5.15526">
        <ele>909.1</ele>
        <time>2022-10-16T09:30:51Z</time>
      </trkpt>
      <trkpt lat="44.44314" lon="5.15527">
        <ele>908.9</ele>
        <time>2022-10-16T09:30:50Z</time>
      </trkpt>
      <trkpt lat="44.44314" lon="5.15528">
        <ele>908.7</ele>
        <time>2022-10-16T09:30:49Z</time>
      </trkpt>
      <trkpt lat="44.44315" lon="5.15528">
        <ele>908.6</ele>
        <time>2022-10-16T09:30:48Z</time>
      </trkpt>
      <trkpt lat="44.44315" lon="5.15529">
        <ele>908.3</ele>
        <time>2022-10-16T09:30:46Z</time>
      </trkpt>
      <trkpt lat="44.44316" lon="5.1553">
        <ele>907.8</ele>
        <time>2022-10-16T09:30:45Z</time>
      </trkpt>
      <trkpt lat="44.44317" lon="5.1553">
        <ele>907.7</ele>
        <time>2022-10-16T09:30:44Z</time>
      </trkpt>
      <trkpt lat="44.44317" lon="5.15531">
        <ele>907.4</ele>
        <time>2022-10-16T09:30:43Z</time>
      </trkpt>
      <trkpt lat="44.44318" lon="5.15531">
        <ele>907.3</ele>
        <time>2022-10-16T09:30:42Z</time>
      </trkpt>
      <trkpt lat="44.44319" lon="5.15531">
        <ele>907.1</ele>
        <time>2022-10-16T09:30:41Z</time>
      </trkpt>
      <trkpt lat="44.44319" lon="5.15532">
        <ele>906.8</ele>
        <time>2022-10-16T09:30:40Z</time>
      </trkpt>
      <trkpt lat="44.4432" lon="5.15532">
        <ele>906.7</ele>
        <time>2022-10-16T09:30:38Z</time>
      </trkpt>
      <trkpt lat="44.44321" lon="5.15533">
        <ele>906.3</ele>
        <time>2022-10-16T09:30:36Z</time>
      </trkpt>
      <trkpt lat="44.44322" lon="5.15534">
        <ele>905.9</ele>
        <time>2022-10-16T09:30:33Z</time>
      </trkpt>
      <trkpt lat="44.44323" lon="5.15534">
        <ele>905.8</ele>
        <time>2022-10-16T09:30:32Z</time>
      </trkpt>
      <trkpt lat="44.44323" lon="5.15535">
        <ele>905.5</ele>
        <time>2022-10-16T09:30:31Z</time>
      </trkpt>
      <trkpt lat="44.44324" lon="5.15535">
        <ele>905.4</ele>
        <time>2022-10-16T09:30:30Z</time>
      </trkpt>
      <trkpt lat="44.44324" lon="5.15536">
        <ele>905.2</ele>
        <time>2022-10-16T09:30:29Z</time>
      </trkpt>
      <trkpt lat="44.44325" lon="5.15537">
        <ele>904.8</ele>
        <time>2022-10-16T09:30:28Z</time>
      </trkpt>
      <trkpt lat="44.44326" lon="5.15538">
        <ele>904.5</ele>
        <time>2022-10-16T09:30:22Z</time>
      </trkpt>
      <trkpt lat="44.44327" lon="5.15539">
        <ele>904.1</ele>
        <time>2022-10-16T09:30:20Z</time>
      </trkpt>
      <trkpt lat="44.44328" lon="5.1554">
        <ele>903.8</ele>
        <time>2022-10-16T09:30:18Z</time>
      </trkpt>
      <trkpt lat="44.44329" lon="5.15541">
        <ele>903.5</ele>
        <time>2022-10-16T09:30:17Z</time>
      </trkpt>
      <trkpt lat="44.4433" lon="5.15541">
        <ele>903.4</ele>
        <time>2022-10-16T09:30:16Z</time>
      </trkpt>
      <trkpt lat="44.4433" lon="5.15542">
        <ele>903.2</ele>
        <time>2022-10-16T09:30:15Z</time>
      </trkpt>
      <trkpt lat="44.44331" lon="5.15542">
        <ele>903.1</ele>
        <time>2022-10-16T09:30:14Z</time>
      </trkpt>
      <trkpt lat="44.44333" lon="5.15543">
        <ele>902.7</ele>
        <time>2022-10-16T09:30:08Z</time>
      </trkpt>
      <trkpt lat="44.44334" lon="5.15544">
        <ele>902.3</ele>
        <time>2022-10-16T09:30:07Z</time>
      </trkpt>
      <trkpt lat="44.44335" lon="5.15545">
        <ele>901.8</ele>
        <time>2022-10-16T09:30:06Z</time>
      </trkpt>
      <trkpt lat="44.44337" lon="5.15546">
        <ele>901</ele>
        <time>2022-10-16T09:29:58Z</time>
      </trkpt>
      <trkpt lat="44.44338" lon="5.15547">
        <ele>900.5</ele>
        <time>2022-10-16T09:29:57Z</time>
      </trkpt>
      <trkpt lat="44.44339" lon="5.15548">
        <ele>900</ele>
        <time>2022-10-16T09:29:56Z</time>
      </trkpt>
      <trkpt lat="44.4434" lon="5.15549">
        <ele>899.5</ele>
        <time>2022-10-16T09:29:55Z</time>
      </trkpt>
      <trkpt lat="44.44342" lon="5.15551">
        <ele>898.6</ele>
        <time>2022-10-16T09:29:49Z</time>
      </trkpt>
      <trkpt lat="44.44343" lon="5.15552">
        <ele>898.2</ele>
        <time>2022-10-16T09:29:48Z</time>
      </trkpt>
      <trkpt lat="44.44343" lon="5.15553">
        <ele>898</ele>
        <time>2022-10-16T09:29:47Z</time>
      </trkpt>
      <trkpt lat="44.44345" lon="5.15555">
        <ele>897.1</ele>
        <time>2022-10-16T09:29:46Z</time>
      </trkpt>
      <trkpt lat="44.44347" lon="5.15557">
        <ele>896.2</ele>
        <time>2022-10-16T09:29:45Z</time>
      </trkpt>
      <trkpt lat="44.4435" lon="5.15561">
        <ele>894.6</ele>
        <time>2022-10-16T09:29:22Z</time>
      </trkpt>
      <trkpt lat="44.44351" lon="5.15562">
        <ele>894.2</ele>
        <time>2022-10-16T09:29:21Z</time>
      </trkpt>
      <trkpt lat="44.44351" lon="5.15563">
        <ele>894</ele>
        <time>2022-10-16T09:29:20Z</time>
      </trkpt>
      <trkpt lat="44.44352" lon="5.15563">
        <ele>893.8</ele>
        <time>2022-10-16T09:29:17Z</time>
      </trkpt>
      <trkpt lat="44.44352" lon="5.15564">
        <ele>893.6</ele>
        <time>2022-10-16T09:29:16Z</time>
      </trkpt>
      <trkpt lat="44.44353" lon="5.15564">
        <ele>893.4</ele>
        <time>2022-10-16T09:29:15Z</time>
      </trkpt>
      <trkpt lat="44.44353" lon="5.15565">
        <ele>893.2</ele>
        <time>2022-10-16T09:29:14Z</time>
      </trkpt>
      <trkpt lat="44.44354" lon="5.15566">
        <ele>892.8</ele>
        <time>2022-10-16T09:29:13Z</time>
      </trkpt>
      <trkpt lat="44.44354" lon="5.15567">
        <ele>892.6</ele>
        <time>2022-10-16T09:29:12Z</time>
      </trkpt>
      <trkpt lat="44.44355" lon="5.15568">
        <ele>892.3</ele>
        <time>2022-10-16T09:29:11Z</time>
      </trkpt>
      <trkpt lat="44.44356" lon="5.15568">
        <ele>892.1</ele>
        <time>2022-10-16T09:29:10Z</time>
      </trkpt>
      <trkpt lat="44.44356" lon="5.15569">
        <ele>891.9</ele>
        <time>2022-10-16T09:29:09Z</time>
      </trkpt>
      <trkpt lat="44.44357" lon="5.1557">
        <ele>891.6</ele>
        <time>2022-10-16T09:29:08Z</time>
      </trkpt>
      <trkpt lat="44.44359" lon="5.15571">
        <ele>891.1</ele>
        <time>2022-10-16T09:29:07Z</time>
      </trkpt>
      <trkpt lat="44.44361" lon="5.15573">
        <ele>890.5</ele>
        <time>2022-10-16T09:29:06Z</time>
      </trkpt>
      <trkpt lat="44.44365" lon="5.15576">
        <ele>889</ele>
        <time>2022-10-16T09:28:34Z</time>
      </trkpt>
      <trkpt lat="44.44365" lon="5.15577">
        <ele>888.8</ele>
        <time>2022-10-16T09:28:33Z</time>
      </trkpt>
      <trkpt lat="44.44366" lon="5.15577">
        <ele>888.6</ele>
        <time>2022-10-16T09:28:32Z</time>
      </trkpt>
      <trkpt lat="44.44366" lon="5.15578">
        <ele>888.4</ele>
        <time>2022-10-16T09:28:31Z</time>
      </trkpt>
      <trkpt lat="44.44367" lon="5.15579">
        <ele>888</ele>
        <time>2022-10-16T09:28:29Z</time>
      </trkpt>
      <trkpt lat="44.44368" lon="5.1558">
        <ele>887.7</ele>
        <time>2022-10-16T09:28:28Z</time>
      </trkpt>
      <trkpt lat="44.44369" lon="5.15581">
        <ele>887.3</ele>
        <time>2022-10-16T09:28:26Z</time>
      </trkpt>
      <trkpt lat="44.44371" lon="5.15583">
        <ele>886.5</ele>
        <time>2022-10-16T09:28:25Z</time>
      </trkpt>
      <trkpt lat="44.44373" lon="5.15584">
        <ele>885.8</ele>
        <time>2022-10-16T09:28:24Z</time>
      </trkpt>
      <trkpt lat="44.44376" lon="5.15588">
        <ele>884.2</ele>
        <time>2022-10-16T09:28:00Z</time>
      </trkpt>
      <trkpt lat="44.44377" lon="5.1559">
        <ele>883.5</ele>
        <time>2022-10-16T09:27:59Z</time>
      </trkpt>
      <trkpt lat="44.44378" lon="5.15592">
        <ele>882.8</ele>
        <time>2022-10-16T09:27:58Z</time>
      </trkpt>
      <trkpt lat="44.4438" lon="5.15595">
        <ele>881.7</ele>
        <time>2022-10-16T09:27:38Z</time>
      </trkpt>
      <trkpt lat="44.44379" lon="5.15596">
        <ele>881.7</ele>
        <time>2022-10-16T09:27:37Z</time>
      </trkpt>
      <trkpt lat="44.44379" lon="5.15597">
        <ele>881.5</ele>
        <time>2022-10-16T09:27:35Z</time>
      </trkpt>
      <trkpt lat="44.44379" lon="5.15598">
        <ele>881.3</ele>
        <time>2022-10-16T09:27:34Z</time>
      </trkpt>
      <trkpt lat="44.44379" lon="5.15599">
        <ele>881.1</ele>
        <time>2022-10-16T09:27:33Z</time>
      </trkpt>
      <trkpt lat="44.44379" lon="5.156">
        <ele>880.9</ele>
        <time>2022-10-16T09:27:32Z</time>
      </trkpt>
      <trkpt lat="44.4438" lon="5.15601">
        <ele>880.4</ele>
        <time>2022-10-16T09:27:31Z</time>
      </trkpt>
      <trkpt lat="44.44381" lon="5.15602">
        <ele>880.1</ele>
        <time>2022-10-16T09:27:30Z</time>
      </trkpt>
      <trkpt lat="44.44382" lon="5.15603">
        <ele>879.7</ele>
        <time>2022-10-16T09:27:29Z</time>
      </trkpt>
      <trkpt lat="44.44383" lon="5.15605">
        <ele>879.1</ele>
        <time>2022-10-16T09:27:28Z</time>
      </trkpt>
      <trkpt lat="44.44385" lon="5.15606">
        <ele>878.6</ele>
        <time>2022-10-16T09:27:27Z</time>
      </trkpt>
      <trkpt lat="44.44388" lon="5.15607">
        <ele>877.9</ele>
        <time>2022-10-16T09:27:13Z</time>
      </trkpt>
      <trkpt lat="44.44388" lon="5.15608">
        <ele>877.7</ele>
        <time>2022-10-16T09:27:12Z</time>
      </trkpt>
      <trkpt lat="44.44389" lon="5.15608">
        <ele>877.5</ele>
        <time>2022-10-16T09:27:11Z</time>
      </trkpt>
      <trkpt lat="44.44389" lon="5.15609">
        <ele>877.3</ele>
        <time>2022-10-16T09:27:10Z</time>
      </trkpt>
      <trkpt lat="44.4439" lon="5.15609">
        <ele>877.1</ele>
        <time>2022-10-16T09:27:09Z</time>
      </trkpt>
      <trkpt lat="44.44391" lon="5.1561">
        <ele>876.6</ele>
        <time>2022-10-16T09:27:08Z</time>
      </trkpt>
      <trkpt lat="44.44393" lon="5.15611">
        <ele>875.8</ele>
        <time>2022-10-16T09:27:07Z</time>
      </trkpt>
      <trkpt lat="44.44395" lon="5.15612">
        <ele>875</ele>
        <time>2022-10-16T09:27:06Z</time>
      </trkpt>
      <trkpt lat="44.44397" lon="5.15613">
        <ele>874.1</ele>
        <time>2022-10-16T09:27:05Z</time>
      </trkpt>
      <trkpt lat="44.44403" lon="5.15616">
        <ele>871.5</ele>
        <time>2022-10-16T09:26:44Z</time>
      </trkpt>
      <trkpt lat="44.44405" lon="5.15619">
        <ele>870.1</ele>
        <time>2022-10-16T09:26:43Z</time>
      </trkpt>
      <trkpt lat="44.44408" lon="5.15622">
        <ele>868.5</ele>
        <time>2022-10-16T09:26:42Z</time>
      </trkpt>
      <trkpt lat="44.44413" lon="5.15627">
        <ele>865.9</ele>
        <time>2022-10-16T09:21:53Z</time>
      </trkpt>
      <trkpt lat="44.44415" lon="5.15629">
        <ele>864.9</ele>
        <time>2022-10-16T09:21:52Z</time>
      </trkpt>
      <trkpt lat="44.44416" lon="5.1563">
        <ele>864.4</ele>
        <time>2022-10-16T09:21:51Z</time>
      </trkpt>
      <trkpt lat="44.4442" lon="5.15632">
        <ele>862.9</ele>
        <time>2022-10-16T09:21:30Z</time>
      </trkpt>
      <trkpt lat="44.44421" lon="5.15633">
        <ele>862.4</ele>
        <time>2022-10-16T09:21:29Z</time>
      </trkpt>
      <trkpt lat="44.44422" lon="5.15633">
        <ele>862.2</ele>
        <time>2022-10-16T09:21:28Z</time>
      </trkpt>
      <trkpt lat="44.44423" lon="5.15634">
        <ele>861.7</ele>
        <time>2022-10-16T09:21:27Z</time>
      </trkpt>
      <trkpt lat="44.44424" lon="5.15634">
        <ele>861.5</ele>
        <time>2022-10-16T09:21:26Z</time>
      </trkpt>
      <trkpt lat="44.44426" lon="5.15636">
        <ele>860.6</ele>
        <time>2022-10-16T09:21:18Z</time>
      </trkpt>
      <trkpt lat="44.44427" lon="5.15637">
        <ele>860.1</ele>
        <time>2022-10-16T09:21:17Z</time>
      </trkpt>
      <trkpt lat="44.44428" lon="5.15638">
        <ele>859.7</ele>
        <time>2022-10-16T09:21:16Z</time>
      </trkpt>
      <trkpt lat="44.44429" lon="5.15639">
        <ele>859.3</ele>
        <time>2022-10-16T09:21:15Z</time>
      </trkpt>
      <trkpt lat="44.44432" lon="5.1564">
        <ele>858.4</ele>
        <time>2022-10-16T09:21:14Z</time>
      </trkpt>
      <trkpt lat="44.44434" lon="5.15642">
        <ele>857.6</ele>
        <time>2022-10-16T09:21:13Z</time>
      </trkpt>
      <trkpt lat="44.44441" lon="5.15645">
        <ele>855.6</ele>
        <time>2022-10-16T09:20:58Z</time>
      </trkpt>
      <trkpt lat="44.44445" lon="5.15648">
        <ele>854.3</ele>
        <time>2022-10-16T09:20:57Z</time>
      </trkpt>
      <trkpt lat="44.44449" lon="5.1565">
        <ele>853.2</ele>
        <time>2022-10-16T09:20:56Z</time>
      </trkpt>
      <trkpt lat="44.44457" lon="5.15655">
        <ele>851.2</ele>
        <time>2022-10-16T09:20:04Z</time>
      </trkpt>
      <trkpt lat="44.44458" lon="5.15655">
        <ele>851</ele>
        <time>2022-10-16T09:20:02Z</time>
      </trkpt>
      <trkpt lat="44.44459" lon="5.15655">
        <ele>850.9</ele>
        <time>2022-10-16T09:20:01Z</time>
      </trkpt>
      <trkpt lat="44.4446" lon="5.15656">
        <ele>850.6</ele>
        <time>2022-10-16T09:20:00Z</time>
      </trkpt>
      <trkpt lat="44.44461" lon="5.15656">
        <ele>850.4</ele>
        <time>2022-10-16T09:19:58Z</time>
      </trkpt>
      <trkpt lat="44.44462" lon="5.15656">
        <ele>850.3</ele>
        <time>2022-10-16T09:19:57Z</time>
      </trkpt>
      <trkpt lat="44.44463" lon="5.15656">
        <ele>850.1</ele>
        <time>2022-10-16T09:19:55Z</time>
      </trkpt>
      <trkpt lat="44.44463" lon="5.15657">
        <ele>850</ele>
        <time>2022-10-16T09:19:54Z</time>
      </trkpt>
      <trkpt lat="44.44464" lon="5.15657">
        <ele>849.9</ele>
        <time>2022-10-16T09:19:51Z</time>
      </trkpt>
      <trkpt lat="44.44465" lon="5.15657">
        <ele>849.7</ele>
        <time>2022-10-16T09:19:50Z</time>
      </trkpt>
      <trkpt lat="44.44465" lon="5.15658">
        <ele>849.6</ele>
        <time>2022-10-16T09:19:49Z</time>
      </trkpt>
      <trkpt lat="44.44466" lon="5.15658">
        <ele>849.5</ele>
        <time>2022-10-16T09:19:47Z</time>
      </trkpt>
      <trkpt lat="44.44467" lon="5.15659">
        <ele>849.3</ele>
        <time>2022-10-16T09:19:46Z</time>
      </trkpt>
      <trkpt lat="44.44468" lon="5.15659">
        <ele>849.1</ele>
        <time>2022-10-16T09:19:45Z</time>
      </trkpt>
      <trkpt lat="44.44468" lon="5.1566">
        <ele>849</ele>
        <time>2022-10-16T09:19:44Z</time>
      </trkpt>
      <trkpt lat="44.44469" lon="5.1566">
        <ele>848.9</ele>
        <time>2022-10-16T09:19:43Z</time>
      </trkpt>
      <trkpt lat="44.44469" lon="5.15661">
        <ele>848.8</ele>
        <time>2022-10-16T09:19:42Z</time>
      </trkpt>
      <trkpt lat="44.4447" lon="5.15661">
        <ele>848.7</ele>
        <time>2022-10-16T09:19:40Z</time>
      </trkpt>
      <trkpt lat="44.4447" lon="5.15662">
        <ele>848.6</ele>
        <time>2022-10-16T09:19:39Z</time>
      </trkpt>
      <trkpt lat="44.44471" lon="5.15662">
        <ele>848.5</ele>
        <time>2022-10-16T09:19:38Z</time>
      </trkpt>
      <trkpt lat="44.44472" lon="5.15662">
        <ele>848.4</ele>
        <time>2022-10-16T09:19:36Z</time>
      </trkpt>
      <trkpt lat="44.44473" lon="5.15662">
        <ele>848.2</ele>
        <time>2022-10-16T09:19:34Z</time>
      </trkpt>
      <trkpt lat="44.44474" lon="5.15662">
        <ele>848.1</ele>
        <time>2022-10-16T09:19:32Z</time>
      </trkpt>
      <trkpt lat="44.44475" lon="5.15662">
        <ele>848</ele>
        <time>2022-10-16T09:19:30Z</time>
      </trkpt>
      <trkpt lat="44.44476" lon="5.15662">
        <ele>847.9</ele>
        <time>2022-10-16T09:19:29Z</time>
      </trkpt>
      <trkpt lat="44.44476" lon="5.15663">
        <ele>847.8</ele>
        <time>2022-10-16T09:19:28Z</time>
      </trkpt>
      <trkpt lat="44.44477" lon="5.15663">
        <ele>847.7</ele>
        <time>2022-10-16T09:19:27Z</time>
      </trkpt>
      <trkpt lat="44.44478" lon="5.15663">
        <ele>847.6</ele>
        <time>2022-10-16T09:19:25Z</time>
      </trkpt>
      <trkpt lat="44.44479" lon="5.15663">
        <ele>847.5</ele>
        <time>2022-10-16T09:19:24Z</time>
      </trkpt>
      <trkpt lat="44.44479" lon="5.15664">
        <ele>847.4</ele>
        <time>2022-10-16T09:19:23Z</time>
      </trkpt>
      <trkpt lat="44.4448" lon="5.15664">
        <ele>847.3</ele>
        <time>2022-10-16T09:19:21Z</time>
      </trkpt>
      <trkpt lat="44.44481" lon="5.15665">
        <ele>847.1</ele>
        <time>2022-10-16T09:19:20Z</time>
      </trkpt>
      <trkpt lat="44.44482" lon="5.15665">
        <ele>847</ele>
        <time>2022-10-16T09:19:18Z</time>
      </trkpt>
      <trkpt lat="44.44483" lon="5.15666">
        <ele>846.9</ele>
        <time>2022-10-16T09:19:16Z</time>
      </trkpt>
      <trkpt lat="44.44484" lon="5.15666">
        <ele>846.8</ele>
        <time>2022-10-16T09:19:15Z</time>
      </trkpt>
      <trkpt lat="44.44485" lon="5.15666">
        <ele>846.6</ele>
        <time>2022-10-16T09:19:14Z</time>
      </trkpt>
      <trkpt lat="44.44485" lon="5.15667">
        <ele>846.6</ele>
        <time>2022-10-16T09:19:13Z</time>
      </trkpt>
      <trkpt lat="44.44486" lon="5.15667">
        <ele>846.5</ele>
        <time>2022-10-16T09:19:11Z</time>
      </trkpt>
      <trkpt lat="44.44487" lon="5.15668">
        <ele>846.2</ele>
        <time>2022-10-16T09:19:09Z</time>
      </trkpt>
      <trkpt lat="44.44488" lon="5.15668">
        <ele>846.1</ele>
        <time>2022-10-16T09:19:07Z</time>
      </trkpt>
      <trkpt lat="44.44489" lon="5.15669">
        <ele>845.8</ele>
        <time>2022-10-16T09:19:06Z</time>
      </trkpt>
      <trkpt lat="44.4449" lon="5.15669">
        <ele>845.7</ele>
        <time>2022-10-16T09:19:04Z</time>
      </trkpt>
      <trkpt lat="44.44492" lon="5.15669">
        <ele>845.5</ele>
        <time>2022-10-16T09:19:03Z</time>
      </trkpt>
      <trkpt lat="44.44493" lon="5.1567">
        <ele>845.3</ele>
        <time>2022-10-16T09:19:02Z</time>
      </trkpt>
      <trkpt lat="44.44494" lon="5.1567">
        <ele>845.2</ele>
        <time>2022-10-16T09:18:56Z</time>
      </trkpt>
      <trkpt lat="44.44495" lon="5.1567">
        <ele>845.1</ele>
        <time>2022-10-16T09:18:55Z</time>
      </trkpt>
      <trkpt lat="44.44495" lon="5.15671">
        <ele>845</ele>
        <time>2022-10-16T09:18:54Z</time>
      </trkpt>
      <trkpt lat="44.44496" lon="5.15671">
        <ele>844.9</ele>
        <time>2022-10-16T09:18:52Z</time>
      </trkpt>
      <trkpt lat="44.44497" lon="5.15671">
        <ele>844.8</ele>
        <time>2022-10-16T09:18:51Z</time>
      </trkpt>
      <trkpt lat="44.44498" lon="5.15672">
        <ele>844.6</ele>
        <time>2022-10-16T09:18:49Z</time>
      </trkpt>
      <trkpt lat="44.44499" lon="5.15672">
        <ele>844.5</ele>
        <time>2022-10-16T09:18:48Z</time>
      </trkpt>
      <trkpt lat="44.44499" lon="5.15673">
        <ele>844.4</ele>
        <time>2022-10-16T09:18:46Z</time>
      </trkpt>
      <trkpt lat="44.445" lon="5.15673">
        <ele>844.3</ele>
        <time>2022-10-16T09:18:44Z</time>
      </trkpt>
      <trkpt lat="44.44501" lon="5.15673">
        <ele>844.2</ele>
        <time>2022-10-16T09:18:43Z</time>
      </trkpt>
      <trkpt lat="44.44502" lon="5.15674">
        <ele>844</ele>
        <time>2022-10-16T09:18:41Z</time>
      </trkpt>
      <trkpt lat="44.44503" lon="5.15674">
        <ele>843.9</ele>
        <time>2022-10-16T09:18:40Z</time>
      </trkpt>
      <trkpt lat="44.44504" lon="5.15674">
        <ele>843.7</ele>
        <time>2022-10-16T09:18:39Z</time>
      </trkpt>
      <trkpt lat="44.44506" lon="5.15675">
        <ele>843.4</ele>
        <time>2022-10-16T09:18:33Z</time>
      </trkpt>
      <trkpt lat="44.44507" lon="5.15675">
        <ele>843.3</ele>
        <time>2022-10-16T09:18:32Z</time>
      </trkpt>
      <trkpt lat="44.44508" lon="5.15675">
        <ele>843.2</ele>
        <time>2022-10-16T09:18:30Z</time>
      </trkpt>
      <trkpt lat="44.44509" lon="5.15675">
        <ele>843.1</ele>
        <time>2022-10-16T09:18:29Z</time>
      </trkpt>
      <trkpt lat="44.4451" lon="5.15675">
        <ele>843</ele>
        <time>2022-10-16T09:18:28Z</time>
      </trkpt>
      <trkpt lat="44.4451" lon="5.15676">
        <ele>842.9</ele>
        <time>2022-10-16T09:18:27Z</time>
      </trkpt>
      <trkpt lat="44.44511" lon="5.15676">
        <ele>842.8</ele>
        <time>2022-10-16T09:18:26Z</time>
      </trkpt>
      <trkpt lat="44.44512" lon="5.15677">
        <ele>842.6</ele>
        <time>2022-10-16T09:18:24Z</time>
      </trkpt>
      <trkpt lat="44.44513" lon="5.15678">
        <ele>842.5</ele>
        <time>2022-10-16T09:18:23Z</time>
      </trkpt>
      <trkpt lat="44.44514" lon="5.15679">
        <ele>842.3</ele>
        <time>2022-10-16T09:18:22Z</time>
      </trkpt>
      <trkpt lat="44.44515" lon="5.15679">
        <ele>842.2</ele>
        <time>2022-10-16T09:18:21Z</time>
      </trkpt>
      <trkpt lat="44.44515" lon="5.1568">
        <ele>842.2</ele>
        <time>2022-10-16T09:18:19Z</time>
      </trkpt>
      <trkpt lat="44.44515" lon="5.15681">
        <ele>842.1</ele>
        <time>2022-10-16T09:18:18Z</time>
      </trkpt>
      <trkpt lat="44.44516" lon="5.15681">
        <ele>842</ele>
        <time>2022-10-16T09:18:17Z</time>
      </trkpt>
      <trkpt lat="44.44516" lon="5.15682">
        <ele>842</ele>
        <time>2022-10-16T09:18:16Z</time>
      </trkpt>
      <trkpt lat="44.44517" lon="5.15683">
        <ele>841.9</ele>
        <time>2022-10-16T09:18:15Z</time>
      </trkpt>
      <trkpt lat="44.44517" lon="5.15684">
        <ele>841.8</ele>
        <time>2022-10-16T09:18:14Z</time>
      </trkpt>
      <trkpt lat="44.44518" lon="5.15684">
        <ele>841.7</ele>
        <time>2022-10-16T09:18:13Z</time>
      </trkpt>
      <trkpt lat="44.44518" lon="5.15685">
        <ele>841.7</ele>
        <time>2022-10-16T09:18:12Z</time>
      </trkpt>
      <trkpt lat="44.44519" lon="5.15686">
        <ele>841.6</ele>
        <time>2022-10-16T09:18:11Z</time>
      </trkpt>
      <trkpt lat="44.44519" lon="5.15687">
        <ele>841.6</ele>
        <time>2022-10-16T09:18:10Z</time>
      </trkpt>
      <trkpt lat="44.4452" lon="5.15688">
        <ele>841.5</ele>
        <time>2022-10-16T09:18:08Z</time>
      </trkpt>
      <trkpt lat="44.44521" lon="5.15689">
        <ele>841.4</ele>
        <time>2022-10-16T09:18:07Z</time>
      </trkpt>
      <trkpt lat="44.44522" lon="5.15689">
        <ele>841.3</ele>
        <time>2022-10-16T09:18:05Z</time>
      </trkpt>
      <trkpt lat="44.44523" lon="5.1569">
        <ele>841.3</ele>
        <time>2022-10-16T09:18:04Z</time>
      </trkpt>
      <trkpt lat="44.44524" lon="5.1569">
        <ele>841.2</ele>
        <time>2022-10-16T09:18:02Z</time>
      </trkpt>
      <trkpt lat="44.44524" lon="5.15691">
        <ele>841.2</ele>
        <time>2022-10-16T09:18:01Z</time>
      </trkpt>
      <trkpt lat="44.44525" lon="5.15691">
        <ele>841.1</ele>
        <time>2022-10-16T09:17:59Z</time>
      </trkpt>
      <trkpt lat="44.44526" lon="5.15692">
        <ele>841.1</ele>
        <time>2022-10-16T09:17:58Z</time>
      </trkpt>
      <trkpt lat="44.44526" lon="5.15693">
        <ele>841.1</ele>
        <time>2022-10-16T09:17:57Z</time>
      </trkpt>
      <trkpt lat="44.44527" lon="5.15693">
        <ele>841</ele>
        <time>2022-10-16T09:17:56Z</time>
      </trkpt>
      <trkpt lat="44.44528" lon="5.15694">
        <ele>841</ele>
        <time>2022-10-16T09:17:55Z</time>
      </trkpt>
      <trkpt lat="44.44529" lon="5.15694">
        <ele>840.8</ele>
        <time>2022-10-16T09:17:54Z</time>
      </trkpt>
      <trkpt lat="44.44529" lon="5.15695">
        <ele>840.7</ele>
        <time>2022-10-16T09:17:53Z</time>
      </trkpt>
      <trkpt lat="44.4453" lon="5.15695">
        <ele>840.6</ele>
        <time>2022-10-16T09:17:52Z</time>
      </trkpt>
      <trkpt lat="44.44531" lon="5.15696">
        <ele>840.2</ele>
        <time>2022-10-16T09:17:51Z</time>
      </trkpt>
      <trkpt lat="44.44532" lon="5.15696">
        <ele>840.1</ele>
        <time>2022-10-16T09:17:50Z</time>
      </trkpt>
      <trkpt lat="44.44533" lon="5.15696">
        <ele>839.9</ele>
        <time>2022-10-16T09:17:49Z</time>
      </trkpt>
      <trkpt lat="44.44533" lon="5.15697">
        <ele>839.7</ele>
        <time>2022-10-16T09:17:48Z</time>
      </trkpt>
      <trkpt lat="44.44534" lon="5.15697">
        <ele>839.6</ele>
        <time>2022-10-16T09:17:47Z</time>
      </trkpt>
      <trkpt lat="44.44535" lon="5.15697">
        <ele>839.5</ele>
        <time>2022-10-16T09:17:45Z</time>
      </trkpt>
      <trkpt lat="44.44536" lon="5.15698">
        <ele>839.2</ele>
        <time>2022-10-16T09:17:44Z</time>
      </trkpt>
      <trkpt lat="44.44537" lon="5.15698">
        <ele>839</ele>
        <time>2022-10-16T09:17:43Z</time>
      </trkpt>
      <trkpt lat="44.44538" lon="5.15699">
        <ele>838.7</ele>
        <time>2022-10-16T09:17:42Z</time>
      </trkpt>
      <trkpt lat="44.44539" lon="5.15699">
        <ele>838.6</ele>
        <time>2022-10-16T09:17:41Z</time>
      </trkpt>
      <trkpt lat="44.44539" lon="5.157">
        <ele>838.4</ele>
        <time>2022-10-16T09:17:40Z</time>
      </trkpt>
      <trkpt lat="44.4454" lon="5.157">
        <ele>838.3</ele>
        <time>2022-10-16T09:17:39Z</time>
      </trkpt>
      <trkpt lat="44.44541" lon="5.15701">
        <ele>838</ele>
        <time>2022-10-16T09:17:38Z</time>
      </trkpt>
      <trkpt lat="44.44542" lon="5.15701">
        <ele>837.9</ele>
        <time>2022-10-16T09:17:37Z</time>
      </trkpt>
      <trkpt lat="44.44542" lon="5.15702">
        <ele>837.7</ele>
        <time>2022-10-16T09:17:36Z</time>
      </trkpt>
      <trkpt lat="44.44543" lon="5.15702">
        <ele>837.6</ele>
        <time>2022-10-16T09:17:35Z</time>
      </trkpt>
      <trkpt lat="44.44543" lon="5.15703">
        <ele>837.5</ele>
        <time>2022-10-16T09:17:34Z</time>
      </trkpt>
      <trkpt lat="44.44544" lon="5.15703">
        <ele>837.4</ele>
        <time>2022-10-16T09:17:33Z</time>
      </trkpt>
      <trkpt lat="44.44545" lon="5.15704">
        <ele>837.1</ele>
        <time>2022-10-16T09:17:31Z</time>
      </trkpt>
      <trkpt lat="44.44546" lon="5.15705">
        <ele>836.8</ele>
        <time>2022-10-16T09:17:30Z</time>
      </trkpt>
      <trkpt lat="44.44547" lon="5.15705">
        <ele>836.7</ele>
        <time>2022-10-16T09:17:28Z</time>
      </trkpt>
      <trkpt lat="44.44548" lon="5.15706">
        <ele>836.5</ele>
        <time>2022-10-16T09:17:26Z</time>
      </trkpt>
      <trkpt lat="44.44549" lon="5.15707">
        <ele>836.3</ele>
        <time>2022-10-16T09:17:23Z</time>
      </trkpt>
      <trkpt lat="44.4455" lon="5.15707">
        <ele>836.2</ele>
        <time>2022-10-16T09:17:22Z</time>
      </trkpt>
      <trkpt lat="44.44551" lon="5.15708">
        <ele>836</ele>
        <time>2022-10-16T09:17:20Z</time>
      </trkpt>
      <trkpt lat="44.44552" lon="5.15709">
        <ele>835.7</ele>
        <time>2022-10-16T09:17:19Z</time>
      </trkpt>
      <trkpt lat="44.44553" lon="5.15709">
        <ele>835.7</ele>
        <time>2022-10-16T09:17:18Z</time>
      </trkpt>
      <trkpt lat="44.44554" lon="5.15709">
        <ele>835.6</ele>
        <time>2022-10-16T09:17:17Z</time>
      </trkpt>
      <trkpt lat="44.44554" lon="5.1571">
        <ele>835.4</ele>
        <time>2022-10-16T09:17:16Z</time>
      </trkpt>
      <trkpt lat="44.44555" lon="5.15711">
        <ele>835.3</ele>
        <time>2022-10-16T09:17:15Z</time>
      </trkpt>
      <trkpt lat="44.44556" lon="5.15711">
        <ele>835.1</ele>
        <time>2022-10-16T09:17:14Z</time>
      </trkpt>
      <trkpt lat="44.44556" lon="5.15712">
        <ele>835</ele>
        <time>2022-10-16T09:17:13Z</time>
      </trkpt>
      <trkpt lat="44.44557" lon="5.15713">
        <ele>834.6</ele>
        <time>2022-10-16T09:17:12Z</time>
      </trkpt>
      <trkpt lat="44.44558" lon="5.15714">
        <ele>834.3</ele>
        <time>2022-10-16T09:17:10Z</time>
      </trkpt>
      <trkpt lat="44.44559" lon="5.15715">
        <ele>834</ele>
        <time>2022-10-16T09:17:09Z</time>
      </trkpt>
      <trkpt lat="44.4456" lon="5.15715">
        <ele>833.7</ele>
        <time>2022-10-16T09:17:08Z</time>
      </trkpt>
      <trkpt lat="44.44561" lon="5.15715">
        <ele>833.5</ele>
        <time>2022-10-16T09:17:07Z</time>
      </trkpt>
      <trkpt lat="44.44562" lon="5.15716">
        <ele>833.2</ele>
        <time>2022-10-16T09:17:05Z</time>
      </trkpt>
      <trkpt lat="44.44563" lon="5.15716">
        <ele>832.9</ele>
        <time>2022-10-16T09:17:04Z</time>
      </trkpt>
      <trkpt lat="44.44564" lon="5.15716">
        <ele>832.7</ele>
        <time>2022-10-16T09:17:03Z</time>
      </trkpt>
      <trkpt lat="44.44565" lon="5.15717">
        <ele>832.4</ele>
        <time>2022-10-16T09:17:02Z</time>
      </trkpt>
      <trkpt lat="44.44566" lon="5.15717">
        <ele>832.2</ele>
        <time>2022-10-16T09:17:01Z</time>
      </trkpt>
      <trkpt lat="44.44567" lon="5.15717">
        <ele>831.9</ele>
        <time>2022-10-16T09:17:00Z</time>
      </trkpt>
      <trkpt lat="44.44567" lon="5.15718">
        <ele>831.9</ele>
        <time>2022-10-16T09:16:59Z</time>
      </trkpt>
      <trkpt lat="44.44568" lon="5.15718">
        <ele>831.6</ele>
        <time>2022-10-16T09:16:58Z</time>
      </trkpt>
      <trkpt lat="44.44569" lon="5.15718">
        <ele>831.4</ele>
        <time>2022-10-16T09:16:57Z</time>
      </trkpt>
      <trkpt lat="44.4457" lon="5.15719">
        <ele>831.1</ele>
        <time>2022-10-16T09:16:55Z</time>
      </trkpt>
      <trkpt lat="44.44571" lon="5.15719">
        <ele>830.9</ele>
        <time>2022-10-16T09:16:53Z</time>
      </trkpt>
      <trkpt lat="44.44572" lon="5.1572">
        <ele>830.6</ele>
        <time>2022-10-16T09:16:52Z</time>
      </trkpt>
      <trkpt lat="44.44573" lon="5.1572">
        <ele>830.4</ele>
        <time>2022-10-16T09:16:50Z</time>
      </trkpt>
      <trkpt lat="44.44574" lon="5.15721">
        <ele>830.1</ele>
        <time>2022-10-16T09:16:48Z</time>
      </trkpt>
      <trkpt lat="44.44575" lon="5.15721">
        <ele>829.9</ele>
        <time>2022-10-16T09:16:47Z</time>
      </trkpt>
      <trkpt lat="44.44576" lon="5.15721">
        <ele>829.7</ele>
        <time>2022-10-16T09:16:46Z</time>
      </trkpt>
      <trkpt lat="44.44577" lon="5.15721">
        <ele>829.4</ele>
        <time>2022-10-16T09:16:44Z</time>
      </trkpt>
      <trkpt lat="44.44578" lon="5.1572">
        <ele>829.3</ele>
        <time>2022-10-16T09:16:43Z</time>
      </trkpt>
      <trkpt lat="44.44579" lon="5.1572">
        <ele>829</ele>
        <time>2022-10-16T09:16:41Z</time>
      </trkpt>
      <trkpt lat="44.4458" lon="5.1572">
        <ele>828.8</ele>
        <time>2022-10-16T09:16:39Z</time>
      </trkpt>
      <trkpt lat="44.44581" lon="5.1572">
        <ele>828.6</ele>
        <time>2022-10-16T09:16:38Z</time>
      </trkpt>
      <trkpt lat="44.44582" lon="5.1572">
        <ele>828.4</ele>
        <time>2022-10-16T09:16:37Z</time>
      </trkpt>
      <trkpt lat="44.44582" lon="5.15721">
        <ele>828.3</ele>
        <time>2022-10-16T09:16:36Z</time>
      </trkpt>
      <trkpt lat="44.44583" lon="5.15721">
        <ele>828.1</ele>
        <time>2022-10-16T09:16:35Z</time>
      </trkpt>
      <trkpt lat="44.44583" lon="5.15722">
        <ele>828.1</ele>
        <time>2022-10-16T09:16:34Z</time>
      </trkpt>
      <trkpt lat="44.44584" lon="5.15722">
        <ele>827.8</ele>
        <time>2022-10-16T09:16:33Z</time>
      </trkpt>
      <trkpt lat="44.44584" lon="5.15723">
        <ele>827.7</ele>
        <time>2022-10-16T09:16:32Z</time>
      </trkpt>
      <trkpt lat="44.44585" lon="5.15724">
        <ele>827.4</ele>
        <time>2022-10-16T09:16:31Z</time>
      </trkpt>
      <trkpt lat="44.44585" lon="5.15725">
        <ele>827.3</ele>
        <time>2022-10-16T09:16:30Z</time>
      </trkpt>
      <trkpt lat="44.44586" lon="5.15726">
        <ele>826.9</ele>
        <time>2022-10-16T09:16:29Z</time>
      </trkpt>
      <trkpt lat="44.44586" lon="5.15727">
        <ele>826.8</ele>
        <time>2022-10-16T09:16:28Z</time>
      </trkpt>
      <trkpt lat="44.44587" lon="5.15727">
        <ele>826.6</ele>
        <time>2022-10-16T09:16:27Z</time>
      </trkpt>
      <trkpt lat="44.44587" lon="5.15728">
        <ele>826.5</ele>
        <time>2022-10-16T09:16:26Z</time>
      </trkpt>
      <trkpt lat="44.44588" lon="5.15729">
        <ele>826.1</ele>
        <time>2022-10-16T09:16:25Z</time>
      </trkpt>
      <trkpt lat="44.44588" lon="5.1573">
        <ele>826</ele>
        <time>2022-10-16T09:16:24Z</time>
      </trkpt>
      <trkpt lat="44.44589" lon="5.1573">
        <ele>825.8</ele>
        <time>2022-10-16T09:16:23Z</time>
      </trkpt>
      <trkpt lat="44.44589" lon="5.15731">
        <ele>825.7</ele>
        <time>2022-10-16T09:16:22Z</time>
      </trkpt>
      <trkpt lat="44.4459" lon="5.15732">
        <ele>825.3</ele>
        <time>2022-10-16T09:16:21Z</time>
      </trkpt>
      <trkpt lat="44.44591" lon="5.15732">
        <ele>825.1</ele>
        <time>2022-10-16T09:16:20Z</time>
      </trkpt>
      <trkpt lat="44.44591" lon="5.15733">
        <ele>825</ele>
        <time>2022-10-16T09:16:19Z</time>
      </trkpt>
      <trkpt lat="44.44592" lon="5.15733">
        <ele>824.8</ele>
        <time>2022-10-16T09:16:18Z</time>
      </trkpt>
      <trkpt lat="44.44592" lon="5.15734">
        <ele>824.7</ele>
        <time>2022-10-16T09:16:17Z</time>
      </trkpt>
      <trkpt lat="44.44593" lon="5.15734">
        <ele>824.4</ele>
        <time>2022-10-16T09:16:16Z</time>
      </trkpt>
      <trkpt lat="44.44593" lon="5.15735">
        <ele>824.3</ele>
        <time>2022-10-16T09:16:15Z</time>
      </trkpt>
      <trkpt lat="44.44594" lon="5.15735">
        <ele>824.1</ele>
        <time>2022-10-16T09:16:14Z</time>
      </trkpt>
      <trkpt lat="44.44594" lon="5.15736">
        <ele>824</ele>
        <time>2022-10-16T09:16:13Z</time>
      </trkpt>
      <trkpt lat="44.44595" lon="5.15736">
        <ele>823.8</ele>
        <time>2022-10-16T09:16:12Z</time>
      </trkpt>
      <trkpt lat="44.44595" lon="5.15737">
        <ele>823.7</ele>
        <time>2022-10-16T09:16:11Z</time>
      </trkpt>
      <trkpt lat="44.44596" lon="5.15737">
        <ele>823.5</ele>
        <time>2022-10-16T09:16:10Z</time>
      </trkpt>
      <trkpt lat="44.44596" lon="5.15738">
        <ele>823.4</ele>
        <time>2022-10-16T09:16:09Z</time>
      </trkpt>
      <trkpt lat="44.44597" lon="5.15738">
        <ele>823.1</ele>
        <time>2022-10-16T09:16:08Z</time>
      </trkpt>
      <trkpt lat="44.44597" lon="5.15739">
        <ele>823</ele>
        <time>2022-10-16T09:16:07Z</time>
      </trkpt>
      <trkpt lat="44.44598" lon="5.1574">
        <ele>822.7</ele>
        <time>2022-10-16T09:16:06Z</time>
      </trkpt>
      <trkpt lat="44.44598" lon="5.15741">
        <ele>822.6</ele>
        <time>2022-10-16T09:16:05Z</time>
      </trkpt>
      <trkpt lat="44.44598" lon="5.15742">
        <ele>822.5</ele>
        <time>2022-10-16T09:16:04Z</time>
      </trkpt>
      <trkpt lat="44.44598" lon="5.15743">
        <ele>822.5</ele>
        <time>2022-10-16T09:16:03Z</time>
      </trkpt>
      <trkpt lat="44.44598" lon="5.15745">
        <ele>822.3</ele>
        <time>2022-10-16T09:16:02Z</time>
      </trkpt>
      <trkpt lat="44.44597" lon="5.15747">
        <ele>822.3</ele>
        <time>2022-10-16T09:16:01Z</time>
      </trkpt>
      <trkpt lat="44.44597" lon="5.1575">
        <ele>822</ele>
        <time>2022-10-16T09:15:44Z</time>
      </trkpt>
      <trkpt lat="44.44597" lon="5.15751">
        <ele>821.9</ele>
        <time>2022-10-16T09:15:43Z</time>
      </trkpt>
      <trkpt lat="44.44596" lon="5.15752">
        <ele>822</ele>
        <time>2022-10-16T09:15:42Z</time>
      </trkpt>
      <trkpt lat="44.44596" lon="5.15754">
        <ele>821.7</ele>
        <time>2022-10-16T09:15:35Z</time>
      </trkpt>
      <trkpt lat="44.44596" lon="5.15755">
        <ele>821.6</ele>
        <time>2022-10-16T09:15:34Z</time>
      </trkpt>
      <trkpt lat="44.44595" lon="5.15756">
        <ele>821.7</ele>
        <time>2022-10-16T09:15:33Z</time>
      </trkpt>
      <trkpt lat="44.44595" lon="5.15757">
        <ele>821.5</ele>
        <time>2022-10-16T09:15:32Z</time>
      </trkpt>
      <trkpt lat="44.44594" lon="5.15757">
        <ele>821.7</ele>
        <time>2022-10-16T09:15:31Z</time>
      </trkpt>
      <trkpt lat="44.44594" lon="5.15758">
        <ele>821.6</ele>
        <time>2022-10-16T09:15:29Z</time>
      </trkpt>
      <trkpt lat="44.44593" lon="5.15759">
        <ele>821.6</ele>
        <time>2022-10-16T09:15:27Z</time>
      </trkpt>
      <trkpt lat="44.44593" lon="5.1576">
        <ele>821.5</ele>
        <time>2022-10-16T09:15:26Z</time>
      </trkpt>
      <trkpt lat="44.44592" lon="5.15761">
        <ele>821.5</ele>
        <time>2022-10-16T09:15:24Z</time>
      </trkpt>
      <trkpt lat="44.44592" lon="5.15762">
        <ele>821.4</ele>
        <time>2022-10-16T09:15:23Z</time>
      </trkpt>
      <trkpt lat="44.44591" lon="5.15764">
        <ele>821.2</ele>
        <time>2022-10-16T09:15:20Z</time>
      </trkpt>
      <trkpt lat="44.44591" lon="5.15765">
        <ele>821.1</ele>
        <time>2022-10-16T09:15:17Z</time>
      </trkpt>
      <trkpt lat="44.44591" lon="5.15766">
        <ele>820.9</ele>
        <time>2022-10-16T09:15:16Z</time>
      </trkpt>
      <trkpt lat="44.44591" lon="5.15767">
        <ele>820.8</ele>
        <time>2022-10-16T09:15:15Z</time>
      </trkpt>
      <trkpt lat="44.44591" lon="5.15768">
        <ele>820.6</ele>
        <time>2022-10-16T09:15:14Z</time>
      </trkpt>
      <trkpt lat="44.44591" lon="5.15769">
        <ele>820.5</ele>
        <time>2022-10-16T09:15:13Z</time>
      </trkpt>
      <trkpt lat="44.4459" lon="5.1577">
        <ele>820.5</ele>
        <time>2022-10-16T09:15:12Z</time>
      </trkpt>
      <trkpt lat="44.4459" lon="5.15771">
        <ele>820.3</ele>
        <time>2022-10-16T09:15:10Z</time>
      </trkpt>
      <trkpt lat="44.4459" lon="5.15772">
        <ele>820.2</ele>
        <time>2022-10-16T09:15:09Z</time>
      </trkpt>
      <trkpt lat="44.4459" lon="5.15773">
        <ele>820</ele>
        <time>2022-10-16T09:15:08Z</time>
      </trkpt>
      <trkpt lat="44.4459" lon="5.15774">
        <ele>819.9</ele>
        <time>2022-10-16T09:15:07Z</time>
      </trkpt>
      <trkpt lat="44.4459" lon="5.15775">
        <ele>819.7</ele>
        <time>2022-10-16T09:15:06Z</time>
      </trkpt>
      <trkpt lat="44.44589" lon="5.15775">
        <ele>819.8</ele>
        <time>2022-10-16T09:15:05Z</time>
      </trkpt>
      <trkpt lat="44.44589" lon="5.15776">
        <ele>819.7</ele>
        <time>2022-10-16T09:15:03Z</time>
      </trkpt>
      <trkpt lat="44.44588" lon="5.15777">
        <ele>819.6</ele>
        <time>2022-10-16T09:15:02Z</time>
      </trkpt>
      <trkpt lat="44.44588" lon="5.15778">
        <ele>819.5</ele>
        <time>2022-10-16T09:15:01Z</time>
      </trkpt>
      <trkpt lat="44.44587" lon="5.15779">
        <ele>819.4</ele>
        <time>2022-10-16T09:14:59Z</time>
      </trkpt>
      <trkpt lat="44.44586" lon="5.1578">
        <ele>819.3</ele>
        <time>2022-10-16T09:14:58Z</time>
      </trkpt>
      <trkpt lat="44.44586" lon="5.15781">
        <ele>819.1</ele>
        <time>2022-10-16T09:14:57Z</time>
      </trkpt>
      <trkpt lat="44.44586" lon="5.15782">
        <ele>819</ele>
        <time>2022-10-16T09:14:56Z</time>
      </trkpt>
      <trkpt lat="44.44586" lon="5.15784">
        <ele>818.6</ele>
        <time>2022-10-16T09:14:54Z</time>
      </trkpt>
      <trkpt lat="44.44586" lon="5.15785">
        <ele>818.4</ele>
        <time>2022-10-16T09:14:53Z</time>
      </trkpt>
      <trkpt lat="44.44586" lon="5.15786">
        <ele>818.3</ele>
        <time>2022-10-16T09:14:52Z</time>
      </trkpt>
      <trkpt lat="44.44586" lon="5.15787">
        <ele>818.1</ele>
        <time>2022-10-16T09:14:51Z</time>
      </trkpt>
      <trkpt lat="44.44586" lon="5.15788">
        <ele>817.9</ele>
        <time>2022-10-16T09:14:49Z</time>
      </trkpt>
      <trkpt lat="44.44586" lon="5.15789">
        <ele>817.7</ele>
        <time>2022-10-16T09:14:48Z</time>
      </trkpt>
      <trkpt lat="44.44586" lon="5.1579">
        <ele>817.6</ele>
        <time>2022-10-16T09:14:47Z</time>
      </trkpt>
      <trkpt lat="44.44585" lon="5.15791">
        <ele>817.5</ele>
        <time>2022-10-16T09:14:46Z</time>
      </trkpt>
      <trkpt lat="44.44585" lon="5.15792">
        <ele>817.3</ele>
        <time>2022-10-16T09:14:45Z</time>
      </trkpt>
      <trkpt lat="44.44585" lon="5.15793">
        <ele>817.1</ele>
        <time>2022-10-16T09:14:43Z</time>
      </trkpt>
      <trkpt lat="44.44584" lon="5.15794">
        <ele>817</ele>
        <time>2022-10-16T09:14:42Z</time>
      </trkpt>
      <trkpt lat="44.44584" lon="5.15795">
        <ele>816.8</ele>
        <time>2022-10-16T09:14:41Z</time>
      </trkpt>
      <trkpt lat="44.44584" lon="5.15796">
        <ele>816.7</ele>
        <time>2022-10-16T09:14:40Z</time>
      </trkpt>
      <trkpt lat="44.44584" lon="5.15797">
        <ele>816.5</ele>
        <time>2022-10-16T09:14:39Z</time>
      </trkpt>
      <trkpt lat="44.44584" lon="5.15798">
        <ele>816.3</ele>
        <time>2022-10-16T09:14:38Z</time>
      </trkpt>
      <trkpt lat="44.44583" lon="5.15799">
        <ele>816.2</ele>
        <time>2022-10-16T09:14:37Z</time>
      </trkpt>
      <trkpt lat="44.44583" lon="5.158">
        <ele>816</ele>
        <time>2022-10-16T09:14:36Z</time>
      </trkpt>
      <trkpt lat="44.44583" lon="5.15801">
        <ele>815.8</ele>
        <time>2022-10-16T09:14:35Z</time>
      </trkpt>
      <trkpt lat="44.44583" lon="5.15802">
        <ele>815.6</ele>
        <time>2022-10-16T09:14:34Z</time>
      </trkpt>
      <trkpt lat="44.44583" lon="5.15803">
        <ele>815.4</ele>
        <time>2022-10-16T09:14:33Z</time>
      </trkpt>
      <trkpt lat="44.44584" lon="5.15804">
        <ele>815.2</ele>
        <time>2022-10-16T09:14:32Z</time>
      </trkpt>
      <trkpt lat="44.44584" lon="5.15806">
        <ele>814.9</ele>
        <time>2022-10-16T09:14:31Z</time>
      </trkpt>
      <trkpt lat="44.44584" lon="5.15807">
        <ele>814.8</ele>
        <time>2022-10-16T09:14:30Z</time>
      </trkpt>
      <trkpt lat="44.44584" lon="5.15808">
        <ele>814.7</ele>
        <time>2022-10-16T09:14:29Z</time>
      </trkpt>
      <trkpt lat="44.44585" lon="5.15809">
        <ele>814.5</ele>
        <time>2022-10-16T09:14:28Z</time>
      </trkpt>
      <trkpt lat="44.44585" lon="5.1581">
        <ele>814.4</ele>
        <time>2022-10-16T09:14:27Z</time>
      </trkpt>
      <trkpt lat="44.44586" lon="5.15811">
        <ele>814.2</ele>
        <time>2022-10-16T09:14:26Z</time>
      </trkpt>
      <trkpt lat="44.44586" lon="5.15812">
        <ele>814.1</ele>
        <time>2022-10-16T09:14:25Z</time>
      </trkpt>
      <trkpt lat="44.44587" lon="5.15813">
        <ele>813.9</ele>
        <time>2022-10-16T09:14:24Z</time>
      </trkpt>
      <trkpt lat="44.44587" lon="5.15814">
        <ele>813.8</ele>
        <time>2022-10-16T09:14:23Z</time>
      </trkpt>
      <trkpt lat="44.44588" lon="5.15815">
        <ele>813.6</ele>
        <time>2022-10-16T09:14:21Z</time>
      </trkpt>
      <trkpt lat="44.44588" lon="5.15816">
        <ele>813.5</ele>
        <time>2022-10-16T09:14:20Z</time>
      </trkpt>
      <trkpt lat="44.44589" lon="5.15817">
        <ele>813.3</ele>
        <time>2022-10-16T09:14:19Z</time>
      </trkpt>
      <trkpt lat="44.44589" lon="5.15818">
        <ele>813.2</ele>
        <time>2022-10-16T09:14:18Z</time>
      </trkpt>
      <trkpt lat="44.44589" lon="5.15819">
        <ele>813</ele>
        <time>2022-10-16T09:14:17Z</time>
      </trkpt>
      <trkpt lat="44.4459" lon="5.1582">
        <ele>812.8</ele>
        <time>2022-10-16T09:14:15Z</time>
      </trkpt>
      <trkpt lat="44.4459" lon="5.15821">
        <ele>812.7</ele>
        <time>2022-10-16T09:14:14Z</time>
      </trkpt>
      <trkpt lat="44.4459" lon="5.15822">
        <ele>812.6</ele>
        <time>2022-10-16T09:14:13Z</time>
      </trkpt>
      <trkpt lat="44.4459" lon="5.15823">
        <ele>812.5</ele>
        <time>2022-10-16T09:14:12Z</time>
      </trkpt>
      <trkpt lat="44.4459" lon="5.15824">
        <ele>812.4</ele>
        <time>2022-10-16T09:14:11Z</time>
      </trkpt>
      <trkpt lat="44.44591" lon="5.15825">
        <ele>812.2</ele>
        <time>2022-10-16T09:14:10Z</time>
      </trkpt>
      <trkpt lat="44.44591" lon="5.15826">
        <ele>812</ele>
        <time>2022-10-16T09:14:09Z</time>
      </trkpt>
      <trkpt lat="44.44591" lon="5.15827">
        <ele>811.9</ele>
        <time>2022-10-16T09:14:08Z</time>
      </trkpt>
      <trkpt lat="44.44591" lon="5.15828">
        <ele>811.8</ele>
        <time>2022-10-16T09:14:06Z</time>
      </trkpt>
      <trkpt lat="44.44591" lon="5.15829">
        <ele>811.7</ele>
        <time>2022-10-16T09:14:05Z</time>
      </trkpt>
      <trkpt lat="44.44591" lon="5.1583">
        <ele>811.6</ele>
        <time>2022-10-16T09:14:04Z</time>
      </trkpt>
      <trkpt lat="44.44591" lon="5.15831">
        <ele>811.4</ele>
        <time>2022-10-16T09:14:03Z</time>
      </trkpt>
      <trkpt lat="44.44591" lon="5.15832">
        <ele>811.3</ele>
        <time>2022-10-16T09:14:02Z</time>
      </trkpt>
      <trkpt lat="44.44592" lon="5.15833">
        <ele>811.1</ele>
        <time>2022-10-16T09:14:00Z</time>
      </trkpt>
      <trkpt lat="44.44592" lon="5.15834">
        <ele>811</ele>
        <time>2022-10-16T09:13:59Z</time>
      </trkpt>
      <trkpt lat="44.44592" lon="5.15835">
        <ele>810.9</ele>
        <time>2022-10-16T09:13:58Z</time>
      </trkpt>
      <trkpt lat="44.44593" lon="5.15835">
        <ele>810.8</ele>
        <time>2022-10-16T09:13:57Z</time>
      </trkpt>
      <trkpt lat="44.44593" lon="5.15836">
        <ele>810.6</ele>
        <time>2022-10-16T09:13:56Z</time>
      </trkpt>
      <trkpt lat="44.44593" lon="5.15837">
        <ele>810.5</ele>
        <time>2022-10-16T09:13:55Z</time>
      </trkpt>
      <trkpt lat="44.44593" lon="5.15838">
        <ele>810.4</ele>
        <time>2022-10-16T09:13:53Z</time>
      </trkpt>
      <trkpt lat="44.44593" lon="5.15839">
        <ele>810.3</ele>
        <time>2022-10-16T09:13:52Z</time>
      </trkpt>
      <trkpt lat="44.44593" lon="5.1584">
        <ele>810.2</ele>
        <time>2022-10-16T09:13:51Z</time>
      </trkpt>
      <trkpt lat="44.44593" lon="5.15841">
        <ele>810</ele>
        <time>2022-10-16T09:13:50Z</time>
      </trkpt>
      <trkpt lat="44.44593" lon="5.15842">
        <ele>809.9</ele>
        <time>2022-10-16T09:13:49Z</time>
      </trkpt>
      <trkpt lat="44.44593" lon="5.15843">
        <ele>809.8</ele>
        <time>2022-10-16T09:13:48Z</time>
      </trkpt>
      <trkpt lat="44.44593" lon="5.15844">
        <ele>809.7</ele>
        <time>2022-10-16T09:13:47Z</time>
      </trkpt>
      <trkpt lat="44.44593" lon="5.15845">
        <ele>809.6</ele>
        <time>2022-10-16T09:13:46Z</time>
      </trkpt>
      <trkpt lat="44.44593" lon="5.15847">
        <ele>809.3</ele>
        <time>2022-10-16T09:13:45Z</time>
      </trkpt>
      <trkpt lat="44.44593" lon="5.15848">
        <ele>809.2</ele>
        <time>2022-10-16T09:13:43Z</time>
      </trkpt>
      <trkpt lat="44.44593" lon="5.15849">
        <ele>809.1</ele>
        <time>2022-10-16T09:13:42Z</time>
      </trkpt>
      <trkpt lat="44.44593" lon="5.1585">
        <ele>809</ele>
        <time>2022-10-16T09:13:41Z</time>
      </trkpt>
      <trkpt lat="44.44593" lon="5.15851">
        <ele>808.9</ele>
        <time>2022-10-16T09:13:40Z</time>
      </trkpt>
      <trkpt lat="44.44594" lon="5.15852">
        <ele>808.7</ele>
        <time>2022-10-16T09:13:39Z</time>
      </trkpt>
      <trkpt lat="44.44594" lon="5.15853">
        <ele>808.6</ele>
        <time>2022-10-16T09:13:38Z</time>
      </trkpt>
      <trkpt lat="44.44594" lon="5.15854">
        <ele>808.4</ele>
        <time>2022-10-16T09:13:37Z</time>
      </trkpt>
      <trkpt lat="44.44594" lon="5.15855">
        <ele>808.3</ele>
        <time>2022-10-16T09:13:36Z</time>
      </trkpt>
      <trkpt lat="44.44594" lon="5.15856">
        <ele>808.2</ele>
        <time>2022-10-16T09:13:35Z</time>
      </trkpt>
      <trkpt lat="44.44594" lon="5.15857">
        <ele>808.1</ele>
        <time>2022-10-16T09:13:34Z</time>
      </trkpt>
      <trkpt lat="44.44595" lon="5.15858">
        <ele>807.9</ele>
        <time>2022-10-16T09:13:32Z</time>
      </trkpt>
      <trkpt lat="44.44595" lon="5.15859">
        <ele>807.8</ele>
        <time>2022-10-16T09:13:31Z</time>
      </trkpt>
      <trkpt lat="44.44595" lon="5.1586">
        <ele>807.7</ele>
        <time>2022-10-16T09:13:30Z</time>
      </trkpt>
      <trkpt lat="44.44595" lon="5.15861">
        <ele>807.6</ele>
        <time>2022-10-16T09:13:29Z</time>
      </trkpt>
      <trkpt lat="44.44595" lon="5.15862">
        <ele>807.5</ele>
        <time>2022-10-16T09:13:28Z</time>
      </trkpt>
      <trkpt lat="44.44595" lon="5.15863">
        <ele>807.4</ele>
        <time>2022-10-16T09:13:27Z</time>
      </trkpt>
      <trkpt lat="44.44595" lon="5.15865">
        <ele>807.2</ele>
        <time>2022-10-16T09:13:26Z</time>
      </trkpt>
      <trkpt lat="44.44595" lon="5.15866">
        <ele>807.1</ele>
        <time>2022-10-16T09:13:25Z</time>
      </trkpt>
      <trkpt lat="44.44595" lon="5.15867">
        <ele>807</ele>
        <time>2022-10-16T09:13:24Z</time>
      </trkpt>
      <trkpt lat="44.44595" lon="5.15868">
        <ele>806.9</ele>
        <time>2022-10-16T09:13:23Z</time>
      </trkpt>
      <trkpt lat="44.44595" lon="5.15869">
        <ele>806.8</ele>
        <time>2022-10-16T09:13:22Z</time>
      </trkpt>
      <trkpt lat="44.44595" lon="5.1587">
        <ele>806.8</ele>
        <time>2022-10-16T09:13:21Z</time>
      </trkpt>
      <trkpt lat="44.44595" lon="5.15871">
        <ele>806.7</ele>
        <time>2022-10-16T09:13:20Z</time>
      </trkpt>
      <trkpt lat="44.44595" lon="5.15873">
        <ele>806.5</ele>
        <time>2022-10-16T09:13:19Z</time>
      </trkpt>
      <trkpt lat="44.44596" lon="5.15874">
        <ele>806.4</ele>
        <time>2022-10-16T09:13:18Z</time>
      </trkpt>
      <trkpt lat="44.44596" lon="5.15875">
        <ele>806.3</ele>
        <time>2022-10-16T09:13:17Z</time>
      </trkpt>
      <trkpt lat="44.44596" lon="5.15876">
        <ele>806.2</ele>
        <time>2022-10-16T09:13:16Z</time>
      </trkpt>
      <trkpt lat="44.44596" lon="5.15877">
        <ele>806.1</ele>
        <time>2022-10-16T09:13:15Z</time>
      </trkpt>
      <trkpt lat="44.44596" lon="5.15878">
        <ele>806</ele>
        <time>2022-10-16T09:13:14Z</time>
      </trkpt>
      <trkpt lat="44.44596" lon="5.1588">
        <ele>805.8</ele>
        <time>2022-10-16T09:13:13Z</time>
      </trkpt>
      <trkpt lat="44.44596" lon="5.15881">
        <ele>805.7</ele>
        <time>2022-10-16T09:13:12Z</time>
      </trkpt>
      <trkpt lat="44.44596" lon="5.15882">
        <ele>805.6</ele>
        <time>2022-10-16T09:13:11Z</time>
      </trkpt>
      <trkpt lat="44.44596" lon="5.15883">
        <ele>805.5</ele>
        <time>2022-10-16T09:13:10Z</time>
      </trkpt>
      <trkpt lat="44.44596" lon="5.15884">
        <ele>805.4</ele>
        <time>2022-10-16T09:13:09Z</time>
      </trkpt>
      <trkpt lat="44.44596" lon="5.15885">
        <ele>805.4</ele>
        <time>2022-10-16T09:13:08Z</time>
      </trkpt>
      <trkpt lat="44.44597" lon="5.15886">
        <ele>805.3</ele>
        <time>2022-10-16T09:13:07Z</time>
      </trkpt>
      <trkpt lat="44.44597" lon="5.15887">
        <ele>805.2</ele>
        <time>2022-10-16T09:13:06Z</time>
      </trkpt>
      <trkpt lat="44.44597" lon="5.15888">
        <ele>805.1</ele>
        <time>2022-10-16T09:13:05Z</time>
      </trkpt>
      <trkpt lat="44.44597" lon="5.15889">
        <ele>805</ele>
        <time>2022-10-16T09:13:04Z</time>
      </trkpt>
      <trkpt lat="44.44598" lon="5.1589">
        <ele>804.9</ele>
        <time>2022-10-16T09:13:03Z</time>
      </trkpt>
      <trkpt lat="44.44598" lon="5.15891">
        <ele>804.9</ele>
        <time>2022-10-16T09:13:02Z</time>
      </trkpt>
      <trkpt lat="44.44599" lon="5.15892">
        <ele>804.8</ele>
        <time>2022-10-16T09:13:01Z</time>
      </trkpt>
      <trkpt lat="44.44599" lon="5.15893">
        <ele>804.7</ele>
        <time>2022-10-16T09:13:00Z</time>
      </trkpt>
      <trkpt lat="44.44599" lon="5.15894">
        <ele>804.7</ele>
        <time>2022-10-16T09:12:59Z</time>
      </trkpt>
      <trkpt lat="44.446" lon="5.15895">
        <ele>804.6</ele>
        <time>2022-10-16T09:12:58Z</time>
      </trkpt>
      <trkpt lat="44.446" lon="5.15896">
        <ele>804.5</ele>
        <time>2022-10-16T09:12:57Z</time>
      </trkpt>
      <trkpt lat="44.44601" lon="5.15897">
        <ele>804.5</ele>
        <time>2022-10-16T09:12:56Z</time>
      </trkpt>
      <trkpt lat="44.44601" lon="5.15898">
        <ele>804.4</ele>
        <time>2022-10-16T09:12:55Z</time>
      </trkpt>
      <trkpt lat="44.44601" lon="5.15899">
        <ele>804.4</ele>
        <time>2022-10-16T09:12:54Z</time>
      </trkpt>
      <trkpt lat="44.44602" lon="5.159">
        <ele>804.3</ele>
        <time>2022-10-16T09:12:53Z</time>
      </trkpt>
      <trkpt lat="44.44603" lon="5.15901">
        <ele>804.3</ele>
        <time>2022-10-16T09:12:52Z</time>
      </trkpt>
      <trkpt lat="44.44603" lon="5.15902">
        <ele>804.3</ele>
        <time>2022-10-16T09:12:51Z</time>
      </trkpt>
      <trkpt lat="44.44604" lon="5.15902">
        <ele>804.3</ele>
        <time>2022-10-16T09:12:50Z</time>
      </trkpt>
      <trkpt lat="44.44604" lon="5.15903">
        <ele>804.2</ele>
        <time>2022-10-16T09:12:49Z</time>
      </trkpt>
      <trkpt lat="44.44605" lon="5.15903">
        <ele>804.3</ele>
        <time>2022-10-16T09:12:48Z</time>
      </trkpt>
      <trkpt lat="44.44605" lon="5.15904">
        <ele>804.2</ele>
        <time>2022-10-16T09:12:47Z</time>
      </trkpt>
      <trkpt lat="44.44606" lon="5.15905">
        <ele>804.2</ele>
        <time>2022-10-16T09:12:46Z</time>
      </trkpt>
      <trkpt lat="44.44606" lon="5.15906">
        <ele>804.2</ele>
        <time>2022-10-16T09:12:45Z</time>
      </trkpt>
      <trkpt lat="44.44607" lon="5.15907">
        <ele>804.2</ele>
        <time>2022-10-16T09:12:43Z</time>
      </trkpt>
      <trkpt lat="44.44608" lon="5.15908">
        <ele>804.2</ele>
        <time>2022-10-16T09:12:42Z</time>
      </trkpt>
      <trkpt lat="44.44608" lon="5.15909">
        <ele>804.1</ele>
        <time>2022-10-16T09:12:41Z</time>
      </trkpt>
      <trkpt lat="44.44609" lon="5.1591">
        <ele>804.1</ele>
        <time>2022-10-16T09:12:39Z</time>
      </trkpt>
      <trkpt lat="44.44609" lon="5.15911">
        <ele>804.1</ele>
        <time>2022-10-16T09:12:38Z</time>
      </trkpt>
      <trkpt lat="44.44609" lon="5.15912">
        <ele>804</ele>
        <time>2022-10-16T09:12:36Z</time>
      </trkpt>
      <trkpt lat="44.4461" lon="5.15913">
        <ele>804.1</ele>
        <time>2022-10-16T09:12:35Z</time>
      </trkpt>
      <trkpt lat="44.4461" lon="5.15914">
        <ele>804</ele>
        <time>2022-10-16T09:12:34Z</time>
      </trkpt>
      <trkpt lat="44.4461" lon="5.15915">
        <ele>804</ele>
        <time>2022-10-16T09:12:33Z</time>
      </trkpt>
      <trkpt lat="44.4461" lon="5.15916">
        <ele>803.9</ele>
        <time>2022-10-16T09:12:32Z</time>
      </trkpt>
      <trkpt lat="44.4461" lon="5.15917">
        <ele>803.9</ele>
        <time>2022-10-16T09:12:31Z</time>
      </trkpt>
      <trkpt lat="44.4461" lon="5.15918">
        <ele>803.8</ele>
        <time>2022-10-16T09:12:30Z</time>
      </trkpt>
      <trkpt lat="44.4461" lon="5.15919">
        <ele>803.7</ele>
        <time>2022-10-16T09:12:29Z</time>
      </trkpt>
      <trkpt lat="44.44611" lon="5.1592">
        <ele>803.6</ele>
        <time>2022-10-16T09:12:28Z</time>
      </trkpt>
      <trkpt lat="44.44611" lon="5.15921">
        <ele>803.5</ele>
        <time>2022-10-16T09:12:26Z</time>
      </trkpt>
      <trkpt lat="44.44612" lon="5.15922">
        <ele>803.2</ele>
        <time>2022-10-16T09:12:25Z</time>
      </trkpt>
      <trkpt lat="44.44612" lon="5.15923">
        <ele>803.1</ele>
        <time>2022-10-16T09:12:24Z</time>
      </trkpt>
      <trkpt lat="44.44613" lon="5.15924">
        <ele>802.8</ele>
        <time>2022-10-16T09:12:22Z</time>
      </trkpt>
      <trkpt lat="44.44613" lon="5.15925">
        <ele>802.7</ele>
        <time>2022-10-16T09:12:21Z</time>
      </trkpt>
      <trkpt lat="44.44614" lon="5.15926">
        <ele>802.4</ele>
        <time>2022-10-16T09:12:20Z</time>
      </trkpt>
      <trkpt lat="44.44614" lon="5.15927">
        <ele>802.3</ele>
        <time>2022-10-16T09:12:19Z</time>
      </trkpt>
      <trkpt lat="44.44614" lon="5.15928">
        <ele>802.2</ele>
        <time>2022-10-16T09:12:18Z</time>
      </trkpt>
      <trkpt lat="44.44615" lon="5.15928">
        <ele>802</ele>
        <time>2022-10-16T09:12:17Z</time>
      </trkpt>
      <trkpt lat="44.44615" lon="5.15929">
        <ele>801.9</ele>
        <time>2022-10-16T09:12:16Z</time>
      </trkpt>
      <trkpt lat="44.44616" lon="5.1593">
        <ele>801.6</ele>
        <time>2022-10-16T09:12:15Z</time>
      </trkpt>
      <trkpt lat="44.44616" lon="5.15931">
        <ele>801.5</ele>
        <time>2022-10-16T09:12:14Z</time>
      </trkpt>
      <trkpt lat="44.44617" lon="5.15931">
        <ele>801.3</ele>
        <time>2022-10-16T09:12:13Z</time>
      </trkpt>
      <trkpt lat="44.44617" lon="5.15932">
        <ele>801.2</ele>
        <time>2022-10-16T09:12:12Z</time>
      </trkpt>
      <trkpt lat="44.44618" lon="5.15933">
        <ele>800.9</ele>
        <time>2022-10-16T09:12:11Z</time>
      </trkpt>
      <trkpt lat="44.44619" lon="5.15933">
        <ele>800.7</ele>
        <time>2022-10-16T09:12:10Z</time>
      </trkpt>
      <trkpt lat="44.44619" lon="5.15934">
        <ele>800.6</ele>
        <time>2022-10-16T09:12:09Z</time>
      </trkpt>
      <trkpt lat="44.4462" lon="5.15934">
        <ele>800.4</ele>
        <time>2022-10-16T09:12:08Z</time>
      </trkpt>
      <trkpt lat="44.44621" lon="5.15935">
        <ele>800.1</ele>
        <time>2022-10-16T09:12:07Z</time>
      </trkpt>
      <trkpt lat="44.44621" lon="5.15936">
        <ele>800</ele>
        <time>2022-10-16T09:12:06Z</time>
      </trkpt>
      <trkpt lat="44.44622" lon="5.15936">
        <ele>799.8</ele>
        <time>2022-10-16T09:12:05Z</time>
      </trkpt>
      <trkpt lat="44.44622" lon="5.15937">
        <ele>799.7</ele>
        <time>2022-10-16T09:12:04Z</time>
      </trkpt>
      <trkpt lat="44.44623" lon="5.15938">
        <ele>799.5</ele>
        <time>2022-10-16T09:12:02Z</time>
      </trkpt>
      <trkpt lat="44.44624" lon="5.15939">
        <ele>799.2</ele>
        <time>2022-10-16T09:12:01Z</time>
      </trkpt>
      <trkpt lat="44.44624" lon="5.1594">
        <ele>799.1</ele>
        <time>2022-10-16T09:12:00Z</time>
      </trkpt>
      <trkpt lat="44.44625" lon="5.1594">
        <ele>798.9</ele>
        <time>2022-10-16T09:11:59Z</time>
      </trkpt>
      <trkpt lat="44.44625" lon="5.15941">
        <ele>798.8</ele>
        <time>2022-10-16T09:11:58Z</time>
      </trkpt>
      <trkpt lat="44.44626" lon="5.15942">
        <ele>798.5</ele>
        <time>2022-10-16T09:11:57Z</time>
      </trkpt>
      <trkpt lat="44.44626" lon="5.15943">
        <ele>798.4</ele>
        <time>2022-10-16T09:11:56Z</time>
      </trkpt>
      <trkpt lat="44.44627" lon="5.15943">
        <ele>798.3</ele>
        <time>2022-10-16T09:11:55Z</time>
      </trkpt>
      <trkpt lat="44.44627" lon="5.15944">
        <ele>798.2</ele>
        <time>2022-10-16T09:11:54Z</time>
      </trkpt>
      <trkpt lat="44.44628" lon="5.15945">
        <ele>797.9</ele>
        <time>2022-10-16T09:11:53Z</time>
      </trkpt>
      <trkpt lat="44.44629" lon="5.15946">
        <ele>797.6</ele>
        <time>2022-10-16T09:11:52Z</time>
      </trkpt>
      <trkpt lat="44.44629" lon="5.15947">
        <ele>797.4</ele>
        <time>2022-10-16T09:11:50Z</time>
      </trkpt>
      <trkpt lat="44.4463" lon="5.15948">
        <ele>797.1</ele>
        <time>2022-10-16T09:11:49Z</time>
      </trkpt>
      <trkpt lat="44.44631" lon="5.15949">
        <ele>796.8</ele>
        <time>2022-10-16T09:11:48Z</time>
      </trkpt>
      <trkpt lat="44.44631" lon="5.1595">
        <ele>796.7</ele>
        <time>2022-10-16T09:11:47Z</time>
      </trkpt>
      <trkpt lat="44.44632" lon="5.15951">
        <ele>796.4</ele>
        <time>2022-10-16T09:11:46Z</time>
      </trkpt>
      <trkpt lat="44.44633" lon="5.15951">
        <ele>796.3</ele>
        <time>2022-10-16T09:11:45Z</time>
      </trkpt>
      <trkpt lat="44.44633" lon="5.15952">
        <ele>796.1</ele>
        <time>2022-10-16T09:11:43Z</time>
      </trkpt>
      <trkpt lat="44.44634" lon="5.15953">
        <ele>795.8</ele>
        <time>2022-10-16T09:11:42Z</time>
      </trkpt>
      <trkpt lat="44.44635" lon="5.15953">
        <ele>795.7</ele>
        <time>2022-10-16T09:11:41Z</time>
      </trkpt>
      <trkpt lat="44.44635" lon="5.15954">
        <ele>795.6</ele>
        <time>2022-10-16T09:11:40Z</time>
      </trkpt>
      <trkpt lat="44.44636" lon="5.15955">
        <ele>795.3</ele>
        <time>2022-10-16T09:11:38Z</time>
      </trkpt>
      <trkpt lat="44.44637" lon="5.15955">
        <ele>795.1</ele>
        <time>2022-10-16T09:11:37Z</time>
      </trkpt>
      <trkpt lat="44.44637" lon="5.15956">
        <ele>795</ele>
        <time>2022-10-16T09:11:36Z</time>
      </trkpt>
      <trkpt lat="44.44638" lon="5.15956">
        <ele>794.9</ele>
        <time>2022-10-16T09:11:35Z</time>
      </trkpt>
      <trkpt lat="44.44639" lon="5.15957">
        <ele>794.6</ele>
        <time>2022-10-16T09:11:33Z</time>
      </trkpt>
      <trkpt lat="44.4464" lon="5.15958">
        <ele>794.3</ele>
        <time>2022-10-16T09:11:32Z</time>
      </trkpt>
      <trkpt lat="44.44641" lon="5.15959">
        <ele>794</ele>
        <time>2022-10-16T09:11:31Z</time>
      </trkpt>
      <trkpt lat="44.44642" lon="5.1596">
        <ele>793.7</ele>
        <time>2022-10-16T09:11:21Z</time>
      </trkpt>
      <trkpt lat="44.44643" lon="5.15961">
        <ele>793.4</ele>
        <time>2022-10-16T09:11:19Z</time>
      </trkpt>
      <trkpt lat="44.44644" lon="5.15962">
        <ele>793</ele>
        <time>2022-10-16T09:11:18Z</time>
      </trkpt>
      <trkpt lat="44.44644" lon="5.15963">
        <ele>793</ele>
        <time>2022-10-16T09:11:17Z</time>
      </trkpt>
      <trkpt lat="44.44645" lon="5.15963">
        <ele>792.7</ele>
        <time>2022-10-16T09:11:16Z</time>
      </trkpt>
      <trkpt lat="44.44645" lon="5.15964">
        <ele>792.7</ele>
        <time>2022-10-16T09:11:15Z</time>
      </trkpt>
      <trkpt lat="44.44646" lon="5.15965">
        <ele>792.4</ele>
        <time>2022-10-16T09:11:14Z</time>
      </trkpt>
      <trkpt lat="44.44647" lon="5.15965">
        <ele>792.2</ele>
        <time>2022-10-16T09:11:13Z</time>
      </trkpt>
      <trkpt lat="44.44647" lon="5.15966">
        <ele>792.1</ele>
        <time>2022-10-16T09:11:12Z</time>
      </trkpt>
      <trkpt lat="44.44648" lon="5.15967">
        <ele>791.8</ele>
        <time>2022-10-16T09:11:11Z</time>
      </trkpt>
      <trkpt lat="44.44649" lon="5.15969">
        <ele>791.4</ele>
        <time>2022-10-16T09:10:58Z</time>
      </trkpt>
      <trkpt lat="44.4465" lon="5.1597">
        <ele>791.2</ele>
        <time>2022-10-16T09:10:56Z</time>
      </trkpt>
      <trkpt lat="44.44651" lon="5.15971">
        <ele>790.9</ele>
        <time>2022-10-16T09:10:55Z</time>
      </trkpt>
      <trkpt lat="44.44651" lon="5.15972">
        <ele>790.8</ele>
        <time>2022-10-16T09:10:54Z</time>
      </trkpt>
      <trkpt lat="44.44651" lon="5.15973">
        <ele>790.7</ele>
        <time>2022-10-16T09:10:53Z</time>
      </trkpt>
      <trkpt lat="44.44652" lon="5.15973">
        <ele>790.5</ele>
        <time>2022-10-16T09:10:52Z</time>
      </trkpt>
      <trkpt lat="44.44652" lon="5.15974">
        <ele>790.3</ele>
        <time>2022-10-16T09:10:51Z</time>
      </trkpt>
      <trkpt lat="44.44652" lon="5.15975">
        <ele>790.1</ele>
        <time>2022-10-16T09:10:50Z</time>
      </trkpt>
      <trkpt lat="44.44653" lon="5.15975">
        <ele>790</ele>
        <time>2022-10-16T09:10:49Z</time>
      </trkpt>
      <trkpt lat="44.44653" lon="5.15976">
        <ele>789.8</ele>
        <time>2022-10-16T09:10:48Z</time>
      </trkpt>
      <trkpt lat="44.44654" lon="5.15977">
        <ele>789.4</ele>
        <time>2022-10-16T09:10:46Z</time>
      </trkpt>
      <trkpt lat="44.44655" lon="5.15978">
        <ele>789.1</ele>
        <time>2022-10-16T09:10:44Z</time>
      </trkpt>
      <trkpt lat="44.44656" lon="5.15979">
        <ele>788.8</ele>
        <time>2022-10-16T09:10:42Z</time>
      </trkpt>
      <trkpt lat="44.44657" lon="5.15979">
        <ele>788.6</ele>
        <time>2022-10-16T09:10:41Z</time>
      </trkpt>
      <trkpt lat="44.44658" lon="5.1598">
        <ele>788.3</ele>
        <time>2022-10-16T09:10:39Z</time>
      </trkpt>
      <trkpt lat="44.44659" lon="5.1598">
        <ele>788.1</ele>
        <time>2022-10-16T09:10:37Z</time>
      </trkpt>
      <trkpt lat="44.4466" lon="5.1598">
        <ele>787.9</ele>
        <time>2022-10-16T09:10:36Z</time>
      </trkpt>
      <trkpt lat="44.44661" lon="5.15981">
        <ele>787.6</ele>
        <time>2022-10-16T09:10:35Z</time>
      </trkpt>
      <trkpt lat="44.44662" lon="5.15981">
        <ele>787.5</ele>
        <time>2022-10-16T09:10:33Z</time>
      </trkpt>
      <trkpt lat="44.44662" lon="5.15982">
        <ele>787.3</ele>
        <time>2022-10-16T09:10:32Z</time>
      </trkpt>
      <trkpt lat="44.44663" lon="5.15982">
        <ele>787.2</ele>
        <time>2022-10-16T09:10:31Z</time>
      </trkpt>
      <trkpt lat="44.44664" lon="5.15982">
        <ele>787</ele>
        <time>2022-10-16T09:10:30Z</time>
      </trkpt>
      <trkpt lat="44.44664" lon="5.15983">
        <ele>786.9</ele>
        <time>2022-10-16T09:10:29Z</time>
      </trkpt>
      <trkpt lat="44.44665" lon="5.15983">
        <ele>786.7</ele>
        <time>2022-10-16T09:10:28Z</time>
      </trkpt>
      <trkpt lat="44.44666" lon="5.15984">
        <ele>786.4</ele>
        <time>2022-10-16T09:10:26Z</time>
      </trkpt>
      <trkpt lat="44.44667" lon="5.15984">
        <ele>786.2</ele>
        <time>2022-10-16T09:10:25Z</time>
      </trkpt>
      <trkpt lat="44.44667" lon="5.15985">
        <ele>786.1</ele>
        <time>2022-10-16T09:10:24Z</time>
      </trkpt>
      <trkpt lat="44.44668" lon="5.15985">
        <ele>785.8</ele>
        <time>2022-10-16T09:10:23Z</time>
      </trkpt>
      <trkpt lat="44.44668" lon="5.15986">
        <ele>785.7</ele>
        <time>2022-10-16T09:10:22Z</time>
      </trkpt>
      <trkpt lat="44.44669" lon="5.15986">
        <ele>785.5</ele>
        <time>2022-10-16T09:10:21Z</time>
      </trkpt>
      <trkpt lat="44.44669" lon="5.15987">
        <ele>785.3</ele>
        <time>2022-10-16T09:10:20Z</time>
      </trkpt>
      <trkpt lat="44.44669" lon="5.15988">
        <ele>785.2</ele>
        <time>2022-10-16T09:10:19Z</time>
      </trkpt>
      <trkpt lat="44.4467" lon="5.15988">
        <ele>785</ele>
        <time>2022-10-16T09:10:18Z</time>
      </trkpt>
      <trkpt lat="44.4467" lon="5.15989">
        <ele>784.9</ele>
        <time>2022-10-16T09:10:17Z</time>
      </trkpt>
      <trkpt lat="44.44671" lon="5.1599">
        <ele>784.5</ele>
        <time>2022-10-16T09:10:16Z</time>
      </trkpt>
      <trkpt lat="44.44671" lon="5.15991">
        <ele>784.4</ele>
        <time>2022-10-16T09:10:15Z</time>
      </trkpt>
      <trkpt lat="44.44671" lon="5.15992">
        <ele>784.3</ele>
        <time>2022-10-16T09:10:14Z</time>
      </trkpt>
      <trkpt lat="44.44672" lon="5.15993">
        <ele>784</ele>
        <time>2022-10-16T09:10:13Z</time>
      </trkpt>
      <trkpt lat="44.44672" lon="5.15994">
        <ele>783.9</ele>
        <time>2022-10-16T09:10:12Z</time>
      </trkpt>
      <trkpt lat="44.44672" lon="5.15995">
        <ele>783.8</ele>
        <time>2022-10-16T09:10:11Z</time>
      </trkpt>
      <trkpt lat="44.44673" lon="5.15995">
        <ele>783.6</ele>
        <time>2022-10-16T09:10:10Z</time>
      </trkpt>
      <trkpt lat="44.44673" lon="5.15996">
        <ele>783.5</ele>
        <time>2022-10-16T09:10:09Z</time>
      </trkpt>
      <trkpt lat="44.44674" lon="5.15997">
        <ele>783.2</ele>
        <time>2022-10-16T09:10:08Z</time>
      </trkpt>
      <trkpt lat="44.44674" lon="5.15998">
        <ele>783.1</ele>
        <time>2022-10-16T09:10:07Z</time>
      </trkpt>
      <trkpt lat="44.44675" lon="5.15999">
        <ele>782.9</ele>
        <time>2022-10-16T09:10:05Z</time>
      </trkpt>
      <trkpt lat="44.44676" lon="5.16">
        <ele>782.7</ele>
        <time>2022-10-16T09:10:04Z</time>
      </trkpt>
      <trkpt lat="44.44676" lon="5.16001">
        <ele>782.5</ele>
        <time>2022-10-16T09:10:03Z</time>
      </trkpt>
      <trkpt lat="44.44677" lon="5.16002">
        <ele>782.2</ele>
        <time>2022-10-16T09:10:02Z</time>
      </trkpt>
      <trkpt lat="44.44677" lon="5.16003">
        <ele>782</ele>
        <time>2022-10-16T09:10:01Z</time>
      </trkpt>
      <trkpt lat="44.44678" lon="5.16004">
        <ele>781.7</ele>
        <time>2022-10-16T09:10:00Z</time>
      </trkpt>
      <trkpt lat="44.44678" lon="5.16005">
        <ele>781.6</ele>
        <time>2022-10-16T09:09:58Z</time>
      </trkpt>
      <trkpt lat="44.44679" lon="5.16006">
        <ele>781.3</ele>
        <time>2022-10-16T09:09:57Z</time>
      </trkpt>
      <trkpt lat="44.44679" lon="5.16007">
        <ele>781.2</ele>
        <time>2022-10-16T09:09:56Z</time>
      </trkpt>
      <trkpt lat="44.4468" lon="5.16008">
        <ele>780.9</ele>
        <time>2022-10-16T09:09:55Z</time>
      </trkpt>
      <trkpt lat="44.4468" lon="5.16009">
        <ele>780.8</ele>
        <time>2022-10-16T09:09:54Z</time>
      </trkpt>
      <trkpt lat="44.44681" lon="5.1601">
        <ele>780.5</ele>
        <time>2022-10-16T09:09:53Z</time>
      </trkpt>
      <trkpt lat="44.44681" lon="5.16011">
        <ele>780.4</ele>
        <time>2022-10-16T09:09:52Z</time>
      </trkpt>
      <trkpt lat="44.44681" lon="5.16012">
        <ele>780.2</ele>
        <time>2022-10-16T09:09:51Z</time>
      </trkpt>
      <trkpt lat="44.44682" lon="5.16012">
        <ele>780.2</ele>
        <time>2022-10-16T09:09:50Z</time>
      </trkpt>
      <trkpt lat="44.44683" lon="5.16013">
        <ele>779.9</ele>
        <time>2022-10-16T09:09:49Z</time>
      </trkpt>
      <trkpt lat="44.44683" lon="5.16014">
        <ele>779.8</ele>
        <time>2022-10-16T09:09:48Z</time>
      </trkpt>
      <trkpt lat="44.44684" lon="5.16015">
        <ele>779.6</ele>
        <time>2022-10-16T09:09:47Z</time>
      </trkpt>
      <trkpt lat="44.44685" lon="5.16015">
        <ele>779.5</ele>
        <time>2022-10-16T09:09:46Z</time>
      </trkpt>
      <trkpt lat="44.44685" lon="5.16016">
        <ele>779.4</ele>
        <time>2022-10-16T09:09:45Z</time>
      </trkpt>
      <trkpt lat="44.44686" lon="5.16017">
        <ele>779.2</ele>
        <time>2022-10-16T09:09:44Z</time>
      </trkpt>
      <trkpt lat="44.44686" lon="5.16018">
        <ele>779.1</ele>
        <time>2022-10-16T09:09:43Z</time>
      </trkpt>
      <trkpt lat="44.44686" lon="5.1602">
        <ele>778.9</ele>
        <time>2022-10-16T09:09:42Z</time>
      </trkpt>
      <trkpt lat="44.44687" lon="5.1602">
        <ele>778.9</ele>
        <time>2022-10-16T09:09:41Z</time>
      </trkpt>
      <trkpt lat="44.44687" lon="5.16021">
        <ele>778.7</ele>
        <time>2022-10-16T09:09:40Z</time>
      </trkpt>
      <trkpt lat="44.44688" lon="5.16022">
        <ele>778.6</ele>
        <time>2022-10-16T09:09:39Z</time>
      </trkpt>
      <trkpt lat="44.44688" lon="5.16023">
        <ele>778.5</ele>
        <time>2022-10-16T09:09:38Z</time>
      </trkpt>
      <trkpt lat="44.44688" lon="5.16024">
        <ele>778.4</ele>
        <time>2022-10-16T09:09:37Z</time>
      </trkpt>
      <trkpt lat="44.44689" lon="5.16024">
        <ele>778.4</ele>
        <time>2022-10-16T09:09:36Z</time>
      </trkpt>
      <trkpt lat="44.44689" lon="5.16025">
        <ele>778.3</ele>
        <time>2022-10-16T09:09:35Z</time>
      </trkpt>
      <trkpt lat="44.4469" lon="5.16026">
        <ele>778.2</ele>
        <time>2022-10-16T09:09:34Z</time>
      </trkpt>
      <trkpt lat="44.4469" lon="5.16027">
        <ele>778.1</ele>
        <time>2022-10-16T09:09:33Z</time>
      </trkpt>
      <trkpt lat="44.4469" lon="5.16028">
        <ele>778</ele>
        <time>2022-10-16T09:09:32Z</time>
      </trkpt>
      <trkpt lat="44.44691" lon="5.16029">
        <ele>777.8</ele>
        <time>2022-10-16T09:09:31Z</time>
      </trkpt>
      <trkpt lat="44.44691" lon="5.1603">
        <ele>777.6</ele>
        <time>2022-10-16T09:09:30Z</time>
      </trkpt>
      <trkpt lat="44.44692" lon="5.1603">
        <ele>777.6</ele>
        <time>2022-10-16T09:09:29Z</time>
      </trkpt>
      <trkpt lat="44.44692" lon="5.16031">
        <ele>777.4</ele>
        <time>2022-10-16T09:09:28Z</time>
      </trkpt>
      <trkpt lat="44.44692" lon="5.16032">
        <ele>777.2</ele>
        <time>2022-10-16T09:09:27Z</time>
      </trkpt>
      <trkpt lat="44.44693" lon="5.16033">
        <ele>777</ele>
        <time>2022-10-16T09:09:26Z</time>
      </trkpt>
      <trkpt lat="44.44693" lon="5.16034">
        <ele>776.8</ele>
        <time>2022-10-16T09:09:25Z</time>
      </trkpt>
      <trkpt lat="44.44693" lon="5.16035">
        <ele>776.7</ele>
        <time>2022-10-16T09:09:24Z</time>
      </trkpt>
      <trkpt lat="44.44694" lon="5.16035">
        <ele>776.7</ele>
        <time>2022-10-16T09:09:23Z</time>
      </trkpt>
      <trkpt lat="44.44694" lon="5.16036">
        <ele>776.5</ele>
        <time>2022-10-16T09:09:22Z</time>
      </trkpt>
      <trkpt lat="44.44694" lon="5.16037">
        <ele>776.3</ele>
        <time>2022-10-16T09:09:21Z</time>
      </trkpt>
      <trkpt lat="44.44695" lon="5.16038">
        <ele>776.1</ele>
        <time>2022-10-16T09:09:20Z</time>
      </trkpt>
      <trkpt lat="44.44695" lon="5.16039">
        <ele>775.9</ele>
        <time>2022-10-16T09:09:19Z</time>
      </trkpt>
      <trkpt lat="44.44695" lon="5.1604">
        <ele>775.7</ele>
        <time>2022-10-16T09:09:18Z</time>
      </trkpt>
      <trkpt lat="44.44696" lon="5.16041">
        <ele>775.4</ele>
        <time>2022-10-16T09:09:16Z</time>
      </trkpt>
      <trkpt lat="44.44697" lon="5.16042">
        <ele>775.2</ele>
        <time>2022-10-16T09:09:15Z</time>
      </trkpt>
      <trkpt lat="44.44697" lon="5.16043">
        <ele>775</ele>
        <time>2022-10-16T09:09:14Z</time>
      </trkpt>
      <trkpt lat="44.44698" lon="5.16044">
        <ele>774.8</ele>
        <time>2022-10-16T09:09:13Z</time>
      </trkpt>
      <trkpt lat="44.44698" lon="5.16045">
        <ele>774.6</ele>
        <time>2022-10-16T09:09:12Z</time>
      </trkpt>
      <trkpt lat="44.44699" lon="5.16046">
        <ele>774.4</ele>
        <time>2022-10-16T09:09:11Z</time>
      </trkpt>
      <trkpt lat="44.44699" lon="5.16047">
        <ele>774.2</ele>
        <time>2022-10-16T09:09:10Z</time>
      </trkpt>
      <trkpt lat="44.447" lon="5.16048">
        <ele>774</ele>
        <time>2022-10-16T09:09:09Z</time>
      </trkpt>
      <trkpt lat="44.447" lon="5.16049">
        <ele>773.9</ele>
        <time>2022-10-16T09:09:08Z</time>
      </trkpt>
      <trkpt lat="44.447" lon="5.1605">
        <ele>773.8</ele>
        <time>2022-10-16T09:09:07Z</time>
      </trkpt>
      <trkpt lat="44.44701" lon="5.16051">
        <ele>773.6</ele>
        <time>2022-10-16T09:09:06Z</time>
      </trkpt>
      <trkpt lat="44.44701" lon="5.16052">
        <ele>773.5</ele>
        <time>2022-10-16T09:09:04Z</time>
      </trkpt>
      <trkpt lat="44.44702" lon="5.16053">
        <ele>773.3</ele>
        <time>2022-10-16T09:09:03Z</time>
      </trkpt>
      <trkpt lat="44.44702" lon="5.16054">
        <ele>773.2</ele>
        <time>2022-10-16T09:09:02Z</time>
      </trkpt>
      <trkpt lat="44.44702" lon="5.16055">
        <ele>773.1</ele>
        <time>2022-10-16T09:09:00Z</time>
      </trkpt>
      <trkpt lat="44.44702" lon="5.16056">
        <ele>773</ele>
        <time>2022-10-16T09:08:59Z</time>
      </trkpt>
      <trkpt lat="44.44701" lon="5.16057">
        <ele>773</ele>
        <time>2022-10-16T09:07:42Z</time>
      </trkpt>
      <trkpt lat="44.447" lon="5.16058">
        <ele>772.9</ele>
        <time>2022-10-16T09:07:41Z</time>
      </trkpt>
      <trkpt lat="44.44699" lon="5.16058">
        <ele>772.9</ele>
        <time>2022-10-16T09:07:39Z</time>
      </trkpt>
      <trkpt lat="44.44698" lon="5.16058">
        <ele>772.9</ele>
        <time>2022-10-16T09:07:38Z</time>
      </trkpt>
      <trkpt lat="44.44698" lon="5.16059">
        <ele>772.8</ele>
        <time>2022-10-16T09:07:37Z</time>
      </trkpt>
      <trkpt lat="44.44697" lon="5.16059">
        <ele>772.8</ele>
        <time>2022-10-16T09:07:36Z</time>
      </trkpt>
      <trkpt lat="44.44696" lon="5.16059">
        <ele>772.8</ele>
        <time>2022-10-16T09:07:35Z</time>
      </trkpt>
      <trkpt lat="44.44695" lon="5.1606">
        <ele>772.7</ele>
        <time>2022-10-16T09:07:32Z</time>
      </trkpt>
      <trkpt lat="44.44694" lon="5.1606">
        <ele>772.6</ele>
        <time>2022-10-16T09:07:30Z</time>
      </trkpt>
      <trkpt lat="44.44693" lon="5.1606">
        <ele>772.5</ele>
        <time>2022-10-16T09:07:29Z</time>
      </trkpt>
      <trkpt lat="44.44692" lon="5.1606">
        <ele>772.3</ele>
        <time>2022-10-16T09:07:28Z</time>
      </trkpt>
      <trkpt lat="44.44691" lon="5.1606">
        <ele>772.2</ele>
        <time>2022-10-16T09:07:27Z</time>
      </trkpt>
      <trkpt lat="44.44691" lon="5.16059">
        <ele>772.3</ele>
        <time>2022-10-16T09:07:26Z</time>
      </trkpt>
      <trkpt lat="44.4469" lon="5.16059">
        <ele>772.2</ele>
        <time>2022-10-16T09:07:25Z</time>
      </trkpt>
      <trkpt lat="44.44689" lon="5.16059">
        <ele>772</ele>
        <time>2022-10-16T09:07:24Z</time>
      </trkpt>
      <trkpt lat="44.44687" lon="5.16059">
        <ele>771.7</ele>
        <time>2022-10-16T09:07:18Z</time>
      </trkpt>
      <trkpt lat="44.44686" lon="5.16059">
        <ele>771.6</ele>
        <time>2022-10-16T09:07:17Z</time>
      </trkpt>
      <trkpt lat="44.44685" lon="5.16058">
        <ele>771.6</ele>
        <time>2022-10-16T09:07:16Z</time>
      </trkpt>
      <trkpt lat="44.44684" lon="5.16058">
        <ele>771.5</ele>
        <time>2022-10-16T09:07:15Z</time>
      </trkpt>
      <trkpt lat="44.44683" lon="5.16058">
        <ele>771.4</ele>
        <time>2022-10-16T09:07:14Z</time>
      </trkpt>
      <trkpt lat="44.44682" lon="5.16057">
        <ele>771.4</ele>
        <time>2022-10-16T09:07:13Z</time>
      </trkpt>
      <trkpt lat="44.44681" lon="5.16057">
        <ele>771.3</ele>
        <time>2022-10-16T09:07:12Z</time>
      </trkpt>
      <trkpt lat="44.4468" lon="5.16056">
        <ele>771.4</ele>
        <time>2022-10-16T09:07:11Z</time>
      </trkpt>
      <trkpt lat="44.44679" lon="5.16056">
        <ele>771.2</ele>
        <time>2022-10-16T09:07:10Z</time>
      </trkpt>
      <trkpt lat="44.44678" lon="5.16055">
        <ele>771.4</ele>
        <time>2022-10-16T09:07:09Z</time>
      </trkpt>
      <trkpt lat="44.44676" lon="5.16054">
        <ele>771.4</ele>
        <time>2022-10-16T09:06:37Z</time>
      </trkpt>
      <trkpt lat="44.44675" lon="5.16053">
        <ele>771.6</ele>
        <time>2022-10-16T09:06:35Z</time>
      </trkpt>
      <trkpt lat="44.44674" lon="5.16053">
        <ele>771.5</ele>
        <time>2022-10-16T09:06:34Z</time>
      </trkpt>
      <trkpt lat="44.44673" lon="5.16052">
        <ele>771.6</ele>
        <time>2022-10-16T09:06:32Z</time>
      </trkpt>
      <trkpt lat="44.44672" lon="5.16052">
        <ele>771.5</ele>
        <time>2022-10-16T09:06:31Z</time>
      </trkpt>
      <trkpt lat="44.44671" lon="5.16051">
        <ele>771.7</ele>
        <time>2022-10-16T09:06:30Z</time>
      </trkpt>
      <trkpt lat="44.4467" lon="5.16051">
        <ele>771.6</ele>
        <time>2022-10-16T09:06:29Z</time>
      </trkpt>
      <trkpt lat="44.44669" lon="5.16051">
        <ele>771.5</ele>
        <time>2022-10-16T09:06:28Z</time>
      </trkpt>
      <trkpt lat="44.44668" lon="5.16051">
        <ele>771.4</ele>
        <time>2022-10-16T09:06:27Z</time>
      </trkpt>
      <trkpt lat="44.44667" lon="5.16051">
        <ele>771.3</ele>
        <time>2022-10-16T09:06:26Z</time>
      </trkpt>
      <trkpt lat="44.44666" lon="5.16051">
        <ele>771.3</ele>
        <time>2022-10-16T09:06:25Z</time>
      </trkpt>
      <trkpt lat="44.44665" lon="5.16051">
        <ele>771.2</ele>
        <time>2022-10-16T09:06:24Z</time>
      </trkpt>
      <trkpt lat="44.44664" lon="5.1605">
        <ele>771.4</ele>
        <time>2022-10-16T09:06:23Z</time>
      </trkpt>
      <trkpt lat="44.44663" lon="5.1605">
        <ele>771.3</ele>
        <time>2022-10-16T09:06:22Z</time>
      </trkpt>
      <trkpt lat="44.44662" lon="5.1605">
        <ele>771.2</ele>
        <time>2022-10-16T09:06:21Z</time>
      </trkpt>
      <trkpt lat="44.4466" lon="5.1605">
        <ele>771</ele>
        <time>2022-10-16T09:06:20Z</time>
      </trkpt>
      <trkpt lat="44.44659" lon="5.16049">
        <ele>771.3</ele>
        <time>2022-10-16T09:06:19Z</time>
      </trkpt>
      <trkpt lat="44.44658" lon="5.16049">
        <ele>771.2</ele>
        <time>2022-10-16T09:06:18Z</time>
      </trkpt>
      <trkpt lat="44.44657" lon="5.16049">
        <ele>771.1</ele>
        <time>2022-10-16T09:06:17Z</time>
      </trkpt>
      <trkpt lat="44.44656" lon="5.16049">
        <ele>771</ele>
        <time>2022-10-16T09:06:16Z</time>
      </trkpt>
      <trkpt lat="44.44655" lon="5.16049">
        <ele>770.9</ele>
        <time>2022-10-16T09:06:15Z</time>
      </trkpt>
      <trkpt lat="44.44654" lon="5.16048">
        <ele>771.2</ele>
        <time>2022-10-16T09:06:14Z</time>
      </trkpt>
      <trkpt lat="44.44653" lon="5.16048">
        <ele>771.1</ele>
        <time>2022-10-16T09:06:13Z</time>
      </trkpt>
      <trkpt lat="44.44652" lon="5.16048">
        <ele>771</ele>
        <time>2022-10-16T09:06:12Z</time>
      </trkpt>
      <trkpt lat="44.44651" lon="5.16048">
        <ele>770.9</ele>
        <time>2022-10-16T09:06:11Z</time>
      </trkpt>
      <trkpt lat="44.4465" lon="5.16048">
        <ele>770.9</ele>
        <time>2022-10-16T09:06:10Z</time>
      </trkpt>
      <trkpt lat="44.44649" lon="5.16048">
        <ele>770.8</ele>
        <time>2022-10-16T09:06:09Z</time>
      </trkpt>
      <trkpt lat="44.44648" lon="5.16048">
        <ele>770.7</ele>
        <time>2022-10-16T09:06:08Z</time>
      </trkpt>
      <trkpt lat="44.44647" lon="5.16049">
        <ele>770.3</ele>
        <time>2022-10-16T09:06:07Z</time>
      </trkpt>
      <trkpt lat="44.44646" lon="5.16049">
        <ele>770.2</ele>
        <time>2022-10-16T09:06:06Z</time>
      </trkpt>
      <trkpt lat="44.44645" lon="5.16049">
        <ele>770.1</ele>
        <time>2022-10-16T09:06:05Z</time>
      </trkpt>
      <trkpt lat="44.44644" lon="5.16049">
        <ele>770</ele>
        <time>2022-10-16T09:06:04Z</time>
      </trkpt>
      <trkpt lat="44.44642" lon="5.16049">
        <ele>769.9</ele>
        <time>2022-10-16T09:06:03Z</time>
      </trkpt>
      <trkpt lat="44.44641" lon="5.16049">
        <ele>769.8</ele>
        <time>2022-10-16T09:06:02Z</time>
      </trkpt>
      <trkpt lat="44.4464" lon="5.1605">
        <ele>769.3</ele>
        <time>2022-10-16T09:06:01Z</time>
      </trkpt>
      <trkpt lat="44.44639" lon="5.1605">
        <ele>769.2</ele>
        <time>2022-10-16T09:06:00Z</time>
      </trkpt>
      <trkpt lat="44.44638" lon="5.1605">
        <ele>769.1</ele>
        <time>2022-10-16T09:05:59Z</time>
      </trkpt>
      <trkpt lat="44.44637" lon="5.1605">
        <ele>769.1</ele>
        <time>2022-10-16T09:05:58Z</time>
      </trkpt>
      <trkpt lat="44.44636" lon="5.1605">
        <ele>769</ele>
        <time>2022-10-16T09:05:57Z</time>
      </trkpt>
      <trkpt lat="44.44635" lon="5.1605">
        <ele>768.9</ele>
        <time>2022-10-16T09:05:55Z</time>
      </trkpt>
      <trkpt lat="44.44634" lon="5.16051">
        <ele>768.5</ele>
        <time>2022-10-16T09:05:54Z</time>
      </trkpt>
      <trkpt lat="44.44632" lon="5.16051">
        <ele>768.3</ele>
        <time>2022-10-16T09:05:53Z</time>
      </trkpt>
      <trkpt lat="44.44631" lon="5.16051">
        <ele>768.3</ele>
        <time>2022-10-16T09:05:52Z</time>
      </trkpt>
      <trkpt lat="44.4463" lon="5.16051">
        <ele>768.2</ele>
        <time>2022-10-16T09:05:51Z</time>
      </trkpt>
      <trkpt lat="44.44629" lon="5.16051">
        <ele>768.2</ele>
        <time>2022-10-16T09:05:50Z</time>
      </trkpt>
      <trkpt lat="44.44628" lon="5.16051">
        <ele>768.1</ele>
        <time>2022-10-16T09:05:49Z</time>
      </trkpt>
      <trkpt lat="44.44627" lon="5.16051">
        <ele>768</ele>
        <time>2022-10-16T09:05:48Z</time>
      </trkpt>
      <trkpt lat="44.44626" lon="5.16051">
        <ele>768</ele>
        <time>2022-10-16T09:05:47Z</time>
      </trkpt>
      <trkpt lat="44.44625" lon="5.1605">
        <ele>768.3</ele>
        <time>2022-10-16T09:05:46Z</time>
      </trkpt>
      <trkpt lat="44.44624" lon="5.1605">
        <ele>768.2</ele>
        <time>2022-10-16T09:05:45Z</time>
      </trkpt>
      <trkpt lat="44.44623" lon="5.1605">
        <ele>768.2</ele>
        <time>2022-10-16T09:05:44Z</time>
      </trkpt>
      <trkpt lat="44.44621" lon="5.1605">
        <ele>768</ele>
        <time>2022-10-16T09:05:43Z</time>
      </trkpt>
      <trkpt lat="44.4462" lon="5.1605">
        <ele>768</ele>
        <time>2022-10-16T09:05:42Z</time>
      </trkpt>
      <trkpt lat="44.44619" lon="5.1605">
        <ele>767.9</ele>
        <time>2022-10-16T09:05:41Z</time>
      </trkpt>
      <trkpt lat="44.44618" lon="5.1605">
        <ele>767.8</ele>
        <time>2022-10-16T09:05:40Z</time>
      </trkpt>
      <trkpt lat="44.44616" lon="5.1605">
        <ele>767.7</ele>
        <time>2022-10-16T09:05:39Z</time>
      </trkpt>
      <trkpt lat="44.44615" lon="5.1605">
        <ele>767.7</ele>
        <time>2022-10-16T09:05:38Z</time>
      </trkpt>
      <trkpt lat="44.44614" lon="5.1605">
        <ele>767.6</ele>
        <time>2022-10-16T09:05:37Z</time>
      </trkpt>
      <trkpt lat="44.44613" lon="5.1605">
        <ele>767.5</ele>
        <time>2022-10-16T09:05:36Z</time>
      </trkpt>
      <trkpt lat="44.44612" lon="5.1605">
        <ele>767.5</ele>
        <time>2022-10-16T09:05:35Z</time>
      </trkpt>
      <trkpt lat="44.44611" lon="5.1605">
        <ele>767.4</ele>
        <time>2022-10-16T09:05:34Z</time>
      </trkpt>
      <trkpt lat="44.4461" lon="5.1605">
        <ele>767.3</ele>
        <time>2022-10-16T09:05:33Z</time>
      </trkpt>
      <trkpt lat="44.44609" lon="5.1605">
        <ele>767.2</ele>
        <time>2022-10-16T09:05:32Z</time>
      </trkpt>
      <trkpt lat="44.44608" lon="5.16049">
        <ele>767.5</ele>
        <time>2022-10-16T09:05:31Z</time>
      </trkpt>
      <trkpt lat="44.44607" lon="5.16049">
        <ele>767.4</ele>
        <time>2022-10-16T09:05:30Z</time>
      </trkpt>
      <trkpt lat="44.44606" lon="5.16049">
        <ele>767.3</ele>
        <time>2022-10-16T09:05:29Z</time>
      </trkpt>
      <trkpt lat="44.44605" lon="5.16049">
        <ele>767.2</ele>
        <time>2022-10-16T09:05:28Z</time>
      </trkpt>
      <trkpt lat="44.44604" lon="5.16049">
        <ele>767.1</ele>
        <time>2022-10-16T09:05:27Z</time>
      </trkpt>
      <trkpt lat="44.44603" lon="5.16049">
        <ele>767</ele>
        <time>2022-10-16T09:05:26Z</time>
      </trkpt>
      <trkpt lat="44.44602" lon="5.16049">
        <ele>766.8</ele>
        <time>2022-10-16T09:05:25Z</time>
      </trkpt>
      <trkpt lat="44.44601" lon="5.16048">
        <ele>767.2</ele>
        <time>2022-10-16T09:05:24Z</time>
      </trkpt>
      <trkpt lat="44.446" lon="5.16048">
        <ele>767.1</ele>
        <time>2022-10-16T09:05:22Z</time>
      </trkpt>
      <trkpt lat="44.44599" lon="5.16048">
        <ele>767</ele>
        <time>2022-10-16T09:05:21Z</time>
      </trkpt>
      <trkpt lat="44.44598" lon="5.16047">
        <ele>767.3</ele>
        <time>2022-10-16T09:05:20Z</time>
      </trkpt>
      <trkpt lat="44.44597" lon="5.16047">
        <ele>767.2</ele>
        <time>2022-10-16T09:05:19Z</time>
      </trkpt>
      <trkpt lat="44.44596" lon="5.16047">
        <ele>767.1</ele>
        <time>2022-10-16T09:05:18Z</time>
      </trkpt>
      <trkpt lat="44.44595" lon="5.16047">
        <ele>767</ele>
        <time>2022-10-16T09:05:17Z</time>
      </trkpt>
      <trkpt lat="44.44594" lon="5.16047">
        <ele>766.8</ele>
        <time>2022-10-16T09:05:16Z</time>
      </trkpt>
      <trkpt lat="44.44593" lon="5.16047">
        <ele>766.7</ele>
        <time>2022-10-16T09:05:15Z</time>
      </trkpt>
      <trkpt lat="44.44592" lon="5.16047">
        <ele>766.6</ele>
        <time>2022-10-16T09:05:14Z</time>
      </trkpt>
      <trkpt lat="44.44591" lon="5.16047">
        <ele>766.5</ele>
        <time>2022-10-16T09:05:13Z</time>
      </trkpt>
      <trkpt lat="44.4459" lon="5.16047">
        <ele>766.4</ele>
        <time>2022-10-16T09:05:12Z</time>
      </trkpt>
      <trkpt lat="44.44589" lon="5.16047">
        <ele>766.3</ele>
        <time>2022-10-16T09:05:11Z</time>
      </trkpt>
      <trkpt lat="44.44589" lon="5.16046">
        <ele>766.7</ele>
        <time>2022-10-16T09:05:10Z</time>
      </trkpt>
      <trkpt lat="44.44588" lon="5.16046">
        <ele>766.6</ele>
        <time>2022-10-16T09:05:09Z</time>
      </trkpt>
      <trkpt lat="44.44587" lon="5.16046">
        <ele>766.5</ele>
        <time>2022-10-16T09:05:08Z</time>
      </trkpt>
      <trkpt lat="44.44586" lon="5.16047">
        <ele>766</ele>
        <time>2022-10-16T09:05:07Z</time>
      </trkpt>
      <trkpt lat="44.44585" lon="5.16047">
        <ele>765.9</ele>
        <time>2022-10-16T09:05:06Z</time>
      </trkpt>
      <trkpt lat="44.44584" lon="5.16047">
        <ele>765.8</ele>
        <time>2022-10-16T09:05:04Z</time>
      </trkpt>
      <trkpt lat="44.44583" lon="5.16047">
        <ele>765.6</ele>
        <time>2022-10-16T09:05:03Z</time>
      </trkpt>
      <trkpt lat="44.44582" lon="5.16047">
        <ele>765.4</ele>
        <time>2022-10-16T09:05:02Z</time>
      </trkpt>
      <trkpt lat="44.44581" lon="5.16048">
        <ele>764.8</ele>
        <time>2022-10-16T09:05:01Z</time>
      </trkpt>
      <trkpt lat="44.4458" lon="5.16048">
        <ele>764.6</ele>
        <time>2022-10-16T09:05:00Z</time>
      </trkpt>
      <trkpt lat="44.44579" lon="5.16048">
        <ele>764.4</ele>
        <time>2022-10-16T09:04:59Z</time>
      </trkpt>
      <trkpt lat="44.44578" lon="5.16048">
        <ele>764.1</ele>
        <time>2022-10-16T09:04:57Z</time>
      </trkpt>
      <trkpt lat="44.44577" lon="5.16048">
        <ele>763.9</ele>
        <time>2022-10-16T09:04:56Z</time>
      </trkpt>
      <trkpt lat="44.44576" lon="5.16048">
        <ele>763.7</ele>
        <time>2022-10-16T09:04:55Z</time>
      </trkpt>
      <trkpt lat="44.44575" lon="5.16048">
        <ele>763.5</ele>
        <time>2022-10-16T09:04:54Z</time>
      </trkpt>
      <trkpt lat="44.44574" lon="5.16048">
        <ele>763.3</ele>
        <time>2022-10-16T09:04:53Z</time>
      </trkpt>
      <trkpt lat="44.44573" lon="5.16047">
        <ele>763.5</ele>
        <time>2022-10-16T09:04:52Z</time>
      </trkpt>
      <trkpt lat="44.44572" lon="5.16047">
        <ele>763.3</ele>
        <time>2022-10-16T09:04:51Z</time>
      </trkpt>
      <trkpt lat="44.44571" lon="5.16047">
        <ele>763.1</ele>
        <time>2022-10-16T09:04:50Z</time>
      </trkpt>
      <trkpt lat="44.4457" lon="5.16047">
        <ele>762.9</ele>
        <time>2022-10-16T09:04:49Z</time>
      </trkpt>
      <trkpt lat="44.44569" lon="5.16047">
        <ele>762.6</ele>
        <time>2022-10-16T09:04:48Z</time>
      </trkpt>
      <trkpt lat="44.44568" lon="5.16047">
        <ele>762.4</ele>
        <time>2022-10-16T09:04:46Z</time>
      </trkpt>
      <trkpt lat="44.44567" lon="5.16047">
        <ele>762.2</ele>
        <time>2022-10-16T09:04:45Z</time>
      </trkpt>
      <trkpt lat="44.44566" lon="5.16046">
        <ele>762.4</ele>
        <time>2022-10-16T09:04:44Z</time>
      </trkpt>
      <trkpt lat="44.44565" lon="5.16046">
        <ele>762.1</ele>
        <time>2022-10-16T09:04:43Z</time>
      </trkpt>
      <trkpt lat="44.44564" lon="5.16045">
        <ele>762.3</ele>
        <time>2022-10-16T09:04:41Z</time>
      </trkpt>
      <trkpt lat="44.44563" lon="5.16045">
        <ele>762.1</ele>
        <time>2022-10-16T09:04:40Z</time>
      </trkpt>
      <trkpt lat="44.44562" lon="5.16044">
        <ele>762.2</ele>
        <time>2022-10-16T09:04:39Z</time>
      </trkpt>
      <trkpt lat="44.44561" lon="5.16044">
        <ele>762</ele>
        <time>2022-10-16T09:04:38Z</time>
      </trkpt>
      <trkpt lat="44.4456" lon="5.16043">
        <ele>762.1</ele>
        <time>2022-10-16T09:04:37Z</time>
      </trkpt>
      <trkpt lat="44.44559" lon="5.16043">
        <ele>761.9</ele>
        <time>2022-10-16T09:04:36Z</time>
      </trkpt>
      <trkpt lat="44.44558" lon="5.16042">
        <ele>762</ele>
        <time>2022-10-16T09:04:35Z</time>
      </trkpt>
      <trkpt lat="44.44557" lon="5.16042">
        <ele>761.7</ele>
        <time>2022-10-16T09:04:34Z</time>
      </trkpt>
      <trkpt lat="44.44556" lon="5.16041">
        <ele>761.8</ele>
        <time>2022-10-16T09:04:33Z</time>
      </trkpt>
      <trkpt lat="44.44555" lon="5.1604">
        <ele>761.8</ele>
        <time>2022-10-16T09:04:32Z</time>
      </trkpt>
      <trkpt lat="44.44554" lon="5.16039">
        <ele>761.6</ele>
        <time>2022-10-16T09:04:31Z</time>
      </trkpt>
      <trkpt lat="44.44553" lon="5.16039">
        <ele>761.1</ele>
        <time>2022-10-16T09:04:30Z</time>
      </trkpt>
      <trkpt lat="44.44552" lon="5.16038">
        <ele>760.9</ele>
        <time>2022-10-16T09:04:29Z</time>
      </trkpt>
      <trkpt lat="44.44551" lon="5.16037">
        <ele>760.7</ele>
        <time>2022-10-16T09:04:28Z</time>
      </trkpt>
      <trkpt lat="44.44551" lon="5.16036">
        <ele>761</ele>
        <time>2022-10-16T09:04:27Z</time>
      </trkpt>
      <trkpt lat="44.4455" lon="5.16035">
        <ele>760.8</ele>
        <time>2022-10-16T09:04:26Z</time>
      </trkpt>
      <trkpt lat="44.44549" lon="5.16034">
        <ele>760.5</ele>
        <time>2022-10-16T09:04:25Z</time>
      </trkpt>
      <trkpt lat="44.44548" lon="5.16033">
        <ele>760.3</ele>
        <time>2022-10-16T09:04:24Z</time>
      </trkpt>
      <trkpt lat="44.44548" lon="5.16032">
        <ele>760.6</ele>
        <time>2022-10-16T09:04:23Z</time>
      </trkpt>
      <trkpt lat="44.44547" lon="5.16031">
        <ele>760.4</ele>
        <time>2022-10-16T09:04:22Z</time>
      </trkpt>
      <trkpt lat="44.44546" lon="5.1603">
        <ele>760.2</ele>
        <time>2022-10-16T09:04:21Z</time>
      </trkpt>
      <trkpt lat="44.44545" lon="5.1603">
        <ele>759.6</ele>
        <time>2022-10-16T09:04:20Z</time>
      </trkpt>
      <trkpt lat="44.44544" lon="5.16028">
        <ele>759.7</ele>
        <time>2022-10-16T09:04:19Z</time>
      </trkpt>
      <trkpt lat="44.44543" lon="5.16027">
        <ele>759.4</ele>
        <time>2022-10-16T09:04:18Z</time>
      </trkpt>
      <trkpt lat="44.44542" lon="5.16026">
        <ele>759.2</ele>
        <time>2022-10-16T09:04:17Z</time>
      </trkpt>
      <trkpt lat="44.44542" lon="5.16025">
        <ele>759.4</ele>
        <time>2022-10-16T09:04:16Z</time>
      </trkpt>
      <trkpt lat="44.44541" lon="5.16024">
        <ele>759.2</ele>
        <time>2022-10-16T09:04:15Z</time>
      </trkpt>
      <trkpt lat="44.4454" lon="5.16023">
        <ele>758.9</ele>
        <time>2022-10-16T09:04:14Z</time>
      </trkpt>
      <trkpt lat="44.4454" lon="5.16022">
        <ele>759.1</ele>
        <time>2022-10-16T09:04:13Z</time>
      </trkpt>
      <trkpt lat="44.44539" lon="5.16021">
        <ele>758.9</ele>
        <time>2022-10-16T09:04:12Z</time>
      </trkpt>
      <trkpt lat="44.44538" lon="5.1602">
        <ele>758.6</ele>
        <time>2022-10-16T09:04:11Z</time>
      </trkpt>
      <trkpt lat="44.44538" lon="5.16019">
        <ele>758.8</ele>
        <time>2022-10-16T09:04:10Z</time>
      </trkpt>
      <trkpt lat="44.44537" lon="5.16019">
        <ele>758.3</ele>
        <time>2022-10-16T09:04:09Z</time>
      </trkpt>
      <trkpt lat="44.44536" lon="5.16018">
        <ele>758</ele>
        <time>2022-10-16T09:04:08Z</time>
      </trkpt>
      <trkpt lat="44.44536" lon="5.16017">
        <ele>758.3</ele>
        <time>2022-10-16T09:04:07Z</time>
      </trkpt>
      <trkpt lat="44.44535" lon="5.16016">
        <ele>758</ele>
        <time>2022-10-16T09:04:06Z</time>
      </trkpt>
      <trkpt lat="44.44535" lon="5.16015">
        <ele>758.2</ele>
        <time>2022-10-16T09:04:05Z</time>
      </trkpt>
      <trkpt lat="44.44534" lon="5.16014">
        <ele>757.9</ele>
        <time>2022-10-16T09:04:04Z</time>
      </trkpt>
      <trkpt lat="44.44534" lon="5.16012">
        <ele>758.5</ele>
        <time>2022-10-16T09:04:03Z</time>
      </trkpt>
      <trkpt lat="44.44534" lon="5.16011">
        <ele>758.7</ele>
        <time>2022-10-16T09:04:02Z</time>
      </trkpt>
      <trkpt lat="44.44533" lon="5.1601">
        <ele>758.4</ele>
        <time>2022-10-16T09:04:01Z</time>
      </trkpt>
      <trkpt lat="44.44532" lon="5.16009">
        <ele>758.1</ele>
        <time>2022-10-16T09:04:00Z</time>
      </trkpt>
      <trkpt lat="44.44532" lon="5.16007">
        <ele>758.6</ele>
        <time>2022-10-16T09:03:59Z</time>
      </trkpt>
      <trkpt lat="44.44531" lon="5.16006">
        <ele>758.3</ele>
        <time>2022-10-16T09:03:58Z</time>
      </trkpt>
      <trkpt lat="44.44531" lon="5.16005">
        <ele>758.6</ele>
        <time>2022-10-16T09:03:57Z</time>
      </trkpt>
      <trkpt lat="44.4453" lon="5.16003">
        <ele>758.5</ele>
        <time>2022-10-16T09:03:56Z</time>
      </trkpt>
      <trkpt lat="44.4453" lon="5.16002">
        <ele>758.8</ele>
        <time>2022-10-16T09:03:55Z</time>
      </trkpt>
      <trkpt lat="44.44529" lon="5.16001">
        <ele>758.5</ele>
        <time>2022-10-16T09:03:54Z</time>
      </trkpt>
      <trkpt lat="44.44529" lon="5.16">
        <ele>758.7</ele>
        <time>2022-10-16T09:03:53Z</time>
      </trkpt>
      <trkpt lat="44.44529" lon="5.15998">
        <ele>759.1</ele>
        <time>2022-10-16T09:03:52Z</time>
      </trkpt>
      <trkpt lat="44.44528" lon="5.15997">
        <ele>758.7</ele>
        <time>2022-10-16T09:03:51Z</time>
      </trkpt>
      <trkpt lat="44.44528" lon="5.15996">
        <ele>758.8</ele>
        <time>2022-10-16T09:03:50Z</time>
      </trkpt>
      <trkpt lat="44.44527" lon="5.15994">
        <ele>758.6</ele>
        <time>2022-10-16T09:03:49Z</time>
      </trkpt>
      <trkpt lat="44.44527" lon="5.15993">
        <ele>758.8</ele>
        <time>2022-10-16T09:03:48Z</time>
      </trkpt>
      <trkpt lat="44.44526" lon="5.15991">
        <ele>758.5</ele>
        <time>2022-10-16T09:03:47Z</time>
      </trkpt>
      <trkpt lat="44.44525" lon="5.1599">
        <ele>758</ele>
        <time>2022-10-16T09:03:46Z</time>
      </trkpt>
      <trkpt lat="44.44525" lon="5.15989">
        <ele>758.2</ele>
        <time>2022-10-16T09:03:45Z</time>
      </trkpt>
      <trkpt lat="44.44524" lon="5.15987">
        <ele>758</ele>
        <time>2022-10-16T09:03:44Z</time>
      </trkpt>
      <trkpt lat="44.44524" lon="5.15986">
        <ele>758.1</ele>
        <time>2022-10-16T09:03:43Z</time>
      </trkpt>
      <trkpt lat="44.44523" lon="5.15985">
        <ele>757.7</ele>
        <time>2022-10-16T09:03:42Z</time>
      </trkpt>
      <trkpt lat="44.44522" lon="5.15983">
        <ele>757.4</ele>
        <time>2022-10-16T09:03:41Z</time>
      </trkpt>
      <trkpt lat="44.44522" lon="5.15982">
        <ele>757.6</ele>
        <time>2022-10-16T09:03:40Z</time>
      </trkpt>
      <trkpt lat="44.44521" lon="5.1598">
        <ele>757.4</ele>
        <time>2022-10-16T09:03:39Z</time>
      </trkpt>
      <trkpt lat="44.4452" lon="5.15979">
        <ele>757</ele>
        <time>2022-10-16T09:03:38Z</time>
      </trkpt>
      <trkpt lat="44.4452" lon="5.15977">
        <ele>757.3</ele>
        <time>2022-10-16T09:03:37Z</time>
      </trkpt>
      <trkpt lat="44.44519" lon="5.15976">
        <ele>756.9</ele>
        <time>2022-10-16T09:03:36Z</time>
      </trkpt>
      <trkpt lat="44.44519" lon="5.15975">
        <ele>757.1</ele>
        <time>2022-10-16T09:03:35Z</time>
      </trkpt>
      <trkpt lat="44.44519" lon="5.15973">
        <ele>757.5</ele>
        <time>2022-10-16T09:03:34Z</time>
      </trkpt>
      <trkpt lat="44.44518" lon="5.15972">
        <ele>757.1</ele>
        <time>2022-10-16T09:03:33Z</time>
      </trkpt>
      <trkpt lat="44.44518" lon="5.1597">
        <ele>757.6</ele>
        <time>2022-10-16T09:03:32Z</time>
      </trkpt>
      <trkpt lat="44.44518" lon="5.15969">
        <ele>757.8</ele>
        <time>2022-10-16T09:03:31Z</time>
      </trkpt>
      <trkpt lat="44.44518" lon="5.15968">
        <ele>758</ele>
        <time>2022-10-16T09:03:30Z</time>
      </trkpt>
      <trkpt lat="44.44518" lon="5.15966">
        <ele>758.5</ele>
        <time>2022-10-16T09:03:29Z</time>
      </trkpt>
      <trkpt lat="44.44517" lon="5.15965">
        <ele>758.2</ele>
        <time>2022-10-16T09:03:28Z</time>
      </trkpt>
      <trkpt lat="44.44517" lon="5.15963">
        <ele>758.7</ele>
        <time>2022-10-16T09:03:27Z</time>
      </trkpt>
      <trkpt lat="44.44516" lon="5.15962">
        <ele>758.3</ele>
        <time>2022-10-16T09:03:26Z</time>
      </trkpt>
      <trkpt lat="44.44516" lon="5.15961">
        <ele>758.6</ele>
        <time>2022-10-16T09:03:25Z</time>
      </trkpt>
      <trkpt lat="44.44515" lon="5.15959">
        <ele>758.5</ele>
        <time>2022-10-16T09:03:24Z</time>
      </trkpt>
      <trkpt lat="44.44515" lon="5.15958">
        <ele>758.7</ele>
        <time>2022-10-16T09:03:23Z</time>
      </trkpt>
      <trkpt lat="44.44515" lon="5.15956">
        <ele>759.2</ele>
        <time>2022-10-16T09:03:22Z</time>
      </trkpt>
      <trkpt lat="44.44514" lon="5.15955">
        <ele>758.9</ele>
        <time>2022-10-16T09:03:21Z</time>
      </trkpt>
      <trkpt lat="44.44514" lon="5.15953">
        <ele>759.4</ele>
        <time>2022-10-16T09:03:20Z</time>
      </trkpt>
      <trkpt lat="44.44514" lon="5.15952">
        <ele>759.7</ele>
        <time>2022-10-16T09:03:19Z</time>
      </trkpt>
      <trkpt lat="44.44513" lon="5.15951">
        <ele>759.4</ele>
        <time>2022-10-16T09:03:18Z</time>
      </trkpt>
      <trkpt lat="44.44513" lon="5.15949">
        <ele>759.9</ele>
        <time>2022-10-16T09:03:17Z</time>
      </trkpt>
      <trkpt lat="44.44512" lon="5.15948">
        <ele>759.6</ele>
        <time>2022-10-16T09:03:16Z</time>
      </trkpt>
      <trkpt lat="44.44512" lon="5.15947">
        <ele>759.8</ele>
        <time>2022-10-16T09:03:15Z</time>
      </trkpt>
      <trkpt lat="44.44511" lon="5.15945">
        <ele>759.8</ele>
        <time>2022-10-16T09:03:14Z</time>
      </trkpt>
      <trkpt lat="44.4451" lon="5.15944">
        <ele>759.5</ele>
        <time>2022-10-16T09:03:13Z</time>
      </trkpt>
      <trkpt lat="44.44509" lon="5.15943">
        <ele>759.3</ele>
        <time>2022-10-16T09:03:12Z</time>
      </trkpt>
      <trkpt lat="44.44508" lon="5.15942">
        <ele>759.1</ele>
        <time>2022-10-16T09:03:11Z</time>
      </trkpt>
      <trkpt lat="44.44507" lon="5.15941">
        <ele>758.8</ele>
        <time>2022-10-16T09:03:10Z</time>
      </trkpt>
      <trkpt lat="44.44507" lon="5.1594">
        <ele>759.1</ele>
        <time>2022-10-16T09:03:09Z</time>
      </trkpt>
      <trkpt lat="44.44506" lon="5.1594">
        <ele>758.6</ele>
        <time>2022-10-16T09:03:08Z</time>
      </trkpt>
      <trkpt lat="44.44505" lon="5.15939">
        <ele>758.4</ele>
        <time>2022-10-16T09:03:07Z</time>
      </trkpt>
      <trkpt lat="44.44504" lon="5.15938">
        <ele>758.2</ele>
        <time>2022-10-16T09:03:05Z</time>
      </trkpt>
      <trkpt lat="44.44503" lon="5.15937">
        <ele>758</ele>
        <time>2022-10-16T09:03:04Z</time>
      </trkpt>
      <trkpt lat="44.44502" lon="5.15935">
        <ele>758.1</ele>
        <time>2022-10-16T09:02:52Z</time>
      </trkpt>
      <trkpt lat="44.44501" lon="5.15934">
        <ele>757.9</ele>
        <time>2022-10-16T09:02:51Z</time>
      </trkpt>
      <trkpt lat="44.44501" lon="5.15933">
        <ele>758.2</ele>
        <time>2022-10-16T09:02:50Z</time>
      </trkpt>
      <trkpt lat="44.445" lon="5.15932">
        <ele>758</ele>
        <time>2022-10-16T09:02:49Z</time>
      </trkpt>
      <trkpt lat="44.44499" lon="5.15931">
        <ele>758</ele>
        <time>2022-10-16T09:02:48Z</time>
      </trkpt>
      <trkpt lat="44.44499" lon="5.15929">
        <ele>758.7</ele>
        <time>2022-10-16T09:02:47Z</time>
      </trkpt>
      <trkpt lat="44.44498" lon="5.15928">
        <ele>758.7</ele>
        <time>2022-10-16T09:02:46Z</time>
      </trkpt>
      <trkpt lat="44.44497" lon="5.15927">
        <ele>758.6</ele>
        <time>2022-10-16T09:02:45Z</time>
      </trkpt>
      <trkpt lat="44.44497" lon="5.15926">
        <ele>759</ele>
        <time>2022-10-16T09:02:44Z</time>
      </trkpt>
      <trkpt lat="44.44496" lon="5.15924">
        <ele>759.3</ele>
        <time>2022-10-16T09:02:43Z</time>
      </trkpt>
      <trkpt lat="44.44495" lon="5.15923">
        <ele>759.3</ele>
        <time>2022-10-16T09:02:42Z</time>
      </trkpt>
      <trkpt lat="44.44494" lon="5.15922">
        <ele>759.3</ele>
        <time>2022-10-16T09:02:41Z</time>
      </trkpt>
      <trkpt lat="44.44494" lon="5.1592">
        <ele>760</ele>
        <time>2022-10-16T09:02:40Z</time>
      </trkpt>
      <trkpt lat="44.44493" lon="5.15919">
        <ele>760</ele>
        <time>2022-10-16T09:02:39Z</time>
      </trkpt>
      <trkpt lat="44.44492" lon="5.15918">
        <ele>760</ele>
        <time>2022-10-16T09:02:38Z</time>
      </trkpt>
      <trkpt lat="44.44491" lon="5.15917">
        <ele>760</ele>
        <time>2022-10-16T09:02:37Z</time>
      </trkpt>
      <trkpt lat="44.4449" lon="5.15916">
        <ele>760</ele>
        <time>2022-10-16T09:02:36Z</time>
      </trkpt>
      <trkpt lat="44.4449" lon="5.15915">
        <ele>760.3</ele>
        <time>2022-10-16T09:02:35Z</time>
      </trkpt>
      <trkpt lat="44.44489" lon="5.15914">
        <ele>760.3</ele>
        <time>2022-10-16T09:02:34Z</time>
      </trkpt>
      <trkpt lat="44.44488" lon="5.15913">
        <ele>760.3</ele>
        <time>2022-10-16T09:02:33Z</time>
      </trkpt>
      <trkpt lat="44.44487" lon="5.15912">
        <ele>760.3</ele>
        <time>2022-10-16T09:02:32Z</time>
      </trkpt>
      <trkpt lat="44.44486" lon="5.15911">
        <ele>760.3</ele>
        <time>2022-10-16T09:02:30Z</time>
      </trkpt>
      <trkpt lat="44.44485" lon="5.1591">
        <ele>760.3</ele>
        <time>2022-10-16T09:02:29Z</time>
      </trkpt>
      <trkpt lat="44.44484" lon="5.15909">
        <ele>760.3</ele>
        <time>2022-10-16T09:02:28Z</time>
      </trkpt>
      <trkpt lat="44.44483" lon="5.15909">
        <ele>760</ele>
        <time>2022-10-16T09:02:27Z</time>
      </trkpt>
      <trkpt lat="44.44482" lon="5.15908">
        <ele>760</ele>
        <time>2022-10-16T09:02:26Z</time>
      </trkpt>
      <trkpt lat="44.44481" lon="5.15907">
        <ele>760</ele>
        <time>2022-10-16T09:02:25Z</time>
      </trkpt>
      <trkpt lat="44.4448" lon="5.15907">
        <ele>759.7</ele>
        <time>2022-10-16T09:02:24Z</time>
      </trkpt>
      <trkpt lat="44.44479" lon="5.15906">
        <ele>759.7</ele>
        <time>2022-10-16T09:02:23Z</time>
      </trkpt>
      <trkpt lat="44.44478" lon="5.15905">
        <ele>759.7</ele>
        <time>2022-10-16T09:02:22Z</time>
      </trkpt>
      <trkpt lat="44.44477" lon="5.15905">
        <ele>759.3</ele>
        <time>2022-10-16T09:02:21Z</time>
      </trkpt>
      <trkpt lat="44.44476" lon="5.15904">
        <ele>759.3</ele>
        <time>2022-10-16T09:02:20Z</time>
      </trkpt>
      <trkpt lat="44.44475" lon="5.15904">
        <ele>759</ele>
        <time>2022-10-16T09:02:19Z</time>
      </trkpt>
      <trkpt lat="44.44473" lon="5.15903">
        <ele>758.7</ele>
        <time>2022-10-16T09:02:18Z</time>
      </trkpt>
      <trkpt lat="44.44472" lon="5.15903">
        <ele>758.4</ele>
        <time>2022-10-16T09:02:17Z</time>
      </trkpt>
      <trkpt lat="44.44471" lon="5.15903">
        <ele>758.4</ele>
        <time>2022-10-16T09:02:16Z</time>
      </trkpt>
      <trkpt lat="44.44469" lon="5.15903">
        <ele>758.3</ele>
        <time>2022-10-16T09:02:15Z</time>
      </trkpt>
      <trkpt lat="44.44468" lon="5.15903">
        <ele>758.2</ele>
        <time>2022-10-16T09:02:14Z</time>
      </trkpt>
      <trkpt lat="44.44466" lon="5.15903">
        <ele>758.1</ele>
        <time>2022-10-16T09:02:13Z</time>
      </trkpt>
      <trkpt lat="44.44465" lon="5.15903">
        <ele>758</ele>
        <time>2022-10-16T09:02:12Z</time>
      </trkpt>
      <trkpt lat="44.44464" lon="5.15903">
        <ele>758</ele>
        <time>2022-10-16T09:02:11Z</time>
      </trkpt>
      <trkpt lat="44.44462" lon="5.15903">
        <ele>757.9</ele>
        <time>2022-10-16T09:02:10Z</time>
      </trkpt>
      <trkpt lat="44.44461" lon="5.15904">
        <ele>757.5</ele>
        <time>2022-10-16T09:02:09Z</time>
      </trkpt>
      <trkpt lat="44.4446" lon="5.15904">
        <ele>757.4</ele>
        <time>2022-10-16T09:02:08Z</time>
      </trkpt>
      <trkpt lat="44.44459" lon="5.15904">
        <ele>757.4</ele>
        <time>2022-10-16T09:02:07Z</time>
      </trkpt>
      <trkpt lat="44.44458" lon="5.15905">
        <ele>757</ele>
        <time>2022-10-16T09:02:06Z</time>
      </trkpt>
      <trkpt lat="44.44457" lon="5.15906">
        <ele>756.6</ele>
        <time>2022-10-16T09:02:05Z</time>
      </trkpt>
      <trkpt lat="44.44456" lon="5.15906">
        <ele>756.5</ele>
        <time>2022-10-16T09:02:04Z</time>
      </trkpt>
      <trkpt lat="44.44455" lon="5.15906">
        <ele>756.5</ele>
        <time>2022-10-16T09:02:03Z</time>
      </trkpt>
      <trkpt lat="44.44454" lon="5.15906">
        <ele>756.4</ele>
        <time>2022-10-16T09:02:02Z</time>
      </trkpt>
      <trkpt lat="44.44453" lon="5.15906">
        <ele>756.3</ele>
        <time>2022-10-16T09:02:01Z</time>
      </trkpt>
      <trkpt lat="44.44452" lon="5.15907">
        <ele>755.9</ele>
        <time>2022-10-16T09:02:00Z</time>
      </trkpt>
      <trkpt lat="44.44451" lon="5.15907">
        <ele>755.9</ele>
        <time>2022-10-16T09:01:59Z</time>
      </trkpt>
      <trkpt lat="44.4445" lon="5.15907">
        <ele>755.8</ele>
        <time>2022-10-16T09:01:58Z</time>
      </trkpt>
      <trkpt lat="44.44449" lon="5.15907">
        <ele>755.8</ele>
        <time>2022-10-16T09:01:57Z</time>
      </trkpt>
      <trkpt lat="44.44448" lon="5.15907">
        <ele>755.7</ele>
        <time>2022-10-16T09:01:56Z</time>
      </trkpt>
      <trkpt lat="44.44447" lon="5.15908">
        <ele>755.3</ele>
        <time>2022-10-16T09:01:55Z</time>
      </trkpt>
      <trkpt lat="44.44445" lon="5.15908">
        <ele>755.2</ele>
        <time>2022-10-16T09:01:54Z</time>
      </trkpt>
      <trkpt lat="44.44444" lon="5.15909">
        <ele>754.8</ele>
        <time>2022-10-16T09:01:53Z</time>
      </trkpt>
      <trkpt lat="44.44443" lon="5.15909">
        <ele>754.8</ele>
        <time>2022-10-16T09:01:52Z</time>
      </trkpt>
      <trkpt lat="44.44442" lon="5.1591">
        <ele>754.5</ele>
        <time>2022-10-16T09:01:51Z</time>
      </trkpt>
      <trkpt lat="44.44441" lon="5.1591">
        <ele>754.6</ele>
        <time>2022-10-16T09:01:50Z</time>
      </trkpt>
      <trkpt lat="44.4444" lon="5.15911">
        <ele>754.3</ele>
        <time>2022-10-16T09:01:49Z</time>
      </trkpt>
      <trkpt lat="44.44439" lon="5.15911">
        <ele>754.3</ele>
        <time>2022-10-16T09:01:48Z</time>
      </trkpt>
      <trkpt lat="44.44438" lon="5.15912">
        <ele>754</ele>
        <time>2022-10-16T09:01:47Z</time>
      </trkpt>
      <trkpt lat="44.44437" lon="5.15912">
        <ele>754</ele>
        <time>2022-10-16T09:01:46Z</time>
      </trkpt>
      <trkpt lat="44.44436" lon="5.15913">
        <ele>753.7</ele>
        <time>2022-10-16T09:01:45Z</time>
      </trkpt>
      <trkpt lat="44.44435" lon="5.15913">
        <ele>753.7</ele>
        <time>2022-10-16T09:01:44Z</time>
      </trkpt>
      <trkpt lat="44.44434" lon="5.15914">
        <ele>753.4</ele>
        <time>2022-10-16T09:01:43Z</time>
      </trkpt>
      <trkpt lat="44.44433" lon="5.15914">
        <ele>753.5</ele>
        <time>2022-10-16T09:01:41Z</time>
      </trkpt>
      <trkpt lat="44.44432" lon="5.15914">
        <ele>753.5</ele>
        <time>2022-10-16T09:01:40Z</time>
      </trkpt>
      <trkpt lat="44.44431" lon="5.15915">
        <ele>753.1</ele>
        <time>2022-10-16T09:01:39Z</time>
      </trkpt>
      <trkpt lat="44.4443" lon="5.15915">
        <ele>753.2</ele>
        <time>2022-10-16T09:01:38Z</time>
      </trkpt>
      <trkpt lat="44.44429" lon="5.15915">
        <ele>753.2</ele>
        <time>2022-10-16T09:01:37Z</time>
      </trkpt>
      <trkpt lat="44.44428" lon="5.15916">
        <ele>752.9</ele>
        <time>2022-10-16T09:01:36Z</time>
      </trkpt>
      <trkpt lat="44.44427" lon="5.15916">
        <ele>752.9</ele>
        <time>2022-10-16T09:01:35Z</time>
      </trkpt>
      <trkpt lat="44.44426" lon="5.15917">
        <ele>752.5</ele>
        <time>2022-10-16T09:01:34Z</time>
      </trkpt>
      <trkpt lat="44.44425" lon="5.15918">
        <ele>752.1</ele>
        <time>2022-10-16T09:01:33Z</time>
      </trkpt>
      <trkpt lat="44.44424" lon="5.15918">
        <ele>752.2</ele>
        <time>2022-10-16T09:01:32Z</time>
      </trkpt>
      <trkpt lat="44.44422" lon="5.15919">
        <ele>751.8</ele>
        <time>2022-10-16T09:01:31Z</time>
      </trkpt>
      <trkpt lat="44.44421" lon="5.15919">
        <ele>751.8</ele>
        <time>2022-10-16T09:01:30Z</time>
      </trkpt>
      <trkpt lat="44.4442" lon="5.1592">
        <ele>751.4</ele>
        <time>2022-10-16T09:01:29Z</time>
      </trkpt>
      <trkpt lat="44.44419" lon="5.1592">
        <ele>751.5</ele>
        <time>2022-10-16T09:01:28Z</time>
      </trkpt>
      <trkpt lat="44.44418" lon="5.1592">
        <ele>751.5</ele>
        <time>2022-10-16T09:01:27Z</time>
      </trkpt>
      <trkpt lat="44.44417" lon="5.1592">
        <ele>751.5</ele>
        <time>2022-10-16T09:01:26Z</time>
      </trkpt>
      <trkpt lat="44.44416" lon="5.15921">
        <ele>751.2</ele>
        <time>2022-10-16T09:01:25Z</time>
      </trkpt>
      <trkpt lat="44.44415" lon="5.15921">
        <ele>751.2</ele>
        <time>2022-10-16T09:01:24Z</time>
      </trkpt>
      <trkpt lat="44.44414" lon="5.15922">
        <ele>750.9</ele>
        <time>2022-10-16T09:01:23Z</time>
      </trkpt>
      <trkpt lat="44.44413" lon="5.15923">
        <ele>750.5</ele>
        <time>2022-10-16T09:01:22Z</time>
      </trkpt>
      <trkpt lat="44.44412" lon="5.15923">
        <ele>750.6</ele>
        <time>2022-10-16T09:01:21Z</time>
      </trkpt>
      <trkpt lat="44.4441" lon="5.15924">
        <ele>750.3</ele>
        <time>2022-10-16T09:01:20Z</time>
      </trkpt>
      <trkpt lat="44.44409" lon="5.15925">
        <ele>750</ele>
        <time>2022-10-16T09:01:19Z</time>
      </trkpt>
      <trkpt lat="44.44408" lon="5.15925">
        <ele>750</ele>
        <time>2022-10-16T09:01:18Z</time>
      </trkpt>
      <trkpt lat="44.44407" lon="5.15925">
        <ele>750.1</ele>
        <time>2022-10-16T09:01:17Z</time>
      </trkpt>
      <trkpt lat="44.44406" lon="5.15926">
        <ele>749.7</ele>
        <time>2022-10-16T09:01:16Z</time>
      </trkpt>
      <trkpt lat="44.44405" lon="5.15926">
        <ele>749.8</ele>
        <time>2022-10-16T09:01:15Z</time>
      </trkpt>
      <trkpt lat="44.44404" lon="5.15926">
        <ele>749.9</ele>
        <time>2022-10-16T09:01:14Z</time>
      </trkpt>
      <trkpt lat="44.44403" lon="5.15927">
        <ele>749.5</ele>
        <time>2022-10-16T09:01:13Z</time>
      </trkpt>
      <trkpt lat="44.44402" lon="5.15927">
        <ele>749.6</ele>
        <time>2022-10-16T09:01:12Z</time>
      </trkpt>
      <trkpt lat="44.44401" lon="5.15927">
        <ele>749.7</ele>
        <time>2022-10-16T09:01:11Z</time>
      </trkpt>
      <trkpt lat="44.444" lon="5.15928">
        <ele>749.3</ele>
        <time>2022-10-16T09:01:09Z</time>
      </trkpt>
      <trkpt lat="44.44399" lon="5.15929">
        <ele>748.9</ele>
        <time>2022-10-16T09:01:08Z</time>
      </trkpt>
      <trkpt lat="44.44398" lon="5.15929">
        <ele>749</ele>
        <time>2022-10-16T09:01:07Z</time>
      </trkpt>
      <trkpt lat="44.44397" lon="5.15929">
        <ele>749.1</ele>
        <time>2022-10-16T09:01:06Z</time>
      </trkpt>
      <trkpt lat="44.44396" lon="5.15929">
        <ele>749.2</ele>
        <time>2022-10-16T09:01:05Z</time>
      </trkpt>
      <trkpt lat="44.44395" lon="5.15929">
        <ele>749.2</ele>
        <time>2022-10-16T09:01:04Z</time>
      </trkpt>
      <trkpt lat="44.44394" lon="5.15929">
        <ele>749.3</ele>
        <time>2022-10-16T09:01:03Z</time>
      </trkpt>
      <trkpt lat="44.44393" lon="5.15929">
        <ele>749.4</ele>
        <time>2022-10-16T09:01:02Z</time>
      </trkpt>
      <trkpt lat="44.44392" lon="5.1593">
        <ele>749</ele>
        <time>2022-10-16T09:01:01Z</time>
      </trkpt>
      <trkpt lat="44.44391" lon="5.1593">
        <ele>749.1</ele>
        <time>2022-10-16T09:01:00Z</time>
      </trkpt>
      <trkpt lat="44.4439" lon="5.1593">
        <ele>749.2</ele>
        <time>2022-10-16T09:00:59Z</time>
      </trkpt>
      <trkpt lat="44.44389" lon="5.1593">
        <ele>749.2</ele>
        <time>2022-10-16T09:00:58Z</time>
      </trkpt>
      <trkpt lat="44.44388" lon="5.1593">
        <ele>749.4</ele>
        <time>2022-10-16T09:00:57Z</time>
      </trkpt>
      <trkpt lat="44.44387" lon="5.15931">
        <ele>749</ele>
        <time>2022-10-16T09:00:56Z</time>
      </trkpt>
      <trkpt lat="44.44386" lon="5.15931">
        <ele>749.2</ele>
        <time>2022-10-16T09:00:55Z</time>
      </trkpt>
      <trkpt lat="44.44385" lon="5.15931">
        <ele>749.3</ele>
        <time>2022-10-16T09:00:54Z</time>
      </trkpt>
      <trkpt lat="44.44384" lon="5.15931">
        <ele>749.4</ele>
        <time>2022-10-16T09:00:53Z</time>
      </trkpt>
      <trkpt lat="44.44383" lon="5.15931">
        <ele>749.6</ele>
        <time>2022-10-16T09:00:52Z</time>
      </trkpt>
      <trkpt lat="44.44382" lon="5.15931">
        <ele>749.7</ele>
        <time>2022-10-16T09:00:51Z</time>
      </trkpt>
      <trkpt lat="44.44381" lon="5.15931">
        <ele>749.8</ele>
        <time>2022-10-16T09:00:50Z</time>
      </trkpt>
      <trkpt lat="44.4438" lon="5.15931">
        <ele>749.9</ele>
        <time>2022-10-16T09:00:49Z</time>
      </trkpt>
      <trkpt lat="44.44379" lon="5.15931">
        <ele>750.1</ele>
        <time>2022-10-16T09:00:48Z</time>
      </trkpt>
      <trkpt lat="44.44378" lon="5.15931">
        <ele>750.2</ele>
        <time>2022-10-16T09:00:47Z</time>
      </trkpt>
      <trkpt lat="44.44377" lon="5.15931">
        <ele>750.3</ele>
        <time>2022-10-16T09:00:46Z</time>
      </trkpt>
      <trkpt lat="44.44376" lon="5.15931">
        <ele>750.4</ele>
        <time>2022-10-16T09:00:45Z</time>
      </trkpt>
      <trkpt lat="44.44375" lon="5.15931">
        <ele>750.6</ele>
        <time>2022-10-16T09:00:44Z</time>
      </trkpt>
      <trkpt lat="44.44374" lon="5.15931">
        <ele>750.7</ele>
        <time>2022-10-16T09:00:43Z</time>
      </trkpt>
      <trkpt lat="44.44373" lon="5.15931">
        <ele>750.8</ele>
        <time>2022-10-16T09:00:42Z</time>
      </trkpt>
      <trkpt lat="44.44372" lon="5.15931">
        <ele>750.9</ele>
        <time>2022-10-16T09:00:41Z</time>
      </trkpt>
      <trkpt lat="44.44371" lon="5.15931">
        <ele>751.1</ele>
        <time>2022-10-16T09:00:40Z</time>
      </trkpt>
      <trkpt lat="44.4437" lon="5.15931">
        <ele>751.2</ele>
        <time>2022-10-16T09:00:39Z</time>
      </trkpt>
      <trkpt lat="44.44369" lon="5.15932">
        <ele>750.9</ele>
        <time>2022-10-16T09:00:38Z</time>
      </trkpt>
      <trkpt lat="44.44368" lon="5.15932">
        <ele>751</ele>
        <time>2022-10-16T09:00:37Z</time>
      </trkpt>
      <trkpt lat="44.44367" lon="5.15932">
        <ele>751.2</ele>
        <time>2022-10-16T09:00:36Z</time>
      </trkpt>
      <trkpt lat="44.44366" lon="5.15932">
        <ele>751.3</ele>
        <time>2022-10-16T09:00:35Z</time>
      </trkpt>
      <trkpt lat="44.44365" lon="5.15932">
        <ele>751.4</ele>
        <time>2022-10-16T09:00:34Z</time>
      </trkpt>
      <trkpt lat="44.44364" lon="5.15932">
        <ele>751.6</ele>
        <time>2022-10-16T09:00:33Z</time>
      </trkpt>
      <trkpt lat="44.44363" lon="5.15932">
        <ele>751.7</ele>
        <time>2022-10-16T09:00:32Z</time>
      </trkpt>
      <trkpt lat="44.44362" lon="5.15933">
        <ele>751.4</ele>
        <time>2022-10-16T09:00:31Z</time>
      </trkpt>
      <trkpt lat="44.44361" lon="5.15933">
        <ele>751.5</ele>
        <time>2022-10-16T09:00:30Z</time>
      </trkpt>
      <trkpt lat="44.44359" lon="5.15934">
        <ele>751.5</ele>
        <time>2022-10-16T09:00:29Z</time>
      </trkpt>
      <trkpt lat="44.44358" lon="5.15935">
        <ele>751.2</ele>
        <time>2022-10-16T09:00:28Z</time>
      </trkpt>
      <trkpt lat="44.44357" lon="5.15936">
        <ele>751</ele>
        <time>2022-10-16T09:00:27Z</time>
      </trkpt>
      <trkpt lat="44.44356" lon="5.15936">
        <ele>751.2</ele>
        <time>2022-10-16T09:00:26Z</time>
      </trkpt>
      <trkpt lat="44.44355" lon="5.15937">
        <ele>750.9</ele>
        <time>2022-10-16T09:00:25Z</time>
      </trkpt>
      <trkpt lat="44.44354" lon="5.15937">
        <ele>751.1</ele>
        <time>2022-10-16T09:00:24Z</time>
      </trkpt>
      <trkpt lat="44.44353" lon="5.15938">
        <ele>750.9</ele>
        <time>2022-10-16T09:00:22Z</time>
      </trkpt>
      <trkpt lat="44.44352" lon="5.15939">
        <ele>750.7</ele>
        <time>2022-10-16T09:00:21Z</time>
      </trkpt>
      <trkpt lat="44.44351" lon="5.15939">
        <ele>750.8</ele>
        <time>2022-10-16T09:00:20Z</time>
      </trkpt>
      <trkpt lat="44.4435" lon="5.15939">
        <ele>751</ele>
        <time>2022-10-16T09:00:19Z</time>
      </trkpt>
      <trkpt lat="44.44349" lon="5.15939">
        <ele>751.2</ele>
        <time>2022-10-16T09:00:18Z</time>
      </trkpt>
      <trkpt lat="44.44348" lon="5.1594">
        <ele>751</ele>
        <time>2022-10-16T09:00:17Z</time>
      </trkpt>
      <trkpt lat="44.44347" lon="5.1594">
        <ele>751.1</ele>
        <time>2022-10-16T09:00:16Z</time>
      </trkpt>
      <trkpt lat="44.44346" lon="5.15941">
        <ele>750.9</ele>
        <time>2022-10-16T09:00:15Z</time>
      </trkpt>
      <trkpt lat="44.44345" lon="5.15941">
        <ele>751.1</ele>
        <time>2022-10-16T09:00:14Z</time>
      </trkpt>
      <trkpt lat="44.44344" lon="5.15942">
        <ele>750.9</ele>
        <time>2022-10-16T09:00:13Z</time>
      </trkpt>
      <trkpt lat="44.44343" lon="5.15942">
        <ele>751.1</ele>
        <time>2022-10-16T09:00:12Z</time>
      </trkpt>
      <trkpt lat="44.44342" lon="5.15943">
        <ele>750.9</ele>
        <time>2022-10-16T09:00:11Z</time>
      </trkpt>
      <trkpt lat="44.44341" lon="5.15943">
        <ele>751.1</ele>
        <time>2022-10-16T09:00:10Z</time>
      </trkpt>
      <trkpt lat="44.4434" lon="5.15943">
        <ele>751.3</ele>
        <time>2022-10-16T09:00:09Z</time>
      </trkpt>
      <trkpt lat="44.44339" lon="5.15944">
        <ele>751.1</ele>
        <time>2022-10-16T09:00:08Z</time>
      </trkpt>
      <trkpt lat="44.44338" lon="5.15944">
        <ele>751.3</ele>
        <time>2022-10-16T09:00:07Z</time>
      </trkpt>
      <trkpt lat="44.44337" lon="5.15944">
        <ele>751.5</ele>
        <time>2022-10-16T09:00:06Z</time>
      </trkpt>
      <trkpt lat="44.44336" lon="5.15945">
        <ele>751.4</ele>
        <time>2022-10-16T09:00:04Z</time>
      </trkpt>
      <trkpt lat="44.44335" lon="5.15946">
        <ele>751.3</ele>
        <time>2022-10-16T09:00:03Z</time>
      </trkpt>
      <trkpt lat="44.44334" lon="5.15947">
        <ele>751.2</ele>
        <time>2022-10-16T09:00:02Z</time>
      </trkpt>
      <trkpt lat="44.44333" lon="5.15948">
        <ele>751.2</ele>
        <time>2022-10-16T09:00:01Z</time>
      </trkpt>
      <trkpt lat="44.44333" lon="5.15949">
        <ele>750.9</ele>
        <time>2022-10-16T09:00:00Z</time>
      </trkpt>
      <trkpt lat="44.44332" lon="5.1595">
        <ele>750.9</ele>
        <time>2022-10-16T08:59:59Z</time>
      </trkpt>
      <trkpt lat="44.44331" lon="5.15951">
        <ele>750.9</ele>
        <time>2022-10-16T08:59:58Z</time>
      </trkpt>
      <trkpt lat="44.44331" lon="5.15952">
        <ele>750.7</ele>
        <time>2022-10-16T08:59:57Z</time>
      </trkpt>
      <trkpt lat="44.4433" lon="5.15953">
        <ele>750.7</ele>
        <time>2022-10-16T08:59:56Z</time>
      </trkpt>
      <trkpt lat="44.44329" lon="5.15954">
        <ele>750.7</ele>
        <time>2022-10-16T08:59:55Z</time>
      </trkpt>
      <trkpt lat="44.44328" lon="5.15955">
        <ele>750.7</ele>
        <time>2022-10-16T08:59:53Z</time>
      </trkpt>
      <trkpt lat="44.44327" lon="5.15956">
        <ele>750.7</ele>
        <time>2022-10-16T08:59:52Z</time>
      </trkpt>
      <trkpt lat="44.44326" lon="5.15957">
        <ele>750.7</ele>
        <time>2022-10-16T08:59:51Z</time>
      </trkpt>
      <trkpt lat="44.44325" lon="5.15958">
        <ele>750.7</ele>
        <time>2022-10-16T08:59:50Z</time>
      </trkpt>
      <trkpt lat="44.44324" lon="5.1596">
        <ele>750.4</ele>
        <time>2022-10-16T08:59:49Z</time>
      </trkpt>
      <trkpt lat="44.44323" lon="5.15961">
        <ele>750.4</ele>
        <time>2022-10-16T08:59:48Z</time>
      </trkpt>
      <trkpt lat="44.44323" lon="5.15962">
        <ele>750.2</ele>
        <time>2022-10-16T08:59:47Z</time>
      </trkpt>
      <trkpt lat="44.44322" lon="5.15963">
        <ele>750.2</ele>
        <time>2022-10-16T08:59:46Z</time>
      </trkpt>
      <trkpt lat="44.44321" lon="5.15964">
        <ele>750.2</ele>
        <time>2022-10-16T08:59:45Z</time>
      </trkpt>
      <trkpt lat="44.44321" lon="5.15965">
        <ele>749.9</ele>
        <time>2022-10-16T08:59:44Z</time>
      </trkpt>
      <trkpt lat="44.4432" lon="5.15967">
        <ele>749.7</ele>
        <time>2022-10-16T08:59:43Z</time>
      </trkpt>
      <trkpt lat="44.4432" lon="5.15968">
        <ele>749.4</ele>
        <time>2022-10-16T08:59:42Z</time>
      </trkpt>
      <trkpt lat="44.4432" lon="5.15969">
        <ele>749.2</ele>
        <time>2022-10-16T08:59:41Z</time>
      </trkpt>
      <trkpt lat="44.44319" lon="5.1597">
        <ele>749.2</ele>
        <time>2022-10-16T08:59:40Z</time>
      </trkpt>
      <trkpt lat="44.44319" lon="5.15971">
        <ele>748.9</ele>
        <time>2022-10-16T08:59:39Z</time>
      </trkpt>
      <trkpt lat="44.44318" lon="5.15973">
        <ele>748.7</ele>
        <time>2022-10-16T08:59:38Z</time>
      </trkpt>
      <trkpt lat="44.44318" lon="5.15974">
        <ele>748.5</ele>
        <time>2022-10-16T08:59:37Z</time>
      </trkpt>
      <trkpt lat="44.44317" lon="5.15975">
        <ele>748.6</ele>
        <time>2022-10-16T08:59:36Z</time>
      </trkpt>
      <trkpt lat="44.44317" lon="5.15976">
        <ele>748.4</ele>
        <time>2022-10-16T08:59:35Z</time>
      </trkpt>
      <trkpt lat="44.44316" lon="5.15978">
        <ele>748.2</ele>
        <time>2022-10-16T08:59:34Z</time>
      </trkpt>
      <trkpt lat="44.44316" lon="5.15979">
        <ele>748</ele>
        <time>2022-10-16T08:59:33Z</time>
      </trkpt>
      <trkpt lat="44.44316" lon="5.1598">
        <ele>747.8</ele>
        <time>2022-10-16T08:59:32Z</time>
      </trkpt>
      <trkpt lat="44.44315" lon="5.15982">
        <ele>747.6</ele>
        <time>2022-10-16T08:59:31Z</time>
      </trkpt>
      <trkpt lat="44.44315" lon="5.15983">
        <ele>747.4</ele>
        <time>2022-10-16T08:59:30Z</time>
      </trkpt>
      <trkpt lat="44.44314" lon="5.15984">
        <ele>747.5</ele>
        <time>2022-10-16T08:59:29Z</time>
      </trkpt>
      <trkpt lat="44.44313" lon="5.15985">
        <ele>747.5</ele>
        <time>2022-10-16T08:59:28Z</time>
      </trkpt>
      <trkpt lat="44.44313" lon="5.15986">
        <ele>747.3</ele>
        <time>2022-10-16T08:59:27Z</time>
      </trkpt>
      <trkpt lat="44.44312" lon="5.15987">
        <ele>747.3</ele>
        <time>2022-10-16T08:59:26Z</time>
      </trkpt>
      <trkpt lat="44.44311" lon="5.15988">
        <ele>747.3</ele>
        <time>2022-10-16T08:59:25Z</time>
      </trkpt>
      <trkpt lat="44.44311" lon="5.15989">
        <ele>747.1</ele>
        <time>2022-10-16T08:59:24Z</time>
      </trkpt>
      <trkpt lat="44.4431" lon="5.15989">
        <ele>747.4</ele>
        <time>2022-10-16T08:59:23Z</time>
      </trkpt>
      <trkpt lat="44.44309" lon="5.1599">
        <ele>747.4</ele>
        <time>2022-10-16T08:59:22Z</time>
      </trkpt>
      <trkpt lat="44.44308" lon="5.1599">
        <ele>747.6</ele>
        <time>2022-10-16T08:59:21Z</time>
      </trkpt>
      <trkpt lat="44.44307" lon="5.1599">
        <ele>747.8</ele>
        <time>2022-10-16T08:59:20Z</time>
      </trkpt>
      <trkpt lat="44.44306" lon="5.15989">
        <ele>748.3</ele>
        <time>2022-10-16T08:59:19Z</time>
      </trkpt>
      <trkpt lat="44.44305" lon="5.15989">
        <ele>748.5</ele>
        <time>2022-10-16T08:59:18Z</time>
      </trkpt>
      <trkpt lat="44.44304" lon="5.15989">
        <ele>748.6</ele>
        <time>2022-10-16T08:59:17Z</time>
      </trkpt>
      <trkpt lat="44.44303" lon="5.15989">
        <ele>748.7</ele>
        <time>2022-10-16T08:59:16Z</time>
      </trkpt>
      <trkpt lat="44.44302" lon="5.15989">
        <ele>748.9</ele>
        <time>2022-10-16T08:59:15Z</time>
      </trkpt>
      <trkpt lat="44.44301" lon="5.15989">
        <ele>749</ele>
        <time>2022-10-16T08:59:14Z</time>
      </trkpt>
      <trkpt lat="44.443" lon="5.15989">
        <ele>749.1</ele>
        <time>2022-10-16T08:59:13Z</time>
      </trkpt>
      <trkpt lat="44.44299" lon="5.15989">
        <ele>749.3</ele>
        <time>2022-10-16T08:59:12Z</time>
      </trkpt>
      <trkpt lat="44.44298" lon="5.15989">
        <ele>749.4</ele>
        <time>2022-10-16T08:59:11Z</time>
      </trkpt>
      <trkpt lat="44.44297" lon="5.15989">
        <ele>749.5</ele>
        <time>2022-10-16T08:59:10Z</time>
      </trkpt>
      <trkpt lat="44.44296" lon="5.15989">
        <ele>749.7</ele>
        <time>2022-10-16T08:59:09Z</time>
      </trkpt>
      <trkpt lat="44.44295" lon="5.15989">
        <ele>749.8</ele>
        <time>2022-10-16T08:59:08Z</time>
      </trkpt>
      <trkpt lat="44.44294" lon="5.15989">
        <ele>750</ele>
        <time>2022-10-16T08:59:07Z</time>
      </trkpt>
      <trkpt lat="44.44293" lon="5.15989">
        <ele>750.1</ele>
        <time>2022-10-16T08:59:06Z</time>
      </trkpt>
      <trkpt lat="44.44292" lon="5.15989">
        <ele>750.2</ele>
        <time>2022-10-16T08:59:05Z</time>
      </trkpt>
      <trkpt lat="44.44291" lon="5.15989">
        <ele>750.4</ele>
        <time>2022-10-16T08:59:04Z</time>
      </trkpt>
      <trkpt lat="44.4429" lon="5.15989">
        <ele>750.5</ele>
        <time>2022-10-16T08:59:03Z</time>
      </trkpt>
      <trkpt lat="44.44289" lon="5.15989">
        <ele>750.6</ele>
        <time>2022-10-16T08:59:02Z</time>
      </trkpt>
      <trkpt lat="44.44288" lon="5.15989">
        <ele>750.8</ele>
        <time>2022-10-16T08:59:01Z</time>
      </trkpt>
      <trkpt lat="44.44287" lon="5.15989">
        <ele>750.9</ele>
        <time>2022-10-16T08:59:00Z</time>
      </trkpt>
      <trkpt lat="44.44286" lon="5.15989">
        <ele>751</ele>
        <time>2022-10-16T08:58:59Z</time>
      </trkpt>
      <trkpt lat="44.44285" lon="5.15988">
        <ele>751.5</ele>
        <time>2022-10-16T08:58:58Z</time>
      </trkpt>
      <trkpt lat="44.44284" lon="5.15988">
        <ele>751.6</ele>
        <time>2022-10-16T08:58:57Z</time>
      </trkpt>
      <trkpt lat="44.44283" lon="5.15987">
        <ele>752</ele>
        <time>2022-10-16T08:58:56Z</time>
      </trkpt>
      <trkpt lat="44.44282" lon="5.15987">
        <ele>752.1</ele>
        <time>2022-10-16T08:58:55Z</time>
      </trkpt>
      <trkpt lat="44.44281" lon="5.15987">
        <ele>752.3</ele>
        <time>2022-10-16T08:58:54Z</time>
      </trkpt>
      <trkpt lat="44.4428" lon="5.15986">
        <ele>752.7</ele>
        <time>2022-10-16T08:58:53Z</time>
      </trkpt>
      <trkpt lat="44.44279" lon="5.15986">
        <ele>752.9</ele>
        <time>2022-10-16T08:58:52Z</time>
      </trkpt>
      <trkpt lat="44.44278" lon="5.15986">
        <ele>753</ele>
        <time>2022-10-16T08:58:51Z</time>
      </trkpt>
      <trkpt lat="44.44277" lon="5.15986">
        <ele>753.1</ele>
        <time>2022-10-16T08:58:50Z</time>
      </trkpt>
      <trkpt lat="44.44276" lon="5.15985">
        <ele>753.4</ele>
        <time>2022-10-16T08:58:49Z</time>
      </trkpt>
      <trkpt lat="44.44275" lon="5.15985">
        <ele>753.4</ele>
        <time>2022-10-16T08:58:48Z</time>
      </trkpt>
      <trkpt lat="44.44274" lon="5.15985">
        <ele>753.5</ele>
        <time>2022-10-16T08:58:47Z</time>
      </trkpt>
      <trkpt lat="44.44273" lon="5.15985">
        <ele>753.5</ele>
        <time>2022-10-16T08:58:46Z</time>
      </trkpt>
      <trkpt lat="44.44272" lon="5.15984">
        <ele>753.8</ele>
        <time>2022-10-16T08:58:45Z</time>
      </trkpt>
      <trkpt lat="44.44271" lon="5.15984">
        <ele>753.9</ele>
        <time>2022-10-16T08:58:44Z</time>
      </trkpt>
      <trkpt lat="44.4427" lon="5.15984">
        <ele>753.9</ele>
        <time>2022-10-16T08:58:43Z</time>
      </trkpt>
      <trkpt lat="44.44269" lon="5.15984">
        <ele>753.9</ele>
        <time>2022-10-16T08:58:42Z</time>
      </trkpt>
      <trkpt lat="44.44268" lon="5.15983">
        <ele>754.2</ele>
        <time>2022-10-16T08:58:41Z</time>
      </trkpt>
      <trkpt lat="44.44267" lon="5.15983">
        <ele>754.3</ele>
        <time>2022-10-16T08:58:40Z</time>
      </trkpt>
      <trkpt lat="44.44266" lon="5.15983">
        <ele>754.3</ele>
        <time>2022-10-16T08:58:39Z</time>
      </trkpt>
      <trkpt lat="44.44265" lon="5.15983">
        <ele>754.4</ele>
        <time>2022-10-16T08:58:38Z</time>
      </trkpt>
      <trkpt lat="44.44264" lon="5.15983">
        <ele>754.4</ele>
        <time>2022-10-16T08:58:37Z</time>
      </trkpt>
      <trkpt lat="44.44263" lon="5.15983">
        <ele>754.4</ele>
        <time>2022-10-16T08:58:36Z</time>
      </trkpt>
      <trkpt lat="44.44262" lon="5.15982">
        <ele>754.8</ele>
        <time>2022-10-16T08:58:35Z</time>
      </trkpt>
      <trkpt lat="44.44261" lon="5.15982">
        <ele>754.8</ele>
        <time>2022-10-16T08:58:34Z</time>
      </trkpt>
      <trkpt lat="44.4426" lon="5.15981">
        <ele>755.1</ele>
        <time>2022-10-16T08:58:33Z</time>
      </trkpt>
      <trkpt lat="44.44258" lon="5.15981">
        <ele>755.2</ele>
        <time>2022-10-16T08:58:32Z</time>
      </trkpt>
      <trkpt lat="44.44257" lon="5.1598">
        <ele>755.5</ele>
        <time>2022-10-16T08:58:31Z</time>
      </trkpt>
      <trkpt lat="44.44256" lon="5.1598">
        <ele>755.5</ele>
        <time>2022-10-16T08:58:30Z</time>
      </trkpt>
      <trkpt lat="44.44255" lon="5.1598">
        <ele>755.6</ele>
        <time>2022-10-16T08:58:29Z</time>
      </trkpt>
      <trkpt lat="44.44254" lon="5.15979">
        <ele>755.9</ele>
        <time>2022-10-16T08:58:28Z</time>
      </trkpt>
      <trkpt lat="44.44253" lon="5.15979">
        <ele>755.9</ele>
        <time>2022-10-16T08:58:27Z</time>
      </trkpt>
      <trkpt lat="44.44252" lon="5.15979">
        <ele>756</ele>
        <time>2022-10-16T08:58:25Z</time>
      </trkpt>
      <trkpt lat="44.44251" lon="5.15979">
        <ele>756</ele>
        <time>2022-10-16T08:58:24Z</time>
      </trkpt>
      <trkpt lat="44.4425" lon="5.15979">
        <ele>756</ele>
        <time>2022-10-16T08:58:23Z</time>
      </trkpt>
      <trkpt lat="44.44249" lon="5.15979">
        <ele>756</ele>
        <time>2022-10-16T08:58:22Z</time>
      </trkpt>
      <trkpt lat="44.44248" lon="5.15979">
        <ele>756</ele>
        <time>2022-10-16T08:58:21Z</time>
      </trkpt>
      <trkpt lat="44.44247" lon="5.15979">
        <ele>755.9</ele>
        <time>2022-10-16T08:58:20Z</time>
      </trkpt>
      <trkpt lat="44.44246" lon="5.15979">
        <ele>755.9</ele>
        <time>2022-10-16T08:58:19Z</time>
      </trkpt>
      <trkpt lat="44.44245" lon="5.15979">
        <ele>755.9</ele>
        <time>2022-10-16T08:58:18Z</time>
      </trkpt>
      <trkpt lat="44.44244" lon="5.15978">
        <ele>756.1</ele>
        <time>2022-10-16T08:58:17Z</time>
      </trkpt>
      <trkpt lat="44.44243" lon="5.15978">
        <ele>756.1</ele>
        <time>2022-10-16T08:58:16Z</time>
      </trkpt>
      <trkpt lat="44.44243" lon="5.15977">
        <ele>756.4</ele>
        <time>2022-10-16T08:58:15Z</time>
      </trkpt>
      <trkpt lat="44.44242" lon="5.15977">
        <ele>756.3</ele>
        <time>2022-10-16T08:58:14Z</time>
      </trkpt>
      <trkpt lat="44.44241" lon="5.15977">
        <ele>756.3</ele>
        <time>2022-10-16T08:58:13Z</time>
      </trkpt>
      <trkpt lat="44.4424" lon="5.15976">
        <ele>756.6</ele>
        <time>2022-10-16T08:58:12Z</time>
      </trkpt>
      <trkpt lat="44.44239" lon="5.15976">
        <ele>756.5</ele>
        <time>2022-10-16T08:58:11Z</time>
      </trkpt>
      <trkpt lat="44.44238" lon="5.15976">
        <ele>756.5</ele>
        <time>2022-10-16T08:58:10Z</time>
      </trkpt>
      <trkpt lat="44.44237" lon="5.15976">
        <ele>756.4</ele>
        <time>2022-10-16T08:58:09Z</time>
      </trkpt>
      <trkpt lat="44.44236" lon="5.15976">
        <ele>756.4</ele>
        <time>2022-10-16T08:58:08Z</time>
      </trkpt>
      <trkpt lat="44.44235" lon="5.15976">
        <ele>756.4</ele>
        <time>2022-10-16T08:58:07Z</time>
      </trkpt>
      <trkpt lat="44.44234" lon="5.15975">
        <ele>756.6</ele>
        <time>2022-10-16T08:58:06Z</time>
      </trkpt>
      <trkpt lat="44.44233" lon="5.15975">
        <ele>756.6</ele>
        <time>2022-10-16T08:58:05Z</time>
      </trkpt>
      <trkpt lat="44.44232" lon="5.15975">
        <ele>756.6</ele>
        <time>2022-10-16T08:58:04Z</time>
      </trkpt>
      <trkpt lat="44.4423" lon="5.15975">
        <ele>756.5</ele>
        <time>2022-10-16T08:58:03Z</time>
      </trkpt>
      <trkpt lat="44.44229" lon="5.15975">
        <ele>756.4</ele>
        <time>2022-10-16T08:58:02Z</time>
      </trkpt>
      <trkpt lat="44.44228" lon="5.15975">
        <ele>756.4</ele>
        <time>2022-10-16T08:58:01Z</time>
      </trkpt>
      <trkpt lat="44.44227" lon="5.15975">
        <ele>756.4</ele>
        <time>2022-10-16T08:58:00Z</time>
      </trkpt>
      <trkpt lat="44.44226" lon="5.15975">
        <ele>756.3</ele>
        <time>2022-10-16T08:57:59Z</time>
      </trkpt>
      <trkpt lat="44.44225" lon="5.15975">
        <ele>756.3</ele>
        <time>2022-10-16T08:57:58Z</time>
      </trkpt>
      <trkpt lat="44.44224" lon="5.15974">
        <ele>756.6</ele>
        <time>2022-10-16T08:57:57Z</time>
      </trkpt>
      <trkpt lat="44.44223" lon="5.15974">
        <ele>756.5</ele>
        <time>2022-10-16T08:57:56Z</time>
      </trkpt>
      <trkpt lat="44.44222" lon="5.15974">
        <ele>756.5</ele>
        <time>2022-10-16T08:57:55Z</time>
      </trkpt>
      <trkpt lat="44.44221" lon="5.15974">
        <ele>756.5</ele>
        <time>2022-10-16T08:57:54Z</time>
      </trkpt>
      <trkpt lat="44.4422" lon="5.15974">
        <ele>756.5</ele>
        <time>2022-10-16T08:57:53Z</time>
      </trkpt>
      <trkpt lat="44.44219" lon="5.15973">
        <ele>756.8</ele>
        <time>2022-10-16T08:57:52Z</time>
      </trkpt>
      <trkpt lat="44.44218" lon="5.15973">
        <ele>756.8</ele>
        <time>2022-10-16T08:57:51Z</time>
      </trkpt>
      <trkpt lat="44.44217" lon="5.15973">
        <ele>756.8</ele>
        <time>2022-10-16T08:57:50Z</time>
      </trkpt>
      <trkpt lat="44.44216" lon="5.15973">
        <ele>756.8</ele>
        <time>2022-10-16T08:57:49Z</time>
      </trkpt>
      <trkpt lat="44.44216" lon="5.15972">
        <ele>757.1</ele>
        <time>2022-10-16T08:57:48Z</time>
      </trkpt>
      <trkpt lat="44.44215" lon="5.15972">
        <ele>757.1</ele>
        <time>2022-10-16T08:57:47Z</time>
      </trkpt>
      <trkpt lat="44.44214" lon="5.15972">
        <ele>757.1</ele>
        <time>2022-10-16T08:57:46Z</time>
      </trkpt>
      <trkpt lat="44.44213" lon="5.15972">
        <ele>757.1</ele>
        <time>2022-10-16T08:57:45Z</time>
      </trkpt>
      <trkpt lat="44.44212" lon="5.15971">
        <ele>757.4</ele>
        <time>2022-10-16T08:57:33Z</time>
      </trkpt>
      <trkpt lat="44.44211" lon="5.15971">
        <ele>757.4</ele>
        <time>2022-10-16T08:57:31Z</time>
      </trkpt>
      <trkpt lat="44.4421" lon="5.15971">
        <ele>757.4</ele>
        <time>2022-10-16T08:57:30Z</time>
      </trkpt>
      <trkpt lat="44.44209" lon="5.15971">
        <ele>757.4</ele>
        <time>2022-10-16T08:57:29Z</time>
      </trkpt>
      <trkpt lat="44.44209" lon="5.1597">
        <ele>757.8</ele>
        <time>2022-10-16T08:57:28Z</time>
      </trkpt>
      <trkpt lat="44.44208" lon="5.1597">
        <ele>757.8</ele>
        <time>2022-10-16T08:57:27Z</time>
      </trkpt>
      <trkpt lat="44.44207" lon="5.1597">
        <ele>757.8</ele>
        <time>2022-10-16T08:57:20Z</time>
      </trkpt>
      <trkpt lat="44.44205" lon="5.15969">
        <ele>758.1</ele>
        <time>2022-10-16T08:57:19Z</time>
      </trkpt>
      <trkpt lat="44.44204" lon="5.15969">
        <ele>758.1</ele>
        <time>2022-10-16T08:57:18Z</time>
      </trkpt>
      <trkpt lat="44.44203" lon="5.15969">
        <ele>758.1</ele>
        <time>2022-10-16T08:57:17Z</time>
      </trkpt>
      <trkpt lat="44.44202" lon="5.15968">
        <ele>758.4</ele>
        <time>2022-10-16T08:57:16Z</time>
      </trkpt>
      <trkpt lat="44.44201" lon="5.15968">
        <ele>758.4</ele>
        <time>2022-10-16T08:57:15Z</time>
      </trkpt>
      <trkpt lat="44.442" lon="5.15967">
        <ele>758.7</ele>
        <time>2022-10-16T08:57:14Z</time>
      </trkpt>
      <trkpt lat="44.44199" lon="5.15967">
        <ele>758.7</ele>
        <time>2022-10-16T08:57:13Z</time>
      </trkpt>
      <trkpt lat="44.44198" lon="5.15967">
        <ele>758.7</ele>
        <time>2022-10-16T08:57:12Z</time>
      </trkpt>
      <trkpt lat="44.44197" lon="5.15966">
        <ele>759</ele>
        <time>2022-10-16T08:57:11Z</time>
      </trkpt>
      <trkpt lat="44.44196" lon="5.15966">
        <ele>759</ele>
        <time>2022-10-16T08:57:10Z</time>
      </trkpt>
      <trkpt lat="44.44195" lon="5.15966">
        <ele>759</ele>
        <time>2022-10-16T08:57:09Z</time>
      </trkpt>
      <trkpt lat="44.44195" lon="5.15965">
        <ele>759.3</ele>
        <time>2022-10-16T08:57:08Z</time>
      </trkpt>
      <trkpt lat="44.44194" lon="5.15965">
        <ele>759.3</ele>
        <time>2022-10-16T08:57:07Z</time>
      </trkpt>
      <trkpt lat="44.44193" lon="5.15964">
        <ele>759.6</ele>
        <time>2022-10-16T08:57:06Z</time>
      </trkpt>
      <trkpt lat="44.44192" lon="5.15964">
        <ele>759.6</ele>
        <time>2022-10-16T08:57:05Z</time>
      </trkpt>
      <trkpt lat="44.44191" lon="5.15963">
        <ele>759.9</ele>
        <time>2022-10-16T08:57:04Z</time>
      </trkpt>
      <trkpt lat="44.4419" lon="5.15963">
        <ele>759.9</ele>
        <time>2022-10-16T08:57:03Z</time>
      </trkpt>
      <trkpt lat="44.44189" lon="5.15963">
        <ele>759.9</ele>
        <time>2022-10-16T08:57:02Z</time>
      </trkpt>
      <trkpt lat="44.44188" lon="5.15962">
        <ele>760.1</ele>
        <time>2022-10-16T08:57:01Z</time>
      </trkpt>
      <trkpt lat="44.44187" lon="5.15962">
        <ele>760.1</ele>
        <time>2022-10-16T08:57:00Z</time>
      </trkpt>
      <trkpt lat="44.44186" lon="5.15962">
        <ele>760.1</ele>
        <time>2022-10-16T08:56:59Z</time>
      </trkpt>
      <trkpt lat="44.44185" lon="5.15962">
        <ele>760.1</ele>
        <time>2022-10-16T08:56:58Z</time>
      </trkpt>
      <trkpt lat="44.44184" lon="5.15962">
        <ele>760</ele>
        <time>2022-10-16T08:56:57Z</time>
      </trkpt>
      <trkpt lat="44.44183" lon="5.15962">
        <ele>760</ele>
        <time>2022-10-16T08:56:56Z</time>
      </trkpt>
      <trkpt lat="44.44182" lon="5.15961">
        <ele>760.3</ele>
        <time>2022-10-16T08:56:55Z</time>
      </trkpt>
      <trkpt lat="44.44181" lon="5.15961">
        <ele>760.2</ele>
        <time>2022-10-16T08:56:54Z</time>
      </trkpt>
      <trkpt lat="44.4418" lon="5.15961">
        <ele>760.2</ele>
        <time>2022-10-16T08:56:53Z</time>
      </trkpt>
      <trkpt lat="44.44179" lon="5.15961">
        <ele>760.2</ele>
        <time>2022-10-16T08:56:52Z</time>
      </trkpt>
      <trkpt lat="44.44178" lon="5.1596">
        <ele>760.4</ele>
        <time>2022-10-16T08:56:51Z</time>
      </trkpt>
      <trkpt lat="44.44177" lon="5.1596">
        <ele>760.4</ele>
        <time>2022-10-16T08:56:50Z</time>
      </trkpt>
      <trkpt lat="44.44176" lon="5.15959">
        <ele>760.7</ele>
        <time>2022-10-16T08:56:49Z</time>
      </trkpt>
      <trkpt lat="44.44175" lon="5.15959">
        <ele>760.6</ele>
        <time>2022-10-16T08:56:48Z</time>
      </trkpt>
      <trkpt lat="44.44174" lon="5.15958">
        <ele>760.9</ele>
        <time>2022-10-16T08:56:47Z</time>
      </trkpt>
      <trkpt lat="44.44173" lon="5.15957">
        <ele>761.1</ele>
        <time>2022-10-16T08:56:46Z</time>
      </trkpt>
      <trkpt lat="44.44172" lon="5.15956">
        <ele>761.3</ele>
        <time>2022-10-16T08:56:45Z</time>
      </trkpt>
      <trkpt lat="44.44171" lon="5.15956">
        <ele>761.3</ele>
        <time>2022-10-16T08:56:44Z</time>
      </trkpt>
      <trkpt lat="44.44171" lon="5.15955">
        <ele>761.5</ele>
        <time>2022-10-16T08:56:43Z</time>
      </trkpt>
      <trkpt lat="44.4417" lon="5.15954">
        <ele>761.7</ele>
        <time>2022-10-16T08:56:42Z</time>
      </trkpt>
      <trkpt lat="44.44169" lon="5.15954">
        <ele>761.7</ele>
        <time>2022-10-16T08:56:41Z</time>
      </trkpt>
      <trkpt lat="44.44168" lon="5.15953">
        <ele>761.9</ele>
        <time>2022-10-16T08:56:40Z</time>
      </trkpt>
      <trkpt lat="44.44167" lon="5.15953">
        <ele>761.9</ele>
        <time>2022-10-16T08:56:39Z</time>
      </trkpt>
      <trkpt lat="44.44166" lon="5.15952">
        <ele>762.1</ele>
        <time>2022-10-16T08:56:38Z</time>
      </trkpt>
      <trkpt lat="44.44165" lon="5.15952">
        <ele>762.2</ele>
        <time>2022-10-16T08:56:37Z</time>
      </trkpt>
      <trkpt lat="44.44164" lon="5.15951">
        <ele>762.5</ele>
        <time>2022-10-16T08:56:36Z</time>
      </trkpt>
      <trkpt lat="44.44163" lon="5.1595">
        <ele>762.8</ele>
        <time>2022-10-16T08:56:35Z</time>
      </trkpt>
      <trkpt lat="44.44162" lon="5.1595">
        <ele>762.9</ele>
        <time>2022-10-16T08:56:34Z</time>
      </trkpt>
      <trkpt lat="44.44161" lon="5.15949">
        <ele>763.2</ele>
        <time>2022-10-16T08:56:33Z</time>
      </trkpt>
      <trkpt lat="44.4416" lon="5.15948">
        <ele>763.4</ele>
        <time>2022-10-16T08:56:32Z</time>
      </trkpt>
      <trkpt lat="44.44159" lon="5.15948">
        <ele>763.5</ele>
        <time>2022-10-16T08:56:31Z</time>
      </trkpt>
      <trkpt lat="44.44158" lon="5.15947">
        <ele>763.8</ele>
        <time>2022-10-16T08:56:29Z</time>
      </trkpt>
      <trkpt lat="44.44157" lon="5.15946">
        <ele>764</ele>
        <time>2022-10-16T08:56:28Z</time>
      </trkpt>
      <trkpt lat="44.44156" lon="5.15945">
        <ele>764.3</ele>
        <time>2022-10-16T08:56:27Z</time>
      </trkpt>
      <trkpt lat="44.44155" lon="5.15945">
        <ele>764.3</ele>
        <time>2022-10-16T08:56:26Z</time>
      </trkpt>
      <trkpt lat="44.44155" lon="5.15944">
        <ele>764.5</ele>
        <time>2022-10-16T08:56:25Z</time>
      </trkpt>
      <trkpt lat="44.44154" lon="5.15943">
        <ele>764.7</ele>
        <time>2022-10-16T08:56:24Z</time>
      </trkpt>
      <trkpt lat="44.44153" lon="5.15942">
        <ele>764.9</ele>
        <time>2022-10-16T08:56:23Z</time>
      </trkpt>
      <trkpt lat="44.44153" lon="5.15941">
        <ele>765.1</ele>
        <time>2022-10-16T08:56:22Z</time>
      </trkpt>
      <trkpt lat="44.44152" lon="5.1594">
        <ele>765.2</ele>
        <time>2022-10-16T08:56:21Z</time>
      </trkpt>
      <trkpt lat="44.44152" lon="5.15939">
        <ele>765.4</ele>
        <time>2022-10-16T08:56:20Z</time>
      </trkpt>
      <trkpt lat="44.44151" lon="5.15937">
        <ele>765.7</ele>
        <time>2022-10-16T08:56:19Z</time>
      </trkpt>
      <trkpt lat="44.44151" lon="5.15936">
        <ele>765.8</ele>
        <time>2022-10-16T08:56:18Z</time>
      </trkpt>
      <trkpt lat="44.4415" lon="5.15935">
        <ele>766</ele>
        <time>2022-10-16T08:56:17Z</time>
      </trkpt>
      <trkpt lat="44.4415" lon="5.15934">
        <ele>766.1</ele>
        <time>2022-10-16T08:56:16Z</time>
      </trkpt>
      <trkpt lat="44.4415" lon="5.15933">
        <ele>766.2</ele>
        <time>2022-10-16T08:56:15Z</time>
      </trkpt>
      <trkpt lat="44.44149" lon="5.15931">
        <ele>766.5</ele>
        <time>2022-10-16T08:56:14Z</time>
      </trkpt>
      <trkpt lat="44.44149" lon="5.1593">
        <ele>766.6</ele>
        <time>2022-10-16T08:56:13Z</time>
      </trkpt>
      <trkpt lat="44.44149" lon="5.15929">
        <ele>766.8</ele>
        <time>2022-10-16T08:56:12Z</time>
      </trkpt>
      <trkpt lat="44.44149" lon="5.15927">
        <ele>767</ele>
        <time>2022-10-16T08:56:11Z</time>
      </trkpt>
      <trkpt lat="44.44148" lon="5.15926">
        <ele>767.1</ele>
        <time>2022-10-16T08:56:10Z</time>
      </trkpt>
      <trkpt lat="44.44148" lon="5.15925">
        <ele>767.2</ele>
        <time>2022-10-16T08:56:09Z</time>
      </trkpt>
      <trkpt lat="44.44148" lon="5.15924">
        <ele>767.4</ele>
        <time>2022-10-16T08:56:08Z</time>
      </trkpt>
      <trkpt lat="44.44148" lon="5.15922">
        <ele>767.6</ele>
        <time>2022-10-16T08:56:07Z</time>
      </trkpt>
      <trkpt lat="44.44147" lon="5.15921">
        <ele>767.6</ele>
        <time>2022-10-16T08:56:06Z</time>
      </trkpt>
      <trkpt lat="44.44147" lon="5.1592">
        <ele>767.8</ele>
        <time>2022-10-16T08:56:05Z</time>
      </trkpt>
      <trkpt lat="44.44147" lon="5.15918">
        <ele>768</ele>
        <time>2022-10-16T08:56:04Z</time>
      </trkpt>
      <trkpt lat="44.44146" lon="5.15917">
        <ele>768</ele>
        <time>2022-10-16T08:56:03Z</time>
      </trkpt>
      <trkpt lat="44.44146" lon="5.15916">
        <ele>768</ele>
        <time>2022-10-16T08:56:02Z</time>
      </trkpt>
      <trkpt lat="44.44146" lon="5.15915">
        <ele>768.1</ele>
        <time>2022-10-16T08:56:01Z</time>
      </trkpt>
      <trkpt lat="44.44146" lon="5.15914">
        <ele>768.1</ele>
        <time>2022-10-16T08:56:00Z</time>
      </trkpt>
      <trkpt lat="44.44145" lon="5.15912">
        <ele>767.9</ele>
        <time>2022-10-16T08:55:39Z</time>
      </trkpt>
      <trkpt lat="44.44145" lon="5.15911">
        <ele>767.9</ele>
        <time>2022-10-16T08:55:38Z</time>
      </trkpt>
      <trkpt lat="44.44145" lon="5.1591">
        <ele>768</ele>
        <time>2022-10-16T08:55:37Z</time>
      </trkpt>
      <trkpt lat="44.44145" lon="5.15908">
        <ele>768</ele>
        <time>2022-10-16T08:55:36Z</time>
      </trkpt>
      <trkpt lat="44.44144" lon="5.15907">
        <ele>767.8</ele>
        <time>2022-10-16T08:55:35Z</time>
      </trkpt>
      <trkpt lat="44.44143" lon="5.15903">
        <ele>767.5</ele>
        <time>2022-10-16T08:45:29Z</time>
      </trkpt>
      <trkpt lat="44.44143" lon="5.15902">
        <ele>767.5</ele>
        <time>2022-10-16T08:45:28Z</time>
      </trkpt>
      <trkpt lat="44.44143" lon="5.15901">
        <ele>767.5</ele>
        <time>2022-10-16T08:45:26Z</time>
      </trkpt>
      <trkpt lat="44.44143" lon="5.159">
        <ele>767.5</ele>
        <time>2022-10-16T08:44:08Z</time>
      </trkpt>
      <trkpt lat="44.44143" lon="5.15901">
        <ele>767.5</ele>
        <time>2022-10-16T08:44:07Z</time>
      </trkpt>
      <trkpt lat="44.44143" lon="5.15902">
        <ele>767.5</ele>
        <time>2022-10-16T08:44:06Z</time>
      </trkpt>
      <trkpt lat="44.44143" lon="5.15903">
        <ele>767.5</ele>
        <time>2022-10-16T08:44:05Z</time>
      </trkpt>
      <trkpt lat="44.44143" lon="5.15905">
        <ele>767.5</ele>
        <time>2022-10-16T08:44:04Z</time>
      </trkpt>
      <trkpt lat="44.44144" lon="5.15906">
        <ele>767.8</ele>
        <time>2022-10-16T08:44:03Z</time>
      </trkpt>
      <trkpt lat="44.44144" lon="5.15907">
        <ele>767.8</ele>
        <time>2022-10-16T08:44:02Z</time>
      </trkpt>
      <trkpt lat="44.44144" lon="5.15909">
        <ele>767.8</ele>
        <time>2022-10-16T08:44:01Z</time>
      </trkpt>
      <trkpt lat="44.44144" lon="5.1591">
        <ele>767.8</ele>
        <time>2022-10-16T08:44:00Z</time>
      </trkpt>
      <trkpt lat="44.44144" lon="5.15913">
        <ele>767.7</ele>
        <time>2022-10-16T08:41:26Z</time>
      </trkpt>
      <trkpt lat="44.44144" lon="5.15914">
        <ele>767.7</ele>
        <time>2022-10-16T08:41:25Z</time>
      </trkpt>
      <trkpt lat="44.44144" lon="5.15913">
        <ele>767.7</ele>
        <time>2022-10-16T08:41:24Z</time>
      </trkpt>
      <trkpt lat="44.44143" lon="5.15913">
        <ele>767.6</ele>
        <time>2022-10-16T08:41:23Z</time>
      </trkpt>
      <trkpt lat="44.44143" lon="5.15912">
        <ele>767.6</ele>
        <time>2022-10-16T08:41:11Z</time>
      </trkpt>
      <trkpt lat="44.44142" lon="5.15912">
        <ele>767.4</ele>
        <time>2022-10-16T08:41:10Z</time>
      </trkpt>
      <trkpt lat="44.44142" lon="5.15911">
        <ele>767.4</ele>
        <time>2022-10-16T08:41:09Z</time>
      </trkpt>
      <trkpt lat="44.44141" lon="5.15911">
        <ele>767.2</ele>
        <time>2022-10-16T08:41:08Z</time>
      </trkpt>
      <trkpt lat="44.44141" lon="5.1591">
        <ele>767.2</ele>
        <time>2022-10-16T08:41:07Z</time>
      </trkpt>
      <trkpt lat="44.44141" lon="5.15909">
        <ele>767.2</ele>
        <time>2022-10-16T08:41:06Z</time>
      </trkpt>
      <trkpt lat="44.4414" lon="5.15908">
        <ele>766.9</ele>
        <time>2022-10-16T08:41:05Z</time>
      </trkpt>
      <trkpt lat="44.4414" lon="5.15907">
        <ele>766.9</ele>
        <time>2022-10-16T08:41:04Z</time>
      </trkpt>
      <trkpt lat="44.4414" lon="5.15906">
        <ele>766.9</ele>
        <time>2022-10-16T08:41:03Z</time>
      </trkpt>
      <trkpt lat="44.4414" lon="5.15904">
        <ele>766.8</ele>
        <time>2022-10-16T08:41:02Z</time>
      </trkpt>
      <trkpt lat="44.4414" lon="5.15903">
        <ele>766.8</ele>
        <time>2022-10-16T08:41:01Z</time>
      </trkpt>
      <trkpt lat="44.4414" lon="5.15901">
        <ele>766.7</ele>
        <time>2022-10-16T08:41:00Z</time>
      </trkpt>
      <trkpt lat="44.4414" lon="5.159">
        <ele>766.7</ele>
        <time>2022-10-16T08:40:59Z</time>
      </trkpt>
      <trkpt lat="44.4414" lon="5.15898">
        <ele>766.6</ele>
        <time>2022-10-16T08:40:58Z</time>
      </trkpt>
      <trkpt lat="44.4414" lon="5.15897">
        <ele>766.6</ele>
        <time>2022-10-16T08:40:57Z</time>
      </trkpt>
      <trkpt lat="44.44141" lon="5.15895">
        <ele>766.9</ele>
        <time>2022-10-16T08:40:56Z</time>
      </trkpt>
      <trkpt lat="44.4414" lon="5.15894">
        <ele>766.5</ele>
        <time>2022-10-16T08:40:55Z</time>
      </trkpt>
      <trkpt lat="44.4414" lon="5.15893">
        <ele>766.5</ele>
        <time>2022-10-16T08:40:54Z</time>
      </trkpt>
      <trkpt lat="44.4414" lon="5.15892">
        <ele>766.5</ele>
        <time>2022-10-16T08:40:53Z</time>
      </trkpt>
      <trkpt lat="44.4414" lon="5.1589">
        <ele>766.4</ele>
        <time>2022-10-16T08:40:52Z</time>
      </trkpt>
      <trkpt lat="44.44139" lon="5.15889">
        <ele>766</ele>
        <time>2022-10-16T08:40:51Z</time>
      </trkpt>
      <trkpt lat="44.44139" lon="5.15888">
        <ele>766</ele>
        <time>2022-10-16T08:40:50Z</time>
      </trkpt>
      <trkpt lat="44.44139" lon="5.15887">
        <ele>766</ele>
        <time>2022-10-16T08:40:49Z</time>
      </trkpt>
      <trkpt lat="44.44138" lon="5.15886">
        <ele>765.5</ele>
        <time>2022-10-16T08:40:48Z</time>
      </trkpt>
      <trkpt lat="44.44138" lon="5.15885">
        <ele>765.5</ele>
        <time>2022-10-16T08:40:47Z</time>
      </trkpt>
      <trkpt lat="44.44138" lon="5.15884">
        <ele>765.5</ele>
        <time>2022-10-16T08:40:46Z</time>
      </trkpt>
      <trkpt lat="44.44137" lon="5.15883">
        <ele>765</ele>
        <time>2022-10-16T08:40:45Z</time>
      </trkpt>
      <trkpt lat="44.44137" lon="5.15881">
        <ele>764.9</ele>
        <time>2022-10-16T08:40:44Z</time>
      </trkpt>
      <trkpt lat="44.44137" lon="5.1588">
        <ele>764.9</ele>
        <time>2022-10-16T08:40:43Z</time>
      </trkpt>
      <trkpt lat="44.44137" lon="5.15878">
        <ele>764.8</ele>
        <time>2022-10-16T08:40:42Z</time>
      </trkpt>
      <trkpt lat="44.44137" lon="5.15877">
        <ele>764.8</ele>
        <time>2022-10-16T08:40:41Z</time>
      </trkpt>
      <trkpt lat="44.44137" lon="5.15875">
        <ele>764.7</ele>
        <time>2022-10-16T08:40:40Z</time>
      </trkpt>
      <trkpt lat="44.44137" lon="5.15874">
        <ele>764.6</ele>
        <time>2022-10-16T08:40:39Z</time>
      </trkpt>
      <trkpt lat="44.44137" lon="5.15872">
        <ele>764.6</ele>
        <time>2022-10-16T08:40:38Z</time>
      </trkpt>
      <trkpt lat="44.44137" lon="5.15871">
        <ele>764.5</ele>
        <time>2022-10-16T08:40:37Z</time>
      </trkpt>
      <trkpt lat="44.44137" lon="5.15869">
        <ele>764.4</ele>
        <time>2022-10-16T08:40:36Z</time>
      </trkpt>
      <trkpt lat="44.44137" lon="5.15868">
        <ele>764.4</ele>
        <time>2022-10-16T08:40:35Z</time>
      </trkpt>
      <trkpt lat="44.44138" lon="5.15867">
        <ele>764.8</ele>
        <time>2022-10-16T08:40:34Z</time>
      </trkpt>
      <trkpt lat="44.44138" lon="5.15865">
        <ele>764.7</ele>
        <time>2022-10-16T08:40:33Z</time>
      </trkpt>
      <trkpt lat="44.44138" lon="5.15864">
        <ele>764.7</ele>
        <time>2022-10-16T08:40:32Z</time>
      </trkpt>
      <trkpt lat="44.44138" lon="5.15863">
        <ele>764.7</ele>
        <time>2022-10-16T08:40:31Z</time>
      </trkpt>
      <trkpt lat="44.44138" lon="5.15862">
        <ele>764.6</ele>
        <time>2022-10-16T08:40:30Z</time>
      </trkpt>
      <trkpt lat="44.44138" lon="5.1586">
        <ele>764.5</ele>
        <time>2022-10-16T08:40:29Z</time>
      </trkpt>
      <trkpt lat="44.44138" lon="5.15859">
        <ele>764.5</ele>
        <time>2022-10-16T08:40:28Z</time>
      </trkpt>
      <trkpt lat="44.44138" lon="5.15858">
        <ele>764.5</ele>
        <time>2022-10-16T08:40:27Z</time>
      </trkpt>
      <trkpt lat="44.44138" lon="5.15856">
        <ele>764.4</ele>
        <time>2022-10-16T08:40:26Z</time>
      </trkpt>
      <trkpt lat="44.44138" lon="5.15855">
        <ele>764.4</ele>
        <time>2022-10-16T08:40:25Z</time>
      </trkpt>
      <trkpt lat="44.44138" lon="5.15854">
        <ele>764.3</ele>
        <time>2022-10-16T08:40:24Z</time>
      </trkpt>
      <trkpt lat="44.44138" lon="5.15852">
        <ele>764.3</ele>
        <time>2022-10-16T08:40:23Z</time>
      </trkpt>
      <trkpt lat="44.44138" lon="5.15851">
        <ele>764.2</ele>
        <time>2022-10-16T08:40:22Z</time>
      </trkpt>
      <trkpt lat="44.44137" lon="5.1585">
        <ele>763.7</ele>
        <time>2022-10-16T08:40:21Z</time>
      </trkpt>
      <trkpt lat="44.44137" lon="5.15848">
        <ele>763.7</ele>
        <time>2022-10-16T08:40:20Z</time>
      </trkpt>
      <trkpt lat="44.44137" lon="5.15847">
        <ele>763.6</ele>
        <time>2022-10-16T08:40:19Z</time>
      </trkpt>
      <trkpt lat="44.44137" lon="5.15846">
        <ele>763.6</ele>
        <time>2022-10-16T08:40:18Z</time>
      </trkpt>
      <trkpt lat="44.44137" lon="5.15845">
        <ele>763.6</ele>
        <time>2022-10-16T08:40:17Z</time>
      </trkpt>
      <trkpt lat="44.44137" lon="5.15843">
        <ele>763.5</ele>
        <time>2022-10-16T08:40:16Z</time>
      </trkpt>
      <trkpt lat="44.44136" lon="5.15842">
        <ele>763</ele>
        <time>2022-10-16T08:40:15Z</time>
      </trkpt>
      <trkpt lat="44.44136" lon="5.15841">
        <ele>763</ele>
        <time>2022-10-16T08:40:14Z</time>
      </trkpt>
      <trkpt lat="44.44136" lon="5.1584">
        <ele>763</ele>
        <time>2022-10-16T08:40:13Z</time>
      </trkpt>
      <trkpt lat="44.44136" lon="5.15838">
        <ele>762.9</ele>
        <time>2022-10-16T08:40:12Z</time>
      </trkpt>
      <trkpt lat="44.44136" lon="5.15837">
        <ele>762.9</ele>
        <time>2022-10-16T08:40:11Z</time>
      </trkpt>
      <trkpt lat="44.44135" lon="5.15836">
        <ele>762.4</ele>
        <time>2022-10-16T08:40:10Z</time>
      </trkpt>
      <trkpt lat="44.44135" lon="5.15835">
        <ele>762.4</ele>
        <time>2022-10-16T08:40:09Z</time>
      </trkpt>
      <trkpt lat="44.44135" lon="5.15833">
        <ele>762.3</ele>
        <time>2022-10-16T08:40:08Z</time>
      </trkpt>
      <trkpt lat="44.44135" lon="5.15832">
        <ele>762.4</ele>
        <time>2022-10-16T08:40:07Z</time>
      </trkpt>
      <trkpt lat="44.44135" lon="5.15831">
        <ele>762.4</ele>
        <time>2022-10-16T08:40:06Z</time>
      </trkpt>
      <trkpt lat="44.44135" lon="5.15829">
        <ele>762.5</ele>
        <time>2022-10-16T08:40:05Z</time>
      </trkpt>
      <trkpt lat="44.44135" lon="5.15828">
        <ele>762.5</ele>
        <time>2022-10-16T08:40:04Z</time>
      </trkpt>
      <trkpt lat="44.44135" lon="5.15827">
        <ele>762.6</ele>
        <time>2022-10-16T08:40:03Z</time>
      </trkpt>
      <trkpt lat="44.44135" lon="5.15825">
        <ele>762.7</ele>
        <time>2022-10-16T08:40:02Z</time>
      </trkpt>
      <trkpt lat="44.44135" lon="5.15824">
        <ele>762.7</ele>
        <time>2022-10-16T08:40:01Z</time>
      </trkpt>
      <trkpt lat="44.44135" lon="5.15822">
        <ele>762.8</ele>
        <time>2022-10-16T08:40:00Z</time>
      </trkpt>
      <trkpt lat="44.44135" lon="5.15821">
        <ele>762.8</ele>
        <time>2022-10-16T08:39:59Z</time>
      </trkpt>
      <trkpt lat="44.44135" lon="5.1582">
        <ele>762.9</ele>
        <time>2022-10-16T08:39:58Z</time>
      </trkpt>
      <trkpt lat="44.44135" lon="5.15818">
        <ele>762.9</ele>
        <time>2022-10-16T08:39:57Z</time>
      </trkpt>
      <trkpt lat="44.44135" lon="5.15817">
        <ele>763</ele>
        <time>2022-10-16T08:39:56Z</time>
      </trkpt>
      <trkpt lat="44.44135" lon="5.15816">
        <ele>763</ele>
        <time>2022-10-16T08:39:55Z</time>
      </trkpt>
      <trkpt lat="44.44134" lon="5.15814">
        <ele>762.7</ele>
        <time>2022-10-16T08:39:54Z</time>
      </trkpt>
      <trkpt lat="44.44134" lon="5.15813">
        <ele>762.7</ele>
        <time>2022-10-16T08:39:53Z</time>
      </trkpt>
      <trkpt lat="44.44134" lon="5.15812">
        <ele>762.8</ele>
        <time>2022-10-16T08:39:52Z</time>
      </trkpt>
      <trkpt lat="44.44134" lon="5.15811">
        <ele>762.8</ele>
        <time>2022-10-16T08:39:51Z</time>
      </trkpt>
      <trkpt lat="44.44133" lon="5.15809">
        <ele>762.5</ele>
        <time>2022-10-16T08:39:50Z</time>
      </trkpt>
      <trkpt lat="44.44133" lon="5.15808">
        <ele>762.6</ele>
        <time>2022-10-16T08:39:49Z</time>
      </trkpt>
      <trkpt lat="44.44133" lon="5.15806">
        <ele>762.6</ele>
        <time>2022-10-16T08:39:48Z</time>
      </trkpt>
      <trkpt lat="44.44132" lon="5.15805">
        <ele>762.3</ele>
        <time>2022-10-16T08:39:47Z</time>
      </trkpt>
      <trkpt lat="44.44132" lon="5.15804">
        <ele>762.5</ele>
        <time>2022-10-16T08:39:46Z</time>
      </trkpt>
      <trkpt lat="44.44131" lon="5.15802">
        <ele>762.3</ele>
        <time>2022-10-16T08:39:45Z</time>
      </trkpt>
      <trkpt lat="44.44131" lon="5.15801">
        <ele>762.4</ele>
        <time>2022-10-16T08:39:44Z</time>
      </trkpt>
      <trkpt lat="44.4413" lon="5.158">
        <ele>762.2</ele>
        <time>2022-10-16T08:39:43Z</time>
      </trkpt>
      <trkpt lat="44.44129" lon="5.15799">
        <ele>761.9</ele>
        <time>2022-10-16T08:39:42Z</time>
      </trkpt>
      <trkpt lat="44.44129" lon="5.15798">
        <ele>762</ele>
        <time>2022-10-16T08:39:41Z</time>
      </trkpt>
      <trkpt lat="44.44128" lon="5.15797">
        <ele>761.7</ele>
        <time>2022-10-16T08:39:40Z</time>
      </trkpt>
      <trkpt lat="44.44128" lon="5.15796">
        <ele>761.8</ele>
        <time>2022-10-16T08:39:39Z</time>
      </trkpt>
      <trkpt lat="44.44127" lon="5.15794">
        <ele>761.6</ele>
        <time>2022-10-16T08:39:38Z</time>
      </trkpt>
      <trkpt lat="44.44127" lon="5.15793">
        <ele>761.7</ele>
        <time>2022-10-16T08:39:37Z</time>
      </trkpt>
      <trkpt lat="44.44126" lon="5.15792">
        <ele>761.4</ele>
        <time>2022-10-16T08:39:36Z</time>
      </trkpt>
      <trkpt lat="44.44126" lon="5.15791">
        <ele>761.5</ele>
        <time>2022-10-16T08:39:35Z</time>
      </trkpt>
      <trkpt lat="44.44126" lon="5.1579">
        <ele>761.6</ele>
        <time>2022-10-16T08:39:34Z</time>
      </trkpt>
      <trkpt lat="44.44125" lon="5.15789">
        <ele>761.3</ele>
        <time>2022-10-16T08:39:33Z</time>
      </trkpt>
      <trkpt lat="44.44125" lon="5.15788">
        <ele>761.4</ele>
        <time>2022-10-16T08:39:32Z</time>
      </trkpt>
      <trkpt lat="44.44125" lon="5.15786">
        <ele>761.6</ele>
        <time>2022-10-16T08:39:31Z</time>
      </trkpt>
      <trkpt lat="44.44124" lon="5.15785">
        <ele>761.3</ele>
        <time>2022-10-16T08:39:30Z</time>
      </trkpt>
      <trkpt lat="44.44124" lon="5.15784">
        <ele>761.4</ele>
        <time>2022-10-16T08:39:29Z</time>
      </trkpt>
      <trkpt lat="44.44123" lon="5.15783">
        <ele>761</ele>
        <time>2022-10-16T08:39:28Z</time>
      </trkpt>
      <trkpt lat="44.44123" lon="5.15782">
        <ele>761.1</ele>
        <time>2022-10-16T08:39:27Z</time>
      </trkpt>
      <trkpt lat="44.44122" lon="5.15781">
        <ele>760.8</ele>
        <time>2022-10-16T08:39:26Z</time>
      </trkpt>
      <trkpt lat="44.44121" lon="5.1578">
        <ele>760.4</ele>
        <time>2022-10-16T08:39:25Z</time>
      </trkpt>
      <trkpt lat="44.4412" lon="5.15779">
        <ele>760</ele>
        <time>2022-10-16T08:39:24Z</time>
      </trkpt>
      <trkpt lat="44.44119" lon="5.15777">
        <ele>759.8</ele>
        <time>2022-10-16T08:39:23Z</time>
      </trkpt>
      <trkpt lat="44.44118" lon="5.15776">
        <ele>759.5</ele>
        <time>2022-10-16T08:39:22Z</time>
      </trkpt>
      <trkpt lat="44.44117" lon="5.15775">
        <ele>759.3</ele>
        <time>2022-10-16T08:39:21Z</time>
      </trkpt>
      <trkpt lat="44.44116" lon="5.15774">
        <ele>759</ele>
        <time>2022-10-16T08:39:20Z</time>
      </trkpt>
      <trkpt lat="44.44116" lon="5.15773">
        <ele>759.1</ele>
        <time>2022-10-16T08:39:19Z</time>
      </trkpt>
      <trkpt lat="44.44115" lon="5.15772">
        <ele>758.9</ele>
        <time>2022-10-16T08:39:18Z</time>
      </trkpt>
      <trkpt lat="44.44114" lon="5.15771">
        <ele>758.6</ele>
        <time>2022-10-16T08:39:16Z</time>
      </trkpt>
      <trkpt lat="44.44113" lon="5.1577">
        <ele>758.3</ele>
        <time>2022-10-16T08:39:15Z</time>
      </trkpt>
      <trkpt lat="44.44113" lon="5.15769">
        <ele>758.5</ele>
        <time>2022-10-16T08:39:14Z</time>
      </trkpt>
      <trkpt lat="44.44112" lon="5.15768">
        <ele>758.2</ele>
        <time>2022-10-16T08:39:13Z</time>
      </trkpt>
      <trkpt lat="44.44111" lon="5.15768">
        <ele>757.7</ele>
        <time>2022-10-16T08:39:12Z</time>
      </trkpt>
      <trkpt lat="44.44111" lon="5.15767">
        <ele>757.9</ele>
        <time>2022-10-16T08:39:11Z</time>
      </trkpt>
      <trkpt lat="44.4411" lon="5.15766">
        <ele>757.6</ele>
        <time>2022-10-16T08:39:10Z</time>
      </trkpt>
      <trkpt lat="44.4411" lon="5.15765">
        <ele>757.8</ele>
        <time>2022-10-16T08:39:09Z</time>
      </trkpt>
      <trkpt lat="44.44109" lon="5.15764">
        <ele>757.5</ele>
        <time>2022-10-16T08:39:07Z</time>
      </trkpt>
      <trkpt lat="44.44108" lon="5.15763">
        <ele>757.1</ele>
        <time>2022-10-16T08:39:06Z</time>
      </trkpt>
      <trkpt lat="44.44108" lon="5.15762">
        <ele>757.3</ele>
        <time>2022-10-16T08:39:05Z</time>
      </trkpt>
      <trkpt lat="44.44107" lon="5.15761">
        <ele>757</ele>
        <time>2022-10-16T08:39:04Z</time>
      </trkpt>
      <trkpt lat="44.44106" lon="5.1576">
        <ele>756.7</ele>
        <time>2022-10-16T08:39:03Z</time>
      </trkpt>
      <trkpt lat="44.44106" lon="5.15759">
        <ele>756.9</ele>
        <time>2022-10-16T08:39:02Z</time>
      </trkpt>
      <trkpt lat="44.44105" lon="5.15758">
        <ele>756.5</ele>
        <time>2022-10-16T08:39:00Z</time>
      </trkpt>
      <trkpt lat="44.44104" lon="5.15756">
        <ele>756.4</ele>
        <time>2022-10-16T08:38:59Z</time>
      </trkpt>
      <trkpt lat="44.44103" lon="5.15755">
        <ele>756.1</ele>
        <time>2022-10-16T08:38:58Z</time>
      </trkpt>
      <trkpt lat="44.44103" lon="5.15754">
        <ele>756.2</ele>
        <time>2022-10-16T08:38:57Z</time>
      </trkpt>
      <trkpt lat="44.44102" lon="5.15753">
        <ele>755.9</ele>
        <time>2022-10-16T08:38:56Z</time>
      </trkpt>
      <trkpt lat="44.44102" lon="5.15752">
        <ele>756.1</ele>
        <time>2022-10-16T08:38:55Z</time>
      </trkpt>
      <trkpt lat="44.44101" lon="5.1575">
        <ele>755.9</ele>
        <time>2022-10-16T08:38:54Z</time>
      </trkpt>
      <trkpt lat="44.44101" lon="5.15749">
        <ele>756.1</ele>
        <time>2022-10-16T08:38:53Z</time>
      </trkpt>
      <trkpt lat="44.441" lon="5.15748">
        <ele>755.8</ele>
        <time>2022-10-16T08:38:52Z</time>
      </trkpt>
      <trkpt lat="44.44099" lon="5.15747">
        <ele>755.4</ele>
        <time>2022-10-16T08:38:51Z</time>
      </trkpt>
      <trkpt lat="44.44099" lon="5.15746">
        <ele>755.6</ele>
        <time>2022-10-16T08:38:50Z</time>
      </trkpt>
      <trkpt lat="44.44098" lon="5.15745">
        <ele>755.3</ele>
        <time>2022-10-16T08:38:49Z</time>
      </trkpt>
      <trkpt lat="44.44097" lon="5.15744">
        <ele>755</ele>
        <time>2022-10-16T08:38:48Z</time>
      </trkpt>
      <trkpt lat="44.44097" lon="5.15743">
        <ele>755.1</ele>
        <time>2022-10-16T08:38:47Z</time>
      </trkpt>
      <trkpt lat="44.44096" lon="5.15743">
        <ele>754.6</ele>
        <time>2022-10-16T08:38:46Z</time>
      </trkpt>
      <trkpt lat="44.44095" lon="5.15742">
        <ele>754.3</ele>
        <time>2022-10-16T08:38:45Z</time>
      </trkpt>
      <trkpt lat="44.44094" lon="5.15741">
        <ele>754</ele>
        <time>2022-10-16T08:38:44Z</time>
      </trkpt>
      <trkpt lat="44.44094" lon="5.1574">
        <ele>754.2</ele>
        <time>2022-10-16T08:38:43Z</time>
      </trkpt>
      <trkpt lat="44.44093" lon="5.15738">
        <ele>754</ele>
        <time>2022-10-16T08:38:42Z</time>
      </trkpt>
      <trkpt lat="44.44092" lon="5.15737">
        <ele>753.7</ele>
        <time>2022-10-16T08:38:41Z</time>
      </trkpt>
      <trkpt lat="44.44092" lon="5.15736">
        <ele>753.9</ele>
        <time>2022-10-16T08:38:40Z</time>
      </trkpt>
      <trkpt lat="44.44091" lon="5.15735">
        <ele>753.6</ele>
        <time>2022-10-16T08:38:39Z</time>
      </trkpt>
      <trkpt lat="44.4409" lon="5.15734">
        <ele>753.2</ele>
        <time>2022-10-16T08:38:38Z</time>
      </trkpt>
      <trkpt lat="44.4409" lon="5.15733">
        <ele>753.4</ele>
        <time>2022-10-16T08:38:37Z</time>
      </trkpt>
      <trkpt lat="44.44089" lon="5.15732">
        <ele>753.1</ele>
        <time>2022-10-16T08:38:36Z</time>
      </trkpt>
      <trkpt lat="44.44088" lon="5.15731">
        <ele>752.8</ele>
        <time>2022-10-16T08:38:35Z</time>
      </trkpt>
      <trkpt lat="44.44088" lon="5.1573">
        <ele>753</ele>
        <time>2022-10-16T08:38:34Z</time>
      </trkpt>
      <trkpt lat="44.44087" lon="5.15729">
        <ele>752.6</ele>
        <time>2022-10-16T08:38:33Z</time>
      </trkpt>
      <trkpt lat="44.44087" lon="5.15728">
        <ele>752.8</ele>
        <time>2022-10-16T08:38:32Z</time>
      </trkpt>
      <trkpt lat="44.44086" lon="5.15727">
        <ele>752.5</ele>
        <time>2022-10-16T08:38:31Z</time>
      </trkpt>
      <trkpt lat="44.44086" lon="5.15726">
        <ele>752.7</ele>
        <time>2022-10-16T08:38:30Z</time>
      </trkpt>
      <trkpt lat="44.44085" lon="5.15725">
        <ele>752.3</ele>
        <time>2022-10-16T08:38:29Z</time>
      </trkpt>
      <trkpt lat="44.44084" lon="5.15724">
        <ele>752</ele>
        <time>2022-10-16T08:38:28Z</time>
      </trkpt>
      <trkpt lat="44.44083" lon="5.15723">
        <ele>751.7</ele>
        <time>2022-10-16T08:38:27Z</time>
      </trkpt>
      <trkpt lat="44.44082" lon="5.15723">
        <ele>751.2</ele>
        <time>2022-10-16T08:38:26Z</time>
      </trkpt>
      <trkpt lat="44.44081" lon="5.15722">
        <ele>750.9</ele>
        <time>2022-10-16T08:38:25Z</time>
      </trkpt>
      <trkpt lat="44.4408" lon="5.15722">
        <ele>750.4</ele>
        <time>2022-10-16T08:38:24Z</time>
      </trkpt>
      <trkpt lat="44.4408" lon="5.15721">
        <ele>750.6</ele>
        <time>2022-10-16T08:38:23Z</time>
      </trkpt>
      <trkpt lat="44.44079" lon="5.15721">
        <ele>750.1</ele>
        <time>2022-10-16T08:38:22Z</time>
      </trkpt>
      <trkpt lat="44.44078" lon="5.1572">
        <ele>749.9</ele>
        <time>2022-10-16T08:38:21Z</time>
      </trkpt>
      <trkpt lat="44.44077" lon="5.15719">
        <ele>749.6</ele>
        <time>2022-10-16T08:38:19Z</time>
      </trkpt>
      <trkpt lat="44.44076" lon="5.15718">
        <ele>749.3</ele>
        <time>2022-10-16T08:38:18Z</time>
      </trkpt>
      <trkpt lat="44.44075" lon="5.15717">
        <ele>749.1</ele>
        <time>2022-10-16T08:38:17Z</time>
      </trkpt>
      <trkpt lat="44.44074" lon="5.15716">
        <ele>748.8</ele>
        <time>2022-10-16T08:38:16Z</time>
      </trkpt>
      <trkpt lat="44.44073" lon="5.15715">
        <ele>748.5</ele>
        <time>2022-10-16T08:38:15Z</time>
      </trkpt>
      <trkpt lat="44.44072" lon="5.15714">
        <ele>748.2</ele>
        <time>2022-10-16T08:38:14Z</time>
      </trkpt>
      <trkpt lat="44.44072" lon="5.15713">
        <ele>748.5</ele>
        <time>2022-10-16T08:38:13Z</time>
      </trkpt>
      <trkpt lat="44.44071" lon="5.15712">
        <ele>748.2</ele>
        <time>2022-10-16T08:38:12Z</time>
      </trkpt>
      <trkpt lat="44.4407" lon="5.1571">
        <ele>748.1</ele>
        <time>2022-10-16T08:38:11Z</time>
      </trkpt>
      <trkpt lat="44.44069" lon="5.15709">
        <ele>747.9</ele>
        <time>2022-10-16T08:38:10Z</time>
      </trkpt>
      <trkpt lat="44.44069" lon="5.15708">
        <ele>748.1</ele>
        <time>2022-10-16T08:38:09Z</time>
      </trkpt>
      <trkpt lat="44.44068" lon="5.15707">
        <ele>747.8</ele>
        <time>2022-10-16T08:38:08Z</time>
      </trkpt>
      <trkpt lat="44.44068" lon="5.15705">
        <ele>748.3</ele>
        <time>2022-10-16T08:38:07Z</time>
      </trkpt>
      <trkpt lat="44.44067" lon="5.15704">
        <ele>748</ele>
        <time>2022-10-16T08:38:06Z</time>
      </trkpt>
      <trkpt lat="44.44067" lon="5.15703">
        <ele>748.2</ele>
        <time>2022-10-16T08:38:05Z</time>
      </trkpt>
      <trkpt lat="44.44066" lon="5.15702">
        <ele>747.9</ele>
        <time>2022-10-16T08:38:04Z</time>
      </trkpt>
      <trkpt lat="44.44065" lon="5.15701">
        <ele>747.6</ele>
        <time>2022-10-16T08:38:03Z</time>
      </trkpt>
      <trkpt lat="44.44065" lon="5.157">
        <ele>747.8</ele>
        <time>2022-10-16T08:38:02Z</time>
      </trkpt>
      <trkpt lat="44.44064" lon="5.157">
        <ele>747.3</ele>
        <time>2022-10-16T08:38:01Z</time>
      </trkpt>
      <trkpt lat="44.44063" lon="5.15699">
        <ele>747</ele>
        <time>2022-10-16T08:38:00Z</time>
      </trkpt>
      <trkpt lat="44.44062" lon="5.15698">
        <ele>746.7</ele>
        <time>2022-10-16T08:37:58Z</time>
      </trkpt>
      <trkpt lat="44.44061" lon="5.15697">
        <ele>746.4</ele>
        <time>2022-10-16T08:37:57Z</time>
      </trkpt>
      <trkpt lat="44.4406" lon="5.15696">
        <ele>746.1</ele>
        <time>2022-10-16T08:37:56Z</time>
      </trkpt>
      <trkpt lat="44.4406" lon="5.15695">
        <ele>746.3</ele>
        <time>2022-10-16T08:37:55Z</time>
      </trkpt>
      <trkpt lat="44.44059" lon="5.15695">
        <ele>745.7</ele>
        <time>2022-10-16T08:37:54Z</time>
      </trkpt>
      <trkpt lat="44.44058" lon="5.15694">
        <ele>745.5</ele>
        <time>2022-10-16T08:37:53Z</time>
      </trkpt>
      <trkpt lat="44.44057" lon="5.15693">
        <ele>745.2</ele>
        <time>2022-10-16T08:37:52Z</time>
      </trkpt>
      <trkpt lat="44.44056" lon="5.15692">
        <ele>745</ele>
        <time>2022-10-16T08:37:51Z</time>
      </trkpt>
      <trkpt lat="44.44056" lon="5.15691">
        <ele>745.4</ele>
        <time>2022-10-16T08:37:50Z</time>
      </trkpt>
      <trkpt lat="44.44055" lon="5.1569">
        <ele>745.2</ele>
        <time>2022-10-16T08:37:49Z</time>
      </trkpt>
      <trkpt lat="44.44054" lon="5.15689">
        <ele>745</ele>
        <time>2022-10-16T08:37:48Z</time>
      </trkpt>
      <trkpt lat="44.44053" lon="5.15688">
        <ele>744.8</ele>
        <time>2022-10-16T08:37:47Z</time>
      </trkpt>
      <trkpt lat="44.44053" lon="5.15687">
        <ele>745.1</ele>
        <time>2022-10-16T08:37:46Z</time>
      </trkpt>
      <trkpt lat="44.44052" lon="5.15686">
        <ele>744.9</ele>
        <time>2022-10-16T08:37:45Z</time>
      </trkpt>
      <trkpt lat="44.44051" lon="5.15685">
        <ele>744.8</ele>
        <time>2022-10-16T08:37:44Z</time>
      </trkpt>
      <trkpt lat="44.44051" lon="5.15684">
        <ele>745.1</ele>
        <time>2022-10-16T08:37:43Z</time>
      </trkpt>
      <trkpt lat="44.4405" lon="5.15683">
        <ele>744.9</ele>
        <time>2022-10-16T08:37:42Z</time>
      </trkpt>
      <trkpt lat="44.44049" lon="5.15683">
        <ele>744.4</ele>
        <time>2022-10-16T08:37:41Z</time>
      </trkpt>
      <trkpt lat="44.44048" lon="5.15682">
        <ele>744.2</ele>
        <time>2022-10-16T08:37:40Z</time>
      </trkpt>
      <trkpt lat="44.44047" lon="5.15682">
        <ele>743.7</ele>
        <time>2022-10-16T08:37:39Z</time>
      </trkpt>
      <trkpt lat="44.44046" lon="5.15681">
        <ele>743.5</ele>
        <time>2022-10-16T08:37:38Z</time>
      </trkpt>
      <trkpt lat="44.44045" lon="5.15681">
        <ele>743</ele>
        <time>2022-10-16T08:37:37Z</time>
      </trkpt>
      <trkpt lat="44.44044" lon="5.1568">
        <ele>742.9</ele>
        <time>2022-10-16T08:37:36Z</time>
      </trkpt>
      <trkpt lat="44.44043" lon="5.15679">
        <ele>742.7</ele>
        <time>2022-10-16T08:37:35Z</time>
      </trkpt>
      <trkpt lat="44.44042" lon="5.15679">
        <ele>742.2</ele>
        <time>2022-10-16T08:37:34Z</time>
      </trkpt>
      <trkpt lat="44.44041" lon="5.15678">
        <ele>742</ele>
        <time>2022-10-16T08:37:33Z</time>
      </trkpt>
      <trkpt lat="44.4404" lon="5.15677">
        <ele>741.8</ele>
        <time>2022-10-16T08:37:32Z</time>
      </trkpt>
      <trkpt lat="44.44039" lon="5.15676">
        <ele>741.6</ele>
        <time>2022-10-16T08:37:31Z</time>
      </trkpt>
      <trkpt lat="44.44038" lon="5.15676">
        <ele>741.1</ele>
        <time>2022-10-16T08:37:30Z</time>
      </trkpt>
      <trkpt lat="44.44037" lon="5.15675">
        <ele>740.9</ele>
        <time>2022-10-16T08:37:29Z</time>
      </trkpt>
      <trkpt lat="44.44036" lon="5.15674">
        <ele>740.8</ele>
        <time>2022-10-16T08:37:28Z</time>
      </trkpt>
      <trkpt lat="44.44036" lon="5.15673">
        <ele>741.1</ele>
        <time>2022-10-16T08:37:27Z</time>
      </trkpt>
      <trkpt lat="44.44035" lon="5.15671">
        <ele>741.2</ele>
        <time>2022-10-16T08:37:26Z</time>
      </trkpt>
      <trkpt lat="44.44034" lon="5.1567">
        <ele>741.1</ele>
        <time>2022-10-16T08:37:25Z</time>
      </trkpt>
      <trkpt lat="44.44034" lon="5.15669">
        <ele>741.4</ele>
        <time>2022-10-16T08:37:24Z</time>
      </trkpt>
      <trkpt lat="44.44033" lon="5.15667">
        <ele>741.5</ele>
        <time>2022-10-16T08:37:23Z</time>
      </trkpt>
      <trkpt lat="44.44032" lon="5.15666">
        <ele>741.3</ele>
        <time>2022-10-16T08:37:22Z</time>
      </trkpt>
      <trkpt lat="44.44032" lon="5.15664">
        <ele>742</ele>
        <time>2022-10-16T08:37:21Z</time>
      </trkpt>
      <trkpt lat="44.44031" lon="5.15663">
        <ele>741.8</ele>
        <time>2022-10-16T08:37:20Z</time>
      </trkpt>
      <trkpt lat="44.4403" lon="5.15662">
        <ele>741.6</ele>
        <time>2022-10-16T08:37:19Z</time>
      </trkpt>
      <trkpt lat="44.44029" lon="5.15661">
        <ele>741.5</ele>
        <time>2022-10-16T08:37:18Z</time>
      </trkpt>
      <trkpt lat="44.44029" lon="5.1566">
        <ele>741.8</ele>
        <time>2022-10-16T08:37:17Z</time>
      </trkpt>
      <trkpt lat="44.44028" lon="5.1566">
        <ele>741.3</ele>
        <time>2022-10-16T08:37:16Z</time>
      </trkpt>
      <trkpt lat="44.44027" lon="5.15659">
        <ele>741.1</ele>
        <time>2022-10-16T08:37:15Z</time>
      </trkpt>
      <trkpt lat="44.44026" lon="5.15658">
        <ele>740.8</ele>
        <time>2022-10-16T08:37:14Z</time>
      </trkpt>
      <trkpt lat="44.44026" lon="5.15657">
        <ele>741.2</ele>
        <time>2022-10-16T08:37:13Z</time>
      </trkpt>
      <trkpt lat="44.44025" lon="5.15656">
        <ele>741</ele>
        <time>2022-10-16T08:37:12Z</time>
      </trkpt>
      <trkpt lat="44.44024" lon="5.15655">
        <ele>740.7</ele>
        <time>2022-10-16T08:37:11Z</time>
      </trkpt>
      <trkpt lat="44.44023" lon="5.15654">
        <ele>740.5</ele>
        <time>2022-10-16T08:37:10Z</time>
      </trkpt>
      <trkpt lat="44.44022" lon="5.15653">
        <ele>740.3</ele>
        <time>2022-10-16T08:37:09Z</time>
      </trkpt>
      <trkpt lat="44.44021" lon="5.15652">
        <ele>740.1</ele>
        <time>2022-10-16T08:37:08Z</time>
      </trkpt>
      <trkpt lat="44.4402" lon="5.15651">
        <ele>739.9</ele>
        <time>2022-10-16T08:37:07Z</time>
      </trkpt>
      <trkpt lat="44.44019" lon="5.1565">
        <ele>739.7</ele>
        <time>2022-10-16T08:37:06Z</time>
      </trkpt>
      <trkpt lat="44.44019" lon="5.15649">
        <ele>740</ele>
        <time>2022-10-16T08:37:05Z</time>
      </trkpt>
      <trkpt lat="44.44018" lon="5.15648">
        <ele>739.8</ele>
        <time>2022-10-16T08:37:04Z</time>
      </trkpt>
      <trkpt lat="44.44017" lon="5.15647">
        <ele>739.6</ele>
        <time>2022-10-16T08:37:03Z</time>
      </trkpt>
      <trkpt lat="44.44017" lon="5.15646">
        <ele>739.9</ele>
        <time>2022-10-16T08:37:02Z</time>
      </trkpt>
      <trkpt lat="44.44016" lon="5.15645">
        <ele>739.7</ele>
        <time>2022-10-16T08:37:01Z</time>
      </trkpt>
      <trkpt lat="44.44015" lon="5.15644">
        <ele>739.4</ele>
        <time>2022-10-16T08:37:00Z</time>
      </trkpt>
      <trkpt lat="44.44014" lon="5.15643">
        <ele>739.2</ele>
        <time>2022-10-16T08:36:59Z</time>
      </trkpt>
      <trkpt lat="44.44013" lon="5.15642">
        <ele>739</ele>
        <time>2022-10-16T08:36:58Z</time>
      </trkpt>
      <trkpt lat="44.44013" lon="5.15641">
        <ele>739.3</ele>
        <time>2022-10-16T08:36:57Z</time>
      </trkpt>
      <trkpt lat="44.44012" lon="5.15641">
        <ele>738.8</ele>
        <time>2022-10-16T08:36:56Z</time>
      </trkpt>
      <trkpt lat="44.44011" lon="5.1564">
        <ele>738.6</ele>
        <time>2022-10-16T08:36:55Z</time>
      </trkpt>
      <trkpt lat="44.44011" lon="5.15639">
        <ele>738.9</ele>
        <time>2022-10-16T08:36:54Z</time>
      </trkpt>
      <trkpt lat="44.4401" lon="5.15638">
        <ele>738.6</ele>
        <time>2022-10-16T08:36:53Z</time>
      </trkpt>
      <trkpt lat="44.4401" lon="5.15637">
        <ele>738.9</ele>
        <time>2022-10-16T08:36:52Z</time>
      </trkpt>
      <trkpt lat="44.44009" lon="5.15636">
        <ele>738.6</ele>
        <time>2022-10-16T08:36:51Z</time>
      </trkpt>
      <trkpt lat="44.44009" lon="5.15635">
        <ele>738.9</ele>
        <time>2022-10-16T08:36:50Z</time>
      </trkpt>
      <trkpt lat="44.44008" lon="5.15634">
        <ele>738.6</ele>
        <time>2022-10-16T08:36:49Z</time>
      </trkpt>
      <trkpt lat="44.44007" lon="5.15632">
        <ele>738.6</ele>
        <time>2022-10-16T08:36:48Z</time>
      </trkpt>
      <trkpt lat="44.44006" lon="5.15631">
        <ele>738.3</ele>
        <time>2022-10-16T08:36:47Z</time>
      </trkpt>
      <trkpt lat="44.44005" lon="5.1563">
        <ele>738</ele>
        <time>2022-10-16T08:36:46Z</time>
      </trkpt>
      <trkpt lat="44.44004" lon="5.15629">
        <ele>737.7</ele>
        <time>2022-10-16T08:36:45Z</time>
      </trkpt>
      <trkpt lat="44.44003" lon="5.15628">
        <ele>737.4</ele>
        <time>2022-10-16T08:36:44Z</time>
      </trkpt>
      <trkpt lat="44.44003" lon="5.15627">
        <ele>737.7</ele>
        <time>2022-10-16T08:36:43Z</time>
      </trkpt>
      <trkpt lat="44.44002" lon="5.15626">
        <ele>737.4</ele>
        <time>2022-10-16T08:36:42Z</time>
      </trkpt>
      <trkpt lat="44.44001" lon="5.15625">
        <ele>737.1</ele>
        <time>2022-10-16T08:36:41Z</time>
      </trkpt>
      <trkpt lat="44.44" lon="5.15624">
        <ele>736.8</ele>
        <time>2022-10-16T08:36:40Z</time>
      </trkpt>
      <trkpt lat="44.44" lon="5.15623">
        <ele>737</ele>
        <time>2022-10-16T08:36:39Z</time>
      </trkpt>
      <trkpt lat="44.43999" lon="5.15622">
        <ele>736.7</ele>
        <time>2022-10-16T08:36:38Z</time>
      </trkpt>
      <trkpt lat="44.43998" lon="5.15621">
        <ele>736.4</ele>
        <time>2022-10-16T08:36:37Z</time>
      </trkpt>
      <trkpt lat="44.43998" lon="5.1562">
        <ele>736.6</ele>
        <time>2022-10-16T08:36:36Z</time>
      </trkpt>
      <trkpt lat="44.43998" lon="5.15619">
        <ele>736.9</ele>
        <time>2022-10-16T08:36:35Z</time>
      </trkpt>
      <trkpt lat="44.43997" lon="5.15617">
        <ele>736.8</ele>
        <time>2022-10-16T08:36:34Z</time>
      </trkpt>
      <trkpt lat="44.43997" lon="5.15616">
        <ele>737</ele>
        <time>2022-10-16T08:36:33Z</time>
      </trkpt>
      <trkpt lat="44.43997" lon="5.15615">
        <ele>737.3</ele>
        <time>2022-10-16T08:36:32Z</time>
      </trkpt>
      <trkpt lat="44.43996" lon="5.15615">
        <ele>736.7</ele>
        <time>2022-10-16T08:36:31Z</time>
      </trkpt>
      <trkpt lat="44.43996" lon="5.15614">
        <ele>737</ele>
        <time>2022-10-16T08:36:30Z</time>
      </trkpt>
      <trkpt lat="44.43996" lon="5.15613">
        <ele>737.2</ele>
        <time>2022-10-16T08:36:29Z</time>
      </trkpt>
      <trkpt lat="44.43996" lon="5.15612">
        <ele>737.5</ele>
        <time>2022-10-16T08:36:28Z</time>
      </trkpt>
      <trkpt lat="44.43996" lon="5.15611">
        <ele>737.7</ele>
        <time>2022-10-16T08:36:24Z</time>
      </trkpt>
      <trkpt lat="44.43996" lon="5.1561">
        <ele>738</ele>
        <time>2022-10-16T08:36:23Z</time>
      </trkpt>
      <trkpt lat="44.43996" lon="5.15609">
        <ele>738.3</ele>
        <time>2022-10-16T08:36:22Z</time>
      </trkpt>
      <trkpt lat="44.43996" lon="5.15608">
        <ele>738.6</ele>
        <time>2022-10-16T08:36:21Z</time>
      </trkpt>
      <trkpt lat="44.43995" lon="5.15607">
        <ele>738.3</ele>
        <time>2022-10-16T08:36:20Z</time>
      </trkpt>
      <trkpt lat="44.43995" lon="5.15605">
        <ele>738.8</ele>
        <time>2022-10-16T08:36:19Z</time>
      </trkpt>
      <trkpt lat="44.43995" lon="5.15604">
        <ele>739.1</ele>
        <time>2022-10-16T08:36:18Z</time>
      </trkpt>
      <trkpt lat="44.43995" lon="5.15602">
        <ele>739.7</ele>
        <time>2022-10-16T08:36:17Z</time>
      </trkpt>
      <trkpt lat="44.43994" lon="5.15601">
        <ele>739.4</ele>
        <time>2022-10-16T08:36:16Z</time>
      </trkpt>
      <trkpt lat="44.43994" lon="5.15599">
        <ele>739.9</ele>
        <time>2022-10-16T08:36:15Z</time>
      </trkpt>
      <trkpt lat="44.43994" lon="5.15598">
        <ele>740.2</ele>
        <time>2022-10-16T08:36:14Z</time>
      </trkpt>
      <trkpt lat="44.43993" lon="5.15596">
        <ele>740.2</ele>
        <time>2022-10-16T08:36:13Z</time>
      </trkpt>
      <trkpt lat="44.43993" lon="5.15595">
        <ele>740.5</ele>
        <time>2022-10-16T08:36:12Z</time>
      </trkpt>
      <trkpt lat="44.43993" lon="5.15593">
        <ele>741</ele>
        <time>2022-10-16T08:36:11Z</time>
      </trkpt>
      <trkpt lat="44.43992" lon="5.15592">
        <ele>740.7</ele>
        <time>2022-10-16T08:36:10Z</time>
      </trkpt>
      <trkpt lat="44.43992" lon="5.15591">
        <ele>741</ele>
        <time>2022-10-16T08:36:09Z</time>
      </trkpt>
      <trkpt lat="44.43991" lon="5.1559">
        <ele>740.6</ele>
        <time>2022-10-16T08:36:08Z</time>
      </trkpt>
      <trkpt lat="44.43991" lon="5.15589">
        <ele>740.9</ele>
        <time>2022-10-16T08:36:07Z</time>
      </trkpt>
      <trkpt lat="44.4399" lon="5.15588">
        <ele>740.6</ele>
        <time>2022-10-16T08:36:06Z</time>
      </trkpt>
      <trkpt lat="44.43989" lon="5.15586">
        <ele>740.5</ele>
        <time>2022-10-16T08:36:05Z</time>
      </trkpt>
      <trkpt lat="44.43989" lon="5.15585">
        <ele>740.8</ele>
        <time>2022-10-16T08:36:04Z</time>
      </trkpt>
      <trkpt lat="44.43988" lon="5.15584">
        <ele>740.5</ele>
        <time>2022-10-16T08:36:03Z</time>
      </trkpt>
      <trkpt lat="44.43987" lon="5.15583">
        <ele>740.1</ele>
        <time>2022-10-16T08:36:02Z</time>
      </trkpt>
      <trkpt lat="44.43987" lon="5.15582">
        <ele>740.4</ele>
        <time>2022-10-16T08:36:01Z</time>
      </trkpt>
      <trkpt lat="44.43986" lon="5.15581">
        <ele>740.1</ele>
        <time>2022-10-16T08:36:00Z</time>
      </trkpt>
      <trkpt lat="44.43986" lon="5.1558">
        <ele>740.4</ele>
        <time>2022-10-16T08:35:59Z</time>
      </trkpt>
      <trkpt lat="44.43985" lon="5.1558">
        <ele>739.8</ele>
        <time>2022-10-16T08:35:58Z</time>
      </trkpt>
      <trkpt lat="44.43985" lon="5.15579">
        <ele>740.1</ele>
        <time>2022-10-16T08:35:57Z</time>
      </trkpt>
      <trkpt lat="44.43984" lon="5.15578">
        <ele>739.7</ele>
        <time>2022-10-16T08:35:56Z</time>
      </trkpt>
      <trkpt lat="44.43984" lon="5.15577">
        <ele>740</ele>
        <time>2022-10-16T08:35:55Z</time>
      </trkpt>
      <trkpt lat="44.43984" lon="5.15576">
        <ele>740.3</ele>
        <time>2022-10-16T08:35:54Z</time>
      </trkpt>
      <trkpt lat="44.43983" lon="5.15575">
        <ele>740</ele>
        <time>2022-10-16T08:35:53Z</time>
      </trkpt>
      <trkpt lat="44.43983" lon="5.15574">
        <ele>740.3</ele>
        <time>2022-10-16T08:35:52Z</time>
      </trkpt>
      <trkpt lat="44.43983" lon="5.15572">
        <ele>740.9</ele>
        <time>2022-10-16T08:35:51Z</time>
      </trkpt>
      <trkpt lat="44.43982" lon="5.15571">
        <ele>740.5</ele>
        <time>2022-10-16T08:35:50Z</time>
      </trkpt>
      <trkpt lat="44.43982" lon="5.1557">
        <ele>740.8</ele>
        <time>2022-10-16T08:35:49Z</time>
      </trkpt>
      <trkpt lat="44.43982" lon="5.15569">
        <ele>741.1</ele>
        <time>2022-10-16T08:35:48Z</time>
      </trkpt>
      <trkpt lat="44.43982" lon="5.15568">
        <ele>741.4</ele>
        <time>2022-10-16T08:35:47Z</time>
      </trkpt>
      <trkpt lat="44.43981" lon="5.15567">
        <ele>741.1</ele>
        <time>2022-10-16T08:35:46Z</time>
      </trkpt>
      <trkpt lat="44.43981" lon="5.15566">
        <ele>741.4</ele>
        <time>2022-10-16T08:35:45Z</time>
      </trkpt>
      <trkpt lat="44.4398" lon="5.15565">
        <ele>741</ele>
        <time>2022-10-16T08:35:44Z</time>
      </trkpt>
      <trkpt lat="44.4398" lon="5.15563">
        <ele>741.6</ele>
        <time>2022-10-16T08:35:43Z</time>
      </trkpt>
      <trkpt lat="44.4398" lon="5.15562">
        <ele>741.9</ele>
        <time>2022-10-16T08:35:42Z</time>
      </trkpt>
      <trkpt lat="44.43979" lon="5.15561">
        <ele>741.6</ele>
        <time>2022-10-16T08:35:41Z</time>
      </trkpt>
      <trkpt lat="44.43979" lon="5.15559">
        <ele>742.2</ele>
        <time>2022-10-16T08:35:40Z</time>
      </trkpt>
      <trkpt lat="44.43979" lon="5.15558">
        <ele>742.4</ele>
        <time>2022-10-16T08:35:39Z</time>
      </trkpt>
      <trkpt lat="44.43979" lon="5.15557">
        <ele>742.7</ele>
        <time>2022-10-16T08:35:38Z</time>
      </trkpt>
      <trkpt lat="44.43979" lon="5.15556">
        <ele>743</ele>
        <time>2022-10-16T08:35:37Z</time>
      </trkpt>
      <trkpt lat="44.43979" lon="5.15554">
        <ele>743.5</ele>
        <time>2022-10-16T08:35:36Z</time>
      </trkpt>
      <trkpt lat="44.43979" lon="5.15553">
        <ele>743.8</ele>
        <time>2022-10-16T08:35:35Z</time>
      </trkpt>
      <trkpt lat="44.43978" lon="5.15552">
        <ele>743.4</ele>
        <time>2022-10-16T08:35:34Z</time>
      </trkpt>
      <trkpt lat="44.43978" lon="5.15551">
        <ele>743.7</ele>
        <time>2022-10-16T08:35:33Z</time>
      </trkpt>
      <trkpt lat="44.43978" lon="5.15549">
        <ele>744.2</ele>
        <time>2022-10-16T08:35:32Z</time>
      </trkpt>
      <trkpt lat="44.43977" lon="5.15548">
        <ele>743.8</ele>
        <time>2022-10-16T08:35:31Z</time>
      </trkpt>
      <trkpt lat="44.43977" lon="5.15547">
        <ele>744.1</ele>
        <time>2022-10-16T08:35:30Z</time>
      </trkpt>
      <trkpt lat="44.43976" lon="5.15546">
        <ele>743.7</ele>
        <time>2022-10-16T08:35:29Z</time>
      </trkpt>
      <trkpt lat="44.43976" lon="5.15545">
        <ele>744</ele>
        <time>2022-10-16T08:35:28Z</time>
      </trkpt>
      <trkpt lat="44.43976" lon="5.15544">
        <ele>744.2</ele>
        <time>2022-10-16T08:35:27Z</time>
      </trkpt>
      <trkpt lat="44.43975" lon="5.15542">
        <ele>744.1</ele>
        <time>2022-10-16T08:35:26Z</time>
      </trkpt>
      <trkpt lat="44.43975" lon="5.15541">
        <ele>744.4</ele>
        <time>2022-10-16T08:35:25Z</time>
      </trkpt>
      <trkpt lat="44.43975" lon="5.1554">
        <ele>744.6</ele>
        <time>2022-10-16T08:35:24Z</time>
      </trkpt>
      <trkpt lat="44.43974" lon="5.15539">
        <ele>744.3</ele>
        <time>2022-10-16T08:35:23Z</time>
      </trkpt>
      <trkpt lat="44.43974" lon="5.15538">
        <ele>744.5</ele>
        <time>2022-10-16T08:35:22Z</time>
      </trkpt>
      <trkpt lat="44.43973" lon="5.15536">
        <ele>744.4</ele>
        <time>2022-10-16T08:35:21Z</time>
      </trkpt>
      <trkpt lat="44.43972" lon="5.15535">
        <ele>744.1</ele>
        <time>2022-10-16T08:35:20Z</time>
      </trkpt>
      <trkpt lat="44.43971" lon="5.15535">
        <ele>743.5</ele>
        <time>2022-10-16T08:35:19Z</time>
      </trkpt>
      <trkpt lat="44.43971" lon="5.15534">
        <ele>743.7</ele>
        <time>2022-10-16T08:35:18Z</time>
      </trkpt>
      <trkpt lat="44.4397" lon="5.15534">
        <ele>743.2</ele>
        <time>2022-10-16T08:35:17Z</time>
      </trkpt>
      <trkpt lat="44.43969" lon="5.15534">
        <ele>742.6</ele>
        <time>2022-10-16T08:35:16Z</time>
      </trkpt>
      <trkpt lat="44.43968" lon="5.15534">
        <ele>742</ele>
        <time>2022-10-16T08:35:14Z</time>
      </trkpt>
      <trkpt lat="44.43967" lon="5.15535">
        <ele>741.2</ele>
        <time>2022-10-16T08:35:13Z</time>
      </trkpt>
      <trkpt lat="44.43966" lon="5.15535">
        <ele>740.7</ele>
        <time>2022-10-16T08:35:11Z</time>
      </trkpt>
      <trkpt lat="44.43965" lon="5.15534">
        <ele>740.3</ele>
        <time>2022-10-16T08:35:10Z</time>
      </trkpt>
      <trkpt lat="44.43964" lon="5.15534">
        <ele>739.8</ele>
        <time>2022-10-16T08:35:09Z</time>
      </trkpt>
      <trkpt lat="44.43963" lon="5.15534">
        <ele>739.2</ele>
        <time>2022-10-16T08:35:08Z</time>
      </trkpt>
      <trkpt lat="44.43962" lon="5.15533">
        <ele>738.9</ele>
        <time>2022-10-16T08:35:07Z</time>
      </trkpt>
      <trkpt lat="44.43961" lon="5.15533">
        <ele>738.3</ele>
        <time>2022-10-16T08:35:06Z</time>
      </trkpt>
      <trkpt lat="44.43961" lon="5.15532">
        <ele>738.5</ele>
        <time>2022-10-16T08:35:05Z</time>
      </trkpt>
      <trkpt lat="44.4396" lon="5.15532">
        <ele>738</ele>
        <time>2022-10-16T08:35:04Z</time>
      </trkpt>
      <trkpt lat="44.43959" lon="5.15532">
        <ele>737.4</ele>
        <time>2022-10-16T08:35:03Z</time>
      </trkpt>
      <trkpt lat="44.43958" lon="5.15532">
        <ele>736.8</ele>
        <time>2022-10-16T08:35:02Z</time>
      </trkpt>
      <trkpt lat="44.43957" lon="5.15531">
        <ele>736.5</ele>
        <time>2022-10-16T08:35:01Z</time>
      </trkpt>
      <trkpt lat="44.43956" lon="5.15531">
        <ele>735.9</ele>
        <time>2022-10-16T08:35:00Z</time>
      </trkpt>
      <trkpt lat="44.43955" lon="5.1553">
        <ele>735.6</ele>
        <time>2022-10-16T08:34:58Z</time>
      </trkpt>
      <trkpt lat="44.43954" lon="5.15529">
        <ele>735.2</ele>
        <time>2022-10-16T08:34:57Z</time>
      </trkpt>
      <trkpt lat="44.43954" lon="5.15528">
        <ele>735.5</ele>
        <time>2022-10-16T08:34:56Z</time>
      </trkpt>
      <trkpt lat="44.43953" lon="5.15527">
        <ele>735.1</ele>
        <time>2022-10-16T08:34:55Z</time>
      </trkpt>
      <trkpt lat="44.43953" lon="5.15525">
        <ele>735.5</ele>
        <time>2022-10-16T08:34:54Z</time>
      </trkpt>
      <trkpt lat="44.43953" lon="5.15524">
        <ele>735.6</ele>
        <time>2022-10-16T08:34:53Z</time>
      </trkpt>
      <trkpt lat="44.43952" lon="5.15523">
        <ele>735.3</ele>
        <time>2022-10-16T08:34:52Z</time>
      </trkpt>
      <trkpt lat="44.43952" lon="5.15522">
        <ele>735.4</ele>
        <time>2022-10-16T08:34:51Z</time>
      </trkpt>
      <trkpt lat="44.43952" lon="5.15521">
        <ele>735.6</ele>
        <time>2022-10-16T08:34:50Z</time>
      </trkpt>
      <trkpt lat="44.43952" lon="5.15519">
        <ele>736</ele>
        <time>2022-10-16T08:34:49Z</time>
      </trkpt>
      <trkpt lat="44.43952" lon="5.15518">
        <ele>736.2</ele>
        <time>2022-10-16T08:34:48Z</time>
      </trkpt>
      <trkpt lat="44.43952" lon="5.15517">
        <ele>736.4</ele>
        <time>2022-10-16T08:34:47Z</time>
      </trkpt>
      <trkpt lat="44.43951" lon="5.15515">
        <ele>736.2</ele>
        <time>2022-10-16T08:34:46Z</time>
      </trkpt>
      <trkpt lat="44.43951" lon="5.15514">
        <ele>736.4</ele>
        <time>2022-10-16T08:34:45Z</time>
      </trkpt>
      <trkpt lat="44.43951" lon="5.15512">
        <ele>736.8</ele>
        <time>2022-10-16T08:34:44Z</time>
      </trkpt>
      <trkpt lat="44.4395" lon="5.15511">
        <ele>736.3</ele>
        <time>2022-10-16T08:34:43Z</time>
      </trkpt>
      <trkpt lat="44.4395" lon="5.1551">
        <ele>736.5</ele>
        <time>2022-10-16T08:34:42Z</time>
      </trkpt>
      <trkpt lat="44.43949" lon="5.15509">
        <ele>736.1</ele>
        <time>2022-10-16T08:34:41Z</time>
      </trkpt>
      <trkpt lat="44.43949" lon="5.15508">
        <ele>736.3</ele>
        <time>2022-10-16T08:34:40Z</time>
      </trkpt>
      <trkpt lat="44.43949" lon="5.15507">
        <ele>736.5</ele>
        <time>2022-10-16T08:34:39Z</time>
      </trkpt>
      <trkpt lat="44.43949" lon="5.15505">
        <ele>736.9</ele>
        <time>2022-10-16T08:34:38Z</time>
      </trkpt>
      <trkpt lat="44.43949" lon="5.15504">
        <ele>737</ele>
        <time>2022-10-16T08:34:37Z</time>
      </trkpt>
      <trkpt lat="44.43948" lon="5.15503">
        <ele>736.6</ele>
        <time>2022-10-16T08:34:36Z</time>
      </trkpt>
      <trkpt lat="44.43948" lon="5.15502">
        <ele>736.8</ele>
        <time>2022-10-16T08:34:35Z</time>
      </trkpt>
      <trkpt lat="44.43949" lon="5.155">
        <ele>737.8</ele>
        <time>2022-10-16T08:34:34Z</time>
      </trkpt>
      <trkpt lat="44.43949" lon="5.15499">
        <ele>738</ele>
        <time>2022-10-16T08:34:33Z</time>
      </trkpt>
      <trkpt lat="44.43949" lon="5.15497">
        <ele>738.4</ele>
        <time>2022-10-16T08:34:32Z</time>
      </trkpt>
      <trkpt lat="44.43949" lon="5.15496">
        <ele>738.6</ele>
        <time>2022-10-16T08:34:31Z</time>
      </trkpt>
      <trkpt lat="44.43949" lon="5.15495">
        <ele>738.8</ele>
        <time>2022-10-16T08:34:30Z</time>
      </trkpt>
      <trkpt lat="44.4395" lon="5.15493">
        <ele>739.9</ele>
        <time>2022-10-16T08:34:29Z</time>
      </trkpt>
      <trkpt lat="44.4395" lon="5.15492">
        <ele>740.1</ele>
        <time>2022-10-16T08:34:28Z</time>
      </trkpt>
      <trkpt lat="44.4395" lon="5.1549">
        <ele>740.5</ele>
        <time>2022-10-16T08:34:27Z</time>
      </trkpt>
      <trkpt lat="44.4395" lon="5.15489">
        <ele>740.7</ele>
        <time>2022-10-16T08:34:26Z</time>
      </trkpt>
      <trkpt lat="44.4395" lon="5.15487">
        <ele>741.1</ele>
        <time>2022-10-16T08:34:25Z</time>
      </trkpt>
      <trkpt lat="44.4395" lon="5.15486">
        <ele>741.3</ele>
        <time>2022-10-16T08:34:24Z</time>
      </trkpt>
      <trkpt lat="44.4395" lon="5.15485">
        <ele>741.5</ele>
        <time>2022-10-16T08:34:23Z</time>
      </trkpt>
      <trkpt lat="44.43949" lon="5.15484">
        <ele>741.1</ele>
        <time>2022-10-16T08:34:22Z</time>
      </trkpt>
      <trkpt lat="44.43949" lon="5.15482">
        <ele>741.6</ele>
        <time>2022-10-16T08:34:21Z</time>
      </trkpt>
      <trkpt lat="44.43948" lon="5.15481">
        <ele>741.2</ele>
        <time>2022-10-16T08:34:20Z</time>
      </trkpt>
      <trkpt lat="44.43947" lon="5.1548">
        <ele>740.8</ele>
        <time>2022-10-16T08:34:19Z</time>
      </trkpt>
      <trkpt lat="44.43946" lon="5.1548">
        <ele>740.2</ele>
        <time>2022-10-16T08:34:18Z</time>
      </trkpt>
      <trkpt lat="44.43945" lon="5.15479">
        <ele>739.9</ele>
        <time>2022-10-16T08:34:17Z</time>
      </trkpt>
      <trkpt lat="44.43944" lon="5.15479">
        <ele>739.3</ele>
        <time>2022-10-16T08:34:16Z</time>
      </trkpt>
      <trkpt lat="44.43943" lon="5.15478">
        <ele>739.1</ele>
        <time>2022-10-16T08:34:14Z</time>
      </trkpt>
      <trkpt lat="44.43942" lon="5.15478">
        <ele>738.7</ele>
        <time>2022-10-16T08:34:13Z</time>
      </trkpt>
      <trkpt lat="44.43941" lon="5.15477">
        <ele>738.5</ele>
        <time>2022-10-16T08:34:12Z</time>
      </trkpt>
      <trkpt lat="44.4394" lon="5.15477">
        <ele>738</ele>
        <time>2022-10-16T08:34:10Z</time>
      </trkpt>
      <trkpt lat="44.43939" lon="5.15476">
        <ele>737.8</ele>
        <time>2022-10-16T08:34:09Z</time>
      </trkpt>
      <trkpt lat="44.43938" lon="5.15476">
        <ele>737.4</ele>
        <time>2022-10-16T08:34:08Z</time>
      </trkpt>
      <trkpt lat="44.43937" lon="5.15476">
        <ele>737</ele>
        <time>2022-10-16T08:34:07Z</time>
      </trkpt>
      <trkpt lat="44.43937" lon="5.15475">
        <ele>737.2</ele>
        <time>2022-10-16T08:34:06Z</time>
      </trkpt>
      <trkpt lat="44.43936" lon="5.15475">
        <ele>736.8</ele>
        <time>2022-10-16T08:34:05Z</time>
      </trkpt>
      <trkpt lat="44.43935" lon="5.15475">
        <ele>736.3</ele>
        <time>2022-10-16T08:34:04Z</time>
      </trkpt>
      <trkpt lat="44.43934" lon="5.15474">
        <ele>736.1</ele>
        <time>2022-10-16T08:34:02Z</time>
      </trkpt>
      <trkpt lat="44.43933" lon="5.15474">
        <ele>735.7</ele>
        <time>2022-10-16T08:34:01Z</time>
      </trkpt>
      <trkpt lat="44.43932" lon="5.15473">
        <ele>735.5</ele>
        <time>2022-10-16T08:34:00Z</time>
      </trkpt>
      <trkpt lat="44.43931" lon="5.15473">
        <ele>735</ele>
        <time>2022-10-16T08:33:59Z</time>
      </trkpt>
      <trkpt lat="44.4393" lon="5.15472">
        <ele>734.8</ele>
        <time>2022-10-16T08:33:58Z</time>
      </trkpt>
      <trkpt lat="44.43929" lon="5.15472">
        <ele>734.4</ele>
        <time>2022-10-16T08:33:57Z</time>
      </trkpt>
      <trkpt lat="44.43929" lon="5.15471">
        <ele>734.6</ele>
        <time>2022-10-16T08:33:56Z</time>
      </trkpt>
      <trkpt lat="44.43928" lon="5.15471">
        <ele>734.2</ele>
        <time>2022-10-16T08:33:55Z</time>
      </trkpt>
      <trkpt lat="44.43927" lon="5.1547">
        <ele>734</ele>
        <time>2022-10-16T08:33:54Z</time>
      </trkpt>
      <trkpt lat="44.43926" lon="5.1547">
        <ele>733.6</ele>
        <time>2022-10-16T08:33:53Z</time>
      </trkpt>
      <trkpt lat="44.43926" lon="5.15469">
        <ele>733.8</ele>
        <time>2022-10-16T08:33:52Z</time>
      </trkpt>
      <trkpt lat="44.43925" lon="5.15469">
        <ele>733.4</ele>
        <time>2022-10-16T08:33:51Z</time>
      </trkpt>
      <trkpt lat="44.43924" lon="5.15468">
        <ele>733.2</ele>
        <time>2022-10-16T08:33:50Z</time>
      </trkpt>
      <trkpt lat="44.43923" lon="5.15467">
        <ele>733</ele>
        <time>2022-10-16T08:33:48Z</time>
      </trkpt>
      <trkpt lat="44.43922" lon="5.15466">
        <ele>732.8</ele>
        <time>2022-10-16T08:33:47Z</time>
      </trkpt>
      <trkpt lat="44.43921" lon="5.15466">
        <ele>732.4</ele>
        <time>2022-10-16T08:33:46Z</time>
      </trkpt>
      <trkpt lat="44.4392" lon="5.15465">
        <ele>732.2</ele>
        <time>2022-10-16T08:33:45Z</time>
      </trkpt>
      <trkpt lat="44.43919" lon="5.15464">
        <ele>732.1</ele>
        <time>2022-10-16T08:33:44Z</time>
      </trkpt>
      <trkpt lat="44.43918" lon="5.15464">
        <ele>731.6</ele>
        <time>2022-10-16T08:33:43Z</time>
      </trkpt>
      <trkpt lat="44.43917" lon="5.15463">
        <ele>731.5</ele>
        <time>2022-10-16T08:33:42Z</time>
      </trkpt>
      <trkpt lat="44.43916" lon="5.15462">
        <ele>731.4</ele>
        <time>2022-10-16T08:33:41Z</time>
      </trkpt>
      <trkpt lat="44.43916" lon="5.15461">
        <ele>731.6</ele>
        <time>2022-10-16T08:33:40Z</time>
      </trkpt>
      <trkpt lat="44.43915" lon="5.1546">
        <ele>731.6</ele>
        <time>2022-10-16T08:33:39Z</time>
      </trkpt>
      <trkpt lat="44.43914" lon="5.1546">
        <ele>731.3</ele>
        <time>2022-10-16T08:33:38Z</time>
      </trkpt>
      <trkpt lat="44.43913" lon="5.15459">
        <ele>731.2</ele>
        <time>2022-10-16T08:33:37Z</time>
      </trkpt>
      <trkpt lat="44.43912" lon="5.15458">
        <ele>731.2</ele>
        <time>2022-10-16T08:33:36Z</time>
      </trkpt>
      <trkpt lat="44.43911" lon="5.15458">
        <ele>730.9</ele>
        <time>2022-10-16T08:33:35Z</time>
      </trkpt>
      <trkpt lat="44.4391" lon="5.15457">
        <ele>730.8</ele>
        <time>2022-10-16T08:33:33Z</time>
      </trkpt>
      <trkpt lat="44.43909" lon="5.15456">
        <ele>730.8</ele>
        <time>2022-10-16T08:33:32Z</time>
      </trkpt>
      <trkpt lat="44.43908" lon="5.15456">
        <ele>730.5</ele>
        <time>2022-10-16T08:33:31Z</time>
      </trkpt>
      <trkpt lat="44.43907" lon="5.15456">
        <ele>730.2</ele>
        <time>2022-10-16T08:33:30Z</time>
      </trkpt>
      <trkpt lat="44.43907" lon="5.15455">
        <ele>730.4</ele>
        <time>2022-10-16T08:33:29Z</time>
      </trkpt>
      <trkpt lat="44.43906" lon="5.15455">
        <ele>730.1</ele>
        <time>2022-10-16T08:33:28Z</time>
      </trkpt>
      <trkpt lat="44.43905" lon="5.15455">
        <ele>729.8</ele>
        <time>2022-10-16T08:33:27Z</time>
      </trkpt>
      <trkpt lat="44.43905" lon="5.15454">
        <ele>730.1</ele>
        <time>2022-10-16T08:33:26Z</time>
      </trkpt>
      <trkpt lat="44.43904" lon="5.15454">
        <ele>729.8</ele>
        <time>2022-10-16T08:33:25Z</time>
      </trkpt>
      <trkpt lat="44.43903" lon="5.15453">
        <ele>729.8</ele>
        <time>2022-10-16T08:33:24Z</time>
      </trkpt>
      <trkpt lat="44.43902" lon="5.15453">
        <ele>729.5</ele>
        <time>2022-10-16T08:33:23Z</time>
      </trkpt>
      <trkpt lat="44.43902" lon="5.15452">
        <ele>729.7</ele>
        <time>2022-10-16T08:33:22Z</time>
      </trkpt>
      <trkpt lat="44.43901" lon="5.15451">
        <ele>729.7</ele>
        <time>2022-10-16T08:33:21Z</time>
      </trkpt>
      <trkpt lat="44.439" lon="5.15451">
        <ele>729.4</ele>
        <time>2022-10-16T08:33:20Z</time>
      </trkpt>
      <trkpt lat="44.43899" lon="5.15451">
        <ele>729.1</ele>
        <time>2022-10-16T08:33:19Z</time>
      </trkpt>
      <trkpt lat="44.43898" lon="5.1545">
        <ele>729.1</ele>
        <time>2022-10-16T08:33:17Z</time>
      </trkpt>
      <trkpt lat="44.43897" lon="5.1545">
        <ele>728.8</ele>
        <time>2022-10-16T08:33:16Z</time>
      </trkpt>
      <trkpt lat="44.43896" lon="5.15449">
        <ele>728.8</ele>
        <time>2022-10-16T08:33:15Z</time>
      </trkpt>
      <trkpt lat="44.43895" lon="5.15449">
        <ele>728.5</ele>
        <time>2022-10-16T08:33:13Z</time>
      </trkpt>
      <trkpt lat="44.43894" lon="5.15448">
        <ele>728.5</ele>
        <time>2022-10-16T08:33:12Z</time>
      </trkpt>
      <trkpt lat="44.43893" lon="5.15448">
        <ele>728.2</ele>
        <time>2022-10-16T08:33:11Z</time>
      </trkpt>
      <trkpt lat="44.43893" lon="5.15447">
        <ele>728.5</ele>
        <time>2022-10-16T08:33:10Z</time>
      </trkpt>
      <trkpt lat="44.43892" lon="5.15446">
        <ele>728.5</ele>
        <time>2022-10-16T08:33:09Z</time>
      </trkpt>
      <trkpt lat="44.43891" lon="5.15446">
        <ele>728.2</ele>
        <time>2022-10-16T08:33:08Z</time>
      </trkpt>
      <trkpt lat="44.4389" lon="5.15445">
        <ele>728.2</ele>
        <time>2022-10-16T08:33:07Z</time>
      </trkpt>
      <trkpt lat="44.43889" lon="5.15444">
        <ele>728.2</ele>
        <time>2022-10-16T08:33:06Z</time>
      </trkpt>
      <trkpt lat="44.43888" lon="5.15443">
        <ele>728.2</ele>
        <time>2022-10-16T08:33:05Z</time>
      </trkpt>
      <trkpt lat="44.43887" lon="5.15443">
        <ele>727.9</ele>
        <time>2022-10-16T08:33:04Z</time>
      </trkpt>
      <trkpt lat="44.43886" lon="5.15442">
        <ele>727.9</ele>
        <time>2022-10-16T08:33:02Z</time>
      </trkpt>
      <trkpt lat="44.43885" lon="5.15441">
        <ele>727.9</ele>
        <time>2022-10-16T08:33:01Z</time>
      </trkpt>
      <trkpt lat="44.43884" lon="5.15441">
        <ele>727.6</ele>
        <time>2022-10-16T08:33:00Z</time>
      </trkpt>
      <trkpt lat="44.43883" lon="5.15441">
        <ele>727.3</ele>
        <time>2022-10-16T08:32:59Z</time>
      </trkpt>
      <trkpt lat="44.43882" lon="5.1544">
        <ele>727.3</ele>
        <time>2022-10-16T08:32:58Z</time>
      </trkpt>
      <trkpt lat="44.43881" lon="5.1544">
        <ele>727.1</ele>
        <time>2022-10-16T08:32:57Z</time>
      </trkpt>
      <trkpt lat="44.4388" lon="5.15441">
        <ele>726.5</ele>
        <time>2022-10-16T08:32:56Z</time>
      </trkpt>
      <trkpt lat="44.43879" lon="5.15441">
        <ele>726.2</ele>
        <time>2022-10-16T08:32:55Z</time>
      </trkpt>
      <trkpt lat="44.43878" lon="5.15441">
        <ele>725.9</ele>
        <time>2022-10-16T08:32:54Z</time>
      </trkpt>
      <trkpt lat="44.43877" lon="5.15442">
        <ele>725.3</ele>
        <time>2022-10-16T08:32:53Z</time>
      </trkpt>
      <trkpt lat="44.43876" lon="5.15442">
        <ele>725</ele>
        <time>2022-10-16T08:32:52Z</time>
      </trkpt>
      <trkpt lat="44.43875" lon="5.15443">
        <ele>724.4</ele>
        <time>2022-10-16T08:32:51Z</time>
      </trkpt>
      <trkpt lat="44.43875" lon="5.15444">
        <ele>724.1</ele>
        <time>2022-10-16T08:32:50Z</time>
      </trkpt>
      <trkpt lat="44.43874" lon="5.15444">
        <ele>723.8</ele>
        <time>2022-10-16T08:32:49Z</time>
      </trkpt>
      <trkpt lat="44.43873" lon="5.15445">
        <ele>723.3</ele>
        <time>2022-10-16T08:32:47Z</time>
      </trkpt>
      <trkpt lat="44.43872" lon="5.15445">
        <ele>723</ele>
        <time>2022-10-16T08:32:46Z</time>
      </trkpt>
      <trkpt lat="44.43871" lon="5.15446">
        <ele>722.4</ele>
        <time>2022-10-16T08:32:45Z</time>
      </trkpt>
      <trkpt lat="44.4387" lon="5.15446">
        <ele>722.1</ele>
        <time>2022-10-16T08:32:44Z</time>
      </trkpt>
      <trkpt lat="44.43869" lon="5.15447">
        <ele>721.5</ele>
        <time>2022-10-16T08:32:42Z</time>
      </trkpt>
      <trkpt lat="44.43868" lon="5.15447">
        <ele>721.2</ele>
        <time>2022-10-16T08:32:41Z</time>
      </trkpt>
      <trkpt lat="44.43867" lon="5.15448">
        <ele>720.6</ele>
        <time>2022-10-16T08:32:39Z</time>
      </trkpt>
      <trkpt lat="44.43866" lon="5.15449">
        <ele>720</ele>
        <time>2022-10-16T08:32:38Z</time>
      </trkpt>
      <trkpt lat="44.43865" lon="5.15449">
        <ele>719.7</ele>
        <time>2022-10-16T08:32:37Z</time>
      </trkpt>
      <trkpt lat="44.43864" lon="5.15449">
        <ele>719.4</ele>
        <time>2022-10-16T08:32:36Z</time>
      </trkpt>
      <trkpt lat="44.43863" lon="5.1545">
        <ele>718.8</ele>
        <time>2022-10-16T08:32:35Z</time>
      </trkpt>
      <trkpt lat="44.43862" lon="5.1545">
        <ele>718.5</ele>
        <time>2022-10-16T08:32:34Z</time>
      </trkpt>
      <trkpt lat="44.43861" lon="5.1545">
        <ele>718.2</ele>
        <time>2022-10-16T08:32:33Z</time>
      </trkpt>
      <trkpt lat="44.4386" lon="5.1545">
        <ele>717.8</ele>
        <time>2022-10-16T08:32:31Z</time>
      </trkpt>
      <trkpt lat="44.43859" lon="5.15451">
        <ele>717.1</ele>
        <time>2022-10-16T08:32:30Z</time>
      </trkpt>
      <trkpt lat="44.43858" lon="5.15451">
        <ele>716.8</ele>
        <time>2022-10-16T08:32:29Z</time>
      </trkpt>
      <trkpt lat="44.43857" lon="5.1545">
        <ele>716.7</ele>
        <time>2022-10-16T08:32:27Z</time>
      </trkpt>
      <trkpt lat="44.43856" lon="5.1545">
        <ele>716.4</ele>
        <time>2022-10-16T08:32:26Z</time>
      </trkpt>
      <trkpt lat="44.43855" lon="5.1545">
        <ele>716</ele>
        <time>2022-10-16T08:32:24Z</time>
      </trkpt>
      <trkpt lat="44.43854" lon="5.15449">
        <ele>716</ele>
        <time>2022-10-16T08:32:22Z</time>
      </trkpt>
      <trkpt lat="44.43853" lon="5.15449">
        <ele>715.6</ele>
        <time>2022-10-16T08:32:21Z</time>
      </trkpt>
      <trkpt lat="44.43852" lon="5.15449">
        <ele>715.2</ele>
        <time>2022-10-16T08:32:20Z</time>
      </trkpt>
      <trkpt lat="44.43851" lon="5.15448">
        <ele>715.2</ele>
        <time>2022-10-16T08:32:19Z</time>
      </trkpt>
      <trkpt lat="44.4385" lon="5.15448">
        <ele>714.8</ele>
        <time>2022-10-16T08:32:17Z</time>
      </trkpt>
      <trkpt lat="44.43849" lon="5.15448">
        <ele>714.5</ele>
        <time>2022-10-16T08:32:16Z</time>
      </trkpt>
      <trkpt lat="44.43848" lon="5.15447">
        <ele>714.5</ele>
        <time>2022-10-16T08:32:15Z</time>
      </trkpt>
      <trkpt lat="44.43847" lon="5.15447">
        <ele>714.1</ele>
        <time>2022-10-16T08:32:14Z</time>
      </trkpt>
      <trkpt lat="44.43847" lon="5.15446">
        <ele>714.4</ele>
        <time>2022-10-16T08:32:13Z</time>
      </trkpt>
      <trkpt lat="44.43846" lon="5.15446">
        <ele>714.1</ele>
        <time>2022-10-16T08:32:12Z</time>
      </trkpt>
      <trkpt lat="44.43845" lon="5.15445">
        <ele>714</ele>
        <time>2022-10-16T08:32:11Z</time>
      </trkpt>
      <trkpt lat="44.43844" lon="5.15445">
        <ele>713.7</ele>
        <time>2022-10-16T08:32:09Z</time>
      </trkpt>
      <trkpt lat="44.43843" lon="5.15444">
        <ele>713.6</ele>
        <time>2022-10-16T08:32:08Z</time>
      </trkpt>
      <trkpt lat="44.43842" lon="5.15444">
        <ele>713.3</ele>
        <time>2022-10-16T08:32:07Z</time>
      </trkpt>
      <trkpt lat="44.43842" lon="5.15443">
        <ele>713.6</ele>
        <time>2022-10-16T08:32:06Z</time>
      </trkpt>
      <trkpt lat="44.43841" lon="5.15442">
        <ele>713.6</ele>
        <time>2022-10-16T08:32:05Z</time>
      </trkpt>
      <trkpt lat="44.4384" lon="5.15442">
        <ele>713.2</ele>
        <time>2022-10-16T08:32:04Z</time>
      </trkpt>
      <trkpt lat="44.4384" lon="5.15441">
        <ele>713.5</ele>
        <time>2022-10-16T08:32:03Z</time>
      </trkpt>
      <trkpt lat="44.43839" lon="5.1544">
        <ele>713.5</ele>
        <time>2022-10-16T08:32:02Z</time>
      </trkpt>
      <trkpt lat="44.43838" lon="5.1544">
        <ele>713.1</ele>
        <time>2022-10-16T08:32:01Z</time>
      </trkpt>
      <trkpt lat="44.43838" lon="5.15439">
        <ele>713.4</ele>
        <time>2022-10-16T08:32:00Z</time>
      </trkpt>
      <trkpt lat="44.43837" lon="5.15438">
        <ele>713.4</ele>
        <time>2022-10-16T08:31:59Z</time>
      </trkpt>
      <trkpt lat="44.43836" lon="5.15437">
        <ele>713.4</ele>
        <time>2022-10-16T08:31:57Z</time>
      </trkpt>
      <trkpt lat="44.43835" lon="5.15436">
        <ele>713.3</ele>
        <time>2022-10-16T08:31:56Z</time>
      </trkpt>
      <trkpt lat="44.43834" lon="5.15435">
        <ele>713.3</ele>
        <time>2022-10-16T08:31:55Z</time>
      </trkpt>
      <trkpt lat="44.43833" lon="5.15435">
        <ele>712.9</ele>
        <time>2022-10-16T08:31:54Z</time>
      </trkpt>
      <trkpt lat="44.43832" lon="5.15434">
        <ele>712.9</ele>
        <time>2022-10-16T08:31:52Z</time>
      </trkpt>
      <trkpt lat="44.43831" lon="5.15433">
        <ele>712.8</ele>
        <time>2022-10-16T08:31:51Z</time>
      </trkpt>
      <trkpt lat="44.4383" lon="5.15432">
        <ele>712.8</ele>
        <time>2022-10-16T08:31:50Z</time>
      </trkpt>
      <trkpt lat="44.43829" lon="5.15431">
        <ele>712.7</ele>
        <time>2022-10-16T08:31:48Z</time>
      </trkpt>
      <trkpt lat="44.43828" lon="5.1543">
        <ele>712.7</ele>
        <time>2022-10-16T08:31:47Z</time>
      </trkpt>
      <trkpt lat="44.43827" lon="5.15429">
        <ele>712.6</ele>
        <time>2022-10-16T08:31:46Z</time>
      </trkpt>
      <trkpt lat="44.43826" lon="5.15428">
        <ele>712.6</ele>
        <time>2022-10-16T08:31:45Z</time>
      </trkpt>
      <trkpt lat="44.43826" lon="5.15427">
        <ele>712.9</ele>
        <time>2022-10-16T08:31:44Z</time>
      </trkpt>
      <trkpt lat="44.43825" lon="5.15426">
        <ele>712.9</ele>
        <time>2022-10-16T08:31:43Z</time>
      </trkpt>
      <trkpt lat="44.43824" lon="5.15425">
        <ele>712.8</ele>
        <time>2022-10-16T08:31:42Z</time>
      </trkpt>
      <trkpt lat="44.43823" lon="5.15424">
        <ele>712.8</ele>
        <time>2022-10-16T08:31:41Z</time>
      </trkpt>
      <trkpt lat="44.43822" lon="5.15423">
        <ele>712.8</ele>
        <time>2022-10-16T08:31:40Z</time>
      </trkpt>
      <trkpt lat="44.43821" lon="5.15422">
        <ele>712.7</ele>
        <time>2022-10-16T08:31:39Z</time>
      </trkpt>
      <trkpt lat="44.43821" lon="5.15421">
        <ele>713.1</ele>
        <time>2022-10-16T08:31:38Z</time>
      </trkpt>
      <trkpt lat="44.4382" lon="5.1542">
        <ele>713.1</ele>
        <time>2022-10-16T08:31:37Z</time>
      </trkpt>
      <trkpt lat="44.4382" lon="5.15419">
        <ele>713.4</ele>
        <time>2022-10-16T08:31:36Z</time>
      </trkpt>
      <trkpt lat="44.43819" lon="5.15418">
        <ele>713.4</ele>
        <time>2022-10-16T08:31:35Z</time>
      </trkpt>
      <trkpt lat="44.43819" lon="5.15417">
        <ele>713.7</ele>
        <time>2022-10-16T08:31:34Z</time>
      </trkpt>
      <trkpt lat="44.43819" lon="5.15415">
        <ele>714.4</ele>
        <time>2022-10-16T08:31:33Z</time>
      </trkpt>
      <trkpt lat="44.43819" lon="5.15414">
        <ele>714.8</ele>
        <time>2022-10-16T08:31:32Z</time>
      </trkpt>
      <trkpt lat="44.43818" lon="5.15413">
        <ele>714.8</ele>
        <time>2022-10-16T08:31:31Z</time>
      </trkpt>
      <trkpt lat="44.43818" lon="5.15412">
        <ele>715.2</ele>
        <time>2022-10-16T08:31:30Z</time>
      </trkpt>
      <trkpt lat="44.43818" lon="5.15411">
        <ele>715.5</ele>
        <time>2022-10-16T08:31:29Z</time>
      </trkpt>
      <trkpt lat="44.43817" lon="5.1541">
        <ele>715.5</ele>
        <time>2022-10-16T08:31:28Z</time>
      </trkpt>
      <trkpt lat="44.43817" lon="5.15409">
        <ele>715.9</ele>
        <time>2022-10-16T08:31:27Z</time>
      </trkpt>
      <trkpt lat="44.43816" lon="5.15409">
        <ele>715.5</ele>
        <time>2022-10-16T08:31:26Z</time>
      </trkpt>
      <trkpt lat="44.43815" lon="5.15408">
        <ele>715.5</ele>
        <time>2022-10-16T08:31:24Z</time>
      </trkpt>
      <trkpt lat="44.43814" lon="5.15408">
        <ele>715.2</ele>
        <time>2022-10-16T08:31:23Z</time>
      </trkpt>
      <trkpt lat="44.43813" lon="5.15407">
        <ele>715.2</ele>
        <time>2022-10-16T08:31:21Z</time>
      </trkpt>
      <trkpt lat="44.43812" lon="5.15407">
        <ele>714.8</ele>
        <time>2022-10-16T08:31:20Z</time>
      </trkpt>
      <trkpt lat="44.43811" lon="5.15407">
        <ele>714.4</ele>
        <time>2022-10-16T08:31:18Z</time>
      </trkpt>
      <trkpt lat="44.4381" lon="5.15407">
        <ele>714.1</ele>
        <time>2022-10-16T08:31:17Z</time>
      </trkpt>
      <trkpt lat="44.43809" lon="5.15407">
        <ele>713.7</ele>
        <time>2022-10-16T08:31:16Z</time>
      </trkpt>
      <trkpt lat="44.43808" lon="5.15407">
        <ele>713.4</ele>
        <time>2022-10-16T08:31:15Z</time>
      </trkpt>
      <trkpt lat="44.43807" lon="5.15406">
        <ele>713.4</ele>
        <time>2022-10-16T08:31:13Z</time>
      </trkpt>
      <trkpt lat="44.43806" lon="5.15406">
        <ele>713</ele>
        <time>2022-10-16T08:31:12Z</time>
      </trkpt>
      <trkpt lat="44.43805" lon="5.15405">
        <ele>713</ele>
        <time>2022-10-16T08:31:11Z</time>
      </trkpt>
      <trkpt lat="44.43804" lon="5.15405">
        <ele>712.7</ele>
        <time>2022-10-16T08:31:10Z</time>
      </trkpt>
      <trkpt lat="44.43803" lon="5.15404">
        <ele>712.8</ele>
        <time>2022-10-16T08:31:09Z</time>
      </trkpt>
      <trkpt lat="44.43802" lon="5.15404">
        <ele>712.5</ele>
        <time>2022-10-16T08:31:08Z</time>
      </trkpt>
      <trkpt lat="44.43801" lon="5.15403">
        <ele>712.5</ele>
        <time>2022-10-16T08:31:07Z</time>
      </trkpt>
      <trkpt lat="44.438" lon="5.15403">
        <ele>712.2</ele>
        <time>2022-10-16T08:31:06Z</time>
      </trkpt>
      <trkpt lat="44.43799" lon="5.15403">
        <ele>711.9</ele>
        <time>2022-10-16T08:31:05Z</time>
      </trkpt>
      <trkpt lat="44.43798" lon="5.15403">
        <ele>711.6</ele>
        <time>2022-10-16T08:31:04Z</time>
      </trkpt>
      <trkpt lat="44.43797" lon="5.15402">
        <ele>711.7</ele>
        <time>2022-10-16T08:31:03Z</time>
      </trkpt>
      <trkpt lat="44.43796" lon="5.15402">
        <ele>711.3</ele>
        <time>2022-10-16T08:31:02Z</time>
      </trkpt>
      <trkpt lat="44.43796" lon="5.15401">
        <ele>711.7</ele>
        <time>2022-10-16T08:31:01Z</time>
      </trkpt>
      <trkpt lat="44.43795" lon="5.154">
        <ele>711.7</ele>
        <time>2022-10-16T08:31:00Z</time>
      </trkpt>
      <trkpt lat="44.43794" lon="5.15399">
        <ele>711.8</ele>
        <time>2022-10-16T08:30:59Z</time>
      </trkpt>
      <trkpt lat="44.43793" lon="5.15399">
        <ele>711.5</ele>
        <time>2022-10-16T08:30:58Z</time>
      </trkpt>
      <trkpt lat="44.43792" lon="5.15398">
        <ele>711.5</ele>
        <time>2022-10-16T08:30:57Z</time>
      </trkpt>
      <trkpt lat="44.43791" lon="5.15398">
        <ele>711.2</ele>
        <time>2022-10-16T08:30:56Z</time>
      </trkpt>
      <trkpt lat="44.43789" lon="5.15398">
        <ele>710.6</ele>
        <time>2022-10-16T08:30:55Z</time>
      </trkpt>
      <trkpt lat="44.43788" lon="5.15397">
        <ele>710.6</ele>
        <time>2022-10-16T08:30:53Z</time>
      </trkpt>
      <trkpt lat="44.43787" lon="5.15396">
        <ele>710.6</ele>
        <time>2022-10-16T08:30:52Z</time>
      </trkpt>
      <trkpt lat="44.43786" lon="5.15395">
        <ele>710.6</ele>
        <time>2022-10-16T08:30:51Z</time>
      </trkpt>
      <trkpt lat="44.43785" lon="5.15395">
        <ele>710.3</ele>
        <time>2022-10-16T08:30:50Z</time>
      </trkpt>
      <trkpt lat="44.43784" lon="5.15394">
        <ele>710.3</ele>
        <time>2022-10-16T08:30:49Z</time>
      </trkpt>
      <trkpt lat="44.43784" lon="5.15393">
        <ele>710.7</ele>
        <time>2022-10-16T08:30:48Z</time>
      </trkpt>
      <trkpt lat="44.43783" lon="5.15393">
        <ele>710.3</ele>
        <time>2022-10-16T08:30:47Z</time>
      </trkpt>
      <trkpt lat="44.43782" lon="5.15392">
        <ele>710.3</ele>
        <time>2022-10-16T08:30:46Z</time>
      </trkpt>
      <trkpt lat="44.43781" lon="5.15392">
        <ele>710</ele>
        <time>2022-10-16T08:30:44Z</time>
      </trkpt>
      <trkpt lat="44.4378" lon="5.15392">
        <ele>709.7</ele>
        <time>2022-10-16T08:30:43Z</time>
      </trkpt>
      <trkpt lat="44.43779" lon="5.15392">
        <ele>709.4</ele>
        <time>2022-10-16T08:30:42Z</time>
      </trkpt>
      <trkpt lat="44.43779" lon="5.15393">
        <ele>709.1</ele>
        <time>2022-10-16T08:30:41Z</time>
      </trkpt>
      <trkpt lat="44.43778" lon="5.15394">
        <ele>708.4</ele>
        <time>2022-10-16T08:30:40Z</time>
      </trkpt>
      <trkpt lat="44.43778" lon="5.15395">
        <ele>708.1</ele>
        <time>2022-10-16T08:30:39Z</time>
      </trkpt>
      <trkpt lat="44.43777" lon="5.15396">
        <ele>707.6</ele>
        <time>2022-10-16T08:30:38Z</time>
      </trkpt>
      <trkpt lat="44.43777" lon="5.15397">
        <ele>707.3</ele>
        <time>2022-10-16T08:30:37Z</time>
      </trkpt>
      <trkpt lat="44.43777" lon="5.15398">
        <ele>706.9</ele>
        <time>2022-10-16T08:30:36Z</time>
      </trkpt>
      <trkpt lat="44.43777" lon="5.15399">
        <ele>706.6</ele>
        <time>2022-10-16T08:30:35Z</time>
      </trkpt>
      <trkpt lat="44.43776" lon="5.15399">
        <ele>706.5</ele>
        <time>2022-10-16T08:30:33Z</time>
      </trkpt>
      <trkpt lat="44.43775" lon="5.15399">
        <ele>706.3</ele>
        <time>2022-10-16T08:30:32Z</time>
      </trkpt>
      <trkpt lat="44.43774" lon="5.154">
        <ele>705.9</ele>
        <time>2022-10-16T08:30:31Z</time>
      </trkpt>
      <trkpt lat="44.43773" lon="5.154">
        <ele>705.7</ele>
        <time>2022-10-16T08:30:29Z</time>
      </trkpt>
      <trkpt lat="44.43772" lon="5.154">
        <ele>705.6</ele>
        <time>2022-10-16T08:30:27Z</time>
      </trkpt>
      <trkpt lat="44.43771" lon="5.154">
        <ele>705.5</ele>
        <time>2022-10-16T08:30:26Z</time>
      </trkpt>
      <trkpt lat="44.4377" lon="5.154">
        <ele>705.3</ele>
        <time>2022-10-16T08:30:25Z</time>
      </trkpt>
      <trkpt lat="44.43769" lon="5.154">
        <ele>705.2</ele>
        <time>2022-10-16T08:30:24Z</time>
      </trkpt>
      <trkpt lat="44.43768" lon="5.154">
        <ele>705.1</ele>
        <time>2022-10-16T08:30:23Z</time>
      </trkpt>
      <trkpt lat="44.43767" lon="5.154">
        <ele>704.9</ele>
        <time>2022-10-16T08:30:22Z</time>
      </trkpt>
      <trkpt lat="44.43766" lon="5.154">
        <ele>704.8</ele>
        <time>2022-10-16T08:30:21Z</time>
      </trkpt>
      <trkpt lat="44.43765" lon="5.154">
        <ele>704.7</ele>
        <time>2022-10-16T08:30:20Z</time>
      </trkpt>
      <trkpt lat="44.43764" lon="5.154">
        <ele>704.5</ele>
        <time>2022-10-16T08:30:16Z</time>
      </trkpt>
      <trkpt lat="44.43763" lon="5.154">
        <ele>704.4</ele>
        <time>2022-10-16T08:30:15Z</time>
      </trkpt>
      <trkpt lat="44.43762" lon="5.154">
        <ele>704.2</ele>
        <time>2022-10-16T08:30:14Z</time>
      </trkpt>
      <trkpt lat="44.43761" lon="5.154">
        <ele>704.1</ele>
        <time>2022-10-16T08:30:13Z</time>
      </trkpt>
      <trkpt lat="44.43761" lon="5.15401">
        <ele>703.8</ele>
        <time>2022-10-16T08:30:12Z</time>
      </trkpt>
      <trkpt lat="44.4376" lon="5.15401">
        <ele>703.7</ele>
        <time>2022-10-16T08:30:10Z</time>
      </trkpt>
      <trkpt lat="44.43759" lon="5.15401">
        <ele>703.6</ele>
        <time>2022-10-16T08:30:09Z</time>
      </trkpt>
      <trkpt lat="44.43758" lon="5.154">
        <ele>703.7</ele>
        <time>2022-10-16T08:30:07Z</time>
      </trkpt>
      <trkpt lat="44.43757" lon="5.154">
        <ele>703.6</ele>
        <time>2022-10-16T08:30:06Z</time>
      </trkpt>
      <trkpt lat="44.43756" lon="5.154">
        <ele>703.4</ele>
        <time>2022-10-16T08:30:04Z</time>
      </trkpt>
      <trkpt lat="44.43755" lon="5.15399">
        <ele>703.5</ele>
        <time>2022-10-16T08:30:02Z</time>
      </trkpt>
      <trkpt lat="44.43754" lon="5.15398">
        <ele>703.6</ele>
        <time>2022-10-16T08:30:01Z</time>
      </trkpt>
      <trkpt lat="44.43753" lon="5.15397">
        <ele>703.7</ele>
        <time>2022-10-16T08:30:00Z</time>
      </trkpt>
      <trkpt lat="44.43752" lon="5.15396">
        <ele>703.8</ele>
        <time>2022-10-16T08:29:59Z</time>
      </trkpt>
      <trkpt lat="44.43751" lon="5.15395">
        <ele>703.8</ele>
        <time>2022-10-16T08:29:58Z</time>
      </trkpt>
      <trkpt lat="44.4375" lon="5.15394">
        <ele>703.9</ele>
        <time>2022-10-16T08:29:57Z</time>
      </trkpt>
      <trkpt lat="44.43749" lon="5.15393">
        <ele>704.2</ele>
        <time>2022-10-16T08:29:56Z</time>
      </trkpt>
      <trkpt lat="44.43748" lon="5.15392">
        <ele>704.4</ele>
        <time>2022-10-16T08:29:55Z</time>
      </trkpt>
      <trkpt lat="44.43747" lon="5.15391">
        <ele>704.7</ele>
        <time>2022-10-16T08:29:54Z</time>
      </trkpt>
      <trkpt lat="44.43747" lon="5.1539">
        <ele>704.9</ele>
        <time>2022-10-16T08:29:53Z</time>
      </trkpt>
      <trkpt lat="44.43745" lon="5.15389">
        <ele>705.2</ele>
        <time>2022-10-16T08:29:52Z</time>
      </trkpt>
      <trkpt lat="44.43744" lon="5.15389">
        <ele>705.2</ele>
        <time>2022-10-16T08:29:51Z</time>
      </trkpt>
      <trkpt lat="44.43743" lon="5.15389">
        <ele>705.2</ele>
        <time>2022-10-16T08:29:50Z</time>
      </trkpt>
      <trkpt lat="44.43742" lon="5.15388">
        <ele>705.5</ele>
        <time>2022-10-16T08:29:49Z</time>
      </trkpt>
      <trkpt lat="44.43741" lon="5.15389">
        <ele>705.3</ele>
        <time>2022-10-16T08:29:48Z</time>
      </trkpt>
      <trkpt lat="44.4374" lon="5.15389">
        <ele>705.3</ele>
        <time>2022-10-16T08:29:47Z</time>
      </trkpt>
      <trkpt lat="44.43739" lon="5.15389">
        <ele>705.4</ele>
        <time>2022-10-16T08:29:46Z</time>
      </trkpt>
      <trkpt lat="44.43738" lon="5.15389">
        <ele>705.4</ele>
        <time>2022-10-16T08:29:45Z</time>
      </trkpt>
      <trkpt lat="44.43736" lon="5.1539">
        <ele>705.3</ele>
        <time>2022-10-16T08:29:37Z</time>
      </trkpt>
      <trkpt lat="44.43735" lon="5.15389">
        <ele>705.5</ele>
        <time>2022-10-16T08:29:36Z</time>
      </trkpt>
      <trkpt lat="44.43734" lon="5.15389">
        <ele>705.6</ele>
        <time>2022-10-16T08:29:35Z</time>
      </trkpt>
      <trkpt lat="44.43733" lon="5.1539">
        <ele>705.5</ele>
        <time>2022-10-16T08:29:34Z</time>
      </trkpt>
      <trkpt lat="44.43732" lon="5.1539">
        <ele>705.5</ele>
        <time>2022-10-16T08:29:33Z</time>
      </trkpt>
      <trkpt lat="44.43732" lon="5.15391">
        <ele>705.4</ele>
        <time>2022-10-16T08:29:32Z</time>
      </trkpt>
      <trkpt lat="44.43731" lon="5.15392">
        <ele>705.3</ele>
        <time>2022-10-16T08:29:29Z</time>
      </trkpt>
      <trkpt lat="44.43731" lon="5.15393">
        <ele>705.2</ele>
        <time>2022-10-16T08:29:27Z</time>
      </trkpt>
      <trkpt lat="44.43731" lon="5.15394">
        <ele>705.1</ele>
        <time>2022-10-16T08:29:25Z</time>
      </trkpt>
      <trkpt lat="44.43731" lon="5.15396">
        <ele>704.8</ele>
        <time>2022-10-16T08:29:24Z</time>
      </trkpt>
      <trkpt lat="44.43732" lon="5.15397">
        <ele>704.7</ele>
        <time>2022-10-16T08:29:23Z</time>
      </trkpt>
      <trkpt lat="44.43733" lon="5.15398">
        <ele>704.4</ele>
        <time>2022-10-16T08:29:22Z</time>
      </trkpt>
      <trkpt lat="44.43734" lon="5.15399">
        <ele>704.2</ele>
        <time>2022-10-16T08:29:20Z</time>
      </trkpt>
      <trkpt lat="44.43735" lon="5.154">
        <ele>704</ele>
        <time>2022-10-16T08:29:19Z</time>
      </trkpt>
      <trkpt lat="44.43735" lon="5.15402">
        <ele>703.7</ele>
        <time>2022-10-16T08:29:18Z</time>
      </trkpt>
      <trkpt lat="44.43736" lon="5.15403">
        <ele>703.5</ele>
        <time>2022-10-16T08:29:17Z</time>
      </trkpt>
      <trkpt lat="44.43736" lon="5.15404">
        <ele>703.3</ele>
        <time>2022-10-16T08:29:16Z</time>
      </trkpt>
      <trkpt lat="44.43737" lon="5.15405">
        <ele>703.1</ele>
        <time>2022-10-16T08:29:15Z</time>
      </trkpt>
      <trkpt lat="44.43737" lon="5.15406">
        <ele>702.9</ele>
        <time>2022-10-16T08:29:14Z</time>
      </trkpt>
      <trkpt lat="44.43738" lon="5.15408">
        <ele>702.5</ele>
        <time>2022-10-16T08:29:13Z</time>
      </trkpt>
      <trkpt lat="44.43738" lon="5.15409">
        <ele>702.3</ele>
        <time>2022-10-16T08:29:12Z</time>
      </trkpt>
      <trkpt lat="44.43738" lon="5.15411">
        <ele>702</ele>
        <time>2022-10-16T08:29:11Z</time>
      </trkpt>
      <trkpt lat="44.43737" lon="5.15412">
        <ele>702</ele>
        <time>2022-10-16T08:29:10Z</time>
      </trkpt>
      <trkpt lat="44.43737" lon="5.15413">
        <ele>701.9</ele>
        <time>2022-10-16T08:29:09Z</time>
      </trkpt>
      <trkpt lat="44.43737" lon="5.15414">
        <ele>701.7</ele>
        <time>2022-10-16T08:29:08Z</time>
      </trkpt>
      <trkpt lat="44.43737" lon="5.15415">
        <ele>701.6</ele>
        <time>2022-10-16T08:29:07Z</time>
      </trkpt>
      <trkpt lat="44.43737" lon="5.15416">
        <ele>701.4</ele>
        <time>2022-10-16T08:29:06Z</time>
      </trkpt>
      <trkpt lat="44.43737" lon="5.15418">
        <ele>701.2</ele>
        <time>2022-10-16T08:29:05Z</time>
      </trkpt>
      <trkpt lat="44.43737" lon="5.15419">
        <ele>701.2</ele>
        <time>2022-10-16T08:29:04Z</time>
      </trkpt>
      <trkpt lat="44.43738" lon="5.1542">
        <ele>700.9</ele>
        <time>2022-10-16T08:29:03Z</time>
      </trkpt>
      <trkpt lat="44.43738" lon="5.15421">
        <ele>700.8</ele>
        <time>2022-10-16T08:29:02Z</time>
      </trkpt>
      <trkpt lat="44.43738" lon="5.15422">
        <ele>700.7</ele>
        <time>2022-10-16T08:29:01Z</time>
      </trkpt>
      <trkpt lat="44.43738" lon="5.15423">
        <ele>700.6</ele>
        <time>2022-10-16T08:29:00Z</time>
      </trkpt>
      <trkpt lat="44.43738" lon="5.15425">
        <ele>700.5</ele>
        <time>2022-10-16T08:28:59Z</time>
      </trkpt>
      <trkpt lat="44.43738" lon="5.15426">
        <ele>700.4</ele>
        <time>2022-10-16T08:28:58Z</time>
      </trkpt>
      <trkpt lat="44.43738" lon="5.15428">
        <ele>700.2</ele>
        <time>2022-10-16T08:28:57Z</time>
      </trkpt>
      <trkpt lat="44.43738" lon="5.15429">
        <ele>700.2</ele>
        <time>2022-10-16T08:28:56Z</time>
      </trkpt>
      <trkpt lat="44.43738" lon="5.15431">
        <ele>700</ele>
        <time>2022-10-16T08:28:55Z</time>
      </trkpt>
      <trkpt lat="44.43738" lon="5.15433">
        <ele>699.8</ele>
        <time>2022-10-16T08:28:54Z</time>
      </trkpt>
      <trkpt lat="44.43738" lon="5.15434">
        <ele>699.7</ele>
        <time>2022-10-16T08:28:53Z</time>
      </trkpt>
      <trkpt lat="44.43738" lon="5.15436">
        <ele>699.6</ele>
        <time>2022-10-16T08:28:52Z</time>
      </trkpt>
      <trkpt lat="44.43738" lon="5.15438">
        <ele>699.4</ele>
        <time>2022-10-16T08:28:51Z</time>
      </trkpt>
      <trkpt lat="44.43737" lon="5.1544">
        <ele>699.6</ele>
        <time>2022-10-16T08:28:50Z</time>
      </trkpt>
      <trkpt lat="44.43737" lon="5.15441">
        <ele>699.5</ele>
        <time>2022-10-16T08:28:49Z</time>
      </trkpt>
      <trkpt lat="44.43737" lon="5.15442">
        <ele>699.4</ele>
        <time>2022-10-16T08:28:48Z</time>
      </trkpt>
      <trkpt lat="44.43737" lon="5.15443">
        <ele>699.3</ele>
        <time>2022-10-16T08:28:47Z</time>
      </trkpt>
      <trkpt lat="44.43737" lon="5.15444">
        <ele>699.2</ele>
        <time>2022-10-16T08:28:46Z</time>
      </trkpt>
      <trkpt lat="44.43736" lon="5.15446">
        <ele>699.5</ele>
        <time>2022-10-16T08:28:45Z</time>
      </trkpt>
      <trkpt lat="44.43736" lon="5.15447">
        <ele>699.4</ele>
        <time>2022-10-16T08:28:44Z</time>
      </trkpt>
      <trkpt lat="44.43736" lon="5.15448">
        <ele>699.3</ele>
        <time>2022-10-16T08:28:43Z</time>
      </trkpt>
      <trkpt lat="44.43736" lon="5.15449">
        <ele>699.3</ele>
        <time>2022-10-16T08:28:42Z</time>
      </trkpt>
      <trkpt lat="44.43736" lon="5.1545">
        <ele>699.2</ele>
        <time>2022-10-16T08:28:41Z</time>
      </trkpt>
      <trkpt lat="44.43736" lon="5.15451">
        <ele>699.2</ele>
        <time>2022-10-16T08:28:40Z</time>
      </trkpt>
      <trkpt lat="44.43736" lon="5.15452">
        <ele>699.1</ele>
        <time>2022-10-16T08:28:39Z</time>
      </trkpt>
      <trkpt lat="44.43736" lon="5.15453">
        <ele>699.1</ele>
        <time>2022-10-16T08:28:38Z</time>
      </trkpt>
      <trkpt lat="44.43736" lon="5.15454">
        <ele>699</ele>
        <time>2022-10-16T08:28:37Z</time>
      </trkpt>
      <trkpt lat="44.43736" lon="5.15456">
        <ele>698.9</ele>
        <time>2022-10-16T08:28:36Z</time>
      </trkpt>
      <trkpt lat="44.43735" lon="5.15457">
        <ele>699.2</ele>
        <time>2022-10-16T08:28:35Z</time>
      </trkpt>
      <trkpt lat="44.43735" lon="5.15458">
        <ele>699.2</ele>
        <time>2022-10-16T08:28:34Z</time>
      </trkpt>
      <trkpt lat="44.43735" lon="5.15459">
        <ele>699.1</ele>
        <time>2022-10-16T08:28:33Z</time>
      </trkpt>
      <trkpt lat="44.43735" lon="5.1546">
        <ele>699.1</ele>
        <time>2022-10-16T08:28:32Z</time>
      </trkpt>
      <trkpt lat="44.43735" lon="5.15462">
        <ele>699</ele>
        <time>2022-10-16T08:28:31Z</time>
      </trkpt>
      <trkpt lat="44.43734" lon="5.15463">
        <ele>699.3</ele>
        <time>2022-10-16T08:28:30Z</time>
      </trkpt>
      <trkpt lat="44.43734" lon="5.15465">
        <ele>699.2</ele>
        <time>2022-10-16T08:28:29Z</time>
      </trkpt>
      <trkpt lat="44.43734" lon="5.15466">
        <ele>699.2</ele>
        <time>2022-10-16T08:28:28Z</time>
      </trkpt>
      <trkpt lat="44.43734" lon="5.15467">
        <ele>699.2</ele>
        <time>2022-10-16T08:28:27Z</time>
      </trkpt>
      <trkpt lat="44.43734" lon="5.15469">
        <ele>699.1</ele>
        <time>2022-10-16T08:28:26Z</time>
      </trkpt>
      <trkpt lat="44.43733" lon="5.1547">
        <ele>699.4</ele>
        <time>2022-10-16T08:28:25Z</time>
      </trkpt>
      <trkpt lat="44.43733" lon="5.15471">
        <ele>699.4</ele>
        <time>2022-10-16T08:28:24Z</time>
      </trkpt>
      <trkpt lat="44.43733" lon="5.15473">
        <ele>699.3</ele>
        <time>2022-10-16T08:28:23Z</time>
      </trkpt>
      <trkpt lat="44.43733" lon="5.15474">
        <ele>699.3</ele>
        <time>2022-10-16T08:28:22Z</time>
      </trkpt>
      <trkpt lat="44.43734" lon="5.15475">
        <ele>698.9</ele>
        <time>2022-10-16T08:28:21Z</time>
      </trkpt>
      <trkpt lat="44.43734" lon="5.15477">
        <ele>698.8</ele>
        <time>2022-10-16T08:28:20Z</time>
      </trkpt>
      <trkpt lat="44.43734" lon="5.15478">
        <ele>698.8</ele>
        <time>2022-10-16T08:28:19Z</time>
      </trkpt>
      <trkpt lat="44.43734" lon="5.1548">
        <ele>698.8</ele>
        <time>2022-10-16T08:28:18Z</time>
      </trkpt>
      <trkpt lat="44.43734" lon="5.15481">
        <ele>698.8</ele>
        <time>2022-10-16T08:28:17Z</time>
      </trkpt>
      <trkpt lat="44.43735" lon="5.15482">
        <ele>698.3</ele>
        <time>2022-10-16T08:28:16Z</time>
      </trkpt>
      <trkpt lat="44.43735" lon="5.15484">
        <ele>698.3</ele>
        <time>2022-10-16T08:28:15Z</time>
      </trkpt>
      <trkpt lat="44.43735" lon="5.15485">
        <ele>698.3</ele>
        <time>2022-10-16T08:28:14Z</time>
      </trkpt>
      <trkpt lat="44.43735" lon="5.15486">
        <ele>698.3</ele>
        <time>2022-10-16T08:28:13Z</time>
      </trkpt>
      <trkpt lat="44.43735" lon="5.15488">
        <ele>698.2</ele>
        <time>2022-10-16T08:28:12Z</time>
      </trkpt>
      <trkpt lat="44.43735" lon="5.15489">
        <ele>698.2</ele>
        <time>2022-10-16T08:28:11Z</time>
      </trkpt>
      <trkpt lat="44.43735" lon="5.15491">
        <ele>698.2</ele>
        <time>2022-10-16T08:28:10Z</time>
      </trkpt>
      <trkpt lat="44.43736" lon="5.15492">
        <ele>697.7</ele>
        <time>2022-10-16T08:28:09Z</time>
      </trkpt>
      <trkpt lat="44.43736" lon="5.15493">
        <ele>697.7</ele>
        <time>2022-10-16T08:28:08Z</time>
      </trkpt>
      <trkpt lat="44.43736" lon="5.15494">
        <ele>697.7</ele>
        <time>2022-10-16T08:28:07Z</time>
      </trkpt>
      <trkpt lat="44.43736" lon="5.15495">
        <ele>697.6</ele>
        <time>2022-10-16T08:28:06Z</time>
      </trkpt>
      <trkpt lat="44.43736" lon="5.15496">
        <ele>697.6</ele>
        <time>2022-10-16T08:28:05Z</time>
      </trkpt>
      <trkpt lat="44.43736" lon="5.15497">
        <ele>697.6</ele>
        <time>2022-10-16T08:28:04Z</time>
      </trkpt>
      <trkpt lat="44.43736" lon="5.15498">
        <ele>697.6</ele>
        <time>2022-10-16T08:28:03Z</time>
      </trkpt>
      <trkpt lat="44.43736" lon="5.15499">
        <ele>697.6</ele>
        <time>2022-10-16T08:28:02Z</time>
      </trkpt>
      <trkpt lat="44.43736" lon="5.155">
        <ele>697.6</ele>
        <time>2022-10-16T08:28:01Z</time>
      </trkpt>
      <trkpt lat="44.43736" lon="5.15501">
        <ele>697.6</ele>
        <time>2022-10-16T08:28:00Z</time>
      </trkpt>
      <trkpt lat="44.43737" lon="5.15502">
        <ele>697.1</ele>
        <time>2022-10-16T08:27:59Z</time>
      </trkpt>
      <trkpt lat="44.43737" lon="5.15504">
        <ele>697.2</ele>
        <time>2022-10-16T08:27:58Z</time>
      </trkpt>
      <trkpt lat="44.43737" lon="5.15505">
        <ele>697.2</ele>
        <time>2022-10-16T08:27:57Z</time>
      </trkpt>
      <trkpt lat="44.43737" lon="5.15506">
        <ele>697.2</ele>
        <time>2022-10-16T08:27:56Z</time>
      </trkpt>
      <trkpt lat="44.43737" lon="5.15508">
        <ele>697.2</ele>
        <time>2022-10-16T08:27:55Z</time>
      </trkpt>
      <trkpt lat="44.43738" lon="5.15509">
        <ele>696.8</ele>
        <time>2022-10-16T08:27:54Z</time>
      </trkpt>
      <trkpt lat="44.43738" lon="5.1551">
        <ele>696.8</ele>
        <time>2022-10-16T08:27:53Z</time>
      </trkpt>
      <trkpt lat="44.43738" lon="5.15511">
        <ele>696.8</ele>
        <time>2022-10-16T08:27:52Z</time>
      </trkpt>
      <trkpt lat="44.43738" lon="5.15512">
        <ele>696.8</ele>
        <time>2022-10-16T08:27:51Z</time>
      </trkpt>
      <trkpt lat="44.43738" lon="5.15513">
        <ele>696.8</ele>
        <time>2022-10-16T08:27:50Z</time>
      </trkpt>
      <trkpt lat="44.43738" lon="5.15515">
        <ele>696.8</ele>
        <time>2022-10-16T08:27:49Z</time>
      </trkpt>
      <trkpt lat="44.43738" lon="5.15516">
        <ele>696.9</ele>
        <time>2022-10-16T08:27:48Z</time>
      </trkpt>
      <trkpt lat="44.43738" lon="5.15517">
        <ele>696.9</ele>
        <time>2022-10-16T08:27:47Z</time>
      </trkpt>
      <trkpt lat="44.43739" lon="5.15518">
        <ele>696.4</ele>
        <time>2022-10-16T08:27:46Z</time>
      </trkpt>
      <trkpt lat="44.43739" lon="5.15519">
        <ele>696.4</ele>
        <time>2022-10-16T08:27:45Z</time>
      </trkpt>
      <trkpt lat="44.43739" lon="5.1552">
        <ele>696.4</ele>
        <time>2022-10-16T08:27:43Z</time>
      </trkpt>
      <trkpt lat="44.43739" lon="5.15521">
        <ele>696.4</ele>
        <time>2022-10-16T08:27:42Z</time>
      </trkpt>
      <trkpt lat="44.43739" lon="5.15522">
        <ele>696.5</ele>
        <time>2022-10-16T08:27:40Z</time>
      </trkpt>
      <trkpt lat="44.43739" lon="5.15523">
        <ele>696.5</ele>
        <time>2022-10-16T08:27:39Z</time>
      </trkpt>
      <trkpt lat="44.43739" lon="5.15524">
        <ele>696.5</ele>
        <time>2022-10-16T08:27:38Z</time>
      </trkpt>
      <trkpt lat="44.43739" lon="5.15525">
        <ele>696.5</ele>
        <time>2022-10-16T08:27:37Z</time>
      </trkpt>
      <trkpt lat="44.43739" lon="5.15526">
        <ele>696.5</ele>
        <time>2022-10-16T08:27:36Z</time>
      </trkpt>
      <trkpt lat="44.43739" lon="5.15527">
        <ele>696.5</ele>
        <time>2022-10-16T08:27:35Z</time>
      </trkpt>
      <trkpt lat="44.43739" lon="5.15528">
        <ele>696.5</ele>
        <time>2022-10-16T08:27:34Z</time>
      </trkpt>
      <trkpt lat="44.43739" lon="5.15529">
        <ele>696.5</ele>
        <time>2022-10-16T08:27:33Z</time>
      </trkpt>
      <trkpt lat="44.43739" lon="5.1553">
        <ele>696.5</ele>
        <time>2022-10-16T08:27:32Z</time>
      </trkpt>
      <trkpt lat="44.43739" lon="5.15532">
        <ele>696.5</ele>
        <time>2022-10-16T08:27:31Z</time>
      </trkpt>
      <trkpt lat="44.43739" lon="5.15533">
        <ele>696.4</ele>
        <time>2022-10-16T08:27:30Z</time>
      </trkpt>
      <trkpt lat="44.43739" lon="5.15535">
        <ele>696.4</ele>
        <time>2022-10-16T08:27:29Z</time>
      </trkpt>
      <trkpt lat="44.4374" lon="5.15536">
        <ele>695.9</ele>
        <time>2022-10-16T08:27:28Z</time>
      </trkpt>
      <trkpt lat="44.4374" lon="5.15537">
        <ele>695.8</ele>
        <time>2022-10-16T08:27:27Z</time>
      </trkpt>
      <trkpt lat="44.4374" lon="5.15539">
        <ele>695.8</ele>
        <time>2022-10-16T08:27:26Z</time>
      </trkpt>
      <trkpt lat="44.4374" lon="5.1554">
        <ele>695.8</ele>
        <time>2022-10-16T08:27:25Z</time>
      </trkpt>
      <trkpt lat="44.4374" lon="5.15541">
        <ele>695.7</ele>
        <time>2022-10-16T08:27:24Z</time>
      </trkpt>
      <trkpt lat="44.4374" lon="5.15542">
        <ele>695.7</ele>
        <time>2022-10-16T08:27:23Z</time>
      </trkpt>
      <trkpt lat="44.4374" lon="5.15543">
        <ele>695.7</ele>
        <time>2022-10-16T08:27:22Z</time>
      </trkpt>
      <trkpt lat="44.4374" lon="5.15544">
        <ele>695.7</ele>
        <time>2022-10-16T08:27:20Z</time>
      </trkpt>
      <trkpt lat="44.4374" lon="5.15545">
        <ele>695.6</ele>
        <time>2022-10-16T08:27:19Z</time>
      </trkpt>
      <trkpt lat="44.4374" lon="5.15546">
        <ele>695.6</ele>
        <time>2022-10-16T08:27:18Z</time>
      </trkpt>
      <trkpt lat="44.4374" lon="5.15547">
        <ele>695.6</ele>
        <time>2022-10-16T08:27:17Z</time>
      </trkpt>
      <trkpt lat="44.4374" lon="5.15548">
        <ele>695.6</ele>
        <time>2022-10-16T08:27:16Z</time>
      </trkpt>
      <trkpt lat="44.4374" lon="5.15549">
        <ele>695.6</ele>
        <time>2022-10-16T08:27:15Z</time>
      </trkpt>
      <trkpt lat="44.4374" lon="5.1555">
        <ele>695.5</ele>
        <time>2022-10-16T08:27:13Z</time>
      </trkpt>
      <trkpt lat="44.4374" lon="5.15552">
        <ele>695.5</ele>
        <time>2022-10-16T08:27:12Z</time>
      </trkpt>
      <trkpt lat="44.4374" lon="5.15553">
        <ele>695.5</ele>
        <time>2022-10-16T08:27:11Z</time>
      </trkpt>
      <trkpt lat="44.43739" lon="5.15556">
        <ele>695.9</ele>
        <time>2022-10-16T08:27:02Z</time>
      </trkpt>
      <trkpt lat="44.4374" lon="5.15557">
        <ele>695.4</ele>
        <time>2022-10-16T08:27:01Z</time>
      </trkpt>
      <trkpt lat="44.4374" lon="5.15558">
        <ele>695.4</ele>
        <time>2022-10-16T08:27:00Z</time>
      </trkpt>
      <trkpt lat="44.4374" lon="5.15559">
        <ele>695.4</ele>
        <time>2022-10-16T08:26:59Z</time>
      </trkpt>
      <trkpt lat="44.4374" lon="5.1556">
        <ele>695.3</ele>
        <time>2022-10-16T08:26:58Z</time>
      </trkpt>
      <trkpt lat="44.4374" lon="5.15561">
        <ele>695.3</ele>
        <time>2022-10-16T08:26:57Z</time>
      </trkpt>
      <trkpt lat="44.43741" lon="5.15562">
        <ele>694.8</ele>
        <time>2022-10-16T08:26:56Z</time>
      </trkpt>
      <trkpt lat="44.43741" lon="5.15563">
        <ele>694.8</ele>
        <time>2022-10-16T08:26:55Z</time>
      </trkpt>
      <trkpt lat="44.43741" lon="5.15564">
        <ele>694.8</ele>
        <time>2022-10-16T08:26:54Z</time>
      </trkpt>
      <trkpt lat="44.43742" lon="5.15565">
        <ele>694.2</ele>
        <time>2022-10-16T08:26:53Z</time>
      </trkpt>
      <trkpt lat="44.43742" lon="5.15566">
        <ele>694.2</ele>
        <time>2022-10-16T08:26:52Z</time>
      </trkpt>
      <trkpt lat="44.43742" lon="5.15567">
        <ele>694.2</ele>
        <time>2022-10-16T08:26:51Z</time>
      </trkpt>
      <trkpt lat="44.43742" lon="5.15568">
        <ele>694.2</ele>
        <time>2022-10-16T08:26:49Z</time>
      </trkpt>
      <trkpt lat="44.43743" lon="5.15569">
        <ele>693.7</ele>
        <time>2022-10-16T08:26:47Z</time>
      </trkpt>
      <trkpt lat="44.43743" lon="5.1557">
        <ele>693.6</ele>
        <time>2022-10-16T08:26:46Z</time>
      </trkpt>
      <trkpt lat="44.43743" lon="5.15571">
        <ele>693.6</ele>
        <time>2022-10-16T08:26:44Z</time>
      </trkpt>
      <trkpt lat="44.43743" lon="5.15572">
        <ele>693.6</ele>
        <time>2022-10-16T08:26:43Z</time>
      </trkpt>
      <trkpt lat="44.43744" lon="5.15573">
        <ele>693.1</ele>
        <time>2022-10-16T08:26:41Z</time>
      </trkpt>
      <trkpt lat="44.43744" lon="5.15574">
        <ele>693.1</ele>
        <time>2022-10-16T08:26:40Z</time>
      </trkpt>
      <trkpt lat="44.43745" lon="5.15575">
        <ele>692.6</ele>
        <time>2022-10-16T08:26:38Z</time>
      </trkpt>
      <trkpt lat="44.43746" lon="5.15576">
        <ele>692.1</ele>
        <time>2022-10-16T08:26:37Z</time>
      </trkpt>
      <trkpt lat="44.43746" lon="5.15577">
        <ele>692</ele>
        <time>2022-10-16T08:26:36Z</time>
      </trkpt>
      <trkpt lat="44.43747" lon="5.15578">
        <ele>691.5</ele>
        <time>2022-10-16T08:26:34Z</time>
      </trkpt>
      <trkpt lat="44.43747" lon="5.15579">
        <ele>691.5</ele>
        <time>2022-10-16T08:26:33Z</time>
      </trkpt>
      <trkpt lat="44.43748" lon="5.15579">
        <ele>691</ele>
        <time>2022-10-16T08:26:32Z</time>
      </trkpt>
      <trkpt lat="44.43748" lon="5.1558">
        <ele>691</ele>
        <time>2022-10-16T08:26:31Z</time>
      </trkpt>
      <trkpt lat="44.43749" lon="5.15581">
        <ele>690.5</ele>
        <time>2022-10-16T08:26:29Z</time>
      </trkpt>
      <trkpt lat="44.43749" lon="5.15582">
        <ele>690.5</ele>
        <time>2022-10-16T08:26:28Z</time>
      </trkpt>
      <trkpt lat="44.4375" lon="5.15583">
        <ele>690</ele>
        <time>2022-10-16T08:26:27Z</time>
      </trkpt>
      <trkpt lat="44.4375" lon="5.15584">
        <ele>690</ele>
        <time>2022-10-16T08:26:26Z</time>
      </trkpt>
      <trkpt lat="44.43751" lon="5.15584">
        <ele>689.5</ele>
        <time>2022-10-16T08:26:25Z</time>
      </trkpt>
      <trkpt lat="44.43751" lon="5.15585">
        <ele>689.4</ele>
        <time>2022-10-16T08:26:24Z</time>
      </trkpt>
      <trkpt lat="44.43752" lon="5.15585">
        <ele>688.9</ele>
        <time>2022-10-16T08:26:22Z</time>
      </trkpt>
      <trkpt lat="44.43753" lon="5.15586">
        <ele>688.4</ele>
        <time>2022-10-16T08:26:20Z</time>
      </trkpt>
      <trkpt lat="44.43754" lon="5.15587">
        <ele>687.9</ele>
        <time>2022-10-16T08:26:17Z</time>
      </trkpt>
      <trkpt lat="44.43755" lon="5.15587">
        <ele>687.3</ele>
        <time>2022-10-16T08:26:16Z</time>
      </trkpt>
      <trkpt lat="44.43756" lon="5.15588">
        <ele>686.8</ele>
        <time>2022-10-16T08:26:14Z</time>
      </trkpt>
      <trkpt lat="44.43757" lon="5.15588">
        <ele>686.3</ele>
        <time>2022-10-16T08:26:13Z</time>
      </trkpt>
      <trkpt lat="44.43758" lon="5.15588">
        <ele>685.8</ele>
        <time>2022-10-16T08:26:11Z</time>
      </trkpt>
      <trkpt lat="44.43759" lon="5.15589">
        <ele>685.3</ele>
        <time>2022-10-16T08:26:09Z</time>
      </trkpt>
      <trkpt lat="44.4376" lon="5.1559">
        <ele>684.7</ele>
        <time>2022-10-16T08:26:07Z</time>
      </trkpt>
      <trkpt lat="44.43761" lon="5.15591">
        <ele>684.2</ele>
        <time>2022-10-16T08:26:06Z</time>
      </trkpt>
      <trkpt lat="44.43761" lon="5.15592">
        <ele>684.1</ele>
        <time>2022-10-16T08:26:05Z</time>
      </trkpt>
      <trkpt lat="44.43762" lon="5.15592">
        <ele>683.6</ele>
        <time>2022-10-16T08:26:04Z</time>
      </trkpt>
      <trkpt lat="44.43762" lon="5.15593">
        <ele>683.6</ele>
        <time>2022-10-16T08:26:03Z</time>
      </trkpt>
      <trkpt lat="44.43763" lon="5.15593">
        <ele>683.1</ele>
        <time>2022-10-16T08:26:02Z</time>
      </trkpt>
      <trkpt lat="44.43763" lon="5.15594">
        <ele>683.1</ele>
        <time>2022-10-16T08:26:01Z</time>
      </trkpt>
      <trkpt lat="44.43764" lon="5.15594">
        <ele>682.6</ele>
        <time>2022-10-16T08:26:00Z</time>
      </trkpt>
      <trkpt lat="44.43764" lon="5.15595">
        <ele>682.5</ele>
        <time>2022-10-16T08:25:59Z</time>
      </trkpt>
      <trkpt lat="44.43765" lon="5.15595">
        <ele>682</ele>
        <time>2022-10-16T08:25:58Z</time>
      </trkpt>
      <trkpt lat="44.43766" lon="5.15596">
        <ele>681.5</ele>
        <time>2022-10-16T08:25:56Z</time>
      </trkpt>
      <trkpt lat="44.43767" lon="5.15597">
        <ele>680.9</ele>
        <time>2022-10-16T08:25:54Z</time>
      </trkpt>
      <trkpt lat="44.43767" lon="5.15598">
        <ele>680.9</ele>
        <time>2022-10-16T08:25:53Z</time>
      </trkpt>
      <trkpt lat="44.43767" lon="5.15599">
        <ele>680.9</ele>
        <time>2022-10-16T08:25:52Z</time>
      </trkpt>
      <trkpt lat="44.43768" lon="5.156">
        <ele>680.3</ele>
        <time>2022-10-16T08:25:51Z</time>
      </trkpt>
      <trkpt lat="44.43768" lon="5.15601">
        <ele>680.3</ele>
        <time>2022-10-16T08:25:50Z</time>
      </trkpt>
      <trkpt lat="44.43768" lon="5.15602">
        <ele>680.3</ele>
        <time>2022-10-16T08:25:49Z</time>
      </trkpt>
      <trkpt lat="44.43768" lon="5.15603">
        <ele>680.2</ele>
        <time>2022-10-16T08:25:48Z</time>
      </trkpt>
      <trkpt lat="44.43768" lon="5.15604">
        <ele>680.2</ele>
        <time>2022-10-16T08:25:47Z</time>
      </trkpt>
      <trkpt lat="44.43768" lon="5.15606">
        <ele>680.1</ele>
        <time>2022-10-16T08:25:46Z</time>
      </trkpt>
      <trkpt lat="44.43768" lon="5.15607">
        <ele>680.1</ele>
        <time>2022-10-16T08:25:45Z</time>
      </trkpt>
      <trkpt lat="44.43768" lon="5.15609">
        <ele>680</ele>
        <time>2022-10-16T08:25:44Z</time>
      </trkpt>
      <trkpt lat="44.43768" lon="5.1561">
        <ele>680</ele>
        <time>2022-10-16T08:25:43Z</time>
      </trkpt>
      <trkpt lat="44.43769" lon="5.15611">
        <ele>679.4</ele>
        <time>2022-10-16T08:25:42Z</time>
      </trkpt>
      <trkpt lat="44.43769" lon="5.15612">
        <ele>679.4</ele>
        <time>2022-10-16T08:25:41Z</time>
      </trkpt>
      <trkpt lat="44.4377" lon="5.15613">
        <ele>678.8</ele>
        <time>2022-10-16T08:25:40Z</time>
      </trkpt>
      <trkpt lat="44.4377" lon="5.15614">
        <ele>678.7</ele>
        <time>2022-10-16T08:25:39Z</time>
      </trkpt>
      <trkpt lat="44.43771" lon="5.15615">
        <ele>678.2</ele>
        <time>2022-10-16T08:25:38Z</time>
      </trkpt>
      <trkpt lat="44.43771" lon="5.15617">
        <ele>678</ele>
        <time>2022-10-16T08:25:37Z</time>
      </trkpt>
      <trkpt lat="44.43772" lon="5.15618">
        <ele>677.5</ele>
        <time>2022-10-16T08:25:36Z</time>
      </trkpt>
      <trkpt lat="44.43772" lon="5.15619">
        <ele>677.4</ele>
        <time>2022-10-16T08:25:35Z</time>
      </trkpt>
      <trkpt lat="44.43772" lon="5.15621">
        <ele>677.3</ele>
        <time>2022-10-16T08:25:34Z</time>
      </trkpt>
      <trkpt lat="44.43773" lon="5.15622">
        <ele>676.7</ele>
        <time>2022-10-16T08:25:33Z</time>
      </trkpt>
      <trkpt lat="44.43773" lon="5.15623">
        <ele>676.6</ele>
        <time>2022-10-16T08:25:32Z</time>
      </trkpt>
      <trkpt lat="44.43773" lon="5.15624">
        <ele>676.6</ele>
        <time>2022-10-16T08:25:31Z</time>
      </trkpt>
      <trkpt lat="44.43773" lon="5.15626">
        <ele>676.4</ele>
        <time>2022-10-16T08:25:30Z</time>
      </trkpt>
      <trkpt lat="44.43773" lon="5.15627">
        <ele>676.4</ele>
        <time>2022-10-16T08:25:29Z</time>
      </trkpt>
      <trkpt lat="44.43773" lon="5.15628">
        <ele>676.3</ele>
        <time>2022-10-16T08:25:28Z</time>
      </trkpt>
      <trkpt lat="44.43773" lon="5.15629">
        <ele>676.2</ele>
        <time>2022-10-16T08:25:27Z</time>
      </trkpt>
      <trkpt lat="44.43773" lon="5.1563">
        <ele>676.2</ele>
        <time>2022-10-16T08:25:26Z</time>
      </trkpt>
      <trkpt lat="44.43774" lon="5.15631">
        <ele>675.6</ele>
        <time>2022-10-16T08:25:25Z</time>
      </trkpt>
      <trkpt lat="44.43774" lon="5.15633">
        <ele>675.4</ele>
        <time>2022-10-16T08:25:24Z</time>
      </trkpt>
      <trkpt lat="44.43774" lon="5.15634">
        <ele>675.4</ele>
        <time>2022-10-16T08:25:23Z</time>
      </trkpt>
      <trkpt lat="44.43774" lon="5.15636">
        <ele>675.2</ele>
        <time>2022-10-16T08:25:22Z</time>
      </trkpt>
      <trkpt lat="44.43774" lon="5.15637">
        <ele>675.2</ele>
        <time>2022-10-16T08:25:21Z</time>
      </trkpt>
      <trkpt lat="44.43775" lon="5.15639">
        <ele>674.5</ele>
        <time>2022-10-16T08:25:20Z</time>
      </trkpt>
      <trkpt lat="44.43775" lon="5.1564">
        <ele>674.5</ele>
        <time>2022-10-16T08:25:19Z</time>
      </trkpt>
      <trkpt lat="44.43775" lon="5.15642">
        <ele>674.5</ele>
        <time>2022-10-16T08:25:18Z</time>
      </trkpt>
      <trkpt lat="44.43775" lon="5.15643">
        <ele>674.5</ele>
        <time>2022-10-16T08:25:17Z</time>
      </trkpt>
      <trkpt lat="44.43775" lon="5.15644">
        <ele>674.5</ele>
        <time>2022-10-16T08:25:16Z</time>
      </trkpt>
      <trkpt lat="44.43775" lon="5.15646">
        <ele>674.5</ele>
        <time>2022-10-16T08:25:15Z</time>
      </trkpt>
      <trkpt lat="44.43775" lon="5.15647">
        <ele>674.5</ele>
        <time>2022-10-16T08:25:14Z</time>
      </trkpt>
      <trkpt lat="44.43775" lon="5.15648">
        <ele>674.5</ele>
        <time>2022-10-16T08:25:13Z</time>
      </trkpt>
      <trkpt lat="44.43775" lon="5.1565">
        <ele>674.5</ele>
        <time>2022-10-16T08:25:12Z</time>
      </trkpt>
      <trkpt lat="44.43776" lon="5.15651">
        <ele>673.9</ele>
        <time>2022-10-16T08:25:11Z</time>
      </trkpt>
      <trkpt lat="44.43776" lon="5.15653">
        <ele>673.9</ele>
        <time>2022-10-16T08:25:10Z</time>
      </trkpt>
      <trkpt lat="44.43777" lon="5.15654">
        <ele>673.4</ele>
        <time>2022-10-16T08:25:09Z</time>
      </trkpt>
      <trkpt lat="44.43777" lon="5.15656">
        <ele>673.4</ele>
        <time>2022-10-16T08:25:08Z</time>
      </trkpt>
      <trkpt lat="44.43778" lon="5.15657">
        <ele>672.9</ele>
        <time>2022-10-16T08:25:07Z</time>
      </trkpt>
      <trkpt lat="44.43778" lon="5.15659">
        <ele>672.9</ele>
        <time>2022-10-16T08:25:06Z</time>
      </trkpt>
      <trkpt lat="44.43778" lon="5.1566">
        <ele>672.9</ele>
        <time>2022-10-16T08:25:05Z</time>
      </trkpt>
      <trkpt lat="44.43779" lon="5.15662">
        <ele>672.4</ele>
        <time>2022-10-16T08:25:04Z</time>
      </trkpt>
      <trkpt lat="44.43779" lon="5.15663">
        <ele>672.4</ele>
        <time>2022-10-16T08:25:03Z</time>
      </trkpt>
      <trkpt lat="44.43779" lon="5.15664">
        <ele>672.3</ele>
        <time>2022-10-16T08:25:02Z</time>
      </trkpt>
      <trkpt lat="44.43779" lon="5.15666">
        <ele>672.3</ele>
        <time>2022-10-16T08:25:01Z</time>
      </trkpt>
      <trkpt lat="44.43779" lon="5.15667">
        <ele>672.3</ele>
        <time>2022-10-16T08:25:00Z</time>
      </trkpt>
      <trkpt lat="44.43779" lon="5.15668">
        <ele>672.2</ele>
        <time>2022-10-16T08:24:59Z</time>
      </trkpt>
      <trkpt lat="44.43779" lon="5.1567">
        <ele>672</ele>
        <time>2022-10-16T08:24:58Z</time>
      </trkpt>
      <trkpt lat="44.43779" lon="5.15671">
        <ele>671.9</ele>
        <time>2022-10-16T08:24:57Z</time>
      </trkpt>
      <trkpt lat="44.43779" lon="5.15673">
        <ele>671.7</ele>
        <time>2022-10-16T08:24:56Z</time>
      </trkpt>
      <trkpt lat="44.43779" lon="5.15674">
        <ele>671.5</ele>
        <time>2022-10-16T08:24:55Z</time>
      </trkpt>
      <trkpt lat="44.43779" lon="5.15676">
        <ele>671.3</ele>
        <time>2022-10-16T08:24:54Z</time>
      </trkpt>
      <trkpt lat="44.43778" lon="5.15677">
        <ele>671.8</ele>
        <time>2022-10-16T08:24:53Z</time>
      </trkpt>
      <trkpt lat="44.43778" lon="5.15679">
        <ele>671.5</ele>
        <time>2022-10-16T08:24:52Z</time>
      </trkpt>
      <trkpt lat="44.43778" lon="5.15681">
        <ele>671.3</ele>
        <time>2022-10-16T08:24:51Z</time>
      </trkpt>
      <trkpt lat="44.43778" lon="5.15682">
        <ele>671.2</ele>
        <time>2022-10-16T08:24:50Z</time>
      </trkpt>
      <trkpt lat="44.43778" lon="5.15684">
        <ele>671</ele>
        <time>2022-10-16T08:24:49Z</time>
      </trkpt>
      <trkpt lat="44.43778" lon="5.15685">
        <ele>670.9</ele>
        <time>2022-10-16T08:24:48Z</time>
      </trkpt>
      <trkpt lat="44.43777" lon="5.15687">
        <ele>671.2</ele>
        <time>2022-10-16T08:24:47Z</time>
      </trkpt>
      <trkpt lat="44.43777" lon="5.15688">
        <ele>671.1</ele>
        <time>2022-10-16T08:24:46Z</time>
      </trkpt>
      <trkpt lat="44.43777" lon="5.15689">
        <ele>671</ele>
        <time>2022-10-16T08:24:45Z</time>
      </trkpt>
      <trkpt lat="44.43776" lon="5.15691">
        <ele>671.3</ele>
        <time>2022-10-16T08:24:44Z</time>
      </trkpt>
      <trkpt lat="44.43776" lon="5.15692">
        <ele>671.2</ele>
        <time>2022-10-16T08:24:43Z</time>
      </trkpt>
      <trkpt lat="44.43775" lon="5.15694">
        <ele>671.4</ele>
        <time>2022-10-16T08:24:42Z</time>
      </trkpt>
      <trkpt lat="44.43775" lon="5.15695">
        <ele>671.3</ele>
        <time>2022-10-16T08:24:41Z</time>
      </trkpt>
      <trkpt lat="44.43775" lon="5.15696">
        <ele>671.1</ele>
        <time>2022-10-16T08:24:40Z</time>
      </trkpt>
      <trkpt lat="44.43774" lon="5.15698">
        <ele>671.2</ele>
        <time>2022-10-16T08:24:39Z</time>
      </trkpt>
      <trkpt lat="44.43774" lon="5.15699">
        <ele>671</ele>
        <time>2022-10-16T08:24:38Z</time>
      </trkpt>
      <trkpt lat="44.43774" lon="5.157">
        <ele>670.8</ele>
        <time>2022-10-16T08:24:37Z</time>
      </trkpt>
      <trkpt lat="44.43774" lon="5.15702">
        <ele>670.4</ele>
        <time>2022-10-16T08:24:36Z</time>
      </trkpt>
      <trkpt lat="44.43774" lon="5.15703">
        <ele>670.2</ele>
        <time>2022-10-16T08:24:35Z</time>
      </trkpt>
      <trkpt lat="44.43773" lon="5.15704">
        <ele>670.5</ele>
        <time>2022-10-16T08:24:34Z</time>
      </trkpt>
      <trkpt lat="44.43773" lon="5.15705">
        <ele>670.2</ele>
        <time>2022-10-16T08:24:33Z</time>
      </trkpt>
      <trkpt lat="44.43773" lon="5.15707">
        <ele>669.8</ele>
        <time>2022-10-16T08:24:32Z</time>
      </trkpt>
      <trkpt lat="44.43772" lon="5.15708">
        <ele>670.1</ele>
        <time>2022-10-16T08:24:31Z</time>
      </trkpt>
      <trkpt lat="44.43772" lon="5.15709">
        <ele>669.9</ele>
        <time>2022-10-16T08:24:30Z</time>
      </trkpt>
      <trkpt lat="44.43771" lon="5.1571">
        <ele>670.1</ele>
        <time>2022-10-16T08:24:29Z</time>
      </trkpt>
      <trkpt lat="44.43771" lon="5.15711">
        <ele>669.9</ele>
        <time>2022-10-16T08:24:28Z</time>
      </trkpt>
      <trkpt lat="44.4377" lon="5.15712">
        <ele>670.1</ele>
        <time>2022-10-16T08:24:27Z</time>
      </trkpt>
      <trkpt lat="44.43769" lon="5.15712">
        <ele>670.5</ele>
        <time>2022-10-16T08:24:26Z</time>
      </trkpt>
      <trkpt lat="44.43768" lon="5.15713">
        <ele>670.6</ele>
        <time>2022-10-16T08:24:25Z</time>
      </trkpt>
      <trkpt lat="44.43767" lon="5.15714">
        <ele>670.8</ele>
        <time>2022-10-16T08:24:24Z</time>
      </trkpt>
      <trkpt lat="44.43766" lon="5.15715">
        <ele>671</ele>
        <time>2022-10-16T08:24:23Z</time>
      </trkpt>
      <trkpt lat="44.43765" lon="5.15715">
        <ele>671.4</ele>
        <time>2022-10-16T08:24:22Z</time>
      </trkpt>
      <trkpt lat="44.43764" lon="5.15716">
        <ele>671.5</ele>
        <time>2022-10-16T08:24:21Z</time>
      </trkpt>
      <trkpt lat="44.43763" lon="5.15717">
        <ele>671.7</ele>
        <time>2022-10-16T08:24:20Z</time>
      </trkpt>
      <trkpt lat="44.43762" lon="5.15717">
        <ele>672</ele>
        <time>2022-10-16T08:24:19Z</time>
      </trkpt>
      <trkpt lat="44.43761" lon="5.15718">
        <ele>672.2</ele>
        <time>2022-10-16T08:24:18Z</time>
      </trkpt>
      <trkpt lat="44.4376" lon="5.15718">
        <ele>672.5</ele>
        <time>2022-10-16T08:24:17Z</time>
      </trkpt>
      <trkpt lat="44.43759" lon="5.15718">
        <ele>672.9</ele>
        <time>2022-10-16T08:24:16Z</time>
      </trkpt>
      <trkpt lat="44.43758" lon="5.15718">
        <ele>673.3</ele>
        <time>2022-10-16T08:24:15Z</time>
      </trkpt>
      <trkpt lat="44.43757" lon="5.15718">
        <ele>673.7</ele>
        <time>2022-10-16T08:24:14Z</time>
      </trkpt>
      <trkpt lat="44.43756" lon="5.15718">
        <ele>674.1</ele>
        <time>2022-10-16T08:24:13Z</time>
      </trkpt>
      <trkpt lat="44.43755" lon="5.15718">
        <ele>674.5</ele>
        <time>2022-10-16T08:24:12Z</time>
      </trkpt>
      <trkpt lat="44.43754" lon="5.15718">
        <ele>674.8</ele>
        <time>2022-10-16T08:24:11Z</time>
      </trkpt>
      <trkpt lat="44.43753" lon="5.15718">
        <ele>675.2</ele>
        <time>2022-10-16T08:24:10Z</time>
      </trkpt>
      <trkpt lat="44.43752" lon="5.15718">
        <ele>675.6</ele>
        <time>2022-10-16T08:24:09Z</time>
      </trkpt>
      <trkpt lat="44.43751" lon="5.15718">
        <ele>676</ele>
        <time>2022-10-16T08:24:08Z</time>
      </trkpt>
      <trkpt lat="44.4375" lon="5.15718">
        <ele>676.4</ele>
        <time>2022-10-16T08:24:07Z</time>
      </trkpt>
      <trkpt lat="44.43749" lon="5.15718">
        <ele>676.5</ele>
        <time>2022-10-16T08:24:06Z</time>
      </trkpt>
      <trkpt lat="44.43748" lon="5.15718">
        <ele>676.6</ele>
        <time>2022-10-16T08:24:05Z</time>
      </trkpt>
      <trkpt lat="44.43747" lon="5.15717">
        <ele>677</ele>
        <time>2022-10-16T08:24:04Z</time>
      </trkpt>
      <trkpt lat="44.43746" lon="5.15717">
        <ele>677.1</ele>
        <time>2022-10-16T08:24:03Z</time>
      </trkpt>
      <trkpt lat="44.43745" lon="5.15717">
        <ele>677.2</ele>
        <time>2022-10-16T08:24:02Z</time>
      </trkpt>
      <trkpt lat="44.43744" lon="5.15717">
        <ele>677.3</ele>
        <time>2022-10-16T08:24:01Z</time>
      </trkpt>
      <trkpt lat="44.43743" lon="5.15716">
        <ele>677.7</ele>
        <time>2022-10-16T08:24:00Z</time>
      </trkpt>
      <trkpt lat="44.43742" lon="5.15716">
        <ele>677.9</ele>
        <time>2022-10-16T08:23:59Z</time>
      </trkpt>
      <trkpt lat="44.43741" lon="5.15716">
        <ele>678</ele>
        <time>2022-10-16T08:23:58Z</time>
      </trkpt>
      <trkpt lat="44.4374" lon="5.15716">
        <ele>678.1</ele>
        <time>2022-10-16T08:23:57Z</time>
      </trkpt>
      <trkpt lat="44.43739" lon="5.15716">
        <ele>678.2</ele>
        <time>2022-10-16T08:23:56Z</time>
      </trkpt>
      <trkpt lat="44.43738" lon="5.15716">
        <ele>678.3</ele>
        <time>2022-10-16T08:23:55Z</time>
      </trkpt>
      <trkpt lat="44.43736" lon="5.15716">
        <ele>678.5</ele>
        <time>2022-10-16T08:23:54Z</time>
      </trkpt>
      <trkpt lat="44.43735" lon="5.15715">
        <ele>679</ele>
        <time>2022-10-16T08:23:53Z</time>
      </trkpt>
      <trkpt lat="44.43734" lon="5.15715">
        <ele>679.1</ele>
        <time>2022-10-16T08:23:52Z</time>
      </trkpt>
      <trkpt lat="44.43733" lon="5.15715">
        <ele>679.2</ele>
        <time>2022-10-16T08:23:51Z</time>
      </trkpt>
      <trkpt lat="44.43732" lon="5.15715">
        <ele>679.3</ele>
        <time>2022-10-16T08:23:50Z</time>
      </trkpt>
      <trkpt lat="44.43731" lon="5.15714">
        <ele>679.8</ele>
        <time>2022-10-16T08:23:49Z</time>
      </trkpt>
      <trkpt lat="44.4373" lon="5.15714">
        <ele>680</ele>
        <time>2022-10-16T08:23:48Z</time>
      </trkpt>
      <trkpt lat="44.43729" lon="5.15713">
        <ele>680.5</ele>
        <time>2022-10-16T08:23:47Z</time>
      </trkpt>
      <trkpt lat="44.43728" lon="5.15712">
        <ele>681.1</ele>
        <time>2022-10-16T08:23:46Z</time>
      </trkpt>
      <trkpt lat="44.43727" lon="5.15712">
        <ele>681.2</ele>
        <time>2022-10-16T08:23:45Z</time>
      </trkpt>
      <trkpt lat="44.43726" lon="5.15711">
        <ele>681.8</ele>
        <time>2022-10-16T08:23:44Z</time>
      </trkpt>
      <trkpt lat="44.43725" lon="5.15711">
        <ele>681.9</ele>
        <time>2022-10-16T08:23:43Z</time>
      </trkpt>
      <trkpt lat="44.43724" lon="5.15711">
        <ele>682</ele>
        <time>2022-10-16T08:23:42Z</time>
      </trkpt>
      <trkpt lat="44.43723" lon="5.1571">
        <ele>682.6</ele>
        <time>2022-10-16T08:23:41Z</time>
      </trkpt>
      <trkpt lat="44.43722" lon="5.1571">
        <ele>682.7</ele>
        <time>2022-10-16T08:23:40Z</time>
      </trkpt>
      <trkpt lat="44.43721" lon="5.1571">
        <ele>682.7</ele>
        <time>2022-10-16T08:23:39Z</time>
      </trkpt>
      <trkpt lat="44.4372" lon="5.15709">
        <ele>683.1</ele>
        <time>2022-10-16T08:23:38Z</time>
      </trkpt>
      <trkpt lat="44.43719" lon="5.15709">
        <ele>683.1</ele>
        <time>2022-10-16T08:23:37Z</time>
      </trkpt>
      <trkpt lat="44.43717" lon="5.15709">
        <ele>683.1</ele>
        <time>2022-10-16T08:23:36Z</time>
      </trkpt>
      <trkpt lat="44.43716" lon="5.15709">
        <ele>683.1</ele>
        <time>2022-10-16T08:23:35Z</time>
      </trkpt>
      <trkpt lat="44.43715" lon="5.15709">
        <ele>683.1</ele>
        <time>2022-10-16T08:23:34Z</time>
      </trkpt>
      <trkpt lat="44.43714" lon="5.15709">
        <ele>683</ele>
        <time>2022-10-16T08:23:33Z</time>
      </trkpt>
      <trkpt lat="44.43712" lon="5.15709">
        <ele>683</ele>
        <time>2022-10-16T08:23:32Z</time>
      </trkpt>
      <trkpt lat="44.43711" lon="5.15709">
        <ele>683</ele>
        <time>2022-10-16T08:23:31Z</time>
      </trkpt>
      <trkpt lat="44.4371" lon="5.15709">
        <ele>683</ele>
        <time>2022-10-16T08:23:30Z</time>
      </trkpt>
      <trkpt lat="44.43709" lon="5.15709">
        <ele>683</ele>
        <time>2022-10-16T08:23:29Z</time>
      </trkpt>
      <trkpt lat="44.43708" lon="5.15709">
        <ele>682.9</ele>
        <time>2022-10-16T08:23:28Z</time>
      </trkpt>
      <trkpt lat="44.43707" lon="5.15709">
        <ele>682.9</ele>
        <time>2022-10-16T08:23:27Z</time>
      </trkpt>
      <trkpt lat="44.43706" lon="5.15709">
        <ele>682.9</ele>
        <time>2022-10-16T08:23:26Z</time>
      </trkpt>
      <trkpt lat="44.43705" lon="5.15708">
        <ele>683.3</ele>
        <time>2022-10-16T08:23:25Z</time>
      </trkpt>
      <trkpt lat="44.43703" lon="5.15708">
        <ele>683.3</ele>
        <time>2022-10-16T08:23:24Z</time>
      </trkpt>
      <trkpt lat="44.43702" lon="5.15708">
        <ele>683.3</ele>
        <time>2022-10-16T08:23:23Z</time>
      </trkpt>
      <trkpt lat="44.43701" lon="5.15708">
        <ele>683.3</ele>
        <time>2022-10-16T08:23:22Z</time>
      </trkpt>
      <trkpt lat="44.437" lon="5.15708">
        <ele>683.2</ele>
        <time>2022-10-16T08:23:21Z</time>
      </trkpt>
      <trkpt lat="44.43699" lon="5.15707">
        <ele>683.7</ele>
        <time>2022-10-16T08:23:20Z</time>
      </trkpt>
      <trkpt lat="44.43698" lon="5.15707">
        <ele>683.6</ele>
        <time>2022-10-16T08:23:19Z</time>
      </trkpt>
      <trkpt lat="44.43697" lon="5.15707">
        <ele>683.6</ele>
        <time>2022-10-16T08:23:18Z</time>
      </trkpt>
      <trkpt lat="44.43696" lon="5.15707">
        <ele>683.6</ele>
        <time>2022-10-16T08:23:17Z</time>
      </trkpt>
      <trkpt lat="44.43694" lon="5.15707">
        <ele>683.5</ele>
        <time>2022-10-16T08:23:16Z</time>
      </trkpt>
      <trkpt lat="44.43693" lon="5.15706">
        <ele>683.9</ele>
        <time>2022-10-16T08:23:15Z</time>
      </trkpt>
      <trkpt lat="44.43692" lon="5.15706">
        <ele>683.8</ele>
        <time>2022-10-16T08:23:14Z</time>
      </trkpt>
      <trkpt lat="44.43691" lon="5.15706">
        <ele>683.7</ele>
        <time>2022-10-16T08:23:13Z</time>
      </trkpt>
      <trkpt lat="44.4369" lon="5.15706">
        <ele>683.6</ele>
        <time>2022-10-16T08:23:12Z</time>
      </trkpt>
      <trkpt lat="44.43689" lon="5.15706">
        <ele>683.5</ele>
        <time>2022-10-16T08:23:11Z</time>
      </trkpt>
      <trkpt lat="44.43688" lon="5.15705">
        <ele>683.8</ele>
        <time>2022-10-16T08:23:10Z</time>
      </trkpt>
      <trkpt lat="44.43687" lon="5.15705">
        <ele>683.7</ele>
        <time>2022-10-16T08:23:09Z</time>
      </trkpt>
      <trkpt lat="44.43686" lon="5.15705">
        <ele>683.6</ele>
        <time>2022-10-16T08:23:08Z</time>
      </trkpt>
      <trkpt lat="44.43685" lon="5.15704">
        <ele>684</ele>
        <time>2022-10-16T08:23:07Z</time>
      </trkpt>
      <trkpt lat="44.43684" lon="5.15704">
        <ele>683.9</ele>
        <time>2022-10-16T08:23:06Z</time>
      </trkpt>
      <trkpt lat="44.43683" lon="5.15704">
        <ele>683.8</ele>
        <time>2022-10-16T08:23:05Z</time>
      </trkpt>
      <trkpt lat="44.43682" lon="5.15704">
        <ele>683.7</ele>
        <time>2022-10-16T08:23:04Z</time>
      </trkpt>
      <trkpt lat="44.43681" lon="5.15703">
        <ele>684</ele>
        <time>2022-10-16T08:23:03Z</time>
      </trkpt>
      <trkpt lat="44.4368" lon="5.15703">
        <ele>683.9</ele>
        <time>2022-10-16T08:23:02Z</time>
      </trkpt>
      <trkpt lat="44.43679" lon="5.15703">
        <ele>683.8</ele>
        <time>2022-10-16T08:23:01Z</time>
      </trkpt>
      <trkpt lat="44.43678" lon="5.15702">
        <ele>684.1</ele>
        <time>2022-10-16T08:23:00Z</time>
      </trkpt>
      <trkpt lat="44.43677" lon="5.15702">
        <ele>684</ele>
        <time>2022-10-16T08:22:59Z</time>
      </trkpt>
      <trkpt lat="44.43676" lon="5.15701">
        <ele>684.3</ele>
        <time>2022-10-16T08:22:58Z</time>
      </trkpt>
      <trkpt lat="44.43675" lon="5.157">
        <ele>684.6</ele>
        <time>2022-10-16T08:22:57Z</time>
      </trkpt>
      <trkpt lat="44.43674" lon="5.157">
        <ele>684.5</ele>
        <time>2022-10-16T08:22:56Z</time>
      </trkpt>
      <trkpt lat="44.43673" lon="5.15699">
        <ele>684.8</ele>
        <time>2022-10-16T08:22:55Z</time>
      </trkpt>
      <trkpt lat="44.43672" lon="5.15698">
        <ele>685.1</ele>
        <time>2022-10-16T08:22:54Z</time>
      </trkpt>
      <trkpt lat="44.43671" lon="5.15698">
        <ele>685</ele>
        <time>2022-10-16T08:22:53Z</time>
      </trkpt>
      <trkpt lat="44.43669" lon="5.15697">
        <ele>685.2</ele>
        <time>2022-10-16T08:22:52Z</time>
      </trkpt>
      <trkpt lat="44.43668" lon="5.15697">
        <ele>685.1</ele>
        <time>2022-10-16T08:22:51Z</time>
      </trkpt>
      <trkpt lat="44.43667" lon="5.15696">
        <ele>685.4</ele>
        <time>2022-10-16T08:22:50Z</time>
      </trkpt>
      <trkpt lat="44.43665" lon="5.15696">
        <ele>685.5</ele>
        <time>2022-10-16T08:22:49Z</time>
      </trkpt>
      <trkpt lat="44.43664" lon="5.15696">
        <ele>685.6</ele>
        <time>2022-10-16T08:22:48Z</time>
      </trkpt>
      <trkpt lat="44.43663" lon="5.15696">
        <ele>685.6</ele>
        <time>2022-10-16T08:22:47Z</time>
      </trkpt>
      <trkpt lat="44.43662" lon="5.15696">
        <ele>685.7</ele>
        <time>2022-10-16T08:22:46Z</time>
      </trkpt>
      <trkpt lat="44.4366" lon="5.15697">
        <ele>685.5</ele>
        <time>2022-10-16T08:22:45Z</time>
      </trkpt>
      <trkpt lat="44.43659" lon="5.15697">
        <ele>685.5</ele>
        <time>2022-10-16T08:22:44Z</time>
      </trkpt>
      <trkpt lat="44.43658" lon="5.15698">
        <ele>685.2</ele>
        <time>2022-10-16T08:22:42Z</time>
      </trkpt>
      <trkpt lat="44.43657" lon="5.15699">
        <ele>684.9</ele>
        <time>2022-10-16T08:22:41Z</time>
      </trkpt>
      <trkpt lat="44.43656" lon="5.15699">
        <ele>685</ele>
        <time>2022-10-16T08:22:40Z</time>
      </trkpt>
      <trkpt lat="44.43655" lon="5.15699">
        <ele>685</ele>
        <time>2022-10-16T08:22:39Z</time>
      </trkpt>
      <trkpt lat="44.43654" lon="5.15699">
        <ele>685.1</ele>
        <time>2022-10-16T08:22:38Z</time>
      </trkpt>
      <trkpt lat="44.43653" lon="5.15699">
        <ele>685.2</ele>
        <time>2022-10-16T08:22:37Z</time>
      </trkpt>
      <trkpt lat="44.43652" lon="5.15699">
        <ele>685.3</ele>
        <time>2022-10-16T08:22:36Z</time>
      </trkpt>
      <trkpt lat="44.43651" lon="5.157">
        <ele>684.9</ele>
        <time>2022-10-16T08:22:35Z</time>
      </trkpt>
      <trkpt lat="44.43649" lon="5.157">
        <ele>685.1</ele>
        <time>2022-10-16T08:22:34Z</time>
      </trkpt>
      <trkpt lat="44.43648" lon="5.157">
        <ele>685.1</ele>
        <time>2022-10-16T08:22:33Z</time>
      </trkpt>
      <trkpt lat="44.43647" lon="5.15701">
        <ele>684.8</ele>
        <time>2022-10-16T08:22:32Z</time>
      </trkpt>
      <trkpt lat="44.43646" lon="5.15701">
        <ele>684.9</ele>
        <time>2022-10-16T08:22:31Z</time>
      </trkpt>
      <trkpt lat="44.43645" lon="5.15701">
        <ele>685</ele>
        <time>2022-10-16T08:22:30Z</time>
      </trkpt>
      <trkpt lat="44.43644" lon="5.15701">
        <ele>685</ele>
        <time>2022-10-16T08:22:29Z</time>
      </trkpt>
      <trkpt lat="44.43643" lon="5.15701">
        <ele>685.1</ele>
        <time>2022-10-16T08:22:28Z</time>
      </trkpt>
      <trkpt lat="44.43642" lon="5.15701">
        <ele>685.2</ele>
        <time>2022-10-16T08:22:27Z</time>
      </trkpt>
      <trkpt lat="44.43641" lon="5.15701">
        <ele>685.3</ele>
        <time>2022-10-16T08:22:26Z</time>
      </trkpt>
      <trkpt lat="44.4364" lon="5.15701">
        <ele>685.3</ele>
        <time>2022-10-16T08:22:25Z</time>
      </trkpt>
      <trkpt lat="44.43639" lon="5.15701">
        <ele>685.4</ele>
        <time>2022-10-16T08:22:24Z</time>
      </trkpt>
      <trkpt lat="44.43638" lon="5.15701">
        <ele>685.5</ele>
        <time>2022-10-16T08:22:23Z</time>
      </trkpt>
      <trkpt lat="44.43637" lon="5.15702">
        <ele>685.1</ele>
        <time>2022-10-16T08:22:22Z</time>
      </trkpt>
      <trkpt lat="44.43636" lon="5.15702">
        <ele>685.2</ele>
        <time>2022-10-16T08:22:21Z</time>
      </trkpt>
      <trkpt lat="44.43634" lon="5.15702">
        <ele>685.4</ele>
        <time>2022-10-16T08:22:20Z</time>
      </trkpt>
      <trkpt lat="44.43633" lon="5.15702">
        <ele>685.4</ele>
        <time>2022-10-16T08:22:19Z</time>
      </trkpt>
      <trkpt lat="44.43632" lon="5.15702">
        <ele>685.5</ele>
        <time>2022-10-16T08:22:18Z</time>
      </trkpt>
      <trkpt lat="44.43631" lon="5.15702">
        <ele>685.6</ele>
        <time>2022-10-16T08:22:17Z</time>
      </trkpt>
      <trkpt lat="44.43629" lon="5.15702">
        <ele>685.7</ele>
        <time>2022-10-16T08:22:16Z</time>
      </trkpt>
      <trkpt lat="44.43628" lon="5.15702">
        <ele>685.8</ele>
        <time>2022-10-16T08:22:15Z</time>
      </trkpt>
      <trkpt lat="44.43627" lon="5.15702">
        <ele>685.9</ele>
        <time>2022-10-16T08:22:14Z</time>
      </trkpt>
      <trkpt lat="44.43625" lon="5.15702">
        <ele>686</ele>
        <time>2022-10-16T08:22:13Z</time>
      </trkpt>
      <trkpt lat="44.43624" lon="5.15702">
        <ele>686.1</ele>
        <time>2022-10-16T08:22:12Z</time>
      </trkpt>
      <trkpt lat="44.43623" lon="5.15702">
        <ele>686.2</ele>
        <time>2022-10-16T08:22:11Z</time>
      </trkpt>
      <trkpt lat="44.43622" lon="5.15703">
        <ele>685.8</ele>
        <time>2022-10-16T08:22:10Z</time>
      </trkpt>
      <trkpt lat="44.4362" lon="5.15703">
        <ele>686</ele>
        <time>2022-10-16T08:22:09Z</time>
      </trkpt>
      <trkpt lat="44.43619" lon="5.15703">
        <ele>686</ele>
        <time>2022-10-16T08:22:08Z</time>
      </trkpt>
      <trkpt lat="44.43618" lon="5.15703">
        <ele>686.1</ele>
        <time>2022-10-16T08:22:07Z</time>
      </trkpt>
      <trkpt lat="44.43617" lon="5.15703">
        <ele>686.2</ele>
        <time>2022-10-16T08:22:06Z</time>
      </trkpt>
      <trkpt lat="44.43616" lon="5.15703">
        <ele>686.3</ele>
        <time>2022-10-16T08:22:05Z</time>
      </trkpt>
      <trkpt lat="44.43615" lon="5.15703">
        <ele>686.3</ele>
        <time>2022-10-16T08:22:04Z</time>
      </trkpt>
      <trkpt lat="44.43614" lon="5.15703">
        <ele>686.4</ele>
        <time>2022-10-16T08:22:03Z</time>
      </trkpt>
      <trkpt lat="44.43613" lon="5.15703">
        <ele>686.5</ele>
        <time>2022-10-16T08:22:02Z</time>
      </trkpt>
      <trkpt lat="44.43611" lon="5.15703">
        <ele>686.6</ele>
        <time>2022-10-16T08:22:01Z</time>
      </trkpt>
      <trkpt lat="44.4361" lon="5.15703">
        <ele>686.7</ele>
        <time>2022-10-16T08:22:00Z</time>
      </trkpt>
      <trkpt lat="44.43609" lon="5.15703">
        <ele>686.7</ele>
        <time>2022-10-16T08:21:59Z</time>
      </trkpt>
      <trkpt lat="44.43608" lon="5.15703">
        <ele>686.7</ele>
        <time>2022-10-16T08:21:58Z</time>
      </trkpt>
      <trkpt lat="44.43607" lon="5.15703">
        <ele>686.8</ele>
        <time>2022-10-16T08:21:57Z</time>
      </trkpt>
      <trkpt lat="44.43606" lon="5.15703">
        <ele>686.8</ele>
        <time>2022-10-16T08:21:56Z</time>
      </trkpt>
      <trkpt lat="44.43605" lon="5.15703">
        <ele>686.8</ele>
        <time>2022-10-16T08:21:55Z</time>
      </trkpt>
      <trkpt lat="44.43604" lon="5.15703">
        <ele>686.9</ele>
        <time>2022-10-16T08:21:54Z</time>
      </trkpt>
      <trkpt lat="44.43602" lon="5.15703">
        <ele>686.9</ele>
        <time>2022-10-16T08:21:53Z</time>
      </trkpt>
      <trkpt lat="44.43601" lon="5.15703">
        <ele>687</ele>
        <time>2022-10-16T08:21:52Z</time>
      </trkpt>
      <trkpt lat="44.436" lon="5.15704">
        <ele>686.6</ele>
        <time>2022-10-16T08:21:51Z</time>
      </trkpt>
      <trkpt lat="44.43599" lon="5.15704">
        <ele>686.7</ele>
        <time>2022-10-16T08:21:50Z</time>
      </trkpt>
      <trkpt lat="44.43598" lon="5.15704">
        <ele>686.7</ele>
        <time>2022-10-16T08:21:49Z</time>
      </trkpt>
      <trkpt lat="44.43596" lon="5.15705">
        <ele>686.4</ele>
        <time>2022-10-16T08:21:48Z</time>
      </trkpt>
      <trkpt lat="44.43595" lon="5.15704">
        <ele>686.8</ele>
        <time>2022-10-16T08:21:47Z</time>
      </trkpt>
      <trkpt lat="44.43594" lon="5.15704">
        <ele>686.8</ele>
        <time>2022-10-16T08:21:46Z</time>
      </trkpt>
      <trkpt lat="44.43593" lon="5.15704">
        <ele>686.9</ele>
        <time>2022-10-16T08:21:45Z</time>
      </trkpt>
      <trkpt lat="44.43592" lon="5.15704">
        <ele>686.9</ele>
        <time>2022-10-16T08:21:44Z</time>
      </trkpt>
      <trkpt lat="44.43591" lon="5.15703">
        <ele>687.3</ele>
        <time>2022-10-16T08:21:43Z</time>
      </trkpt>
      <trkpt lat="44.4359" lon="5.15703">
        <ele>687.4</ele>
        <time>2022-10-16T08:21:42Z</time>
      </trkpt>
      <trkpt lat="44.43589" lon="5.15703">
        <ele>687.4</ele>
        <time>2022-10-16T08:21:41Z</time>
      </trkpt>
      <trkpt lat="44.43588" lon="5.15703">
        <ele>687.4</ele>
        <time>2022-10-16T08:21:40Z</time>
      </trkpt>
      <trkpt lat="44.43587" lon="5.15703">
        <ele>687.5</ele>
        <time>2022-10-16T08:21:39Z</time>
      </trkpt>
      <trkpt lat="44.43585" lon="5.15703">
        <ele>687.6</ele>
        <time>2022-10-16T08:21:38Z</time>
      </trkpt>
      <trkpt lat="44.43584" lon="5.15704">
        <ele>687.2</ele>
        <time>2022-10-16T08:21:37Z</time>
      </trkpt>
      <trkpt lat="44.43583" lon="5.15704">
        <ele>687.2</ele>
        <time>2022-10-16T08:21:36Z</time>
      </trkpt>
      <trkpt lat="44.43582" lon="5.15704">
        <ele>687.3</ele>
        <time>2022-10-16T08:21:35Z</time>
      </trkpt>
      <trkpt lat="44.43581" lon="5.15704">
        <ele>687.3</ele>
        <time>2022-10-16T08:21:34Z</time>
      </trkpt>
      <trkpt lat="44.4358" lon="5.15704">
        <ele>687.4</ele>
        <time>2022-10-16T08:21:33Z</time>
      </trkpt>
      <trkpt lat="44.43579" lon="5.15703">
        <ele>687.8</ele>
        <time>2022-10-16T08:21:32Z</time>
      </trkpt>
      <trkpt lat="44.43578" lon="5.15703">
        <ele>687.9</ele>
        <time>2022-10-16T08:21:31Z</time>
      </trkpt>
      <trkpt lat="44.43576" lon="5.15703">
        <ele>688</ele>
        <time>2022-10-16T08:21:30Z</time>
      </trkpt>
      <trkpt lat="44.43575" lon="5.15702">
        <ele>688.4</ele>
        <time>2022-10-16T08:21:29Z</time>
      </trkpt>
      <trkpt lat="44.43574" lon="5.15702">
        <ele>688.4</ele>
        <time>2022-10-16T08:21:28Z</time>
      </trkpt>
      <trkpt lat="44.43573" lon="5.15701">
        <ele>688.9</ele>
        <time>2022-10-16T08:21:26Z</time>
      </trkpt>
      <trkpt lat="44.43572" lon="5.15701">
        <ele>688.9</ele>
        <time>2022-10-16T08:21:25Z</time>
      </trkpt>
      <trkpt lat="44.4357" lon="5.15701">
        <ele>689</ele>
        <time>2022-10-16T08:21:24Z</time>
      </trkpt>
      <trkpt lat="44.43569" lon="5.15701">
        <ele>689</ele>
        <time>2022-10-16T08:21:23Z</time>
      </trkpt>
      <trkpt lat="44.43568" lon="5.15701">
        <ele>689.1</ele>
        <time>2022-10-16T08:21:22Z</time>
      </trkpt>
      <trkpt lat="44.43567" lon="5.15702">
        <ele>688.8</ele>
        <time>2022-10-16T08:21:21Z</time>
      </trkpt>
      <trkpt lat="44.43566" lon="5.15702">
        <ele>688.8</ele>
        <time>2022-10-16T08:21:20Z</time>
      </trkpt>
      <trkpt lat="44.43565" lon="5.15703">
        <ele>688.5</ele>
        <time>2022-10-16T08:21:18Z</time>
      </trkpt>
      <trkpt lat="44.43564" lon="5.15703">
        <ele>688.5</ele>
        <time>2022-10-16T08:21:17Z</time>
      </trkpt>
      <trkpt lat="44.43563" lon="5.15703">
        <ele>688.6</ele>
        <time>2022-10-16T08:21:16Z</time>
      </trkpt>
      <trkpt lat="44.43561" lon="5.15703">
        <ele>688.7</ele>
        <time>2022-10-16T08:21:15Z</time>
      </trkpt>
      <trkpt lat="44.4356" lon="5.15703">
        <ele>688.7</ele>
        <time>2022-10-16T08:21:14Z</time>
      </trkpt>
      <trkpt lat="44.43559" lon="5.15703">
        <ele>688.8</ele>
        <time>2022-10-16T08:21:13Z</time>
      </trkpt>
      <trkpt lat="44.43558" lon="5.15702">
        <ele>689.2</ele>
        <time>2022-10-16T08:21:12Z</time>
      </trkpt>
      <trkpt lat="44.43557" lon="5.15702">
        <ele>689.2</ele>
        <time>2022-10-16T08:21:11Z</time>
      </trkpt>
      <trkpt lat="44.43555" lon="5.15702">
        <ele>689.3</ele>
        <time>2022-10-16T08:21:10Z</time>
      </trkpt>
      <trkpt lat="44.43554" lon="5.15702">
        <ele>689.3</ele>
        <time>2022-10-16T08:21:09Z</time>
      </trkpt>
      <trkpt lat="44.43553" lon="5.15702">
        <ele>689.3</ele>
        <time>2022-10-16T08:21:08Z</time>
      </trkpt>
      <trkpt lat="44.43552" lon="5.15702">
        <ele>689.2</ele>
        <time>2022-10-16T08:21:07Z</time>
      </trkpt>
      <trkpt lat="44.43551" lon="5.15702">
        <ele>689.2</ele>
        <time>2022-10-16T08:21:06Z</time>
      </trkpt>
      <trkpt lat="44.4355" lon="5.15702">
        <ele>689.2</ele>
        <time>2022-10-16T08:21:05Z</time>
      </trkpt>
      <trkpt lat="44.43549" lon="5.15702">
        <ele>689.2</ele>
        <time>2022-10-16T08:21:04Z</time>
      </trkpt>
      <trkpt lat="44.43548" lon="5.15702">
        <ele>689.2</ele>
        <time>2022-10-16T08:21:03Z</time>
      </trkpt>
      <trkpt lat="44.43546" lon="5.15702">
        <ele>689.2</ele>
        <time>2022-10-16T08:21:02Z</time>
      </trkpt>
      <trkpt lat="44.43545" lon="5.15701">
        <ele>689.6</ele>
        <time>2022-10-16T08:21:01Z</time>
      </trkpt>
      <trkpt lat="44.43544" lon="5.15701">
        <ele>689.5</ele>
        <time>2022-10-16T08:21:00Z</time>
      </trkpt>
      <trkpt lat="44.43543" lon="5.15701">
        <ele>689.5</ele>
        <time>2022-10-16T08:20:59Z</time>
      </trkpt>
      <trkpt lat="44.43542" lon="5.15701">
        <ele>689.5</ele>
        <time>2022-10-16T08:20:58Z</time>
      </trkpt>
      <trkpt lat="44.43541" lon="5.15701">
        <ele>689.5</ele>
        <time>2022-10-16T08:20:57Z</time>
      </trkpt>
      <trkpt lat="44.4354" lon="5.15701">
        <ele>689.5</ele>
        <time>2022-10-16T08:20:56Z</time>
      </trkpt>
      <trkpt lat="44.43539" lon="5.15701">
        <ele>689.5</ele>
        <time>2022-10-16T08:20:55Z</time>
      </trkpt>
      <trkpt lat="44.43538" lon="5.157">
        <ele>689.9</ele>
        <time>2022-10-16T08:20:54Z</time>
      </trkpt>
      <trkpt lat="44.43537" lon="5.157">
        <ele>689.9</ele>
        <time>2022-10-16T08:20:52Z</time>
      </trkpt>
      <trkpt lat="44.43536" lon="5.15699">
        <ele>690.2</ele>
        <time>2022-10-16T08:20:51Z</time>
      </trkpt>
      <trkpt lat="44.43535" lon="5.15699">
        <ele>690.2</ele>
        <time>2022-10-16T08:20:50Z</time>
      </trkpt>
      <trkpt lat="44.43534" lon="5.15698">
        <ele>690.6</ele>
        <time>2022-10-16T08:20:49Z</time>
      </trkpt>
      <trkpt lat="44.43533" lon="5.15698">
        <ele>690.6</ele>
        <time>2022-10-16T08:20:48Z</time>
      </trkpt>
      <trkpt lat="44.43532" lon="5.15697">
        <ele>691</ele>
        <time>2022-10-16T08:20:47Z</time>
      </trkpt>
      <trkpt lat="44.43531" lon="5.15697">
        <ele>691</ele>
        <time>2022-10-16T08:20:46Z</time>
      </trkpt>
      <trkpt lat="44.4353" lon="5.15697">
        <ele>691</ele>
        <time>2022-10-16T08:20:45Z</time>
      </trkpt>
      <trkpt lat="44.43529" lon="5.15697">
        <ele>691</ele>
        <time>2022-10-16T08:20:44Z</time>
      </trkpt>
      <trkpt lat="44.43528" lon="5.15697">
        <ele>691</ele>
        <time>2022-10-16T08:20:43Z</time>
      </trkpt>
      <trkpt lat="44.43527" lon="5.15698">
        <ele>690.6</ele>
        <time>2022-10-16T08:20:42Z</time>
      </trkpt>
      <trkpt lat="44.43526" lon="5.15698">
        <ele>690.7</ele>
        <time>2022-10-16T08:20:41Z</time>
      </trkpt>
      <trkpt lat="44.43525" lon="5.15698">
        <ele>690.7</ele>
        <time>2022-10-16T08:20:40Z</time>
      </trkpt>
      <trkpt lat="44.43524" lon="5.15698">
        <ele>690.7</ele>
        <time>2022-10-16T08:20:39Z</time>
      </trkpt>
      <trkpt lat="44.43522" lon="5.15698">
        <ele>690.8</ele>
        <time>2022-10-16T08:20:38Z</time>
      </trkpt>
      <trkpt lat="44.43521" lon="5.15698">
        <ele>690.9</ele>
        <time>2022-10-16T08:20:37Z</time>
      </trkpt>
      <trkpt lat="44.4352" lon="5.15698">
        <ele>690.9</ele>
        <time>2022-10-16T08:20:36Z</time>
      </trkpt>
      <trkpt lat="44.43518" lon="5.15698">
        <ele>691</ele>
        <time>2022-10-16T08:20:35Z</time>
      </trkpt>
      <trkpt lat="44.43517" lon="5.15698">
        <ele>691</ele>
        <time>2022-10-16T08:20:34Z</time>
      </trkpt>
      <trkpt lat="44.43516" lon="5.15698">
        <ele>691.1</ele>
        <time>2022-10-16T08:20:33Z</time>
      </trkpt>
      <trkpt lat="44.43514" lon="5.15697">
        <ele>691.5</ele>
        <time>2022-10-16T08:20:32Z</time>
      </trkpt>
      <trkpt lat="44.43513" lon="5.15697">
        <ele>691.6</ele>
        <time>2022-10-16T08:20:31Z</time>
      </trkpt>
      <trkpt lat="44.43512" lon="5.15697">
        <ele>691.6</ele>
        <time>2022-10-16T08:20:30Z</time>
      </trkpt>
      <trkpt lat="44.43511" lon="5.15697">
        <ele>691.6</ele>
        <time>2022-10-16T08:20:29Z</time>
      </trkpt>
      <trkpt lat="44.4351" lon="5.15697">
        <ele>691.7</ele>
        <time>2022-10-16T08:20:28Z</time>
      </trkpt>
      <trkpt lat="44.43509" lon="5.15697">
        <ele>691.7</ele>
        <time>2022-10-16T08:20:27Z</time>
      </trkpt>
      <trkpt lat="44.43508" lon="5.15697">
        <ele>691.8</ele>
        <time>2022-10-16T08:20:26Z</time>
      </trkpt>
      <trkpt lat="44.43507" lon="5.15697">
        <ele>691.8</ele>
        <time>2022-10-16T08:20:24Z</time>
      </trkpt>
      <trkpt lat="44.43506" lon="5.15697">
        <ele>691.8</ele>
        <time>2022-10-16T08:20:23Z</time>
      </trkpt>
      <trkpt lat="44.43505" lon="5.15697">
        <ele>691.9</ele>
        <time>2022-10-16T08:20:22Z</time>
      </trkpt>
      <trkpt lat="44.43504" lon="5.15697">
        <ele>691.9</ele>
        <time>2022-10-16T08:20:21Z</time>
      </trkpt>
      <trkpt lat="44.43502" lon="5.15697">
        <ele>692</ele>
        <time>2022-10-16T08:20:20Z</time>
      </trkpt>
      <trkpt lat="44.43501" lon="5.15697">
        <ele>692</ele>
        <time>2022-10-16T08:20:19Z</time>
      </trkpt>
      <trkpt lat="44.435" lon="5.15697">
        <ele>692.1</ele>
        <time>2022-10-16T08:20:18Z</time>
      </trkpt>
      <trkpt lat="44.43499" lon="5.15698">
        <ele>691.6</ele>
        <time>2022-10-16T08:20:17Z</time>
      </trkpt>
      <trkpt lat="44.43498" lon="5.15698">
        <ele>691.6</ele>
        <time>2022-10-16T08:20:16Z</time>
      </trkpt>
      <trkpt lat="44.43497" lon="5.15698">
        <ele>691.5</ele>
        <time>2022-10-16T08:20:15Z</time>
      </trkpt>
      <trkpt lat="44.43496" lon="5.15698">
        <ele>691.4</ele>
        <time>2022-10-16T08:20:14Z</time>
      </trkpt>
      <trkpt lat="44.43495" lon="5.15698">
        <ele>691.4</ele>
        <time>2022-10-16T08:20:13Z</time>
      </trkpt>
      <trkpt lat="44.43494" lon="5.15697">
        <ele>691.6</ele>
        <time>2022-10-16T08:20:12Z</time>
      </trkpt>
      <trkpt lat="44.43493" lon="5.15697">
        <ele>691.6</ele>
        <time>2022-10-16T08:20:11Z</time>
      </trkpt>
      <trkpt lat="44.43492" lon="5.15697">
        <ele>691.5</ele>
        <time>2022-10-16T08:20:10Z</time>
      </trkpt>
      <trkpt lat="44.43491" lon="5.15696">
        <ele>691.8</ele>
        <time>2022-10-16T08:20:09Z</time>
      </trkpt>
      <trkpt lat="44.4349" lon="5.15696">
        <ele>691.7</ele>
        <time>2022-10-16T08:20:08Z</time>
      </trkpt>
      <trkpt lat="44.43489" lon="5.15696">
        <ele>691.6</ele>
        <time>2022-10-16T08:20:07Z</time>
      </trkpt>
      <trkpt lat="44.43488" lon="5.15696">
        <ele>691.6</ele>
        <time>2022-10-16T08:20:06Z</time>
      </trkpt>
      <trkpt lat="44.43487" lon="5.15695">
        <ele>691.9</ele>
        <time>2022-10-16T08:20:05Z</time>
      </trkpt>
      <trkpt lat="44.43486" lon="5.15695">
        <ele>691.8</ele>
        <time>2022-10-16T08:20:04Z</time>
      </trkpt>
      <trkpt lat="44.43485" lon="5.15694">
        <ele>692.1</ele>
        <time>2022-10-16T08:20:03Z</time>
      </trkpt>
      <trkpt lat="44.43484" lon="5.15694">
        <ele>692</ele>
        <time>2022-10-16T08:20:02Z</time>
      </trkpt>
      <trkpt lat="44.43484" lon="5.15693">
        <ele>692.4</ele>
        <time>2022-10-16T08:20:01Z</time>
      </trkpt>
      <trkpt lat="44.43483" lon="5.15692">
        <ele>692.7</ele>
        <time>2022-10-16T08:20:00Z</time>
      </trkpt>
      <trkpt lat="44.43482" lon="5.15691">
        <ele>693.1</ele>
        <time>2022-10-16T08:19:59Z</time>
      </trkpt>
      <trkpt lat="44.43481" lon="5.15691">
        <ele>693</ele>
        <time>2022-10-16T08:19:58Z</time>
      </trkpt>
      <trkpt lat="44.4348" lon="5.1569">
        <ele>693.3</ele>
        <time>2022-10-16T08:19:57Z</time>
      </trkpt>
      <trkpt lat="44.43479" lon="5.15689">
        <ele>693.6</ele>
        <time>2022-10-16T08:19:56Z</time>
      </trkpt>
      <trkpt lat="44.43478" lon="5.15688">
        <ele>694</ele>
        <time>2022-10-16T08:19:55Z</time>
      </trkpt>
      <trkpt lat="44.43477" lon="5.15687">
        <ele>694.3</ele>
        <time>2022-10-16T08:19:53Z</time>
      </trkpt>
      <trkpt lat="44.43476" lon="5.15686">
        <ele>694.6</ele>
        <time>2022-10-16T08:19:52Z</time>
      </trkpt>
      <trkpt lat="44.43475" lon="5.15686">
        <ele>694.5</ele>
        <time>2022-10-16T08:19:51Z</time>
      </trkpt>
      <trkpt lat="44.43474" lon="5.15686">
        <ele>694.5</ele>
        <time>2022-10-16T08:19:50Z</time>
      </trkpt>
      <trkpt lat="44.43473" lon="5.15686">
        <ele>694.4</ele>
        <time>2022-10-16T08:19:49Z</time>
      </trkpt>
      <trkpt lat="44.43472" lon="5.15687">
        <ele>694</ele>
        <time>2022-10-16T08:19:48Z</time>
      </trkpt>
      <trkpt lat="44.43471" lon="5.15688">
        <ele>693.7</ele>
        <time>2022-10-16T08:19:47Z</time>
      </trkpt>
      <trkpt lat="44.4347" lon="5.15688">
        <ele>693.8</ele>
        <time>2022-10-16T08:19:46Z</time>
      </trkpt>
      <trkpt lat="44.4347" lon="5.15689">
        <ele>693.4</ele>
        <time>2022-10-16T08:19:45Z</time>
      </trkpt>
      <trkpt lat="44.43469" lon="5.1569">
        <ele>693.1</ele>
        <time>2022-10-16T08:19:44Z</time>
      </trkpt>
      <trkpt lat="44.43469" lon="5.15692">
        <ele>692.3</ele>
        <time>2022-10-16T08:19:43Z</time>
      </trkpt>
      <trkpt lat="44.43468" lon="5.15693">
        <ele>692</ele>
        <time>2022-10-16T08:19:42Z</time>
      </trkpt>
      <trkpt lat="44.43467" lon="5.15694">
        <ele>691.7</ele>
        <time>2022-10-16T08:19:41Z</time>
      </trkpt>
      <trkpt lat="44.43467" lon="5.15696">
        <ele>691</ele>
        <time>2022-10-16T08:19:40Z</time>
      </trkpt>
      <trkpt lat="44.43466" lon="5.15697">
        <ele>690.8</ele>
        <time>2022-10-16T08:19:39Z</time>
      </trkpt>
      <trkpt lat="44.43465" lon="5.15698">
        <ele>690.5</ele>
        <time>2022-10-16T08:19:38Z</time>
      </trkpt>
      <trkpt lat="44.43465" lon="5.157">
        <ele>689.8</ele>
        <time>2022-10-16T08:19:37Z</time>
      </trkpt>
      <trkpt lat="44.43464" lon="5.15701">
        <ele>689.5</ele>
        <time>2022-10-16T08:19:36Z</time>
      </trkpt>
      <trkpt lat="44.43463" lon="5.15702">
        <ele>689.3</ele>
        <time>2022-10-16T08:19:35Z</time>
      </trkpt>
      <trkpt lat="44.43462" lon="5.15703">
        <ele>689</ele>
        <time>2022-10-16T08:19:34Z</time>
      </trkpt>
      <trkpt lat="44.43461" lon="5.15704">
        <ele>688.8</ele>
        <time>2022-10-16T08:19:33Z</time>
      </trkpt>
      <trkpt lat="44.4346" lon="5.15704">
        <ele>688.9</ele>
        <time>2022-10-16T08:19:32Z</time>
      </trkpt>
      <trkpt lat="44.43459" lon="5.15705">
        <ele>688.6</ele>
        <time>2022-10-16T08:19:31Z</time>
      </trkpt>
      <trkpt lat="44.43458" lon="5.15705">
        <ele>688.7</ele>
        <time>2022-10-16T08:19:30Z</time>
      </trkpt>
      <trkpt lat="44.43457" lon="5.15705">
        <ele>688.8</ele>
        <time>2022-10-16T08:19:29Z</time>
      </trkpt>
      <trkpt lat="44.43456" lon="5.15705">
        <ele>689</ele>
        <time>2022-10-16T08:19:28Z</time>
      </trkpt>
      <trkpt lat="44.43455" lon="5.15705">
        <ele>689.1</ele>
        <time>2022-10-16T08:19:27Z</time>
      </trkpt>
      <trkpt lat="44.43454" lon="5.15705">
        <ele>689.2</ele>
        <time>2022-10-16T08:19:26Z</time>
      </trkpt>
      <trkpt lat="44.43453" lon="5.15704">
        <ele>689.6</ele>
        <time>2022-10-16T08:19:25Z</time>
      </trkpt>
      <trkpt lat="44.43452" lon="5.15704">
        <ele>689.7</ele>
        <time>2022-10-16T08:19:24Z</time>
      </trkpt>
      <trkpt lat="44.43451" lon="5.15704">
        <ele>689.9</ele>
        <time>2022-10-16T08:19:23Z</time>
      </trkpt>
      <trkpt lat="44.4345" lon="5.15703">
        <ele>690.3</ele>
        <time>2022-10-16T08:19:22Z</time>
      </trkpt>
      <trkpt lat="44.43448" lon="5.15703">
        <ele>690.5</ele>
        <time>2022-10-16T08:19:21Z</time>
      </trkpt>
      <trkpt lat="44.43447" lon="5.15703">
        <ele>690.6</ele>
        <time>2022-10-16T08:19:20Z</time>
      </trkpt>
      <trkpt lat="44.43446" lon="5.15703">
        <ele>690.8</ele>
        <time>2022-10-16T08:19:19Z</time>
      </trkpt>
      <trkpt lat="44.43445" lon="5.15703">
        <ele>690.9</ele>
        <time>2022-10-16T08:19:18Z</time>
      </trkpt>
      <trkpt lat="44.43444" lon="5.15703">
        <ele>690.9</ele>
        <time>2022-10-16T08:19:17Z</time>
      </trkpt>
      <trkpt lat="44.43443" lon="5.15703">
        <ele>691</ele>
        <time>2022-10-16T08:19:16Z</time>
      </trkpt>
      <trkpt lat="44.43442" lon="5.15703">
        <ele>691</ele>
        <time>2022-10-16T08:19:15Z</time>
      </trkpt>
      <trkpt lat="44.43441" lon="5.15703">
        <ele>691</ele>
        <time>2022-10-16T08:19:14Z</time>
      </trkpt>
      <trkpt lat="44.4344" lon="5.15703">
        <ele>691</ele>
        <time>2022-10-16T08:19:13Z</time>
      </trkpt>
      <trkpt lat="44.43439" lon="5.15703">
        <ele>691.1</ele>
        <time>2022-10-16T08:19:12Z</time>
      </trkpt>
      <trkpt lat="44.43438" lon="5.15703">
        <ele>691.1</ele>
        <time>2022-10-16T08:19:11Z</time>
      </trkpt>
      <trkpt lat="44.43437" lon="5.15703">
        <ele>691.1</ele>
        <time>2022-10-16T08:19:10Z</time>
      </trkpt>
      <trkpt lat="44.43437" lon="5.15702">
        <ele>691.5</ele>
        <time>2022-10-16T08:19:09Z</time>
      </trkpt>
      <trkpt lat="44.43435" lon="5.15702">
        <ele>691.5</ele>
        <time>2022-10-16T08:19:08Z</time>
      </trkpt>
      <trkpt lat="44.43434" lon="5.15702">
        <ele>691.6</ele>
        <time>2022-10-16T08:19:07Z</time>
      </trkpt>
      <trkpt lat="44.43433" lon="5.15701">
        <ele>692</ele>
        <time>2022-10-16T08:19:06Z</time>
      </trkpt>
      <trkpt lat="44.43432" lon="5.15701">
        <ele>692</ele>
        <time>2022-10-16T08:19:05Z</time>
      </trkpt>
      <trkpt lat="44.43431" lon="5.15701">
        <ele>692</ele>
        <time>2022-10-16T08:19:04Z</time>
      </trkpt>
      <trkpt lat="44.4343" lon="5.15701">
        <ele>692</ele>
        <time>2022-10-16T08:19:03Z</time>
      </trkpt>
      <trkpt lat="44.43428" lon="5.15701">
        <ele>692.1</ele>
        <time>2022-10-16T08:19:02Z</time>
      </trkpt>
      <trkpt lat="44.43427" lon="5.15701">
        <ele>692.1</ele>
        <time>2022-10-16T08:19:01Z</time>
      </trkpt>
      <trkpt lat="44.43426" lon="5.15702">
        <ele>691.8</ele>
        <time>2022-10-16T08:19:00Z</time>
      </trkpt>
      <trkpt lat="44.43425" lon="5.15702">
        <ele>691.8</ele>
        <time>2022-10-16T08:18:59Z</time>
      </trkpt>
      <trkpt lat="44.43424" lon="5.15703">
        <ele>691.4</ele>
        <time>2022-10-16T08:18:58Z</time>
      </trkpt>
      <trkpt lat="44.43423" lon="5.15703">
        <ele>691.5</ele>
        <time>2022-10-16T08:18:57Z</time>
      </trkpt>
      <trkpt lat="44.43422" lon="5.15703">
        <ele>691.5</ele>
        <time>2022-10-16T08:18:56Z</time>
      </trkpt>
      <trkpt lat="44.43421" lon="5.15703">
        <ele>691.5</ele>
        <time>2022-10-16T08:18:55Z</time>
      </trkpt>
      <trkpt lat="44.4342" lon="5.15704">
        <ele>691.1</ele>
        <time>2022-10-16T08:18:54Z</time>
      </trkpt>
      <trkpt lat="44.43419" lon="5.15704">
        <ele>691.2</ele>
        <time>2022-10-16T08:18:53Z</time>
      </trkpt>
      <trkpt lat="44.43418" lon="5.15704">
        <ele>691.2</ele>
        <time>2022-10-16T08:18:52Z</time>
      </trkpt>
      <trkpt lat="44.43417" lon="5.15705">
        <ele>690.8</ele>
        <time>2022-10-16T08:18:51Z</time>
      </trkpt>
      <trkpt lat="44.43416" lon="5.15705">
        <ele>690.9</ele>
        <time>2022-10-16T08:18:50Z</time>
      </trkpt>
      <trkpt lat="44.43415" lon="5.15706">
        <ele>690.5</ele>
        <time>2022-10-16T08:18:49Z</time>
      </trkpt>
      <trkpt lat="44.43414" lon="5.15706">
        <ele>690.6</ele>
        <time>2022-10-16T08:18:48Z</time>
      </trkpt>
      <trkpt lat="44.43413" lon="5.15707">
        <ele>690.2</ele>
        <time>2022-10-16T08:18:47Z</time>
      </trkpt>
      <trkpt lat="44.43412" lon="5.15707">
        <ele>690.3</ele>
        <time>2022-10-16T08:18:46Z</time>
      </trkpt>
      <trkpt lat="44.43411" lon="5.15707">
        <ele>690.3</ele>
        <time>2022-10-16T08:18:45Z</time>
      </trkpt>
      <trkpt lat="44.4341" lon="5.15707">
        <ele>690.4</ele>
        <time>2022-10-16T08:18:44Z</time>
      </trkpt>
      <trkpt lat="44.43409" lon="5.15708">
        <ele>690</ele>
        <time>2022-10-16T08:18:43Z</time>
      </trkpt>
      <trkpt lat="44.43408" lon="5.15708">
        <ele>690.1</ele>
        <time>2022-10-16T08:18:41Z</time>
      </trkpt>
      <trkpt lat="44.43407" lon="5.15708">
        <ele>690.1</ele>
        <time>2022-10-16T08:18:40Z</time>
      </trkpt>
      <trkpt lat="44.43406" lon="5.15708">
        <ele>690.2</ele>
        <time>2022-10-16T08:18:39Z</time>
      </trkpt>
      <trkpt lat="44.43405" lon="5.15708">
        <ele>690.3</ele>
        <time>2022-10-16T08:18:38Z</time>
      </trkpt>
      <trkpt lat="44.43404" lon="5.15708">
        <ele>690.3</ele>
        <time>2022-10-16T08:18:37Z</time>
      </trkpt>
      <trkpt lat="44.43403" lon="5.15708">
        <ele>690.4</ele>
        <time>2022-10-16T08:18:36Z</time>
      </trkpt>
      <trkpt lat="44.43402" lon="5.15708">
        <ele>690.4</ele>
        <time>2022-10-16T08:18:35Z</time>
      </trkpt>
      <trkpt lat="44.43401" lon="5.15708">
        <ele>690.5</ele>
        <time>2022-10-16T08:18:34Z</time>
      </trkpt>
      <trkpt lat="44.434" lon="5.15708">
        <ele>690.5</ele>
        <time>2022-10-16T08:18:33Z</time>
      </trkpt>
      <trkpt lat="44.43399" lon="5.15708">
        <ele>690.6</ele>
        <time>2022-10-16T08:18:32Z</time>
      </trkpt>
      <trkpt lat="44.43398" lon="5.15708">
        <ele>690.6</ele>
        <time>2022-10-16T08:18:31Z</time>
      </trkpt>
      <trkpt lat="44.43396" lon="5.15708">
        <ele>690.7</ele>
        <time>2022-10-16T08:18:30Z</time>
      </trkpt>
      <trkpt lat="44.43395" lon="5.15708">
        <ele>690.8</ele>
        <time>2022-10-16T08:18:29Z</time>
      </trkpt>
      <trkpt lat="44.43394" lon="5.15707">
        <ele>691.2</ele>
        <time>2022-10-16T08:18:28Z</time>
      </trkpt>
      <trkpt lat="44.43393" lon="5.15707">
        <ele>691.3</ele>
        <time>2022-10-16T08:18:26Z</time>
      </trkpt>
      <trkpt lat="44.43392" lon="5.15706">
        <ele>691.7</ele>
        <time>2022-10-16T08:18:25Z</time>
      </trkpt>
      <trkpt lat="44.43391" lon="5.15706">
        <ele>691.7</ele>
        <time>2022-10-16T08:18:24Z</time>
      </trkpt>
      <trkpt lat="44.4339" lon="5.15705">
        <ele>692.1</ele>
        <time>2022-10-16T08:18:23Z</time>
      </trkpt>
      <trkpt lat="44.43389" lon="5.15705">
        <ele>692.2</ele>
        <time>2022-10-16T08:18:22Z</time>
      </trkpt>
      <trkpt lat="44.43388" lon="5.15704">
        <ele>692.5</ele>
        <time>2022-10-16T08:18:21Z</time>
      </trkpt>
      <trkpt lat="44.43387" lon="5.15704">
        <ele>692.4</ele>
        <time>2022-10-16T08:18:20Z</time>
      </trkpt>
      <trkpt lat="44.43386" lon="5.15704">
        <ele>692.3</ele>
        <time>2022-10-16T08:18:19Z</time>
      </trkpt>
      <trkpt lat="44.43385" lon="5.15704">
        <ele>692.1</ele>
        <time>2022-10-16T08:18:18Z</time>
      </trkpt>
      <trkpt lat="44.43384" lon="5.15704">
        <ele>692</ele>
        <time>2022-10-16T08:18:17Z</time>
      </trkpt>
      <trkpt lat="44.43383" lon="5.15704">
        <ele>691.9</ele>
        <time>2022-10-16T08:18:16Z</time>
      </trkpt>
      <trkpt lat="44.43382" lon="5.15705">
        <ele>691.5</ele>
        <time>2022-10-16T08:18:15Z</time>
      </trkpt>
      <trkpt lat="44.43381" lon="5.15706">
        <ele>691.1</ele>
        <time>2022-10-16T08:18:14Z</time>
      </trkpt>
      <trkpt lat="44.43381" lon="5.15708">
        <ele>690.4</ele>
        <time>2022-10-16T08:18:13Z</time>
      </trkpt>
      <trkpt lat="44.4338" lon="5.15709">
        <ele>690</ele>
        <time>2022-10-16T08:18:12Z</time>
      </trkpt>
      <trkpt lat="44.4338" lon="5.1571">
        <ele>689.7</ele>
        <time>2022-10-16T08:18:11Z</time>
      </trkpt>
      <trkpt lat="44.4338" lon="5.15712">
        <ele>689</ele>
        <time>2022-10-16T08:18:10Z</time>
      </trkpt>
      <trkpt lat="44.4338" lon="5.15713">
        <ele>688.7</ele>
        <time>2022-10-16T08:18:09Z</time>
      </trkpt>
      <trkpt lat="44.43379" lon="5.15715">
        <ele>688</ele>
        <time>2022-10-16T08:18:08Z</time>
      </trkpt>
      <trkpt lat="44.43379" lon="5.15716">
        <ele>687.6</ele>
        <time>2022-10-16T08:18:07Z</time>
      </trkpt>
      <trkpt lat="44.43379" lon="5.15717">
        <ele>687.3</ele>
        <time>2022-10-16T08:18:06Z</time>
      </trkpt>
      <trkpt lat="44.43379" lon="5.15719">
        <ele>686.7</ele>
        <time>2022-10-16T08:18:05Z</time>
      </trkpt>
      <trkpt lat="44.43379" lon="5.1572">
        <ele>686.4</ele>
        <time>2022-10-16T08:18:04Z</time>
      </trkpt>
      <trkpt lat="44.43379" lon="5.15721">
        <ele>686</ele>
        <time>2022-10-16T08:18:03Z</time>
      </trkpt>
      <trkpt lat="44.43379" lon="5.15722">
        <ele>685.7</ele>
        <time>2022-10-16T08:18:02Z</time>
      </trkpt>
      <trkpt lat="44.43379" lon="5.15724">
        <ele>685.2</ele>
        <time>2022-10-16T08:18:01Z</time>
      </trkpt>
      <trkpt lat="44.43379" lon="5.15725">
        <ele>685</ele>
        <time>2022-10-16T08:18:00Z</time>
      </trkpt>
      <trkpt lat="44.43379" lon="5.15726">
        <ele>684.7</ele>
        <time>2022-10-16T08:17:59Z</time>
      </trkpt>
      <trkpt lat="44.43379" lon="5.15727">
        <ele>684.5</ele>
        <time>2022-10-16T08:17:58Z</time>
      </trkpt>
      <trkpt lat="44.43378" lon="5.15728">
        <ele>684.2</ele>
        <time>2022-10-16T08:17:57Z</time>
      </trkpt>
      <trkpt lat="44.43378" lon="5.15729">
        <ele>684</ele>
        <time>2022-10-16T08:17:56Z</time>
      </trkpt>
      <trkpt lat="44.43378" lon="5.1573">
        <ele>683.8</ele>
        <time>2022-10-16T08:17:55Z</time>
      </trkpt>
      <trkpt lat="44.43377" lon="5.15731">
        <ele>683.5</ele>
        <time>2022-10-16T08:17:54Z</time>
      </trkpt>
      <trkpt lat="44.43377" lon="5.15732">
        <ele>683.3</ele>
        <time>2022-10-16T08:17:53Z</time>
      </trkpt>
      <trkpt lat="44.43377" lon="5.15733">
        <ele>683</ele>
        <time>2022-10-16T08:17:52Z</time>
      </trkpt>
      <trkpt lat="44.43377" lon="5.15734">
        <ele>682.8</ele>
        <time>2022-10-16T08:17:51Z</time>
      </trkpt>
      <trkpt lat="44.43376" lon="5.15736">
        <ele>682.3</ele>
        <time>2022-10-16T08:17:50Z</time>
      </trkpt>
      <trkpt lat="44.43376" lon="5.15737">
        <ele>682.1</ele>
        <time>2022-10-16T08:17:49Z</time>
      </trkpt>
      <trkpt lat="44.43375" lon="5.15738">
        <ele>681.8</ele>
        <time>2022-10-16T08:17:48Z</time>
      </trkpt>
      <trkpt lat="44.43375" lon="5.15739">
        <ele>681.6</ele>
        <time>2022-10-16T08:17:47Z</time>
      </trkpt>
      <trkpt lat="44.43375" lon="5.1574">
        <ele>681.3</ele>
        <time>2022-10-16T08:17:46Z</time>
      </trkpt>
      <trkpt lat="44.43374" lon="5.15741">
        <ele>681.1</ele>
        <time>2022-10-16T08:17:45Z</time>
      </trkpt>
      <trkpt lat="44.43374" lon="5.15742">
        <ele>680.9</ele>
        <time>2022-10-16T08:17:44Z</time>
      </trkpt>
      <trkpt lat="44.43373" lon="5.15743">
        <ele>680.6</ele>
        <time>2022-10-16T08:17:43Z</time>
      </trkpt>
      <trkpt lat="44.43373" lon="5.15744">
        <ele>680.4</ele>
        <time>2022-10-16T08:17:42Z</time>
      </trkpt>
      <trkpt lat="44.43372" lon="5.15745">
        <ele>680.2</ele>
        <time>2022-10-16T08:17:41Z</time>
      </trkpt>
      <trkpt lat="44.43372" lon="5.15746">
        <ele>679.9</ele>
        <time>2022-10-16T08:17:40Z</time>
      </trkpt>
      <trkpt lat="44.43371" lon="5.15746">
        <ele>679.9</ele>
        <time>2022-10-16T08:17:39Z</time>
      </trkpt>
      <trkpt lat="44.43371" lon="5.15747">
        <ele>679.7</ele>
        <time>2022-10-16T08:17:38Z</time>
      </trkpt>
      <trkpt lat="44.4337" lon="5.15747">
        <ele>679.7</ele>
        <time>2022-10-16T08:17:37Z</time>
      </trkpt>
      <trkpt lat="44.4337" lon="5.15748">
        <ele>679.5</ele>
        <time>2022-10-16T08:17:36Z</time>
      </trkpt>
      <trkpt lat="44.43369" lon="5.15748">
        <ele>679.5</ele>
        <time>2022-10-16T08:17:35Z</time>
      </trkpt>
      <trkpt lat="44.43368" lon="5.15749">
        <ele>679.2</ele>
        <time>2022-10-16T08:17:33Z</time>
      </trkpt>
      <trkpt lat="44.43367" lon="5.15749">
        <ele>679.2</ele>
        <time>2022-10-16T08:17:32Z</time>
      </trkpt>
      <trkpt lat="44.43366" lon="5.1575">
        <ele>679</ele>
        <time>2022-10-16T08:17:30Z</time>
      </trkpt>
      <trkpt lat="44.43365" lon="5.1575">
        <ele>679</ele>
        <time>2022-10-16T08:17:29Z</time>
      </trkpt>
      <trkpt lat="44.43364" lon="5.15751">
        <ele>678.8</ele>
        <time>2022-10-16T08:17:28Z</time>
      </trkpt>
      <trkpt lat="44.43363" lon="5.15751">
        <ele>678.8</ele>
        <time>2022-10-16T08:17:27Z</time>
      </trkpt>
      <trkpt lat="44.43363" lon="5.15752">
        <ele>678.6</ele>
        <time>2022-10-16T08:17:26Z</time>
      </trkpt>
      <trkpt lat="44.43362" lon="5.15752">
        <ele>678.6</ele>
        <time>2022-10-16T08:17:25Z</time>
      </trkpt>
      <trkpt lat="44.43361" lon="5.15752">
        <ele>678.6</ele>
        <time>2022-10-16T08:17:24Z</time>
      </trkpt>
      <trkpt lat="44.43361" lon="5.15753">
        <ele>678.4</ele>
        <time>2022-10-16T08:17:23Z</time>
      </trkpt>
      <trkpt lat="44.4336" lon="5.15753">
        <ele>678.3</ele>
        <time>2022-10-16T08:17:22Z</time>
      </trkpt>
      <trkpt lat="44.43359" lon="5.15753">
        <ele>678.2</ele>
        <time>2022-10-16T08:17:20Z</time>
      </trkpt>
      <trkpt lat="44.43358" lon="5.15753">
        <ele>678</ele>
        <time>2022-10-16T08:17:18Z</time>
      </trkpt>
      <trkpt lat="44.43357" lon="5.15753">
        <ele>677.9</ele>
        <time>2022-10-16T08:17:16Z</time>
      </trkpt>
      <trkpt lat="44.43356" lon="5.15753">
        <ele>677.7</ele>
        <time>2022-10-16T08:17:15Z</time>
      </trkpt>
      <trkpt lat="44.43355" lon="5.15753">
        <ele>677.6</ele>
        <time>2022-10-16T08:17:13Z</time>
      </trkpt>
      <trkpt lat="44.43354" lon="5.15754">
        <ele>677.3</ele>
        <time>2022-10-16T08:17:12Z</time>
      </trkpt>
      <trkpt lat="44.43353" lon="5.15754">
        <ele>677.1</ele>
        <time>2022-10-16T08:17:10Z</time>
      </trkpt>
      <trkpt lat="44.43352" lon="5.15755">
        <ele>676.8</ele>
        <time>2022-10-16T08:17:09Z</time>
      </trkpt>
      <trkpt lat="44.43351" lon="5.15755">
        <ele>676.6</ele>
        <time>2022-10-16T08:17:08Z</time>
      </trkpt>
      <trkpt lat="44.43351" lon="5.15756">
        <ele>676.5</ele>
        <time>2022-10-16T08:17:07Z</time>
      </trkpt>
      <trkpt lat="44.4335" lon="5.15756">
        <ele>676.3</ele>
        <time>2022-10-16T08:17:05Z</time>
      </trkpt>
      <trkpt lat="44.43349" lon="5.15756">
        <ele>676.2</ele>
        <time>2022-10-16T08:17:03Z</time>
      </trkpt>
      <trkpt lat="44.43348" lon="5.15757">
        <ele>675.9</ele>
        <time>2022-10-16T08:17:02Z</time>
      </trkpt>
      <trkpt lat="44.43347" lon="5.15757">
        <ele>675.7</ele>
        <time>2022-10-16T08:17:00Z</time>
      </trkpt>
      <trkpt lat="44.43346" lon="5.15757">
        <ele>675.6</ele>
        <time>2022-10-16T08:16:58Z</time>
      </trkpt>
      <trkpt lat="44.43345" lon="5.15758">
        <ele>675.2</ele>
        <time>2022-10-16T08:16:56Z</time>
      </trkpt>
      <trkpt lat="44.43344" lon="5.15758">
        <ele>675.1</ele>
        <time>2022-10-16T08:16:54Z</time>
      </trkpt>
      <trkpt lat="44.43343" lon="5.15758">
        <ele>675</ele>
        <time>2022-10-16T08:16:34Z</time>
      </trkpt>
      <trkpt lat="44.43342" lon="5.15758">
        <ele>674.8</ele>
        <time>2022-10-16T08:16:33Z</time>
      </trkpt>
      <trkpt lat="44.43341" lon="5.15758">
        <ele>674.7</ele>
        <time>2022-10-16T08:16:32Z</time>
      </trkpt>
      <trkpt lat="44.4334" lon="5.15757">
        <ele>674.7</ele>
        <time>2022-10-16T08:16:30Z</time>
      </trkpt>
      <trkpt lat="44.43339" lon="5.15757">
        <ele>674.6</ele>
        <time>2022-10-16T08:16:29Z</time>
      </trkpt>
      <trkpt lat="44.43338" lon="5.15757">
        <ele>674.4</ele>
        <time>2022-10-16T08:16:28Z</time>
      </trkpt>
      <trkpt lat="44.43337" lon="5.15757">
        <ele>674.3</ele>
        <time>2022-10-16T08:16:27Z</time>
      </trkpt>
      <trkpt lat="44.43336" lon="5.15756">
        <ele>674.3</ele>
        <time>2022-10-16T08:16:26Z</time>
      </trkpt>
      <trkpt lat="44.43335" lon="5.15757">
        <ele>674</ele>
        <time>2022-10-16T08:16:25Z</time>
      </trkpt>
      <trkpt lat="44.43334" lon="5.15757">
        <ele>673.8</ele>
        <time>2022-10-16T08:16:24Z</time>
      </trkpt>
      <trkpt lat="44.43333" lon="5.15757">
        <ele>673.7</ele>
        <time>2022-10-16T08:16:23Z</time>
      </trkpt>
      <trkpt lat="44.43332" lon="5.15757">
        <ele>673.5</ele>
        <time>2022-10-16T08:16:22Z</time>
      </trkpt>
      <trkpt lat="44.43331" lon="5.15757">
        <ele>673.3</ele>
        <time>2022-10-16T08:16:21Z</time>
      </trkpt>
      <trkpt lat="44.4333" lon="5.15757">
        <ele>673.1</ele>
        <time>2022-10-16T08:16:20Z</time>
      </trkpt>
      <trkpt lat="44.43329" lon="5.15757">
        <ele>672.9</ele>
        <time>2022-10-16T08:16:19Z</time>
      </trkpt>
      <trkpt lat="44.43328" lon="5.15757">
        <ele>672.7</ele>
        <time>2022-10-16T08:16:18Z</time>
      </trkpt>
      <trkpt lat="44.43327" lon="5.15757">
        <ele>672.5</ele>
        <time>2022-10-16T08:16:17Z</time>
      </trkpt>
      <trkpt lat="44.43326" lon="5.15757">
        <ele>672.4</ele>
        <time>2022-10-16T08:16:16Z</time>
      </trkpt>
      <trkpt lat="44.43325" lon="5.15758">
        <ele>672</ele>
        <time>2022-10-16T08:16:15Z</time>
      </trkpt>
      <trkpt lat="44.43324" lon="5.15757">
        <ele>672</ele>
        <time>2022-10-16T08:16:14Z</time>
      </trkpt>
      <trkpt lat="44.43323" lon="5.15757">
        <ele>671.8</ele>
        <time>2022-10-16T08:16:13Z</time>
      </trkpt>
      <trkpt lat="44.43322" lon="5.15757">
        <ele>671.6</ele>
        <time>2022-10-16T08:16:12Z</time>
      </trkpt>
      <trkpt lat="44.43321" lon="5.15757">
        <ele>671.4</ele>
        <time>2022-10-16T08:16:11Z</time>
      </trkpt>
      <trkpt lat="44.4332" lon="5.15756">
        <ele>671.4</ele>
        <time>2022-10-16T08:16:10Z</time>
      </trkpt>
      <trkpt lat="44.43319" lon="5.15755">
        <ele>671.4</ele>
        <time>2022-10-16T08:16:09Z</time>
      </trkpt>
      <trkpt lat="44.43318" lon="5.15754">
        <ele>671.4</ele>
        <time>2022-10-16T08:16:08Z</time>
      </trkpt>
      <trkpt lat="44.43317" lon="5.15753">
        <ele>671.5</ele>
        <time>2022-10-16T08:16:07Z</time>
      </trkpt>
      <trkpt lat="44.43316" lon="5.15752">
        <ele>671.5</ele>
        <time>2022-10-16T08:16:06Z</time>
      </trkpt>
      <trkpt lat="44.43315" lon="5.15751">
        <ele>671.5</ele>
        <time>2022-10-16T08:16:05Z</time>
      </trkpt>
      <trkpt lat="44.43315" lon="5.1575">
        <ele>671.7</ele>
        <time>2022-10-16T08:16:04Z</time>
      </trkpt>
      <trkpt lat="44.43314" lon="5.15748">
        <ele>671.9</ele>
        <time>2022-10-16T08:16:03Z</time>
      </trkpt>
      <trkpt lat="44.43313" lon="5.15747">
        <ele>672</ele>
        <time>2022-10-16T08:16:02Z</time>
      </trkpt>
      <trkpt lat="44.43312" lon="5.15746">
        <ele>672</ele>
        <time>2022-10-16T08:16:01Z</time>
      </trkpt>
      <trkpt lat="44.43311" lon="5.15744">
        <ele>672.2</ele>
        <time>2022-10-16T08:16:00Z</time>
      </trkpt>
      <trkpt lat="44.4331" lon="5.15743">
        <ele>672.3</ele>
        <time>2022-10-16T08:15:59Z</time>
      </trkpt>
      <trkpt lat="44.43309" lon="5.15742">
        <ele>672.3</ele>
        <time>2022-10-16T08:15:58Z</time>
      </trkpt>
      <trkpt lat="44.43308" lon="5.1574">
        <ele>672.6</ele>
        <time>2022-10-16T08:15:57Z</time>
      </trkpt>
      <trkpt lat="44.43307" lon="5.15739">
        <ele>672.6</ele>
        <time>2022-10-16T08:15:56Z</time>
      </trkpt>
      <trkpt lat="44.43306" lon="5.15738">
        <ele>672.7</ele>
        <time>2022-10-16T08:15:55Z</time>
      </trkpt>
      <trkpt lat="44.43305" lon="5.15738">
        <ele>672.6</ele>
        <time>2022-10-16T08:15:54Z</time>
      </trkpt>
      <trkpt lat="44.43304" lon="5.15738">
        <ele>672.7</ele>
        <time>2022-10-16T08:15:53Z</time>
      </trkpt>
      <trkpt lat="44.43303" lon="5.15738">
        <ele>672.8</ele>
        <time>2022-10-16T08:15:52Z</time>
      </trkpt>
      <trkpt lat="44.43302" lon="5.15738">
        <ele>672.8</ele>
        <time>2022-10-16T08:15:51Z</time>
      </trkpt>
      <trkpt lat="44.43301" lon="5.15738">
        <ele>672.9</ele>
        <time>2022-10-16T08:15:50Z</time>
      </trkpt>
      <trkpt lat="44.433" lon="5.15739">
        <ele>672.8</ele>
        <time>2022-10-16T08:15:49Z</time>
      </trkpt>
      <trkpt lat="44.43299" lon="5.15739">
        <ele>672.8</ele>
        <time>2022-10-16T08:15:48Z</time>
      </trkpt>
      <trkpt lat="44.43298" lon="5.1574">
        <ele>672.7</ele>
        <time>2022-10-16T08:15:47Z</time>
      </trkpt>
      <trkpt lat="44.43298" lon="5.15741">
        <ele>672.5</ele>
        <time>2022-10-16T08:15:46Z</time>
      </trkpt>
      <trkpt lat="44.43297" lon="5.15741">
        <ele>672.6</ele>
        <time>2022-10-16T08:15:45Z</time>
      </trkpt>
      <trkpt lat="44.43296" lon="5.15742">
        <ele>672.4</ele>
        <time>2022-10-16T08:15:44Z</time>
      </trkpt>
      <trkpt lat="44.43295" lon="5.15743">
        <ele>672.3</ele>
        <time>2022-10-16T08:15:43Z</time>
      </trkpt>
      <trkpt lat="44.43294" lon="5.15744">
        <ele>672.1</ele>
        <time>2022-10-16T08:15:42Z</time>
      </trkpt>
      <trkpt lat="44.43293" lon="5.15745">
        <ele>672</ele>
        <time>2022-10-16T08:15:41Z</time>
      </trkpt>
      <trkpt lat="44.43292" lon="5.15746">
        <ele>671.8</ele>
        <time>2022-10-16T08:15:40Z</time>
      </trkpt>
      <trkpt lat="44.43291" lon="5.15746">
        <ele>671.9</ele>
        <time>2022-10-16T08:15:39Z</time>
      </trkpt>
      <trkpt lat="44.43291" lon="5.15748">
        <ele>671.5</ele>
        <time>2022-10-16T08:15:38Z</time>
      </trkpt>
      <trkpt lat="44.4329" lon="5.15749">
        <ele>671.3</ele>
        <time>2022-10-16T08:15:37Z</time>
      </trkpt>
      <trkpt lat="44.43289" lon="5.1575">
        <ele>671.2</ele>
        <time>2022-10-16T08:15:36Z</time>
      </trkpt>
      <trkpt lat="44.43288" lon="5.15751">
        <ele>671.1</ele>
        <time>2022-10-16T08:15:35Z</time>
      </trkpt>
      <trkpt lat="44.43287" lon="5.15752">
        <ele>671</ele>
        <time>2022-10-16T08:15:34Z</time>
      </trkpt>
      <trkpt lat="44.43286" lon="5.15752">
        <ele>671</ele>
        <time>2022-10-16T08:15:33Z</time>
      </trkpt>
      <trkpt lat="44.43285" lon="5.15753">
        <ele>670.9</ele>
        <time>2022-10-16T08:15:32Z</time>
      </trkpt>
      <trkpt lat="44.43284" lon="5.15754">
        <ele>670.8</ele>
        <time>2022-10-16T08:15:31Z</time>
      </trkpt>
      <trkpt lat="44.43283" lon="5.15754">
        <ele>670.9</ele>
        <time>2022-10-16T08:15:30Z</time>
      </trkpt>
      <trkpt lat="44.43282" lon="5.15754">
        <ele>671</ele>
        <time>2022-10-16T08:15:29Z</time>
      </trkpt>
      <trkpt lat="44.43281" lon="5.15755">
        <ele>670.8</ele>
        <time>2022-10-16T08:15:28Z</time>
      </trkpt>
      <trkpt lat="44.4328" lon="5.15755">
        <ele>670.9</ele>
        <time>2022-10-16T08:15:27Z</time>
      </trkpt>
      <trkpt lat="44.43279" lon="5.15755">
        <ele>671</ele>
        <time>2022-10-16T08:15:26Z</time>
      </trkpt>
      <trkpt lat="44.43278" lon="5.15755">
        <ele>671.1</ele>
        <time>2022-10-16T08:15:25Z</time>
      </trkpt>
      <trkpt lat="44.43276" lon="5.15755">
        <ele>671.5</ele>
        <time>2022-10-16T08:15:24Z</time>
      </trkpt>
      <trkpt lat="44.43275" lon="5.15754">
        <ele>671.9</ele>
        <time>2022-10-16T08:15:23Z</time>
      </trkpt>
      <trkpt lat="44.43273" lon="5.15754">
        <ele>672.3</ele>
        <time>2022-10-16T08:15:22Z</time>
      </trkpt>
      <trkpt lat="44.43272" lon="5.15754">
        <ele>672.5</ele>
        <time>2022-10-16T08:15:21Z</time>
      </trkpt>
      <trkpt lat="44.43271" lon="5.15754">
        <ele>672.7</ele>
        <time>2022-10-16T08:15:20Z</time>
      </trkpt>
      <trkpt lat="44.4327" lon="5.15754">
        <ele>672.9</ele>
        <time>2022-10-16T08:15:19Z</time>
      </trkpt>
      <trkpt lat="44.43269" lon="5.15754">
        <ele>673.1</ele>
        <time>2022-10-16T08:15:18Z</time>
      </trkpt>
      <trkpt lat="44.43268" lon="5.15755">
        <ele>673.1</ele>
        <time>2022-10-16T08:15:17Z</time>
      </trkpt>
      <trkpt lat="44.43267" lon="5.15756">
        <ele>673.2</ele>
        <time>2022-10-16T08:15:16Z</time>
      </trkpt>
      <trkpt lat="44.43267" lon="5.15757">
        <ele>673</ele>
        <time>2022-10-16T08:15:15Z</time>
      </trkpt>
      <trkpt lat="44.43266" lon="5.15759">
        <ele>672.8</ele>
        <time>2022-10-16T08:15:14Z</time>
      </trkpt>
      <trkpt lat="44.43266" lon="5.1576">
        <ele>672.6</ele>
        <time>2022-10-16T08:15:13Z</time>
      </trkpt>
      <trkpt lat="44.43266" lon="5.15762">
        <ele>672.2</ele>
        <time>2022-10-16T08:15:12Z</time>
      </trkpt>
      <trkpt lat="44.43266" lon="5.15763">
        <ele>672</ele>
        <time>2022-10-16T08:15:11Z</time>
      </trkpt>
      <trkpt lat="44.43266" lon="5.15765">
        <ele>671.6</ele>
        <time>2022-10-16T08:15:10Z</time>
      </trkpt>
      <trkpt lat="44.43266" lon="5.15766">
        <ele>671.4</ele>
        <time>2022-10-16T08:15:09Z</time>
      </trkpt>
      <trkpt lat="44.43266" lon="5.15768">
        <ele>671</ele>
        <time>2022-10-16T08:15:08Z</time>
      </trkpt>
      <trkpt lat="44.43265" lon="5.15769">
        <ele>671</ele>
        <time>2022-10-16T08:15:07Z</time>
      </trkpt>
      <trkpt lat="44.43265" lon="5.15771">
        <ele>670.6</ele>
        <time>2022-10-16T08:15:06Z</time>
      </trkpt>
      <trkpt lat="44.43265" lon="5.15772">
        <ele>670.4</ele>
        <time>2022-10-16T08:15:05Z</time>
      </trkpt>
      <trkpt lat="44.43264" lon="5.15773">
        <ele>670.4</ele>
        <time>2022-10-16T08:15:04Z</time>
      </trkpt>
      <trkpt lat="44.43263" lon="5.15774">
        <ele>670.4</ele>
        <time>2022-10-16T08:15:03Z</time>
      </trkpt>
      <trkpt lat="44.43262" lon="5.15775">
        <ele>670.4</ele>
        <time>2022-10-16T08:15:02Z</time>
      </trkpt>
      <trkpt lat="44.43261" lon="5.15776">
        <ele>670.4</ele>
        <time>2022-10-16T08:15:01Z</time>
      </trkpt>
      <trkpt lat="44.4326" lon="5.15777">
        <ele>670.4</ele>
        <time>2022-10-16T08:15:00Z</time>
      </trkpt>
      <trkpt lat="44.43259" lon="5.15777">
        <ele>670.5</ele>
        <time>2022-10-16T08:14:59Z</time>
      </trkpt>
      <trkpt lat="44.43258" lon="5.15778">
        <ele>670.5</ele>
        <time>2022-10-16T08:14:58Z</time>
      </trkpt>
      <trkpt lat="44.43257" lon="5.15778">
        <ele>670.7</ele>
        <time>2022-10-16T08:14:57Z</time>
      </trkpt>
      <trkpt lat="44.43256" lon="5.15779">
        <ele>670.7</ele>
        <time>2022-10-16T08:14:56Z</time>
      </trkpt>
      <trkpt lat="44.43255" lon="5.15779">
        <ele>670.8</ele>
        <time>2022-10-16T08:14:55Z</time>
      </trkpt>
      <trkpt lat="44.43254" lon="5.15779">
        <ele>671</ele>
        <time>2022-10-16T08:14:54Z</time>
      </trkpt>
      <trkpt lat="44.43253" lon="5.15779">
        <ele>671.2</ele>
        <time>2022-10-16T08:14:53Z</time>
      </trkpt>
      <trkpt lat="44.43252" lon="5.15779">
        <ele>671.4</ele>
        <time>2022-10-16T08:14:52Z</time>
      </trkpt>
      <trkpt lat="44.43251" lon="5.15779">
        <ele>671.6</ele>
        <time>2022-10-16T08:14:51Z</time>
      </trkpt>
      <trkpt lat="44.43249" lon="5.1578">
        <ele>671.7</ele>
        <time>2022-10-16T08:14:50Z</time>
      </trkpt>
      <trkpt lat="44.43248" lon="5.1578">
        <ele>671.9</ele>
        <time>2022-10-16T08:14:49Z</time>
      </trkpt>
      <trkpt lat="44.43247" lon="5.1578">
        <ele>672.1</ele>
        <time>2022-10-16T08:14:48Z</time>
      </trkpt>
      <trkpt lat="44.43246" lon="5.15781">
        <ele>672</ele>
        <time>2022-10-16T08:14:47Z</time>
      </trkpt>
      <trkpt lat="44.43245" lon="5.15781">
        <ele>672.2</ele>
        <time>2022-10-16T08:14:46Z</time>
      </trkpt>
      <trkpt lat="44.43244" lon="5.15782">
        <ele>672.1</ele>
        <time>2022-10-16T08:14:45Z</time>
      </trkpt>
      <trkpt lat="44.43243" lon="5.15782">
        <ele>672.3</ele>
        <time>2022-10-16T08:14:44Z</time>
      </trkpt>
      <trkpt lat="44.43242" lon="5.15782">
        <ele>672.5</ele>
        <time>2022-10-16T08:14:43Z</time>
      </trkpt>
      <trkpt lat="44.43241" lon="5.15782">
        <ele>672.7</ele>
        <time>2022-10-16T08:14:42Z</time>
      </trkpt>
      <trkpt lat="44.4324" lon="5.15782">
        <ele>672.8</ele>
        <time>2022-10-16T08:14:41Z</time>
      </trkpt>
      <trkpt lat="44.43239" lon="5.15782">
        <ele>673</ele>
        <time>2022-10-16T08:14:40Z</time>
      </trkpt>
      <trkpt lat="44.43238" lon="5.15783">
        <ele>673</ele>
        <time>2022-10-16T08:14:39Z</time>
      </trkpt>
      <trkpt lat="44.43237" lon="5.15783">
        <ele>673.1</ele>
        <time>2022-10-16T08:14:38Z</time>
      </trkpt>
      <trkpt lat="44.43236" lon="5.15783">
        <ele>673.3</ele>
        <time>2022-10-16T08:14:37Z</time>
      </trkpt>
      <trkpt lat="44.43235" lon="5.15784">
        <ele>673.2</ele>
        <time>2022-10-16T08:14:36Z</time>
      </trkpt>
      <trkpt lat="44.43234" lon="5.15784">
        <ele>673.4</ele>
        <time>2022-10-16T08:14:35Z</time>
      </trkpt>
      <trkpt lat="44.43233" lon="5.15784">
        <ele>673.6</ele>
        <time>2022-10-16T08:14:34Z</time>
      </trkpt>
      <trkpt lat="44.43231" lon="5.15784">
        <ele>673.9</ele>
        <time>2022-10-16T08:14:33Z</time>
      </trkpt>
      <trkpt lat="44.4323" lon="5.15784">
        <ele>674.1</ele>
        <time>2022-10-16T08:14:32Z</time>
      </trkpt>
      <trkpt lat="44.43229" lon="5.15784">
        <ele>674.3</ele>
        <time>2022-10-16T08:14:31Z</time>
      </trkpt>
      <trkpt lat="44.43228" lon="5.15784">
        <ele>674.4</ele>
        <time>2022-10-16T08:14:30Z</time>
      </trkpt>
      <trkpt lat="44.43227" lon="5.15784">
        <ele>674.6</ele>
        <time>2022-10-16T08:14:29Z</time>
      </trkpt>
      <trkpt lat="44.43225" lon="5.15784">
        <ele>675</ele>
        <time>2022-10-16T08:14:28Z</time>
      </trkpt>
      <trkpt lat="44.43224" lon="5.15785">
        <ele>674.9</ele>
        <time>2022-10-16T08:14:27Z</time>
      </trkpt>
      <trkpt lat="44.43223" lon="5.15785">
        <ele>675</ele>
        <time>2022-10-16T08:14:26Z</time>
      </trkpt>
      <trkpt lat="44.43222" lon="5.15785">
        <ele>675.2</ele>
        <time>2022-10-16T08:14:25Z</time>
      </trkpt>
      <trkpt lat="44.4322" lon="5.15785">
        <ele>675.5</ele>
        <time>2022-10-16T08:14:24Z</time>
      </trkpt>
      <trkpt lat="44.43219" lon="5.15786">
        <ele>675.4</ele>
        <time>2022-10-16T08:14:23Z</time>
      </trkpt>
      <trkpt lat="44.43218" lon="5.15786">
        <ele>675.5</ele>
        <time>2022-10-16T08:14:22Z</time>
      </trkpt>
      <trkpt lat="44.43216" lon="5.15786">
        <ele>675.8</ele>
        <time>2022-10-16T08:14:21Z</time>
      </trkpt>
      <trkpt lat="44.43215" lon="5.15787">
        <ele>675.6</ele>
        <time>2022-10-16T08:14:20Z</time>
      </trkpt>
      <trkpt lat="44.43214" lon="5.15787">
        <ele>675.8</ele>
        <time>2022-10-16T08:14:19Z</time>
      </trkpt>
      <trkpt lat="44.43212" lon="5.15787">
        <ele>676</ele>
        <time>2022-10-16T08:14:18Z</time>
      </trkpt>
      <trkpt lat="44.43211" lon="5.15787">
        <ele>676.2</ele>
        <time>2022-10-16T08:14:17Z</time>
      </trkpt>
      <trkpt lat="44.4321" lon="5.15787">
        <ele>676.3</ele>
        <time>2022-10-16T08:14:16Z</time>
      </trkpt>
      <trkpt lat="44.43209" lon="5.15787">
        <ele>676.4</ele>
        <time>2022-10-16T08:14:15Z</time>
      </trkpt>
      <trkpt lat="44.43208" lon="5.15787">
        <ele>676.6</ele>
        <time>2022-10-16T08:14:14Z</time>
      </trkpt>
      <trkpt lat="44.43207" lon="5.15787">
        <ele>676.7</ele>
        <time>2022-10-16T08:14:13Z</time>
      </trkpt>
      <trkpt lat="44.43206" lon="5.15787">
        <ele>676.8</ele>
        <time>2022-10-16T08:14:12Z</time>
      </trkpt>
      <trkpt lat="44.43205" lon="5.15787">
        <ele>677</ele>
        <time>2022-10-16T08:14:11Z</time>
      </trkpt>
      <trkpt lat="44.43203" lon="5.15786">
        <ele>677.5</ele>
        <time>2022-10-16T08:14:02Z</time>
      </trkpt>
      <trkpt lat="44.43202" lon="5.15786">
        <ele>677.6</ele>
        <time>2022-10-16T08:14:01Z</time>
      </trkpt>
      <trkpt lat="44.43201" lon="5.15786">
        <ele>677.8</ele>
        <time>2022-10-16T08:14:00Z</time>
      </trkpt>
      <trkpt lat="44.432" lon="5.15786">
        <ele>677.9</ele>
        <time>2022-10-16T08:13:59Z</time>
      </trkpt>
      <trkpt lat="44.43199" lon="5.15786">
        <ele>678</ele>
        <time>2022-10-16T08:13:58Z</time>
      </trkpt>
      <trkpt lat="44.43198" lon="5.15786">
        <ele>678.2</ele>
        <time>2022-10-16T08:13:57Z</time>
      </trkpt>
      <trkpt lat="44.43197" lon="5.15787">
        <ele>678</ele>
        <time>2022-10-16T08:13:56Z</time>
      </trkpt>
      <trkpt lat="44.43196" lon="5.15788">
        <ele>677.9</ele>
        <time>2022-10-16T08:13:55Z</time>
      </trkpt>
      <trkpt lat="44.43195" lon="5.15789">
        <ele>677.7</ele>
        <time>2022-10-16T08:13:54Z</time>
      </trkpt>
      <trkpt lat="44.43194" lon="5.1579">
        <ele>677.5</ele>
        <time>2022-10-16T08:13:53Z</time>
      </trkpt>
      <trkpt lat="44.43193" lon="5.15791">
        <ele>677.3</ele>
        <time>2022-10-16T08:13:52Z</time>
      </trkpt>
      <trkpt lat="44.43192" lon="5.15792">
        <ele>677.1</ele>
        <time>2022-10-16T08:13:51Z</time>
      </trkpt>
      <trkpt lat="44.43191" lon="5.15793">
        <ele>676.9</ele>
        <time>2022-10-16T08:13:50Z</time>
      </trkpt>
      <trkpt lat="44.43191" lon="5.15794">
        <ele>676.6</ele>
        <time>2022-10-16T08:13:49Z</time>
      </trkpt>
      <trkpt lat="44.4319" lon="5.15795">
        <ele>676.4</ele>
        <time>2022-10-16T08:13:48Z</time>
      </trkpt>
      <trkpt lat="44.43189" lon="5.15796">
        <ele>676.1</ele>
        <time>2022-10-16T08:13:47Z</time>
      </trkpt>
      <trkpt lat="44.43188" lon="5.15797">
        <ele>675.9</ele>
        <time>2022-10-16T08:13:46Z</time>
      </trkpt>
      <trkpt lat="44.43187" lon="5.15798">
        <ele>675.7</ele>
        <time>2022-10-16T08:13:45Z</time>
      </trkpt>
      <trkpt lat="44.43186" lon="5.15798">
        <ele>675.8</ele>
        <time>2022-10-16T08:13:44Z</time>
      </trkpt>
      <trkpt lat="44.43185" lon="5.15799">
        <ele>675.6</ele>
        <time>2022-10-16T08:13:43Z</time>
      </trkpt>
      <trkpt lat="44.43184" lon="5.158">
        <ele>675.4</ele>
        <time>2022-10-16T08:13:42Z</time>
      </trkpt>
      <trkpt lat="44.43184" lon="5.15801">
        <ele>675.1</ele>
        <time>2022-10-16T08:13:41Z</time>
      </trkpt>
      <trkpt lat="44.43183" lon="5.15802">
        <ele>674.8</ele>
        <time>2022-10-16T08:13:40Z</time>
      </trkpt>
      <trkpt lat="44.43182" lon="5.15802">
        <ele>674.9</ele>
        <time>2022-10-16T08:13:39Z</time>
      </trkpt>
      <trkpt lat="44.43181" lon="5.15802">
        <ele>675</ele>
        <time>2022-10-16T08:13:38Z</time>
      </trkpt>
      <trkpt lat="44.4318" lon="5.15803">
        <ele>674.8</ele>
        <time>2022-10-16T08:13:37Z</time>
      </trkpt>
      <trkpt lat="44.43179" lon="5.15803">
        <ele>674.8</ele>
        <time>2022-10-16T08:13:36Z</time>
      </trkpt>
      <trkpt lat="44.43178" lon="5.15803">
        <ele>674.9</ele>
        <time>2022-10-16T08:13:35Z</time>
      </trkpt>
      <trkpt lat="44.43177" lon="5.15804">
        <ele>674.7</ele>
        <time>2022-10-16T08:13:34Z</time>
      </trkpt>
      <trkpt lat="44.43176" lon="5.15804">
        <ele>674.8</ele>
        <time>2022-10-16T08:13:33Z</time>
      </trkpt>
      <trkpt lat="44.43174" lon="5.15805">
        <ele>674.6</ele>
        <time>2022-10-16T08:13:32Z</time>
      </trkpt>
      <trkpt lat="44.43173" lon="5.15805">
        <ele>674.7</ele>
        <time>2022-10-16T08:13:31Z</time>
      </trkpt>
      <trkpt lat="44.43172" lon="5.15806">
        <ele>674.5</ele>
        <time>2022-10-16T08:13:30Z</time>
      </trkpt>
      <trkpt lat="44.43171" lon="5.15806">
        <ele>674.6</ele>
        <time>2022-10-16T08:13:29Z</time>
      </trkpt>
      <trkpt lat="44.43171" lon="5.15807">
        <ele>674.3</ele>
        <time>2022-10-16T08:13:28Z</time>
      </trkpt>
      <trkpt lat="44.4317" lon="5.15808">
        <ele>674.1</ele>
        <time>2022-10-16T08:13:27Z</time>
      </trkpt>
      <trkpt lat="44.43169" lon="5.15808">
        <ele>674.1</ele>
        <time>2022-10-16T08:13:26Z</time>
      </trkpt>
      <trkpt lat="44.43168" lon="5.15809">
        <ele>673.9</ele>
        <time>2022-10-16T08:13:25Z</time>
      </trkpt>
      <trkpt lat="44.43167" lon="5.1581">
        <ele>673.7</ele>
        <time>2022-10-16T08:13:24Z</time>
      </trkpt>
      <trkpt lat="44.43166" lon="5.15811">
        <ele>673.5</ele>
        <time>2022-10-16T08:13:23Z</time>
      </trkpt>
      <trkpt lat="44.43166" lon="5.15812">
        <ele>673.2</ele>
        <time>2022-10-16T08:13:22Z</time>
      </trkpt>
      <trkpt lat="44.43165" lon="5.15813">
        <ele>672.9</ele>
        <time>2022-10-16T08:13:21Z</time>
      </trkpt>
      <trkpt lat="44.43164" lon="5.15814">
        <ele>672.7</ele>
        <time>2022-10-16T08:13:20Z</time>
      </trkpt>
      <trkpt lat="44.43164" lon="5.15815">
        <ele>672.4</ele>
        <time>2022-10-16T08:13:19Z</time>
      </trkpt>
      <trkpt lat="44.43163" lon="5.15816">
        <ele>672.1</ele>
        <time>2022-10-16T08:13:18Z</time>
      </trkpt>
      <trkpt lat="44.43162" lon="5.15816">
        <ele>672.2</ele>
        <time>2022-10-16T08:13:17Z</time>
      </trkpt>
      <trkpt lat="44.43161" lon="5.15817">
        <ele>671.9</ele>
        <time>2022-10-16T08:13:16Z</time>
      </trkpt>
      <trkpt lat="44.4316" lon="5.15817">
        <ele>671.9</ele>
        <time>2022-10-16T08:13:15Z</time>
      </trkpt>
      <trkpt lat="44.43159" lon="5.15818">
        <ele>671.7</ele>
        <time>2022-10-16T08:13:14Z</time>
      </trkpt>
      <trkpt lat="44.43158" lon="5.15818">
        <ele>671.7</ele>
        <time>2022-10-16T08:13:13Z</time>
      </trkpt>
      <trkpt lat="44.43157" lon="5.15818">
        <ele>671.8</ele>
        <time>2022-10-16T08:13:12Z</time>
      </trkpt>
      <trkpt lat="44.43156" lon="5.15819">
        <ele>671.5</ele>
        <time>2022-10-16T08:13:11Z</time>
      </trkpt>
      <trkpt lat="44.43154" lon="5.15819">
        <ele>671.6</ele>
        <time>2022-10-16T08:13:10Z</time>
      </trkpt>
      <trkpt lat="44.43153" lon="5.15819">
        <ele>671.6</ele>
        <time>2022-10-16T08:13:09Z</time>
      </trkpt>
      <trkpt lat="44.43152" lon="5.15819">
        <ele>671.7</ele>
        <time>2022-10-16T08:13:08Z</time>
      </trkpt>
      <trkpt lat="44.43151" lon="5.15819">
        <ele>671.7</ele>
        <time>2022-10-16T08:13:07Z</time>
      </trkpt>
      <trkpt lat="44.4315" lon="5.1582">
        <ele>671.4</ele>
        <time>2022-10-16T08:13:06Z</time>
      </trkpt>
      <trkpt lat="44.43149" lon="5.1582">
        <ele>671.5</ele>
        <time>2022-10-16T08:13:05Z</time>
      </trkpt>
      <trkpt lat="44.43148" lon="5.1582">
        <ele>671.5</ele>
        <time>2022-10-16T08:13:04Z</time>
      </trkpt>
      <trkpt lat="44.43147" lon="5.15821">
        <ele>671.3</ele>
        <time>2022-10-16T08:13:03Z</time>
      </trkpt>
      <trkpt lat="44.43146" lon="5.15821">
        <ele>671.3</ele>
        <time>2022-10-16T08:13:02Z</time>
      </trkpt>
      <trkpt lat="44.43145" lon="5.15821">
        <ele>671.3</ele>
        <time>2022-10-16T08:13:01Z</time>
      </trkpt>
      <trkpt lat="44.43144" lon="5.15822">
        <ele>671.1</ele>
        <time>2022-10-16T08:13:00Z</time>
      </trkpt>
      <trkpt lat="44.43143" lon="5.15822">
        <ele>671.1</ele>
        <time>2022-10-16T08:12:59Z</time>
      </trkpt>
      <trkpt lat="44.43142" lon="5.15822">
        <ele>671.2</ele>
        <time>2022-10-16T08:12:58Z</time>
      </trkpt>
      <trkpt lat="44.43141" lon="5.15822">
        <ele>671.2</ele>
        <time>2022-10-16T08:12:57Z</time>
      </trkpt>
      <trkpt lat="44.4314" lon="5.15822">
        <ele>671.2</ele>
        <time>2022-10-16T08:12:56Z</time>
      </trkpt>
      <trkpt lat="44.43139" lon="5.15823">
        <ele>671</ele>
        <time>2022-10-16T08:12:55Z</time>
      </trkpt>
      <trkpt lat="44.43138" lon="5.15823">
        <ele>671</ele>
        <time>2022-10-16T08:12:54Z</time>
      </trkpt>
      <trkpt lat="44.43137" lon="5.15824">
        <ele>670.8</ele>
        <time>2022-10-16T08:12:53Z</time>
      </trkpt>
      <trkpt lat="44.43136" lon="5.15824">
        <ele>670.8</ele>
        <time>2022-10-16T08:12:52Z</time>
      </trkpt>
      <trkpt lat="44.43135" lon="5.15825">
        <ele>670.5</ele>
        <time>2022-10-16T08:12:51Z</time>
      </trkpt>
      <trkpt lat="44.43134" lon="5.15825">
        <ele>670.6</ele>
        <time>2022-10-16T08:12:50Z</time>
      </trkpt>
      <trkpt lat="44.43133" lon="5.15825">
        <ele>670.6</ele>
        <time>2022-10-16T08:12:49Z</time>
      </trkpt>
      <trkpt lat="44.43132" lon="5.15826">
        <ele>670.4</ele>
        <time>2022-10-16T08:12:48Z</time>
      </trkpt>
      <trkpt lat="44.43131" lon="5.15826">
        <ele>670.4</ele>
        <time>2022-10-16T08:12:47Z</time>
      </trkpt>
      <trkpt lat="44.4313" lon="5.15826">
        <ele>670.4</ele>
        <time>2022-10-16T08:12:46Z</time>
      </trkpt>
      <trkpt lat="44.43129" lon="5.15826">
        <ele>670.5</ele>
        <time>2022-10-16T08:12:45Z</time>
      </trkpt>
      <trkpt lat="44.43127" lon="5.15826">
        <ele>670.5</ele>
        <time>2022-10-16T08:12:44Z</time>
      </trkpt>
      <trkpt lat="44.43126" lon="5.15826">
        <ele>670.6</ele>
        <time>2022-10-16T08:12:43Z</time>
      </trkpt>
      <trkpt lat="44.43125" lon="5.15826">
        <ele>670.6</ele>
        <time>2022-10-16T08:12:42Z</time>
      </trkpt>
      <trkpt lat="44.43124" lon="5.15826">
        <ele>670.6</ele>
        <time>2022-10-16T08:12:41Z</time>
      </trkpt>
      <trkpt lat="44.43123" lon="5.15826">
        <ele>670.7</ele>
        <time>2022-10-16T08:12:40Z</time>
      </trkpt>
      <trkpt lat="44.43122" lon="5.15826">
        <ele>670.7</ele>
        <time>2022-10-16T08:12:39Z</time>
      </trkpt>
      <trkpt lat="44.4312" lon="5.15825">
        <ele>671.1</ele>
        <time>2022-10-16T08:12:38Z</time>
      </trkpt>
      <trkpt lat="44.43119" lon="5.15825">
        <ele>671.1</ele>
        <time>2022-10-16T08:12:37Z</time>
      </trkpt>
      <trkpt lat="44.43118" lon="5.15825">
        <ele>671.2</ele>
        <time>2022-10-16T08:12:36Z</time>
      </trkpt>
      <trkpt lat="44.43117" lon="5.15825">
        <ele>671.2</ele>
        <time>2022-10-16T08:12:35Z</time>
      </trkpt>
      <trkpt lat="44.43116" lon="5.15824">
        <ele>671.5</ele>
        <time>2022-10-16T08:12:34Z</time>
      </trkpt>
      <trkpt lat="44.43114" lon="5.15824">
        <ele>671.6</ele>
        <time>2022-10-16T08:12:33Z</time>
      </trkpt>
      <trkpt lat="44.43113" lon="5.15824">
        <ele>671.6</ele>
        <time>2022-10-16T08:12:32Z</time>
      </trkpt>
      <trkpt lat="44.43112" lon="5.15824">
        <ele>671.7</ele>
        <time>2022-10-16T08:12:31Z</time>
      </trkpt>
      <trkpt lat="44.43111" lon="5.15824">
        <ele>671.7</ele>
        <time>2022-10-16T08:12:30Z</time>
      </trkpt>
      <trkpt lat="44.4311" lon="5.15824">
        <ele>671.7</ele>
        <time>2022-10-16T08:12:29Z</time>
      </trkpt>
      <trkpt lat="44.43109" lon="5.15824">
        <ele>671.8</ele>
        <time>2022-10-16T08:12:28Z</time>
      </trkpt>
      <trkpt lat="44.43108" lon="5.15824">
        <ele>671.8</ele>
        <time>2022-10-16T08:12:27Z</time>
      </trkpt>
      <trkpt lat="44.43107" lon="5.15824">
        <ele>671.8</ele>
        <time>2022-10-16T08:12:26Z</time>
      </trkpt>
      <trkpt lat="44.43106" lon="5.15824">
        <ele>671.9</ele>
        <time>2022-10-16T08:12:24Z</time>
      </trkpt>
      <trkpt lat="44.43105" lon="5.15824">
        <ele>671.9</ele>
        <time>2022-10-16T08:12:23Z</time>
      </trkpt>
      <trkpt lat="44.43104" lon="5.15824">
        <ele>671.9</ele>
        <time>2022-10-16T08:12:22Z</time>
      </trkpt>
      <trkpt lat="44.43103" lon="5.15824">
        <ele>672</ele>
        <time>2022-10-16T08:12:21Z</time>
      </trkpt>
      <trkpt lat="44.43102" lon="5.15823">
        <ele>672.3</ele>
        <time>2022-10-16T08:12:20Z</time>
      </trkpt>
      <trkpt lat="44.43101" lon="5.15823">
        <ele>672.3</ele>
        <time>2022-10-16T08:12:19Z</time>
      </trkpt>
      <trkpt lat="44.431" lon="5.15823">
        <ele>672.4</ele>
        <time>2022-10-16T08:12:18Z</time>
      </trkpt>
      <trkpt lat="44.43099" lon="5.15824">
        <ele>672.1</ele>
        <time>2022-10-16T08:12:17Z</time>
      </trkpt>
      <trkpt lat="44.43098" lon="5.15824">
        <ele>672.2</ele>
        <time>2022-10-16T08:12:16Z</time>
      </trkpt>
      <trkpt lat="44.43097" lon="5.15824">
        <ele>672.2</ele>
        <time>2022-10-16T08:12:15Z</time>
      </trkpt>
      <trkpt lat="44.43096" lon="5.15825">
        <ele>671.9</ele>
        <time>2022-10-16T08:12:14Z</time>
      </trkpt>
      <trkpt lat="44.43095" lon="5.15825">
        <ele>672</ele>
        <time>2022-10-16T08:12:13Z</time>
      </trkpt>
      <trkpt lat="44.43094" lon="5.15825">
        <ele>672</ele>
        <time>2022-10-16T08:12:12Z</time>
      </trkpt>
      <trkpt lat="44.43093" lon="5.15826">
        <ele>671.8</ele>
        <time>2022-10-16T08:12:11Z</time>
      </trkpt>
      <trkpt lat="44.43091" lon="5.15826">
        <ele>671.8</ele>
        <time>2022-10-16T08:12:10Z</time>
      </trkpt>
      <trkpt lat="44.4309" lon="5.15826">
        <ele>671.9</ele>
        <time>2022-10-16T08:12:09Z</time>
      </trkpt>
      <trkpt lat="44.43089" lon="5.15827">
        <ele>671.6</ele>
        <time>2022-10-16T08:12:08Z</time>
      </trkpt>
      <trkpt lat="44.43088" lon="5.15827">
        <ele>671.7</ele>
        <time>2022-10-16T08:12:07Z</time>
      </trkpt>
      <trkpt lat="44.43087" lon="5.15827">
        <ele>671.7</ele>
        <time>2022-10-16T08:12:06Z</time>
      </trkpt>
      <trkpt lat="44.43086" lon="5.15828">
        <ele>671.4</ele>
        <time>2022-10-16T08:12:05Z</time>
      </trkpt>
      <trkpt lat="44.43085" lon="5.15828">
        <ele>671.5</ele>
        <time>2022-10-16T08:12:04Z</time>
      </trkpt>
      <trkpt lat="44.43084" lon="5.15829">
        <ele>671.2</ele>
        <time>2022-10-16T08:12:03Z</time>
      </trkpt>
      <trkpt lat="44.43083" lon="5.15829">
        <ele>671.3</ele>
        <time>2022-10-16T08:12:02Z</time>
      </trkpt>
      <trkpt lat="44.43082" lon="5.15829">
        <ele>671.3</ele>
        <time>2022-10-16T08:12:01Z</time>
      </trkpt>
      <trkpt lat="44.43081" lon="5.1583">
        <ele>671</ele>
        <time>2022-10-16T08:12:00Z</time>
      </trkpt>
      <trkpt lat="44.43079" lon="5.1583">
        <ele>671.1</ele>
        <time>2022-10-16T08:11:59Z</time>
      </trkpt>
      <trkpt lat="44.43078" lon="5.15831">
        <ele>670.8</ele>
        <time>2022-10-16T08:11:58Z</time>
      </trkpt>
      <trkpt lat="44.43077" lon="5.15831">
        <ele>670.9</ele>
        <time>2022-10-16T08:11:57Z</time>
      </trkpt>
      <trkpt lat="44.43076" lon="5.15831">
        <ele>670.9</ele>
        <time>2022-10-16T08:11:56Z</time>
      </trkpt>
      <trkpt lat="44.43075" lon="5.15831">
        <ele>670.9</ele>
        <time>2022-10-16T08:11:55Z</time>
      </trkpt>
      <trkpt lat="44.43073" lon="5.15831">
        <ele>671</ele>
        <time>2022-10-16T08:11:54Z</time>
      </trkpt>
      <trkpt lat="44.43072" lon="5.15832">
        <ele>670.8</ele>
        <time>2022-10-16T08:11:53Z</time>
      </trkpt>
      <trkpt lat="44.43071" lon="5.15832">
        <ele>670.8</ele>
        <time>2022-10-16T08:11:52Z</time>
      </trkpt>
      <trkpt lat="44.4307" lon="5.15832">
        <ele>670.8</ele>
        <time>2022-10-16T08:11:51Z</time>
      </trkpt>
      <trkpt lat="44.43069" lon="5.15832">
        <ele>670.9</ele>
        <time>2022-10-16T08:11:50Z</time>
      </trkpt>
      <trkpt lat="44.43068" lon="5.15832">
        <ele>670.9</ele>
        <time>2022-10-16T08:11:49Z</time>
      </trkpt>
      <trkpt lat="44.43067" lon="5.15832">
        <ele>670.9</ele>
        <time>2022-10-16T08:11:48Z</time>
      </trkpt>
      <trkpt lat="44.43065" lon="5.15832">
        <ele>671</ele>
        <time>2022-10-16T08:11:47Z</time>
      </trkpt>
      <trkpt lat="44.43064" lon="5.15833">
        <ele>670.8</ele>
        <time>2022-10-16T08:11:46Z</time>
      </trkpt>
      <trkpt lat="44.43063" lon="5.15833">
        <ele>670.8</ele>
        <time>2022-10-16T08:11:45Z</time>
      </trkpt>
      <trkpt lat="44.43062" lon="5.15833">
        <ele>670.9</ele>
        <time>2022-10-16T08:11:44Z</time>
      </trkpt>
      <trkpt lat="44.43061" lon="5.15833">
        <ele>670.9</ele>
        <time>2022-10-16T08:11:43Z</time>
      </trkpt>
      <trkpt lat="44.4306" lon="5.15833">
        <ele>670.9</ele>
        <time>2022-10-16T08:11:42Z</time>
      </trkpt>
      <trkpt lat="44.43059" lon="5.15833">
        <ele>671</ele>
        <time>2022-10-16T08:11:41Z</time>
      </trkpt>
      <trkpt lat="44.43058" lon="5.15833">
        <ele>671</ele>
        <time>2022-10-16T08:11:40Z</time>
      </trkpt>
      <trkpt lat="44.43056" lon="5.15833">
        <ele>671.1</ele>
        <time>2022-10-16T08:11:39Z</time>
      </trkpt>
      <trkpt lat="44.43055" lon="5.15833">
        <ele>671.1</ele>
        <time>2022-10-16T08:11:37Z</time>
      </trkpt>
      <trkpt lat="44.43054" lon="5.15832">
        <ele>671.5</ele>
        <time>2022-10-16T08:11:36Z</time>
      </trkpt>
      <trkpt lat="44.43053" lon="5.15832">
        <ele>671.6</ele>
        <time>2022-10-16T08:11:35Z</time>
      </trkpt>
      <trkpt lat="44.43052" lon="5.15832">
        <ele>671.7</ele>
        <time>2022-10-16T08:11:34Z</time>
      </trkpt>
      <trkpt lat="44.4305" lon="5.15832">
        <ele>671.9</ele>
        <time>2022-10-16T08:11:33Z</time>
      </trkpt>
      <trkpt lat="44.43049" lon="5.15832">
        <ele>672</ele>
        <time>2022-10-16T08:11:32Z</time>
      </trkpt>
      <trkpt lat="44.43048" lon="5.15832">
        <ele>672.1</ele>
        <time>2022-10-16T08:11:31Z</time>
      </trkpt>
      <trkpt lat="44.43047" lon="5.15832">
        <ele>672.2</ele>
        <time>2022-10-16T08:11:30Z</time>
      </trkpt>
      <trkpt lat="44.43046" lon="5.15832">
        <ele>672.4</ele>
        <time>2022-10-16T08:11:29Z</time>
      </trkpt>
      <trkpt lat="44.43045" lon="5.15832">
        <ele>672.5</ele>
        <time>2022-10-16T08:11:28Z</time>
      </trkpt>
      <trkpt lat="44.43044" lon="5.15832">
        <ele>672.6</ele>
        <time>2022-10-16T08:11:27Z</time>
      </trkpt>
      <trkpt lat="44.43043" lon="5.15832">
        <ele>672.7</ele>
        <time>2022-10-16T08:11:26Z</time>
      </trkpt>
      <trkpt lat="44.43042" lon="5.15832">
        <ele>672.8</ele>
        <time>2022-10-16T08:11:25Z</time>
      </trkpt>
      <trkpt lat="44.4304" lon="5.15832">
        <ele>673</ele>
        <time>2022-10-16T08:11:24Z</time>
      </trkpt>
      <trkpt lat="44.43039" lon="5.15832">
        <ele>673.1</ele>
        <time>2022-10-16T08:11:22Z</time>
      </trkpt>
      <trkpt lat="44.43038" lon="5.15831">
        <ele>673.4</ele>
        <time>2022-10-16T08:11:21Z</time>
      </trkpt>
      <trkpt lat="44.43037" lon="5.15831">
        <ele>673.5</ele>
        <time>2022-10-16T08:11:20Z</time>
      </trkpt>
      <trkpt lat="44.43036" lon="5.15831">
        <ele>673.6</ele>
        <time>2022-10-16T08:11:19Z</time>
      </trkpt>
      <trkpt lat="44.43035" lon="5.15831">
        <ele>673.7</ele>
        <time>2022-10-16T08:11:18Z</time>
      </trkpt>
      <trkpt lat="44.43034" lon="5.15831">
        <ele>673.9</ele>
        <time>2022-10-16T08:11:17Z</time>
      </trkpt>
      <trkpt lat="44.43033" lon="5.15831">
        <ele>674</ele>
        <time>2022-10-16T08:11:16Z</time>
      </trkpt>
      <trkpt lat="44.43032" lon="5.15831">
        <ele>674.1</ele>
        <time>2022-10-16T08:11:15Z</time>
      </trkpt>
      <trkpt lat="44.43031" lon="5.15831">
        <ele>674.2</ele>
        <time>2022-10-16T08:11:14Z</time>
      </trkpt>
      <trkpt lat="44.4303" lon="5.15831">
        <ele>674.3</ele>
        <time>2022-10-16T08:11:13Z</time>
      </trkpt>
      <trkpt lat="44.43028" lon="5.15831">
        <ele>674.5</ele>
        <time>2022-10-16T08:11:12Z</time>
      </trkpt>
      <trkpt lat="44.43027" lon="5.15831">
        <ele>674.6</ele>
        <time>2022-10-16T08:11:11Z</time>
      </trkpt>
      <trkpt lat="44.43026" lon="5.15831">
        <ele>674.8</ele>
        <time>2022-10-16T08:11:10Z</time>
      </trkpt>
      <trkpt lat="44.43025" lon="5.15832">
        <ele>674.8</ele>
        <time>2022-10-16T08:11:09Z</time>
      </trkpt>
      <trkpt lat="44.43024" lon="5.15832">
        <ele>675</ele>
        <time>2022-10-16T08:11:08Z</time>
      </trkpt>
      <trkpt lat="44.43023" lon="5.15832">
        <ele>675.1</ele>
        <time>2022-10-16T08:11:07Z</time>
      </trkpt>
      <trkpt lat="44.43022" lon="5.15832">
        <ele>675.3</ele>
        <time>2022-10-16T08:11:06Z</time>
      </trkpt>
      <trkpt lat="44.43021" lon="5.15832">
        <ele>675.5</ele>
        <time>2022-10-16T08:11:05Z</time>
      </trkpt>
      <trkpt lat="44.4302" lon="5.15832">
        <ele>675.7</ele>
        <time>2022-10-16T08:11:04Z</time>
      </trkpt>
      <trkpt lat="44.43019" lon="5.15832">
        <ele>675.8</ele>
        <time>2022-10-16T08:11:03Z</time>
      </trkpt>
      <trkpt lat="44.43018" lon="5.15832">
        <ele>676</ele>
        <time>2022-10-16T08:11:02Z</time>
      </trkpt>
      <trkpt lat="44.43017" lon="5.15832">
        <ele>676.2</ele>
        <time>2022-10-16T08:11:01Z</time>
      </trkpt>
      <trkpt lat="44.43016" lon="5.15832">
        <ele>676.4</ele>
        <time>2022-10-16T08:11:00Z</time>
      </trkpt>
      <trkpt lat="44.43014" lon="5.15831">
        <ele>676.9</ele>
        <time>2022-10-16T08:10:59Z</time>
      </trkpt>
      <trkpt lat="44.43013" lon="5.15831">
        <ele>677.1</ele>
        <time>2022-10-16T08:10:58Z</time>
      </trkpt>
      <trkpt lat="44.43012" lon="5.1583">
        <ele>677.4</ele>
        <time>2022-10-16T08:10:57Z</time>
      </trkpt>
      <trkpt lat="44.43011" lon="5.1583">
        <ele>677.6</ele>
        <time>2022-10-16T08:10:56Z</time>
      </trkpt>
      <trkpt lat="44.4301" lon="5.15829">
        <ele>677.9</ele>
        <time>2022-10-16T08:10:55Z</time>
      </trkpt>
      <trkpt lat="44.43009" lon="5.15829">
        <ele>678.1</ele>
        <time>2022-10-16T08:10:54Z</time>
      </trkpt>
      <trkpt lat="44.43008" lon="5.15828">
        <ele>678.4</ele>
        <time>2022-10-16T08:10:53Z</time>
      </trkpt>
      <trkpt lat="44.43007" lon="5.15827">
        <ele>678.8</ele>
        <time>2022-10-16T08:10:52Z</time>
      </trkpt>
      <trkpt lat="44.43006" lon="5.15827">
        <ele>678.9</ele>
        <time>2022-10-16T08:10:51Z</time>
      </trkpt>
      <trkpt lat="44.43005" lon="5.15826">
        <ele>679.3</ele>
        <time>2022-10-16T08:10:50Z</time>
      </trkpt>
      <trkpt lat="44.43004" lon="5.15826">
        <ele>679.4</ele>
        <time>2022-10-16T08:10:49Z</time>
      </trkpt>
      <trkpt lat="44.43003" lon="5.15825">
        <ele>679.7</ele>
        <time>2022-10-16T08:10:48Z</time>
      </trkpt>
      <trkpt lat="44.43002" lon="5.15825">
        <ele>679.9</ele>
        <time>2022-10-16T08:10:47Z</time>
      </trkpt>
      <trkpt lat="44.43001" lon="5.15824">
        <ele>680.2</ele>
        <time>2022-10-16T08:10:46Z</time>
      </trkpt>
      <trkpt lat="44.43" lon="5.15824">
        <ele>680.3</ele>
        <time>2022-10-16T08:10:45Z</time>
      </trkpt>
      <trkpt lat="44.42999" lon="5.15823">
        <ele>680.6</ele>
        <time>2022-10-16T08:10:44Z</time>
      </trkpt>
      <trkpt lat="44.42998" lon="5.15823">
        <ele>680.8</ele>
        <time>2022-10-16T08:10:43Z</time>
      </trkpt>
      <trkpt lat="44.42997" lon="5.15822">
        <ele>681.1</ele>
        <time>2022-10-16T08:10:42Z</time>
      </trkpt>
      <trkpt lat="44.42995" lon="5.15822">
        <ele>681.4</ele>
        <time>2022-10-16T08:10:41Z</time>
      </trkpt>
      <trkpt lat="44.42994" lon="5.15821">
        <ele>681.6</ele>
        <time>2022-10-16T08:10:40Z</time>
      </trkpt>
      <trkpt lat="44.42993" lon="5.15821">
        <ele>681.8</ele>
        <time>2022-10-16T08:10:39Z</time>
      </trkpt>
      <trkpt lat="44.42992" lon="5.15821">
        <ele>681.9</ele>
        <time>2022-10-16T08:10:38Z</time>
      </trkpt>
      <trkpt lat="44.42991" lon="5.15822">
        <ele>681.9</ele>
        <time>2022-10-16T08:10:37Z</time>
      </trkpt>
      <trkpt lat="44.42991" lon="5.15823">
        <ele>681.8</ele>
        <time>2022-10-16T08:10:36Z</time>
      </trkpt>
      <trkpt lat="44.4299" lon="5.15824">
        <ele>681.8</ele>
        <time>2022-10-16T08:10:35Z</time>
      </trkpt>
      <trkpt lat="44.42989" lon="5.15825">
        <ele>681.8</ele>
        <time>2022-10-16T08:10:34Z</time>
      </trkpt>
      <trkpt lat="44.42989" lon="5.15826">
        <ele>681.6</ele>
        <time>2022-10-16T08:10:33Z</time>
      </trkpt>
      <trkpt lat="44.42989" lon="5.15828">
        <ele>681.4</ele>
        <time>2022-10-16T08:10:32Z</time>
      </trkpt>
      <trkpt lat="44.42989" lon="5.15829">
        <ele>681.2</ele>
        <time>2022-10-16T08:10:31Z</time>
      </trkpt>
      <trkpt lat="44.42989" lon="5.1583">
        <ele>681.1</ele>
        <time>2022-10-16T08:10:30Z</time>
      </trkpt>
      <trkpt lat="44.42989" lon="5.15831">
        <ele>680.9</ele>
        <time>2022-10-16T08:10:29Z</time>
      </trkpt>
      <trkpt lat="44.42989" lon="5.15833">
        <ele>680.6</ele>
        <time>2022-10-16T08:10:28Z</time>
      </trkpt>
      <trkpt lat="44.42989" lon="5.15834">
        <ele>680.5</ele>
        <time>2022-10-16T08:10:27Z</time>
      </trkpt>
      <trkpt lat="44.42989" lon="5.15835">
        <ele>680.3</ele>
        <time>2022-10-16T08:10:26Z</time>
      </trkpt>
      <trkpt lat="44.42989" lon="5.15836">
        <ele>680.2</ele>
        <time>2022-10-16T08:10:25Z</time>
      </trkpt>
      <trkpt lat="44.42989" lon="5.15837">
        <ele>680.1</ele>
        <time>2022-10-16T08:10:24Z</time>
      </trkpt>
      <trkpt lat="44.42989" lon="5.15838">
        <ele>679.9</ele>
        <time>2022-10-16T08:10:23Z</time>
      </trkpt>
      <trkpt lat="44.42989" lon="5.1584">
        <ele>679.6</ele>
        <time>2022-10-16T08:10:22Z</time>
      </trkpt>
      <trkpt lat="44.42989" lon="5.15841">
        <ele>679.5</ele>
        <time>2022-10-16T08:10:21Z</time>
      </trkpt>
      <trkpt lat="44.42989" lon="5.15842">
        <ele>679.3</ele>
        <time>2022-10-16T08:10:20Z</time>
      </trkpt>
      <trkpt lat="44.42988" lon="5.15843">
        <ele>679.3</ele>
        <time>2022-10-16T08:10:19Z</time>
      </trkpt>
      <trkpt lat="44.42988" lon="5.15845">
        <ele>679</ele>
        <time>2022-10-16T08:10:18Z</time>
      </trkpt>
      <trkpt lat="44.42988" lon="5.15846">
        <ele>678.9</ele>
        <time>2022-10-16T08:10:17Z</time>
      </trkpt>
      <trkpt lat="44.42987" lon="5.15847">
        <ele>678.9</ele>
        <time>2022-10-16T08:10:16Z</time>
      </trkpt>
      <trkpt lat="44.42987" lon="5.15848">
        <ele>678.8</ele>
        <time>2022-10-16T08:10:15Z</time>
      </trkpt>
      <trkpt lat="44.42986" lon="5.15849">
        <ele>678.8</ele>
        <time>2022-10-16T08:10:14Z</time>
      </trkpt>
      <trkpt lat="44.42986" lon="5.1585">
        <ele>678.6</ele>
        <time>2022-10-16T08:10:13Z</time>
      </trkpt>
      <trkpt lat="44.42985" lon="5.15851">
        <ele>678.6</ele>
        <time>2022-10-16T08:10:12Z</time>
      </trkpt>
      <trkpt lat="44.42985" lon="5.15852">
        <ele>678.5</ele>
        <time>2022-10-16T08:10:11Z</time>
      </trkpt>
      <trkpt lat="44.42984" lon="5.15854">
        <ele>678.3</ele>
        <time>2022-10-16T08:10:10Z</time>
      </trkpt>
      <trkpt lat="44.42984" lon="5.15855">
        <ele>678.2</ele>
        <time>2022-10-16T08:10:09Z</time>
      </trkpt>
      <trkpt lat="44.42984" lon="5.15856">
        <ele>678</ele>
        <time>2022-10-16T08:10:08Z</time>
      </trkpt>
      <trkpt lat="44.42983" lon="5.15857">
        <ele>678</ele>
        <time>2022-10-16T08:10:07Z</time>
      </trkpt>
      <trkpt lat="44.42983" lon="5.15858">
        <ele>677.9</ele>
        <time>2022-10-16T08:10:06Z</time>
      </trkpt>
      <trkpt lat="44.42982" lon="5.15859">
        <ele>677.9</ele>
        <time>2022-10-16T08:10:05Z</time>
      </trkpt>
      <trkpt lat="44.42982" lon="5.1586">
        <ele>677.8</ele>
        <time>2022-10-16T08:10:04Z</time>
      </trkpt>
      <trkpt lat="44.42981" lon="5.15861">
        <ele>677.8</ele>
        <time>2022-10-16T08:10:03Z</time>
      </trkpt>
      <trkpt lat="44.4298" lon="5.15862">
        <ele>677.8</ele>
        <time>2022-10-16T08:10:02Z</time>
      </trkpt>
      <trkpt lat="44.4298" lon="5.15863">
        <ele>677.6</ele>
        <time>2022-10-16T08:10:01Z</time>
      </trkpt>
      <trkpt lat="44.42979" lon="5.15864">
        <ele>677.6</ele>
        <time>2022-10-16T08:10:00Z</time>
      </trkpt>
      <trkpt lat="44.42978" lon="5.15865">
        <ele>677.6</ele>
        <time>2022-10-16T08:09:58Z</time>
      </trkpt>
      <trkpt lat="44.42977" lon="5.15866">
        <ele>677.6</ele>
        <time>2022-10-16T08:09:57Z</time>
      </trkpt>
      <trkpt lat="44.42976" lon="5.15867">
        <ele>677.6</ele>
        <time>2022-10-16T08:09:56Z</time>
      </trkpt>
      <trkpt lat="44.42975" lon="5.15867">
        <ele>677.8</ele>
        <time>2022-10-16T08:09:55Z</time>
      </trkpt>
      <trkpt lat="44.42974" lon="5.15868">
        <ele>677.8</ele>
        <time>2022-10-16T08:09:54Z</time>
      </trkpt>
      <trkpt lat="44.42973" lon="5.15868">
        <ele>677.9</ele>
        <time>2022-10-16T08:09:53Z</time>
      </trkpt>
      <trkpt lat="44.42972" lon="5.15868">
        <ele>678</ele>
        <time>2022-10-16T08:09:52Z</time>
      </trkpt>
      <trkpt lat="44.42971" lon="5.15869">
        <ele>678</ele>
        <time>2022-10-16T08:09:51Z</time>
      </trkpt>
      <trkpt lat="44.4297" lon="5.15869">
        <ele>678.1</ele>
        <time>2022-10-16T08:09:50Z</time>
      </trkpt>
      <trkpt lat="44.42969" lon="5.1587">
        <ele>678.1</ele>
        <time>2022-10-16T08:09:49Z</time>
      </trkpt>
      <trkpt lat="44.42969" lon="5.15871">
        <ele>677.9</ele>
        <time>2022-10-16T08:09:48Z</time>
      </trkpt>
      <trkpt lat="44.42968" lon="5.15871">
        <ele>678</ele>
        <time>2022-10-16T08:09:47Z</time>
      </trkpt>
      <trkpt lat="44.42967" lon="5.15872">
        <ele>678</ele>
        <time>2022-10-16T08:09:46Z</time>
      </trkpt>
      <trkpt lat="44.42966" lon="5.15872">
        <ele>678.1</ele>
        <time>2022-10-16T08:09:45Z</time>
      </trkpt>
      <trkpt lat="44.42965" lon="5.15873">
        <ele>678.1</ele>
        <time>2022-10-16T08:09:44Z</time>
      </trkpt>
      <trkpt lat="44.42964" lon="5.15873">
        <ele>678.2</ele>
        <time>2022-10-16T08:09:43Z</time>
      </trkpt>
      <trkpt lat="44.42963" lon="5.15873">
        <ele>678.3</ele>
        <time>2022-10-16T08:09:42Z</time>
      </trkpt>
      <trkpt lat="44.42962" lon="5.15874">
        <ele>678.2</ele>
        <time>2022-10-16T08:09:41Z</time>
      </trkpt>
      <trkpt lat="44.42961" lon="5.15874">
        <ele>678.4</ele>
        <time>2022-10-16T08:09:40Z</time>
      </trkpt>
      <trkpt lat="44.4296" lon="5.15875">
        <ele>678.3</ele>
        <time>2022-10-16T08:09:39Z</time>
      </trkpt>
      <trkpt lat="44.42959" lon="5.15875">
        <ele>678.4</ele>
        <time>2022-10-16T08:09:38Z</time>
      </trkpt>
      <trkpt lat="44.42958" lon="5.15875">
        <ele>678.5</ele>
        <time>2022-10-16T08:09:37Z</time>
      </trkpt>
      <trkpt lat="44.42957" lon="5.15876">
        <ele>678.5</ele>
        <time>2022-10-16T08:09:36Z</time>
      </trkpt>
      <trkpt lat="44.42956" lon="5.15876">
        <ele>678.6</ele>
        <time>2022-10-16T08:09:35Z</time>
      </trkpt>
      <trkpt lat="44.42955" lon="5.15876">
        <ele>678.7</ele>
        <time>2022-10-16T08:09:34Z</time>
      </trkpt>
      <trkpt lat="44.42954" lon="5.15876">
        <ele>678.8</ele>
        <time>2022-10-16T08:09:33Z</time>
      </trkpt>
      <trkpt lat="44.42953" lon="5.15876">
        <ele>678.9</ele>
        <time>2022-10-16T08:09:32Z</time>
      </trkpt>
      <trkpt lat="44.42952" lon="5.15876">
        <ele>679</ele>
        <time>2022-10-16T08:09:31Z</time>
      </trkpt>
      <trkpt lat="44.42951" lon="5.15876">
        <ele>679.1</ele>
        <time>2022-10-16T08:09:30Z</time>
      </trkpt>
      <trkpt lat="44.4295" lon="5.15875">
        <ele>679.4</ele>
        <time>2022-10-16T08:09:29Z</time>
      </trkpt>
      <trkpt lat="44.42949" lon="5.15875">
        <ele>679.5</ele>
        <time>2022-10-16T08:09:28Z</time>
      </trkpt>
      <trkpt lat="44.42948" lon="5.15874">
        <ele>679.8</ele>
        <time>2022-10-16T08:09:27Z</time>
      </trkpt>
      <trkpt lat="44.42947" lon="5.15874">
        <ele>679.9</ele>
        <time>2022-10-16T08:09:26Z</time>
      </trkpt>
      <trkpt lat="44.42946" lon="5.15874">
        <ele>680</ele>
        <time>2022-10-16T08:09:25Z</time>
      </trkpt>
      <trkpt lat="44.42945" lon="5.15873">
        <ele>680.2</ele>
        <time>2022-10-16T08:09:24Z</time>
      </trkpt>
      <trkpt lat="44.42944" lon="5.15873">
        <ele>680.4</ele>
        <time>2022-10-16T08:09:23Z</time>
      </trkpt>
      <trkpt lat="44.42943" lon="5.15873">
        <ele>680.5</ele>
        <time>2022-10-16T08:09:22Z</time>
      </trkpt>
      <trkpt lat="44.42942" lon="5.15872">
        <ele>680.8</ele>
        <time>2022-10-16T08:09:21Z</time>
      </trkpt>
      <trkpt lat="44.42941" lon="5.15872">
        <ele>681</ele>
        <time>2022-10-16T08:09:20Z</time>
      </trkpt>
      <trkpt lat="44.4294" lon="5.15872">
        <ele>681.1</ele>
        <time>2022-10-16T08:09:19Z</time>
      </trkpt>
      <trkpt lat="44.42939" lon="5.15871">
        <ele>681.4</ele>
        <time>2022-10-16T08:09:18Z</time>
      </trkpt>
      <trkpt lat="44.42938" lon="5.15871">
        <ele>681.6</ele>
        <time>2022-10-16T08:09:17Z</time>
      </trkpt>
      <trkpt lat="44.42937" lon="5.1587">
        <ele>681.9</ele>
        <time>2022-10-16T08:09:16Z</time>
      </trkpt>
      <trkpt lat="44.42936" lon="5.1587">
        <ele>682</ele>
        <time>2022-10-16T08:09:15Z</time>
      </trkpt>
      <trkpt lat="44.42935" lon="5.1587">
        <ele>682.2</ele>
        <time>2022-10-16T08:09:14Z</time>
      </trkpt>
      <trkpt lat="44.42934" lon="5.1587">
        <ele>682.3</ele>
        <time>2022-10-16T08:09:13Z</time>
      </trkpt>
      <trkpt lat="44.42933" lon="5.1587">
        <ele>682.5</ele>
        <time>2022-10-16T08:09:12Z</time>
      </trkpt>
      <trkpt lat="44.42932" lon="5.1587">
        <ele>682.7</ele>
        <time>2022-10-16T08:09:11Z</time>
      </trkpt>
      <trkpt lat="44.42931" lon="5.1587">
        <ele>682.8</ele>
        <time>2022-10-16T08:09:10Z</time>
      </trkpt>
      <trkpt lat="44.4293" lon="5.15871">
        <ele>682.8</ele>
        <time>2022-10-16T08:09:09Z</time>
      </trkpt>
      <trkpt lat="44.42929" lon="5.15871">
        <ele>683</ele>
        <time>2022-10-16T08:09:08Z</time>
      </trkpt>
      <trkpt lat="44.42928" lon="5.15871">
        <ele>683.2</ele>
        <time>2022-10-16T08:09:07Z</time>
      </trkpt>
      <trkpt lat="44.42927" lon="5.15871">
        <ele>683.3</ele>
        <time>2022-10-16T08:09:06Z</time>
      </trkpt>
      <trkpt lat="44.42926" lon="5.15871">
        <ele>683.5</ele>
        <time>2022-10-16T08:09:05Z</time>
      </trkpt>
      <trkpt lat="44.42925" lon="5.15872">
        <ele>683.5</ele>
        <time>2022-10-16T08:09:04Z</time>
      </trkpt>
      <trkpt lat="44.42924" lon="5.15872">
        <ele>683.7</ele>
        <time>2022-10-16T08:09:03Z</time>
      </trkpt>
      <trkpt lat="44.42923" lon="5.15873">
        <ele>683.7</ele>
        <time>2022-10-16T08:09:01Z</time>
      </trkpt>
      <trkpt lat="44.42922" lon="5.15873">
        <ele>683.9</ele>
        <time>2022-10-16T08:09:00Z</time>
      </trkpt>
      <trkpt lat="44.42921" lon="5.15873">
        <ele>684</ele>
        <time>2022-10-16T08:08:59Z</time>
      </trkpt>
      <trkpt lat="44.4292" lon="5.15874">
        <ele>684.1</ele>
        <time>2022-10-16T08:08:57Z</time>
      </trkpt>
      <trkpt lat="44.42919" lon="5.15874">
        <ele>684.2</ele>
        <time>2022-10-16T08:08:56Z</time>
      </trkpt>
      <trkpt lat="44.42918" lon="5.15874">
        <ele>684.4</ele>
        <time>2022-10-16T08:08:55Z</time>
      </trkpt>
      <trkpt lat="44.42917" lon="5.15873">
        <ele>684.7</ele>
        <time>2022-10-16T08:08:54Z</time>
      </trkpt>
      <trkpt lat="44.42916" lon="5.15873">
        <ele>684.8</ele>
        <time>2022-10-16T08:08:53Z</time>
      </trkpt>
      <trkpt lat="44.42915" lon="5.15873">
        <ele>685</ele>
        <time>2022-10-16T08:08:52Z</time>
      </trkpt>
      <trkpt lat="44.42914" lon="5.15873">
        <ele>685.1</ele>
        <time>2022-10-16T08:08:51Z</time>
      </trkpt>
      <trkpt lat="44.42913" lon="5.15873">
        <ele>685.2</ele>
        <time>2022-10-16T08:08:50Z</time>
      </trkpt>
      <trkpt lat="44.42912" lon="5.15873">
        <ele>685.4</ele>
        <time>2022-10-16T08:08:49Z</time>
      </trkpt>
      <trkpt lat="44.42911" lon="5.15872">
        <ele>685.6</ele>
        <time>2022-10-16T08:08:48Z</time>
      </trkpt>
      <trkpt lat="44.42909" lon="5.15873">
        <ele>685.8</ele>
        <time>2022-10-16T08:08:47Z</time>
      </trkpt>
      <trkpt lat="44.42908" lon="5.15873">
        <ele>686</ele>
        <time>2022-10-16T08:08:46Z</time>
      </trkpt>
      <trkpt lat="44.42907" lon="5.15873">
        <ele>686.1</ele>
        <time>2022-10-16T08:08:45Z</time>
      </trkpt>
      <trkpt lat="44.42906" lon="5.15873">
        <ele>686.3</ele>
        <time>2022-10-16T08:08:44Z</time>
      </trkpt>
      <trkpt lat="44.42905" lon="5.15874">
        <ele>686.3</ele>
        <time>2022-10-16T08:08:43Z</time>
      </trkpt>
      <trkpt lat="44.42904" lon="5.15874">
        <ele>686.4</ele>
        <time>2022-10-16T08:08:42Z</time>
      </trkpt>
      <trkpt lat="44.42903" lon="5.15874">
        <ele>686.6</ele>
        <time>2022-10-16T08:08:41Z</time>
      </trkpt>
      <trkpt lat="44.42902" lon="5.15875">
        <ele>686.6</ele>
        <time>2022-10-16T08:08:40Z</time>
      </trkpt>
      <trkpt lat="44.42901" lon="5.15876">
        <ele>686.6</ele>
        <time>2022-10-16T08:08:39Z</time>
      </trkpt>
      <trkpt lat="44.429" lon="5.15876">
        <ele>686.8</ele>
        <time>2022-10-16T08:08:38Z</time>
      </trkpt>
      <trkpt lat="44.429" lon="5.15878">
        <ele>686.6</ele>
        <time>2022-10-16T08:08:37Z</time>
      </trkpt>
      <trkpt lat="44.42899" lon="5.15879">
        <ele>686.6</ele>
        <time>2022-10-16T08:08:36Z</time>
      </trkpt>
      <trkpt lat="44.42899" lon="5.1588">
        <ele>686.5</ele>
        <time>2022-10-16T08:08:35Z</time>
      </trkpt>
      <trkpt lat="44.42898" lon="5.15881">
        <ele>686.5</ele>
        <time>2022-10-16T08:08:34Z</time>
      </trkpt>
      <trkpt lat="44.42898" lon="5.15882">
        <ele>686.4</ele>
        <time>2022-10-16T08:08:33Z</time>
      </trkpt>
      <trkpt lat="44.42897" lon="5.15883">
        <ele>686.5</ele>
        <time>2022-10-16T08:08:32Z</time>
      </trkpt>
      <trkpt lat="44.42896" lon="5.15884">
        <ele>686.5</ele>
        <time>2022-10-16T08:08:31Z</time>
      </trkpt>
      <trkpt lat="44.42895" lon="5.15885">
        <ele>686.5</ele>
        <time>2022-10-16T08:08:30Z</time>
      </trkpt>
      <trkpt lat="44.42895" lon="5.15886">
        <ele>686.4</ele>
        <time>2022-10-16T08:08:29Z</time>
      </trkpt>
      <trkpt lat="44.42894" lon="5.15887">
        <ele>686.5</ele>
        <time>2022-10-16T08:08:28Z</time>
      </trkpt>
      <trkpt lat="44.42893" lon="5.15887">
        <ele>686.6</ele>
        <time>2022-10-16T08:08:27Z</time>
      </trkpt>
      <trkpt lat="44.42892" lon="5.15888">
        <ele>686.6</ele>
        <time>2022-10-16T08:08:26Z</time>
      </trkpt>
      <trkpt lat="44.42891" lon="5.15888">
        <ele>686.8</ele>
        <time>2022-10-16T08:08:25Z</time>
      </trkpt>
      <trkpt lat="44.4289" lon="5.15889">
        <ele>686.8</ele>
        <time>2022-10-16T08:08:24Z</time>
      </trkpt>
      <trkpt lat="44.42889" lon="5.15889">
        <ele>687</ele>
        <time>2022-10-16T08:08:23Z</time>
      </trkpt>
      <trkpt lat="44.42888" lon="5.1589">
        <ele>687.1</ele>
        <time>2022-10-16T08:08:22Z</time>
      </trkpt>
      <trkpt lat="44.42887" lon="5.1589">
        <ele>687.2</ele>
        <time>2022-10-16T08:08:21Z</time>
      </trkpt>
      <trkpt lat="44.42886" lon="5.15891">
        <ele>687.3</ele>
        <time>2022-10-16T08:08:20Z</time>
      </trkpt>
      <trkpt lat="44.42884" lon="5.15891">
        <ele>687.6</ele>
        <time>2022-10-16T08:08:19Z</time>
      </trkpt>
      <trkpt lat="44.42883" lon="5.15892">
        <ele>687.8</ele>
        <time>2022-10-16T08:08:18Z</time>
      </trkpt>
      <trkpt lat="44.42882" lon="5.15892">
        <ele>687.9</ele>
        <time>2022-10-16T08:08:17Z</time>
      </trkpt>
      <trkpt lat="44.42881" lon="5.15892">
        <ele>688.1</ele>
        <time>2022-10-16T08:08:16Z</time>
      </trkpt>
      <trkpt lat="44.4288" lon="5.15893">
        <ele>688.2</ele>
        <time>2022-10-16T08:08:15Z</time>
      </trkpt>
      <trkpt lat="44.42879" lon="5.15893">
        <ele>688.3</ele>
        <time>2022-10-16T08:08:14Z</time>
      </trkpt>
      <trkpt lat="44.42877" lon="5.15893">
        <ele>688.6</ele>
        <time>2022-10-16T08:08:13Z</time>
      </trkpt>
      <trkpt lat="44.42876" lon="5.15893">
        <ele>688.8</ele>
        <time>2022-10-16T08:08:12Z</time>
      </trkpt>
      <trkpt lat="44.42875" lon="5.15893">
        <ele>688.9</ele>
        <time>2022-10-16T08:08:11Z</time>
      </trkpt>
      <trkpt lat="44.42874" lon="5.15893">
        <ele>689.1</ele>
        <time>2022-10-16T08:08:10Z</time>
      </trkpt>
      <trkpt lat="44.42873" lon="5.15893">
        <ele>689.2</ele>
        <time>2022-10-16T08:08:09Z</time>
      </trkpt>
      <trkpt lat="44.42871" lon="5.15893">
        <ele>689.5</ele>
        <time>2022-10-16T08:08:08Z</time>
      </trkpt>
      <trkpt lat="44.4287" lon="5.15894">
        <ele>689.7</ele>
        <time>2022-10-16T08:08:07Z</time>
      </trkpt>
      <trkpt lat="44.42869" lon="5.15894">
        <ele>689.8</ele>
        <time>2022-10-16T08:08:06Z</time>
      </trkpt>
      <trkpt lat="44.42868" lon="5.15894">
        <ele>690</ele>
        <time>2022-10-16T08:08:04Z</time>
      </trkpt>
      <trkpt lat="44.42867" lon="5.15894">
        <ele>690.1</ele>
        <time>2022-10-16T08:08:03Z</time>
      </trkpt>
      <trkpt lat="44.42866" lon="5.15895">
        <ele>690.3</ele>
        <time>2022-10-16T08:08:02Z</time>
      </trkpt>
      <trkpt lat="44.42865" lon="5.15895">
        <ele>690.4</ele>
        <time>2022-10-16T08:08:01Z</time>
      </trkpt>
      <trkpt lat="44.42864" lon="5.15896">
        <ele>690.6</ele>
        <time>2022-10-16T08:08:00Z</time>
      </trkpt>
      <trkpt lat="44.42863" lon="5.15896">
        <ele>690.7</ele>
        <time>2022-10-16T08:07:59Z</time>
      </trkpt>
      <trkpt lat="44.42862" lon="5.15897">
        <ele>690.9</ele>
        <time>2022-10-16T08:07:58Z</time>
      </trkpt>
      <trkpt lat="44.42861" lon="5.15897">
        <ele>691</ele>
        <time>2022-10-16T08:07:57Z</time>
      </trkpt>
      <trkpt lat="44.4286" lon="5.15898">
        <ele>691</ele>
        <time>2022-10-16T08:07:56Z</time>
      </trkpt>
      <trkpt lat="44.42859" lon="5.15898">
        <ele>691</ele>
        <time>2022-10-16T08:07:55Z</time>
      </trkpt>
      <trkpt lat="44.42858" lon="5.15899">
        <ele>691</ele>
        <time>2022-10-16T08:07:54Z</time>
      </trkpt>
      <trkpt lat="44.42857" lon="5.15899">
        <ele>691.1</ele>
        <time>2022-10-16T08:07:53Z</time>
      </trkpt>
      <trkpt lat="44.42856" lon="5.15899">
        <ele>691.1</ele>
        <time>2022-10-16T08:07:52Z</time>
      </trkpt>
      <trkpt lat="44.42854" lon="5.159">
        <ele>691.1</ele>
        <time>2022-10-16T08:07:51Z</time>
      </trkpt>
      <trkpt lat="44.42853" lon="5.159">
        <ele>691.1</ele>
        <time>2022-10-16T08:07:50Z</time>
      </trkpt>
      <trkpt lat="44.42852" lon="5.15901">
        <ele>691.1</ele>
        <time>2022-10-16T08:07:49Z</time>
      </trkpt>
      <trkpt lat="44.42851" lon="5.15901">
        <ele>691.2</ele>
        <time>2022-10-16T08:07:48Z</time>
      </trkpt>
      <trkpt lat="44.4285" lon="5.15901">
        <ele>691.2</ele>
        <time>2022-10-16T08:07:47Z</time>
      </trkpt>
      <trkpt lat="44.42849" lon="5.15902">
        <ele>691.2</ele>
        <time>2022-10-16T08:07:46Z</time>
      </trkpt>
      <trkpt lat="44.42848" lon="5.15902">
        <ele>691.2</ele>
        <time>2022-10-16T08:07:45Z</time>
      </trkpt>
      <trkpt lat="44.42847" lon="5.15902">
        <ele>691.2</ele>
        <time>2022-10-16T08:07:44Z</time>
      </trkpt>
      <trkpt lat="44.42846" lon="5.15902">
        <ele>691.3</ele>
        <time>2022-10-16T08:07:42Z</time>
      </trkpt>
      <trkpt lat="44.42845" lon="5.15902">
        <ele>691.3</ele>
        <time>2022-10-16T08:07:41Z</time>
      </trkpt>
      <trkpt lat="44.42844" lon="5.15901">
        <ele>691.3</ele>
        <time>2022-10-16T08:07:40Z</time>
      </trkpt>
      <trkpt lat="44.42843" lon="5.15901">
        <ele>691.3</ele>
        <time>2022-10-16T08:07:39Z</time>
      </trkpt>
      <trkpt lat="44.42842" lon="5.159">
        <ele>691.3</ele>
        <time>2022-10-16T08:07:38Z</time>
      </trkpt>
      <trkpt lat="44.42841" lon="5.15899">
        <ele>691.3</ele>
        <time>2022-10-16T08:07:37Z</time>
      </trkpt>
      <trkpt lat="44.4284" lon="5.15899">
        <ele>691.3</ele>
        <time>2022-10-16T08:07:36Z</time>
      </trkpt>
      <trkpt lat="44.42839" lon="5.15898">
        <ele>691.3</ele>
        <time>2022-10-16T08:07:35Z</time>
      </trkpt>
      <trkpt lat="44.42838" lon="5.15897">
        <ele>691.2</ele>
        <time>2022-10-16T08:07:34Z</time>
      </trkpt>
      <trkpt lat="44.42837" lon="5.15896">
        <ele>691.2</ele>
        <time>2022-10-16T08:07:33Z</time>
      </trkpt>
      <trkpt lat="44.42836" lon="5.15895">
        <ele>691.2</ele>
        <time>2022-10-16T08:07:32Z</time>
      </trkpt>
      <trkpt lat="44.42835" lon="5.15894">
        <ele>691.2</ele>
        <time>2022-10-16T08:07:31Z</time>
      </trkpt>
      <trkpt lat="44.42834" lon="5.15893">
        <ele>691.1</ele>
        <time>2022-10-16T08:07:30Z</time>
      </trkpt>
      <trkpt lat="44.42833" lon="5.15892">
        <ele>691.1</ele>
        <time>2022-10-16T08:07:29Z</time>
      </trkpt>
      <trkpt lat="44.42832" lon="5.15892">
        <ele>690.9</ele>
        <time>2022-10-16T08:07:28Z</time>
      </trkpt>
      <trkpt lat="44.4283" lon="5.15891">
        <ele>690.5</ele>
        <time>2022-10-16T08:07:27Z</time>
      </trkpt>
      <trkpt lat="44.42829" lon="5.15891">
        <ele>690.3</ele>
        <time>2022-10-16T08:07:26Z</time>
      </trkpt>
      <trkpt lat="44.42828" lon="5.1589">
        <ele>690.1</ele>
        <time>2022-10-16T08:07:25Z</time>
      </trkpt>
      <trkpt lat="44.42827" lon="5.1589">
        <ele>689.9</ele>
        <time>2022-10-16T08:07:24Z</time>
      </trkpt>
      <trkpt lat="44.42826" lon="5.15889">
        <ele>689.7</ele>
        <time>2022-10-16T08:07:23Z</time>
      </trkpt>
      <trkpt lat="44.42825" lon="5.15889">
        <ele>689.5</ele>
        <time>2022-10-16T08:07:22Z</time>
      </trkpt>
      <trkpt lat="44.42824" lon="5.15888">
        <ele>689.4</ele>
        <time>2022-10-16T08:07:21Z</time>
      </trkpt>
      <trkpt lat="44.42823" lon="5.15887">
        <ele>689.2</ele>
        <time>2022-10-16T08:07:20Z</time>
      </trkpt>
      <trkpt lat="44.42823" lon="5.15886">
        <ele>689.3</ele>
        <time>2022-10-16T08:07:19Z</time>
      </trkpt>
      <trkpt lat="44.42822" lon="5.15885">
        <ele>689.2</ele>
        <time>2022-10-16T08:07:18Z</time>
      </trkpt>
      <trkpt lat="44.42821" lon="5.15884">
        <ele>689</ele>
        <time>2022-10-16T08:07:17Z</time>
      </trkpt>
      <trkpt lat="44.42821" lon="5.15883">
        <ele>689.1</ele>
        <time>2022-10-16T08:07:16Z</time>
      </trkpt>
      <trkpt lat="44.4282" lon="5.15882">
        <ele>689</ele>
        <time>2022-10-16T08:07:15Z</time>
      </trkpt>
      <trkpt lat="44.42819" lon="5.15881">
        <ele>688.9</ele>
        <time>2022-10-16T08:07:14Z</time>
      </trkpt>
      <trkpt lat="44.42819" lon="5.15879">
        <ele>689</ele>
        <time>2022-10-16T08:07:13Z</time>
      </trkpt>
      <trkpt lat="44.42818" lon="5.15878">
        <ele>688.8</ele>
        <time>2022-10-16T08:07:12Z</time>
      </trkpt>
      <trkpt lat="44.42818" lon="5.15877">
        <ele>688.9</ele>
        <time>2022-10-16T08:07:11Z</time>
      </trkpt>
      <trkpt lat="44.42817" lon="5.15875">
        <ele>688.9</ele>
        <time>2022-10-16T08:07:10Z</time>
      </trkpt>
      <trkpt lat="44.42816" lon="5.15874">
        <ele>688.8</ele>
        <time>2022-10-16T08:07:09Z</time>
      </trkpt>
      <trkpt lat="44.42816" lon="5.15873">
        <ele>688.8</ele>
        <time>2022-10-16T08:07:08Z</time>
      </trkpt>
      <trkpt lat="44.42815" lon="5.15871">
        <ele>688.8</ele>
        <time>2022-10-16T08:07:07Z</time>
      </trkpt>
      <trkpt lat="44.42815" lon="5.1587">
        <ele>688.8</ele>
        <time>2022-10-16T08:07:06Z</time>
      </trkpt>
      <trkpt lat="44.42814" lon="5.15869">
        <ele>688.7</ele>
        <time>2022-10-16T08:07:05Z</time>
      </trkpt>
      <trkpt lat="44.42813" lon="5.15867">
        <ele>688.7</ele>
        <time>2022-10-16T08:07:04Z</time>
      </trkpt>
      <trkpt lat="44.42812" lon="5.15866">
        <ele>688.6</ele>
        <time>2022-10-16T08:07:03Z</time>
      </trkpt>
      <trkpt lat="44.42812" lon="5.15865">
        <ele>688.7</ele>
        <time>2022-10-16T08:07:02Z</time>
      </trkpt>
      <trkpt lat="44.42811" lon="5.15864">
        <ele>688.6</ele>
        <time>2022-10-16T08:07:01Z</time>
      </trkpt>
      <trkpt lat="44.4281" lon="5.15862">
        <ele>688.6</ele>
        <time>2022-10-16T08:07:00Z</time>
      </trkpt>
      <trkpt lat="44.4281" lon="5.15861">
        <ele>688.7</ele>
        <time>2022-10-16T08:06:59Z</time>
      </trkpt>
      <trkpt lat="44.42809" lon="5.1586">
        <ele>688.7</ele>
        <time>2022-10-16T08:06:58Z</time>
      </trkpt>
      <trkpt lat="44.42808" lon="5.15858">
        <ele>688.8</ele>
        <time>2022-10-16T08:06:57Z</time>
      </trkpt>
      <trkpt lat="44.42808" lon="5.15857">
        <ele>688.9</ele>
        <time>2022-10-16T08:06:56Z</time>
      </trkpt>
      <trkpt lat="44.42807" lon="5.15855">
        <ele>689.1</ele>
        <time>2022-10-16T08:06:55Z</time>
      </trkpt>
      <trkpt lat="44.42806" lon="5.15854">
        <ele>689.1</ele>
        <time>2022-10-16T08:06:54Z</time>
      </trkpt>
      <trkpt lat="44.42806" lon="5.15853">
        <ele>689.2</ele>
        <time>2022-10-16T08:06:53Z</time>
      </trkpt>
      <trkpt lat="44.42805" lon="5.15851">
        <ele>689.4</ele>
        <time>2022-10-16T08:06:52Z</time>
      </trkpt>
      <trkpt lat="44.42805" lon="5.1585">
        <ele>689.5</ele>
        <time>2022-10-16T08:06:51Z</time>
      </trkpt>
      <trkpt lat="44.42805" lon="5.15849">
        <ele>689.7</ele>
        <time>2022-10-16T08:06:50Z</time>
      </trkpt>
      <trkpt lat="44.42804" lon="5.15847">
        <ele>689.8</ele>
        <time>2022-10-16T08:06:49Z</time>
      </trkpt>
      <trkpt lat="44.42804" lon="5.15846">
        <ele>689.9</ele>
        <time>2022-10-16T08:06:48Z</time>
      </trkpt>
      <trkpt lat="44.42803" lon="5.15844">
        <ele>690.1</ele>
        <time>2022-10-16T08:06:47Z</time>
      </trkpt>
      <trkpt lat="44.42803" lon="5.15843">
        <ele>690.2</ele>
        <time>2022-10-16T08:06:46Z</time>
      </trkpt>
      <trkpt lat="44.42802" lon="5.15841">
        <ele>690.3</ele>
        <time>2022-10-16T08:06:45Z</time>
      </trkpt>
      <trkpt lat="44.42802" lon="5.15839">
        <ele>690.6</ele>
        <time>2022-10-16T08:06:44Z</time>
      </trkpt>
      <trkpt lat="44.42801" lon="5.15838">
        <ele>690.6</ele>
        <time>2022-10-16T08:06:43Z</time>
      </trkpt>
      <trkpt lat="44.42801" lon="5.15836">
        <ele>690.9</ele>
        <time>2022-10-16T08:06:42Z</time>
      </trkpt>
      <trkpt lat="44.428" lon="5.15835">
        <ele>690.9</ele>
        <time>2022-10-16T08:06:41Z</time>
      </trkpt>
      <trkpt lat="44.42799" lon="5.15834">
        <ele>691</ele>
        <time>2022-10-16T08:06:40Z</time>
      </trkpt>
      <trkpt lat="44.42799" lon="5.15833">
        <ele>691.1</ele>
        <time>2022-10-16T08:06:39Z</time>
      </trkpt>
      <trkpt lat="44.42798" lon="5.15832">
        <ele>691.2</ele>
        <time>2022-10-16T08:06:38Z</time>
      </trkpt>
      <trkpt lat="44.42797" lon="5.15831">
        <ele>691.2</ele>
        <time>2022-10-16T08:06:37Z</time>
      </trkpt>
      <trkpt lat="44.42796" lon="5.1583">
        <ele>691.2</ele>
        <time>2022-10-16T08:06:36Z</time>
      </trkpt>
      <trkpt lat="44.42795" lon="5.15829">
        <ele>691.3</ele>
        <time>2022-10-16T08:06:35Z</time>
      </trkpt>
      <trkpt lat="44.42794" lon="5.15828">
        <ele>691.3</ele>
        <time>2022-10-16T08:06:34Z</time>
      </trkpt>
      <trkpt lat="44.42793" lon="5.15827">
        <ele>691.3</ele>
        <time>2022-10-16T08:06:33Z</time>
      </trkpt>
      <trkpt lat="44.42792" lon="5.15827">
        <ele>691.2</ele>
        <time>2022-10-16T08:06:32Z</time>
      </trkpt>
      <trkpt lat="44.4279" lon="5.15826">
        <ele>691.1</ele>
        <time>2022-10-16T08:06:31Z</time>
      </trkpt>
      <trkpt lat="44.42789" lon="5.15826">
        <ele>690.9</ele>
        <time>2022-10-16T08:06:30Z</time>
      </trkpt>
      <trkpt lat="44.42788" lon="5.15825">
        <ele>691</ele>
        <time>2022-10-16T08:06:29Z</time>
      </trkpt>
      <trkpt lat="44.42787" lon="5.15824">
        <ele>691</ele>
        <time>2022-10-16T08:06:28Z</time>
      </trkpt>
      <trkpt lat="44.42786" lon="5.15823">
        <ele>691</ele>
        <time>2022-10-16T08:06:27Z</time>
      </trkpt>
      <trkpt lat="44.42785" lon="5.15823">
        <ele>690.9</ele>
        <time>2022-10-16T08:06:26Z</time>
      </trkpt>
      <trkpt lat="44.42784" lon="5.15822">
        <ele>690.9</ele>
        <time>2022-10-16T08:06:25Z</time>
      </trkpt>
      <trkpt lat="44.42784" lon="5.15821">
        <ele>691.1</ele>
        <time>2022-10-16T08:06:24Z</time>
      </trkpt>
      <trkpt lat="44.42783" lon="5.15821">
        <ele>691</ele>
        <time>2022-10-16T08:06:23Z</time>
      </trkpt>
      <trkpt lat="44.42782" lon="5.1582">
        <ele>691</ele>
        <time>2022-10-16T08:06:22Z</time>
      </trkpt>
      <trkpt lat="44.42781" lon="5.1582">
        <ele>690.9</ele>
        <time>2022-10-16T08:06:21Z</time>
      </trkpt>
      <trkpt lat="44.4278" lon="5.15819">
        <ele>690.9</ele>
        <time>2022-10-16T08:06:20Z</time>
      </trkpt>
      <trkpt lat="44.4278" lon="5.15818">
        <ele>691.1</ele>
        <time>2022-10-16T08:06:19Z</time>
      </trkpt>
      <trkpt lat="44.42779" lon="5.15818">
        <ele>690.9</ele>
        <time>2022-10-16T08:06:18Z</time>
      </trkpt>
      <trkpt lat="44.42779" lon="5.15817">
        <ele>691.1</ele>
        <time>2022-10-16T08:06:17Z</time>
      </trkpt>
      <trkpt lat="44.42778" lon="5.15816">
        <ele>691.2</ele>
        <time>2022-10-16T08:06:16Z</time>
      </trkpt>
      <trkpt lat="44.42777" lon="5.15815">
        <ele>691.2</ele>
        <time>2022-10-16T08:06:15Z</time>
      </trkpt>
      <trkpt lat="44.42777" lon="5.15814">
        <ele>691.3</ele>
        <time>2022-10-16T08:06:14Z</time>
      </trkpt>
      <trkpt lat="44.42776" lon="5.15813">
        <ele>691.3</ele>
        <time>2022-10-16T08:06:13Z</time>
      </trkpt>
      <trkpt lat="44.42775" lon="5.15812">
        <ele>691.3</ele>
        <time>2022-10-16T08:06:12Z</time>
      </trkpt>
      <trkpt lat="44.42775" lon="5.15811">
        <ele>691.5</ele>
        <time>2022-10-16T08:06:11Z</time>
      </trkpt>
      <trkpt lat="44.42774" lon="5.1581">
        <ele>691.5</ele>
        <time>2022-10-16T08:06:10Z</time>
      </trkpt>
      <trkpt lat="44.42774" lon="5.15809">
        <ele>691.7</ele>
        <time>2022-10-16T08:06:09Z</time>
      </trkpt>
      <trkpt lat="44.42773" lon="5.15808">
        <ele>691.7</ele>
        <time>2022-10-16T08:06:07Z</time>
      </trkpt>
      <trkpt lat="44.42772" lon="5.15807">
        <ele>691.7</ele>
        <time>2022-10-16T08:06:06Z</time>
      </trkpt>
      <trkpt lat="44.42772" lon="5.15806">
        <ele>691.9</ele>
        <time>2022-10-16T08:06:05Z</time>
      </trkpt>
      <trkpt lat="44.42771" lon="5.15804">
        <ele>692.1</ele>
        <time>2022-10-16T08:06:04Z</time>
      </trkpt>
      <trkpt lat="44.42771" lon="5.15802">
        <ele>692.4</ele>
        <time>2022-10-16T08:06:03Z</time>
      </trkpt>
      <trkpt lat="44.4277" lon="5.158">
        <ele>692.6</ele>
        <time>2022-10-16T08:06:02Z</time>
      </trkpt>
      <trkpt lat="44.4277" lon="5.15795">
        <ele>693.5</ele>
        <time>2022-10-16T08:02:08Z</time>
      </trkpt>
      <trkpt lat="44.42769" lon="5.15794">
        <ele>693.5</ele>
        <time>2022-10-16T08:02:07Z</time>
      </trkpt>
      <trkpt lat="44.42769" lon="5.15793">
        <ele>693.7</ele>
        <time>2022-10-16T08:02:06Z</time>
      </trkpt>
      <trkpt lat="44.42768" lon="5.15792">
        <ele>693.7</ele>
        <time>2022-10-16T08:02:05Z</time>
      </trkpt>
      <trkpt lat="44.42768" lon="5.15791">
        <ele>693.9</ele>
        <time>2022-10-16T08:02:04Z</time>
      </trkpt>
      <trkpt lat="44.42768" lon="5.1579">
        <ele>694</ele>
        <time>2022-10-16T08:02:03Z</time>
      </trkpt>
      <trkpt lat="44.42767" lon="5.15789">
        <ele>694</ele>
        <time>2022-10-16T08:02:02Z</time>
      </trkpt>
      <trkpt lat="44.42767" lon="5.15788">
        <ele>694.2</ele>
        <time>2022-10-16T08:02:01Z</time>
      </trkpt>
      <trkpt lat="44.42766" lon="5.15787">
        <ele>694.2</ele>
        <time>2022-10-16T08:02:00Z</time>
      </trkpt>
      <trkpt lat="44.42765" lon="5.15786">
        <ele>694.2</ele>
        <time>2022-10-16T08:01:58Z</time>
      </trkpt>
      <trkpt lat="44.42764" lon="5.15785">
        <ele>694.2</ele>
        <time>2022-10-16T08:01:57Z</time>
      </trkpt>
      <trkpt lat="44.42763" lon="5.15784">
        <ele>694.2</ele>
        <time>2022-10-16T08:01:56Z</time>
      </trkpt>
      <trkpt lat="44.42762" lon="5.15783">
        <ele>694.2</ele>
        <time>2022-10-16T08:01:55Z</time>
      </trkpt>
      <trkpt lat="44.42761" lon="5.15783">
        <ele>694</ele>
        <time>2022-10-16T08:01:54Z</time>
      </trkpt>
      <trkpt lat="44.4276" lon="5.15782">
        <ele>694</ele>
        <time>2022-10-16T08:01:53Z</time>
      </trkpt>
      <trkpt lat="44.4276" lon="5.15781">
        <ele>694.2</ele>
        <time>2022-10-16T08:01:52Z</time>
      </trkpt>
      <trkpt lat="44.42759" lon="5.15781">
        <ele>694</ele>
        <time>2022-10-16T08:01:51Z</time>
      </trkpt>
      <trkpt lat="44.42758" lon="5.1578">
        <ele>694</ele>
        <time>2022-10-16T08:01:50Z</time>
      </trkpt>
      <trkpt lat="44.42757" lon="5.15779">
        <ele>694</ele>
        <time>2022-10-16T08:01:49Z</time>
      </trkpt>
      <trkpt lat="44.42756" lon="5.15779">
        <ele>693.9</ele>
        <time>2022-10-16T08:01:48Z</time>
      </trkpt>
      <trkpt lat="44.42755" lon="5.15778">
        <ele>693.9</ele>
        <time>2022-10-16T08:01:47Z</time>
      </trkpt>
      <trkpt lat="44.42754" lon="5.15778">
        <ele>693.7</ele>
        <time>2022-10-16T08:01:46Z</time>
      </trkpt>
      <trkpt lat="44.42753" lon="5.15777">
        <ele>693.7</ele>
        <time>2022-10-16T08:01:45Z</time>
      </trkpt>
      <trkpt lat="44.42752" lon="5.15777">
        <ele>693.5</ele>
        <time>2022-10-16T08:01:44Z</time>
      </trkpt>
      <trkpt lat="44.42751" lon="5.15776">
        <ele>693.6</ele>
        <time>2022-10-16T08:01:43Z</time>
      </trkpt>
      <trkpt lat="44.4275" lon="5.15776">
        <ele>693.4</ele>
        <time>2022-10-16T08:01:42Z</time>
      </trkpt>
      <trkpt lat="44.42749" lon="5.15775">
        <ele>693.4</ele>
        <time>2022-10-16T08:01:41Z</time>
      </trkpt>
      <trkpt lat="44.42748" lon="5.15775">
        <ele>693.2</ele>
        <time>2022-10-16T08:01:40Z</time>
      </trkpt>
      <trkpt lat="44.42747" lon="5.15774">
        <ele>693.2</ele>
        <time>2022-10-16T08:01:39Z</time>
      </trkpt>
      <trkpt lat="44.42746" lon="5.15774">
        <ele>693</ele>
        <time>2022-10-16T08:01:38Z</time>
      </trkpt>
      <trkpt lat="44.42745" lon="5.15773">
        <ele>693</ele>
        <time>2022-10-16T08:01:37Z</time>
      </trkpt>
      <trkpt lat="44.42744" lon="5.15773">
        <ele>692.7</ele>
        <time>2022-10-16T08:01:36Z</time>
      </trkpt>
      <trkpt lat="44.42743" lon="5.15772">
        <ele>692.7</ele>
        <time>2022-10-16T08:01:35Z</time>
      </trkpt>
      <trkpt lat="44.42742" lon="5.15772">
        <ele>692.5</ele>
        <time>2022-10-16T08:01:34Z</time>
      </trkpt>
      <trkpt lat="44.42741" lon="5.15771">
        <ele>692.5</ele>
        <time>2022-10-16T08:01:33Z</time>
      </trkpt>
      <trkpt lat="44.4274" lon="5.15771">
        <ele>692.3</ele>
        <time>2022-10-16T08:01:32Z</time>
      </trkpt>
      <trkpt lat="44.42739" lon="5.1577">
        <ele>692.3</ele>
        <time>2022-10-16T08:01:31Z</time>
      </trkpt>
      <trkpt lat="44.42738" lon="5.1577">
        <ele>692.1</ele>
        <time>2022-10-16T08:01:30Z</time>
      </trkpt>
      <trkpt lat="44.42737" lon="5.15769">
        <ele>692.1</ele>
        <time>2022-10-16T08:01:29Z</time>
      </trkpt>
      <trkpt lat="44.42736" lon="5.15768">
        <ele>692.1</ele>
        <time>2022-10-16T08:01:28Z</time>
      </trkpt>
      <trkpt lat="44.42735" lon="5.15767">
        <ele>692.1</ele>
        <time>2022-10-16T08:01:27Z</time>
      </trkpt>
      <trkpt lat="44.42734" lon="5.15767">
        <ele>691.9</ele>
        <time>2022-10-16T08:01:26Z</time>
      </trkpt>
      <trkpt lat="44.42733" lon="5.15766">
        <ele>691.9</ele>
        <time>2022-10-16T08:01:25Z</time>
      </trkpt>
      <trkpt lat="44.42732" lon="5.15766">
        <ele>691.7</ele>
        <time>2022-10-16T08:01:24Z</time>
      </trkpt>
      <trkpt lat="44.42731" lon="5.15765">
        <ele>691.7</ele>
        <time>2022-10-16T08:01:23Z</time>
      </trkpt>
      <trkpt lat="44.4273" lon="5.15765">
        <ele>691.4</ele>
        <time>2022-10-16T08:01:22Z</time>
      </trkpt>
      <trkpt lat="44.42729" lon="5.15764">
        <ele>691.4</ele>
        <time>2022-10-16T08:01:21Z</time>
      </trkpt>
      <trkpt lat="44.42728" lon="5.15763">
        <ele>691.4</ele>
        <time>2022-10-16T08:01:20Z</time>
      </trkpt>
      <trkpt lat="44.42727" lon="5.15762">
        <ele>691.4</ele>
        <time>2022-10-16T08:01:19Z</time>
      </trkpt>
      <trkpt lat="44.42726" lon="5.15762">
        <ele>691.2</ele>
        <time>2022-10-16T08:01:18Z</time>
      </trkpt>
      <trkpt lat="44.42725" lon="5.15761">
        <ele>691.2</ele>
        <time>2022-10-16T08:01:17Z</time>
      </trkpt>
      <trkpt lat="44.42724" lon="5.1576">
        <ele>691.2</ele>
        <time>2022-10-16T08:01:16Z</time>
      </trkpt>
      <trkpt lat="44.42723" lon="5.15759">
        <ele>691.2</ele>
        <time>2022-10-16T08:01:15Z</time>
      </trkpt>
      <trkpt lat="44.42722" lon="5.15758">
        <ele>691.2</ele>
        <time>2022-10-16T08:01:14Z</time>
      </trkpt>
      <trkpt lat="44.42721" lon="5.15757">
        <ele>691.2</ele>
        <time>2022-10-16T08:01:13Z</time>
      </trkpt>
      <trkpt lat="44.4272" lon="5.15756">
        <ele>691.2</ele>
        <time>2022-10-16T08:01:12Z</time>
      </trkpt>
      <trkpt lat="44.42719" lon="5.15755">
        <ele>691.2</ele>
        <time>2022-10-16T08:01:11Z</time>
      </trkpt>
      <trkpt lat="44.42718" lon="5.15755">
        <ele>691</ele>
        <time>2022-10-16T08:01:10Z</time>
      </trkpt>
      <trkpt lat="44.42717" lon="5.15754">
        <ele>691</ele>
        <time>2022-10-16T08:01:09Z</time>
      </trkpt>
      <trkpt lat="44.42716" lon="5.15753">
        <ele>691</ele>
        <time>2022-10-16T08:01:07Z</time>
      </trkpt>
      <trkpt lat="44.42715" lon="5.15752">
        <ele>691</ele>
        <time>2022-10-16T08:01:06Z</time>
      </trkpt>
      <trkpt lat="44.42714" lon="5.15751">
        <ele>691</ele>
        <time>2022-10-16T08:01:05Z</time>
      </trkpt>
      <trkpt lat="44.42713" lon="5.1575">
        <ele>691</ele>
        <time>2022-10-16T08:01:04Z</time>
      </trkpt>
      <trkpt lat="44.42713" lon="5.15749">
        <ele>691.3</ele>
        <time>2022-10-16T08:01:03Z</time>
      </trkpt>
      <trkpt lat="44.42712" lon="5.15748">
        <ele>691.3</ele>
        <time>2022-10-16T08:01:02Z</time>
      </trkpt>
      <trkpt lat="44.42711" lon="5.15747">
        <ele>691.4</ele>
        <time>2022-10-16T08:01:01Z</time>
      </trkpt>
      <trkpt lat="44.42711" lon="5.15746">
        <ele>691.6</ele>
        <time>2022-10-16T08:01:00Z</time>
      </trkpt>
      <trkpt lat="44.4271" lon="5.15745">
        <ele>691.7</ele>
        <time>2022-10-16T08:00:59Z</time>
      </trkpt>
      <trkpt lat="44.42709" lon="5.15744">
        <ele>691.8</ele>
        <time>2022-10-16T08:00:58Z</time>
      </trkpt>
      <trkpt lat="44.42709" lon="5.15743">
        <ele>692</ele>
        <time>2022-10-16T08:00:57Z</time>
      </trkpt>
      <trkpt lat="44.42708" lon="5.15742">
        <ele>692.1</ele>
        <time>2022-10-16T08:00:56Z</time>
      </trkpt>
      <trkpt lat="44.42707" lon="5.15741">
        <ele>692.2</ele>
        <time>2022-10-16T08:00:55Z</time>
      </trkpt>
      <trkpt lat="44.42706" lon="5.1574">
        <ele>692.2</ele>
        <time>2022-10-16T08:00:54Z</time>
      </trkpt>
      <trkpt lat="44.42705" lon="5.15739">
        <ele>692.3</ele>
        <time>2022-10-16T08:00:53Z</time>
      </trkpt>
      <trkpt lat="44.42704" lon="5.15739">
        <ele>692.1</ele>
        <time>2022-10-16T08:00:52Z</time>
      </trkpt>
      <trkpt lat="44.42703" lon="5.15738">
        <ele>692.2</ele>
        <time>2022-10-16T08:00:51Z</time>
      </trkpt>
      <trkpt lat="44.42702" lon="5.15737">
        <ele>692.2</ele>
        <time>2022-10-16T08:00:50Z</time>
      </trkpt>
      <trkpt lat="44.42701" lon="5.15737">
        <ele>692</ele>
        <time>2022-10-16T08:00:49Z</time>
      </trkpt>
      <trkpt lat="44.427" lon="5.15736">
        <ele>692.1</ele>
        <time>2022-10-16T08:00:48Z</time>
      </trkpt>
      <trkpt lat="44.42699" lon="5.15735">
        <ele>692.2</ele>
        <time>2022-10-16T08:00:47Z</time>
      </trkpt>
      <trkpt lat="44.42697" lon="5.15735">
        <ele>691.8</ele>
        <time>2022-10-16T08:00:46Z</time>
      </trkpt>
      <trkpt lat="44.42696" lon="5.15735">
        <ele>691.6</ele>
        <time>2022-10-16T08:00:45Z</time>
      </trkpt>
      <trkpt lat="44.42695" lon="5.15735">
        <ele>691.4</ele>
        <time>2022-10-16T08:00:44Z</time>
      </trkpt>
      <trkpt lat="44.42694" lon="5.15734">
        <ele>691.5</ele>
        <time>2022-10-16T08:00:43Z</time>
      </trkpt>
      <trkpt lat="44.42693" lon="5.15734">
        <ele>691.4</ele>
        <time>2022-10-16T08:00:42Z</time>
      </trkpt>
      <trkpt lat="44.42692" lon="5.15734">
        <ele>691.2</ele>
        <time>2022-10-16T08:00:41Z</time>
      </trkpt>
      <trkpt lat="44.42691" lon="5.15734">
        <ele>691.1</ele>
        <time>2022-10-16T08:00:40Z</time>
      </trkpt>
      <trkpt lat="44.4269" lon="5.15734">
        <ele>690.9</ele>
        <time>2022-10-16T08:00:39Z</time>
      </trkpt>
      <trkpt lat="44.42689" lon="5.15734">
        <ele>690.7</ele>
        <time>2022-10-16T08:00:38Z</time>
      </trkpt>
      <trkpt lat="44.42688" lon="5.15734">
        <ele>690.6</ele>
        <time>2022-10-16T08:00:37Z</time>
      </trkpt>
      <trkpt lat="44.42687" lon="5.15734">
        <ele>690.4</ele>
        <time>2022-10-16T08:00:36Z</time>
      </trkpt>
      <trkpt lat="44.42686" lon="5.15734">
        <ele>690.3</ele>
        <time>2022-10-16T08:00:35Z</time>
      </trkpt>
      <trkpt lat="44.42685" lon="5.15734">
        <ele>690.1</ele>
        <time>2022-10-16T08:00:34Z</time>
      </trkpt>
      <trkpt lat="44.42683" lon="5.15734">
        <ele>689.8</ele>
        <time>2022-10-16T08:00:33Z</time>
      </trkpt>
      <trkpt lat="44.42682" lon="5.15733">
        <ele>689.9</ele>
        <time>2022-10-16T08:00:32Z</time>
      </trkpt>
      <trkpt lat="44.42681" lon="5.15733">
        <ele>689.8</ele>
        <time>2022-10-16T08:00:31Z</time>
      </trkpt>
      <trkpt lat="44.42679" lon="5.15733">
        <ele>689.5</ele>
        <time>2022-10-16T08:00:30Z</time>
      </trkpt>
      <trkpt lat="44.42678" lon="5.15733">
        <ele>689.3</ele>
        <time>2022-10-16T08:00:29Z</time>
      </trkpt>
      <trkpt lat="44.42677" lon="5.15733">
        <ele>689.1</ele>
        <time>2022-10-16T08:00:28Z</time>
      </trkpt>
      <trkpt lat="44.42676" lon="5.15733">
        <ele>689</ele>
        <time>2022-10-16T08:00:27Z</time>
      </trkpt>
      <trkpt lat="44.42674" lon="5.15733">
        <ele>688.7</ele>
        <time>2022-10-16T08:00:26Z</time>
      </trkpt>
      <trkpt lat="44.42673" lon="5.15732">
        <ele>688.8</ele>
        <time>2022-10-16T08:00:25Z</time>
      </trkpt>
      <trkpt lat="44.42672" lon="5.15732">
        <ele>688.7</ele>
        <time>2022-10-16T08:00:24Z</time>
      </trkpt>
      <trkpt lat="44.42671" lon="5.15731">
        <ele>688.8</ele>
        <time>2022-10-16T08:00:23Z</time>
      </trkpt>
      <trkpt lat="44.4267" lon="5.15731">
        <ele>688.7</ele>
        <time>2022-10-16T08:00:22Z</time>
      </trkpt>
      <trkpt lat="44.42669" lon="5.1573">
        <ele>688.8</ele>
        <time>2022-10-16T08:00:21Z</time>
      </trkpt>
      <trkpt lat="44.42668" lon="5.1573">
        <ele>688.7</ele>
        <time>2022-10-16T08:00:20Z</time>
      </trkpt>
      <trkpt lat="44.42667" lon="5.15729">
        <ele>688.9</ele>
        <time>2022-10-16T08:00:19Z</time>
      </trkpt>
      <trkpt lat="44.42666" lon="5.15728">
        <ele>689</ele>
        <time>2022-10-16T08:00:18Z</time>
      </trkpt>
      <trkpt lat="44.42665" lon="5.15728">
        <ele>688.8</ele>
        <time>2022-10-16T08:00:17Z</time>
      </trkpt>
      <trkpt lat="44.42664" lon="5.15728">
        <ele>688.6</ele>
        <time>2022-10-16T08:00:16Z</time>
      </trkpt>
      <trkpt lat="44.42663" lon="5.15727">
        <ele>688.8</ele>
        <time>2022-10-16T08:00:15Z</time>
      </trkpt>
      <trkpt lat="44.42662" lon="5.15727">
        <ele>688.6</ele>
        <time>2022-10-16T08:00:14Z</time>
      </trkpt>
      <trkpt lat="44.42661" lon="5.15727">
        <ele>688.4</ele>
        <time>2022-10-16T08:00:13Z</time>
      </trkpt>
      <trkpt lat="44.4266" lon="5.15727">
        <ele>688.3</ele>
        <time>2022-10-16T08:00:12Z</time>
      </trkpt>
      <trkpt lat="44.42659" lon="5.15727">
        <ele>688.1</ele>
        <time>2022-10-16T08:00:11Z</time>
      </trkpt>
      <trkpt lat="44.42658" lon="5.15727">
        <ele>687.9</ele>
        <time>2022-10-16T08:00:10Z</time>
      </trkpt>
      <trkpt lat="44.42658" lon="5.15726">
        <ele>688.2</ele>
        <time>2022-10-16T08:00:09Z</time>
      </trkpt>
      <trkpt lat="44.42657" lon="5.15726">
        <ele>688</ele>
        <time>2022-10-16T08:00:08Z</time>
      </trkpt>
      <trkpt lat="44.42656" lon="5.15726">
        <ele>687.9</ele>
        <time>2022-10-16T08:00:07Z</time>
      </trkpt>
      <trkpt lat="44.42655" lon="5.15726">
        <ele>687.7</ele>
        <time>2022-10-16T08:00:06Z</time>
      </trkpt>
      <trkpt lat="44.42654" lon="5.15725">
        <ele>687.8</ele>
        <time>2022-10-16T08:00:05Z</time>
      </trkpt>
      <trkpt lat="44.42653" lon="5.15725">
        <ele>687.6</ele>
        <time>2022-10-16T08:00:04Z</time>
      </trkpt>
      <trkpt lat="44.42652" lon="5.15725">
        <ele>687.5</ele>
        <time>2022-10-16T08:00:03Z</time>
      </trkpt>
      <trkpt lat="44.42651" lon="5.15725">
        <ele>687.3</ele>
        <time>2022-10-16T08:00:02Z</time>
      </trkpt>
      <trkpt lat="44.4265" lon="5.15724">
        <ele>687.4</ele>
        <time>2022-10-16T08:00:01Z</time>
      </trkpt>
      <trkpt lat="44.42649" lon="5.15724">
        <ele>687.2</ele>
        <time>2022-10-16T08:00:00Z</time>
      </trkpt>
      <trkpt lat="44.42648" lon="5.15723">
        <ele>687.4</ele>
        <time>2022-10-16T07:59:59Z</time>
      </trkpt>
      <trkpt lat="44.42647" lon="5.15722">
        <ele>687.5</ele>
        <time>2022-10-16T07:59:58Z</time>
      </trkpt>
      <trkpt lat="44.42647" lon="5.15721">
        <ele>687.9</ele>
        <time>2022-10-16T07:59:57Z</time>
      </trkpt>
      <trkpt lat="44.42646" lon="5.1572">
        <ele>688</ele>
        <time>2022-10-16T07:59:56Z</time>
      </trkpt>
      <trkpt lat="44.42646" lon="5.15719">
        <ele>688.3</ele>
        <time>2022-10-16T07:59:55Z</time>
      </trkpt>
      <trkpt lat="44.42645" lon="5.15717">
        <ele>688.8</ele>
        <time>2022-10-16T07:59:54Z</time>
      </trkpt>
      <trkpt lat="44.42644" lon="5.15716">
        <ele>688.9</ele>
        <time>2022-10-16T07:59:53Z</time>
      </trkpt>
      <trkpt lat="44.42644" lon="5.15715">
        <ele>689.3</ele>
        <time>2022-10-16T07:59:52Z</time>
      </trkpt>
      <trkpt lat="44.42643" lon="5.15713">
        <ele>689.7</ele>
        <time>2022-10-16T07:59:51Z</time>
      </trkpt>
      <trkpt lat="44.42642" lon="5.15712">
        <ele>689.9</ele>
        <time>2022-10-16T07:59:50Z</time>
      </trkpt>
      <trkpt lat="44.42642" lon="5.1571">
        <ele>690.5</ele>
        <time>2022-10-16T07:59:49Z</time>
      </trkpt>
      <trkpt lat="44.42641" lon="5.15709">
        <ele>690.7</ele>
        <time>2022-10-16T07:59:48Z</time>
      </trkpt>
      <trkpt lat="44.4264" lon="5.15708">
        <ele>690.8</ele>
        <time>2022-10-16T07:59:47Z</time>
      </trkpt>
      <trkpt lat="44.4264" lon="5.15706">
        <ele>691.5</ele>
        <time>2022-10-16T07:59:46Z</time>
      </trkpt>
      <trkpt lat="44.42639" lon="5.15705">
        <ele>691.6</ele>
        <time>2022-10-16T07:59:45Z</time>
      </trkpt>
      <trkpt lat="44.42639" lon="5.15704">
        <ele>691.9</ele>
        <time>2022-10-16T07:59:44Z</time>
      </trkpt>
      <trkpt lat="44.42638" lon="5.15703">
        <ele>692</ele>
        <time>2022-10-16T07:59:43Z</time>
      </trkpt>
      <trkpt lat="44.42637" lon="5.15702">
        <ele>692.2</ele>
        <time>2022-10-16T07:59:42Z</time>
      </trkpt>
      <trkpt lat="44.42637" lon="5.15701">
        <ele>692.5</ele>
        <time>2022-10-16T07:59:41Z</time>
      </trkpt>
      <trkpt lat="44.42636" lon="5.157">
        <ele>692.6</ele>
        <time>2022-10-16T07:59:40Z</time>
      </trkpt>
      <trkpt lat="44.42635" lon="5.157">
        <ele>692.4</ele>
        <time>2022-10-16T07:59:39Z</time>
      </trkpt>
      <trkpt lat="44.42634" lon="5.15699">
        <ele>692.5</ele>
        <time>2022-10-16T07:59:38Z</time>
      </trkpt>
      <trkpt lat="44.42633" lon="5.15698">
        <ele>692.6</ele>
        <time>2022-10-16T07:59:37Z</time>
      </trkpt>
      <trkpt lat="44.42632" lon="5.15698">
        <ele>692.4</ele>
        <time>2022-10-16T07:59:36Z</time>
      </trkpt>
      <trkpt lat="44.42631" lon="5.15697">
        <ele>692.5</ele>
        <time>2022-10-16T07:59:35Z</time>
      </trkpt>
      <trkpt lat="44.4263" lon="5.15696">
        <ele>692.6</ele>
        <time>2022-10-16T07:59:34Z</time>
      </trkpt>
      <trkpt lat="44.4263" lon="5.15695">
        <ele>692.9</ele>
        <time>2022-10-16T07:59:33Z</time>
      </trkpt>
      <trkpt lat="44.42629" lon="5.15694">
        <ele>693</ele>
        <time>2022-10-16T07:59:32Z</time>
      </trkpt>
      <trkpt lat="44.42628" lon="5.15694">
        <ele>692.8</ele>
        <time>2022-10-16T07:59:31Z</time>
      </trkpt>
      <trkpt lat="44.42627" lon="5.15693">
        <ele>692.8</ele>
        <time>2022-10-16T07:59:30Z</time>
      </trkpt>
      <trkpt lat="44.42626" lon="5.15692">
        <ele>692.9</ele>
        <time>2022-10-16T07:59:29Z</time>
      </trkpt>
      <trkpt lat="44.42625" lon="5.15692">
        <ele>692.7</ele>
        <time>2022-10-16T07:59:28Z</time>
      </trkpt>
      <trkpt lat="44.42624" lon="5.15691">
        <ele>692.8</ele>
        <time>2022-10-16T07:59:27Z</time>
      </trkpt>
      <trkpt lat="44.42623" lon="5.1569">
        <ele>692.8</ele>
        <time>2022-10-16T07:59:26Z</time>
      </trkpt>
      <trkpt lat="44.42622" lon="5.15689">
        <ele>692.9</ele>
        <time>2022-10-16T07:59:25Z</time>
      </trkpt>
      <trkpt lat="44.42621" lon="5.15688">
        <ele>693</ele>
        <time>2022-10-16T07:59:24Z</time>
      </trkpt>
      <trkpt lat="44.42621" lon="5.15687">
        <ele>693.3</ele>
        <time>2022-10-16T07:59:23Z</time>
      </trkpt>
      <trkpt lat="44.4262" lon="5.15686">
        <ele>693.4</ele>
        <time>2022-10-16T07:59:22Z</time>
      </trkpt>
      <trkpt lat="44.42619" lon="5.15685">
        <ele>693.4</ele>
        <time>2022-10-16T07:59:21Z</time>
      </trkpt>
      <trkpt lat="44.42619" lon="5.15684">
        <ele>693.7</ele>
        <time>2022-10-16T07:59:20Z</time>
      </trkpt>
      <trkpt lat="44.42618" lon="5.15684">
        <ele>693.5</ele>
        <time>2022-10-16T07:59:19Z</time>
      </trkpt>
      <trkpt lat="44.42617" lon="5.15683">
        <ele>693.6</ele>
        <time>2022-10-16T07:59:18Z</time>
      </trkpt>
      <trkpt lat="44.42616" lon="5.15683">
        <ele>693.4</ele>
        <time>2022-10-16T07:59:17Z</time>
      </trkpt>
      <trkpt lat="44.42615" lon="5.15682">
        <ele>693.4</ele>
        <time>2022-10-16T07:59:16Z</time>
      </trkpt>
      <trkpt lat="44.42615" lon="5.15681">
        <ele>693.7</ele>
        <time>2022-10-16T07:59:15Z</time>
      </trkpt>
      <trkpt lat="44.42614" lon="5.15681">
        <ele>693.5</ele>
        <time>2022-10-16T07:59:14Z</time>
      </trkpt>
      <trkpt lat="44.42613" lon="5.1568">
        <ele>693.6</ele>
        <time>2022-10-16T07:59:13Z</time>
      </trkpt>
      <trkpt lat="44.42613" lon="5.15679">
        <ele>693.9</ele>
        <time>2022-10-16T07:59:12Z</time>
      </trkpt>
      <trkpt lat="44.42612" lon="5.15679">
        <ele>693.6</ele>
        <time>2022-10-16T07:59:11Z</time>
      </trkpt>
      <trkpt lat="44.42612" lon="5.15678">
        <ele>693.9</ele>
        <time>2022-10-16T07:59:10Z</time>
      </trkpt>
      <trkpt lat="44.42611" lon="5.15677">
        <ele>694</ele>
        <time>2022-10-16T07:59:09Z</time>
      </trkpt>
      <trkpt lat="44.42611" lon="5.15676">
        <ele>694.3</ele>
        <time>2022-10-16T07:59:08Z</time>
      </trkpt>
      <trkpt lat="44.4261" lon="5.15675">
        <ele>694.4</ele>
        <time>2022-10-16T07:59:06Z</time>
      </trkpt>
      <trkpt lat="44.42609" lon="5.15674">
        <ele>694.5</ele>
        <time>2022-10-16T07:59:04Z</time>
      </trkpt>
      <trkpt lat="44.42608" lon="5.15674">
        <ele>694.2</ele>
        <time>2022-10-16T07:59:03Z</time>
      </trkpt>
      <trkpt lat="44.42608" lon="5.15673">
        <ele>694.5</ele>
        <time>2022-10-16T07:59:02Z</time>
      </trkpt>
      <trkpt lat="44.42607" lon="5.15672">
        <ele>694.6</ele>
        <time>2022-10-16T07:59:01Z</time>
      </trkpt>
      <trkpt lat="44.42606" lon="5.15672">
        <ele>694.4</ele>
        <time>2022-10-16T07:59:00Z</time>
      </trkpt>
      <trkpt lat="44.42605" lon="5.15671">
        <ele>694.5</ele>
        <time>2022-10-16T07:58:59Z</time>
      </trkpt>
      <trkpt lat="44.42604" lon="5.1567">
        <ele>694.5</ele>
        <time>2022-10-16T07:58:58Z</time>
      </trkpt>
      <trkpt lat="44.42603" lon="5.15669">
        <ele>694.6</ele>
        <time>2022-10-16T07:58:57Z</time>
      </trkpt>
      <trkpt lat="44.42602" lon="5.15669">
        <ele>694.4</ele>
        <time>2022-10-16T07:58:56Z</time>
      </trkpt>
      <trkpt lat="44.42602" lon="5.15668">
        <ele>694.7</ele>
        <time>2022-10-16T07:58:55Z</time>
      </trkpt>
      <trkpt lat="44.42601" lon="5.15667">
        <ele>694.7</ele>
        <time>2022-10-16T07:58:54Z</time>
      </trkpt>
      <trkpt lat="44.426" lon="5.15667">
        <ele>694.5</ele>
        <time>2022-10-16T07:58:53Z</time>
      </trkpt>
      <trkpt lat="44.42599" lon="5.15666">
        <ele>694.5</ele>
        <time>2022-10-16T07:58:52Z</time>
      </trkpt>
      <trkpt lat="44.42598" lon="5.15665">
        <ele>694.6</ele>
        <time>2022-10-16T07:58:51Z</time>
      </trkpt>
      <trkpt lat="44.42597" lon="5.15664">
        <ele>694.6</ele>
        <time>2022-10-16T07:58:49Z</time>
      </trkpt>
      <trkpt lat="44.42596" lon="5.15663">
        <ele>694.6</ele>
        <time>2022-10-16T07:58:48Z</time>
      </trkpt>
      <trkpt lat="44.42595" lon="5.15663">
        <ele>694.4</ele>
        <time>2022-10-16T07:58:47Z</time>
      </trkpt>
      <trkpt lat="44.42594" lon="5.15662">
        <ele>694.4</ele>
        <time>2022-10-16T07:58:45Z</time>
      </trkpt>
      <trkpt lat="44.42593" lon="5.15661">
        <ele>694.4</ele>
        <time>2022-10-16T07:58:44Z</time>
      </trkpt>
      <trkpt lat="44.42592" lon="5.1566">
        <ele>694.4</ele>
        <time>2022-10-16T07:58:43Z</time>
      </trkpt>
      <trkpt lat="44.42591" lon="5.15659">
        <ele>694.4</ele>
        <time>2022-10-16T07:58:42Z</time>
      </trkpt>
      <trkpt lat="44.42591" lon="5.15658">
        <ele>694.6</ele>
        <time>2022-10-16T07:58:41Z</time>
      </trkpt>
      <trkpt lat="44.4259" lon="5.15657">
        <ele>694.6</ele>
        <time>2022-10-16T07:58:40Z</time>
      </trkpt>
      <trkpt lat="44.42589" lon="5.15656">
        <ele>694.6</ele>
        <time>2022-10-16T07:58:39Z</time>
      </trkpt>
      <trkpt lat="44.42588" lon="5.15655">
        <ele>694.6</ele>
        <time>2022-10-16T07:58:38Z</time>
      </trkpt>
      <trkpt lat="44.42588" lon="5.15654">
        <ele>694.8</ele>
        <time>2022-10-16T07:58:37Z</time>
      </trkpt>
      <trkpt lat="44.42587" lon="5.15653">
        <ele>694.8</ele>
        <time>2022-10-16T07:58:36Z</time>
      </trkpt>
      <trkpt lat="44.42586" lon="5.15653">
        <ele>694.6</ele>
        <time>2022-10-16T07:58:35Z</time>
      </trkpt>
      <trkpt lat="44.42585" lon="5.15652">
        <ele>694.6</ele>
        <time>2022-10-16T07:58:34Z</time>
      </trkpt>
      <trkpt lat="44.42584" lon="5.15651">
        <ele>694.5</ele>
        <time>2022-10-16T07:58:33Z</time>
      </trkpt>
      <trkpt lat="44.42584" lon="5.1565">
        <ele>694.8</ele>
        <time>2022-10-16T07:58:32Z</time>
      </trkpt>
      <trkpt lat="44.42583" lon="5.15649">
        <ele>694.8</ele>
        <time>2022-10-16T07:58:31Z</time>
      </trkpt>
      <trkpt lat="44.42582" lon="5.15648">
        <ele>694.8</ele>
        <time>2022-10-16T07:58:30Z</time>
      </trkpt>
      <trkpt lat="44.42581" lon="5.15647">
        <ele>694.8</ele>
        <time>2022-10-16T07:58:29Z</time>
      </trkpt>
      <trkpt lat="44.4258" lon="5.15647">
        <ele>694.6</ele>
        <time>2022-10-16T07:58:28Z</time>
      </trkpt>
      <trkpt lat="44.42579" lon="5.15646">
        <ele>694.6</ele>
        <time>2022-10-16T07:58:27Z</time>
      </trkpt>
      <trkpt lat="44.42578" lon="5.15645">
        <ele>694.7</ele>
        <time>2022-10-16T07:58:26Z</time>
      </trkpt>
      <trkpt lat="44.42577" lon="5.15645">
        <ele>694.5</ele>
        <time>2022-10-16T07:58:25Z</time>
      </trkpt>
      <trkpt lat="44.42576" lon="5.15644">
        <ele>694.5</ele>
        <time>2022-10-16T07:58:24Z</time>
      </trkpt>
      <trkpt lat="44.42575" lon="5.15644">
        <ele>694.3</ele>
        <time>2022-10-16T07:58:23Z</time>
      </trkpt>
      <trkpt lat="44.42574" lon="5.15643">
        <ele>694.4</ele>
        <time>2022-10-16T07:58:22Z</time>
      </trkpt>
      <trkpt lat="44.42573" lon="5.15643">
        <ele>694.2</ele>
        <time>2022-10-16T07:58:21Z</time>
      </trkpt>
      <trkpt lat="44.42572" lon="5.15642">
        <ele>694.2</ele>
        <time>2022-10-16T07:58:20Z</time>
      </trkpt>
      <trkpt lat="44.42571" lon="5.15642">
        <ele>694.1</ele>
        <time>2022-10-16T07:58:19Z</time>
      </trkpt>
      <trkpt lat="44.4257" lon="5.15641">
        <ele>694.1</ele>
        <time>2022-10-16T07:58:18Z</time>
      </trkpt>
      <trkpt lat="44.42569" lon="5.15641">
        <ele>693.9</ele>
        <time>2022-10-16T07:58:17Z</time>
      </trkpt>
      <trkpt lat="44.42568" lon="5.1564">
        <ele>694</ele>
        <time>2022-10-16T07:58:16Z</time>
      </trkpt>
      <trkpt lat="44.42567" lon="5.15639">
        <ele>694</ele>
        <time>2022-10-16T07:58:14Z</time>
      </trkpt>
      <trkpt lat="44.42566" lon="5.15638">
        <ele>694.1</ele>
        <time>2022-10-16T07:58:13Z</time>
      </trkpt>
      <trkpt lat="44.42565" lon="5.15638">
        <ele>693.9</ele>
        <time>2022-10-16T07:58:12Z</time>
      </trkpt>
      <trkpt lat="44.42564" lon="5.15638">
        <ele>693.7</ele>
        <time>2022-10-16T07:58:11Z</time>
      </trkpt>
      <trkpt lat="44.42563" lon="5.15637">
        <ele>693.8</ele>
        <time>2022-10-16T07:58:09Z</time>
      </trkpt>
      <trkpt lat="44.42562" lon="5.15637">
        <ele>693.6</ele>
        <time>2022-10-16T07:58:08Z</time>
      </trkpt>
      <trkpt lat="44.42561" lon="5.15637">
        <ele>693.4</ele>
        <time>2022-10-16T07:58:07Z</time>
      </trkpt>
      <trkpt lat="44.4256" lon="5.15637">
        <ele>693.2</ele>
        <time>2022-10-16T07:58:06Z</time>
      </trkpt>
      <trkpt lat="44.42559" lon="5.15637">
        <ele>693</ele>
        <time>2022-10-16T07:58:05Z</time>
      </trkpt>
      <trkpt lat="44.42558" lon="5.15637">
        <ele>692.9</ele>
        <time>2022-10-16T07:58:03Z</time>
      </trkpt>
      <trkpt lat="44.42557" lon="5.15637">
        <ele>692.7</ele>
        <time>2022-10-16T07:58:02Z</time>
      </trkpt>
      <trkpt lat="44.42556" lon="5.15637">
        <ele>692.5</ele>
        <time>2022-10-16T07:58:01Z</time>
      </trkpt>
      <trkpt lat="44.42554" lon="5.15637">
        <ele>692.1</ele>
        <time>2022-10-16T07:58:00Z</time>
      </trkpt>
      <trkpt lat="44.42553" lon="5.15637">
        <ele>692</ele>
        <time>2022-10-16T07:57:59Z</time>
      </trkpt>
      <trkpt lat="44.42552" lon="5.15637">
        <ele>691.8</ele>
        <time>2022-10-16T07:57:58Z</time>
      </trkpt>
      <trkpt lat="44.42551" lon="5.15637">
        <ele>691.6</ele>
        <time>2022-10-16T07:57:57Z</time>
      </trkpt>
      <trkpt lat="44.4255" lon="5.15638">
        <ele>691.2</ele>
        <time>2022-10-16T07:57:56Z</time>
      </trkpt>
      <trkpt lat="44.42549" lon="5.15638">
        <ele>691</ele>
        <time>2022-10-16T07:57:55Z</time>
      </trkpt>
      <trkpt lat="44.42548" lon="5.15638">
        <ele>690.8</ele>
        <time>2022-10-16T07:57:54Z</time>
      </trkpt>
      <trkpt lat="44.42547" lon="5.15639">
        <ele>690.4</ele>
        <time>2022-10-16T07:57:52Z</time>
      </trkpt>
      <trkpt lat="44.42546" lon="5.1564">
        <ele>690</ele>
        <time>2022-10-16T07:57:51Z</time>
      </trkpt>
      <trkpt lat="44.42545" lon="5.1564">
        <ele>689.8</ele>
        <time>2022-10-16T07:57:50Z</time>
      </trkpt>
      <trkpt lat="44.42544" lon="5.1564">
        <ele>689.6</ele>
        <time>2022-10-16T07:57:49Z</time>
      </trkpt>
      <trkpt lat="44.42543" lon="5.15641">
        <ele>689.2</ele>
        <time>2022-10-16T07:57:47Z</time>
      </trkpt>
      <trkpt lat="44.42542" lon="5.15642">
        <ele>688.7</ele>
        <time>2022-10-16T07:57:46Z</time>
      </trkpt>
      <trkpt lat="44.42541" lon="5.15642">
        <ele>688.5</ele>
        <time>2022-10-16T07:57:44Z</time>
      </trkpt>
      <trkpt lat="44.4254" lon="5.15643">
        <ele>688.1</ele>
        <time>2022-10-16T07:57:43Z</time>
      </trkpt>
      <trkpt lat="44.42539" lon="5.15643">
        <ele>687.9</ele>
        <time>2022-10-16T07:57:42Z</time>
      </trkpt>
      <trkpt lat="44.42538" lon="5.15643">
        <ele>687.7</ele>
        <time>2022-10-16T07:57:41Z</time>
      </trkpt>
      <trkpt lat="44.42537" lon="5.15643">
        <ele>687.5</ele>
        <time>2022-10-16T07:57:39Z</time>
      </trkpt>
      <trkpt lat="44.42536" lon="5.15643">
        <ele>687.3</ele>
        <time>2022-10-16T07:57:38Z</time>
      </trkpt>
      <trkpt lat="44.42535" lon="5.15643">
        <ele>687.2</ele>
        <time>2022-10-16T07:57:37Z</time>
      </trkpt>
      <trkpt lat="44.42534" lon="5.15643">
        <ele>687</ele>
        <time>2022-10-16T07:57:36Z</time>
      </trkpt>
      <trkpt lat="44.42534" lon="5.15642">
        <ele>687.2</ele>
        <time>2022-10-16T07:57:35Z</time>
      </trkpt>
      <trkpt lat="44.42533" lon="5.15642">
        <ele>687.1</ele>
        <time>2022-10-16T07:57:34Z</time>
      </trkpt>
      <trkpt lat="44.42532" lon="5.15641">
        <ele>687.2</ele>
        <time>2022-10-16T07:57:33Z</time>
      </trkpt>
      <trkpt lat="44.42531" lon="5.1564">
        <ele>687.3</ele>
        <time>2022-10-16T07:57:31Z</time>
      </trkpt>
      <trkpt lat="44.4253" lon="5.15638">
        <ele>687.6</ele>
        <time>2022-10-16T07:57:30Z</time>
      </trkpt>
      <trkpt lat="44.42529" lon="5.15637">
        <ele>687.7</ele>
        <time>2022-10-16T07:57:29Z</time>
      </trkpt>
      <trkpt lat="44.42529" lon="5.15636">
        <ele>687.9</ele>
        <time>2022-10-16T07:57:28Z</time>
      </trkpt>
      <trkpt lat="44.42528" lon="5.15635">
        <ele>688</ele>
        <time>2022-10-16T07:57:27Z</time>
      </trkpt>
      <trkpt lat="44.42527" lon="5.15633">
        <ele>688.4</ele>
        <time>2022-10-16T07:57:26Z</time>
      </trkpt>
      <trkpt lat="44.42527" lon="5.15632">
        <ele>688.6</ele>
        <time>2022-10-16T07:57:25Z</time>
      </trkpt>
      <trkpt lat="44.42526" lon="5.1563">
        <ele>689</ele>
        <time>2022-10-16T07:57:24Z</time>
      </trkpt>
      <trkpt lat="44.42526" lon="5.15629">
        <ele>689.2</ele>
        <time>2022-10-16T07:57:23Z</time>
      </trkpt>
      <trkpt lat="44.42525" lon="5.15627">
        <ele>689.6</ele>
        <time>2022-10-16T07:57:22Z</time>
      </trkpt>
      <trkpt lat="44.42525" lon="5.15625">
        <ele>690.1</ele>
        <time>2022-10-16T07:57:21Z</time>
      </trkpt>
      <trkpt lat="44.42524" lon="5.15624">
        <ele>690.2</ele>
        <time>2022-10-16T07:57:20Z</time>
      </trkpt>
      <trkpt lat="44.42524" lon="5.15622">
        <ele>690.7</ele>
        <time>2022-10-16T07:57:19Z</time>
      </trkpt>
      <trkpt lat="44.42523" lon="5.15621">
        <ele>690.9</ele>
        <time>2022-10-16T07:57:18Z</time>
      </trkpt>
      <trkpt lat="44.42523" lon="5.15619">
        <ele>691.4</ele>
        <time>2022-10-16T07:57:17Z</time>
      </trkpt>
      <trkpt lat="44.42522" lon="5.15618">
        <ele>691.5</ele>
        <time>2022-10-16T07:57:16Z</time>
      </trkpt>
      <trkpt lat="44.42521" lon="5.15617">
        <ele>691.7</ele>
        <time>2022-10-16T07:57:15Z</time>
      </trkpt>
      <trkpt lat="44.4252" lon="5.15616">
        <ele>691.8</ele>
        <time>2022-10-16T07:57:14Z</time>
      </trkpt>
      <trkpt lat="44.42519" lon="5.15614">
        <ele>692.3</ele>
        <time>2022-10-16T07:57:13Z</time>
      </trkpt>
      <trkpt lat="44.42519" lon="5.15613">
        <ele>692.5</ele>
        <time>2022-10-16T07:57:12Z</time>
      </trkpt>
      <trkpt lat="44.42518" lon="5.15612">
        <ele>692.7</ele>
        <time>2022-10-16T07:57:11Z</time>
      </trkpt>
      <trkpt lat="44.42517" lon="5.15611">
        <ele>692.9</ele>
        <time>2022-10-16T07:57:10Z</time>
      </trkpt>
      <trkpt lat="44.42516" lon="5.1561">
        <ele>693</ele>
        <time>2022-10-16T07:57:09Z</time>
      </trkpt>
      <trkpt lat="44.42516" lon="5.15609">
        <ele>693.3</ele>
        <time>2022-10-16T07:57:08Z</time>
      </trkpt>
      <trkpt lat="44.42515" lon="5.15608">
        <ele>693.5</ele>
        <time>2022-10-16T07:57:07Z</time>
      </trkpt>
      <trkpt lat="44.42515" lon="5.15607">
        <ele>693.7</ele>
        <time>2022-10-16T07:57:06Z</time>
      </trkpt>
      <trkpt lat="44.42514" lon="5.15606">
        <ele>693.9</ele>
        <time>2022-10-16T07:57:05Z</time>
      </trkpt>
      <trkpt lat="44.42513" lon="5.15605">
        <ele>694</ele>
        <time>2022-10-16T07:57:04Z</time>
      </trkpt>
      <trkpt lat="44.42513" lon="5.15604">
        <ele>694.3</ele>
        <time>2022-10-16T07:57:03Z</time>
      </trkpt>
      <trkpt lat="44.42512" lon="5.15603">
        <ele>694.5</ele>
        <time>2022-10-16T07:57:02Z</time>
      </trkpt>
      <trkpt lat="44.42511" lon="5.15602">
        <ele>694.6</ele>
        <time>2022-10-16T07:57:01Z</time>
      </trkpt>
      <trkpt lat="44.4251" lon="5.156">
        <ele>695</ele>
        <time>2022-10-16T07:57:00Z</time>
      </trkpt>
      <trkpt lat="44.42509" lon="5.15599">
        <ele>695.2</ele>
        <time>2022-10-16T07:56:59Z</time>
      </trkpt>
      <trkpt lat="44.42509" lon="5.15598">
        <ele>695.4</ele>
        <time>2022-10-16T07:56:58Z</time>
      </trkpt>
      <trkpt lat="44.42508" lon="5.15597">
        <ele>695.6</ele>
        <time>2022-10-16T07:56:57Z</time>
      </trkpt>
      <trkpt lat="44.42507" lon="5.15596">
        <ele>695.7</ele>
        <time>2022-10-16T07:56:56Z</time>
      </trkpt>
      <trkpt lat="44.42506" lon="5.15595">
        <ele>695.8</ele>
        <time>2022-10-16T07:56:55Z</time>
      </trkpt>
      <trkpt lat="44.42506" lon="5.15594">
        <ele>696.1</ele>
        <time>2022-10-16T07:56:54Z</time>
      </trkpt>
      <trkpt lat="44.42505" lon="5.15593">
        <ele>696.2</ele>
        <time>2022-10-16T07:56:53Z</time>
      </trkpt>
      <trkpt lat="44.42504" lon="5.15592">
        <ele>696.3</ele>
        <time>2022-10-16T07:56:52Z</time>
      </trkpt>
      <trkpt lat="44.42504" lon="5.15591">
        <ele>696.6</ele>
        <time>2022-10-16T07:56:51Z</time>
      </trkpt>
      <trkpt lat="44.42503" lon="5.1559">
        <ele>696.7</ele>
        <time>2022-10-16T07:56:50Z</time>
      </trkpt>
      <trkpt lat="44.42503" lon="5.15589">
        <ele>697</ele>
        <time>2022-10-16T07:56:49Z</time>
      </trkpt>
      <trkpt lat="44.42502" lon="5.15588">
        <ele>697.1</ele>
        <time>2022-10-16T07:56:48Z</time>
      </trkpt>
      <trkpt lat="44.42501" lon="5.15587">
        <ele>697.2</ele>
        <time>2022-10-16T07:56:47Z</time>
      </trkpt>
      <trkpt lat="44.425" lon="5.15586">
        <ele>697.3</ele>
        <time>2022-10-16T07:56:46Z</time>
      </trkpt>
      <trkpt lat="44.425" lon="5.15585">
        <ele>697.6</ele>
        <time>2022-10-16T07:56:45Z</time>
      </trkpt>
      <trkpt lat="44.42499" lon="5.15584">
        <ele>697.8</ele>
        <time>2022-10-16T07:56:44Z</time>
      </trkpt>
      <trkpt lat="44.42498" lon="5.15583">
        <ele>697.9</ele>
        <time>2022-10-16T07:56:43Z</time>
      </trkpt>
      <trkpt lat="44.42497" lon="5.15582">
        <ele>698</ele>
        <time>2022-10-16T07:56:42Z</time>
      </trkpt>
      <trkpt lat="44.42496" lon="5.15581">
        <ele>698.1</ele>
        <time>2022-10-16T07:56:41Z</time>
      </trkpt>
      <trkpt lat="44.42495" lon="5.1558">
        <ele>698.2</ele>
        <time>2022-10-16T07:56:40Z</time>
      </trkpt>
      <trkpt lat="44.42494" lon="5.15579">
        <ele>698.3</ele>
        <time>2022-10-16T07:56:39Z</time>
      </trkpt>
      <trkpt lat="44.42493" lon="5.15578">
        <ele>698.4</ele>
        <time>2022-10-16T07:56:38Z</time>
      </trkpt>
      <trkpt lat="44.42492" lon="5.15578">
        <ele>698.3</ele>
        <time>2022-10-16T07:56:37Z</time>
      </trkpt>
      <trkpt lat="44.42491" lon="5.15577">
        <ele>698.4</ele>
        <time>2022-10-16T07:56:36Z</time>
      </trkpt>
      <trkpt lat="44.4249" lon="5.15577">
        <ele>698.3</ele>
        <time>2022-10-16T07:56:35Z</time>
      </trkpt>
      <trkpt lat="44.42489" lon="5.15577">
        <ele>698.3</ele>
        <time>2022-10-16T07:56:34Z</time>
      </trkpt>
      <trkpt lat="44.42488" lon="5.15577">
        <ele>698.2</ele>
        <time>2022-10-16T07:56:33Z</time>
      </trkpt>
      <trkpt lat="44.42487" lon="5.15577">
        <ele>698.1</ele>
        <time>2022-10-16T07:56:32Z</time>
      </trkpt>
      <trkpt lat="44.42486" lon="5.15577">
        <ele>698</ele>
        <time>2022-10-16T07:56:31Z</time>
      </trkpt>
      <trkpt lat="44.42485" lon="5.15578">
        <ele>697.8</ele>
        <time>2022-10-16T07:56:30Z</time>
      </trkpt>
      <trkpt lat="44.42484" lon="5.15578">
        <ele>697.7</ele>
        <time>2022-10-16T07:56:28Z</time>
      </trkpt>
      <trkpt lat="44.42483" lon="5.15578">
        <ele>697.6</ele>
        <time>2022-10-16T07:56:27Z</time>
      </trkpt>
      <trkpt lat="44.42482" lon="5.15579">
        <ele>697.4</ele>
        <time>2022-10-16T07:56:26Z</time>
      </trkpt>
      <trkpt lat="44.42481" lon="5.15579">
        <ele>697.3</ele>
        <time>2022-10-16T07:56:25Z</time>
      </trkpt>
      <trkpt lat="44.4248" lon="5.15579">
        <ele>697.2</ele>
        <time>2022-10-16T07:56:24Z</time>
      </trkpt>
      <trkpt lat="44.42479" lon="5.15579">
        <ele>697.2</ele>
        <time>2022-10-16T07:56:23Z</time>
      </trkpt>
      <trkpt lat="44.42478" lon="5.15579">
        <ele>697.1</ele>
        <time>2022-10-16T07:56:22Z</time>
      </trkpt>
      <trkpt lat="44.42477" lon="5.15579">
        <ele>697</ele>
        <time>2022-10-16T07:56:21Z</time>
      </trkpt>
      <trkpt lat="44.42476" lon="5.15578">
        <ele>697.1</ele>
        <time>2022-10-16T07:56:20Z</time>
      </trkpt>
      <trkpt lat="44.42475" lon="5.15578">
        <ele>697</ele>
        <time>2022-10-16T07:56:19Z</time>
      </trkpt>
      <trkpt lat="44.42474" lon="5.15578">
        <ele>696.9</ele>
        <time>2022-10-16T07:56:18Z</time>
      </trkpt>
      <trkpt lat="44.42473" lon="5.15577">
        <ele>697</ele>
        <time>2022-10-16T07:56:17Z</time>
      </trkpt>
      <trkpt lat="44.42472" lon="5.15577">
        <ele>696.9</ele>
        <time>2022-10-16T07:56:16Z</time>
      </trkpt>
      <trkpt lat="44.42471" lon="5.15576">
        <ele>697.1</ele>
        <time>2022-10-16T07:56:15Z</time>
      </trkpt>
      <trkpt lat="44.4247" lon="5.15575">
        <ele>697.2</ele>
        <time>2022-10-16T07:56:13Z</time>
      </trkpt>
      <trkpt lat="44.42469" lon="5.15574">
        <ele>697.3</ele>
        <time>2022-10-16T07:56:12Z</time>
      </trkpt>
      <trkpt lat="44.42468" lon="5.15573">
        <ele>697.5</ele>
        <time>2022-10-16T07:56:11Z</time>
      </trkpt>
      <trkpt lat="44.42467" lon="5.15572">
        <ele>697.6</ele>
        <time>2022-10-16T07:56:10Z</time>
      </trkpt>
      <trkpt lat="44.42467" lon="5.15571">
        <ele>697.8</ele>
        <time>2022-10-16T07:56:09Z</time>
      </trkpt>
      <trkpt lat="44.42466" lon="5.15569">
        <ele>698.1</ele>
        <time>2022-10-16T07:56:08Z</time>
      </trkpt>
      <trkpt lat="44.42465" lon="5.15568">
        <ele>698.2</ele>
        <time>2022-10-16T07:56:07Z</time>
      </trkpt>
      <trkpt lat="44.42465" lon="5.15567">
        <ele>698.4</ele>
        <time>2022-10-16T07:56:06Z</time>
      </trkpt>
      <trkpt lat="44.42465" lon="5.15566">
        <ele>698.5</ele>
        <time>2022-10-16T07:56:05Z</time>
      </trkpt>
      <trkpt lat="44.42464" lon="5.15564">
        <ele>698.8</ele>
        <time>2022-10-16T07:56:04Z</time>
      </trkpt>
      <trkpt lat="44.42464" lon="5.15563">
        <ele>698.9</ele>
        <time>2022-10-16T07:56:03Z</time>
      </trkpt>
      <trkpt lat="44.42464" lon="5.15561">
        <ele>699.2</ele>
        <time>2022-10-16T07:56:02Z</time>
      </trkpt>
      <trkpt lat="44.42464" lon="5.15559">
        <ele>699.5</ele>
        <time>2022-10-16T07:56:01Z</time>
      </trkpt>
      <trkpt lat="44.42464" lon="5.15558">
        <ele>699.6</ele>
        <time>2022-10-16T07:56:00Z</time>
      </trkpt>
      <trkpt lat="44.42463" lon="5.15556">
        <ele>699.9</ele>
        <time>2022-10-16T07:55:59Z</time>
      </trkpt>
      <trkpt lat="44.42462" lon="5.15555">
        <ele>700.1</ele>
        <time>2022-10-16T07:55:58Z</time>
      </trkpt>
      <trkpt lat="44.42462" lon="5.15554">
        <ele>700.3</ele>
        <time>2022-10-16T07:55:57Z</time>
      </trkpt>
      <trkpt lat="44.42461" lon="5.15553">
        <ele>700.4</ele>
        <time>2022-10-16T07:55:56Z</time>
      </trkpt>
      <trkpt lat="44.4246" lon="5.15552">
        <ele>700.6</ele>
        <time>2022-10-16T07:55:55Z</time>
      </trkpt>
      <trkpt lat="44.42459" lon="5.15552">
        <ele>700.6</ele>
        <time>2022-10-16T07:55:53Z</time>
      </trkpt>
      <trkpt lat="44.42458" lon="5.15552">
        <ele>700.6</ele>
        <time>2022-10-16T07:55:52Z</time>
      </trkpt>
      <trkpt lat="44.42457" lon="5.15552">
        <ele>700.7</ele>
        <time>2022-10-16T07:55:51Z</time>
      </trkpt>
      <trkpt lat="44.42456" lon="5.15552">
        <ele>700.7</ele>
        <time>2022-10-16T07:55:49Z</time>
      </trkpt>
      <trkpt lat="44.42455" lon="5.15553">
        <ele>700.5</ele>
        <time>2022-10-16T07:55:48Z</time>
      </trkpt>
      <trkpt lat="44.42454" lon="5.15553">
        <ele>700.5</ele>
        <time>2022-10-16T07:55:47Z</time>
      </trkpt>
      <trkpt lat="44.42453" lon="5.15554">
        <ele>700.3</ele>
        <time>2022-10-16T07:55:45Z</time>
      </trkpt>
      <trkpt lat="44.42452" lon="5.15555">
        <ele>700.1</ele>
        <time>2022-10-16T07:55:44Z</time>
      </trkpt>
      <trkpt lat="44.42451" lon="5.15556">
        <ele>699.9</ele>
        <time>2022-10-16T07:55:43Z</time>
      </trkpt>
      <trkpt lat="44.4245" lon="5.15557">
        <ele>699.8</ele>
        <time>2022-10-16T07:55:42Z</time>
      </trkpt>
      <trkpt lat="44.42449" lon="5.15558">
        <ele>699.6</ele>
        <time>2022-10-16T07:55:41Z</time>
      </trkpt>
      <trkpt lat="44.42448" lon="5.15559">
        <ele>699.5</ele>
        <time>2022-10-16T07:55:40Z</time>
      </trkpt>
      <trkpt lat="44.42448" lon="5.1556">
        <ele>699.4</ele>
        <time>2022-10-16T07:55:39Z</time>
      </trkpt>
      <trkpt lat="44.42447" lon="5.15561">
        <ele>699.2</ele>
        <time>2022-10-16T07:55:38Z</time>
      </trkpt>
      <trkpt lat="44.42446" lon="5.15562">
        <ele>699.1</ele>
        <time>2022-10-16T07:55:37Z</time>
      </trkpt>
      <trkpt lat="44.42445" lon="5.15563">
        <ele>698.9</ele>
        <time>2022-10-16T07:55:36Z</time>
      </trkpt>
      <trkpt lat="44.42445" lon="5.15564">
        <ele>698.8</ele>
        <time>2022-10-16T07:55:35Z</time>
      </trkpt>
      <trkpt lat="44.42444" lon="5.15565">
        <ele>698.7</ele>
        <time>2022-10-16T07:55:34Z</time>
      </trkpt>
      <trkpt lat="44.42444" lon="5.15566">
        <ele>698.6</ele>
        <time>2022-10-16T07:55:33Z</time>
      </trkpt>
      <trkpt lat="44.42443" lon="5.15567">
        <ele>698.7</ele>
        <time>2022-10-16T07:55:32Z</time>
      </trkpt>
      <trkpt lat="44.42443" lon="5.15568">
        <ele>698.5</ele>
        <time>2022-10-16T07:55:31Z</time>
      </trkpt>
      <trkpt lat="44.42443" lon="5.1557">
        <ele>698.2</ele>
        <time>2022-10-16T07:55:30Z</time>
      </trkpt>
      <trkpt lat="44.42443" lon="5.15571">
        <ele>698.1</ele>
        <time>2022-10-16T07:55:29Z</time>
      </trkpt>
      <trkpt lat="44.42442" lon="5.15572">
        <ele>698.2</ele>
        <time>2022-10-16T07:55:28Z</time>
      </trkpt>
      <trkpt lat="44.42442" lon="5.15573">
        <ele>698</ele>
        <time>2022-10-16T07:55:27Z</time>
      </trkpt>
      <trkpt lat="44.42441" lon="5.15574">
        <ele>698.1</ele>
        <time>2022-10-16T07:55:26Z</time>
      </trkpt>
      <trkpt lat="44.4244" lon="5.15576">
        <ele>698</ele>
        <time>2022-10-16T07:55:25Z</time>
      </trkpt>
      <trkpt lat="44.42439" lon="5.15577">
        <ele>698.1</ele>
        <time>2022-10-16T07:55:24Z</time>
      </trkpt>
      <trkpt lat="44.42439" lon="5.15578">
        <ele>697.9</ele>
        <time>2022-10-16T07:55:23Z</time>
      </trkpt>
      <trkpt lat="44.42438" lon="5.15579">
        <ele>698</ele>
        <time>2022-10-16T07:55:22Z</time>
      </trkpt>
      <trkpt lat="44.42437" lon="5.1558">
        <ele>698.1</ele>
        <time>2022-10-16T07:55:21Z</time>
      </trkpt>
      <trkpt lat="44.42437" lon="5.15582">
        <ele>697.8</ele>
        <time>2022-10-16T07:55:20Z</time>
      </trkpt>
      <trkpt lat="44.42436" lon="5.15583">
        <ele>697.9</ele>
        <time>2022-10-16T07:55:19Z</time>
      </trkpt>
      <trkpt lat="44.42436" lon="5.15585">
        <ele>697.8</ele>
        <time>2022-10-16T07:55:18Z</time>
      </trkpt>
      <trkpt lat="44.42435" lon="5.15586">
        <ele>697.9</ele>
        <time>2022-10-16T07:55:17Z</time>
      </trkpt>
      <trkpt lat="44.42435" lon="5.15587">
        <ele>697.9</ele>
        <time>2022-10-16T07:55:16Z</time>
      </trkpt>
      <trkpt lat="44.42435" lon="5.15588">
        <ele>697.9</ele>
        <time>2022-10-16T07:55:15Z</time>
      </trkpt>
      <trkpt lat="44.42435" lon="5.1559">
        <ele>697.8</ele>
        <time>2022-10-16T07:55:14Z</time>
      </trkpt>
      <trkpt lat="44.42435" lon="5.15591">
        <ele>697.8</ele>
        <time>2022-10-16T07:55:13Z</time>
      </trkpt>
      <trkpt lat="44.42435" lon="5.15593">
        <ele>697.7</ele>
        <time>2022-10-16T07:55:12Z</time>
      </trkpt>
      <trkpt lat="44.42435" lon="5.15595">
        <ele>697.6</ele>
        <time>2022-10-16T07:55:11Z</time>
      </trkpt>
      <trkpt lat="44.42435" lon="5.15596">
        <ele>697.6</ele>
        <time>2022-10-16T07:55:10Z</time>
      </trkpt>
      <trkpt lat="44.42436" lon="5.15598">
        <ele>697.3</ele>
        <time>2022-10-16T07:55:09Z</time>
      </trkpt>
      <trkpt lat="44.42436" lon="5.156">
        <ele>697.2</ele>
        <time>2022-10-16T07:55:08Z</time>
      </trkpt>
      <trkpt lat="44.42436" lon="5.15601">
        <ele>697.2</ele>
        <time>2022-10-16T07:55:07Z</time>
      </trkpt>
      <trkpt lat="44.42436" lon="5.15603">
        <ele>697.1</ele>
        <time>2022-10-16T07:55:06Z</time>
      </trkpt>
      <trkpt lat="44.42436" lon="5.15604">
        <ele>697.1</ele>
        <time>2022-10-16T07:55:05Z</time>
      </trkpt>
      <trkpt lat="44.42436" lon="5.15606">
        <ele>697</ele>
        <time>2022-10-16T07:55:04Z</time>
      </trkpt>
      <trkpt lat="44.42436" lon="5.15607">
        <ele>697</ele>
        <time>2022-10-16T07:55:03Z</time>
      </trkpt>
      <trkpt lat="44.42436" lon="5.15608">
        <ele>696.9</ele>
        <time>2022-10-16T07:55:02Z</time>
      </trkpt>
      <trkpt lat="44.42436" lon="5.1561">
        <ele>696.9</ele>
        <time>2022-10-16T07:55:01Z</time>
      </trkpt>
      <trkpt lat="44.42436" lon="5.15611">
        <ele>696.8</ele>
        <time>2022-10-16T07:55:00Z</time>
      </trkpt>
      <trkpt lat="44.42436" lon="5.15613">
        <ele>696.7</ele>
        <time>2022-10-16T07:54:59Z</time>
      </trkpt>
      <trkpt lat="44.42436" lon="5.15614">
        <ele>696.7</ele>
        <time>2022-10-16T07:54:58Z</time>
      </trkpt>
      <trkpt lat="44.42436" lon="5.15616">
        <ele>696.6</ele>
        <time>2022-10-16T07:54:57Z</time>
      </trkpt>
      <trkpt lat="44.42436" lon="5.15617">
        <ele>696.5</ele>
        <time>2022-10-16T07:54:56Z</time>
      </trkpt>
      <trkpt lat="44.42436" lon="5.15619">
        <ele>696.4</ele>
        <time>2022-10-16T07:54:55Z</time>
      </trkpt>
      <trkpt lat="44.42436" lon="5.1562">
        <ele>696.4</ele>
        <time>2022-10-16T07:54:54Z</time>
      </trkpt>
      <trkpt lat="44.42437" lon="5.15621">
        <ele>696.1</ele>
        <time>2022-10-16T07:54:53Z</time>
      </trkpt>
      <trkpt lat="44.42437" lon="5.15622">
        <ele>696</ele>
        <time>2022-10-16T07:54:52Z</time>
      </trkpt>
      <trkpt lat="44.42437" lon="5.15623">
        <ele>696</ele>
        <time>2022-10-16T07:54:51Z</time>
      </trkpt>
      <trkpt lat="44.42437" lon="5.15625">
        <ele>695.9</ele>
        <time>2022-10-16T07:54:50Z</time>
      </trkpt>
      <trkpt lat="44.42437" lon="5.15626">
        <ele>695.8</ele>
        <time>2022-10-16T07:54:49Z</time>
      </trkpt>
      <trkpt lat="44.42437" lon="5.15627">
        <ele>695.8</ele>
        <time>2022-10-16T07:54:48Z</time>
      </trkpt>
      <trkpt lat="44.42437" lon="5.15629">
        <ele>695.7</ele>
        <time>2022-10-16T07:54:47Z</time>
      </trkpt>
      <trkpt lat="44.42437" lon="5.1563">
        <ele>695.6</ele>
        <time>2022-10-16T07:54:46Z</time>
      </trkpt>
      <trkpt lat="44.42437" lon="5.15631">
        <ele>695.6</ele>
        <time>2022-10-16T07:54:45Z</time>
      </trkpt>
      <trkpt lat="44.42437" lon="5.15633">
        <ele>695.5</ele>
        <time>2022-10-16T07:54:44Z</time>
      </trkpt>
      <trkpt lat="44.42437" lon="5.15634">
        <ele>695.4</ele>
        <time>2022-10-16T07:54:43Z</time>
      </trkpt>
      <trkpt lat="44.42437" lon="5.15635">
        <ele>695.3</ele>
        <time>2022-10-16T07:54:42Z</time>
      </trkpt>
      <trkpt lat="44.42437" lon="5.15636">
        <ele>695.3</ele>
        <time>2022-10-16T07:54:41Z</time>
      </trkpt>
      <trkpt lat="44.42437" lon="5.15638">
        <ele>695.2</ele>
        <time>2022-10-16T07:54:40Z</time>
      </trkpt>
      <trkpt lat="44.42436" lon="5.15639">
        <ele>695.4</ele>
        <time>2022-10-16T07:54:39Z</time>
      </trkpt>
      <trkpt lat="44.42436" lon="5.1564">
        <ele>695.3</ele>
        <time>2022-10-16T07:54:38Z</time>
      </trkpt>
      <trkpt lat="44.42436" lon="5.15641">
        <ele>695.1</ele>
        <time>2022-10-16T07:54:37Z</time>
      </trkpt>
      <trkpt lat="44.42436" lon="5.15643">
        <ele>694.8</ele>
        <time>2022-10-16T07:54:36Z</time>
      </trkpt>
      <trkpt lat="44.42436" lon="5.15644">
        <ele>694.7</ele>
        <time>2022-10-16T07:54:35Z</time>
      </trkpt>
      <trkpt lat="44.42436" lon="5.15645">
        <ele>694.5</ele>
        <time>2022-10-16T07:54:34Z</time>
      </trkpt>
      <trkpt lat="44.42435" lon="5.15646">
        <ele>694.7</ele>
        <time>2022-10-16T07:54:33Z</time>
      </trkpt>
      <trkpt lat="44.42435" lon="5.15648">
        <ele>694.4</ele>
        <time>2022-10-16T07:54:32Z</time>
      </trkpt>
      <trkpt lat="44.42435" lon="5.15649">
        <ele>694.3</ele>
        <time>2022-10-16T07:54:31Z</time>
      </trkpt>
      <trkpt lat="44.42434" lon="5.1565">
        <ele>694.5</ele>
        <time>2022-10-16T07:54:30Z</time>
      </trkpt>
      <trkpt lat="44.42434" lon="5.15652">
        <ele>694.2</ele>
        <time>2022-10-16T07:54:29Z</time>
      </trkpt>
      <trkpt lat="44.42434" lon="5.15653">
        <ele>694</ele>
        <time>2022-10-16T07:54:28Z</time>
      </trkpt>
      <trkpt lat="44.42433" lon="5.15654">
        <ele>694.2</ele>
        <time>2022-10-16T07:54:27Z</time>
      </trkpt>
      <trkpt lat="44.42433" lon="5.15655">
        <ele>694.1</ele>
        <time>2022-10-16T07:54:26Z</time>
      </trkpt>
      <trkpt lat="44.42433" lon="5.15657">
        <ele>693.8</ele>
        <time>2022-10-16T07:54:25Z</time>
      </trkpt>
      <trkpt lat="44.42432" lon="5.15658">
        <ele>694.1</ele>
        <time>2022-10-16T07:54:24Z</time>
      </trkpt>
      <trkpt lat="44.42432" lon="5.15659">
        <ele>693.9</ele>
        <time>2022-10-16T07:54:23Z</time>
      </trkpt>
      <trkpt lat="44.42432" lon="5.15661">
        <ele>693.7</ele>
        <time>2022-10-16T07:54:22Z</time>
      </trkpt>
      <trkpt lat="44.42431" lon="5.15662">
        <ele>693.9</ele>
        <time>2022-10-16T07:54:21Z</time>
      </trkpt>
      <trkpt lat="44.42431" lon="5.15663">
        <ele>693.8</ele>
        <time>2022-10-16T07:54:20Z</time>
      </trkpt>
      <trkpt lat="44.4243" lon="5.15665">
        <ele>693.9</ele>
        <time>2022-10-16T07:54:19Z</time>
      </trkpt>
      <trkpt lat="44.4243" lon="5.15666">
        <ele>693.8</ele>
        <time>2022-10-16T07:54:18Z</time>
      </trkpt>
      <trkpt lat="44.4243" lon="5.15667">
        <ele>693.7</ele>
        <time>2022-10-16T07:54:17Z</time>
      </trkpt>
      <trkpt lat="44.42429" lon="5.15668">
        <ele>693.9</ele>
        <time>2022-10-16T07:54:16Z</time>
      </trkpt>
      <trkpt lat="44.42429" lon="5.1567">
        <ele>693.7</ele>
        <time>2022-10-16T07:54:15Z</time>
      </trkpt>
      <trkpt lat="44.42428" lon="5.15671">
        <ele>694</ele>
        <time>2022-10-16T07:54:14Z</time>
      </trkpt>
      <trkpt lat="44.42427" lon="5.15672">
        <ele>694.2</ele>
        <time>2022-10-16T07:54:12Z</time>
      </trkpt>
      <trkpt lat="44.42426" lon="5.15673">
        <ele>694.5</ele>
        <time>2022-10-16T07:54:11Z</time>
      </trkpt>
      <trkpt lat="44.42426" lon="5.15674">
        <ele>694.3</ele>
        <time>2022-10-16T07:54:10Z</time>
      </trkpt>
      <trkpt lat="44.42425" lon="5.15675">
        <ele>694.6</ele>
        <time>2022-10-16T07:54:08Z</time>
      </trkpt>
      <trkpt lat="44.42425" lon="5.15676">
        <ele>694.5</ele>
        <time>2022-10-16T07:54:07Z</time>
      </trkpt>
      <trkpt lat="44.42424" lon="5.15677">
        <ele>694.7</ele>
        <time>2022-10-16T07:54:06Z</time>
      </trkpt>
      <trkpt lat="44.42424" lon="5.15678">
        <ele>694.6</ele>
        <time>2022-10-16T07:54:05Z</time>
      </trkpt>
      <trkpt lat="44.42424" lon="5.15679">
        <ele>694.4</ele>
        <time>2022-10-16T07:54:04Z</time>
      </trkpt>
      <trkpt lat="44.42423" lon="5.1568">
        <ele>694.7</ele>
        <time>2022-10-16T07:54:03Z</time>
      </trkpt>
      <trkpt lat="44.42423" lon="5.15681">
        <ele>694.5</ele>
        <time>2022-10-16T07:54:01Z</time>
      </trkpt>
      <trkpt lat="44.42422" lon="5.15682">
        <ele>694.8</ele>
        <time>2022-10-16T07:54:00Z</time>
      </trkpt>
      <trkpt lat="44.42422" lon="5.15683">
        <ele>694.6</ele>
        <time>2022-10-16T07:53:59Z</time>
      </trkpt>
      <trkpt lat="44.42422" lon="5.15684">
        <ele>694.5</ele>
        <time>2022-10-16T07:53:58Z</time>
      </trkpt>
      <trkpt lat="44.42421" lon="5.15685">
        <ele>694.7</ele>
        <time>2022-10-16T07:53:57Z</time>
      </trkpt>
      <trkpt lat="44.42421" lon="5.15686">
        <ele>694.6</ele>
        <time>2022-10-16T07:53:56Z</time>
      </trkpt>
      <trkpt lat="44.42421" lon="5.15687">
        <ele>694.5</ele>
        <time>2022-10-16T07:53:55Z</time>
      </trkpt>
      <trkpt lat="44.42421" lon="5.15689">
        <ele>694.2</ele>
        <time>2022-10-16T07:53:54Z</time>
      </trkpt>
      <trkpt lat="44.42421" lon="5.1569">
        <ele>694.1</ele>
        <time>2022-10-16T07:53:53Z</time>
      </trkpt>
      <trkpt lat="44.42421" lon="5.15691">
        <ele>693.9</ele>
        <time>2022-10-16T07:53:52Z</time>
      </trkpt>
      <trkpt lat="44.42421" lon="5.15692">
        <ele>693.8</ele>
        <time>2022-10-16T07:53:51Z</time>
      </trkpt>
      <trkpt lat="44.42422" lon="5.15692">
        <ele>693.4</ele>
        <time>2022-10-16T07:53:50Z</time>
      </trkpt>
      <trkpt lat="44.42423" lon="5.15693">
        <ele>692.9</ele>
        <time>2022-10-16T07:53:49Z</time>
      </trkpt>
      <trkpt lat="44.42423" lon="5.15694">
        <ele>692.8</ele>
        <time>2022-10-16T07:53:48Z</time>
      </trkpt>
      <trkpt lat="44.42424" lon="5.15694">
        <ele>692.4</ele>
        <time>2022-10-16T07:53:43Z</time>
      </trkpt>
      <trkpt lat="44.42424" lon="5.15693">
        <ele>692.6</ele>
        <time>2022-10-16T07:53:26Z</time>
      </trkpt>
      <trkpt lat="44.42423" lon="5.15692">
        <ele>693.1</ele>
        <time>2022-10-16T07:53:25Z</time>
      </trkpt>
      <trkpt lat="44.42422" lon="5.15692">
        <ele>693.4</ele>
        <time>2022-10-16T07:53:24Z</time>
      </trkpt>
      <trkpt lat="44.42421" lon="5.15692">
        <ele>693.8</ele>
        <time>2022-10-16T07:53:23Z</time>
      </trkpt>
      <trkpt lat="44.4242" lon="5.15691">
        <ele>694.3</ele>
        <time>2022-10-16T07:53:21Z</time>
      </trkpt>
      <trkpt lat="44.42419" lon="5.15691">
        <ele>694.6</ele>
        <time>2022-10-16T07:53:19Z</time>
      </trkpt>
      <trkpt lat="44.42418" lon="5.15691">
        <ele>695</ele>
        <time>2022-10-16T07:53:18Z</time>
      </trkpt>
      <trkpt lat="44.42417" lon="5.15692">
        <ele>695.2</ele>
        <time>2022-10-16T07:53:17Z</time>
      </trkpt>
      <trkpt lat="44.42417" lon="5.15693">
        <ele>695.1</ele>
        <time>2022-10-16T07:53:16Z</time>
      </trkpt>
      <trkpt lat="44.42416" lon="5.15694">
        <ele>695.1</ele>
        <time>2022-10-16T07:53:05Z</time>
      </trkpt>
      <trkpt lat="44.42415" lon="5.15695">
        <ele>695.1</ele>
        <time>2022-10-16T07:53:04Z</time>
      </trkpt>
      <trkpt lat="44.42414" lon="5.15696">
        <ele>695.2</ele>
        <time>2022-10-16T07:53:03Z</time>
      </trkpt>
      <trkpt lat="44.42413" lon="5.15697">
        <ele>695.2</ele>
        <time>2022-10-16T07:53:02Z</time>
      </trkpt>
      <trkpt lat="44.42412" lon="5.15698">
        <ele>695.2</ele>
        <time>2022-10-16T07:53:01Z</time>
      </trkpt>
      <trkpt lat="44.42411" lon="5.15698">
        <ele>695.3</ele>
        <time>2022-10-16T07:53:00Z</time>
      </trkpt>
      <trkpt lat="44.4241" lon="5.15699">
        <ele>695.4</ele>
        <time>2022-10-16T07:52:59Z</time>
      </trkpt>
      <trkpt lat="44.42409" lon="5.15699">
        <ele>695.5</ele>
        <time>2022-10-16T07:52:58Z</time>
      </trkpt>
      <trkpt lat="44.42408" lon="5.15699">
        <ele>695.6</ele>
        <time>2022-10-16T07:52:57Z</time>
      </trkpt>
      <trkpt lat="44.42407" lon="5.15699">
        <ele>695.7</ele>
        <time>2022-10-16T07:52:56Z</time>
      </trkpt>
      <trkpt lat="44.42406" lon="5.157">
        <ele>695.7</ele>
        <time>2022-10-16T07:52:55Z</time>
      </trkpt>
      <trkpt lat="44.42405" lon="5.157">
        <ele>695.8</ele>
        <time>2022-10-16T07:52:54Z</time>
      </trkpt>
      <trkpt lat="44.42404" lon="5.157">
        <ele>695.9</ele>
        <time>2022-10-16T07:52:53Z</time>
      </trkpt>
      <trkpt lat="44.42403" lon="5.157">
        <ele>696</ele>
        <time>2022-10-16T07:52:52Z</time>
      </trkpt>
      <trkpt lat="44.42402" lon="5.157">
        <ele>696.1</ele>
        <time>2022-10-16T07:52:51Z</time>
      </trkpt>
      <trkpt lat="44.42402" lon="5.15701">
        <ele>696</ele>
        <time>2022-10-16T07:52:50Z</time>
      </trkpt>
      <trkpt lat="44.42401" lon="5.15701">
        <ele>696.1</ele>
        <time>2022-10-16T07:52:49Z</time>
      </trkpt>
      <trkpt lat="44.424" lon="5.15701">
        <ele>696.2</ele>
        <time>2022-10-16T07:52:48Z</time>
      </trkpt>
      <trkpt lat="44.42398" lon="5.15701">
        <ele>696.4</ele>
        <time>2022-10-16T07:52:47Z</time>
      </trkpt>
      <trkpt lat="44.42397" lon="5.15701">
        <ele>696.5</ele>
        <time>2022-10-16T07:52:46Z</time>
      </trkpt>
      <trkpt lat="44.42396" lon="5.15701">
        <ele>696.6</ele>
        <time>2022-10-16T07:52:45Z</time>
      </trkpt>
      <trkpt lat="44.42395" lon="5.15702">
        <ele>696.6</ele>
        <time>2022-10-16T07:52:44Z</time>
      </trkpt>
      <trkpt lat="44.42394" lon="5.15702">
        <ele>696.7</ele>
        <time>2022-10-16T07:52:43Z</time>
      </trkpt>
      <trkpt lat="44.42393" lon="5.15702">
        <ele>696.8</ele>
        <time>2022-10-16T07:52:42Z</time>
      </trkpt>
      <trkpt lat="44.42392" lon="5.15702">
        <ele>696.9</ele>
        <time>2022-10-16T07:52:41Z</time>
      </trkpt>
      <trkpt lat="44.42391" lon="5.15702">
        <ele>697</ele>
        <time>2022-10-16T07:52:40Z</time>
      </trkpt>
      <trkpt lat="44.4239" lon="5.15702">
        <ele>697.1</ele>
        <time>2022-10-16T07:52:39Z</time>
      </trkpt>
      <trkpt lat="44.42389" lon="5.15702">
        <ele>697.2</ele>
        <time>2022-10-16T07:52:38Z</time>
      </trkpt>
      <trkpt lat="44.42388" lon="5.15702">
        <ele>697.1</ele>
        <time>2022-10-16T07:52:37Z</time>
      </trkpt>
      <trkpt lat="44.42387" lon="5.15702">
        <ele>697</ele>
        <time>2022-10-16T07:52:36Z</time>
      </trkpt>
      <trkpt lat="44.42386" lon="5.15702">
        <ele>696.9</ele>
        <time>2022-10-16T07:52:35Z</time>
      </trkpt>
      <trkpt lat="44.42385" lon="5.15702">
        <ele>696.9</ele>
        <time>2022-10-16T07:52:34Z</time>
      </trkpt>
      <trkpt lat="44.42384" lon="5.15702">
        <ele>696.8</ele>
        <time>2022-10-16T07:52:33Z</time>
      </trkpt>
      <trkpt lat="44.42383" lon="5.15702">
        <ele>696.7</ele>
        <time>2022-10-16T07:52:32Z</time>
      </trkpt>
      <trkpt lat="44.42382" lon="5.15702">
        <ele>696.6</ele>
        <time>2022-10-16T07:52:31Z</time>
      </trkpt>
      <trkpt lat="44.42381" lon="5.15702">
        <ele>696.5</ele>
        <time>2022-10-16T07:52:30Z</time>
      </trkpt>
      <trkpt lat="44.4238" lon="5.15702">
        <ele>696.5</ele>
        <time>2022-10-16T07:52:29Z</time>
      </trkpt>
      <trkpt lat="44.42379" lon="5.15702">
        <ele>696.4</ele>
        <time>2022-10-16T07:52:28Z</time>
      </trkpt>
      <trkpt lat="44.42378" lon="5.15702">
        <ele>696.3</ele>
        <time>2022-10-16T07:52:27Z</time>
      </trkpt>
      <trkpt lat="44.42377" lon="5.15703">
        <ele>696.1</ele>
        <time>2022-10-16T07:52:26Z</time>
      </trkpt>
      <trkpt lat="44.42376" lon="5.15703">
        <ele>696</ele>
        <time>2022-10-16T07:52:25Z</time>
      </trkpt>
      <trkpt lat="44.42375" lon="5.15703">
        <ele>695.9</ele>
        <time>2022-10-16T07:52:24Z</time>
      </trkpt>
      <trkpt lat="44.42374" lon="5.15703">
        <ele>695.8</ele>
        <time>2022-10-16T07:52:23Z</time>
      </trkpt>
      <trkpt lat="44.42373" lon="5.15703">
        <ele>695.8</ele>
        <time>2022-10-16T07:52:22Z</time>
      </trkpt>
      <trkpt lat="44.42372" lon="5.15703">
        <ele>695.7</ele>
        <time>2022-10-16T07:52:21Z</time>
      </trkpt>
      <trkpt lat="44.42371" lon="5.15703">
        <ele>695.6</ele>
        <time>2022-10-16T07:52:20Z</time>
      </trkpt>
      <trkpt lat="44.4237" lon="5.15703">
        <ele>695.5</ele>
        <time>2022-10-16T07:52:19Z</time>
      </trkpt>
      <trkpt lat="44.42369" lon="5.15703">
        <ele>695.4</ele>
        <time>2022-10-16T07:52:18Z</time>
      </trkpt>
      <trkpt lat="44.42368" lon="5.15703">
        <ele>695.3</ele>
        <time>2022-10-16T07:52:17Z</time>
      </trkpt>
      <trkpt lat="44.42367" lon="5.15703">
        <ele>695.3</ele>
        <time>2022-10-16T07:52:16Z</time>
      </trkpt>
      <trkpt lat="44.42366" lon="5.15703">
        <ele>695.2</ele>
        <time>2022-10-16T07:52:15Z</time>
      </trkpt>
      <trkpt lat="44.42365" lon="5.15703">
        <ele>695.1</ele>
        <time>2022-10-16T07:52:13Z</time>
      </trkpt>
      <trkpt lat="44.42364" lon="5.15703">
        <ele>695</ele>
        <time>2022-10-16T07:52:12Z</time>
      </trkpt>
      <trkpt lat="44.42363" lon="5.15703">
        <ele>694.9</ele>
        <time>2022-10-16T07:52:11Z</time>
      </trkpt>
      <trkpt lat="44.42362" lon="5.15703">
        <ele>694.8</ele>
        <time>2022-10-16T07:52:10Z</time>
      </trkpt>
      <trkpt lat="44.42361" lon="5.15702">
        <ele>694.9</ele>
        <time>2022-10-16T07:52:08Z</time>
      </trkpt>
      <trkpt lat="44.4236" lon="5.15702">
        <ele>694.7</ele>
        <time>2022-10-16T07:52:07Z</time>
      </trkpt>
      <trkpt lat="44.42359" lon="5.15702">
        <ele>694.6</ele>
        <time>2022-10-16T07:52:06Z</time>
      </trkpt>
      <trkpt lat="44.42358" lon="5.15702">
        <ele>694.4</ele>
        <time>2022-10-16T07:52:05Z</time>
      </trkpt>
      <trkpt lat="44.42357" lon="5.15702">
        <ele>694.2</ele>
        <time>2022-10-16T07:52:04Z</time>
      </trkpt>
      <trkpt lat="44.42356" lon="5.15702">
        <ele>694.1</ele>
        <time>2022-10-16T07:52:03Z</time>
      </trkpt>
      <trkpt lat="44.42355" lon="5.15702">
        <ele>693.9</ele>
        <time>2022-10-16T07:52:02Z</time>
      </trkpt>
      <trkpt lat="44.42354" lon="5.15702">
        <ele>693.7</ele>
        <time>2022-10-16T07:52:00Z</time>
      </trkpt>
      <trkpt lat="44.42353" lon="5.15702">
        <ele>693.6</ele>
        <time>2022-10-16T07:51:59Z</time>
      </trkpt>
      <trkpt lat="44.42352" lon="5.15702">
        <ele>693.4</ele>
        <time>2022-10-16T07:51:58Z</time>
      </trkpt>
      <trkpt lat="44.42351" lon="5.15702">
        <ele>693.3</ele>
        <time>2022-10-16T07:51:57Z</time>
      </trkpt>
      <trkpt lat="44.4235" lon="5.15702">
        <ele>693.1</ele>
        <time>2022-10-16T07:51:56Z</time>
      </trkpt>
      <trkpt lat="44.42349" lon="5.15702">
        <ele>692.9</ele>
        <time>2022-10-16T07:51:55Z</time>
      </trkpt>
      <trkpt lat="44.42348" lon="5.15701">
        <ele>692.9</ele>
        <time>2022-10-16T07:51:54Z</time>
      </trkpt>
      <trkpt lat="44.42347" lon="5.15701">
        <ele>692.8</ele>
        <time>2022-10-16T07:51:52Z</time>
      </trkpt>
      <trkpt lat="44.42346" lon="5.15701">
        <ele>692.6</ele>
        <time>2022-10-16T07:51:51Z</time>
      </trkpt>
      <trkpt lat="44.42345" lon="5.15701">
        <ele>692.5</ele>
        <time>2022-10-16T07:51:50Z</time>
      </trkpt>
      <trkpt lat="44.42344" lon="5.15701">
        <ele>692.3</ele>
        <time>2022-10-16T07:51:49Z</time>
      </trkpt>
      <trkpt lat="44.42343" lon="5.15701">
        <ele>692.1</ele>
        <time>2022-10-16T07:51:48Z</time>
      </trkpt>
      <trkpt lat="44.42342" lon="5.15701">
        <ele>692</ele>
        <time>2022-10-16T07:51:47Z</time>
      </trkpt>
      <trkpt lat="44.42341" lon="5.15701">
        <ele>691.8</ele>
        <time>2022-10-16T07:51:46Z</time>
      </trkpt>
      <trkpt lat="44.4234" lon="5.15702">
        <ele>691.5</ele>
        <time>2022-10-16T07:51:45Z</time>
      </trkpt>
      <trkpt lat="44.42339" lon="5.15702">
        <ele>691.3</ele>
        <time>2022-10-16T07:51:44Z</time>
      </trkpt>
      <trkpt lat="44.42338" lon="5.15702">
        <ele>691.1</ele>
        <time>2022-10-16T07:51:43Z</time>
      </trkpt>
      <trkpt lat="44.42337" lon="5.15702">
        <ele>691</ele>
        <time>2022-10-16T07:51:42Z</time>
      </trkpt>
      <trkpt lat="44.42336" lon="5.15703">
        <ele>690.6</ele>
        <time>2022-10-16T07:51:41Z</time>
      </trkpt>
      <trkpt lat="44.42335" lon="5.15703">
        <ele>690.4</ele>
        <time>2022-10-16T07:51:40Z</time>
      </trkpt>
      <trkpt lat="44.42334" lon="5.15703">
        <ele>690.3</ele>
        <time>2022-10-16T07:51:39Z</time>
      </trkpt>
      <trkpt lat="44.42333" lon="5.15703">
        <ele>690.1</ele>
        <time>2022-10-16T07:51:38Z</time>
      </trkpt>
      <trkpt lat="44.42332" lon="5.15704">
        <ele>689.6</ele>
        <time>2022-10-16T07:51:36Z</time>
      </trkpt>
      <trkpt lat="44.42331" lon="5.15704">
        <ele>689.4</ele>
        <time>2022-10-16T07:51:35Z</time>
      </trkpt>
      <trkpt lat="44.4233" lon="5.15704">
        <ele>689.2</ele>
        <time>2022-10-16T07:51:34Z</time>
      </trkpt>
      <trkpt lat="44.42329" lon="5.15704">
        <ele>688.9</ele>
        <time>2022-10-16T07:51:33Z</time>
      </trkpt>
      <trkpt lat="44.42328" lon="5.15704">
        <ele>688.7</ele>
        <time>2022-10-16T07:51:32Z</time>
      </trkpt>
      <trkpt lat="44.42327" lon="5.15704">
        <ele>688.5</ele>
        <time>2022-10-16T07:51:31Z</time>
      </trkpt>
      <trkpt lat="44.42326" lon="5.15704">
        <ele>688.3</ele>
        <time>2022-10-16T07:51:30Z</time>
      </trkpt>
      <trkpt lat="44.42325" lon="5.15704">
        <ele>688</ele>
        <time>2022-10-16T07:51:29Z</time>
      </trkpt>
      <trkpt lat="44.42324" lon="5.15704">
        <ele>687.8</ele>
        <time>2022-10-16T07:51:28Z</time>
      </trkpt>
      <trkpt lat="44.42324" lon="5.15703">
        <ele>688</ele>
        <time>2022-10-16T07:51:27Z</time>
      </trkpt>
      <trkpt lat="44.42323" lon="5.15703">
        <ele>687.8</ele>
        <time>2022-10-16T07:51:26Z</time>
      </trkpt>
      <trkpt lat="44.42322" lon="5.15703">
        <ele>687.6</ele>
        <time>2022-10-16T07:51:25Z</time>
      </trkpt>
      <trkpt lat="44.42321" lon="5.15702">
        <ele>687.6</ele>
        <time>2022-10-16T07:51:24Z</time>
      </trkpt>
      <trkpt lat="44.4232" lon="5.15702">
        <ele>687.4</ele>
        <time>2022-10-16T07:51:23Z</time>
      </trkpt>
      <trkpt lat="44.42319" lon="5.15702">
        <ele>687.1</ele>
        <time>2022-10-16T07:51:22Z</time>
      </trkpt>
      <trkpt lat="44.42318" lon="5.15701">
        <ele>687.1</ele>
        <time>2022-10-16T07:51:21Z</time>
      </trkpt>
      <trkpt lat="44.42317" lon="5.15701">
        <ele>686.9</ele>
        <time>2022-10-16T07:51:20Z</time>
      </trkpt>
      <trkpt lat="44.42316" lon="5.15701">
        <ele>686.7</ele>
        <time>2022-10-16T07:51:19Z</time>
      </trkpt>
      <trkpt lat="44.42315" lon="5.15701">
        <ele>686.5</ele>
        <time>2022-10-16T07:51:17Z</time>
      </trkpt>
      <trkpt lat="44.42314" lon="5.15701">
        <ele>686.2</ele>
        <time>2022-10-16T07:51:16Z</time>
      </trkpt>
      <trkpt lat="44.42313" lon="5.15701">
        <ele>686</ele>
        <time>2022-10-16T07:51:15Z</time>
      </trkpt>
      <trkpt lat="44.42312" lon="5.15701">
        <ele>685.8</ele>
        <time>2022-10-16T07:51:14Z</time>
      </trkpt>
      <trkpt lat="44.42311" lon="5.15701">
        <ele>685.6</ele>
        <time>2022-10-16T07:51:13Z</time>
      </trkpt>
      <trkpt lat="44.4231" lon="5.15701">
        <ele>685.3</ele>
        <time>2022-10-16T07:51:12Z</time>
      </trkpt>
      <trkpt lat="44.42309" lon="5.15701">
        <ele>685.1</ele>
        <time>2022-10-16T07:51:11Z</time>
      </trkpt>
      <trkpt lat="44.42307" lon="5.15701">
        <ele>684.7</ele>
        <time>2022-10-16T07:51:10Z</time>
      </trkpt>
      <trkpt lat="44.42306" lon="5.157">
        <ele>684.7</ele>
        <time>2022-10-16T07:51:09Z</time>
      </trkpt>
      <trkpt lat="44.42305" lon="5.157">
        <ele>684.5</ele>
        <time>2022-10-16T07:51:08Z</time>
      </trkpt>
      <trkpt lat="44.42304" lon="5.157">
        <ele>684.3</ele>
        <time>2022-10-16T07:51:07Z</time>
      </trkpt>
      <trkpt lat="44.42303" lon="5.157">
        <ele>684.1</ele>
        <time>2022-10-16T07:51:06Z</time>
      </trkpt>
      <trkpt lat="44.42302" lon="5.157">
        <ele>683.9</ele>
        <time>2022-10-16T07:51:05Z</time>
      </trkpt>
      <trkpt lat="44.42301" lon="5.157">
        <ele>683.6</ele>
        <time>2022-10-16T07:51:04Z</time>
      </trkpt>
      <trkpt lat="44.423" lon="5.157">
        <ele>683.4</ele>
        <time>2022-10-16T07:51:03Z</time>
      </trkpt>
      <trkpt lat="44.42299" lon="5.157">
        <ele>683.2</ele>
        <time>2022-10-16T07:51:01Z</time>
      </trkpt>
      <trkpt lat="44.42298" lon="5.157">
        <ele>683</ele>
        <time>2022-10-16T07:51:00Z</time>
      </trkpt>
      <trkpt lat="44.42297" lon="5.15699">
        <ele>683.1</ele>
        <time>2022-10-16T07:50:59Z</time>
      </trkpt>
      <trkpt lat="44.42296" lon="5.15699">
        <ele>682.8</ele>
        <time>2022-10-16T07:50:58Z</time>
      </trkpt>
      <trkpt lat="44.42295" lon="5.15698">
        <ele>682.9</ele>
        <time>2022-10-16T07:50:57Z</time>
      </trkpt>
      <trkpt lat="44.42294" lon="5.15698">
        <ele>682.7</ele>
        <time>2022-10-16T07:50:56Z</time>
      </trkpt>
      <trkpt lat="44.42294" lon="5.15697">
        <ele>682.9</ele>
        <time>2022-10-16T07:50:55Z</time>
      </trkpt>
      <trkpt lat="44.42293" lon="5.15697">
        <ele>682.7</ele>
        <time>2022-10-16T07:50:54Z</time>
      </trkpt>
      <trkpt lat="44.42292" lon="5.15696">
        <ele>682.7</ele>
        <time>2022-10-16T07:50:53Z</time>
      </trkpt>
      <trkpt lat="44.42291" lon="5.15696">
        <ele>682.5</ele>
        <time>2022-10-16T07:50:52Z</time>
      </trkpt>
      <trkpt lat="44.4229" lon="5.15695">
        <ele>682.5</ele>
        <time>2022-10-16T07:50:50Z</time>
      </trkpt>
      <trkpt lat="44.42289" lon="5.15694">
        <ele>682.5</ele>
        <time>2022-10-16T07:50:49Z</time>
      </trkpt>
      <trkpt lat="44.42288" lon="5.15694">
        <ele>682.3</ele>
        <time>2022-10-16T07:50:48Z</time>
      </trkpt>
      <trkpt lat="44.42287" lon="5.15693">
        <ele>682.2</ele>
        <time>2022-10-16T07:50:47Z</time>
      </trkpt>
      <trkpt lat="44.42286" lon="5.15693">
        <ele>681.9</ele>
        <time>2022-10-16T07:50:46Z</time>
      </trkpt>
      <trkpt lat="44.42285" lon="5.15693">
        <ele>681.7</ele>
        <time>2022-10-16T07:50:45Z</time>
      </trkpt>
      <trkpt lat="44.42285" lon="5.15692">
        <ele>681.8</ele>
        <time>2022-10-16T07:50:44Z</time>
      </trkpt>
      <trkpt lat="44.42283" lon="5.15692">
        <ele>681.4</ele>
        <time>2022-10-16T07:50:43Z</time>
      </trkpt>
      <trkpt lat="44.42282" lon="5.15692">
        <ele>681.2</ele>
        <time>2022-10-16T07:50:42Z</time>
      </trkpt>
      <trkpt lat="44.42281" lon="5.15692">
        <ele>681</ele>
        <time>2022-10-16T07:50:41Z</time>
      </trkpt>
      <trkpt lat="44.4228" lon="5.15692">
        <ele>680.8</ele>
        <time>2022-10-16T07:50:40Z</time>
      </trkpt>
      <trkpt lat="44.42279" lon="5.15693">
        <ele>680.4</ele>
        <time>2022-10-16T07:50:39Z</time>
      </trkpt>
      <trkpt lat="44.42279" lon="5.15694">
        <ele>680.3</ele>
        <time>2022-10-16T07:50:38Z</time>
      </trkpt>
      <trkpt lat="44.42278" lon="5.15695">
        <ele>679.9</ele>
        <time>2022-10-16T07:50:37Z</time>
      </trkpt>
      <trkpt lat="44.42277" lon="5.15696">
        <ele>679.5</ele>
        <time>2022-10-16T07:50:36Z</time>
      </trkpt>
      <trkpt lat="44.42277" lon="5.15697">
        <ele>679.3</ele>
        <time>2022-10-16T07:50:35Z</time>
      </trkpt>
      <trkpt lat="44.42277" lon="5.15698">
        <ele>679.1</ele>
        <time>2022-10-16T07:50:34Z</time>
      </trkpt>
      <trkpt lat="44.42277" lon="5.157">
        <ele>678.6</ele>
        <time>2022-10-16T07:50:33Z</time>
      </trkpt>
      <trkpt lat="44.42277" lon="5.15701">
        <ele>678.4</ele>
        <time>2022-10-16T07:50:32Z</time>
      </trkpt>
      <trkpt lat="44.42277" lon="5.15702">
        <ele>678.2</ele>
        <time>2022-10-16T07:50:31Z</time>
      </trkpt>
      <trkpt lat="44.42278" lon="5.15703">
        <ele>678.2</ele>
        <time>2022-10-16T07:50:30Z</time>
      </trkpt>
      <trkpt lat="44.42278" lon="5.15704">
        <ele>678</ele>
        <time>2022-10-16T07:50:29Z</time>
      </trkpt>
      <trkpt lat="44.42279" lon="5.15705">
        <ele>678</ele>
        <time>2022-10-16T07:50:28Z</time>
      </trkpt>
      <trkpt lat="44.42279" lon="5.15706">
        <ele>677.7</ele>
        <time>2022-10-16T07:50:27Z</time>
      </trkpt>
      <trkpt lat="44.4228" lon="5.15707">
        <ele>677.7</ele>
        <time>2022-10-16T07:50:26Z</time>
      </trkpt>
      <trkpt lat="44.42281" lon="5.15707">
        <ele>677.9</ele>
        <time>2022-10-16T07:50:25Z</time>
      </trkpt>
      <trkpt lat="44.42282" lon="5.15708">
        <ele>677.9</ele>
        <time>2022-10-16T07:50:23Z</time>
      </trkpt>
      <trkpt lat="44.42283" lon="5.15709">
        <ele>677.9</ele>
        <time>2022-10-16T07:50:22Z</time>
      </trkpt>
      <trkpt lat="44.42284" lon="5.15709">
        <ele>678.1</ele>
        <time>2022-10-16T07:50:21Z</time>
      </trkpt>
      <trkpt lat="44.42285" lon="5.1571">
        <ele>678.1</ele>
        <time>2022-10-16T07:50:20Z</time>
      </trkpt>
      <trkpt lat="44.42286" lon="5.1571">
        <ele>678.3</ele>
        <time>2022-10-16T07:50:19Z</time>
      </trkpt>
      <trkpt lat="44.42286" lon="5.15711">
        <ele>678</ele>
        <time>2022-10-16T07:50:18Z</time>
      </trkpt>
      <trkpt lat="44.42287" lon="5.15711">
        <ele>678.2</ele>
        <time>2022-10-16T07:50:17Z</time>
      </trkpt>
      <trkpt lat="44.42288" lon="5.15712">
        <ele>678.2</ele>
        <time>2022-10-16T07:50:16Z</time>
      </trkpt>
      <trkpt lat="44.42289" lon="5.15712">
        <ele>678.4</ele>
        <time>2022-10-16T07:50:15Z</time>
      </trkpt>
      <trkpt lat="44.4229" lon="5.15713">
        <ele>678.3</ele>
        <time>2022-10-16T07:50:14Z</time>
      </trkpt>
      <trkpt lat="44.42291" lon="5.15713">
        <ele>678.5</ele>
        <time>2022-10-16T07:50:13Z</time>
      </trkpt>
      <trkpt lat="44.42291" lon="5.15714">
        <ele>678.3</ele>
        <time>2022-10-16T07:50:12Z</time>
      </trkpt>
      <trkpt lat="44.42292" lon="5.15714">
        <ele>678.5</ele>
        <time>2022-10-16T07:50:11Z</time>
      </trkpt>
      <trkpt lat="44.42293" lon="5.15715">
        <ele>678.4</ele>
        <time>2022-10-16T07:50:10Z</time>
      </trkpt>
      <trkpt lat="44.42294" lon="5.15715">
        <ele>678.6</ele>
        <time>2022-10-16T07:50:09Z</time>
      </trkpt>
      <trkpt lat="44.42295" lon="5.15716">
        <ele>678.6</ele>
        <time>2022-10-16T07:50:08Z</time>
      </trkpt>
      <trkpt lat="44.42296" lon="5.15716">
        <ele>678.8</ele>
        <time>2022-10-16T07:50:07Z</time>
      </trkpt>
      <trkpt lat="44.42296" lon="5.15717">
        <ele>678.5</ele>
        <time>2022-10-16T07:50:06Z</time>
      </trkpt>
      <trkpt lat="44.42297" lon="5.15718">
        <ele>678.5</ele>
        <time>2022-10-16T07:50:05Z</time>
      </trkpt>
      <trkpt lat="44.42298" lon="5.15718">
        <ele>678.7</ele>
        <time>2022-10-16T07:50:04Z</time>
      </trkpt>
      <trkpt lat="44.42299" lon="5.15719">
        <ele>678.6</ele>
        <time>2022-10-16T07:50:03Z</time>
      </trkpt>
      <trkpt lat="44.423" lon="5.15719">
        <ele>678.8</ele>
        <time>2022-10-16T07:50:02Z</time>
      </trkpt>
      <trkpt lat="44.423" lon="5.1572">
        <ele>678.5</ele>
        <time>2022-10-16T07:50:01Z</time>
      </trkpt>
      <trkpt lat="44.42301" lon="5.1572">
        <ele>678.7</ele>
        <time>2022-10-16T07:50:00Z</time>
      </trkpt>
      <trkpt lat="44.42302" lon="5.15721">
        <ele>678.7</ele>
        <time>2022-10-16T07:49:59Z</time>
      </trkpt>
      <trkpt lat="44.42303" lon="5.15721">
        <ele>678.8</ele>
        <time>2022-10-16T07:49:58Z</time>
      </trkpt>
      <trkpt lat="44.42303" lon="5.15722">
        <ele>678.6</ele>
        <time>2022-10-16T07:49:57Z</time>
      </trkpt>
      <trkpt lat="44.42304" lon="5.15722">
        <ele>678.8</ele>
        <time>2022-10-16T07:49:56Z</time>
      </trkpt>
      <trkpt lat="44.42305" lon="5.15722">
        <ele>679</ele>
        <time>2022-10-16T07:49:55Z</time>
      </trkpt>
      <trkpt lat="44.42306" lon="5.15723">
        <ele>679.1</ele>
        <time>2022-10-16T07:49:54Z</time>
      </trkpt>
      <trkpt lat="44.42307" lon="5.15723">
        <ele>679.3</ele>
        <time>2022-10-16T07:49:53Z</time>
      </trkpt>
      <trkpt lat="44.42308" lon="5.15723">
        <ele>679.6</ele>
        <time>2022-10-16T07:49:52Z</time>
      </trkpt>
      <trkpt lat="44.42309" lon="5.15723">
        <ele>679.8</ele>
        <time>2022-10-16T07:49:51Z</time>
      </trkpt>
      <trkpt lat="44.4231" lon="5.15724">
        <ele>680</ele>
        <time>2022-10-16T07:49:50Z</time>
      </trkpt>
      <trkpt lat="44.42311" lon="5.15724">
        <ele>680.3</ele>
        <time>2022-10-16T07:49:49Z</time>
      </trkpt>
      <trkpt lat="44.42312" lon="5.15724">
        <ele>680.5</ele>
        <time>2022-10-16T07:49:48Z</time>
      </trkpt>
      <trkpt lat="44.42312" lon="5.15725">
        <ele>680.5</ele>
        <time>2022-10-16T07:49:47Z</time>
      </trkpt>
      <trkpt lat="44.42313" lon="5.15725">
        <ele>680.7</ele>
        <time>2022-10-16T07:49:46Z</time>
      </trkpt>
      <trkpt lat="44.42313" lon="5.15726">
        <ele>680.7</ele>
        <time>2022-10-16T07:49:45Z</time>
      </trkpt>
      <trkpt lat="44.42314" lon="5.15727">
        <ele>680.9</ele>
        <time>2022-10-16T07:49:44Z</time>
      </trkpt>
      <trkpt lat="44.42314" lon="5.15728">
        <ele>680.8</ele>
        <time>2022-10-16T07:49:43Z</time>
      </trkpt>
      <trkpt lat="44.42315" lon="5.15729">
        <ele>681.1</ele>
        <time>2022-10-16T07:49:42Z</time>
      </trkpt>
      <trkpt lat="44.42315" lon="5.1573">
        <ele>681</ele>
        <time>2022-10-16T07:49:41Z</time>
      </trkpt>
      <trkpt lat="44.42315" lon="5.15731">
        <ele>681</ele>
        <time>2022-10-16T07:49:40Z</time>
      </trkpt>
      <trkpt lat="44.42315" lon="5.15732">
        <ele>680.9</ele>
        <time>2022-10-16T07:49:39Z</time>
      </trkpt>
      <trkpt lat="44.42315" lon="5.15733">
        <ele>680.9</ele>
        <time>2022-10-16T07:49:38Z</time>
      </trkpt>
      <trkpt lat="44.42315" lon="5.15734">
        <ele>680.8</ele>
        <time>2022-10-16T07:49:37Z</time>
      </trkpt>
      <trkpt lat="44.42315" lon="5.15735">
        <ele>680.8</ele>
        <time>2022-10-16T07:49:36Z</time>
      </trkpt>
      <trkpt lat="44.42315" lon="5.15736">
        <ele>680.7</ele>
        <time>2022-10-16T07:49:35Z</time>
      </trkpt>
      <trkpt lat="44.42315" lon="5.15737">
        <ele>680.7</ele>
        <time>2022-10-16T07:49:34Z</time>
      </trkpt>
      <trkpt lat="44.42315" lon="5.15738">
        <ele>680.6</ele>
        <time>2022-10-16T07:49:33Z</time>
      </trkpt>
      <trkpt lat="44.42315" lon="5.15739">
        <ele>680.6</ele>
        <time>2022-10-16T07:49:32Z</time>
      </trkpt>
      <trkpt lat="44.42315" lon="5.1574">
        <ele>680.5</ele>
        <time>2022-10-16T07:49:31Z</time>
      </trkpt>
      <trkpt lat="44.42314" lon="5.15742">
        <ele>680.1</ele>
        <time>2022-10-16T07:49:30Z</time>
      </trkpt>
      <trkpt lat="44.42314" lon="5.15743">
        <ele>680.1</ele>
        <time>2022-10-16T07:49:29Z</time>
      </trkpt>
      <trkpt lat="44.42314" lon="5.15744">
        <ele>680</ele>
        <time>2022-10-16T07:49:28Z</time>
      </trkpt>
      <trkpt lat="44.42314" lon="5.15745">
        <ele>680</ele>
        <time>2022-10-16T07:49:27Z</time>
      </trkpt>
      <trkpt lat="44.42314" lon="5.15746">
        <ele>679.9</ele>
        <time>2022-10-16T07:49:26Z</time>
      </trkpt>
      <trkpt lat="44.42314" lon="5.15747">
        <ele>679.9</ele>
        <time>2022-10-16T07:49:25Z</time>
      </trkpt>
      <trkpt lat="44.42314" lon="5.15748">
        <ele>679.8</ele>
        <time>2022-10-16T07:49:24Z</time>
      </trkpt>
      <trkpt lat="44.42314" lon="5.15749">
        <ele>679.8</ele>
        <time>2022-10-16T07:49:23Z</time>
      </trkpt>
      <trkpt lat="44.42314" lon="5.1575">
        <ele>679.7</ele>
        <time>2022-10-16T07:49:22Z</time>
      </trkpt>
      <trkpt lat="44.42313" lon="5.15752">
        <ele>679.4</ele>
        <time>2022-10-16T07:49:21Z</time>
      </trkpt>
      <trkpt lat="44.42313" lon="5.15753">
        <ele>679.4</ele>
        <time>2022-10-16T07:49:20Z</time>
      </trkpt>
      <trkpt lat="44.42313" lon="5.15754">
        <ele>679.3</ele>
        <time>2022-10-16T07:49:19Z</time>
      </trkpt>
      <trkpt lat="44.42313" lon="5.15755">
        <ele>679.3</ele>
        <time>2022-10-16T07:49:18Z</time>
      </trkpt>
      <trkpt lat="44.42312" lon="5.15756">
        <ele>679</ele>
        <time>2022-10-16T07:49:16Z</time>
      </trkpt>
      <trkpt lat="44.42312" lon="5.15757">
        <ele>679</ele>
        <time>2022-10-16T07:49:15Z</time>
      </trkpt>
      <trkpt lat="44.42311" lon="5.15758">
        <ele>678.6</ele>
        <time>2022-10-16T07:49:14Z</time>
      </trkpt>
      <trkpt lat="44.4231" lon="5.15758">
        <ele>678.2</ele>
        <time>2022-10-16T07:49:12Z</time>
      </trkpt>
      <trkpt lat="44.42309" lon="5.15759">
        <ele>677.9</ele>
        <time>2022-10-16T07:49:11Z</time>
      </trkpt>
      <trkpt lat="44.42308" lon="5.15759">
        <ele>677.5</ele>
        <time>2022-10-16T07:49:10Z</time>
      </trkpt>
      <trkpt lat="44.42307" lon="5.15759">
        <ele>677.2</ele>
        <time>2022-10-16T07:49:09Z</time>
      </trkpt>
      <trkpt lat="44.42306" lon="5.15759">
        <ele>676.8</ele>
        <time>2022-10-16T07:49:08Z</time>
      </trkpt>
      <trkpt lat="44.42305" lon="5.15758">
        <ele>676.5</ele>
        <time>2022-10-16T07:49:06Z</time>
      </trkpt>
      <trkpt lat="44.42304" lon="5.15758">
        <ele>676.2</ele>
        <time>2022-10-16T07:49:05Z</time>
      </trkpt>
      <trkpt lat="44.42303" lon="5.15757">
        <ele>676</ele>
        <time>2022-10-16T07:49:03Z</time>
      </trkpt>
      <trkpt lat="44.42302" lon="5.15756">
        <ele>675.7</ele>
        <time>2022-10-16T07:49:02Z</time>
      </trkpt>
      <trkpt lat="44.42301" lon="5.15756">
        <ele>675.4</ele>
        <time>2022-10-16T07:49:01Z</time>
      </trkpt>
      <trkpt lat="44.423" lon="5.15755">
        <ele>675.1</ele>
        <time>2022-10-16T07:48:59Z</time>
      </trkpt>
      <trkpt lat="44.42299" lon="5.15754">
        <ele>674.9</ele>
        <time>2022-10-16T07:48:58Z</time>
      </trkpt>
      <trkpt lat="44.42299" lon="5.15753">
        <ele>675</ele>
        <time>2022-10-16T07:48:57Z</time>
      </trkpt>
      <trkpt lat="44.42298" lon="5.15753">
        <ele>674.7</ele>
        <time>2022-10-16T07:48:56Z</time>
      </trkpt>
      <trkpt lat="44.42297" lon="5.15752">
        <ele>674.4</ele>
        <time>2022-10-16T07:48:55Z</time>
      </trkpt>
      <trkpt lat="44.42297" lon="5.15751">
        <ele>674.5</ele>
        <time>2022-10-16T07:48:54Z</time>
      </trkpt>
      <trkpt lat="44.42296" lon="5.15751">
        <ele>674.2</ele>
        <time>2022-10-16T07:48:53Z</time>
      </trkpt>
      <trkpt lat="44.42295" lon="5.1575">
        <ele>674</ele>
        <time>2022-10-16T07:48:52Z</time>
      </trkpt>
      <trkpt lat="44.42294" lon="5.1575">
        <ele>673.7</ele>
        <time>2022-10-16T07:48:51Z</time>
      </trkpt>
      <trkpt lat="44.42293" lon="5.15749">
        <ele>673.5</ele>
        <time>2022-10-16T07:48:49Z</time>
      </trkpt>
      <trkpt lat="44.42292" lon="5.15748">
        <ele>673.3</ele>
        <time>2022-10-16T07:48:48Z</time>
      </trkpt>
      <trkpt lat="44.42291" lon="5.15748">
        <ele>673.1</ele>
        <time>2022-10-16T07:48:47Z</time>
      </trkpt>
      <trkpt lat="44.4229" lon="5.15748">
        <ele>672.8</ele>
        <time>2022-10-16T07:48:46Z</time>
      </trkpt>
      <trkpt lat="44.42289" lon="5.15748">
        <ele>672.5</ele>
        <time>2022-10-16T07:48:45Z</time>
      </trkpt>
      <trkpt lat="44.42288" lon="5.15748">
        <ele>672.2</ele>
        <time>2022-10-16T07:48:44Z</time>
      </trkpt>
      <trkpt lat="44.42287" lon="5.15748">
        <ele>671.9</ele>
        <time>2022-10-16T07:48:42Z</time>
      </trkpt>
      <trkpt lat="44.42286" lon="5.15748">
        <ele>671.7</ele>
        <time>2022-10-16T07:48:41Z</time>
      </trkpt>
      <trkpt lat="44.42285" lon="5.15749">
        <ele>671.2</ele>
        <time>2022-10-16T07:48:40Z</time>
      </trkpt>
      <trkpt lat="44.42284" lon="5.15749">
        <ele>670.9</ele>
        <time>2022-10-16T07:48:39Z</time>
      </trkpt>
      <trkpt lat="44.42284" lon="5.1575">
        <ele>670.8</ele>
        <time>2022-10-16T07:48:38Z</time>
      </trkpt>
      <trkpt lat="44.42283" lon="5.15751">
        <ele>670.4</ele>
        <time>2022-10-16T07:48:37Z</time>
      </trkpt>
      <trkpt lat="44.42282" lon="5.15751">
        <ele>670.1</ele>
        <time>2022-10-16T07:48:36Z</time>
      </trkpt>
      <trkpt lat="44.42281" lon="5.15752">
        <ele>669.7</ele>
        <time>2022-10-16T07:48:35Z</time>
      </trkpt>
      <trkpt lat="44.4228" lon="5.15753">
        <ele>669.3</ele>
        <time>2022-10-16T07:48:34Z</time>
      </trkpt>
      <trkpt lat="44.4228" lon="5.15754">
        <ele>669.2</ele>
        <time>2022-10-16T07:48:33Z</time>
      </trkpt>
      <trkpt lat="44.42279" lon="5.15754">
        <ele>668.9</ele>
        <time>2022-10-16T07:48:32Z</time>
      </trkpt>
      <trkpt lat="44.42278" lon="5.15755">
        <ele>668.5</ele>
        <time>2022-10-16T07:48:30Z</time>
      </trkpt>
      <trkpt lat="44.42277" lon="5.15756">
        <ele>668.2</ele>
        <time>2022-10-16T07:48:29Z</time>
      </trkpt>
      <trkpt lat="44.42276" lon="5.15756">
        <ele>668</ele>
        <time>2022-10-16T07:48:28Z</time>
      </trkpt>
      <trkpt lat="44.42275" lon="5.15757">
        <ele>667.6</ele>
        <time>2022-10-16T07:48:26Z</time>
      </trkpt>
      <trkpt lat="44.42274" lon="5.15758">
        <ele>667.3</ele>
        <time>2022-10-16T07:48:25Z</time>
      </trkpt>
      <trkpt lat="44.42273" lon="5.15759">
        <ele>667</ele>
        <time>2022-10-16T07:48:23Z</time>
      </trkpt>
      <trkpt lat="44.42272" lon="5.1576">
        <ele>666.7</ele>
        <time>2022-10-16T07:48:22Z</time>
      </trkpt>
      <trkpt lat="44.42271" lon="5.1576">
        <ele>666.5</ele>
        <time>2022-10-16T07:48:21Z</time>
      </trkpt>
      <trkpt lat="44.42271" lon="5.15761">
        <ele>666.3</ele>
        <time>2022-10-16T07:48:20Z</time>
      </trkpt>
      <trkpt lat="44.4227" lon="5.15761">
        <ele>666.1</ele>
        <time>2022-10-16T07:48:19Z</time>
      </trkpt>
      <trkpt lat="44.42269" lon="5.15761">
        <ele>665.9</ele>
        <time>2022-10-16T07:48:18Z</time>
      </trkpt>
      <trkpt lat="44.42268" lon="5.15762">
        <ele>665.6</ele>
        <time>2022-10-16T07:48:17Z</time>
      </trkpt>
      <trkpt lat="44.42267" lon="5.15763">
        <ele>665.3</ele>
        <time>2022-10-16T07:48:15Z</time>
      </trkpt>
      <trkpt lat="44.42266" lon="5.15764">
        <ele>664.9</ele>
        <time>2022-10-16T07:48:14Z</time>
      </trkpt>
      <trkpt lat="44.42265" lon="5.15764">
        <ele>664.7</ele>
        <time>2022-10-16T07:48:13Z</time>
      </trkpt>
      <trkpt lat="44.42264" lon="5.15765">
        <ele>664.4</ele>
        <time>2022-10-16T07:48:12Z</time>
      </trkpt>
      <trkpt lat="44.42264" lon="5.15766">
        <ele>664.3</ele>
        <time>2022-10-16T07:48:11Z</time>
      </trkpt>
      <trkpt lat="44.42263" lon="5.15766">
        <ele>664.1</ele>
        <time>2022-10-16T07:48:10Z</time>
      </trkpt>
      <trkpt lat="44.42262" lon="5.15767">
        <ele>663.8</ele>
        <time>2022-10-16T07:48:09Z</time>
      </trkpt>
      <trkpt lat="44.42261" lon="5.15768">
        <ele>663.4</ele>
        <time>2022-10-16T07:48:07Z</time>
      </trkpt>
      <trkpt lat="44.4226" lon="5.15769">
        <ele>663.1</ele>
        <time>2022-10-16T07:48:06Z</time>
      </trkpt>
      <trkpt lat="44.42259" lon="5.15769">
        <ele>662.9</ele>
        <time>2022-10-16T07:48:05Z</time>
      </trkpt>
      <trkpt lat="44.42259" lon="5.1577">
        <ele>662.8</ele>
        <time>2022-10-16T07:48:04Z</time>
      </trkpt>
      <trkpt lat="44.42258" lon="5.15771">
        <ele>662.5</ele>
        <time>2022-10-16T07:48:03Z</time>
      </trkpt>
      <trkpt lat="44.42257" lon="5.15771">
        <ele>662.2</ele>
        <time>2022-10-16T07:48:01Z</time>
      </trkpt>
      <trkpt lat="44.42256" lon="5.15772">
        <ele>661.9</ele>
        <time>2022-10-16T07:48:00Z</time>
      </trkpt>
      <trkpt lat="44.42255" lon="5.15772">
        <ele>661.7</ele>
        <time>2022-10-16T07:47:59Z</time>
      </trkpt>
      <trkpt lat="44.42254" lon="5.15773">
        <ele>661.4</ele>
        <time>2022-10-16T07:47:57Z</time>
      </trkpt>
      <trkpt lat="44.42253" lon="5.15774">
        <ele>661.1</ele>
        <time>2022-10-16T07:47:56Z</time>
      </trkpt>
      <trkpt lat="44.42252" lon="5.15774">
        <ele>660.8</ele>
        <time>2022-10-16T07:47:55Z</time>
      </trkpt>
      <trkpt lat="44.42251" lon="5.15774">
        <ele>660.6</ele>
        <time>2022-10-16T07:47:54Z</time>
      </trkpt>
      <trkpt lat="44.4225" lon="5.15774">
        <ele>660.4</ele>
        <time>2022-10-16T07:47:53Z</time>
      </trkpt>
      <trkpt lat="44.42249" lon="5.15774">
        <ele>660.3</ele>
        <time>2022-10-16T07:47:52Z</time>
      </trkpt>
      <trkpt lat="44.42248" lon="5.15774">
        <ele>660.2</ele>
        <time>2022-10-16T07:47:51Z</time>
      </trkpt>
      <trkpt lat="44.42247" lon="5.15774">
        <ele>660.1</ele>
        <time>2022-10-16T07:47:49Z</time>
      </trkpt>
      <trkpt lat="44.42246" lon="5.15774">
        <ele>660</ele>
        <time>2022-10-16T07:47:48Z</time>
      </trkpt>
      <trkpt lat="44.42245" lon="5.15774">
        <ele>659.8</ele>
        <time>2022-10-16T07:47:47Z</time>
      </trkpt>
      <trkpt lat="44.42244" lon="5.15774">
        <ele>659.7</ele>
        <time>2022-10-16T07:47:46Z</time>
      </trkpt>
      <trkpt lat="44.42243" lon="5.15774">
        <ele>659.6</ele>
        <time>2022-10-16T07:47:45Z</time>
      </trkpt>
      <trkpt lat="44.42242" lon="5.15774">
        <ele>659.5</ele>
        <time>2022-10-16T07:47:43Z</time>
      </trkpt>
      <trkpt lat="44.42239" lon="5.15774">
        <ele>659.2</ele>
        <time>2022-10-16T07:47:15Z</time>
      </trkpt>
      <trkpt lat="44.42238" lon="5.15775">
        <ele>659</ele>
        <time>2022-10-16T07:47:14Z</time>
      </trkpt>
      <trkpt lat="44.42237" lon="5.15776">
        <ele>658.8</ele>
        <time>2022-10-16T07:43:51Z</time>
      </trkpt>
      <trkpt lat="44.42236" lon="5.15776">
        <ele>658.6</ele>
        <time>2022-10-16T07:43:50Z</time>
      </trkpt>
      <trkpt lat="44.42235" lon="5.15777">
        <ele>658.4</ele>
        <time>2022-10-16T07:43:49Z</time>
      </trkpt>
      <trkpt lat="44.42234" lon="5.15777">
        <ele>658.3</ele>
        <time>2022-10-16T07:43:48Z</time>
      </trkpt>
      <trkpt lat="44.42233" lon="5.15778">
        <ele>658.1</ele>
        <time>2022-10-16T07:43:46Z</time>
      </trkpt>
      <trkpt lat="44.42232" lon="5.15779">
        <ele>657.8</ele>
        <time>2022-10-16T07:43:45Z</time>
      </trkpt>
      <trkpt lat="44.42231" lon="5.1578">
        <ele>657.5</ele>
        <time>2022-10-16T07:43:44Z</time>
      </trkpt>
      <trkpt lat="44.4223" lon="5.1578">
        <ele>657.4</ele>
        <time>2022-10-16T07:43:43Z</time>
      </trkpt>
      <trkpt lat="44.42229" lon="5.15781">
        <ele>657.1</ele>
        <time>2022-10-16T07:43:42Z</time>
      </trkpt>
      <trkpt lat="44.42228" lon="5.15781">
        <ele>657</ele>
        <time>2022-10-16T07:43:41Z</time>
      </trkpt>
      <trkpt lat="44.42228" lon="5.15782">
        <ele>656.8</ele>
        <time>2022-10-16T07:43:40Z</time>
      </trkpt>
      <trkpt lat="44.42227" lon="5.15783">
        <ele>656.5</ele>
        <time>2022-10-16T07:43:39Z</time>
      </trkpt>
      <trkpt lat="44.42226" lon="5.15783">
        <ele>656.4</ele>
        <time>2022-10-16T07:43:38Z</time>
      </trkpt>
      <trkpt lat="44.42225" lon="5.15784">
        <ele>656.2</ele>
        <time>2022-10-16T07:43:37Z</time>
      </trkpt>
      <trkpt lat="44.42225" lon="5.15785">
        <ele>656</ele>
        <time>2022-10-16T07:43:36Z</time>
      </trkpt>
      <trkpt lat="44.42224" lon="5.15785">
        <ele>655.9</ele>
        <time>2022-10-16T07:43:35Z</time>
      </trkpt>
      <trkpt lat="44.42223" lon="5.15786">
        <ele>655.6</ele>
        <time>2022-10-16T07:43:34Z</time>
      </trkpt>
      <trkpt lat="44.42222" lon="5.15787">
        <ele>655.3</ele>
        <time>2022-10-16T07:43:33Z</time>
      </trkpt>
      <trkpt lat="44.42222" lon="5.15788">
        <ele>655.1</ele>
        <time>2022-10-16T07:43:32Z</time>
      </trkpt>
      <trkpt lat="44.42221" lon="5.15789">
        <ele>654.8</ele>
        <time>2022-10-16T07:43:31Z</time>
      </trkpt>
      <trkpt lat="44.42221" lon="5.1579">
        <ele>654.6</ele>
        <time>2022-10-16T07:43:30Z</time>
      </trkpt>
      <trkpt lat="44.4222" lon="5.15791">
        <ele>654.3</ele>
        <time>2022-10-16T07:43:29Z</time>
      </trkpt>
      <trkpt lat="44.42219" lon="5.15792">
        <ele>654</ele>
        <time>2022-10-16T07:43:28Z</time>
      </trkpt>
      <trkpt lat="44.42219" lon="5.15794">
        <ele>653.7</ele>
        <time>2022-10-16T07:43:27Z</time>
      </trkpt>
      <trkpt lat="44.42219" lon="5.15795">
        <ele>653.5</ele>
        <time>2022-10-16T07:43:26Z</time>
      </trkpt>
      <trkpt lat="44.42219" lon="5.15796">
        <ele>653.3</ele>
        <time>2022-10-16T07:43:25Z</time>
      </trkpt>
      <trkpt lat="44.42218" lon="5.15798">
        <ele>652.9</ele>
        <time>2022-10-16T07:43:24Z</time>
      </trkpt>
      <trkpt lat="44.42218" lon="5.15799">
        <ele>652.7</ele>
        <time>2022-10-16T07:43:23Z</time>
      </trkpt>
      <trkpt lat="44.42218" lon="5.15801">
        <ele>652.3</ele>
        <time>2022-10-16T07:43:22Z</time>
      </trkpt>
      <trkpt lat="44.42218" lon="5.15802">
        <ele>652.2</ele>
        <time>2022-10-16T07:43:21Z</time>
      </trkpt>
      <trkpt lat="44.42218" lon="5.15803">
        <ele>652</ele>
        <time>2022-10-16T07:43:20Z</time>
      </trkpt>
      <trkpt lat="44.42219" lon="5.15805">
        <ele>651.7</ele>
        <time>2022-10-16T07:43:19Z</time>
      </trkpt>
      <trkpt lat="44.42219" lon="5.15806">
        <ele>651.5</ele>
        <time>2022-10-16T07:43:18Z</time>
      </trkpt>
      <trkpt lat="44.42219" lon="5.15807">
        <ele>651.3</ele>
        <time>2022-10-16T07:43:17Z</time>
      </trkpt>
      <trkpt lat="44.42219" lon="5.15809">
        <ele>650.8</ele>
        <time>2022-10-16T07:43:16Z</time>
      </trkpt>
      <trkpt lat="44.4222" lon="5.1581">
        <ele>650.6</ele>
        <time>2022-10-16T07:43:15Z</time>
      </trkpt>
      <trkpt lat="44.4222" lon="5.15812">
        <ele>650.1</ele>
        <time>2022-10-16T07:43:14Z</time>
      </trkpt>
      <trkpt lat="44.42221" lon="5.15813">
        <ele>650</ele>
        <time>2022-10-16T07:43:13Z</time>
      </trkpt>
      <trkpt lat="44.42221" lon="5.15814">
        <ele>649.7</ele>
        <time>2022-10-16T07:43:12Z</time>
      </trkpt>
      <trkpt lat="44.42222" lon="5.15815">
        <ele>649.6</ele>
        <time>2022-10-16T07:43:11Z</time>
      </trkpt>
      <trkpt lat="44.42223" lon="5.15816">
        <ele>649.4</ele>
        <time>2022-10-16T07:43:09Z</time>
      </trkpt>
      <trkpt lat="44.42224" lon="5.15817">
        <ele>649.2</ele>
        <time>2022-10-16T07:43:08Z</time>
      </trkpt>
      <trkpt lat="44.42225" lon="5.15818">
        <ele>649</ele>
        <time>2022-10-16T07:43:07Z</time>
      </trkpt>
      <trkpt lat="44.42226" lon="5.15818">
        <ele>649.1</ele>
        <time>2022-10-16T07:43:06Z</time>
      </trkpt>
      <trkpt lat="44.42227" lon="5.15819">
        <ele>648.9</ele>
        <time>2022-10-16T07:43:05Z</time>
      </trkpt>
      <trkpt lat="44.42228" lon="5.15819">
        <ele>648.9</ele>
        <time>2022-10-16T07:43:04Z</time>
      </trkpt>
      <trkpt lat="44.42228" lon="5.1582">
        <ele>648.7</ele>
        <time>2022-10-16T07:43:03Z</time>
      </trkpt>
      <trkpt lat="44.42229" lon="5.1582">
        <ele>648.7</ele>
        <time>2022-10-16T07:43:02Z</time>
      </trkpt>
      <trkpt lat="44.4223" lon="5.15821">
        <ele>648.5</ele>
        <time>2022-10-16T07:43:01Z</time>
      </trkpt>
      <trkpt lat="44.42231" lon="5.15821">
        <ele>648.6</ele>
        <time>2022-10-16T07:43:00Z</time>
      </trkpt>
      <trkpt lat="44.42232" lon="5.15821">
        <ele>648.6</ele>
        <time>2022-10-16T07:42:59Z</time>
      </trkpt>
      <trkpt lat="44.42234" lon="5.15822">
        <ele>648.5</ele>
        <time>2022-10-16T07:42:58Z</time>
      </trkpt>
      <trkpt lat="44.42235" lon="5.15822">
        <ele>648.5</ele>
        <time>2022-10-16T07:42:57Z</time>
      </trkpt>
      <trkpt lat="44.42236" lon="5.15822">
        <ele>648.6</ele>
        <time>2022-10-16T07:42:56Z</time>
      </trkpt>
      <trkpt lat="44.42237" lon="5.15821">
        <ele>648.9</ele>
        <time>2022-10-16T07:42:55Z</time>
      </trkpt>
      <trkpt lat="44.42238" lon="5.15822">
        <ele>648.7</ele>
        <time>2022-10-16T07:42:54Z</time>
      </trkpt>
      <trkpt lat="44.42239" lon="5.15822">
        <ele>648.7</ele>
        <time>2022-10-16T07:42:53Z</time>
      </trkpt>
      <trkpt lat="44.4224" lon="5.15822">
        <ele>648.8</ele>
        <time>2022-10-16T07:42:52Z</time>
      </trkpt>
      <trkpt lat="44.42241" lon="5.15823">
        <ele>648.5</ele>
        <time>2022-10-16T07:42:51Z</time>
      </trkpt>
      <trkpt lat="44.42242" lon="5.15823">
        <ele>648.6</ele>
        <time>2022-10-16T07:42:50Z</time>
      </trkpt>
      <trkpt lat="44.42243" lon="5.15823">
        <ele>648.6</ele>
        <time>2022-10-16T07:42:49Z</time>
      </trkpt>
      <trkpt lat="44.42244" lon="5.15823">
        <ele>648.7</ele>
        <time>2022-10-16T07:42:48Z</time>
      </trkpt>
      <trkpt lat="44.42245" lon="5.15823">
        <ele>648.7</ele>
        <time>2022-10-16T07:42:47Z</time>
      </trkpt>
      <trkpt lat="44.42246" lon="5.15823">
        <ele>648.8</ele>
        <time>2022-10-16T07:42:46Z</time>
      </trkpt>
      <trkpt lat="44.42247" lon="5.15822">
        <ele>649.1</ele>
        <time>2022-10-16T07:42:45Z</time>
      </trkpt>
      <trkpt lat="44.42248" lon="5.15822">
        <ele>649.2</ele>
        <time>2022-10-16T07:42:43Z</time>
      </trkpt>
      <trkpt lat="44.42249" lon="5.15822">
        <ele>649.2</ele>
        <time>2022-10-16T07:42:42Z</time>
      </trkpt>
      <trkpt lat="44.4225" lon="5.15822">
        <ele>649.3</ele>
        <time>2022-10-16T07:42:41Z</time>
      </trkpt>
      <trkpt lat="44.42252" lon="5.15822">
        <ele>649.8</ele>
        <time>2022-10-16T07:42:40Z</time>
      </trkpt>
      <trkpt lat="44.42253" lon="5.15822">
        <ele>650.1</ele>
        <time>2022-10-16T07:42:39Z</time>
      </trkpt>
      <trkpt lat="44.42254" lon="5.15822">
        <ele>650.4</ele>
        <time>2022-10-16T07:42:37Z</time>
      </trkpt>
      <trkpt lat="44.42255" lon="5.15822">
        <ele>650.6</ele>
        <time>2022-10-16T07:42:36Z</time>
      </trkpt>
      <trkpt lat="44.42256" lon="5.15822">
        <ele>650.9</ele>
        <time>2022-10-16T07:42:35Z</time>
      </trkpt>
      <trkpt lat="44.42257" lon="5.15822">
        <ele>651.2</ele>
        <time>2022-10-16T07:42:34Z</time>
      </trkpt>
      <trkpt lat="44.42258" lon="5.15823">
        <ele>651.2</ele>
        <time>2022-10-16T07:42:33Z</time>
      </trkpt>
      <trkpt lat="44.42259" lon="5.15823">
        <ele>651.4</ele>
        <time>2022-10-16T07:42:32Z</time>
      </trkpt>
      <trkpt lat="44.42259" lon="5.15824">
        <ele>651.2</ele>
        <time>2022-10-16T07:42:31Z</time>
      </trkpt>
      <trkpt lat="44.4226" lon="5.15824">
        <ele>651.4</ele>
        <time>2022-10-16T07:42:30Z</time>
      </trkpt>
      <trkpt lat="44.42261" lon="5.15825">
        <ele>651.4</ele>
        <time>2022-10-16T07:42:29Z</time>
      </trkpt>
      <trkpt lat="44.42262" lon="5.15826">
        <ele>651.5</ele>
        <time>2022-10-16T07:42:27Z</time>
      </trkpt>
      <trkpt lat="44.42263" lon="5.15827">
        <ele>651.5</ele>
        <time>2022-10-16T07:42:26Z</time>
      </trkpt>
      <trkpt lat="44.42264" lon="5.15828">
        <ele>651.5</ele>
        <time>2022-10-16T07:42:25Z</time>
      </trkpt>
      <trkpt lat="44.42264" lon="5.15829">
        <ele>651.2</ele>
        <time>2022-10-16T07:42:24Z</time>
      </trkpt>
      <trkpt lat="44.42265" lon="5.1583">
        <ele>651.2</ele>
        <time>2022-10-16T07:42:23Z</time>
      </trkpt>
      <trkpt lat="44.42265" lon="5.15831">
        <ele>650.9</ele>
        <time>2022-10-16T07:42:22Z</time>
      </trkpt>
      <trkpt lat="44.42266" lon="5.15832">
        <ele>651</ele>
        <time>2022-10-16T07:42:21Z</time>
      </trkpt>
      <trkpt lat="44.42266" lon="5.15833">
        <ele>650.7</ele>
        <time>2022-10-16T07:42:20Z</time>
      </trkpt>
      <trkpt lat="44.42266" lon="5.15834">
        <ele>650.4</ele>
        <time>2022-10-16T07:42:19Z</time>
      </trkpt>
      <trkpt lat="44.42266" lon="5.15836">
        <ele>649.9</ele>
        <time>2022-10-16T07:42:18Z</time>
      </trkpt>
      <trkpt lat="44.42266" lon="5.15837">
        <ele>649.6</ele>
        <time>2022-10-16T07:42:17Z</time>
      </trkpt>
      <trkpt lat="44.42266" lon="5.15839">
        <ele>649.1</ele>
        <time>2022-10-16T07:42:16Z</time>
      </trkpt>
      <trkpt lat="44.42267" lon="5.1584">
        <ele>649.1</ele>
        <time>2022-10-16T07:42:15Z</time>
      </trkpt>
      <trkpt lat="44.42267" lon="5.15841">
        <ele>648.8</ele>
        <time>2022-10-16T07:42:14Z</time>
      </trkpt>
      <trkpt lat="44.42267" lon="5.15842">
        <ele>648.5</ele>
        <time>2022-10-16T07:42:13Z</time>
      </trkpt>
      <trkpt lat="44.42267" lon="5.15844">
        <ele>648</ele>
        <time>2022-10-16T07:42:12Z</time>
      </trkpt>
      <trkpt lat="44.42267" lon="5.15845">
        <ele>647.7</ele>
        <time>2022-10-16T07:42:11Z</time>
      </trkpt>
      <trkpt lat="44.42267" lon="5.15846">
        <ele>647.4</ele>
        <time>2022-10-16T07:42:10Z</time>
      </trkpt>
      <trkpt lat="44.42267" lon="5.15847">
        <ele>647.2</ele>
        <time>2022-10-16T07:42:09Z</time>
      </trkpt>
      <trkpt lat="44.42267" lon="5.15848">
        <ele>646.9</ele>
        <time>2022-10-16T07:42:08Z</time>
      </trkpt>
      <trkpt lat="44.42268" lon="5.15849">
        <ele>646.9</ele>
        <time>2022-10-16T07:42:07Z</time>
      </trkpt>
      <trkpt lat="44.42268" lon="5.1585">
        <ele>646.6</ele>
        <time>2022-10-16T07:42:06Z</time>
      </trkpt>
      <trkpt lat="44.42268" lon="5.15851">
        <ele>646.3</ele>
        <time>2022-10-16T07:42:05Z</time>
      </trkpt>
      <trkpt lat="44.42269" lon="5.15852">
        <ele>646.3</ele>
        <time>2022-10-16T07:42:04Z</time>
      </trkpt>
      <trkpt lat="44.42269" lon="5.15853">
        <ele>646</ele>
        <time>2022-10-16T07:42:03Z</time>
      </trkpt>
      <trkpt lat="44.42269" lon="5.15854">
        <ele>645.8</ele>
        <time>2022-10-16T07:42:02Z</time>
      </trkpt>
      <trkpt lat="44.4227" lon="5.15855">
        <ele>645.7</ele>
        <time>2022-10-16T07:42:01Z</time>
      </trkpt>
      <trkpt lat="44.4227" lon="5.15856">
        <ele>645.5</ele>
        <time>2022-10-16T07:42:00Z</time>
      </trkpt>
      <trkpt lat="44.42271" lon="5.15856">
        <ele>645.7</ele>
        <time>2022-10-16T07:41:59Z</time>
      </trkpt>
      <trkpt lat="44.42272" lon="5.15857">
        <ele>645.7</ele>
        <time>2022-10-16T07:41:57Z</time>
      </trkpt>
      <trkpt lat="44.42273" lon="5.15858">
        <ele>645.7</ele>
        <time>2022-10-16T07:41:56Z</time>
      </trkpt>
      <trkpt lat="44.42274" lon="5.15858">
        <ele>645.9</ele>
        <time>2022-10-16T07:41:55Z</time>
      </trkpt>
      <trkpt lat="44.42274" lon="5.15859">
        <ele>645.6</ele>
        <time>2022-10-16T07:41:54Z</time>
      </trkpt>
      <trkpt lat="44.42275" lon="5.1586">
        <ele>645.6</ele>
        <time>2022-10-16T07:41:53Z</time>
      </trkpt>
      <trkpt lat="44.42275" lon="5.15861">
        <ele>645.3</ele>
        <time>2022-10-16T07:41:52Z</time>
      </trkpt>
      <trkpt lat="44.42276" lon="5.15862">
        <ele>645.4</ele>
        <time>2022-10-16T07:41:50Z</time>
      </trkpt>
      <trkpt lat="44.42277" lon="5.15863">
        <ele>645.4</ele>
        <time>2022-10-16T07:41:49Z</time>
      </trkpt>
      <trkpt lat="44.42277" lon="5.15864">
        <ele>645.2</ele>
        <time>2022-10-16T07:41:48Z</time>
      </trkpt>
      <trkpt lat="44.42278" lon="5.15865">
        <ele>645.2</ele>
        <time>2022-10-16T07:41:47Z</time>
      </trkpt>
      <trkpt lat="44.42278" lon="5.15866">
        <ele>645</ele>
        <time>2022-10-16T07:41:46Z</time>
      </trkpt>
      <trkpt lat="44.42278" lon="5.15867">
        <ele>644.8</ele>
        <time>2022-10-16T07:41:45Z</time>
      </trkpt>
      <trkpt lat="44.42279" lon="5.15868">
        <ele>645</ele>
        <time>2022-10-16T07:41:44Z</time>
      </trkpt>
      <trkpt lat="44.42279" lon="5.15869">
        <ele>644.8</ele>
        <time>2022-10-16T07:41:43Z</time>
      </trkpt>
      <trkpt lat="44.42279" lon="5.1587">
        <ele>644.5</ele>
        <time>2022-10-16T07:41:42Z</time>
      </trkpt>
      <trkpt lat="44.42279" lon="5.15871">
        <ele>644.3</ele>
        <time>2022-10-16T07:41:41Z</time>
      </trkpt>
      <trkpt lat="44.4228" lon="5.15872">
        <ele>644.5</ele>
        <time>2022-10-16T07:41:40Z</time>
      </trkpt>
      <trkpt lat="44.4228" lon="5.15873">
        <ele>644.3</ele>
        <time>2022-10-16T07:41:39Z</time>
      </trkpt>
      <trkpt lat="44.4228" lon="5.15874">
        <ele>644.1</ele>
        <time>2022-10-16T07:41:38Z</time>
      </trkpt>
      <trkpt lat="44.4228" lon="5.15875">
        <ele>643.8</ele>
        <time>2022-10-16T07:41:37Z</time>
      </trkpt>
      <trkpt lat="44.42281" lon="5.15875">
        <ele>644.2</ele>
        <time>2022-10-16T07:41:36Z</time>
      </trkpt>
      <trkpt lat="44.42281" lon="5.15876">
        <ele>644</ele>
        <time>2022-10-16T07:41:35Z</time>
      </trkpt>
      <trkpt lat="44.42281" lon="5.15877">
        <ele>643.8</ele>
        <time>2022-10-16T07:41:34Z</time>
      </trkpt>
      <trkpt lat="44.42281" lon="5.15878">
        <ele>643.6</ele>
        <time>2022-10-16T07:41:33Z</time>
      </trkpt>
      <trkpt lat="44.42282" lon="5.15879">
        <ele>643.7</ele>
        <time>2022-10-16T07:41:31Z</time>
      </trkpt>
      <trkpt lat="44.42282" lon="5.1588">
        <ele>643.5</ele>
        <time>2022-10-16T07:41:30Z</time>
      </trkpt>
      <trkpt lat="44.42282" lon="5.15881">
        <ele>643.3</ele>
        <time>2022-10-16T07:41:29Z</time>
      </trkpt>
      <trkpt lat="44.42282" lon="5.15882">
        <ele>643</ele>
        <time>2022-10-16T07:41:28Z</time>
      </trkpt>
      <trkpt lat="44.42282" lon="5.15883">
        <ele>642.8</ele>
        <time>2022-10-16T07:41:27Z</time>
      </trkpt>
      <trkpt lat="44.42282" lon="5.15884">
        <ele>642.6</ele>
        <time>2022-10-16T07:41:26Z</time>
      </trkpt>
      <trkpt lat="44.42282" lon="5.15885">
        <ele>642.4</ele>
        <time>2022-10-16T07:41:25Z</time>
      </trkpt>
      <trkpt lat="44.42282" lon="5.15886">
        <ele>642.2</ele>
        <time>2022-10-16T07:41:24Z</time>
      </trkpt>
      <trkpt lat="44.42282" lon="5.15887">
        <ele>641.9</ele>
        <time>2022-10-16T07:41:23Z</time>
      </trkpt>
      <trkpt lat="44.42282" lon="5.15888">
        <ele>641.7</ele>
        <time>2022-10-16T07:41:22Z</time>
      </trkpt>
      <trkpt lat="44.42282" lon="5.15889">
        <ele>641.5</ele>
        <time>2022-10-16T07:41:21Z</time>
      </trkpt>
      <trkpt lat="44.42282" lon="5.1589">
        <ele>641.4</ele>
        <time>2022-10-16T07:41:20Z</time>
      </trkpt>
      <trkpt lat="44.42281" lon="5.15891">
        <ele>640.9</ele>
        <time>2022-10-16T07:41:19Z</time>
      </trkpt>
      <trkpt lat="44.42281" lon="5.15892">
        <ele>640.8</ele>
        <time>2022-10-16T07:41:18Z</time>
      </trkpt>
      <trkpt lat="44.42281" lon="5.15893">
        <ele>640.8</ele>
        <time>2022-10-16T07:41:17Z</time>
      </trkpt>
      <trkpt lat="44.42281" lon="5.15894">
        <ele>640.7</ele>
        <time>2022-10-16T07:41:16Z</time>
      </trkpt>
      <trkpt lat="44.42281" lon="5.15895">
        <ele>640.6</ele>
        <time>2022-10-16T07:41:15Z</time>
      </trkpt>
      <trkpt lat="44.42281" lon="5.15896">
        <ele>640.5</ele>
        <time>2022-10-16T07:41:14Z</time>
      </trkpt>
      <trkpt lat="44.42281" lon="5.15897">
        <ele>640.4</ele>
        <time>2022-10-16T07:41:13Z</time>
      </trkpt>
      <trkpt lat="44.4228" lon="5.15899">
        <ele>639.8</ele>
        <time>2022-10-16T07:41:12Z</time>
      </trkpt>
      <trkpt lat="44.4228" lon="5.159">
        <ele>639.7</ele>
        <time>2022-10-16T07:41:11Z</time>
      </trkpt>
      <trkpt lat="44.4228" lon="5.15901">
        <ele>639.6</ele>
        <time>2022-10-16T07:41:10Z</time>
      </trkpt>
      <trkpt lat="44.4228" lon="5.15902">
        <ele>639.5</ele>
        <time>2022-10-16T07:41:09Z</time>
      </trkpt>
      <trkpt lat="44.4228" lon="5.15903">
        <ele>639.4</ele>
        <time>2022-10-16T07:41:08Z</time>
      </trkpt>
      <trkpt lat="44.4228" lon="5.15904">
        <ele>639.3</ele>
        <time>2022-10-16T07:41:07Z</time>
      </trkpt>
      <trkpt lat="44.42279" lon="5.15904">
        <ele>638.9</ele>
        <time>2022-10-16T07:41:06Z</time>
      </trkpt>
      <trkpt lat="44.42279" lon="5.15905">
        <ele>638.8</ele>
        <time>2022-10-16T07:41:05Z</time>
      </trkpt>
      <trkpt lat="44.42279" lon="5.15906">
        <ele>638.6</ele>
        <time>2022-10-16T07:41:04Z</time>
      </trkpt>
      <trkpt lat="44.42279" lon="5.15907">
        <ele>638.5</ele>
        <time>2022-10-16T07:41:03Z</time>
      </trkpt>
      <trkpt lat="44.42278" lon="5.15907">
        <ele>638.1</ele>
        <time>2022-10-16T07:41:02Z</time>
      </trkpt>
      <trkpt lat="44.42278" lon="5.15908">
        <ele>638</ele>
        <time>2022-10-16T07:41:01Z</time>
      </trkpt>
      <trkpt lat="44.42278" lon="5.15909">
        <ele>637.9</ele>
        <time>2022-10-16T07:41:00Z</time>
      </trkpt>
      <trkpt lat="44.42277" lon="5.1591">
        <ele>637.5</ele>
        <time>2022-10-16T07:40:59Z</time>
      </trkpt>
      <trkpt lat="44.42277" lon="5.15911">
        <ele>637.4</ele>
        <time>2022-10-16T07:40:58Z</time>
      </trkpt>
      <trkpt lat="44.42276" lon="5.15912">
        <ele>637.1</ele>
        <time>2022-10-16T07:40:56Z</time>
      </trkpt>
      <trkpt lat="44.42276" lon="5.15913">
        <ele>636.9</ele>
        <time>2022-10-16T07:40:55Z</time>
      </trkpt>
      <trkpt lat="44.42276" lon="5.15914">
        <ele>636.8</ele>
        <time>2022-10-16T07:40:54Z</time>
      </trkpt>
      <trkpt lat="44.42275" lon="5.15915">
        <ele>636.5</ele>
        <time>2022-10-16T07:40:53Z</time>
      </trkpt>
      <trkpt lat="44.42275" lon="5.15916">
        <ele>636.4</ele>
        <time>2022-10-16T07:40:52Z</time>
      </trkpt>
      <trkpt lat="44.42275" lon="5.15917">
        <ele>636.3</ele>
        <time>2022-10-16T07:40:51Z</time>
      </trkpt>
      <trkpt lat="44.42274" lon="5.15918">
        <ele>636.1</ele>
        <time>2022-10-16T07:40:50Z</time>
      </trkpt>
      <trkpt lat="44.42274" lon="5.15919">
        <ele>636.2</ele>
        <time>2022-10-16T07:40:49Z</time>
      </trkpt>
      <trkpt lat="44.42274" lon="5.1592">
        <ele>636.2</ele>
        <time>2022-10-16T07:40:48Z</time>
      </trkpt>
      <trkpt lat="44.42273" lon="5.15921">
        <ele>636</ele>
        <time>2022-10-16T07:40:47Z</time>
      </trkpt>
      <trkpt lat="44.42273" lon="5.15922">
        <ele>636.1</ele>
        <time>2022-10-16T07:40:46Z</time>
      </trkpt>
      <trkpt lat="44.42272" lon="5.15923">
        <ele>635.9</ele>
        <time>2022-10-16T07:40:45Z</time>
      </trkpt>
      <trkpt lat="44.42272" lon="5.15924">
        <ele>635.9</ele>
        <time>2022-10-16T07:40:44Z</time>
      </trkpt>
      <trkpt lat="44.42271" lon="5.15924">
        <ele>635.6</ele>
        <time>2022-10-16T07:40:43Z</time>
      </trkpt>
      <trkpt lat="44.42271" lon="5.15925">
        <ele>635.7</ele>
        <time>2022-10-16T07:40:42Z</time>
      </trkpt>
      <trkpt lat="44.4227" lon="5.15926">
        <ele>635.4</ele>
        <time>2022-10-16T07:40:41Z</time>
      </trkpt>
      <trkpt lat="44.4227" lon="5.15927">
        <ele>635.5</ele>
        <time>2022-10-16T07:40:40Z</time>
      </trkpt>
      <trkpt lat="44.42269" lon="5.15928">
        <ele>635.2</ele>
        <time>2022-10-16T07:40:39Z</time>
      </trkpt>
      <trkpt lat="44.42268" lon="5.15929">
        <ele>635</ele>
        <time>2022-10-16T07:40:38Z</time>
      </trkpt>
      <trkpt lat="44.42268" lon="5.1593">
        <ele>635</ele>
        <time>2022-10-16T07:40:37Z</time>
      </trkpt>
      <trkpt lat="44.42268" lon="5.15931">
        <ele>635</ele>
        <time>2022-10-16T07:40:36Z</time>
      </trkpt>
      <trkpt lat="44.42267" lon="5.15931">
        <ele>634.7</ele>
        <time>2022-10-16T07:40:35Z</time>
      </trkpt>
      <trkpt lat="44.42267" lon="5.15932">
        <ele>634.7</ele>
        <time>2022-10-16T07:40:34Z</time>
      </trkpt>
      <trkpt lat="44.42266" lon="5.15933">
        <ele>634.5</ele>
        <time>2022-10-16T07:40:33Z</time>
      </trkpt>
      <trkpt lat="44.42266" lon="5.15934">
        <ele>634.5</ele>
        <time>2022-10-16T07:40:32Z</time>
      </trkpt>
      <trkpt lat="44.42265" lon="5.15935">
        <ele>634.2</ele>
        <time>2022-10-16T07:40:31Z</time>
      </trkpt>
      <trkpt lat="44.42264" lon="5.15935">
        <ele>633.9</ele>
        <time>2022-10-16T07:40:30Z</time>
      </trkpt>
      <trkpt lat="44.42264" lon="5.15936">
        <ele>633.9</ele>
        <time>2022-10-16T07:40:29Z</time>
      </trkpt>
      <trkpt lat="44.42263" lon="5.15937">
        <ele>633.6</ele>
        <time>2022-10-16T07:40:28Z</time>
      </trkpt>
      <trkpt lat="44.42262" lon="5.15937">
        <ele>633.2</ele>
        <time>2022-10-16T07:40:27Z</time>
      </trkpt>
      <trkpt lat="44.42262" lon="5.15938">
        <ele>633.3</ele>
        <time>2022-10-16T07:40:26Z</time>
      </trkpt>
      <trkpt lat="44.42261" lon="5.15939">
        <ele>632.9</ele>
        <time>2022-10-16T07:40:25Z</time>
      </trkpt>
      <trkpt lat="44.42261" lon="5.1594">
        <ele>632.9</ele>
        <time>2022-10-16T07:40:24Z</time>
      </trkpt>
      <trkpt lat="44.4226" lon="5.1594">
        <ele>632.6</ele>
        <time>2022-10-16T07:40:23Z</time>
      </trkpt>
      <trkpt lat="44.4226" lon="5.15941">
        <ele>632.6</ele>
        <time>2022-10-16T07:40:22Z</time>
      </trkpt>
      <trkpt lat="44.42259" lon="5.15942">
        <ele>632.2</ele>
        <time>2022-10-16T07:40:21Z</time>
      </trkpt>
      <trkpt lat="44.42259" lon="5.15943">
        <ele>632.2</ele>
        <time>2022-10-16T07:40:20Z</time>
      </trkpt>
      <trkpt lat="44.42258" lon="5.15943">
        <ele>631.9</ele>
        <time>2022-10-16T07:40:19Z</time>
      </trkpt>
      <trkpt lat="44.42258" lon="5.15944">
        <ele>631.9</ele>
        <time>2022-10-16T07:40:18Z</time>
      </trkpt>
      <trkpt lat="44.42257" lon="5.15945">
        <ele>631.6</ele>
        <time>2022-10-16T07:40:17Z</time>
      </trkpt>
      <trkpt lat="44.42257" lon="5.15946">
        <ele>631.7</ele>
        <time>2022-10-16T07:40:16Z</time>
      </trkpt>
      <trkpt lat="44.42256" lon="5.15947">
        <ele>631.4</ele>
        <time>2022-10-16T07:40:15Z</time>
      </trkpt>
      <trkpt lat="44.42256" lon="5.15948">
        <ele>631.5</ele>
        <time>2022-10-16T07:40:14Z</time>
      </trkpt>
      <trkpt lat="44.42255" lon="5.15949">
        <ele>631.2</ele>
        <time>2022-10-16T07:40:13Z</time>
      </trkpt>
      <trkpt lat="44.42254" lon="5.1595">
        <ele>630.9</ele>
        <time>2022-10-16T07:40:12Z</time>
      </trkpt>
      <trkpt lat="44.42254" lon="5.15951">
        <ele>631</ele>
        <time>2022-10-16T07:40:11Z</time>
      </trkpt>
      <trkpt lat="44.42253" lon="5.15951">
        <ele>630.6</ele>
        <time>2022-10-16T07:40:10Z</time>
      </trkpt>
      <trkpt lat="44.42253" lon="5.15952">
        <ele>630.7</ele>
        <time>2022-10-16T07:40:09Z</time>
      </trkpt>
      <trkpt lat="44.42252" lon="5.15953">
        <ele>630.4</ele>
        <time>2022-10-16T07:40:07Z</time>
      </trkpt>
      <trkpt lat="44.42251" lon="5.15954">
        <ele>630.1</ele>
        <time>2022-10-16T07:40:06Z</time>
      </trkpt>
      <trkpt lat="44.42251" lon="5.15955">
        <ele>630.2</ele>
        <time>2022-10-16T07:40:05Z</time>
      </trkpt>
      <trkpt lat="44.4225" lon="5.15955">
        <ele>629.8</ele>
        <time>2022-10-16T07:40:04Z</time>
      </trkpt>
      <trkpt lat="44.42249" lon="5.15956">
        <ele>629.6</ele>
        <time>2022-10-16T07:40:02Z</time>
      </trkpt>
      <trkpt lat="44.42248" lon="5.15956">
        <ele>629.3</ele>
        <time>2022-10-16T07:40:01Z</time>
      </trkpt>
      <trkpt lat="44.42247" lon="5.15957">
        <ele>629.1</ele>
        <time>2022-10-16T07:40:00Z</time>
      </trkpt>
      <trkpt lat="44.42246" lon="5.15957">
        <ele>628.8</ele>
        <time>2022-10-16T07:39:58Z</time>
      </trkpt>
      <trkpt lat="44.42245" lon="5.15957">
        <ele>628.5</ele>
        <time>2022-10-16T07:39:57Z</time>
      </trkpt>
      <trkpt lat="44.42244" lon="5.15958">
        <ele>628.3</ele>
        <time>2022-10-16T07:39:56Z</time>
      </trkpt>
      <trkpt lat="44.42243" lon="5.15958">
        <ele>628</ele>
        <time>2022-10-16T07:39:55Z</time>
      </trkpt>
      <trkpt lat="44.42242" lon="5.15958">
        <ele>627.7</ele>
        <time>2022-10-16T07:39:54Z</time>
      </trkpt>
      <trkpt lat="44.42241" lon="5.15958">
        <ele>627.4</ele>
        <time>2022-10-16T07:39:53Z</time>
      </trkpt>
      <trkpt lat="44.4224" lon="5.15959">
        <ele>627.1</ele>
        <time>2022-10-16T07:39:52Z</time>
      </trkpt>
      <trkpt lat="44.4224" lon="5.1596">
        <ele>627.2</ele>
        <time>2022-10-16T07:39:51Z</time>
      </trkpt>
      <trkpt lat="44.42239" lon="5.15961">
        <ele>626.9</ele>
        <time>2022-10-16T07:39:50Z</time>
      </trkpt>
      <trkpt lat="44.42238" lon="5.15961">
        <ele>626.6</ele>
        <time>2022-10-16T07:39:49Z</time>
      </trkpt>
      <trkpt lat="44.42238" lon="5.15962">
        <ele>626.6</ele>
        <time>2022-10-16T07:39:48Z</time>
      </trkpt>
      <trkpt lat="44.42237" lon="5.15963">
        <ele>626.3</ele>
        <time>2022-10-16T07:39:47Z</time>
      </trkpt>
      <trkpt lat="44.42237" lon="5.15964">
        <ele>626.3</ele>
        <time>2022-10-16T07:39:46Z</time>
      </trkpt>
      <trkpt lat="44.42236" lon="5.15964">
        <ele>626</ele>
        <time>2022-10-16T07:39:45Z</time>
      </trkpt>
      <trkpt lat="44.42236" lon="5.15965">
        <ele>626</ele>
        <time>2022-10-16T07:39:44Z</time>
      </trkpt>
      <trkpt lat="44.42235" lon="5.15966">
        <ele>625.6</ele>
        <time>2022-10-16T07:39:43Z</time>
      </trkpt>
      <trkpt lat="44.42235" lon="5.15967">
        <ele>625.6</ele>
        <time>2022-10-16T07:39:42Z</time>
      </trkpt>
      <trkpt lat="44.42234" lon="5.15967">
        <ele>625.3</ele>
        <time>2022-10-16T07:39:41Z</time>
      </trkpt>
      <trkpt lat="44.42233" lon="5.15968">
        <ele>624.9</ele>
        <time>2022-10-16T07:39:40Z</time>
      </trkpt>
      <trkpt lat="44.42233" lon="5.15969">
        <ele>624.9</ele>
        <time>2022-10-16T07:39:39Z</time>
      </trkpt>
      <trkpt lat="44.42232" lon="5.1597">
        <ele>624.6</ele>
        <time>2022-10-16T07:39:38Z</time>
      </trkpt>
      <trkpt lat="44.42231" lon="5.1597">
        <ele>624.2</ele>
        <time>2022-10-16T07:39:37Z</time>
      </trkpt>
      <trkpt lat="44.42231" lon="5.15971">
        <ele>624.2</ele>
        <time>2022-10-16T07:39:36Z</time>
      </trkpt>
      <trkpt lat="44.4223" lon="5.15971">
        <ele>623.8</ele>
        <time>2022-10-16T07:39:35Z</time>
      </trkpt>
      <trkpt lat="44.42229" lon="5.15972">
        <ele>623.4</ele>
        <time>2022-10-16T07:39:34Z</time>
      </trkpt>
      <trkpt lat="44.42228" lon="5.15972">
        <ele>623.1</ele>
        <time>2022-10-16T07:39:33Z</time>
      </trkpt>
      <trkpt lat="44.42228" lon="5.15973">
        <ele>623.2</ele>
        <time>2022-10-16T07:39:32Z</time>
      </trkpt>
      <trkpt lat="44.42227" lon="5.15973">
        <ele>622.8</ele>
        <time>2022-10-16T07:39:31Z</time>
      </trkpt>
      <trkpt lat="44.42226" lon="5.15974">
        <ele>622.6</ele>
        <time>2022-10-16T07:39:30Z</time>
      </trkpt>
      <trkpt lat="44.42225" lon="5.15975">
        <ele>622.3</ele>
        <time>2022-10-16T07:39:29Z</time>
      </trkpt>
      <trkpt lat="44.42225" lon="5.15976">
        <ele>622.4</ele>
        <time>2022-10-16T07:39:28Z</time>
      </trkpt>
      <trkpt lat="44.42224" lon="5.15976">
        <ele>622.1</ele>
        <time>2022-10-16T07:39:27Z</time>
      </trkpt>
      <trkpt lat="44.42223" lon="5.15977">
        <ele>621.8</ele>
        <time>2022-10-16T07:39:26Z</time>
      </trkpt>
      <trkpt lat="44.42222" lon="5.15978">
        <ele>621.6</ele>
        <time>2022-10-16T07:39:25Z</time>
      </trkpt>
      <trkpt lat="44.42221" lon="5.15978">
        <ele>621.4</ele>
        <time>2022-10-16T07:39:24Z</time>
      </trkpt>
      <trkpt lat="44.4222" lon="5.15979">
        <ele>621.2</ele>
        <time>2022-10-16T07:39:22Z</time>
      </trkpt>
      <trkpt lat="44.42219" lon="5.15979">
        <ele>621</ele>
        <time>2022-10-16T07:39:21Z</time>
      </trkpt>
      <trkpt lat="44.42218" lon="5.15979">
        <ele>620.8</ele>
        <time>2022-10-16T07:39:20Z</time>
      </trkpt>
      <trkpt lat="44.42217" lon="5.1598">
        <ele>620.6</ele>
        <time>2022-10-16T07:39:19Z</time>
      </trkpt>
      <trkpt lat="44.42216" lon="5.1598">
        <ele>620.4</ele>
        <time>2022-10-16T07:39:17Z</time>
      </trkpt>
      <trkpt lat="44.42215" lon="5.15979">
        <ele>620.1</ele>
        <time>2022-10-16T07:39:16Z</time>
      </trkpt>
      <trkpt lat="44.42214" lon="5.15979">
        <ele>619.9</ele>
        <time>2022-10-16T07:39:15Z</time>
      </trkpt>
      <trkpt lat="44.42213" lon="5.15979">
        <ele>619.7</ele>
        <time>2022-10-16T07:39:14Z</time>
      </trkpt>
      <trkpt lat="44.42213" lon="5.15978">
        <ele>619.6</ele>
        <time>2022-10-16T07:39:13Z</time>
      </trkpt>
      <trkpt lat="44.42212" lon="5.15977">
        <ele>619.4</ele>
        <time>2022-10-16T07:39:12Z</time>
      </trkpt>
      <trkpt lat="44.42211" lon="5.15977">
        <ele>619.1</ele>
        <time>2022-10-16T07:39:11Z</time>
      </trkpt>
      <trkpt lat="44.4221" lon="5.15976">
        <ele>618.9</ele>
        <time>2022-10-16T07:39:10Z</time>
      </trkpt>
      <trkpt lat="44.4221" lon="5.15975">
        <ele>618.9</ele>
        <time>2022-10-16T07:39:09Z</time>
      </trkpt>
      <trkpt lat="44.42209" lon="5.15974">
        <ele>618.7</ele>
        <time>2022-10-16T07:39:08Z</time>
      </trkpt>
      <trkpt lat="44.42208" lon="5.15973">
        <ele>618.5</ele>
        <time>2022-10-16T07:39:07Z</time>
      </trkpt>
      <trkpt lat="44.42207" lon="5.15972">
        <ele>618.3</ele>
        <time>2022-10-16T07:39:06Z</time>
      </trkpt>
      <trkpt lat="44.42207" lon="5.15971">
        <ele>618.4</ele>
        <time>2022-10-16T07:39:05Z</time>
      </trkpt>
      <trkpt lat="44.42206" lon="5.1597">
        <ele>618.3</ele>
        <time>2022-10-16T07:39:04Z</time>
      </trkpt>
      <trkpt lat="44.42205" lon="5.15969">
        <ele>618.2</ele>
        <time>2022-10-16T07:39:03Z</time>
      </trkpt>
      <trkpt lat="44.42204" lon="5.15967">
        <ele>618.2</ele>
        <time>2022-10-16T07:39:02Z</time>
      </trkpt>
      <trkpt lat="44.42204" lon="5.15966">
        <ele>618.3</ele>
        <time>2022-10-16T07:39:01Z</time>
      </trkpt>
      <trkpt lat="44.42203" lon="5.15965">
        <ele>618.2</ele>
        <time>2022-10-16T07:39:00Z</time>
      </trkpt>
      <trkpt lat="44.42203" lon="5.15964">
        <ele>618.3</ele>
        <time>2022-10-16T07:38:59Z</time>
      </trkpt>
      <trkpt lat="44.42202" lon="5.15962">
        <ele>618.4</ele>
        <time>2022-10-16T07:38:58Z</time>
      </trkpt>
      <trkpt lat="44.42202" lon="5.15961">
        <ele>618.5</ele>
        <time>2022-10-16T07:38:57Z</time>
      </trkpt>
      <trkpt lat="44.42201" lon="5.1596">
        <ele>618.4</ele>
        <time>2022-10-16T07:38:56Z</time>
      </trkpt>
      <trkpt lat="44.422" lon="5.15959">
        <ele>618.3</ele>
        <time>2022-10-16T07:38:55Z</time>
      </trkpt>
      <trkpt lat="44.422" lon="5.15958">
        <ele>618.4</ele>
        <time>2022-10-16T07:38:54Z</time>
      </trkpt>
      <trkpt lat="44.42199" lon="5.15957">
        <ele>618.4</ele>
        <time>2022-10-16T07:38:53Z</time>
      </trkpt>
      <trkpt lat="44.42199" lon="5.15955">
        <ele>618.6</ele>
        <time>2022-10-16T07:38:52Z</time>
      </trkpt>
      <trkpt lat="44.42198" lon="5.15954">
        <ele>618.5</ele>
        <time>2022-10-16T07:38:51Z</time>
      </trkpt>
      <trkpt lat="44.42197" lon="5.15953">
        <ele>618.5</ele>
        <time>2022-10-16T07:38:50Z</time>
      </trkpt>
      <trkpt lat="44.42197" lon="5.15952">
        <ele>618.6</ele>
        <time>2022-10-16T07:38:49Z</time>
      </trkpt>
      <trkpt lat="44.42196" lon="5.15951">
        <ele>618.5</ele>
        <time>2022-10-16T07:38:48Z</time>
      </trkpt>
      <trkpt lat="44.42196" lon="5.1595">
        <ele>618.6</ele>
        <time>2022-10-16T07:38:47Z</time>
      </trkpt>
      <trkpt lat="44.42195" lon="5.15949">
        <ele>618.6</ele>
        <time>2022-10-16T07:38:46Z</time>
      </trkpt>
      <trkpt lat="44.42194" lon="5.15948">
        <ele>618.6</ele>
        <time>2022-10-16T07:38:45Z</time>
      </trkpt>
      <trkpt lat="44.42193" lon="5.15947">
        <ele>618.6</ele>
        <time>2022-10-16T07:38:44Z</time>
      </trkpt>
      <trkpt lat="44.42192" lon="5.15946">
        <ele>618.6</ele>
        <time>2022-10-16T07:38:43Z</time>
      </trkpt>
      <trkpt lat="44.42191" lon="5.15945">
        <ele>618.6</ele>
        <time>2022-10-16T07:38:42Z</time>
      </trkpt>
      <trkpt lat="44.42191" lon="5.15944">
        <ele>618.7</ele>
        <time>2022-10-16T07:38:41Z</time>
      </trkpt>
      <trkpt lat="44.4219" lon="5.15943">
        <ele>618.7</ele>
        <time>2022-10-16T07:38:40Z</time>
      </trkpt>
      <trkpt lat="44.42189" lon="5.15942">
        <ele>618.7</ele>
        <time>2022-10-16T07:38:39Z</time>
      </trkpt>
      <trkpt lat="44.42188" lon="5.15941">
        <ele>618.8</ele>
        <time>2022-10-16T07:38:38Z</time>
      </trkpt>
      <trkpt lat="44.42187" lon="5.15941">
        <ele>618.7</ele>
        <time>2022-10-16T07:38:37Z</time>
      </trkpt>
      <trkpt lat="44.42186" lon="5.1594">
        <ele>618.7</ele>
        <time>2022-10-16T07:38:36Z</time>
      </trkpt>
      <trkpt lat="44.42185" lon="5.15939">
        <ele>618.7</ele>
        <time>2022-10-16T07:38:35Z</time>
      </trkpt>
      <trkpt lat="44.42184" lon="5.15938">
        <ele>618.7</ele>
        <time>2022-10-16T07:38:34Z</time>
      </trkpt>
      <trkpt lat="44.42183" lon="5.15937">
        <ele>618.7</ele>
        <time>2022-10-16T07:38:33Z</time>
      </trkpt>
      <trkpt lat="44.42182" lon="5.15937">
        <ele>618.6</ele>
        <time>2022-10-16T07:38:32Z</time>
      </trkpt>
      <trkpt lat="44.42181" lon="5.15936">
        <ele>618.6</ele>
        <time>2022-10-16T07:38:31Z</time>
      </trkpt>
      <trkpt lat="44.4218" lon="5.15935">
        <ele>618.6</ele>
        <time>2022-10-16T07:38:30Z</time>
      </trkpt>
      <trkpt lat="44.42179" lon="5.15935">
        <ele>618.5</ele>
        <time>2022-10-16T07:38:29Z</time>
      </trkpt>
      <trkpt lat="44.42178" lon="5.15934">
        <ele>618.5</ele>
        <time>2022-10-16T07:38:28Z</time>
      </trkpt>
      <trkpt lat="44.42177" lon="5.15934">
        <ele>618.4</ele>
        <time>2022-10-16T07:38:27Z</time>
      </trkpt>
      <trkpt lat="44.42176" lon="5.15933">
        <ele>618.4</ele>
        <time>2022-10-16T07:38:26Z</time>
      </trkpt>
      <trkpt lat="44.42175" lon="5.15933">
        <ele>618.3</ele>
        <time>2022-10-16T07:38:25Z</time>
      </trkpt>
      <trkpt lat="44.42174" lon="5.15933">
        <ele>618.1</ele>
        <time>2022-10-16T07:38:24Z</time>
      </trkpt>
      <trkpt lat="44.42173" lon="5.15932">
        <ele>618.1</ele>
        <time>2022-10-16T07:38:23Z</time>
      </trkpt>
      <trkpt lat="44.42172" lon="5.15932">
        <ele>618</ele>
        <time>2022-10-16T07:38:22Z</time>
      </trkpt>
      <trkpt lat="44.42171" lon="5.15932">
        <ele>617.9</ele>
        <time>2022-10-16T07:38:21Z</time>
      </trkpt>
      <trkpt lat="44.4217" lon="5.15932">
        <ele>617.8</ele>
        <time>2022-10-16T07:38:20Z</time>
      </trkpt>
      <trkpt lat="44.42169" lon="5.15931">
        <ele>617.7</ele>
        <time>2022-10-16T07:38:19Z</time>
      </trkpt>
      <trkpt lat="44.42168" lon="5.15931">
        <ele>617.6</ele>
        <time>2022-10-16T07:38:18Z</time>
      </trkpt>
      <trkpt lat="44.42167" lon="5.15931">
        <ele>617.5</ele>
        <time>2022-10-16T07:38:17Z</time>
      </trkpt>
      <trkpt lat="44.42166" lon="5.15931">
        <ele>617.3</ele>
        <time>2022-10-16T07:38:16Z</time>
      </trkpt>
      <trkpt lat="44.42165" lon="5.15931">
        <ele>617.1</ele>
        <time>2022-10-16T07:38:14Z</time>
      </trkpt>
      <trkpt lat="44.42164" lon="5.1593">
        <ele>617</ele>
        <time>2022-10-16T07:38:13Z</time>
      </trkpt>
      <trkpt lat="44.42163" lon="5.1593">
        <ele>616.8</ele>
        <time>2022-10-16T07:38:12Z</time>
      </trkpt>
      <trkpt lat="44.42162" lon="5.1593">
        <ele>616.6</ele>
        <time>2022-10-16T07:38:11Z</time>
      </trkpt>
      <trkpt lat="44.42161" lon="5.1593">
        <ele>616.3</ele>
        <time>2022-10-16T07:38:10Z</time>
      </trkpt>
      <trkpt lat="44.4216" lon="5.15929">
        <ele>616.2</ele>
        <time>2022-10-16T07:38:09Z</time>
      </trkpt>
      <trkpt lat="44.42159" lon="5.15929">
        <ele>616</ele>
        <time>2022-10-16T07:38:07Z</time>
      </trkpt>
      <trkpt lat="44.42158" lon="5.15928">
        <ele>615.9</ele>
        <time>2022-10-16T07:38:06Z</time>
      </trkpt>
      <trkpt lat="44.42157" lon="5.15928">
        <ele>615.7</ele>
        <time>2022-10-16T07:38:05Z</time>
      </trkpt>
      <trkpt lat="44.42156" lon="5.15927">
        <ele>615.6</ele>
        <time>2022-10-16T07:38:03Z</time>
      </trkpt>
      <trkpt lat="44.42155" lon="5.15926">
        <ele>615.5</ele>
        <time>2022-10-16T07:38:02Z</time>
      </trkpt>
      <trkpt lat="44.42154" lon="5.15925">
        <ele>615.4</ele>
        <time>2022-10-16T07:38:01Z</time>
      </trkpt>
      <trkpt lat="44.42153" lon="5.15925">
        <ele>615.1</ele>
        <time>2022-10-16T07:38:00Z</time>
      </trkpt>
      <trkpt lat="44.42152" lon="5.15924">
        <ele>615</ele>
        <time>2022-10-16T07:37:59Z</time>
      </trkpt>
      <trkpt lat="44.42152" lon="5.15923">
        <ele>615.1</ele>
        <time>2022-10-16T07:37:58Z</time>
      </trkpt>
      <trkpt lat="44.42151" lon="5.15922">
        <ele>615</ele>
        <time>2022-10-16T07:37:57Z</time>
      </trkpt>
      <trkpt lat="44.4215" lon="5.15922">
        <ele>614.8</ele>
        <time>2022-10-16T07:37:56Z</time>
      </trkpt>
      <trkpt lat="44.42149" lon="5.15921">
        <ele>614.7</ele>
        <time>2022-10-16T07:37:55Z</time>
      </trkpt>
      <trkpt lat="44.42148" lon="5.1592">
        <ele>614.6</ele>
        <time>2022-10-16T07:37:54Z</time>
      </trkpt>
      <trkpt lat="44.42147" lon="5.1592">
        <ele>614.4</ele>
        <time>2022-10-16T07:37:53Z</time>
      </trkpt>
      <trkpt lat="44.42146" lon="5.15919">
        <ele>614.3</ele>
        <time>2022-10-16T07:37:52Z</time>
      </trkpt>
      <trkpt lat="44.42146" lon="5.15918">
        <ele>614.4</ele>
        <time>2022-10-16T07:37:51Z</time>
      </trkpt>
      <trkpt lat="44.42145" lon="5.15917">
        <ele>614.3</ele>
        <time>2022-10-16T07:37:50Z</time>
      </trkpt>
      <trkpt lat="44.42144" lon="5.15917">
        <ele>614.1</ele>
        <time>2022-10-16T07:37:49Z</time>
      </trkpt>
      <trkpt lat="44.42143" lon="5.15916">
        <ele>614</ele>
        <time>2022-10-16T07:37:48Z</time>
      </trkpt>
      <trkpt lat="44.42142" lon="5.15915">
        <ele>613.9</ele>
        <time>2022-10-16T07:37:47Z</time>
      </trkpt>
      <trkpt lat="44.42141" lon="5.15915">
        <ele>613.7</ele>
        <time>2022-10-16T07:37:46Z</time>
      </trkpt>
      <trkpt lat="44.4214" lon="5.15914">
        <ele>613.6</ele>
        <time>2022-10-16T07:37:45Z</time>
      </trkpt>
      <trkpt lat="44.4214" lon="5.15913">
        <ele>613.8</ele>
        <time>2022-10-16T07:37:44Z</time>
      </trkpt>
      <trkpt lat="44.42139" lon="5.15913">
        <ele>613.6</ele>
        <time>2022-10-16T07:37:43Z</time>
      </trkpt>
      <trkpt lat="44.42138" lon="5.15912">
        <ele>613.4</ele>
        <time>2022-10-16T07:37:42Z</time>
      </trkpt>
      <trkpt lat="44.42137" lon="5.15911">
        <ele>613.3</ele>
        <time>2022-10-16T07:37:41Z</time>
      </trkpt>
      <trkpt lat="44.42136" lon="5.15911">
        <ele>613</ele>
        <time>2022-10-16T07:37:40Z</time>
      </trkpt>
      <trkpt lat="44.42135" lon="5.1591">
        <ele>612.8</ele>
        <time>2022-10-16T07:37:39Z</time>
      </trkpt>
      <trkpt lat="44.42134" lon="5.15909">
        <ele>612.7</ele>
        <time>2022-10-16T07:37:38Z</time>
      </trkpt>
      <trkpt lat="44.42134" lon="5.15908">
        <ele>612.8</ele>
        <time>2022-10-16T07:37:37Z</time>
      </trkpt>
      <trkpt lat="44.42133" lon="5.15907">
        <ele>612.7</ele>
        <time>2022-10-16T07:37:36Z</time>
      </trkpt>
      <trkpt lat="44.42132" lon="5.15907">
        <ele>612.4</ele>
        <time>2022-10-16T07:37:35Z</time>
      </trkpt>
      <trkpt lat="44.42131" lon="5.15906">
        <ele>612.3</ele>
        <time>2022-10-16T07:37:34Z</time>
      </trkpt>
      <trkpt lat="44.4213" lon="5.15905">
        <ele>612.1</ele>
        <time>2022-10-16T07:37:33Z</time>
      </trkpt>
      <trkpt lat="44.42129" lon="5.15905">
        <ele>611.8</ele>
        <time>2022-10-16T07:37:32Z</time>
      </trkpt>
      <trkpt lat="44.42128" lon="5.15904">
        <ele>611.7</ele>
        <time>2022-10-16T07:37:31Z</time>
      </trkpt>
      <trkpt lat="44.42127" lon="5.15903">
        <ele>611.5</ele>
        <time>2022-10-16T07:37:30Z</time>
      </trkpt>
      <trkpt lat="44.42126" lon="5.15902">
        <ele>611.4</ele>
        <time>2022-10-16T07:37:28Z</time>
      </trkpt>
      <trkpt lat="44.42125" lon="5.15901">
        <ele>611.3</ele>
        <time>2022-10-16T07:37:27Z</time>
      </trkpt>
      <trkpt lat="44.42124" lon="5.159">
        <ele>611.1</ele>
        <time>2022-10-16T07:37:26Z</time>
      </trkpt>
      <trkpt lat="44.42123" lon="5.159">
        <ele>610.8</ele>
        <time>2022-10-16T07:37:25Z</time>
      </trkpt>
      <trkpt lat="44.42122" lon="5.15899">
        <ele>610.7</ele>
        <time>2022-10-16T07:37:24Z</time>
      </trkpt>
      <trkpt lat="44.42121" lon="5.15898">
        <ele>610.5</ele>
        <time>2022-10-16T07:37:23Z</time>
      </trkpt>
      <trkpt lat="44.4212" lon="5.15898">
        <ele>610.2</ele>
        <time>2022-10-16T07:37:22Z</time>
      </trkpt>
      <trkpt lat="44.4212" lon="5.15897">
        <ele>610.4</ele>
        <time>2022-10-16T07:37:21Z</time>
      </trkpt>
      <trkpt lat="44.42119" lon="5.15896">
        <ele>610.2</ele>
        <time>2022-10-16T07:37:20Z</time>
      </trkpt>
      <trkpt lat="44.42118" lon="5.15896">
        <ele>610</ele>
        <time>2022-10-16T07:37:19Z</time>
      </trkpt>
      <trkpt lat="44.42117" lon="5.15895">
        <ele>609.8</ele>
        <time>2022-10-16T07:37:18Z</time>
      </trkpt>
      <trkpt lat="44.42116" lon="5.15894">
        <ele>609.7</ele>
        <time>2022-10-16T07:37:16Z</time>
      </trkpt>
      <trkpt lat="44.42115" lon="5.15893">
        <ele>609.5</ele>
        <time>2022-10-16T07:37:15Z</time>
      </trkpt>
      <trkpt lat="44.42114" lon="5.15892">
        <ele>609.4</ele>
        <time>2022-10-16T07:37:14Z</time>
      </trkpt>
      <trkpt lat="44.42113" lon="5.15892">
        <ele>609.1</ele>
        <time>2022-10-16T07:37:13Z</time>
      </trkpt>
      <trkpt lat="44.42113" lon="5.15891">
        <ele>609.2</ele>
        <time>2022-10-16T07:37:12Z</time>
      </trkpt>
      <trkpt lat="44.42112" lon="5.1589">
        <ele>609.1</ele>
        <time>2022-10-16T07:37:11Z</time>
      </trkpt>
      <trkpt lat="44.42111" lon="5.15889">
        <ele>608.9</ele>
        <time>2022-10-16T07:37:10Z</time>
      </trkpt>
      <trkpt lat="44.4211" lon="5.15888">
        <ele>608.8</ele>
        <time>2022-10-16T07:37:09Z</time>
      </trkpt>
      <trkpt lat="44.42109" lon="5.15887">
        <ele>608.7</ele>
        <time>2022-10-16T07:37:08Z</time>
      </trkpt>
      <trkpt lat="44.42109" lon="5.15886">
        <ele>608.9</ele>
        <time>2022-10-16T07:37:07Z</time>
      </trkpt>
      <trkpt lat="44.42108" lon="5.15885">
        <ele>608.7</ele>
        <time>2022-10-16T07:37:06Z</time>
      </trkpt>
      <trkpt lat="44.42107" lon="5.15885">
        <ele>608.4</ele>
        <time>2022-10-16T07:37:05Z</time>
      </trkpt>
      <trkpt lat="44.42107" lon="5.15884">
        <ele>608.6</ele>
        <time>2022-10-16T07:37:04Z</time>
      </trkpt>
      <trkpt lat="44.42106" lon="5.15883">
        <ele>608.5</ele>
        <time>2022-10-16T07:37:03Z</time>
      </trkpt>
      <trkpt lat="44.42105" lon="5.15882">
        <ele>608.4</ele>
        <time>2022-10-16T07:37:02Z</time>
      </trkpt>
      <trkpt lat="44.42104" lon="5.15881">
        <ele>608.3</ele>
        <time>2022-10-16T07:37:01Z</time>
      </trkpt>
      <trkpt lat="44.42104" lon="5.1588">
        <ele>608.5</ele>
        <time>2022-10-16T07:37:00Z</time>
      </trkpt>
      <trkpt lat="44.42103" lon="5.1588">
        <ele>608.2</ele>
        <time>2022-10-16T07:36:59Z</time>
      </trkpt>
      <trkpt lat="44.42102" lon="5.15879">
        <ele>608.1</ele>
        <time>2022-10-16T07:36:58Z</time>
      </trkpt>
      <trkpt lat="44.42101" lon="5.15878">
        <ele>608</ele>
        <time>2022-10-16T07:36:57Z</time>
      </trkpt>
      <trkpt lat="44.421" lon="5.15877">
        <ele>607.9</ele>
        <time>2022-10-16T07:36:56Z</time>
      </trkpt>
      <trkpt lat="44.42099" lon="5.15876">
        <ele>607.8</ele>
        <time>2022-10-16T07:36:55Z</time>
      </trkpt>
      <trkpt lat="44.42098" lon="5.15875">
        <ele>607.7</ele>
        <time>2022-10-16T07:36:54Z</time>
      </trkpt>
      <trkpt lat="44.42097" lon="5.15874">
        <ele>607.7</ele>
        <time>2022-10-16T07:36:53Z</time>
      </trkpt>
      <trkpt lat="44.42096" lon="5.15873">
        <ele>607.6</ele>
        <time>2022-10-16T07:36:52Z</time>
      </trkpt>
      <trkpt lat="44.42095" lon="5.15873">
        <ele>607.3</ele>
        <time>2022-10-16T07:36:51Z</time>
      </trkpt>
      <trkpt lat="44.42094" lon="5.15872">
        <ele>607.2</ele>
        <time>2022-10-16T07:36:49Z</time>
      </trkpt>
      <trkpt lat="44.42093" lon="5.15871">
        <ele>607.2</ele>
        <time>2022-10-16T07:36:48Z</time>
      </trkpt>
      <trkpt lat="44.42092" lon="5.15871">
        <ele>606.9</ele>
        <time>2022-10-16T07:36:47Z</time>
      </trkpt>
      <trkpt lat="44.42091" lon="5.1587">
        <ele>606.9</ele>
        <time>2022-10-16T07:36:46Z</time>
      </trkpt>
      <trkpt lat="44.4209" lon="5.1587">
        <ele>606.6</ele>
        <time>2022-10-16T07:36:45Z</time>
      </trkpt>
      <trkpt lat="44.42089" lon="5.15869">
        <ele>606.6</ele>
        <time>2022-10-16T07:36:44Z</time>
      </trkpt>
      <trkpt lat="44.42088" lon="5.15869">
        <ele>606.3</ele>
        <time>2022-10-16T07:36:42Z</time>
      </trkpt>
      <trkpt lat="44.42087" lon="5.15868">
        <ele>606.3</ele>
        <time>2022-10-16T07:36:41Z</time>
      </trkpt>
      <trkpt lat="44.42086" lon="5.15868">
        <ele>606</ele>
        <time>2022-10-16T07:36:40Z</time>
      </trkpt>
      <trkpt lat="44.42085" lon="5.15868">
        <ele>605.7</ele>
        <time>2022-10-16T07:36:39Z</time>
      </trkpt>
      <trkpt lat="44.42084" lon="5.15867">
        <ele>605.7</ele>
        <time>2022-10-16T07:36:38Z</time>
      </trkpt>
      <trkpt lat="44.42083" lon="5.15867">
        <ele>605.4</ele>
        <time>2022-10-16T07:36:37Z</time>
      </trkpt>
      <trkpt lat="44.42082" lon="5.15866">
        <ele>605.5</ele>
        <time>2022-10-16T07:36:36Z</time>
      </trkpt>
      <trkpt lat="44.42081" lon="5.15866">
        <ele>605.3</ele>
        <time>2022-10-16T07:36:35Z</time>
      </trkpt>
      <trkpt lat="44.4208" lon="5.15865">
        <ele>605.3</ele>
        <time>2022-10-16T07:36:34Z</time>
      </trkpt>
      <trkpt lat="44.42079" lon="5.15865">
        <ele>605.1</ele>
        <time>2022-10-16T07:36:33Z</time>
      </trkpt>
      <trkpt lat="44.42079" lon="5.15864">
        <ele>605.4</ele>
        <time>2022-10-16T07:36:32Z</time>
      </trkpt>
      <trkpt lat="44.42078" lon="5.15864">
        <ele>605.2</ele>
        <time>2022-10-16T07:36:31Z</time>
      </trkpt>
      <trkpt lat="44.42077" lon="5.15864">
        <ele>605</ele>
        <time>2022-10-16T07:36:30Z</time>
      </trkpt>
      <trkpt lat="44.42076" lon="5.15864">
        <ele>604.7</ele>
        <time>2022-10-16T07:36:29Z</time>
      </trkpt>
      <trkpt lat="44.42075" lon="5.15863">
        <ele>604.8</ele>
        <time>2022-10-16T07:36:28Z</time>
      </trkpt>
      <trkpt lat="44.42074" lon="5.15863">
        <ele>604.6</ele>
        <time>2022-10-16T07:36:27Z</time>
      </trkpt>
      <trkpt lat="44.42073" lon="5.15863">
        <ele>604.3</ele>
        <time>2022-10-16T07:36:26Z</time>
      </trkpt>
      <trkpt lat="44.42073" lon="5.15862">
        <ele>604.6</ele>
        <time>2022-10-16T07:36:25Z</time>
      </trkpt>
      <trkpt lat="44.42072" lon="5.15862">
        <ele>604.4</ele>
        <time>2022-10-16T07:36:24Z</time>
      </trkpt>
      <trkpt lat="44.42071" lon="5.15861">
        <ele>604.4</ele>
        <time>2022-10-16T07:36:23Z</time>
      </trkpt>
      <trkpt lat="44.4207" lon="5.15861">
        <ele>604.1</ele>
        <time>2022-10-16T07:36:22Z</time>
      </trkpt>
      <trkpt lat="44.42069" lon="5.1586">
        <ele>604.1</ele>
        <time>2022-10-16T07:36:21Z</time>
      </trkpt>
      <trkpt lat="44.42068" lon="5.1586">
        <ele>603.9</ele>
        <time>2022-10-16T07:36:19Z</time>
      </trkpt>
      <trkpt lat="44.42067" lon="5.15859">
        <ele>603.8</ele>
        <time>2022-10-16T07:36:18Z</time>
      </trkpt>
      <trkpt lat="44.42066" lon="5.15859">
        <ele>603.6</ele>
        <time>2022-10-16T07:36:17Z</time>
      </trkpt>
      <trkpt lat="44.42065" lon="5.15858">
        <ele>603.5</ele>
        <time>2022-10-16T07:36:16Z</time>
      </trkpt>
      <trkpt lat="44.42065" lon="5.15857">
        <ele>603.7</ele>
        <time>2022-10-16T07:36:15Z</time>
      </trkpt>
      <trkpt lat="44.42064" lon="5.15857">
        <ele>603.5</ele>
        <time>2022-10-16T07:36:14Z</time>
      </trkpt>
      <trkpt lat="44.42063" lon="5.15856">
        <ele>603.4</ele>
        <time>2022-10-16T07:36:13Z</time>
      </trkpt>
      <trkpt lat="44.42063" lon="5.15855">
        <ele>603.5</ele>
        <time>2022-10-16T07:36:12Z</time>
      </trkpt>
      <trkpt lat="44.42062" lon="5.15854">
        <ele>603.5</ele>
        <time>2022-10-16T07:36:11Z</time>
      </trkpt>
      <trkpt lat="44.42061" lon="5.15854">
        <ele>603.3</ele>
        <time>2022-10-16T07:36:10Z</time>
      </trkpt>
      <trkpt lat="44.4206" lon="5.15853">
        <ele>603.2</ele>
        <time>2022-10-16T07:36:09Z</time>
      </trkpt>
      <trkpt lat="44.4206" lon="5.15852">
        <ele>603.3</ele>
        <time>2022-10-16T07:36:08Z</time>
      </trkpt>
      <trkpt lat="44.42059" lon="5.15852">
        <ele>603.1</ele>
        <time>2022-10-16T07:36:07Z</time>
      </trkpt>
      <trkpt lat="44.42058" lon="5.15852">
        <ele>602.9</ele>
        <time>2022-10-16T07:36:06Z</time>
      </trkpt>
      <trkpt lat="44.42057" lon="5.15851">
        <ele>602.8</ele>
        <time>2022-10-16T07:36:05Z</time>
      </trkpt>
      <trkpt lat="44.42056" lon="5.15851">
        <ele>602.6</ele>
        <time>2022-10-16T07:36:03Z</time>
      </trkpt>
      <trkpt lat="44.42055" lon="5.15851">
        <ele>602.4</ele>
        <time>2022-10-16T07:36:02Z</time>
      </trkpt>
      <trkpt lat="44.42054" lon="5.15851">
        <ele>602.2</ele>
        <time>2022-10-16T07:36:01Z</time>
      </trkpt>
      <trkpt lat="44.42053" lon="5.15851">
        <ele>602</ele>
        <time>2022-10-16T07:36:00Z</time>
      </trkpt>
      <trkpt lat="44.42052" lon="5.15851">
        <ele>601.8</ele>
        <time>2022-10-16T07:35:59Z</time>
      </trkpt>
      <trkpt lat="44.42052" lon="5.15852">
        <ele>601.7</ele>
        <time>2022-10-16T07:35:58Z</time>
      </trkpt>
      <trkpt lat="44.42051" lon="5.15852">
        <ele>601.5</ele>
        <time>2022-10-16T07:35:57Z</time>
      </trkpt>
      <trkpt lat="44.4205" lon="5.15852">
        <ele>601.3</ele>
        <time>2022-10-16T07:35:56Z</time>
      </trkpt>
      <trkpt lat="44.42049" lon="5.15853">
        <ele>601</ele>
        <time>2022-10-16T07:35:55Z</time>
      </trkpt>
      <trkpt lat="44.42048" lon="5.15853">
        <ele>600.8</ele>
        <time>2022-10-16T07:35:54Z</time>
      </trkpt>
      <trkpt lat="44.42048" lon="5.15854">
        <ele>600.7</ele>
        <time>2022-10-16T07:35:53Z</time>
      </trkpt>
      <trkpt lat="44.42047" lon="5.15855">
        <ele>600.3</ele>
        <time>2022-10-16T07:35:52Z</time>
      </trkpt>
      <trkpt lat="44.42046" lon="5.15855">
        <ele>600.2</ele>
        <time>2022-10-16T07:35:51Z</time>
      </trkpt>
      <trkpt lat="44.42046" lon="5.15856">
        <ele>600</ele>
        <time>2022-10-16T07:35:50Z</time>
      </trkpt>
      <trkpt lat="44.42045" lon="5.15857">
        <ele>599.7</ele>
        <time>2022-10-16T07:35:49Z</time>
      </trkpt>
      <trkpt lat="44.42045" lon="5.15858">
        <ele>599.5</ele>
        <time>2022-10-16T07:35:48Z</time>
      </trkpt>
      <trkpt lat="44.42044" lon="5.15859">
        <ele>599.2</ele>
        <time>2022-10-16T07:35:47Z</time>
      </trkpt>
      <trkpt lat="44.42043" lon="5.1586">
        <ele>598.9</ele>
        <time>2022-10-16T07:35:46Z</time>
      </trkpt>
      <trkpt lat="44.42043" lon="5.15861">
        <ele>598.8</ele>
        <time>2022-10-16T07:35:45Z</time>
      </trkpt>
      <trkpt lat="44.42042" lon="5.15862">
        <ele>598.4</ele>
        <time>2022-10-16T07:35:44Z</time>
      </trkpt>
      <trkpt lat="44.42042" lon="5.15863">
        <ele>598.2</ele>
        <time>2022-10-16T07:35:43Z</time>
      </trkpt>
      <trkpt lat="44.42042" lon="5.15864">
        <ele>598</ele>
        <time>2022-10-16T07:35:42Z</time>
      </trkpt>
      <trkpt lat="44.42041" lon="5.15865">
        <ele>597.7</ele>
        <time>2022-10-16T07:35:41Z</time>
      </trkpt>
      <trkpt lat="44.42041" lon="5.15866">
        <ele>597.5</ele>
        <time>2022-10-16T07:35:40Z</time>
      </trkpt>
      <trkpt lat="44.42041" lon="5.15868">
        <ele>597.1</ele>
        <time>2022-10-16T07:35:39Z</time>
      </trkpt>
      <trkpt lat="44.42041" lon="5.15869">
        <ele>597</ele>
        <time>2022-10-16T07:35:38Z</time>
      </trkpt>
      <trkpt lat="44.4204" lon="5.1587">
        <ele>596.6</ele>
        <time>2022-10-16T07:35:37Z</time>
      </trkpt>
      <trkpt lat="44.4204" lon="5.15871">
        <ele>596.4</ele>
        <time>2022-10-16T07:35:36Z</time>
      </trkpt>
      <trkpt lat="44.4204" lon="5.15872">
        <ele>596.2</ele>
        <time>2022-10-16T07:35:35Z</time>
      </trkpt>
      <trkpt lat="44.42039" lon="5.15873">
        <ele>595.9</ele>
        <time>2022-10-16T07:35:34Z</time>
      </trkpt>
      <trkpt lat="44.42039" lon="5.15874">
        <ele>595.7</ele>
        <time>2022-10-16T07:35:33Z</time>
      </trkpt>
      <trkpt lat="44.42039" lon="5.15875">
        <ele>595.5</ele>
        <time>2022-10-16T07:35:32Z</time>
      </trkpt>
      <trkpt lat="44.42039" lon="5.15876">
        <ele>595.3</ele>
        <time>2022-10-16T07:35:31Z</time>
      </trkpt>
      <trkpt lat="44.42039" lon="5.15877">
        <ele>595.2</ele>
        <time>2022-10-16T07:35:30Z</time>
      </trkpt>
      <trkpt lat="44.42039" lon="5.15878">
        <ele>595</ele>
        <time>2022-10-16T07:35:29Z</time>
      </trkpt>
      <trkpt lat="44.42038" lon="5.15879">
        <ele>594.6</ele>
        <time>2022-10-16T07:35:28Z</time>
      </trkpt>
      <trkpt lat="44.42038" lon="5.1588">
        <ele>594.4</ele>
        <time>2022-10-16T07:35:27Z</time>
      </trkpt>
      <trkpt lat="44.42038" lon="5.15881">
        <ele>594.3</ele>
        <time>2022-10-16T07:35:26Z</time>
      </trkpt>
      <trkpt lat="44.42038" lon="5.15882">
        <ele>594.1</ele>
        <time>2022-10-16T07:35:25Z</time>
      </trkpt>
      <trkpt lat="44.42038" lon="5.15883">
        <ele>593.9</ele>
        <time>2022-10-16T07:35:24Z</time>
      </trkpt>
      <trkpt lat="44.42038" lon="5.15884">
        <ele>593.7</ele>
        <time>2022-10-16T07:35:23Z</time>
      </trkpt>
      <trkpt lat="44.42038" lon="5.15885">
        <ele>593.5</ele>
        <time>2022-10-16T07:35:22Z</time>
      </trkpt>
      <trkpt lat="44.42039" lon="5.15886">
        <ele>593.5</ele>
        <time>2022-10-16T07:35:21Z</time>
      </trkpt>
      <trkpt lat="44.42039" lon="5.15887">
        <ele>593.4</ele>
        <time>2022-10-16T07:35:20Z</time>
      </trkpt>
      <trkpt lat="44.42039" lon="5.15888">
        <ele>593.2</ele>
        <time>2022-10-16T07:35:19Z</time>
      </trkpt>
      <trkpt lat="44.42039" lon="5.15889">
        <ele>593</ele>
        <time>2022-10-16T07:35:18Z</time>
      </trkpt>
      <trkpt lat="44.4204" lon="5.15891">
        <ele>592.7</ele>
        <time>2022-10-16T07:35:17Z</time>
      </trkpt>
      <trkpt lat="44.4204" lon="5.15892">
        <ele>592.5</ele>
        <time>2022-10-16T07:35:16Z</time>
      </trkpt>
      <trkpt lat="44.42041" lon="5.15892">
        <ele>592.6</ele>
        <time>2022-10-16T07:35:15Z</time>
      </trkpt>
      <trkpt lat="44.42041" lon="5.15893">
        <ele>592.4</ele>
        <time>2022-10-16T07:35:14Z</time>
      </trkpt>
      <trkpt lat="44.42042" lon="5.15894">
        <ele>592.4</ele>
        <time>2022-10-16T07:35:13Z</time>
      </trkpt>
      <trkpt lat="44.42042" lon="5.15895">
        <ele>592.1</ele>
        <time>2022-10-16T07:35:12Z</time>
      </trkpt>
      <trkpt lat="44.42043" lon="5.15896">
        <ele>592.1</ele>
        <time>2022-10-16T07:35:11Z</time>
      </trkpt>
      <trkpt lat="44.42043" lon="5.15897">
        <ele>591.9</ele>
        <time>2022-10-16T07:35:10Z</time>
      </trkpt>
      <trkpt lat="44.42044" lon="5.15897">
        <ele>592</ele>
        <time>2022-10-16T07:35:09Z</time>
      </trkpt>
      <trkpt lat="44.42044" lon="5.15898">
        <ele>591.8</ele>
        <time>2022-10-16T07:35:08Z</time>
      </trkpt>
      <trkpt lat="44.42045" lon="5.15899">
        <ele>591.8</ele>
        <time>2022-10-16T07:35:07Z</time>
      </trkpt>
      <trkpt lat="44.42046" lon="5.15899">
        <ele>592</ele>
        <time>2022-10-16T07:35:06Z</time>
      </trkpt>
      <trkpt lat="44.42047" lon="5.159">
        <ele>591.9</ele>
        <time>2022-10-16T07:35:04Z</time>
      </trkpt>
      <trkpt lat="44.42048" lon="5.15901">
        <ele>591.9</ele>
        <time>2022-10-16T07:35:03Z</time>
      </trkpt>
      <trkpt lat="44.42049" lon="5.15902">
        <ele>591.9</ele>
        <time>2022-10-16T07:35:02Z</time>
      </trkpt>
      <trkpt lat="44.42049" lon="5.15903">
        <ele>591.7</ele>
        <time>2022-10-16T07:35:01Z</time>
      </trkpt>
      <trkpt lat="44.4205" lon="5.15903">
        <ele>591.9</ele>
        <time>2022-10-16T07:35:00Z</time>
      </trkpt>
      <trkpt lat="44.42051" lon="5.15904">
        <ele>591.8</ele>
        <time>2022-10-16T07:34:59Z</time>
      </trkpt>
      <trkpt lat="44.42051" lon="5.15905">
        <ele>591.6</ele>
        <time>2022-10-16T07:34:58Z</time>
      </trkpt>
      <trkpt lat="44.42052" lon="5.15905">
        <ele>591.8</ele>
        <time>2022-10-16T07:34:57Z</time>
      </trkpt>
      <trkpt lat="44.42053" lon="5.15906">
        <ele>591.8</ele>
        <time>2022-10-16T07:34:56Z</time>
      </trkpt>
      <trkpt lat="44.42053" lon="5.15907">
        <ele>591.6</ele>
        <time>2022-10-16T07:34:55Z</time>
      </trkpt>
      <trkpt lat="44.42054" lon="5.15908">
        <ele>591.6</ele>
        <time>2022-10-16T07:34:53Z</time>
      </trkpt>
      <trkpt lat="44.42055" lon="5.15909">
        <ele>591.5</ele>
        <time>2022-10-16T07:34:52Z</time>
      </trkpt>
      <trkpt lat="44.42055" lon="5.1591">
        <ele>591.3</ele>
        <time>2022-10-16T07:34:51Z</time>
      </trkpt>
      <trkpt lat="44.42056" lon="5.15911">
        <ele>591.3</ele>
        <time>2022-10-16T07:34:50Z</time>
      </trkpt>
      <trkpt lat="44.42056" lon="5.15912">
        <ele>591.1</ele>
        <time>2022-10-16T07:34:49Z</time>
      </trkpt>
      <trkpt lat="44.42057" lon="5.15913">
        <ele>591.1</ele>
        <time>2022-10-16T07:34:48Z</time>
      </trkpt>
      <trkpt lat="44.42057" lon="5.15914">
        <ele>590.9</ele>
        <time>2022-10-16T07:34:47Z</time>
      </trkpt>
      <trkpt lat="44.42057" lon="5.15915">
        <ele>590.7</ele>
        <time>2022-10-16T07:34:46Z</time>
      </trkpt>
      <trkpt lat="44.42057" lon="5.15916">
        <ele>590.5</ele>
        <time>2022-10-16T07:34:45Z</time>
      </trkpt>
      <trkpt lat="44.42057" lon="5.15917">
        <ele>590.3</ele>
        <time>2022-10-16T07:34:44Z</time>
      </trkpt>
      <trkpt lat="44.42057" lon="5.15918">
        <ele>590.2</ele>
        <time>2022-10-16T07:34:43Z</time>
      </trkpt>
      <trkpt lat="44.42057" lon="5.15919">
        <ele>590.1</ele>
        <time>2022-10-16T07:34:42Z</time>
      </trkpt>
      <trkpt lat="44.42057" lon="5.1592">
        <ele>590</ele>
        <time>2022-10-16T07:34:41Z</time>
      </trkpt>
      <trkpt lat="44.42057" lon="5.15921">
        <ele>589.9</ele>
        <time>2022-10-16T07:34:40Z</time>
      </trkpt>
      <trkpt lat="44.42057" lon="5.15922">
        <ele>589.7</ele>
        <time>2022-10-16T07:34:39Z</time>
      </trkpt>
      <trkpt lat="44.42056" lon="5.15923">
        <ele>589.4</ele>
        <time>2022-10-16T07:34:38Z</time>
      </trkpt>
      <trkpt lat="44.42056" lon="5.15924">
        <ele>589.3</ele>
        <time>2022-10-16T07:34:37Z</time>
      </trkpt>
      <trkpt lat="44.42055" lon="5.15925">
        <ele>589</ele>
        <time>2022-10-16T07:34:36Z</time>
      </trkpt>
      <trkpt lat="44.42054" lon="5.15926">
        <ele>588.7</ele>
        <time>2022-10-16T07:34:35Z</time>
      </trkpt>
      <trkpt lat="44.42054" lon="5.15927">
        <ele>588.6</ele>
        <time>2022-10-16T07:34:34Z</time>
      </trkpt>
      <trkpt lat="44.42053" lon="5.15927">
        <ele>588.4</ele>
        <time>2022-10-16T07:34:33Z</time>
      </trkpt>
      <trkpt lat="44.42053" lon="5.15928">
        <ele>588.3</ele>
        <time>2022-10-16T07:34:32Z</time>
      </trkpt>
      <trkpt lat="44.42052" lon="5.15929">
        <ele>588</ele>
        <time>2022-10-16T07:34:31Z</time>
      </trkpt>
      <trkpt lat="44.42052" lon="5.1593">
        <ele>587.9</ele>
        <time>2022-10-16T07:34:30Z</time>
      </trkpt>
      <trkpt lat="44.42051" lon="5.1593">
        <ele>587.7</ele>
        <time>2022-10-16T07:34:29Z</time>
      </trkpt>
      <trkpt lat="44.42051" lon="5.15931">
        <ele>587.6</ele>
        <time>2022-10-16T07:34:28Z</time>
      </trkpt>
      <trkpt lat="44.4205" lon="5.15932">
        <ele>587.4</ele>
        <time>2022-10-16T07:34:26Z</time>
      </trkpt>
      <trkpt lat="44.42049" lon="5.15933">
        <ele>587.1</ele>
        <time>2022-10-16T07:34:25Z</time>
      </trkpt>
      <trkpt lat="44.42048" lon="5.15934">
        <ele>586.8</ele>
        <time>2022-10-16T07:34:23Z</time>
      </trkpt>
      <trkpt lat="44.42047" lon="5.15935">
        <ele>586.6</ele>
        <time>2022-10-16T07:34:22Z</time>
      </trkpt>
      <trkpt lat="44.42046" lon="5.15935">
        <ele>586.4</ele>
        <time>2022-10-16T07:34:21Z</time>
      </trkpt>
      <trkpt lat="44.42046" lon="5.15936">
        <ele>586.3</ele>
        <time>2022-10-16T07:34:20Z</time>
      </trkpt>
      <trkpt lat="44.42045" lon="5.15936">
        <ele>586.2</ele>
        <time>2022-10-16T07:34:19Z</time>
      </trkpt>
      <trkpt lat="44.42044" lon="5.15937">
        <ele>585.9</ele>
        <time>2022-10-16T07:34:18Z</time>
      </trkpt>
      <trkpt lat="44.42043" lon="5.15937">
        <ele>585.8</ele>
        <time>2022-10-16T07:34:17Z</time>
      </trkpt>
      <trkpt lat="44.42043" lon="5.15938">
        <ele>585.7</ele>
        <time>2022-10-16T07:34:16Z</time>
      </trkpt>
      <trkpt lat="44.42042" lon="5.15938">
        <ele>585.5</ele>
        <time>2022-10-16T07:34:15Z</time>
      </trkpt>
      <trkpt lat="44.42041" lon="5.15939">
        <ele>585.3</ele>
        <time>2022-10-16T07:34:14Z</time>
      </trkpt>
      <trkpt lat="44.4204" lon="5.1594">
        <ele>585.1</ele>
        <time>2022-10-16T07:34:12Z</time>
      </trkpt>
      <trkpt lat="44.42039" lon="5.15941">
        <ele>584.8</ele>
        <time>2022-10-16T07:34:11Z</time>
      </trkpt>
      <trkpt lat="44.42038" lon="5.15941">
        <ele>584.7</ele>
        <time>2022-10-16T07:34:10Z</time>
      </trkpt>
      <trkpt lat="44.42037" lon="5.15942">
        <ele>584.5</ele>
        <time>2022-10-16T07:34:08Z</time>
      </trkpt>
      <trkpt lat="44.42036" lon="5.15943">
        <ele>584.3</ele>
        <time>2022-10-16T07:34:07Z</time>
      </trkpt>
      <trkpt lat="44.42035" lon="5.15943">
        <ele>584.1</ele>
        <time>2022-10-16T07:34:06Z</time>
      </trkpt>
      <trkpt lat="44.42034" lon="5.15944">
        <ele>583.9</ele>
        <time>2022-10-16T07:34:05Z</time>
      </trkpt>
      <trkpt lat="44.42033" lon="5.15944">
        <ele>583.8</ele>
        <time>2022-10-16T07:34:04Z</time>
      </trkpt>
      <trkpt lat="44.42033" lon="5.15945">
        <ele>583.7</ele>
        <time>2022-10-16T07:34:03Z</time>
      </trkpt>
      <trkpt lat="44.42032" lon="5.15946">
        <ele>583.6</ele>
        <time>2022-10-16T07:34:02Z</time>
      </trkpt>
      <trkpt lat="44.42031" lon="5.15946">
        <ele>583.4</ele>
        <time>2022-10-16T07:34:01Z</time>
      </trkpt>
      <trkpt lat="44.4203" lon="5.15947">
        <ele>583.2</ele>
        <time>2022-10-16T07:34:00Z</time>
      </trkpt>
      <trkpt lat="44.4203" lon="5.15948">
        <ele>583.2</ele>
        <time>2022-10-16T07:33:59Z</time>
      </trkpt>
      <trkpt lat="44.42029" lon="5.15948">
        <ele>583.1</ele>
        <time>2022-10-16T07:33:58Z</time>
      </trkpt>
      <trkpt lat="44.42028" lon="5.15949">
        <ele>582.9</ele>
        <time>2022-10-16T07:33:57Z</time>
      </trkpt>
      <trkpt lat="44.42027" lon="5.15949">
        <ele>582.8</ele>
        <time>2022-10-16T07:33:56Z</time>
      </trkpt>
      <trkpt lat="44.42027" lon="5.1595">
        <ele>582.7</ele>
        <time>2022-10-16T07:33:55Z</time>
      </trkpt>
      <trkpt lat="44.42026" lon="5.15951">
        <ele>582.6</ele>
        <time>2022-10-16T07:33:54Z</time>
      </trkpt>
      <trkpt lat="44.42025" lon="5.15952">
        <ele>582.5</ele>
        <time>2022-10-16T07:33:53Z</time>
      </trkpt>
      <trkpt lat="44.42024" lon="5.15952">
        <ele>582.4</ele>
        <time>2022-10-16T07:33:52Z</time>
      </trkpt>
      <trkpt lat="44.42023" lon="5.15953">
        <ele>582.2</ele>
        <time>2022-10-16T07:33:51Z</time>
      </trkpt>
      <trkpt lat="44.42023" lon="5.15954">
        <ele>582.2</ele>
        <time>2022-10-16T07:33:50Z</time>
      </trkpt>
      <trkpt lat="44.42022" lon="5.15955">
        <ele>582</ele>
        <time>2022-10-16T07:33:49Z</time>
      </trkpt>
      <trkpt lat="44.42021" lon="5.15956">
        <ele>581.9</ele>
        <time>2022-10-16T07:33:48Z</time>
      </trkpt>
      <trkpt lat="44.4202" lon="5.15957">
        <ele>581.7</ele>
        <time>2022-10-16T07:33:47Z</time>
      </trkpt>
      <trkpt lat="44.4202" lon="5.15958">
        <ele>581.7</ele>
        <time>2022-10-16T07:33:46Z</time>
      </trkpt>
      <trkpt lat="44.42019" lon="5.15959">
        <ele>581.5</ele>
        <time>2022-10-16T07:33:45Z</time>
      </trkpt>
      <trkpt lat="44.42018" lon="5.1596">
        <ele>581.3</ele>
        <time>2022-10-16T07:33:44Z</time>
      </trkpt>
      <trkpt lat="44.42018" lon="5.15961">
        <ele>581.3</ele>
        <time>2022-10-16T07:33:43Z</time>
      </trkpt>
      <trkpt lat="44.42017" lon="5.15962">
        <ele>581.1</ele>
        <time>2022-10-16T07:33:42Z</time>
      </trkpt>
      <trkpt lat="44.42016" lon="5.15963">
        <ele>580.9</ele>
        <time>2022-10-16T07:33:41Z</time>
      </trkpt>
      <trkpt lat="44.42016" lon="5.15964">
        <ele>580.9</ele>
        <time>2022-10-16T07:33:40Z</time>
      </trkpt>
      <trkpt lat="44.42015" lon="5.15965">
        <ele>580.7</ele>
        <time>2022-10-16T07:33:39Z</time>
      </trkpt>
      <trkpt lat="44.42014" lon="5.15966">
        <ele>580.5</ele>
        <time>2022-10-16T07:33:38Z</time>
      </trkpt>
      <trkpt lat="44.42014" lon="5.15967">
        <ele>580.4</ele>
        <time>2022-10-16T07:33:37Z</time>
      </trkpt>
      <trkpt lat="44.42013" lon="5.15968">
        <ele>580.2</ele>
        <time>2022-10-16T07:33:36Z</time>
      </trkpt>
      <trkpt lat="44.42012" lon="5.15969">
        <ele>580</ele>
        <time>2022-10-16T07:33:35Z</time>
      </trkpt>
      <trkpt lat="44.42012" lon="5.1597">
        <ele>579.9</ele>
        <time>2022-10-16T07:33:34Z</time>
      </trkpt>
      <trkpt lat="44.42011" lon="5.15971">
        <ele>579.7</ele>
        <time>2022-10-16T07:33:33Z</time>
      </trkpt>
      <trkpt lat="44.42011" lon="5.15972">
        <ele>579.6</ele>
        <time>2022-10-16T07:33:32Z</time>
      </trkpt>
      <trkpt lat="44.4201" lon="5.15973">
        <ele>579.4</ele>
        <time>2022-10-16T07:33:31Z</time>
      </trkpt>
      <trkpt lat="44.4201" lon="5.15974">
        <ele>579.3</ele>
        <time>2022-10-16T07:33:30Z</time>
      </trkpt>
      <trkpt lat="44.42009" lon="5.15976">
        <ele>578.9</ele>
        <time>2022-10-16T07:33:29Z</time>
      </trkpt>
      <trkpt lat="44.42009" lon="5.15977">
        <ele>578.8</ele>
        <time>2022-10-16T07:33:28Z</time>
      </trkpt>
      <trkpt lat="44.42008" lon="5.15978">
        <ele>578.6</ele>
        <time>2022-10-16T07:33:27Z</time>
      </trkpt>
      <trkpt lat="44.42008" lon="5.1598">
        <ele>578.4</ele>
        <time>2022-10-16T07:33:26Z</time>
      </trkpt>
      <trkpt lat="44.42008" lon="5.15981">
        <ele>578.3</ele>
        <time>2022-10-16T07:33:25Z</time>
      </trkpt>
      <trkpt lat="44.42007" lon="5.15982">
        <ele>578</ele>
        <time>2022-10-16T07:33:24Z</time>
      </trkpt>
      <trkpt lat="44.42007" lon="5.15983">
        <ele>577.9</ele>
        <time>2022-10-16T07:33:23Z</time>
      </trkpt>
      <trkpt lat="44.42007" lon="5.15985">
        <ele>577.7</ele>
        <time>2022-10-16T07:33:22Z</time>
      </trkpt>
      <trkpt lat="44.42006" lon="5.15986">
        <ele>577.5</ele>
        <time>2022-10-16T07:33:21Z</time>
      </trkpt>
      <trkpt lat="44.42006" lon="5.15987">
        <ele>577.4</ele>
        <time>2022-10-16T07:33:20Z</time>
      </trkpt>
      <trkpt lat="44.42006" lon="5.15989">
        <ele>577.2</ele>
        <time>2022-10-16T07:33:19Z</time>
      </trkpt>
      <trkpt lat="44.42006" lon="5.1599">
        <ele>577.1</ele>
        <time>2022-10-16T07:33:18Z</time>
      </trkpt>
      <trkpt lat="44.42006" lon="5.15992">
        <ele>576.9</ele>
        <time>2022-10-16T07:33:17Z</time>
      </trkpt>
      <trkpt lat="44.42006" lon="5.15993">
        <ele>576.8</ele>
        <time>2022-10-16T07:33:16Z</time>
      </trkpt>
      <trkpt lat="44.42006" lon="5.15995">
        <ele>576.6</ele>
        <time>2022-10-16T07:33:15Z</time>
      </trkpt>
      <trkpt lat="44.42006" lon="5.15996">
        <ele>576.5</ele>
        <time>2022-10-16T07:33:14Z</time>
      </trkpt>
      <trkpt lat="44.42006" lon="5.15998">
        <ele>576.3</ele>
        <time>2022-10-16T07:33:13Z</time>
      </trkpt>
      <trkpt lat="44.42006" lon="5.15999">
        <ele>576.2</ele>
        <time>2022-10-16T07:33:12Z</time>
      </trkpt>
      <trkpt lat="44.42006" lon="5.16001">
        <ele>576</ele>
        <time>2022-10-16T07:33:11Z</time>
      </trkpt>
      <trkpt lat="44.42006" lon="5.16002">
        <ele>576</ele>
        <time>2022-10-16T07:33:10Z</time>
      </trkpt>
      <trkpt lat="44.42007" lon="5.16003">
        <ele>576.1</ele>
        <time>2022-10-16T07:33:09Z</time>
      </trkpt>
      <trkpt lat="44.42007" lon="5.16005">
        <ele>575.9</ele>
        <time>2022-10-16T07:33:08Z</time>
      </trkpt>
      <trkpt lat="44.42007" lon="5.16006">
        <ele>575.9</ele>
        <time>2022-10-16T07:33:07Z</time>
      </trkpt>
      <trkpt lat="44.42007" lon="5.16008">
        <ele>575.8</ele>
        <time>2022-10-16T07:33:06Z</time>
      </trkpt>
      <trkpt lat="44.42007" lon="5.16009">
        <ele>575.7</ele>
        <time>2022-10-16T07:33:05Z</time>
      </trkpt>
      <trkpt lat="44.42008" lon="5.16011">
        <ele>575.8</ele>
        <time>2022-10-16T07:33:04Z</time>
      </trkpt>
      <trkpt lat="44.42008" lon="5.16012">
        <ele>575.7</ele>
        <time>2022-10-16T07:33:03Z</time>
      </trkpt>
      <trkpt lat="44.42008" lon="5.16014">
        <ele>575.6</ele>
        <time>2022-10-16T07:33:02Z</time>
      </trkpt>
      <trkpt lat="44.42008" lon="5.16015">
        <ele>575.5</ele>
        <time>2022-10-16T07:33:01Z</time>
      </trkpt>
      <trkpt lat="44.42008" lon="5.16017">
        <ele>575.4</ele>
        <time>2022-10-16T07:33:00Z</time>
      </trkpt>
      <trkpt lat="44.42009" lon="5.16018">
        <ele>575.5</ele>
        <time>2022-10-16T07:32:59Z</time>
      </trkpt>
      <trkpt lat="44.42009" lon="5.1602">
        <ele>575.4</ele>
        <time>2022-10-16T07:32:58Z</time>
      </trkpt>
      <trkpt lat="44.42009" lon="5.16021">
        <ele>575.4</ele>
        <time>2022-10-16T07:32:57Z</time>
      </trkpt>
      <trkpt lat="44.4201" lon="5.16023">
        <ele>575.4</ele>
        <time>2022-10-16T07:32:56Z</time>
      </trkpt>
      <trkpt lat="44.4201" lon="5.16024">
        <ele>575.4</ele>
        <time>2022-10-16T07:32:55Z</time>
      </trkpt>
      <trkpt lat="44.42011" lon="5.16026">
        <ele>575.5</ele>
        <time>2022-10-16T07:32:54Z</time>
      </trkpt>
      <trkpt lat="44.42011" lon="5.16027">
        <ele>575.4</ele>
        <time>2022-10-16T07:32:53Z</time>
      </trkpt>
      <trkpt lat="44.42011" lon="5.16029">
        <ele>575.2</ele>
        <time>2022-10-16T07:32:52Z</time>
      </trkpt>
      <trkpt lat="44.42011" lon="5.1603">
        <ele>575.1</ele>
        <time>2022-10-16T07:32:51Z</time>
      </trkpt>
      <trkpt lat="44.42011" lon="5.16032">
        <ele>574.8</ele>
        <time>2022-10-16T07:32:50Z</time>
      </trkpt>
      <trkpt lat="44.42012" lon="5.16033">
        <ele>574.8</ele>
        <time>2022-10-16T07:32:49Z</time>
      </trkpt>
      <trkpt lat="44.42012" lon="5.16034">
        <ele>574.7</ele>
        <time>2022-10-16T07:32:48Z</time>
      </trkpt>
      <trkpt lat="44.42012" lon="5.16035">
        <ele>574.6</ele>
        <time>2022-10-16T07:32:47Z</time>
      </trkpt>
      <trkpt lat="44.42013" lon="5.16037">
        <ele>574.5</ele>
        <time>2022-10-16T07:32:46Z</time>
      </trkpt>
      <trkpt lat="44.42013" lon="5.16038">
        <ele>574.3</ele>
        <time>2022-10-16T07:32:45Z</time>
      </trkpt>
      <trkpt lat="44.42014" lon="5.16039">
        <ele>574.4</ele>
        <time>2022-10-16T07:32:44Z</time>
      </trkpt>
      <trkpt lat="44.42015" lon="5.1604">
        <ele>574.5</ele>
        <time>2022-10-16T07:32:43Z</time>
      </trkpt>
      <trkpt lat="44.42016" lon="5.16041">
        <ele>574.6</ele>
        <time>2022-10-16T07:32:42Z</time>
      </trkpt>
      <trkpt lat="44.42017" lon="5.16042">
        <ele>574.6</ele>
        <time>2022-10-16T07:32:41Z</time>
      </trkpt>
      <trkpt lat="44.42017" lon="5.16043">
        <ele>574.5</ele>
        <time>2022-10-16T07:32:40Z</time>
      </trkpt>
      <trkpt lat="44.42018" lon="5.16044">
        <ele>574.6</ele>
        <time>2022-10-16T07:32:39Z</time>
      </trkpt>
      <trkpt lat="44.42019" lon="5.16045">
        <ele>574.6</ele>
        <time>2022-10-16T07:32:38Z</time>
      </trkpt>
      <trkpt lat="44.4202" lon="5.16046">
        <ele>574.7</ele>
        <time>2022-10-16T07:32:37Z</time>
      </trkpt>
      <trkpt lat="44.42021" lon="5.16047">
        <ele>574.8</ele>
        <time>2022-10-16T07:32:36Z</time>
      </trkpt>
      <trkpt lat="44.42022" lon="5.16048">
        <ele>574.8</ele>
        <time>2022-10-16T07:32:35Z</time>
      </trkpt>
      <trkpt lat="44.42023" lon="5.16049">
        <ele>574.9</ele>
        <time>2022-10-16T07:32:34Z</time>
      </trkpt>
      <trkpt lat="44.42024" lon="5.1605">
        <ele>575</ele>
        <time>2022-10-16T07:32:33Z</time>
      </trkpt>
      <trkpt lat="44.42025" lon="5.16052">
        <ele>574.9</ele>
        <time>2022-10-16T07:32:32Z</time>
      </trkpt>
      <trkpt lat="44.42026" lon="5.16053">
        <ele>575</ele>
        <time>2022-10-16T07:32:31Z</time>
      </trkpt>
      <trkpt lat="44.42027" lon="5.16054">
        <ele>575.1</ele>
        <time>2022-10-16T07:32:30Z</time>
      </trkpt>
      <trkpt lat="44.42029" lon="5.16055">
        <ele>575.3</ele>
        <time>2022-10-16T07:32:29Z</time>
      </trkpt>
      <trkpt lat="44.4203" lon="5.16056">
        <ele>575.4</ele>
        <time>2022-10-16T07:32:28Z</time>
      </trkpt>
      <trkpt lat="44.42031" lon="5.16057">
        <ele>575.4</ele>
        <time>2022-10-16T07:32:27Z</time>
      </trkpt>
      <trkpt lat="44.42032" lon="5.16058">
        <ele>575.5</ele>
        <time>2022-10-16T07:32:26Z</time>
      </trkpt>
      <trkpt lat="44.42033" lon="5.1606">
        <ele>575.5</ele>
        <time>2022-10-16T07:32:25Z</time>
      </trkpt>
      <trkpt lat="44.42034" lon="5.16061">
        <ele>575.5</ele>
        <time>2022-10-16T07:32:24Z</time>
      </trkpt>
      <trkpt lat="44.42035" lon="5.16062">
        <ele>575.6</ele>
        <time>2022-10-16T07:32:23Z</time>
      </trkpt>
      <trkpt lat="44.42036" lon="5.16063">
        <ele>575.7</ele>
        <time>2022-10-16T07:32:22Z</time>
      </trkpt>
      <trkpt lat="44.42037" lon="5.16064">
        <ele>575.7</ele>
        <time>2022-10-16T07:32:21Z</time>
      </trkpt>
      <trkpt lat="44.42038" lon="5.16065">
        <ele>575.8</ele>
        <time>2022-10-16T07:32:20Z</time>
      </trkpt>
      <trkpt lat="44.42039" lon="5.16066">
        <ele>575.9</ele>
        <time>2022-10-16T07:32:19Z</time>
      </trkpt>
      <trkpt lat="44.42039" lon="5.16068">
        <ele>575.7</ele>
        <time>2022-10-16T07:32:18Z</time>
      </trkpt>
      <trkpt lat="44.4204" lon="5.16069">
        <ele>575.7</ele>
        <time>2022-10-16T07:32:17Z</time>
      </trkpt>
      <trkpt lat="44.42041" lon="5.1607">
        <ele>575.8</ele>
        <time>2022-10-16T07:32:16Z</time>
      </trkpt>
      <trkpt lat="44.42041" lon="5.16072">
        <ele>575.6</ele>
        <time>2022-10-16T07:32:15Z</time>
      </trkpt>
      <trkpt lat="44.42042" lon="5.16073">
        <ele>575.7</ele>
        <time>2022-10-16T07:32:14Z</time>
      </trkpt>
      <trkpt lat="44.42042" lon="5.16074">
        <ele>575.6</ele>
        <time>2022-10-16T07:32:13Z</time>
      </trkpt>
      <trkpt lat="44.42043" lon="5.16075">
        <ele>575.6</ele>
        <time>2022-10-16T07:32:12Z</time>
      </trkpt>
      <trkpt lat="44.42044" lon="5.16076">
        <ele>575.7</ele>
        <time>2022-10-16T07:32:11Z</time>
      </trkpt>
      <trkpt lat="44.42044" lon="5.16078">
        <ele>575.5</ele>
        <time>2022-10-16T07:32:10Z</time>
      </trkpt>
      <trkpt lat="44.42045" lon="5.16079">
        <ele>575.6</ele>
        <time>2022-10-16T07:32:09Z</time>
      </trkpt>
      <trkpt lat="44.42045" lon="5.1608">
        <ele>575.5</ele>
        <time>2022-10-16T07:32:08Z</time>
      </trkpt>
      <trkpt lat="44.42046" lon="5.16081">
        <ele>575.5</ele>
        <time>2022-10-16T07:32:07Z</time>
      </trkpt>
      <trkpt lat="44.42047" lon="5.16082">
        <ele>575.6</ele>
        <time>2022-10-16T07:32:06Z</time>
      </trkpt>
      <trkpt lat="44.42047" lon="5.16083">
        <ele>575.5</ele>
        <time>2022-10-16T07:32:05Z</time>
      </trkpt>
      <trkpt lat="44.42048" lon="5.16084">
        <ele>575.5</ele>
        <time>2022-10-16T07:32:04Z</time>
      </trkpt>
      <trkpt lat="44.42049" lon="5.16085">
        <ele>575.6</ele>
        <time>2022-10-16T07:32:03Z</time>
      </trkpt>
      <trkpt lat="44.4205" lon="5.16086">
        <ele>575.6</ele>
        <time>2022-10-16T07:32:02Z</time>
      </trkpt>
      <trkpt lat="44.4205" lon="5.16087">
        <ele>575.5</ele>
        <time>2022-10-16T07:32:01Z</time>
      </trkpt>
      <trkpt lat="44.42051" lon="5.16088">
        <ele>575.5</ele>
        <time>2022-10-16T07:32:00Z</time>
      </trkpt>
      <trkpt lat="44.42052" lon="5.16089">
        <ele>575.5</ele>
        <time>2022-10-16T07:31:59Z</time>
      </trkpt>
      <trkpt lat="44.42053" lon="5.1609">
        <ele>575.6</ele>
        <time>2022-10-16T07:31:58Z</time>
      </trkpt>
      <trkpt lat="44.42053" lon="5.16091">
        <ele>575.4</ele>
        <time>2022-10-16T07:31:57Z</time>
      </trkpt>
      <trkpt lat="44.42054" lon="5.16093">
        <ele>575.3</ele>
        <time>2022-10-16T07:31:56Z</time>
      </trkpt>
      <trkpt lat="44.42055" lon="5.16094">
        <ele>575.4</ele>
        <time>2022-10-16T07:31:55Z</time>
      </trkpt>
      <trkpt lat="44.42056" lon="5.16095">
        <ele>575.4</ele>
        <time>2022-10-16T07:31:54Z</time>
      </trkpt>
      <trkpt lat="44.42057" lon="5.16096">
        <ele>575.4</ele>
        <time>2022-10-16T07:31:53Z</time>
      </trkpt>
      <trkpt lat="44.42058" lon="5.16097">
        <ele>575.4</ele>
        <time>2022-10-16T07:31:52Z</time>
      </trkpt>
      <trkpt lat="44.42059" lon="5.16098">
        <ele>575.4</ele>
        <time>2022-10-16T07:31:51Z</time>
      </trkpt>
      <trkpt lat="44.4206" lon="5.16099">
        <ele>575.4</ele>
        <time>2022-10-16T07:31:50Z</time>
      </trkpt>
      <trkpt lat="44.42061" lon="5.161">
        <ele>575.4</ele>
        <time>2022-10-16T07:31:49Z</time>
      </trkpt>
      <trkpt lat="44.42062" lon="5.16101">
        <ele>575.4</ele>
        <time>2022-10-16T07:31:48Z</time>
      </trkpt>
      <trkpt lat="44.42063" lon="5.16102">
        <ele>575.4</ele>
        <time>2022-10-16T07:31:47Z</time>
      </trkpt>
      <trkpt lat="44.42064" lon="5.16103">
        <ele>575.4</ele>
        <time>2022-10-16T07:31:46Z</time>
      </trkpt>
      <trkpt lat="44.42064" lon="5.16104">
        <ele>575.2</ele>
        <time>2022-10-16T07:31:45Z</time>
      </trkpt>
      <trkpt lat="44.42065" lon="5.16105">
        <ele>575.2</ele>
        <time>2022-10-16T07:31:44Z</time>
      </trkpt>
      <trkpt lat="44.42066" lon="5.16106">
        <ele>575.2</ele>
        <time>2022-10-16T07:31:43Z</time>
      </trkpt>
      <trkpt lat="44.42067" lon="5.16106">
        <ele>575.4</ele>
        <time>2022-10-16T07:31:42Z</time>
      </trkpt>
      <trkpt lat="44.42067" lon="5.16107">
        <ele>575.2</ele>
        <time>2022-10-16T07:31:41Z</time>
      </trkpt>
      <trkpt lat="44.42068" lon="5.16108">
        <ele>575.2</ele>
        <time>2022-10-16T07:31:40Z</time>
      </trkpt>
      <trkpt lat="44.42069" lon="5.16109">
        <ele>575.2</ele>
        <time>2022-10-16T07:31:39Z</time>
      </trkpt>
      <trkpt lat="44.4207" lon="5.1611">
        <ele>575.2</ele>
        <time>2022-10-16T07:31:38Z</time>
      </trkpt>
      <trkpt lat="44.42071" lon="5.16111">
        <ele>575.2</ele>
        <time>2022-10-16T07:31:37Z</time>
      </trkpt>
      <trkpt lat="44.42072" lon="5.16112">
        <ele>575.3</ele>
        <time>2022-10-16T07:31:36Z</time>
      </trkpt>
      <trkpt lat="44.42073" lon="5.16113">
        <ele>575.3</ele>
        <time>2022-10-16T07:31:35Z</time>
      </trkpt>
      <trkpt lat="44.42074" lon="5.16113">
        <ele>575.4</ele>
        <time>2022-10-16T07:31:34Z</time>
      </trkpt>
      <trkpt lat="44.42075" lon="5.16114">
        <ele>575.4</ele>
        <time>2022-10-16T07:31:33Z</time>
      </trkpt>
      <trkpt lat="44.42076" lon="5.16115">
        <ele>575.5</ele>
        <time>2022-10-16T07:31:32Z</time>
      </trkpt>
      <trkpt lat="44.42077" lon="5.16116">
        <ele>575.5</ele>
        <time>2022-10-16T07:31:31Z</time>
      </trkpt>
      <trkpt lat="44.42077" lon="5.16117">
        <ele>575.3</ele>
        <time>2022-10-16T07:31:30Z</time>
      </trkpt>
      <trkpt lat="44.42078" lon="5.16117">
        <ele>575.5</ele>
        <time>2022-10-16T07:31:29Z</time>
      </trkpt>
      <trkpt lat="44.42079" lon="5.16118">
        <ele>575.5</ele>
        <time>2022-10-16T07:31:27Z</time>
      </trkpt>
      <trkpt lat="44.4208" lon="5.16119">
        <ele>575.5</ele>
        <time>2022-10-16T07:31:26Z</time>
      </trkpt>
      <trkpt lat="44.42081" lon="5.16119">
        <ele>575.6</ele>
        <time>2022-10-16T07:31:25Z</time>
      </trkpt>
      <trkpt lat="44.42082" lon="5.1612">
        <ele>575.6</ele>
        <time>2022-10-16T07:31:24Z</time>
      </trkpt>
      <trkpt lat="44.42083" lon="5.16121">
        <ele>575.5</ele>
        <time>2022-10-16T07:31:23Z</time>
      </trkpt>
      <trkpt lat="44.42084" lon="5.16121">
        <ele>575.7</ele>
        <time>2022-10-16T07:31:22Z</time>
      </trkpt>
      <trkpt lat="44.42085" lon="5.16122">
        <ele>575.7</ele>
        <time>2022-10-16T07:31:21Z</time>
      </trkpt>
      <trkpt lat="44.42085" lon="5.16123">
        <ele>575.5</ele>
        <time>2022-10-16T07:31:20Z</time>
      </trkpt>
      <trkpt lat="44.42086" lon="5.16124">
        <ele>575.5</ele>
        <time>2022-10-16T07:31:19Z</time>
      </trkpt>
      <trkpt lat="44.42087" lon="5.16125">
        <ele>575.5</ele>
        <time>2022-10-16T07:31:18Z</time>
      </trkpt>
      <trkpt lat="44.42088" lon="5.16125">
        <ele>575.7</ele>
        <time>2022-10-16T07:31:17Z</time>
      </trkpt>
      <trkpt lat="44.42089" lon="5.16126">
        <ele>575.7</ele>
        <time>2022-10-16T07:31:16Z</time>
      </trkpt>
      <trkpt lat="44.4209" lon="5.16127">
        <ele>575.7</ele>
        <time>2022-10-16T07:31:15Z</time>
      </trkpt>
      <trkpt lat="44.42091" lon="5.16128">
        <ele>575.7</ele>
        <time>2022-10-16T07:31:14Z</time>
      </trkpt>
      <trkpt lat="44.42092" lon="5.16129">
        <ele>575.7</ele>
        <time>2022-10-16T07:31:13Z</time>
      </trkpt>
      <trkpt lat="44.42093" lon="5.1613">
        <ele>575.7</ele>
        <time>2022-10-16T07:31:12Z</time>
      </trkpt>
      <trkpt lat="44.42093" lon="5.16131">
        <ele>575.5</ele>
        <time>2022-10-16T07:31:11Z</time>
      </trkpt>
      <trkpt lat="44.42094" lon="5.16132">
        <ele>575.5</ele>
        <time>2022-10-16T07:31:10Z</time>
      </trkpt>
      <trkpt lat="44.42095" lon="5.16133">
        <ele>575.5</ele>
        <time>2022-10-16T07:31:09Z</time>
      </trkpt>
      <trkpt lat="44.42095" lon="5.16135">
        <ele>575.2</ele>
        <time>2022-10-16T07:31:08Z</time>
      </trkpt>
      <trkpt lat="44.42096" lon="5.16136">
        <ele>575.2</ele>
        <time>2022-10-16T07:31:07Z</time>
      </trkpt>
      <trkpt lat="44.42096" lon="5.16137">
        <ele>575.1</ele>
        <time>2022-10-16T07:31:06Z</time>
      </trkpt>
      <trkpt lat="44.42097" lon="5.16138">
        <ele>575.1</ele>
        <time>2022-10-16T07:31:05Z</time>
      </trkpt>
      <trkpt lat="44.42097" lon="5.16139">
        <ele>575</ele>
        <time>2022-10-16T07:31:04Z</time>
      </trkpt>
      <trkpt lat="44.42098" lon="5.16141">
        <ele>574.8</ele>
        <time>2022-10-16T07:31:03Z</time>
      </trkpt>
      <trkpt lat="44.42098" lon="5.16142">
        <ele>574.7</ele>
        <time>2022-10-16T07:31:02Z</time>
      </trkpt>
      <trkpt lat="44.42098" lon="5.16143">
        <ele>574.5</ele>
        <time>2022-10-16T07:31:01Z</time>
      </trkpt>
      <trkpt lat="44.42099" lon="5.16145">
        <ele>574.4</ele>
        <time>2022-10-16T07:31:00Z</time>
      </trkpt>
      <trkpt lat="44.42099" lon="5.16146">
        <ele>574.2</ele>
        <time>2022-10-16T07:30:59Z</time>
      </trkpt>
      <trkpt lat="44.42099" lon="5.16148">
        <ele>573.9</ele>
        <time>2022-10-16T07:30:58Z</time>
      </trkpt>
      <trkpt lat="44.42099" lon="5.16149">
        <ele>573.8</ele>
        <time>2022-10-16T07:30:57Z</time>
      </trkpt>
      <trkpt lat="44.421" lon="5.16151">
        <ele>573.7</ele>
        <time>2022-10-16T07:30:56Z</time>
      </trkpt>
      <trkpt lat="44.421" lon="5.16152">
        <ele>573.5</ele>
        <time>2022-10-16T07:30:55Z</time>
      </trkpt>
      <trkpt lat="44.421" lon="5.16154">
        <ele>573.2</ele>
        <time>2022-10-16T07:30:54Z</time>
      </trkpt>
      <trkpt lat="44.421" lon="5.16155">
        <ele>573.1</ele>
        <time>2022-10-16T07:30:53Z</time>
      </trkpt>
      <trkpt lat="44.421" lon="5.16156">
        <ele>572.9</ele>
        <time>2022-10-16T07:30:52Z</time>
      </trkpt>
      <trkpt lat="44.421" lon="5.16158">
        <ele>572.6</ele>
        <time>2022-10-16T07:30:51Z</time>
      </trkpt>
      <trkpt lat="44.42101" lon="5.16159">
        <ele>572.6</ele>
        <time>2022-10-16T07:30:50Z</time>
      </trkpt>
      <trkpt lat="44.42101" lon="5.16161">
        <ele>572.4</ele>
        <time>2022-10-16T07:30:49Z</time>
      </trkpt>
      <trkpt lat="44.42101" lon="5.16162">
        <ele>572.2</ele>
        <time>2022-10-16T07:30:48Z</time>
      </trkpt>
      <trkpt lat="44.42101" lon="5.16164">
        <ele>571.9</ele>
        <time>2022-10-16T07:30:47Z</time>
      </trkpt>
      <trkpt lat="44.42101" lon="5.16165">
        <ele>571.8</ele>
        <time>2022-10-16T07:30:46Z</time>
      </trkpt>
      <trkpt lat="44.42101" lon="5.16167">
        <ele>571.5</ele>
        <time>2022-10-16T07:30:45Z</time>
      </trkpt>
      <trkpt lat="44.42102" lon="5.16168">
        <ele>571.5</ele>
        <time>2022-10-16T07:30:44Z</time>
      </trkpt>
      <trkpt lat="44.42102" lon="5.16169">
        <ele>571.4</ele>
        <time>2022-10-16T07:30:43Z</time>
      </trkpt>
      <trkpt lat="44.42102" lon="5.16171">
        <ele>571.2</ele>
        <time>2022-10-16T07:30:42Z</time>
      </trkpt>
      <trkpt lat="44.42102" lon="5.16172">
        <ele>571.1</ele>
        <time>2022-10-16T07:30:41Z</time>
      </trkpt>
      <trkpt lat="44.42103" lon="5.16173">
        <ele>571.1</ele>
        <time>2022-10-16T07:30:40Z</time>
      </trkpt>
      <trkpt lat="44.42103" lon="5.16175">
        <ele>570.9</ele>
        <time>2022-10-16T07:30:39Z</time>
      </trkpt>
      <trkpt lat="44.42103" lon="5.16176">
        <ele>570.8</ele>
        <time>2022-10-16T07:30:38Z</time>
      </trkpt>
      <trkpt lat="44.42104" lon="5.16178">
        <ele>570.8</ele>
        <time>2022-10-16T07:30:37Z</time>
      </trkpt>
      <trkpt lat="44.42104" lon="5.16179">
        <ele>570.6</ele>
        <time>2022-10-16T07:30:36Z</time>
      </trkpt>
      <trkpt lat="44.42104" lon="5.16181">
        <ele>570.4</ele>
        <time>2022-10-16T07:30:35Z</time>
      </trkpt>
      <trkpt lat="44.42105" lon="5.16182">
        <ele>570.5</ele>
        <time>2022-10-16T07:30:34Z</time>
      </trkpt>
      <trkpt lat="44.42105" lon="5.16183">
        <ele>570.4</ele>
        <time>2022-10-16T07:30:33Z</time>
      </trkpt>
      <trkpt lat="44.42106" lon="5.16185">
        <ele>570.3</ele>
        <time>2022-10-16T07:30:32Z</time>
      </trkpt>
      <trkpt lat="44.42106" lon="5.16186">
        <ele>570.2</ele>
        <time>2022-10-16T07:30:31Z</time>
      </trkpt>
      <trkpt lat="44.42107" lon="5.16187">
        <ele>570.2</ele>
        <time>2022-10-16T07:30:30Z</time>
      </trkpt>
      <trkpt lat="44.42107" lon="5.16188">
        <ele>570.1</ele>
        <time>2022-10-16T07:30:29Z</time>
      </trkpt>
      <trkpt lat="44.42108" lon="5.1619">
        <ele>570</ele>
        <time>2022-10-16T07:30:28Z</time>
      </trkpt>
      <trkpt lat="44.42109" lon="5.16191">
        <ele>570.1</ele>
        <time>2022-10-16T07:30:27Z</time>
      </trkpt>
      <trkpt lat="44.42109" lon="5.16192">
        <ele>570</ele>
        <time>2022-10-16T07:30:26Z</time>
      </trkpt>
      <trkpt lat="44.4211" lon="5.16193">
        <ele>570</ele>
        <time>2022-10-16T07:30:25Z</time>
      </trkpt>
      <trkpt lat="44.4211" lon="5.16194">
        <ele>569.9</ele>
        <time>2022-10-16T07:30:24Z</time>
      </trkpt>
      <trkpt lat="44.42111" lon="5.16196">
        <ele>569.8</ele>
        <time>2022-10-16T07:30:23Z</time>
      </trkpt>
      <trkpt lat="44.42111" lon="5.16197">
        <ele>569.6</ele>
        <time>2022-10-16T07:30:22Z</time>
      </trkpt>
      <trkpt lat="44.42112" lon="5.16198">
        <ele>569.6</ele>
        <time>2022-10-16T07:30:21Z</time>
      </trkpt>
      <trkpt lat="44.42113" lon="5.16199">
        <ele>569.6</ele>
        <time>2022-10-16T07:30:20Z</time>
      </trkpt>
      <trkpt lat="44.42113" lon="5.162">
        <ele>569.4</ele>
        <time>2022-10-16T07:30:19Z</time>
      </trkpt>
      <trkpt lat="44.42114" lon="5.16202">
        <ele>569.3</ele>
        <time>2022-10-16T07:30:18Z</time>
      </trkpt>
      <trkpt lat="44.42114" lon="5.16203">
        <ele>569.1</ele>
        <time>2022-10-16T07:30:17Z</time>
      </trkpt>
      <trkpt lat="44.42115" lon="5.16204">
        <ele>569.1</ele>
        <time>2022-10-16T07:30:16Z</time>
      </trkpt>
      <trkpt lat="44.42116" lon="5.16205">
        <ele>569.1</ele>
        <time>2022-10-16T07:30:15Z</time>
      </trkpt>
      <trkpt lat="44.42116" lon="5.16207">
        <ele>568.8</ele>
        <time>2022-10-16T07:30:14Z</time>
      </trkpt>
      <trkpt lat="44.42117" lon="5.16208">
        <ele>568.8</ele>
        <time>2022-10-16T07:30:13Z</time>
      </trkpt>
      <trkpt lat="44.42117" lon="5.16209">
        <ele>568.7</ele>
        <time>2022-10-16T07:30:12Z</time>
      </trkpt>
      <trkpt lat="44.42118" lon="5.1621">
        <ele>568.6</ele>
        <time>2022-10-16T07:30:11Z</time>
      </trkpt>
      <trkpt lat="44.42118" lon="5.16211">
        <ele>568.5</ele>
        <time>2022-10-16T07:30:10Z</time>
      </trkpt>
      <trkpt lat="44.42118" lon="5.16212">
        <ele>568.4</ele>
        <time>2022-10-16T07:30:09Z</time>
      </trkpt>
      <trkpt lat="44.42119" lon="5.16212">
        <ele>568.5</ele>
        <time>2022-10-16T07:30:08Z</time>
      </trkpt>
      <trkpt lat="44.42119" lon="5.16213">
        <ele>568.4</ele>
        <time>2022-10-16T07:30:07Z</time>
      </trkpt>
      <trkpt lat="44.4212" lon="5.16214">
        <ele>568.4</ele>
        <time>2022-10-16T07:30:05Z</time>
      </trkpt>
      <trkpt lat="44.4212" lon="5.16215">
        <ele>568.2</ele>
        <time>2022-10-16T07:30:04Z</time>
      </trkpt>
      <trkpt lat="44.42121" lon="5.16216">
        <ele>568.2</ele>
        <time>2022-10-16T07:30:03Z</time>
      </trkpt>
      <trkpt lat="44.42122" lon="5.16217">
        <ele>568.2</ele>
        <time>2022-10-16T07:30:02Z</time>
      </trkpt>
      <trkpt lat="44.42122" lon="5.16218">
        <ele>568.1</ele>
        <time>2022-10-16T07:30:01Z</time>
      </trkpt>
      <trkpt lat="44.42123" lon="5.16219">
        <ele>568.1</ele>
        <time>2022-10-16T07:30:00Z</time>
      </trkpt>
      <trkpt lat="44.42124" lon="5.16221">
        <ele>568</ele>
        <time>2022-10-16T07:29:59Z</time>
      </trkpt>
      <trkpt lat="44.42124" lon="5.16222">
        <ele>567.9</ele>
        <time>2022-10-16T07:29:58Z</time>
      </trkpt>
      <trkpt lat="44.42125" lon="5.16223">
        <ele>567.9</ele>
        <time>2022-10-16T07:29:57Z</time>
      </trkpt>
      <trkpt lat="44.42125" lon="5.16224">
        <ele>567.7</ele>
        <time>2022-10-16T07:29:56Z</time>
      </trkpt>
      <trkpt lat="44.42126" lon="5.16225">
        <ele>567.6</ele>
        <time>2022-10-16T07:29:55Z</time>
      </trkpt>
      <trkpt lat="44.42126" lon="5.16226">
        <ele>567.5</ele>
        <time>2022-10-16T07:29:54Z</time>
      </trkpt>
      <trkpt lat="44.42127" lon="5.16228">
        <ele>567.2</ele>
        <time>2022-10-16T07:29:53Z</time>
      </trkpt>
      <trkpt lat="44.42127" lon="5.16229">
        <ele>567.1</ele>
        <time>2022-10-16T07:29:52Z</time>
      </trkpt>
      <trkpt lat="44.42128" lon="5.1623">
        <ele>567</ele>
        <time>2022-10-16T07:29:51Z</time>
      </trkpt>
      <trkpt lat="44.42128" lon="5.16231">
        <ele>566.9</ele>
        <time>2022-10-16T07:29:50Z</time>
      </trkpt>
      <trkpt lat="44.42129" lon="5.16233">
        <ele>566.6</ele>
        <time>2022-10-16T07:29:49Z</time>
      </trkpt>
      <trkpt lat="44.4213" lon="5.16234">
        <ele>566.6</ele>
        <time>2022-10-16T07:29:48Z</time>
      </trkpt>
      <trkpt lat="44.4213" lon="5.16235">
        <ele>566.4</ele>
        <time>2022-10-16T07:29:47Z</time>
      </trkpt>
      <trkpt lat="44.42131" lon="5.16236">
        <ele>566.4</ele>
        <time>2022-10-16T07:29:46Z</time>
      </trkpt>
      <trkpt lat="44.42131" lon="5.16237">
        <ele>566.2</ele>
        <time>2022-10-16T07:29:45Z</time>
      </trkpt>
      <trkpt lat="44.42132" lon="5.16238">
        <ele>566.2</ele>
        <time>2022-10-16T07:29:44Z</time>
      </trkpt>
      <trkpt lat="44.42132" lon="5.1624">
        <ele>565.8</ele>
        <time>2022-10-16T07:29:43Z</time>
      </trkpt>
      <trkpt lat="44.42133" lon="5.16241">
        <ele>565.8</ele>
        <time>2022-10-16T07:29:42Z</time>
      </trkpt>
      <trkpt lat="44.42134" lon="5.16242">
        <ele>565.7</ele>
        <time>2022-10-16T07:29:41Z</time>
      </trkpt>
      <trkpt lat="44.42134" lon="5.16244">
        <ele>565.4</ele>
        <time>2022-10-16T07:29:40Z</time>
      </trkpt>
      <trkpt lat="44.42135" lon="5.16245">
        <ele>565.3</ele>
        <time>2022-10-16T07:29:39Z</time>
      </trkpt>
      <trkpt lat="44.42135" lon="5.16247">
        <ele>565</ele>
        <time>2022-10-16T07:29:38Z</time>
      </trkpt>
      <trkpt lat="44.42136" lon="5.16248">
        <ele>564.9</ele>
        <time>2022-10-16T07:29:37Z</time>
      </trkpt>
      <trkpt lat="44.42136" lon="5.16249">
        <ele>564.8</ele>
        <time>2022-10-16T07:29:36Z</time>
      </trkpt>
      <trkpt lat="44.42136" lon="5.1625">
        <ele>564.6</ele>
        <time>2022-10-16T07:29:35Z</time>
      </trkpt>
      <trkpt lat="44.42137" lon="5.16252">
        <ele>564.5</ele>
        <time>2022-10-16T07:29:34Z</time>
      </trkpt>
      <trkpt lat="44.42138" lon="5.16253">
        <ele>564.5</ele>
        <time>2022-10-16T07:29:33Z</time>
      </trkpt>
      <trkpt lat="44.42138" lon="5.16255">
        <ele>564.3</ele>
        <time>2022-10-16T07:29:32Z</time>
      </trkpt>
      <trkpt lat="44.42139" lon="5.16256">
        <ele>564.4</ele>
        <time>2022-10-16T07:29:31Z</time>
      </trkpt>
      <trkpt lat="44.4214" lon="5.16257">
        <ele>564.3</ele>
        <time>2022-10-16T07:29:30Z</time>
      </trkpt>
      <trkpt lat="44.4214" lon="5.16259">
        <ele>564.1</ele>
        <time>2022-10-16T07:29:29Z</time>
      </trkpt>
      <trkpt lat="44.42141" lon="5.1626">
        <ele>564</ele>
        <time>2022-10-16T07:29:28Z</time>
      </trkpt>
      <trkpt lat="44.42142" lon="5.16261">
        <ele>564</ele>
        <time>2022-10-16T07:29:27Z</time>
      </trkpt>
      <trkpt lat="44.42142" lon="5.16262">
        <ele>563.9</ele>
        <time>2022-10-16T07:29:26Z</time>
      </trkpt>
      <trkpt lat="44.42143" lon="5.16263">
        <ele>563.8</ele>
        <time>2022-10-16T07:29:25Z</time>
      </trkpt>
      <trkpt lat="44.42143" lon="5.16265">
        <ele>563.6</ele>
        <time>2022-10-16T07:29:24Z</time>
      </trkpt>
      <trkpt lat="44.42144" lon="5.16266">
        <ele>563.6</ele>
        <time>2022-10-16T07:29:23Z</time>
      </trkpt>
      <trkpt lat="44.42144" lon="5.16267">
        <ele>563.5</ele>
        <time>2022-10-16T07:29:22Z</time>
      </trkpt>
      <trkpt lat="44.42145" lon="5.16269">
        <ele>563.3</ele>
        <time>2022-10-16T07:29:21Z</time>
      </trkpt>
      <trkpt lat="44.42146" lon="5.1627">
        <ele>563.3</ele>
        <time>2022-10-16T07:29:20Z</time>
      </trkpt>
      <trkpt lat="44.42147" lon="5.16271">
        <ele>563.2</ele>
        <time>2022-10-16T07:29:19Z</time>
      </trkpt>
      <trkpt lat="44.42148" lon="5.16273">
        <ele>563.1</ele>
        <time>2022-10-16T07:29:18Z</time>
      </trkpt>
      <trkpt lat="44.42149" lon="5.16274">
        <ele>563.1</ele>
        <time>2022-10-16T07:29:17Z</time>
      </trkpt>
      <trkpt lat="44.4215" lon="5.16275">
        <ele>563.1</ele>
        <time>2022-10-16T07:29:16Z</time>
      </trkpt>
      <trkpt lat="44.42151" lon="5.16277">
        <ele>562.9</ele>
        <time>2022-10-16T07:29:15Z</time>
      </trkpt>
      <trkpt lat="44.42151" lon="5.16278">
        <ele>562.8</ele>
        <time>2022-10-16T07:29:14Z</time>
      </trkpt>
      <trkpt lat="44.42152" lon="5.16279">
        <ele>562.8</ele>
        <time>2022-10-16T07:29:13Z</time>
      </trkpt>
      <trkpt lat="44.42153" lon="5.1628">
        <ele>562.7</ele>
        <time>2022-10-16T07:29:12Z</time>
      </trkpt>
      <trkpt lat="44.42154" lon="5.16281">
        <ele>562.6</ele>
        <time>2022-10-16T07:29:11Z</time>
      </trkpt>
      <trkpt lat="44.42155" lon="5.16282">
        <ele>562.6</ele>
        <time>2022-10-16T07:29:10Z</time>
      </trkpt>
      <trkpt lat="44.42155" lon="5.16283">
        <ele>562.4</ele>
        <time>2022-10-16T07:29:09Z</time>
      </trkpt>
      <trkpt lat="44.42156" lon="5.16284">
        <ele>562.3</ele>
        <time>2022-10-16T07:29:08Z</time>
      </trkpt>
      <trkpt lat="44.42157" lon="5.16285">
        <ele>562.3</ele>
        <time>2022-10-16T07:29:07Z</time>
      </trkpt>
      <trkpt lat="44.42158" lon="5.16285">
        <ele>562.3</ele>
        <time>2022-10-16T07:29:06Z</time>
      </trkpt>
      <trkpt lat="44.42159" lon="5.16286">
        <ele>562.3</ele>
        <time>2022-10-16T07:29:05Z</time>
      </trkpt>
      <trkpt lat="44.42161" lon="5.16287">
        <ele>562.3</ele>
        <time>2022-10-16T07:29:04Z</time>
      </trkpt>
      <trkpt lat="44.42162" lon="5.16288">
        <ele>562.2</ele>
        <time>2022-10-16T07:29:03Z</time>
      </trkpt>
      <trkpt lat="44.42163" lon="5.16289">
        <ele>562.1</ele>
        <time>2022-10-16T07:29:02Z</time>
      </trkpt>
      <trkpt lat="44.42164" lon="5.1629">
        <ele>562</ele>
        <time>2022-10-16T07:29:01Z</time>
      </trkpt>
      <trkpt lat="44.42165" lon="5.1629">
        <ele>562.1</ele>
        <time>2022-10-16T07:29:00Z</time>
      </trkpt>
      <trkpt lat="44.42166" lon="5.16291">
        <ele>562</ele>
        <time>2022-10-16T07:28:59Z</time>
      </trkpt>
      <trkpt lat="44.42167" lon="5.16291">
        <ele>562.1</ele>
        <time>2022-10-16T07:28:58Z</time>
      </trkpt>
      <trkpt lat="44.42168" lon="5.16292">
        <ele>562</ele>
        <time>2022-10-16T07:28:57Z</time>
      </trkpt>
      <trkpt lat="44.42168" lon="5.16293">
        <ele>561.8</ele>
        <time>2022-10-16T07:28:56Z</time>
      </trkpt>
      <trkpt lat="44.42169" lon="5.16293">
        <ele>561.8</ele>
        <time>2022-10-16T07:28:55Z</time>
      </trkpt>
      <trkpt lat="44.42171" lon="5.16294">
        <ele>561.7</ele>
        <time>2022-10-16T07:28:54Z</time>
      </trkpt>
      <trkpt lat="44.42172" lon="5.16295">
        <ele>561.6</ele>
        <time>2022-10-16T07:28:53Z</time>
      </trkpt>
      <trkpt lat="44.42173" lon="5.16295">
        <ele>561.6</ele>
        <time>2022-10-16T07:28:52Z</time>
      </trkpt>
      <trkpt lat="44.42174" lon="5.16296">
        <ele>561.5</ele>
        <time>2022-10-16T07:28:51Z</time>
      </trkpt>
      <trkpt lat="44.42175" lon="5.16296">
        <ele>561.5</ele>
        <time>2022-10-16T07:28:50Z</time>
      </trkpt>
      <trkpt lat="44.42176" lon="5.16297">
        <ele>561.3</ele>
        <time>2022-10-16T07:28:49Z</time>
      </trkpt>
      <trkpt lat="44.42177" lon="5.16297">
        <ele>561.3</ele>
        <time>2022-10-16T07:28:48Z</time>
      </trkpt>
      <trkpt lat="44.42178" lon="5.16297">
        <ele>561.4</ele>
        <time>2022-10-16T07:28:47Z</time>
      </trkpt>
      <trkpt lat="44.42179" lon="5.16298">
        <ele>561.2</ele>
        <time>2022-10-16T07:28:46Z</time>
      </trkpt>
      <trkpt lat="44.4218" lon="5.16298">
        <ele>561.2</ele>
        <time>2022-10-16T07:28:45Z</time>
      </trkpt>
      <trkpt lat="44.42181" lon="5.16299">
        <ele>561.1</ele>
        <time>2022-10-16T07:28:44Z</time>
      </trkpt>
      <trkpt lat="44.42182" lon="5.16299">
        <ele>561.1</ele>
        <time>2022-10-16T07:28:43Z</time>
      </trkpt>
      <trkpt lat="44.42184" lon="5.163">
        <ele>560.9</ele>
        <time>2022-10-16T07:28:42Z</time>
      </trkpt>
      <trkpt lat="44.42185" lon="5.163">
        <ele>560.9</ele>
        <time>2022-10-16T07:28:41Z</time>
      </trkpt>
      <trkpt lat="44.42186" lon="5.16301">
        <ele>560.8</ele>
        <time>2022-10-16T07:28:40Z</time>
      </trkpt>
      <trkpt lat="44.42187" lon="5.16302">
        <ele>560.6</ele>
        <time>2022-10-16T07:28:39Z</time>
      </trkpt>
      <trkpt lat="44.42188" lon="5.16303">
        <ele>560.4</ele>
        <time>2022-10-16T07:28:38Z</time>
      </trkpt>
      <trkpt lat="44.4219" lon="5.16303">
        <ele>560.4</ele>
        <time>2022-10-16T07:28:37Z</time>
      </trkpt>
      <trkpt lat="44.4219" lon="5.16304">
        <ele>560.3</ele>
        <time>2022-10-16T07:28:36Z</time>
      </trkpt>
      <trkpt lat="44.42191" lon="5.16305">
        <ele>560.1</ele>
        <time>2022-10-16T07:28:35Z</time>
      </trkpt>
      <trkpt lat="44.42192" lon="5.16306">
        <ele>559.9</ele>
        <time>2022-10-16T07:28:34Z</time>
      </trkpt>
      <trkpt lat="44.42193" lon="5.16307">
        <ele>559.7</ele>
        <time>2022-10-16T07:28:33Z</time>
      </trkpt>
      <trkpt lat="44.42193" lon="5.16308">
        <ele>559.5</ele>
        <time>2022-10-16T07:28:32Z</time>
      </trkpt>
      <trkpt lat="44.42194" lon="5.16308">
        <ele>559.5</ele>
        <time>2022-10-16T07:28:30Z</time>
      </trkpt>
      <trkpt lat="44.42195" lon="5.16309">
        <ele>559.3</ele>
        <time>2022-10-16T07:28:29Z</time>
      </trkpt>
      <trkpt lat="44.42196" lon="5.1631">
        <ele>559</ele>
        <time>2022-10-16T07:27:44Z</time>
      </trkpt>
      <trkpt lat="44.42197" lon="5.16311">
        <ele>558.8</ele>
        <time>2022-10-16T07:27:43Z</time>
      </trkpt>
      <trkpt lat="44.42197" lon="5.16312">
        <ele>558.6</ele>
        <time>2022-10-16T07:27:36Z</time>
      </trkpt>
      <trkpt lat="44.42198" lon="5.16312">
        <ele>558.6</ele>
        <time>2022-10-16T07:27:35Z</time>
      </trkpt>
      <trkpt lat="44.42199" lon="5.16313">
        <ele>558.4</ele>
        <time>2022-10-16T07:27:33Z</time>
      </trkpt>
      <trkpt lat="44.422" lon="5.16314">
        <ele>558.2</ele>
        <time>2022-10-16T07:27:31Z</time>
      </trkpt>
      <trkpt lat="44.42201" lon="5.16315">
        <ele>558</ele>
        <time>2022-10-16T07:27:29Z</time>
      </trkpt>
      <trkpt lat="44.42202" lon="5.16315">
        <ele>558.1</ele>
        <time>2022-10-16T07:27:28Z</time>
      </trkpt>
      <trkpt lat="44.42203" lon="5.16315">
        <ele>558.1</ele>
        <time>2022-10-16T07:27:21Z</time>
      </trkpt>
      <trkpt lat="44.42204" lon="5.16315">
        <ele>558.1</ele>
        <time>2022-10-16T07:27:20Z</time>
      </trkpt>
      <trkpt lat="44.42205" lon="5.16316">
        <ele>557.9</ele>
        <time>2022-10-16T07:27:18Z</time>
      </trkpt>
      <trkpt lat="44.42206" lon="5.16317">
        <ele>557.7</ele>
        <time>2022-10-16T07:27:17Z</time>
      </trkpt>
      <trkpt lat="44.42207" lon="5.16317">
        <ele>557.7</ele>
        <time>2022-10-16T07:27:16Z</time>
      </trkpt>
      <trkpt lat="44.42208" lon="5.16318">
        <ele>557.5</ele>
        <time>2022-10-16T07:27:15Z</time>
      </trkpt>
      <trkpt lat="44.42209" lon="5.16319">
        <ele>557.3</ele>
        <time>2022-10-16T07:27:14Z</time>
      </trkpt>
      <trkpt lat="44.4221" lon="5.16319">
        <ele>557.4</ele>
        <time>2022-10-16T07:27:13Z</time>
      </trkpt>
      <trkpt lat="44.42211" lon="5.1632">
        <ele>557.2</ele>
        <time>2022-10-16T07:27:12Z</time>
      </trkpt>
      <trkpt lat="44.42212" lon="5.1632">
        <ele>557.2</ele>
        <time>2022-10-16T07:27:11Z</time>
      </trkpt>
      <trkpt lat="44.42213" lon="5.1632">
        <ele>557.2</ele>
        <time>2022-10-16T07:27:10Z</time>
      </trkpt>
      <trkpt lat="44.42214" lon="5.16321">
        <ele>557.1</ele>
        <time>2022-10-16T07:27:08Z</time>
      </trkpt>
      <trkpt lat="44.42215" lon="5.16321">
        <ele>557.1</ele>
        <time>2022-10-16T07:27:05Z</time>
      </trkpt>
      <trkpt lat="44.42216" lon="5.16321">
        <ele>557.1</ele>
        <time>2022-10-16T07:27:04Z</time>
      </trkpt>
      <trkpt lat="44.42217" lon="5.16322">
        <ele>556.9</ele>
        <time>2022-10-16T07:27:03Z</time>
      </trkpt>
      <trkpt lat="44.42218" lon="5.16322">
        <ele>557</ele>
        <time>2022-10-16T07:27:02Z</time>
      </trkpt>
      <trkpt lat="44.42219" lon="5.16323">
        <ele>556.8</ele>
        <time>2022-10-16T07:27:01Z</time>
      </trkpt>
      <trkpt lat="44.4222" lon="5.16323">
        <ele>556.8</ele>
        <time>2022-10-16T07:27:00Z</time>
      </trkpt>
      <trkpt lat="44.42221" lon="5.16323">
        <ele>556.8</ele>
        <time>2022-10-16T07:26:59Z</time>
      </trkpt>
      <trkpt lat="44.42222" lon="5.16324">
        <ele>556.7</ele>
        <time>2022-10-16T07:26:58Z</time>
      </trkpt>
      <trkpt lat="44.42223" lon="5.16324">
        <ele>556.6</ele>
        <time>2022-10-16T07:26:57Z</time>
      </trkpt>
      <trkpt lat="44.42224" lon="5.16324">
        <ele>556.6</ele>
        <time>2022-10-16T07:26:56Z</time>
      </trkpt>
      <trkpt lat="44.42225" lon="5.16325">
        <ele>556.4</ele>
        <time>2022-10-16T07:26:55Z</time>
      </trkpt>
      <trkpt lat="44.42227" lon="5.16325">
        <ele>556.3</ele>
        <time>2022-10-16T07:26:54Z</time>
      </trkpt>
      <trkpt lat="44.42228" lon="5.16325">
        <ele>556.2</ele>
        <time>2022-10-16T07:26:53Z</time>
      </trkpt>
      <trkpt lat="44.42229" lon="5.16326">
        <ele>556</ele>
        <time>2022-10-16T07:26:52Z</time>
      </trkpt>
      <trkpt lat="44.4223" lon="5.16326">
        <ele>556</ele>
        <time>2022-10-16T07:26:51Z</time>
      </trkpt>
      <trkpt lat="44.42231" lon="5.16326">
        <ele>555.9</ele>
        <time>2022-10-16T07:26:50Z</time>
      </trkpt>
      <trkpt lat="44.42232" lon="5.16326">
        <ele>555.9</ele>
        <time>2022-10-16T07:26:49Z</time>
      </trkpt>
      <trkpt lat="44.42233" lon="5.16326">
        <ele>555.8</ele>
        <time>2022-10-16T07:26:48Z</time>
      </trkpt>
      <trkpt lat="44.42234" lon="5.16326">
        <ele>555.8</ele>
        <time>2022-10-16T07:26:47Z</time>
      </trkpt>
      <trkpt lat="44.42236" lon="5.16326">
        <ele>555.7</ele>
        <time>2022-10-16T07:26:46Z</time>
      </trkpt>
      <trkpt lat="44.42237" lon="5.16326">
        <ele>555.6</ele>
        <time>2022-10-16T07:26:45Z</time>
      </trkpt>
      <trkpt lat="44.42238" lon="5.16326">
        <ele>555.6</ele>
        <time>2022-10-16T07:26:44Z</time>
      </trkpt>
      <trkpt lat="44.42239" lon="5.16327">
        <ele>555.4</ele>
        <time>2022-10-16T07:26:43Z</time>
      </trkpt>
      <trkpt lat="44.4224" lon="5.16327">
        <ele>555.4</ele>
        <time>2022-10-16T07:26:42Z</time>
      </trkpt>
      <trkpt lat="44.42241" lon="5.16327">
        <ele>555.3</ele>
        <time>2022-10-16T07:26:41Z</time>
      </trkpt>
      <trkpt lat="44.42242" lon="5.16327">
        <ele>555.3</ele>
        <time>2022-10-16T07:26:40Z</time>
      </trkpt>
      <trkpt lat="44.42244" lon="5.16327">
        <ele>555.2</ele>
        <time>2022-10-16T07:26:39Z</time>
      </trkpt>
      <trkpt lat="44.42245" lon="5.16327">
        <ele>555.1</ele>
        <time>2022-10-16T07:26:38Z</time>
      </trkpt>
      <trkpt lat="44.42246" lon="5.16327">
        <ele>555.1</ele>
        <time>2022-10-16T07:26:37Z</time>
      </trkpt>
      <trkpt lat="44.42247" lon="5.16327">
        <ele>555</ele>
        <time>2022-10-16T07:26:36Z</time>
      </trkpt>
      <trkpt lat="44.42248" lon="5.16327">
        <ele>555</ele>
        <time>2022-10-16T07:26:35Z</time>
      </trkpt>
      <trkpt lat="44.42249" lon="5.16327">
        <ele>555</ele>
        <time>2022-10-16T07:26:34Z</time>
      </trkpt>
      <trkpt lat="44.4225" lon="5.16327">
        <ele>554.9</ele>
        <time>2022-10-16T07:26:33Z</time>
      </trkpt>
      <trkpt lat="44.42252" lon="5.16327">
        <ele>555</ele>
        <time>2022-10-16T07:26:32Z</time>
      </trkpt>
      <trkpt lat="44.42253" lon="5.16327">
        <ele>555</ele>
        <time>2022-10-16T07:26:31Z</time>
      </trkpt>
      <trkpt lat="44.42254" lon="5.16327">
        <ele>555</ele>
        <time>2022-10-16T07:26:30Z</time>
      </trkpt>
      <trkpt lat="44.42255" lon="5.16327">
        <ele>555.1</ele>
        <time>2022-10-16T07:26:29Z</time>
      </trkpt>
      <trkpt lat="44.42256" lon="5.16327">
        <ele>555.1</ele>
        <time>2022-10-16T07:26:28Z</time>
      </trkpt>
      <trkpt lat="44.42257" lon="5.16327">
        <ele>555.1</ele>
        <time>2022-10-16T07:26:27Z</time>
      </trkpt>
      <trkpt lat="44.42259" lon="5.16328">
        <ele>555</ele>
        <time>2022-10-16T07:26:26Z</time>
      </trkpt>
      <trkpt lat="44.4226" lon="5.16328">
        <ele>555.1</ele>
        <time>2022-10-16T07:26:25Z</time>
      </trkpt>
      <trkpt lat="44.42261" lon="5.16328">
        <ele>555.1</ele>
        <time>2022-10-16T07:26:24Z</time>
      </trkpt>
      <trkpt lat="44.42262" lon="5.16328">
        <ele>555.1</ele>
        <time>2022-10-16T07:26:23Z</time>
      </trkpt>
      <trkpt lat="44.42263" lon="5.16328">
        <ele>555.1</ele>
        <time>2022-10-16T07:26:22Z</time>
      </trkpt>
      <trkpt lat="44.42264" lon="5.16328">
        <ele>555.2</ele>
        <time>2022-10-16T07:26:21Z</time>
      </trkpt>
      <trkpt lat="44.42265" lon="5.16329">
        <ele>555.1</ele>
        <time>2022-10-16T07:26:20Z</time>
      </trkpt>
      <trkpt lat="44.42266" lon="5.16329">
        <ele>555.1</ele>
        <time>2022-10-16T07:26:19Z</time>
      </trkpt>
      <trkpt lat="44.42267" lon="5.16329">
        <ele>555.1</ele>
        <time>2022-10-16T07:26:18Z</time>
      </trkpt>
      <trkpt lat="44.42268" lon="5.1633">
        <ele>555.1</ele>
        <time>2022-10-16T07:26:17Z</time>
      </trkpt>
      <trkpt lat="44.42269" lon="5.1633">
        <ele>555.1</ele>
        <time>2022-10-16T07:26:16Z</time>
      </trkpt>
      <trkpt lat="44.4227" lon="5.1633">
        <ele>555.1</ele>
        <time>2022-10-16T07:26:15Z</time>
      </trkpt>
      <trkpt lat="44.42271" lon="5.16331">
        <ele>555</ele>
        <time>2022-10-16T07:26:14Z</time>
      </trkpt>
      <trkpt lat="44.42272" lon="5.16331">
        <ele>555.1</ele>
        <time>2022-10-16T07:26:13Z</time>
      </trkpt>
      <trkpt lat="44.42272" lon="5.16332">
        <ele>554.9</ele>
        <time>2022-10-16T07:26:12Z</time>
      </trkpt>
      <trkpt lat="44.42274" lon="5.16334">
        <ele>554.8</ele>
        <time>2022-10-16T07:26:02Z</time>
      </trkpt>
      <trkpt lat="44.42274" lon="5.16335">
        <ele>554.6</ele>
        <time>2022-10-16T07:26:01Z</time>
      </trkpt>
      <trkpt lat="44.42275" lon="5.16335">
        <ele>554.7</ele>
        <time>2022-10-16T07:26:00Z</time>
      </trkpt>
      <trkpt lat="44.42276" lon="5.16336">
        <ele>554.5</ele>
        <time>2022-10-16T07:25:59Z</time>
      </trkpt>
      <trkpt lat="44.42277" lon="5.16337">
        <ele>554.4</ele>
        <time>2022-10-16T07:25:58Z</time>
      </trkpt>
      <trkpt lat="44.42277" lon="5.16338">
        <ele>554.3</ele>
        <time>2022-10-16T07:25:57Z</time>
      </trkpt>
      <trkpt lat="44.42278" lon="5.16339">
        <ele>554.2</ele>
        <time>2022-10-16T07:25:56Z</time>
      </trkpt>
      <trkpt lat="44.42279" lon="5.16341">
        <ele>553.9</ele>
        <time>2022-10-16T07:25:55Z</time>
      </trkpt>
      <trkpt lat="44.42279" lon="5.16342">
        <ele>553.8</ele>
        <time>2022-10-16T07:25:54Z</time>
      </trkpt>
      <trkpt lat="44.4228" lon="5.16343">
        <ele>553.6</ele>
        <time>2022-10-16T07:25:53Z</time>
      </trkpt>
      <trkpt lat="44.42281" lon="5.16344">
        <ele>553.5</ele>
        <time>2022-10-16T07:25:52Z</time>
      </trkpt>
      <trkpt lat="44.42282" lon="5.16345">
        <ele>553.3</ele>
        <time>2022-10-16T07:25:51Z</time>
      </trkpt>
      <trkpt lat="44.42282" lon="5.16347">
        <ele>553</ele>
        <time>2022-10-16T07:25:50Z</time>
      </trkpt>
      <trkpt lat="44.42283" lon="5.16348">
        <ele>552.9</ele>
        <time>2022-10-16T07:25:49Z</time>
      </trkpt>
      <trkpt lat="44.42284" lon="5.16349">
        <ele>552.7</ele>
        <time>2022-10-16T07:25:48Z</time>
      </trkpt>
      <trkpt lat="44.42284" lon="5.1635">
        <ele>552.6</ele>
        <time>2022-10-16T07:25:47Z</time>
      </trkpt>
      <trkpt lat="44.42285" lon="5.16351">
        <ele>552.4</ele>
        <time>2022-10-16T07:25:46Z</time>
      </trkpt>
      <trkpt lat="44.42286" lon="5.16352">
        <ele>552.2</ele>
        <time>2022-10-16T07:25:45Z</time>
      </trkpt>
      <trkpt lat="44.42287" lon="5.16354">
        <ele>551.9</ele>
        <time>2022-10-16T07:25:44Z</time>
      </trkpt>
      <trkpt lat="44.42288" lon="5.16355">
        <ele>551.7</ele>
        <time>2022-10-16T07:25:43Z</time>
      </trkpt>
      <trkpt lat="44.42289" lon="5.16356">
        <ele>551.5</ele>
        <time>2022-10-16T07:25:42Z</time>
      </trkpt>
      <trkpt lat="44.4229" lon="5.16356">
        <ele>551.5</ele>
        <time>2022-10-16T07:25:41Z</time>
      </trkpt>
      <trkpt lat="44.42291" lon="5.16357">
        <ele>551.3</ele>
        <time>2022-10-16T07:25:40Z</time>
      </trkpt>
      <trkpt lat="44.42292" lon="5.16357">
        <ele>551.2</ele>
        <time>2022-10-16T07:25:39Z</time>
      </trkpt>
      <trkpt lat="44.42293" lon="5.16358">
        <ele>551</ele>
        <time>2022-10-16T07:25:38Z</time>
      </trkpt>
      <trkpt lat="44.42294" lon="5.16358">
        <ele>551</ele>
        <time>2022-10-16T07:25:37Z</time>
      </trkpt>
      <trkpt lat="44.42295" lon="5.16358">
        <ele>551</ele>
        <time>2022-10-16T07:25:36Z</time>
      </trkpt>
      <trkpt lat="44.42296" lon="5.16358">
        <ele>550.9</ele>
        <time>2022-10-16T07:25:35Z</time>
      </trkpt>
      <trkpt lat="44.42297" lon="5.16358">
        <ele>550.9</ele>
        <time>2022-10-16T07:25:34Z</time>
      </trkpt>
      <trkpt lat="44.42298" lon="5.16358">
        <ele>550.9</ele>
        <time>2022-10-16T07:25:33Z</time>
      </trkpt>
      <trkpt lat="44.42299" lon="5.16358">
        <ele>550.9</ele>
        <time>2022-10-16T07:25:32Z</time>
      </trkpt>
      <trkpt lat="44.423" lon="5.16358">
        <ele>550.8</ele>
        <time>2022-10-16T07:25:31Z</time>
      </trkpt>
      <trkpt lat="44.42301" lon="5.16358">
        <ele>550.8</ele>
        <time>2022-10-16T07:25:30Z</time>
      </trkpt>
      <trkpt lat="44.42302" lon="5.16358">
        <ele>550.8</ele>
        <time>2022-10-16T07:25:29Z</time>
      </trkpt>
      <trkpt lat="44.42304" lon="5.16358">
        <ele>550.7</ele>
        <time>2022-10-16T07:25:27Z</time>
      </trkpt>
      <trkpt lat="44.42305" lon="5.16358">
        <ele>550.7</ele>
        <time>2022-10-16T07:25:26Z</time>
      </trkpt>
      <trkpt lat="44.42306" lon="5.16357">
        <ele>550.9</ele>
        <time>2022-10-16T07:25:25Z</time>
      </trkpt>
      <trkpt lat="44.42307" lon="5.16357">
        <ele>550.8</ele>
        <time>2022-10-16T07:25:24Z</time>
      </trkpt>
      <trkpt lat="44.42308" lon="5.16356">
        <ele>551</ele>
        <time>2022-10-16T07:25:22Z</time>
      </trkpt>
      <trkpt lat="44.42309" lon="5.16355">
        <ele>551.2</ele>
        <time>2022-10-16T07:25:21Z</time>
      </trkpt>
      <trkpt lat="44.4231" lon="5.16355">
        <ele>551.1</ele>
        <time>2022-10-16T07:25:20Z</time>
      </trkpt>
      <trkpt lat="44.42311" lon="5.16355">
        <ele>551.1</ele>
        <time>2022-10-16T07:25:19Z</time>
      </trkpt>
      <trkpt lat="44.42312" lon="5.16354">
        <ele>551.2</ele>
        <time>2022-10-16T07:25:18Z</time>
      </trkpt>
      <trkpt lat="44.42313" lon="5.16354">
        <ele>551.2</ele>
        <time>2022-10-16T07:25:16Z</time>
      </trkpt>
      <trkpt lat="44.42314" lon="5.16353">
        <ele>551.4</ele>
        <time>2022-10-16T07:25:15Z</time>
      </trkpt>
      <trkpt lat="44.42315" lon="5.16353">
        <ele>551.3</ele>
        <time>2022-10-16T07:25:14Z</time>
      </trkpt>
      <trkpt lat="44.42316" lon="5.16353">
        <ele>551.3</ele>
        <time>2022-10-16T07:25:13Z</time>
      </trkpt>
      <trkpt lat="44.42317" lon="5.16352">
        <ele>551.4</ele>
        <time>2022-10-16T07:25:12Z</time>
      </trkpt>
      <trkpt lat="44.42318" lon="5.16351">
        <ele>551.6</ele>
        <time>2022-10-16T07:25:11Z</time>
      </trkpt>
      <trkpt lat="44.42319" lon="5.16351">
        <ele>551.5</ele>
        <time>2022-10-16T07:25:10Z</time>
      </trkpt>
      <trkpt lat="44.4232" lon="5.1635">
        <ele>551.7</ele>
        <time>2022-10-16T07:25:09Z</time>
      </trkpt>
      <trkpt lat="44.4232" lon="5.16349">
        <ele>551.9</ele>
        <time>2022-10-16T07:25:08Z</time>
      </trkpt>
      <trkpt lat="44.42321" lon="5.16349">
        <ele>551.8</ele>
        <time>2022-10-16T07:25:07Z</time>
      </trkpt>
      <trkpt lat="44.42321" lon="5.16348">
        <ele>552</ele>
        <time>2022-10-16T07:25:05Z</time>
      </trkpt>
      <trkpt lat="44.42322" lon="5.16347">
        <ele>552.2</ele>
        <time>2022-10-16T07:25:04Z</time>
      </trkpt>
      <trkpt lat="44.42323" lon="5.16347">
        <ele>552.1</ele>
        <time>2022-10-16T07:25:03Z</time>
      </trkpt>
      <trkpt lat="44.42324" lon="5.16346">
        <ele>552.2</ele>
        <time>2022-10-16T07:25:02Z</time>
      </trkpt>
      <trkpt lat="44.42325" lon="5.16345">
        <ele>552.4</ele>
        <time>2022-10-16T07:25:01Z</time>
      </trkpt>
      <trkpt lat="44.42325" lon="5.16344">
        <ele>552.6</ele>
        <time>2022-10-16T07:25:00Z</time>
      </trkpt>
      <trkpt lat="44.42326" lon="5.16344">
        <ele>552.5</ele>
        <time>2022-10-16T07:24:59Z</time>
      </trkpt>
      <trkpt lat="44.42327" lon="5.16343">
        <ele>552.6</ele>
        <time>2022-10-16T07:24:58Z</time>
      </trkpt>
      <trkpt lat="44.42328" lon="5.16342">
        <ele>552.8</ele>
        <time>2022-10-16T07:24:57Z</time>
      </trkpt>
      <trkpt lat="44.42329" lon="5.16342">
        <ele>552.7</ele>
        <time>2022-10-16T07:24:56Z</time>
      </trkpt>
      <trkpt lat="44.4233" lon="5.16342">
        <ele>552.6</ele>
        <time>2022-10-16T07:24:55Z</time>
      </trkpt>
      <trkpt lat="44.42331" lon="5.16341">
        <ele>552.8</ele>
        <time>2022-10-16T07:24:53Z</time>
      </trkpt>
      <trkpt lat="44.42332" lon="5.16341">
        <ele>552.7</ele>
        <time>2022-10-16T07:24:52Z</time>
      </trkpt>
      <trkpt lat="44.42333" lon="5.16341">
        <ele>552.6</ele>
        <time>2022-10-16T07:24:51Z</time>
      </trkpt>
      <trkpt lat="44.42334" lon="5.16341">
        <ele>552.7</ele>
        <time>2022-10-16T07:24:50Z</time>
      </trkpt>
      <trkpt lat="44.42335" lon="5.16341">
        <ele>552.9</ele>
        <time>2022-10-16T07:24:48Z</time>
      </trkpt>
      <trkpt lat="44.42336" lon="5.16341">
        <ele>553.1</ele>
        <time>2022-10-16T07:24:47Z</time>
      </trkpt>
      <trkpt lat="44.42337" lon="5.16342">
        <ele>553.1</ele>
        <time>2022-10-16T07:24:46Z</time>
      </trkpt>
      <trkpt lat="44.42338" lon="5.16342">
        <ele>553.3</ele>
        <time>2022-10-16T07:24:45Z</time>
      </trkpt>
      <trkpt lat="44.42338" lon="5.16343">
        <ele>553.1</ele>
        <time>2022-10-16T07:24:44Z</time>
      </trkpt>
      <trkpt lat="44.42339" lon="5.16344">
        <ele>553.2</ele>
        <time>2022-10-16T07:24:43Z</time>
      </trkpt>
      <trkpt lat="44.42339" lon="5.16345">
        <ele>553</ele>
        <time>2022-10-16T07:24:42Z</time>
      </trkpt>
      <trkpt lat="44.42339" lon="5.16346">
        <ele>552.9</ele>
        <time>2022-10-16T07:24:41Z</time>
      </trkpt>
      <trkpt lat="44.4234" lon="5.16346">
        <ele>553.1</ele>
        <time>2022-10-16T07:24:40Z</time>
      </trkpt>
      <trkpt lat="44.4234" lon="5.16347">
        <ele>553</ele>
        <time>2022-10-16T07:24:38Z</time>
      </trkpt>
      <trkpt lat="44.42341" lon="5.16348">
        <ele>553.1</ele>
        <time>2022-10-16T07:24:34Z</time>
      </trkpt>
      <trkpt lat="44.42341" lon="5.16349">
        <ele>552.9</ele>
        <time>2022-10-16T07:24:33Z</time>
      </trkpt>
      <trkpt lat="44.42342" lon="5.1635">
        <ele>553.1</ele>
        <time>2022-10-16T07:24:32Z</time>
      </trkpt>
      <trkpt lat="44.42342" lon="5.16352">
        <ele>552.8</ele>
        <time>2022-10-16T07:24:31Z</time>
      </trkpt>
      <trkpt lat="44.42342" lon="5.16353">
        <ele>552.7</ele>
        <time>2022-10-16T07:24:30Z</time>
      </trkpt>
      <trkpt lat="44.42343" lon="5.16354">
        <ele>552.9</ele>
        <time>2022-10-16T07:24:29Z</time>
      </trkpt>
      <trkpt lat="44.42343" lon="5.16355">
        <ele>552.8</ele>
        <time>2022-10-16T07:24:28Z</time>
      </trkpt>
      <trkpt lat="44.42343" lon="5.16357">
        <ele>552.6</ele>
        <time>2022-10-16T07:24:27Z</time>
      </trkpt>
      <trkpt lat="44.42343" lon="5.16358">
        <ele>552.5</ele>
        <time>2022-10-16T07:24:26Z</time>
      </trkpt>
      <trkpt lat="44.42343" lon="5.16359">
        <ele>552.4</ele>
        <time>2022-10-16T07:24:25Z</time>
      </trkpt>
      <trkpt lat="44.42343" lon="5.16361">
        <ele>552.1</ele>
        <time>2022-10-16T07:24:24Z</time>
      </trkpt>
      <trkpt lat="44.42344" lon="5.16362">
        <ele>552.4</ele>
        <time>2022-10-16T07:24:23Z</time>
      </trkpt>
      <trkpt lat="44.42344" lon="5.16363">
        <ele>552.4</ele>
        <time>2022-10-16T07:24:22Z</time>
      </trkpt>
      <trkpt lat="44.42344" lon="5.16365">
        <ele>552.4</ele>
        <time>2022-10-16T07:24:21Z</time>
      </trkpt>
      <trkpt lat="44.42344" lon="5.16366">
        <ele>552.4</ele>
        <time>2022-10-16T07:24:20Z</time>
      </trkpt>
      <trkpt lat="44.42344" lon="5.16368">
        <ele>552.4</ele>
        <time>2022-10-16T07:24:19Z</time>
      </trkpt>
      <trkpt lat="44.42344" lon="5.16369">
        <ele>552.4</ele>
        <time>2022-10-16T07:24:18Z</time>
      </trkpt>
      <trkpt lat="44.42344" lon="5.1637">
        <ele>552.4</ele>
        <time>2022-10-16T07:24:17Z</time>
      </trkpt>
      <trkpt lat="44.42344" lon="5.16372">
        <ele>552.4</ele>
        <time>2022-10-16T07:24:16Z</time>
      </trkpt>
      <trkpt lat="44.42344" lon="5.16373">
        <ele>552.4</ele>
        <time>2022-10-16T07:24:15Z</time>
      </trkpt>
      <trkpt lat="44.42344" lon="5.16375">
        <ele>552.3</ele>
        <time>2022-10-16T07:24:14Z</time>
      </trkpt>
      <trkpt lat="44.42344" lon="5.16377">
        <ele>552.3</ele>
        <time>2022-10-16T07:24:13Z</time>
      </trkpt>
      <trkpt lat="44.42344" lon="5.16378">
        <ele>552.3</ele>
        <time>2022-10-16T07:24:12Z</time>
      </trkpt>
      <trkpt lat="44.42344" lon="5.1638">
        <ele>552.3</ele>
        <time>2022-10-16T07:24:11Z</time>
      </trkpt>
      <trkpt lat="44.42344" lon="5.16381">
        <ele>552.3</ele>
        <time>2022-10-16T07:24:10Z</time>
      </trkpt>
      <trkpt lat="44.42344" lon="5.16382">
        <ele>552.3</ele>
        <time>2022-10-16T07:24:09Z</time>
      </trkpt>
      <trkpt lat="44.42344" lon="5.16384">
        <ele>552.3</ele>
        <time>2022-10-16T07:24:08Z</time>
      </trkpt>
      <trkpt lat="44.42344" lon="5.16385">
        <ele>552.3</ele>
        <time>2022-10-16T07:24:07Z</time>
      </trkpt>
      <trkpt lat="44.42344" lon="5.16387">
        <ele>552.2</ele>
        <time>2022-10-16T07:24:06Z</time>
      </trkpt>
      <trkpt lat="44.42344" lon="5.16388">
        <ele>552.2</ele>
        <time>2022-10-16T07:24:05Z</time>
      </trkpt>
      <trkpt lat="44.42344" lon="5.16389">
        <ele>552.2</ele>
        <time>2022-10-16T07:24:04Z</time>
      </trkpt>
      <trkpt lat="44.42344" lon="5.16391">
        <ele>552.2</ele>
        <time>2022-10-16T07:24:03Z</time>
      </trkpt>
      <trkpt lat="44.42344" lon="5.16392">
        <ele>552.2</ele>
        <time>2022-10-16T07:24:02Z</time>
      </trkpt>
      <trkpt lat="44.42343" lon="5.16394">
        <ele>551.8</ele>
        <time>2022-10-16T07:24:01Z</time>
      </trkpt>
      <trkpt lat="44.42343" lon="5.16395">
        <ele>551.8</ele>
        <time>2022-10-16T07:24:00Z</time>
      </trkpt>
      <trkpt lat="44.42343" lon="5.16397">
        <ele>551.7</ele>
        <time>2022-10-16T07:23:59Z</time>
      </trkpt>
      <trkpt lat="44.42343" lon="5.16398">
        <ele>551.7</ele>
        <time>2022-10-16T07:23:58Z</time>
      </trkpt>
      <trkpt lat="44.42343" lon="5.16399">
        <ele>551.7</ele>
        <time>2022-10-16T07:23:57Z</time>
      </trkpt>
      <trkpt lat="44.42343" lon="5.16401">
        <ele>551.7</ele>
        <time>2022-10-16T07:23:56Z</time>
      </trkpt>
      <trkpt lat="44.42343" lon="5.16402">
        <ele>551.7</ele>
        <time>2022-10-16T07:23:55Z</time>
      </trkpt>
      <trkpt lat="44.42343" lon="5.16404">
        <ele>551.6</ele>
        <time>2022-10-16T07:23:54Z</time>
      </trkpt>
      <trkpt lat="44.42343" lon="5.16405">
        <ele>551.6</ele>
        <time>2022-10-16T07:23:53Z</time>
      </trkpt>
      <trkpt lat="44.42343" lon="5.16407">
        <ele>551.6</ele>
        <time>2022-10-16T07:23:52Z</time>
      </trkpt>
      <trkpt lat="44.42343" lon="5.16408">
        <ele>551.6</ele>
        <time>2022-10-16T07:23:51Z</time>
      </trkpt>
      <trkpt lat="44.42343" lon="5.16409">
        <ele>551.6</ele>
        <time>2022-10-16T07:23:50Z</time>
      </trkpt>
      <trkpt lat="44.42343" lon="5.16411">
        <ele>551.6</ele>
        <time>2022-10-16T07:23:49Z</time>
      </trkpt>
      <trkpt lat="44.42343" lon="5.16412">
        <ele>551.5</ele>
        <time>2022-10-16T07:23:48Z</time>
      </trkpt>
      <trkpt lat="44.42343" lon="5.16414">
        <ele>551.5</ele>
        <time>2022-10-16T07:23:47Z</time>
      </trkpt>
      <trkpt lat="44.42343" lon="5.16415">
        <ele>551.5</ele>
        <time>2022-10-16T07:23:46Z</time>
      </trkpt>
      <trkpt lat="44.42343" lon="5.16417">
        <ele>551.5</ele>
        <time>2022-10-16T07:23:45Z</time>
      </trkpt>
      <trkpt lat="44.42343" lon="5.16418">
        <ele>551.5</ele>
        <time>2022-10-16T07:23:44Z</time>
      </trkpt>
      <trkpt lat="44.42342" lon="5.1642">
        <ele>551.1</ele>
        <time>2022-10-16T07:23:43Z</time>
      </trkpt>
      <trkpt lat="44.42342" lon="5.16421">
        <ele>551.1</ele>
        <time>2022-10-16T07:23:42Z</time>
      </trkpt>
      <trkpt lat="44.42342" lon="5.16423">
        <ele>551</ele>
        <time>2022-10-16T07:23:41Z</time>
      </trkpt>
      <trkpt lat="44.42342" lon="5.16424">
        <ele>551</ele>
        <time>2022-10-16T07:23:40Z</time>
      </trkpt>
      <trkpt lat="44.42342" lon="5.16425">
        <ele>551</ele>
        <time>2022-10-16T07:23:39Z</time>
      </trkpt>
      <trkpt lat="44.42342" lon="5.16427">
        <ele>551</ele>
        <time>2022-10-16T07:23:38Z</time>
      </trkpt>
      <trkpt lat="44.42342" lon="5.16428">
        <ele>551</ele>
        <time>2022-10-16T07:23:37Z</time>
      </trkpt>
      <trkpt lat="44.42342" lon="5.16429">
        <ele>551</ele>
        <time>2022-10-16T07:23:36Z</time>
      </trkpt>
      <trkpt lat="44.42342" lon="5.16431">
        <ele>551</ele>
        <time>2022-10-16T07:23:35Z</time>
      </trkpt>
      <trkpt lat="44.42342" lon="5.16432">
        <ele>550.9</ele>
        <time>2022-10-16T07:23:34Z</time>
      </trkpt>
      <trkpt lat="44.42341" lon="5.16433">
        <ele>550.6</ele>
        <time>2022-10-16T07:23:33Z</time>
      </trkpt>
      <trkpt lat="44.42341" lon="5.16435">
        <ele>550.6</ele>
        <time>2022-10-16T07:23:32Z</time>
      </trkpt>
      <trkpt lat="44.42341" lon="5.16436">
        <ele>550.6</ele>
        <time>2022-10-16T07:23:31Z</time>
      </trkpt>
      <trkpt lat="44.42341" lon="5.16437">
        <ele>550.6</ele>
        <time>2022-10-16T07:23:30Z</time>
      </trkpt>
      <trkpt lat="44.4234" lon="5.16438">
        <ele>550.2</ele>
        <time>2022-10-16T07:23:29Z</time>
      </trkpt>
      <trkpt lat="44.4234" lon="5.16439">
        <ele>550.2</ele>
        <time>2022-10-16T07:23:28Z</time>
      </trkpt>
      <trkpt lat="44.42339" lon="5.16441">
        <ele>549.9</ele>
        <time>2022-10-16T07:23:27Z</time>
      </trkpt>
      <trkpt lat="44.42339" lon="5.16442">
        <ele>549.9</ele>
        <time>2022-10-16T07:23:26Z</time>
      </trkpt>
      <trkpt lat="44.42339" lon="5.16443">
        <ele>549.8</ele>
        <time>2022-10-16T07:23:25Z</time>
      </trkpt>
      <trkpt lat="44.42338" lon="5.16445">
        <ele>549.5</ele>
        <time>2022-10-16T07:23:24Z</time>
      </trkpt>
      <trkpt lat="44.42338" lon="5.16446">
        <ele>549.4</ele>
        <time>2022-10-16T07:23:23Z</time>
      </trkpt>
      <trkpt lat="44.42338" lon="5.16448">
        <ele>549.4</ele>
        <time>2022-10-16T07:23:22Z</time>
      </trkpt>
      <trkpt lat="44.42337" lon="5.16449">
        <ele>549</ele>
        <time>2022-10-16T07:23:21Z</time>
      </trkpt>
      <trkpt lat="44.42337" lon="5.1645">
        <ele>549</ele>
        <time>2022-10-16T07:23:20Z</time>
      </trkpt>
      <trkpt lat="44.42337" lon="5.16451">
        <ele>548.9</ele>
        <time>2022-10-16T07:23:19Z</time>
      </trkpt>
      <trkpt lat="44.42336" lon="5.16453">
        <ele>548.5</ele>
        <time>2022-10-16T07:23:18Z</time>
      </trkpt>
      <trkpt lat="44.42336" lon="5.16454">
        <ele>548.5</ele>
        <time>2022-10-16T07:23:17Z</time>
      </trkpt>
      <trkpt lat="44.42335" lon="5.16455">
        <ele>548.1</ele>
        <time>2022-10-16T07:23:16Z</time>
      </trkpt>
      <trkpt lat="44.42335" lon="5.16456">
        <ele>548.1</ele>
        <time>2022-10-16T07:23:15Z</time>
      </trkpt>
      <trkpt lat="44.42334" lon="5.16457">
        <ele>547.8</ele>
        <time>2022-10-16T07:23:14Z</time>
      </trkpt>
      <trkpt lat="44.42334" lon="5.16459">
        <ele>547.7</ele>
        <time>2022-10-16T07:23:13Z</time>
      </trkpt>
      <trkpt lat="44.42333" lon="5.1646">
        <ele>547.3</ele>
        <time>2022-10-16T07:23:12Z</time>
      </trkpt>
      <trkpt lat="44.42333" lon="5.16461">
        <ele>547.2</ele>
        <time>2022-10-16T07:23:11Z</time>
      </trkpt>
      <trkpt lat="44.42333" lon="5.16463">
        <ele>547.2</ele>
        <time>2022-10-16T07:23:10Z</time>
      </trkpt>
      <trkpt lat="44.42332" lon="5.16464">
        <ele>546.7</ele>
        <time>2022-10-16T07:23:09Z</time>
      </trkpt>
      <trkpt lat="44.42332" lon="5.16466">
        <ele>546.6</ele>
        <time>2022-10-16T07:23:08Z</time>
      </trkpt>
      <trkpt lat="44.42331" lon="5.16467">
        <ele>546.1</ele>
        <time>2022-10-16T07:23:07Z</time>
      </trkpt>
      <trkpt lat="44.42331" lon="5.16469">
        <ele>546</ele>
        <time>2022-10-16T07:23:06Z</time>
      </trkpt>
      <trkpt lat="44.42331" lon="5.1647">
        <ele>546</ele>
        <time>2022-10-16T07:23:05Z</time>
      </trkpt>
      <trkpt lat="44.4233" lon="5.16472">
        <ele>545.4</ele>
        <time>2022-10-16T07:23:04Z</time>
      </trkpt>
      <trkpt lat="44.4233" lon="5.16473">
        <ele>545.4</ele>
        <time>2022-10-16T07:23:03Z</time>
      </trkpt>
      <trkpt lat="44.42329" lon="5.16475">
        <ele>544.8</ele>
        <time>2022-10-16T07:23:02Z</time>
      </trkpt>
      <trkpt lat="44.42329" lon="5.16476">
        <ele>544.7</ele>
        <time>2022-10-16T07:23:01Z</time>
      </trkpt>
      <trkpt lat="44.42328" lon="5.16477">
        <ele>544.2</ele>
        <time>2022-10-16T07:23:00Z</time>
      </trkpt>
      <trkpt lat="44.42328" lon="5.16479">
        <ele>544.1</ele>
        <time>2022-10-16T07:22:59Z</time>
      </trkpt>
      <trkpt lat="44.42328" lon="5.1648">
        <ele>544.1</ele>
        <time>2022-10-16T07:22:58Z</time>
      </trkpt>
      <trkpt lat="44.42327" lon="5.16482">
        <ele>543.5</ele>
        <time>2022-10-16T07:22:57Z</time>
      </trkpt>
      <trkpt lat="44.42327" lon="5.16483">
        <ele>543.4</ele>
        <time>2022-10-16T07:22:56Z</time>
      </trkpt>
      <trkpt lat="44.42327" lon="5.16484">
        <ele>543.4</ele>
        <time>2022-10-16T07:22:55Z</time>
      </trkpt>
      <trkpt lat="44.42326" lon="5.16486">
        <ele>542.8</ele>
        <time>2022-10-16T07:22:54Z</time>
      </trkpt>
      <trkpt lat="44.42326" lon="5.16487">
        <ele>542.8</ele>
        <time>2022-10-16T07:22:53Z</time>
      </trkpt>
      <trkpt lat="44.42325" lon="5.16488">
        <ele>542.3</ele>
        <time>2022-10-16T07:22:52Z</time>
      </trkpt>
      <trkpt lat="44.42325" lon="5.16489">
        <ele>542.3</ele>
        <time>2022-10-16T07:22:51Z</time>
      </trkpt>
      <trkpt lat="44.42325" lon="5.1649">
        <ele>542.2</ele>
        <time>2022-10-16T07:22:50Z</time>
      </trkpt>
      <trkpt lat="44.42324" lon="5.16491">
        <ele>541.7</ele>
        <time>2022-10-16T07:22:49Z</time>
      </trkpt>
      <trkpt lat="44.42324" lon="5.16492">
        <ele>541.7</ele>
        <time>2022-10-16T07:22:46Z</time>
      </trkpt>
      <trkpt lat="44.42323" lon="5.16493">
        <ele>541.2</ele>
        <time>2022-10-16T07:22:00Z</time>
      </trkpt>
      <trkpt lat="44.42323" lon="5.16494">
        <ele>541.2</ele>
        <time>2022-10-16T07:21:57Z</time>
      </trkpt>
      <trkpt lat="44.42321" lon="5.16494">
        <ele>540.4</ele>
        <time>2022-10-16T07:21:19Z</time>
      </trkpt>
      <trkpt lat="44.4232" lon="5.16496">
        <ele>539.9</ele>
        <time>2022-10-16T07:21:13Z</time>
      </trkpt>
      <trkpt lat="44.42319" lon="5.16497">
        <ele>539.4</ele>
        <time>2022-10-16T07:21:12Z</time>
      </trkpt>
      <trkpt lat="44.42319" lon="5.16498">
        <ele>539.4</ele>
        <time>2022-10-16T07:21:11Z</time>
      </trkpt>
      <trkpt lat="44.42319" lon="5.16499">
        <ele>539.4</ele>
        <time>2022-10-16T07:21:10Z</time>
      </trkpt>
      <trkpt lat="44.42318" lon="5.165">
        <ele>538.9</ele>
        <time>2022-10-16T07:21:09Z</time>
      </trkpt>
      <trkpt lat="44.42318" lon="5.16501">
        <ele>539</ele>
        <time>2022-10-16T07:21:08Z</time>
      </trkpt>
      <trkpt lat="44.42318" lon="5.16502">
        <ele>539</ele>
        <time>2022-10-16T07:21:07Z</time>
      </trkpt>
      <trkpt lat="44.42317" lon="5.16503">
        <ele>538.7</ele>
        <time>2022-10-16T07:21:06Z</time>
      </trkpt>
      <trkpt lat="44.42317" lon="5.16504">
        <ele>538.7</ele>
        <time>2022-10-16T07:21:05Z</time>
      </trkpt>
      <trkpt lat="44.42317" lon="5.16505">
        <ele>538.7</ele>
        <time>2022-10-16T07:21:04Z</time>
      </trkpt>
      <trkpt lat="44.42316" lon="5.16506">
        <ele>538.4</ele>
        <time>2022-10-16T07:21:03Z</time>
      </trkpt>
      <trkpt lat="44.42316" lon="5.16507">
        <ele>538.5</ele>
        <time>2022-10-16T07:21:02Z</time>
      </trkpt>
      <trkpt lat="44.42316" lon="5.16509">
        <ele>538.5</ele>
        <time>2022-10-16T07:21:01Z</time>
      </trkpt>
      <trkpt lat="44.42316" lon="5.1651">
        <ele>538.6</ele>
        <time>2022-10-16T07:21:00Z</time>
      </trkpt>
      <trkpt lat="44.42315" lon="5.16511">
        <ele>538.3</ele>
        <time>2022-10-16T07:20:59Z</time>
      </trkpt>
      <trkpt lat="44.42315" lon="5.16512">
        <ele>538.3</ele>
        <time>2022-10-16T07:20:58Z</time>
      </trkpt>
      <trkpt lat="44.42315" lon="5.16513">
        <ele>538.4</ele>
        <time>2022-10-16T07:20:57Z</time>
      </trkpt>
      <trkpt lat="44.42314" lon="5.16514">
        <ele>538</ele>
        <time>2022-10-16T07:20:56Z</time>
      </trkpt>
      <trkpt lat="44.42314" lon="5.16516">
        <ele>538.1</ele>
        <time>2022-10-16T07:20:55Z</time>
      </trkpt>
      <trkpt lat="44.42314" lon="5.16517">
        <ele>538.2</ele>
        <time>2022-10-16T07:20:54Z</time>
      </trkpt>
      <trkpt lat="44.42313" lon="5.16518">
        <ele>537.9</ele>
        <time>2022-10-16T07:20:53Z</time>
      </trkpt>
      <trkpt lat="44.42313" lon="5.16519">
        <ele>537.9</ele>
        <time>2022-10-16T07:20:52Z</time>
      </trkpt>
      <trkpt lat="44.42313" lon="5.1652">
        <ele>538</ele>
        <time>2022-10-16T07:20:51Z</time>
      </trkpt>
      <trkpt lat="44.42312" lon="5.16521">
        <ele>537.7</ele>
        <time>2022-10-16T07:20:50Z</time>
      </trkpt>
      <trkpt lat="44.42312" lon="5.16523">
        <ele>537.8</ele>
        <time>2022-10-16T07:20:49Z</time>
      </trkpt>
      <trkpt lat="44.42312" lon="5.16524">
        <ele>537.9</ele>
        <time>2022-10-16T07:20:48Z</time>
      </trkpt>
      <trkpt lat="44.42311" lon="5.16525">
        <ele>537.6</ele>
        <time>2022-10-16T07:20:47Z</time>
      </trkpt>
      <trkpt lat="44.42311" lon="5.16526">
        <ele>537.7</ele>
        <time>2022-10-16T07:20:46Z</time>
      </trkpt>
      <trkpt lat="44.4231" lon="5.16527">
        <ele>537.4</ele>
        <time>2022-10-16T07:20:45Z</time>
      </trkpt>
      <trkpt lat="44.4231" lon="5.16528">
        <ele>537.5</ele>
        <time>2022-10-16T07:20:44Z</time>
      </trkpt>
      <trkpt lat="44.4231" lon="5.16529">
        <ele>537.5</ele>
        <time>2022-10-16T07:20:43Z</time>
      </trkpt>
      <trkpt lat="44.42309" lon="5.1653">
        <ele>537.2</ele>
        <time>2022-10-16T07:20:42Z</time>
      </trkpt>
      <trkpt lat="44.42309" lon="5.16532">
        <ele>537.4</ele>
        <time>2022-10-16T07:20:41Z</time>
      </trkpt>
      <trkpt lat="44.42308" lon="5.16533">
        <ele>537.1</ele>
        <time>2022-10-16T07:20:40Z</time>
      </trkpt>
      <trkpt lat="44.42308" lon="5.16534">
        <ele>537.2</ele>
        <time>2022-10-16T07:20:39Z</time>
      </trkpt>
      <trkpt lat="44.42308" lon="5.16535">
        <ele>537.2</ele>
        <time>2022-10-16T07:20:38Z</time>
      </trkpt>
      <trkpt lat="44.42307" lon="5.16536">
        <ele>537</ele>
        <time>2022-10-16T07:20:37Z</time>
      </trkpt>
      <trkpt lat="44.42307" lon="5.16537">
        <ele>537.1</ele>
        <time>2022-10-16T07:20:36Z</time>
      </trkpt>
      <trkpt lat="44.42306" lon="5.16538">
        <ele>536.9</ele>
        <time>2022-10-16T07:20:35Z</time>
      </trkpt>
      <trkpt lat="44.42306" lon="5.16539">
        <ele>536.9</ele>
        <time>2022-10-16T07:20:34Z</time>
      </trkpt>
      <trkpt lat="44.42306" lon="5.1654">
        <ele>537</ele>
        <time>2022-10-16T07:20:33Z</time>
      </trkpt>
      <trkpt lat="44.42305" lon="5.16541">
        <ele>536.8</ele>
        <time>2022-10-16T07:20:32Z</time>
      </trkpt>
      <trkpt lat="44.42305" lon="5.16542">
        <ele>536.8</ele>
        <time>2022-10-16T07:20:31Z</time>
      </trkpt>
      <trkpt lat="44.42304" lon="5.16544">
        <ele>536.6</ele>
        <time>2022-10-16T07:20:30Z</time>
      </trkpt>
      <trkpt lat="44.42304" lon="5.16545">
        <ele>536.7</ele>
        <time>2022-10-16T07:20:29Z</time>
      </trkpt>
      <trkpt lat="44.42303" lon="5.16546">
        <ele>536.5</ele>
        <time>2022-10-16T07:20:28Z</time>
      </trkpt>
      <trkpt lat="44.42303" lon="5.16547">
        <ele>536.5</ele>
        <time>2022-10-16T07:20:27Z</time>
      </trkpt>
      <trkpt lat="44.42302" lon="5.16548">
        <ele>536.3</ele>
        <time>2022-10-16T07:20:25Z</time>
      </trkpt>
      <trkpt lat="44.42301" lon="5.16549">
        <ele>536</ele>
        <time>2022-10-16T07:20:24Z</time>
      </trkpt>
      <trkpt lat="44.42301" lon="5.1655">
        <ele>536.1</ele>
        <time>2022-10-16T07:20:23Z</time>
      </trkpt>
      <trkpt lat="44.423" lon="5.16551">
        <ele>535.8</ele>
        <time>2022-10-16T07:20:22Z</time>
      </trkpt>
      <trkpt lat="44.423" lon="5.16552">
        <ele>535.9</ele>
        <time>2022-10-16T07:20:21Z</time>
      </trkpt>
      <trkpt lat="44.42299" lon="5.16553">
        <ele>535.7</ele>
        <time>2022-10-16T07:20:20Z</time>
      </trkpt>
      <trkpt lat="44.42299" lon="5.16554">
        <ele>535.8</ele>
        <time>2022-10-16T07:20:19Z</time>
      </trkpt>
      <trkpt lat="44.42298" lon="5.16555">
        <ele>535.5</ele>
        <time>2022-10-16T07:20:18Z</time>
      </trkpt>
      <trkpt lat="44.42298" lon="5.16556">
        <ele>535.6</ele>
        <time>2022-10-16T07:20:17Z</time>
      </trkpt>
      <trkpt lat="44.42298" lon="5.16557">
        <ele>535.6</ele>
        <time>2022-10-16T07:20:16Z</time>
      </trkpt>
      <trkpt lat="44.42297" lon="5.16558">
        <ele>535.4</ele>
        <time>2022-10-16T07:20:15Z</time>
      </trkpt>
      <trkpt lat="44.42297" lon="5.16559">
        <ele>535.4</ele>
        <time>2022-10-16T07:20:14Z</time>
      </trkpt>
      <trkpt lat="44.42296" lon="5.1656">
        <ele>535.2</ele>
        <time>2022-10-16T07:20:13Z</time>
      </trkpt>
      <trkpt lat="44.42295" lon="5.16561">
        <ele>534.9</ele>
        <time>2022-10-16T07:20:12Z</time>
      </trkpt>
      <trkpt lat="44.42295" lon="5.16562">
        <ele>535</ele>
        <time>2022-10-16T07:20:11Z</time>
      </trkpt>
      <trkpt lat="44.42294" lon="5.16563">
        <ele>534.7</ele>
        <time>2022-10-16T07:20:10Z</time>
      </trkpt>
      <trkpt lat="44.42294" lon="5.16564">
        <ele>534.8</ele>
        <time>2022-10-16T07:20:09Z</time>
      </trkpt>
      <trkpt lat="44.42293" lon="5.16565">
        <ele>534.6</ele>
        <time>2022-10-16T07:20:08Z</time>
      </trkpt>
      <trkpt lat="44.42292" lon="5.16566">
        <ele>534.4</ele>
        <time>2022-10-16T07:20:07Z</time>
      </trkpt>
      <trkpt lat="44.42292" lon="5.16567">
        <ele>534.4</ele>
        <time>2022-10-16T07:20:06Z</time>
      </trkpt>
      <trkpt lat="44.42291" lon="5.16568">
        <ele>534.2</ele>
        <time>2022-10-16T07:20:05Z</time>
      </trkpt>
      <trkpt lat="44.42291" lon="5.16569">
        <ele>534.3</ele>
        <time>2022-10-16T07:20:04Z</time>
      </trkpt>
      <trkpt lat="44.4229" lon="5.1657">
        <ele>534.1</ele>
        <time>2022-10-16T07:20:03Z</time>
      </trkpt>
      <trkpt lat="44.42289" lon="5.16571">
        <ele>533.9</ele>
        <time>2022-10-16T07:20:02Z</time>
      </trkpt>
      <trkpt lat="44.42289" lon="5.16572">
        <ele>533.9</ele>
        <time>2022-10-16T07:20:01Z</time>
      </trkpt>
      <trkpt lat="44.42288" lon="5.16573">
        <ele>533.7</ele>
        <time>2022-10-16T07:20:00Z</time>
      </trkpt>
      <trkpt lat="44.42287" lon="5.16574">
        <ele>533.5</ele>
        <time>2022-10-16T07:19:59Z</time>
      </trkpt>
      <trkpt lat="44.42287" lon="5.16575">
        <ele>533.6</ele>
        <time>2022-10-16T07:19:58Z</time>
      </trkpt>
      <trkpt lat="44.42286" lon="5.16576">
        <ele>533.4</ele>
        <time>2022-10-16T07:19:57Z</time>
      </trkpt>
      <trkpt lat="44.42286" lon="5.16577">
        <ele>533.5</ele>
        <time>2022-10-16T07:19:56Z</time>
      </trkpt>
      <trkpt lat="44.42285" lon="5.16578">
        <ele>533.3</ele>
        <time>2022-10-16T07:19:55Z</time>
      </trkpt>
      <trkpt lat="44.42285" lon="5.16579">
        <ele>533.4</ele>
        <time>2022-10-16T07:19:53Z</time>
      </trkpt>
      <trkpt lat="44.42285" lon="5.1658">
        <ele>533.5</ele>
        <time>2022-10-16T07:19:52Z</time>
      </trkpt>
      <trkpt lat="44.42284" lon="5.1658">
        <ele>533.3</ele>
        <time>2022-10-16T07:19:51Z</time>
      </trkpt>
      <trkpt lat="44.42284" lon="5.16581">
        <ele>533.4</ele>
        <time>2022-10-16T07:19:49Z</time>
      </trkpt>
      <trkpt lat="44.42283" lon="5.16581">
        <ele>533.1</ele>
        <time>2022-10-16T07:19:17Z</time>
      </trkpt>
      <trkpt lat="44.42282" lon="5.16582">
        <ele>532.9</ele>
        <time>2022-10-16T07:19:15Z</time>
      </trkpt>
      <trkpt lat="44.42281" lon="5.16583">
        <ele>532.8</ele>
        <time>2022-10-16T07:19:14Z</time>
      </trkpt>
      <trkpt lat="44.42281" lon="5.16584">
        <ele>532.8</ele>
        <time>2022-10-16T07:19:13Z</time>
      </trkpt>
      <trkpt lat="44.4228" lon="5.16585">
        <ele>532.6</ele>
        <time>2022-10-16T07:19:11Z</time>
      </trkpt>
      <trkpt lat="44.42279" lon="5.16586">
        <ele>532.4</ele>
        <time>2022-10-16T07:19:10Z</time>
      </trkpt>
      <trkpt lat="44.42278" lon="5.16587">
        <ele>532.2</ele>
        <time>2022-10-16T07:19:09Z</time>
      </trkpt>
      <trkpt lat="44.42278" lon="5.16588">
        <ele>532.2</ele>
        <time>2022-10-16T07:19:08Z</time>
      </trkpt>
      <trkpt lat="44.42277" lon="5.16589">
        <ele>531.9</ele>
        <time>2022-10-16T07:19:07Z</time>
      </trkpt>
      <trkpt lat="44.42276" lon="5.1659">
        <ele>531.6</ele>
        <time>2022-10-16T07:19:05Z</time>
      </trkpt>
      <trkpt lat="44.42275" lon="5.16591">
        <ele>531.3</ele>
        <time>2022-10-16T07:19:04Z</time>
      </trkpt>
      <trkpt lat="44.42274" lon="5.16592">
        <ele>531</ele>
        <time>2022-10-16T07:19:03Z</time>
      </trkpt>
      <trkpt lat="44.42273" lon="5.16593">
        <ele>530.7</ele>
        <time>2022-10-16T07:19:02Z</time>
      </trkpt>
      <trkpt lat="44.42272" lon="5.16594">
        <ele>530.4</ele>
        <time>2022-10-16T07:19:01Z</time>
      </trkpt>
      <trkpt lat="44.42272" lon="5.16595">
        <ele>530.5</ele>
        <time>2022-10-16T07:19:00Z</time>
      </trkpt>
      <trkpt lat="44.42271" lon="5.16596">
        <ele>530.2</ele>
        <time>2022-10-16T07:18:59Z</time>
      </trkpt>
      <trkpt lat="44.4227" lon="5.16597">
        <ele>530</ele>
        <time>2022-10-16T07:18:57Z</time>
      </trkpt>
      <trkpt lat="44.42269" lon="5.16598">
        <ele>529.7</ele>
        <time>2022-10-16T07:18:56Z</time>
      </trkpt>
      <trkpt lat="44.42268" lon="5.16599">
        <ele>529.5</ele>
        <time>2022-10-16T07:18:55Z</time>
      </trkpt>
      <trkpt lat="44.42268" lon="5.166">
        <ele>529.6</ele>
        <time>2022-10-16T07:18:54Z</time>
      </trkpt>
      <trkpt lat="44.42267" lon="5.166">
        <ele>529.3</ele>
        <time>2022-10-16T07:18:53Z</time>
      </trkpt>
      <trkpt lat="44.42267" lon="5.16601">
        <ele>529.4</ele>
        <time>2022-10-16T07:18:52Z</time>
      </trkpt>
      <trkpt lat="44.42266" lon="5.16602">
        <ele>529.1</ele>
        <time>2022-10-16T07:18:51Z</time>
      </trkpt>
      <trkpt lat="44.42265" lon="5.16604">
        <ele>529.1</ele>
        <time>2022-10-16T07:18:40Z</time>
      </trkpt>
      <trkpt lat="44.42264" lon="5.16605">
        <ele>528.9</ele>
        <time>2022-10-16T07:18:39Z</time>
      </trkpt>
      <trkpt lat="44.42263" lon="5.16606">
        <ele>528.7</ele>
        <time>2022-10-16T07:18:38Z</time>
      </trkpt>
      <trkpt lat="44.42263" lon="5.16607">
        <ele>528.8</ele>
        <time>2022-10-16T07:18:37Z</time>
      </trkpt>
      <trkpt lat="44.42262" lon="5.16608">
        <ele>528.7</ele>
        <time>2022-10-16T07:18:36Z</time>
      </trkpt>
      <trkpt lat="44.42262" lon="5.16609">
        <ele>528.8</ele>
        <time>2022-10-16T07:18:35Z</time>
      </trkpt>
      <trkpt lat="44.42261" lon="5.1661">
        <ele>528.6</ele>
        <time>2022-10-16T07:18:33Z</time>
      </trkpt>
      <trkpt lat="44.4226" lon="5.16611">
        <ele>528.5</ele>
        <time>2022-10-16T07:18:32Z</time>
      </trkpt>
      <trkpt lat="44.4226" lon="5.16612">
        <ele>528.6</ele>
        <time>2022-10-16T07:18:31Z</time>
      </trkpt>
      <trkpt lat="44.42259" lon="5.16613">
        <ele>528.4</ele>
        <time>2022-10-16T07:18:30Z</time>
      </trkpt>
      <trkpt lat="44.42258" lon="5.16613">
        <ele>528.1</ele>
        <time>2022-10-16T07:18:29Z</time>
      </trkpt>
      <trkpt lat="44.42258" lon="5.16614">
        <ele>528.2</ele>
        <time>2022-10-16T07:18:28Z</time>
      </trkpt>
      <trkpt lat="44.42257" lon="5.16614">
        <ele>527.9</ele>
        <time>2022-10-16T07:18:27Z</time>
      </trkpt>
      <trkpt lat="44.42256" lon="5.16615">
        <ele>527.7</ele>
        <time>2022-10-16T07:18:26Z</time>
      </trkpt>
      <trkpt lat="44.42256" lon="5.16616">
        <ele>527.8</ele>
        <time>2022-10-16T07:18:25Z</time>
      </trkpt>
      <trkpt lat="44.42255" lon="5.16617">
        <ele>527.6</ele>
        <time>2022-10-16T07:18:24Z</time>
      </trkpt>
      <trkpt lat="44.42254" lon="5.16618">
        <ele>527.4</ele>
        <time>2022-10-16T07:18:23Z</time>
      </trkpt>
      <trkpt lat="44.42254" lon="5.16619">
        <ele>527.5</ele>
        <time>2022-10-16T07:18:22Z</time>
      </trkpt>
      <trkpt lat="44.42253" lon="5.16619">
        <ele>527.3</ele>
        <time>2022-10-16T07:18:21Z</time>
      </trkpt>
      <trkpt lat="44.42253" lon="5.1662">
        <ele>527.3</ele>
        <time>2022-10-16T07:18:20Z</time>
      </trkpt>
      <trkpt lat="44.42252" lon="5.16621">
        <ele>527.2</ele>
        <time>2022-10-16T07:18:19Z</time>
      </trkpt>
      <trkpt lat="44.42252" lon="5.16622">
        <ele>527.2</ele>
        <time>2022-10-16T07:18:18Z</time>
      </trkpt>
      <trkpt lat="44.42251" lon="5.16623">
        <ele>527.1</ele>
        <time>2022-10-16T07:18:17Z</time>
      </trkpt>
      <trkpt lat="44.4225" lon="5.16624">
        <ele>526.9</ele>
        <time>2022-10-16T07:18:16Z</time>
      </trkpt>
      <trkpt lat="44.4225" lon="5.16625">
        <ele>527</ele>
        <time>2022-10-16T07:18:15Z</time>
      </trkpt>
      <trkpt lat="44.42249" lon="5.16626">
        <ele>526.9</ele>
        <time>2022-10-16T07:18:14Z</time>
      </trkpt>
      <trkpt lat="44.42248" lon="5.16627">
        <ele>526.7</ele>
        <time>2022-10-16T07:18:13Z</time>
      </trkpt>
      <trkpt lat="44.42247" lon="5.16627">
        <ele>526.5</ele>
        <time>2022-10-16T07:18:12Z</time>
      </trkpt>
      <trkpt lat="44.42247" lon="5.16628">
        <ele>526.6</ele>
        <time>2022-10-16T07:18:11Z</time>
      </trkpt>
      <trkpt lat="44.42246" lon="5.16629">
        <ele>526.5</ele>
        <time>2022-10-16T07:18:10Z</time>
      </trkpt>
      <trkpt lat="44.42246" lon="5.1663">
        <ele>526.6</ele>
        <time>2022-10-16T07:18:09Z</time>
      </trkpt>
      <trkpt lat="44.42245" lon="5.16631">
        <ele>526.5</ele>
        <time>2022-10-16T07:18:08Z</time>
      </trkpt>
      <trkpt lat="44.42244" lon="5.16632">
        <ele>526.4</ele>
        <time>2022-10-16T07:18:06Z</time>
      </trkpt>
      <trkpt lat="44.42243" lon="5.16633">
        <ele>526.4</ele>
        <time>2022-10-16T07:18:05Z</time>
      </trkpt>
      <trkpt lat="44.42243" lon="5.16634">
        <ele>526.5</ele>
        <time>2022-10-16T07:18:04Z</time>
      </trkpt>
      <trkpt lat="44.42242" lon="5.16634">
        <ele>526.3</ele>
        <time>2022-10-16T07:18:03Z</time>
      </trkpt>
      <trkpt lat="44.42242" lon="5.16635">
        <ele>526.4</ele>
        <time>2022-10-16T07:18:02Z</time>
      </trkpt>
      <trkpt lat="44.42241" lon="5.16636">
        <ele>526.4</ele>
        <time>2022-10-16T07:18:00Z</time>
      </trkpt>
      <trkpt lat="44.4224" lon="5.16637">
        <ele>526.3</ele>
        <time>2022-10-16T07:17:58Z</time>
      </trkpt>
      <trkpt lat="44.42239" lon="5.16638">
        <ele>526.3</ele>
        <time>2022-10-16T07:17:57Z</time>
      </trkpt>
      <trkpt lat="44.42239" lon="5.16639">
        <ele>526.4</ele>
        <time>2022-10-16T07:17:56Z</time>
      </trkpt>
      <trkpt lat="44.42238" lon="5.16639">
        <ele>526.3</ele>
        <time>2022-10-16T07:17:55Z</time>
      </trkpt>
      <trkpt lat="44.42237" lon="5.1664">
        <ele>526.1</ele>
        <time>2022-10-16T07:17:54Z</time>
      </trkpt>
      <trkpt lat="44.42237" lon="5.16641">
        <ele>526.1</ele>
        <time>2022-10-16T07:17:53Z</time>
      </trkpt>
      <trkpt lat="44.42236" lon="5.16642">
        <ele>525.9</ele>
        <time>2022-10-16T07:17:52Z</time>
      </trkpt>
      <trkpt lat="44.42236" lon="5.16643">
        <ele>525.8</ele>
        <time>2022-10-16T07:17:51Z</time>
      </trkpt>
      <trkpt lat="44.42235" lon="5.16644">
        <ele>525.7</ele>
        <time>2022-10-16T07:17:49Z</time>
      </trkpt>
      <trkpt lat="44.42234" lon="5.16645">
        <ele>525.5</ele>
        <time>2022-10-16T07:17:48Z</time>
      </trkpt>
      <trkpt lat="44.42233" lon="5.16646">
        <ele>525.3</ele>
        <time>2022-10-16T07:17:47Z</time>
      </trkpt>
      <trkpt lat="44.42233" lon="5.16647">
        <ele>525.3</ele>
        <time>2022-10-16T07:17:46Z</time>
      </trkpt>
      <trkpt lat="44.42232" lon="5.16648">
        <ele>525.1</ele>
        <time>2022-10-16T07:17:45Z</time>
      </trkpt>
      <trkpt lat="44.42231" lon="5.16648">
        <ele>524.9</ele>
        <time>2022-10-16T07:17:44Z</time>
      </trkpt>
      <trkpt lat="44.4223" lon="5.16649">
        <ele>524.8</ele>
        <time>2022-10-16T07:17:43Z</time>
      </trkpt>
      <trkpt lat="44.4223" lon="5.1665">
        <ele>524.7</ele>
        <time>2022-10-16T07:17:42Z</time>
      </trkpt>
      <trkpt lat="44.42229" lon="5.1665">
        <ele>524.6</ele>
        <time>2022-10-16T07:17:41Z</time>
      </trkpt>
      <trkpt lat="44.42228" lon="5.16651">
        <ele>524.4</ele>
        <time>2022-10-16T07:17:39Z</time>
      </trkpt>
      <trkpt lat="44.42227" lon="5.16651">
        <ele>524.3</ele>
        <time>2022-10-16T07:17:36Z</time>
      </trkpt>
      <trkpt lat="44.42227" lon="5.16652">
        <ele>524.2</ele>
        <time>2022-10-16T07:17:27Z</time>
      </trkpt>
      <trkpt lat="44.42228" lon="5.16651">
        <ele>524.4</ele>
        <time>2022-10-16T07:17:25Z</time>
      </trkpt>
      <trkpt lat="44.42229" lon="5.16651">
        <ele>524.5</ele>
        <time>2022-10-16T07:17:24Z</time>
      </trkpt>
      <trkpt lat="44.4223" lon="5.1665">
        <ele>524.7</ele>
        <time>2022-10-16T07:17:23Z</time>
      </trkpt>
      <trkpt lat="44.42231" lon="5.16649">
        <ele>524.9</ele>
        <time>2022-10-16T07:17:22Z</time>
      </trkpt>
      <trkpt lat="44.42231" lon="5.16648">
        <ele>524.9</ele>
        <time>2022-10-16T07:17:21Z</time>
      </trkpt>
      <trkpt lat="44.42232" lon="5.16648">
        <ele>525.1</ele>
        <time>2022-10-16T07:17:20Z</time>
      </trkpt>
      <trkpt lat="44.42232" lon="5.16647">
        <ele>525.1</ele>
        <time>2022-10-16T07:17:19Z</time>
      </trkpt>
      <trkpt lat="44.42233" lon="5.16646">
        <ele>525.3</ele>
        <time>2022-10-16T07:17:17Z</time>
      </trkpt>
      <trkpt lat="44.42234" lon="5.16646">
        <ele>525.4</ele>
        <time>2022-10-16T07:17:16Z</time>
      </trkpt>
      <trkpt lat="44.42234" lon="5.16645">
        <ele>525.5</ele>
        <time>2022-10-16T07:17:14Z</time>
      </trkpt>
      <trkpt lat="44.42233" lon="5.16645">
        <ele>525.3</ele>
        <time>2022-10-16T07:17:12Z</time>
      </trkpt>
      <trkpt lat="44.42232" lon="5.16645">
        <ele>525.2</ele>
        <time>2022-10-16T07:17:10Z</time>
      </trkpt>
      <trkpt lat="44.42232" lon="5.16646">
        <ele>525.2</ele>
        <time>2022-10-16T07:17:09Z</time>
      </trkpt>
      <trkpt lat="44.42231" lon="5.16646">
        <ele>525</ele>
        <time>2022-10-16T07:17:08Z</time>
      </trkpt>
      <trkpt lat="44.42231" lon="5.16647">
        <ele>525</ele>
        <time>2022-10-16T07:17:07Z</time>
      </trkpt>
      <trkpt lat="44.42231" lon="5.16648">
        <ele>524.9</ele>
        <time>2022-10-16T07:17:06Z</time>
      </trkpt>
      <trkpt lat="44.4223" lon="5.1665">
        <ele>524.7</ele>
        <time>2022-10-16T07:16:56Z</time>
      </trkpt>
      <trkpt lat="44.42229" lon="5.16651">
        <ele>524.5</ele>
        <time>2022-10-16T07:16:55Z</time>
      </trkpt>
      <trkpt lat="44.42229" lon="5.16652">
        <ele>524.5</ele>
        <time>2022-10-16T07:16:54Z</time>
      </trkpt>
      <trkpt lat="44.42228" lon="5.16653">
        <ele>524.3</ele>
        <time>2022-10-16T07:16:53Z</time>
      </trkpt>
      <trkpt lat="44.42228" lon="5.16654">
        <ele>524.3</ele>
        <time>2022-10-16T07:16:52Z</time>
      </trkpt>
      <trkpt lat="44.42227" lon="5.16654">
        <ele>524.1</ele>
        <time>2022-10-16T07:16:51Z</time>
      </trkpt>
      <trkpt lat="44.42227" lon="5.16655">
        <ele>524.1</ele>
        <time>2022-10-16T07:16:50Z</time>
      </trkpt>
      <trkpt lat="44.42226" lon="5.16656">
        <ele>523.9</ele>
        <time>2022-10-16T07:16:48Z</time>
      </trkpt>
      <trkpt lat="44.42225" lon="5.16657">
        <ele>523.7</ele>
        <time>2022-10-16T07:16:47Z</time>
      </trkpt>
      <trkpt lat="44.42225" lon="5.16658">
        <ele>523.7</ele>
        <time>2022-10-16T07:16:46Z</time>
      </trkpt>
      <trkpt lat="44.42224" lon="5.16659">
        <ele>523.5</ele>
        <time>2022-10-16T07:16:45Z</time>
      </trkpt>
      <trkpt lat="44.42223" lon="5.16659">
        <ele>523.4</ele>
        <time>2022-10-16T07:16:44Z</time>
      </trkpt>
      <trkpt lat="44.42223" lon="5.1666">
        <ele>523.4</ele>
        <time>2022-10-16T07:16:43Z</time>
      </trkpt>
      <trkpt lat="44.42222" lon="5.16661">
        <ele>523.2</ele>
        <time>2022-10-16T07:16:41Z</time>
      </trkpt>
      <trkpt lat="44.42221" lon="5.16662">
        <ele>523.1</ele>
        <time>2022-10-16T07:16:40Z</time>
      </trkpt>
      <trkpt lat="44.4222" lon="5.16663">
        <ele>522.9</ele>
        <time>2022-10-16T07:16:39Z</time>
      </trkpt>
      <trkpt lat="44.4222" lon="5.16664">
        <ele>522.9</ele>
        <time>2022-10-16T07:16:38Z</time>
      </trkpt>
      <trkpt lat="44.42219" lon="5.16665">
        <ele>522.8</ele>
        <time>2022-10-16T07:16:37Z</time>
      </trkpt>
      <trkpt lat="44.42219" lon="5.16666">
        <ele>522.8</ele>
        <time>2022-10-16T07:16:36Z</time>
      </trkpt>
      <trkpt lat="44.42218" lon="5.16667">
        <ele>522.7</ele>
        <time>2022-10-16T07:16:35Z</time>
      </trkpt>
      <trkpt lat="44.42218" lon="5.16668">
        <ele>522.6</ele>
        <time>2022-10-16T07:16:34Z</time>
      </trkpt>
      <trkpt lat="44.42217" lon="5.16668">
        <ele>522.6</ele>
        <time>2022-10-16T07:16:33Z</time>
      </trkpt>
      <trkpt lat="44.42217" lon="5.16669">
        <ele>522.5</ele>
        <time>2022-10-16T07:16:32Z</time>
      </trkpt>
      <trkpt lat="44.42216" lon="5.16669">
        <ele>522.5</ele>
        <time>2022-10-16T07:16:31Z</time>
      </trkpt>
      <trkpt lat="44.42216" lon="5.1667">
        <ele>522.4</ele>
        <time>2022-10-16T07:16:30Z</time>
      </trkpt>
      <trkpt lat="44.42215" lon="5.1667">
        <ele>522.4</ele>
        <time>2022-10-16T07:16:29Z</time>
      </trkpt>
      <trkpt lat="44.42215" lon="5.16671">
        <ele>522.3</ele>
        <time>2022-10-16T07:16:28Z</time>
      </trkpt>
      <trkpt lat="44.42214" lon="5.16672">
        <ele>522.2</ele>
        <time>2022-10-16T07:16:27Z</time>
      </trkpt>
      <trkpt lat="44.42214" lon="5.16673">
        <ele>522.2</ele>
        <time>2022-10-16T07:16:26Z</time>
      </trkpt>
      <trkpt lat="44.42213" lon="5.16674">
        <ele>522.1</ele>
        <time>2022-10-16T07:16:24Z</time>
      </trkpt>
      <trkpt lat="44.42212" lon="5.16675">
        <ele>522</ele>
        <time>2022-10-16T07:16:23Z</time>
      </trkpt>
      <trkpt lat="44.42212" lon="5.16676">
        <ele>521.9</ele>
        <time>2022-10-16T07:16:22Z</time>
      </trkpt>
      <trkpt lat="44.42211" lon="5.16677">
        <ele>521.8</ele>
        <time>2022-10-16T07:16:21Z</time>
      </trkpt>
      <trkpt lat="44.4221" lon="5.16678">
        <ele>521.7</ele>
        <time>2022-10-16T07:16:19Z</time>
      </trkpt>
      <trkpt lat="44.42209" lon="5.16679">
        <ele>521.6</ele>
        <time>2022-10-16T07:16:18Z</time>
      </trkpt>
      <trkpt lat="44.42208" lon="5.1668">
        <ele>521.5</ele>
        <time>2022-10-16T07:16:17Z</time>
      </trkpt>
      <trkpt lat="44.42208" lon="5.16681">
        <ele>521.5</ele>
        <time>2022-10-16T07:16:16Z</time>
      </trkpt>
      <trkpt lat="44.42207" lon="5.16682">
        <ele>521.4</ele>
        <time>2022-10-16T07:16:15Z</time>
      </trkpt>
      <trkpt lat="44.42207" lon="5.16683">
        <ele>521.3</ele>
        <time>2022-10-16T07:16:14Z</time>
      </trkpt>
      <trkpt lat="44.42206" lon="5.16684">
        <ele>521.2</ele>
        <time>2022-10-16T07:16:13Z</time>
      </trkpt>
      <trkpt lat="44.42206" lon="5.16685">
        <ele>521.2</ele>
        <time>2022-10-16T07:16:12Z</time>
      </trkpt>
      <trkpt lat="44.42205" lon="5.16686">
        <ele>521.1</ele>
        <time>2022-10-16T07:16:11Z</time>
      </trkpt>
      <trkpt lat="44.42205" lon="5.16687">
        <ele>521</ele>
        <time>2022-10-16T07:16:10Z</time>
      </trkpt>
      <trkpt lat="44.42204" lon="5.16688">
        <ele>520.9</ele>
        <time>2022-10-16T07:16:09Z</time>
      </trkpt>
      <trkpt lat="44.42204" lon="5.16689">
        <ele>520.9</ele>
        <time>2022-10-16T07:16:08Z</time>
      </trkpt>
      <trkpt lat="44.42204" lon="5.1669">
        <ele>520.8</ele>
        <time>2022-10-16T07:16:07Z</time>
      </trkpt>
      <trkpt lat="44.42203" lon="5.16691">
        <ele>520.7</ele>
        <time>2022-10-16T07:16:06Z</time>
      </trkpt>
      <trkpt lat="44.42203" lon="5.16692">
        <ele>520.7</ele>
        <time>2022-10-16T07:16:05Z</time>
      </trkpt>
      <trkpt lat="44.42202" lon="5.16694">
        <ele>520.6</ele>
        <time>2022-10-16T07:16:04Z</time>
      </trkpt>
      <trkpt lat="44.42201" lon="5.16695">
        <ele>520.4</ele>
        <time>2022-10-16T07:16:03Z</time>
      </trkpt>
      <trkpt lat="44.42201" lon="5.16696">
        <ele>520.4</ele>
        <time>2022-10-16T07:16:02Z</time>
      </trkpt>
      <trkpt lat="44.422" lon="5.16697">
        <ele>520.2</ele>
        <time>2022-10-16T07:16:01Z</time>
      </trkpt>
      <trkpt lat="44.422" lon="5.16698">
        <ele>520.2</ele>
        <time>2022-10-16T07:16:00Z</time>
      </trkpt>
      <trkpt lat="44.42199" lon="5.16699">
        <ele>520</ele>
        <time>2022-10-16T07:15:59Z</time>
      </trkpt>
      <trkpt lat="44.42198" lon="5.167">
        <ele>519.9</ele>
        <time>2022-10-16T07:15:58Z</time>
      </trkpt>
      <trkpt lat="44.42198" lon="5.16701">
        <ele>519.8</ele>
        <time>2022-10-16T07:15:57Z</time>
      </trkpt>
      <trkpt lat="44.42197" lon="5.16703">
        <ele>519.6</ele>
        <time>2022-10-16T07:15:56Z</time>
      </trkpt>
      <trkpt lat="44.42197" lon="5.16704">
        <ele>519.5</ele>
        <time>2022-10-16T07:15:55Z</time>
      </trkpt>
      <trkpt lat="44.42196" lon="5.16705">
        <ele>519.4</ele>
        <time>2022-10-16T07:15:54Z</time>
      </trkpt>
      <trkpt lat="44.42196" lon="5.16706">
        <ele>519.3</ele>
        <time>2022-10-16T07:15:53Z</time>
      </trkpt>
      <trkpt lat="44.42195" lon="5.16707">
        <ele>519.1</ele>
        <time>2022-10-16T07:15:52Z</time>
      </trkpt>
      <trkpt lat="44.42195" lon="5.16709">
        <ele>519</ele>
        <time>2022-10-16T07:15:51Z</time>
      </trkpt>
      <trkpt lat="44.42194" lon="5.1671">
        <ele>518.8</ele>
        <time>2022-10-16T07:15:50Z</time>
      </trkpt>
      <trkpt lat="44.42194" lon="5.16711">
        <ele>518.7</ele>
        <time>2022-10-16T07:15:49Z</time>
      </trkpt>
      <trkpt lat="44.42193" lon="5.16712">
        <ele>518.4</ele>
        <time>2022-10-16T07:15:48Z</time>
      </trkpt>
      <trkpt lat="44.42193" lon="5.16713">
        <ele>518.4</ele>
        <time>2022-10-16T07:15:47Z</time>
      </trkpt>
      <trkpt lat="44.42193" lon="5.16715">
        <ele>518.2</ele>
        <time>2022-10-16T07:15:46Z</time>
      </trkpt>
      <trkpt lat="44.42192" lon="5.16716">
        <ele>518</ele>
        <time>2022-10-16T07:15:44Z</time>
      </trkpt>
      <trkpt lat="44.42191" lon="5.16717">
        <ele>517.8</ele>
        <time>2022-10-16T07:15:43Z</time>
      </trkpt>
      <trkpt lat="44.4219" lon="5.16718">
        <ele>517.5</ele>
        <time>2022-10-16T07:15:42Z</time>
      </trkpt>
      <trkpt lat="44.42189" lon="5.1672">
        <ele>517.3</ele>
        <time>2022-10-16T07:15:41Z</time>
      </trkpt>
      <trkpt lat="44.42189" lon="5.16721">
        <ele>517.3</ele>
        <time>2022-10-16T07:15:40Z</time>
      </trkpt>
      <trkpt lat="44.42188" lon="5.16722">
        <ele>517.1</ele>
        <time>2022-10-16T07:15:39Z</time>
      </trkpt>
      <trkpt lat="44.42188" lon="5.16723">
        <ele>517.1</ele>
        <time>2022-10-16T07:15:38Z</time>
      </trkpt>
      <trkpt lat="44.42187" lon="5.16724">
        <ele>516.9</ele>
        <time>2022-10-16T07:15:37Z</time>
      </trkpt>
      <trkpt lat="44.42187" lon="5.16725">
        <ele>516.9</ele>
        <time>2022-10-16T07:15:36Z</time>
      </trkpt>
      <trkpt lat="44.42186" lon="5.16726">
        <ele>516.7</ele>
        <time>2022-10-16T07:15:35Z</time>
      </trkpt>
      <trkpt lat="44.42185" lon="5.16727">
        <ele>516.6</ele>
        <time>2022-10-16T07:15:34Z</time>
      </trkpt>
      <trkpt lat="44.42185" lon="5.16728">
        <ele>516.6</ele>
        <time>2022-10-16T07:15:33Z</time>
      </trkpt>
      <trkpt lat="44.42184" lon="5.16729">
        <ele>516.4</ele>
        <time>2022-10-16T07:15:32Z</time>
      </trkpt>
      <trkpt lat="44.42184" lon="5.1673">
        <ele>516.4</ele>
        <time>2022-10-16T07:15:31Z</time>
      </trkpt>
      <trkpt lat="44.42183" lon="5.16731">
        <ele>516.3</ele>
        <time>2022-10-16T07:15:30Z</time>
      </trkpt>
      <trkpt lat="44.42183" lon="5.16732">
        <ele>516.3</ele>
        <time>2022-10-16T07:15:29Z</time>
      </trkpt>
      <trkpt lat="44.42182" lon="5.16733">
        <ele>516.2</ele>
        <time>2022-10-16T07:15:28Z</time>
      </trkpt>
      <trkpt lat="44.42181" lon="5.16735">
        <ele>516</ele>
        <time>2022-10-16T07:15:27Z</time>
      </trkpt>
      <trkpt lat="44.42181" lon="5.16736">
        <ele>516</ele>
        <time>2022-10-16T07:15:26Z</time>
      </trkpt>
      <trkpt lat="44.4218" lon="5.16737">
        <ele>515.9</ele>
        <time>2022-10-16T07:15:25Z</time>
      </trkpt>
      <trkpt lat="44.42179" lon="5.16737">
        <ele>515.8</ele>
        <time>2022-10-16T07:15:24Z</time>
      </trkpt>
      <trkpt lat="44.42178" lon="5.16738">
        <ele>515.7</ele>
        <time>2022-10-16T07:15:23Z</time>
      </trkpt>
      <trkpt lat="44.42178" lon="5.16739">
        <ele>515.7</ele>
        <time>2022-10-16T07:15:22Z</time>
      </trkpt>
      <trkpt lat="44.42177" lon="5.1674">
        <ele>515.7</ele>
        <time>2022-10-16T07:15:21Z</time>
      </trkpt>
      <trkpt lat="44.42176" lon="5.16741">
        <ele>515.6</ele>
        <time>2022-10-16T07:15:20Z</time>
      </trkpt>
      <trkpt lat="44.42176" lon="5.16742">
        <ele>515.6</ele>
        <time>2022-10-16T07:15:19Z</time>
      </trkpt>
      <trkpt lat="44.42175" lon="5.16743">
        <ele>515.5</ele>
        <time>2022-10-16T07:15:18Z</time>
      </trkpt>
      <trkpt lat="44.42174" lon="5.16744">
        <ele>515.4</ele>
        <time>2022-10-16T07:15:17Z</time>
      </trkpt>
      <trkpt lat="44.42173" lon="5.16744">
        <ele>515.3</ele>
        <time>2022-10-16T07:15:16Z</time>
      </trkpt>
      <trkpt lat="44.42173" lon="5.16745">
        <ele>515.4</ele>
        <time>2022-10-16T07:15:15Z</time>
      </trkpt>
      <trkpt lat="44.42172" lon="5.16745">
        <ele>515.3</ele>
        <time>2022-10-16T07:15:14Z</time>
      </trkpt>
      <trkpt lat="44.42171" lon="5.16745">
        <ele>515.2</ele>
        <time>2022-10-16T07:15:12Z</time>
      </trkpt>
      <trkpt lat="44.4217" lon="5.16745">
        <ele>515.1</ele>
        <time>2022-10-16T07:15:10Z</time>
      </trkpt>
      <trkpt lat="44.42169" lon="5.16745">
        <ele>515</ele>
        <time>2022-10-16T07:15:09Z</time>
      </trkpt>
      <trkpt lat="44.42169" lon="5.16746">
        <ele>515</ele>
        <time>2022-10-16T07:15:08Z</time>
      </trkpt>
      <trkpt lat="44.42169" lon="5.16747">
        <ele>515.1</ele>
        <time>2022-10-16T07:15:07Z</time>
      </trkpt>
      <trkpt lat="44.42169" lon="5.16748">
        <ele>515.1</ele>
        <time>2022-10-16T07:14:58Z</time>
      </trkpt>
      <trkpt lat="44.42168" lon="5.16749">
        <ele>515.1</ele>
        <time>2022-10-16T07:14:57Z</time>
      </trkpt>
      <trkpt lat="44.42168" lon="5.16751">
        <ele>515.1</ele>
        <time>2022-10-16T07:14:56Z</time>
      </trkpt>
      <trkpt lat="44.42168" lon="5.16752">
        <ele>515</ele>
        <time>2022-10-16T07:14:55Z</time>
      </trkpt>
      <trkpt lat="44.42168" lon="5.16753">
        <ele>515</ele>
        <time>2022-10-16T07:14:54Z</time>
      </trkpt>
      <trkpt lat="44.42168" lon="5.16754">
        <ele>514.9</ele>
        <time>2022-10-16T07:14:53Z</time>
      </trkpt>
      <trkpt lat="44.42168" lon="5.16756">
        <ele>514.9</ele>
        <time>2022-10-16T07:14:52Z</time>
      </trkpt>
      <trkpt lat="44.42167" lon="5.16757">
        <ele>514.8</ele>
        <time>2022-10-16T07:14:51Z</time>
      </trkpt>
      <trkpt lat="44.42167" lon="5.16758">
        <ele>514.7</ele>
        <time>2022-10-16T07:14:50Z</time>
      </trkpt>
      <trkpt lat="44.42167" lon="5.16759">
        <ele>514.7</ele>
        <time>2022-10-16T07:14:49Z</time>
      </trkpt>
      <trkpt lat="44.42167" lon="5.1676">
        <ele>514.7</ele>
        <time>2022-10-16T07:14:48Z</time>
      </trkpt>
      <trkpt lat="44.42166" lon="5.16761">
        <ele>514.5</ele>
        <time>2022-10-16T07:14:46Z</time>
      </trkpt>
      <trkpt lat="44.42165" lon="5.16763">
        <ele>514.4</ele>
        <time>2022-10-16T07:14:39Z</time>
      </trkpt>
      <trkpt lat="44.42165" lon="5.16764">
        <ele>514.3</ele>
        <time>2022-10-16T07:14:38Z</time>
      </trkpt>
      <trkpt lat="44.42165" lon="5.16765">
        <ele>514.3</ele>
        <time>2022-10-16T07:14:37Z</time>
      </trkpt>
      <trkpt lat="44.42165" lon="5.16766">
        <ele>514.3</ele>
        <time>2022-10-16T07:14:36Z</time>
      </trkpt>
      <trkpt lat="44.42165" lon="5.16767">
        <ele>514.3</ele>
        <time>2022-10-16T07:14:35Z</time>
      </trkpt>
      <trkpt lat="44.42165" lon="5.16768">
        <ele>514.2</ele>
        <time>2022-10-16T07:14:34Z</time>
      </trkpt>
      <trkpt lat="44.42165" lon="5.16769">
        <ele>514.2</ele>
        <time>2022-10-16T07:14:33Z</time>
      </trkpt>
      <trkpt lat="44.42166" lon="5.1677">
        <ele>514.2</ele>
        <time>2022-10-16T07:14:32Z</time>
      </trkpt>
      <trkpt lat="44.42166" lon="5.16771">
        <ele>514.2</ele>
        <time>2022-10-16T07:14:31Z</time>
      </trkpt>
      <trkpt lat="44.42166" lon="5.16772">
        <ele>514.2</ele>
        <time>2022-10-16T07:14:30Z</time>
      </trkpt>
      <trkpt lat="44.42166" lon="5.16773">
        <ele>514.1</ele>
        <time>2022-10-16T07:14:29Z</time>
      </trkpt>
      <trkpt lat="44.42166" lon="5.16774">
        <ele>514.1</ele>
        <time>2022-10-16T07:14:28Z</time>
      </trkpt>
      <trkpt lat="44.42166" lon="5.16775">
        <ele>514.1</ele>
        <time>2022-10-16T07:14:27Z</time>
      </trkpt>
      <trkpt lat="44.42166" lon="5.16776">
        <ele>514</ele>
        <time>2022-10-16T07:14:26Z</time>
      </trkpt>
      <trkpt lat="44.42166" lon="5.16777">
        <ele>514</ele>
        <time>2022-10-16T07:14:25Z</time>
      </trkpt>
      <trkpt lat="44.42166" lon="5.16778">
        <ele>514</ele>
        <time>2022-10-16T07:14:24Z</time>
      </trkpt>
      <trkpt lat="44.42165" lon="5.16779">
        <ele>513.8</ele>
        <time>2022-10-16T07:14:23Z</time>
      </trkpt>
      <trkpt lat="44.42165" lon="5.1678">
        <ele>513.7</ele>
        <time>2022-10-16T07:14:22Z</time>
      </trkpt>
      <trkpt lat="44.42165" lon="5.16781">
        <ele>513.6</ele>
        <time>2022-10-16T07:14:21Z</time>
      </trkpt>
      <trkpt lat="44.42165" lon="5.16783">
        <ele>513.4</ele>
        <time>2022-10-16T07:14:20Z</time>
      </trkpt>
      <trkpt lat="44.42164" lon="5.16784">
        <ele>513.3</ele>
        <time>2022-10-16T07:14:19Z</time>
      </trkpt>
      <trkpt lat="44.42164" lon="5.16785">
        <ele>513.1</ele>
        <time>2022-10-16T07:14:18Z</time>
      </trkpt>
      <trkpt lat="44.42164" lon="5.16786">
        <ele>513</ele>
        <time>2022-10-16T07:14:17Z</time>
      </trkpt>
      <trkpt lat="44.42163" lon="5.16787">
        <ele>512.9</ele>
        <time>2022-10-16T07:14:16Z</time>
      </trkpt>
      <trkpt lat="44.42163" lon="5.16788">
        <ele>512.8</ele>
        <time>2022-10-16T07:14:15Z</time>
      </trkpt>
      <trkpt lat="44.42163" lon="5.16789">
        <ele>512.7</ele>
        <time>2022-10-16T07:14:14Z</time>
      </trkpt>
      <trkpt lat="44.42163" lon="5.1679">
        <ele>512.6</ele>
        <time>2022-10-16T07:14:13Z</time>
      </trkpt>
      <trkpt lat="44.42162" lon="5.16791">
        <ele>512.5</ele>
        <time>2022-10-16T07:14:11Z</time>
      </trkpt>
    </trkseg>
  </trk>
</gpx>